<?xml version="1.0" encoding="UTF-8" standalone="no" ?>
<gpx xmlns="http://www.topografix.com/GPX/1/1" xmlns:xsi="http://www.w3.org/2001/XMLSchema-instance" xsi:schemaLocation="http://www.topografix.com/GPX/1/1 http://www.topografix.com/GPX/1/1/gpx.xsd" version="1.1" creator="VisuGPX - https://www.visugpx.com">
  <metadata>
    <name>Bagnols -Pennafort -Fille d'Isnard</name>
    <desc><![CDATA[avec RA]]></desc>
  </metadata>
  <trk>
    <name><![CDATA[Bagnols -Pennafort -Fille d'Isnard_13]]></name>
    <trkseg>
      <trkpt lat="43.58837" lon="6.77305">
        <ele>153.4</ele>
        <time>2025-01-10T10:42:54.000Z</time>
      </trkpt>
      <trkpt lat="43.58842" lon="6.77309">
        <ele>153.4</ele>
        <time>2025-01-10T10:42:53.000Z</time>
      </trkpt>
      <trkpt lat="43.58846" lon="6.77313">
        <ele>153.4</ele>
        <time>2025-01-10T10:42:52.000Z</time>
      </trkpt>
      <trkpt lat="43.58849" lon="6.77316">
        <ele>153.4</ele>
        <time>2025-01-10T10:42:51.000Z</time>
      </trkpt>
      <trkpt lat="43.58854" lon="6.77319">
        <ele>153.4</ele>
        <time>2025-01-10T10:42:50.000Z</time>
      </trkpt>
      <trkpt lat="43.58858" lon="6.77322">
        <ele>153.4</ele>
        <time>2025-01-10T10:42:49.000Z</time>
      </trkpt>
      <trkpt lat="43.58862" lon="6.77325">
        <ele>153.5</ele>
        <time>2025-01-10T10:42:48.000Z</time>
      </trkpt>
      <trkpt lat="43.58866" lon="6.77328">
        <ele>153.5</ele>
        <time>2025-01-10T10:42:47.000Z</time>
      </trkpt>
      <trkpt lat="43.58869" lon="6.77331">
        <ele>153.6</ele>
        <time>2025-01-10T10:42:46.000Z</time>
      </trkpt>
      <trkpt lat="43.58873" lon="6.77334">
        <ele>153.7</ele>
        <time>2025-01-10T10:42:45.000Z</time>
      </trkpt>
      <trkpt lat="43.58878" lon="6.77338">
        <ele>153.8</ele>
        <time>2025-01-10T10:42:44.000Z</time>
      </trkpt>
      <trkpt lat="43.58883" lon="6.77343">
        <ele>153.9</ele>
        <time>2025-01-10T10:42:43.000Z</time>
      </trkpt>
      <trkpt lat="43.58888" lon="6.77347">
        <ele>154</ele>
        <time>2025-01-10T10:42:42.000Z</time>
      </trkpt>
      <trkpt lat="43.58893" lon="6.77351">
        <ele>154.1</ele>
        <time>2025-01-10T10:42:41.000Z</time>
      </trkpt>
      <trkpt lat="43.58898" lon="6.77355">
        <ele>154.2</ele>
        <time>2025-01-10T10:42:40.000Z</time>
      </trkpt>
      <trkpt lat="43.58903" lon="6.7736">
        <ele>154.2</ele>
        <time>2025-01-10T10:42:39.000Z</time>
      </trkpt>
      <trkpt lat="43.5891" lon="6.77365">
        <ele>154.3</ele>
        <time>2025-01-10T10:42:38.000Z</time>
      </trkpt>
      <trkpt lat="43.58915" lon="6.77368">
        <ele>154.4</ele>
        <time>2025-01-10T10:42:37.000Z</time>
      </trkpt>
      <trkpt lat="43.58922" lon="6.77371">
        <ele>154.5</ele>
        <time>2025-01-10T10:42:36.000Z</time>
      </trkpt>
      <trkpt lat="43.58929" lon="6.77374">
        <ele>154.6</ele>
        <time>2025-01-10T10:42:35.000Z</time>
      </trkpt>
      <trkpt lat="43.58936" lon="6.77374">
        <ele>154.7</ele>
        <time>2025-01-10T10:42:34.000Z</time>
      </trkpt>
      <trkpt lat="43.58944" lon="6.77374">
        <ele>154.9</ele>
        <time>2025-01-10T10:42:33.000Z</time>
      </trkpt>
      <trkpt lat="43.58953" lon="6.77373">
        <ele>155.3</ele>
        <time>2025-01-10T10:42:32.000Z</time>
      </trkpt>
      <trkpt lat="43.58959" lon="6.77373">
        <ele>155.5</ele>
        <time>2025-01-10T10:42:31.000Z</time>
      </trkpt>
      <trkpt lat="43.58966" lon="6.77372">
        <ele>155.8</ele>
        <time>2025-01-10T10:42:30.000Z</time>
      </trkpt>
      <trkpt lat="43.58975" lon="6.77371">
        <ele>156.3</ele>
        <time>2025-01-10T10:42:29.000Z</time>
      </trkpt>
      <trkpt lat="43.58983" lon="6.7737">
        <ele>156.7</ele>
        <time>2025-01-10T10:42:28.000Z</time>
      </trkpt>
      <trkpt lat="43.58989" lon="6.7737">
        <ele>157</ele>
        <time>2025-01-10T10:42:27.000Z</time>
      </trkpt>
      <trkpt lat="43.58995" lon="6.77368">
        <ele>157.4</ele>
        <time>2025-01-10T10:42:26.000Z</time>
      </trkpt>
      <trkpt lat="43.59002" lon="6.77367">
        <ele>157.9</ele>
        <time>2025-01-10T10:42:25.000Z</time>
      </trkpt>
      <trkpt lat="43.59009" lon="6.77365">
        <ele>158.3</ele>
        <time>2025-01-10T10:42:24.000Z</time>
      </trkpt>
      <trkpt lat="43.59015" lon="6.77363">
        <ele>158.7</ele>
        <time>2025-01-10T10:42:23.000Z</time>
      </trkpt>
      <trkpt lat="43.59022" lon="6.7736">
        <ele>159.2</ele>
        <time>2025-01-10T10:42:22.000Z</time>
      </trkpt>
      <trkpt lat="43.59028" lon="6.77357">
        <ele>159.6</ele>
        <time>2025-01-10T10:42:21.000Z</time>
      </trkpt>
      <trkpt lat="43.59034" lon="6.77354">
        <ele>160</ele>
        <time>2025-01-10T10:42:20.000Z</time>
      </trkpt>
      <trkpt lat="43.59041" lon="6.77351">
        <ele>160.5</ele>
        <time>2025-01-10T10:42:19.000Z</time>
      </trkpt>
      <trkpt lat="43.59047" lon="6.77348">
        <ele>161</ele>
        <time>2025-01-10T10:42:18.000Z</time>
      </trkpt>
      <trkpt lat="43.59051" lon="6.77346">
        <ele>161.3</ele>
        <time>2025-01-10T10:42:17.000Z</time>
      </trkpt>
      <trkpt lat="43.59057" lon="6.77343">
        <ele>161.7</ele>
        <time>2025-01-10T10:42:16.000Z</time>
      </trkpt>
      <trkpt lat="43.59061" lon="6.77342">
        <ele>162</ele>
        <time>2025-01-10T10:42:15.000Z</time>
      </trkpt>
      <trkpt lat="43.59064" lon="6.77342">
        <ele>162.2</ele>
        <time>2025-01-10T10:42:14.000Z</time>
      </trkpt>
      <trkpt lat="43.59067" lon="6.77342">
        <ele>162.4</ele>
        <time>2025-01-10T10:42:13.000Z</time>
      </trkpt>
      <trkpt lat="43.5907" lon="6.77343">
        <ele>162.6</ele>
        <time>2025-01-10T10:42:12.000Z</time>
      </trkpt>
      <trkpt lat="43.59071" lon="6.77345">
        <ele>162.6</ele>
        <time>2025-01-10T10:42:11.000Z</time>
      </trkpt>
      <trkpt lat="43.59071" lon="6.77348">
        <ele>162.7</ele>
        <time>2025-01-10T10:42:10.000Z</time>
      </trkpt>
      <trkpt lat="43.59071" lon="6.77351">
        <ele>162.7</ele>
        <time>2025-01-10T10:42:09.000Z</time>
      </trkpt>
      <trkpt lat="43.59069" lon="6.77355">
        <ele>162.7</ele>
        <time>2025-01-10T10:42:08.000Z</time>
      </trkpt>
      <trkpt lat="43.59067" lon="6.77358">
        <ele>162.8</ele>
        <time>2025-01-10T10:42:07.000Z</time>
      </trkpt>
      <trkpt lat="43.59065" lon="6.77363">
        <ele>162.8</ele>
        <time>2025-01-10T10:42:06.000Z</time>
      </trkpt>
      <trkpt lat="43.59062" lon="6.77367">
        <ele>162.8</ele>
        <time>2025-01-10T10:42:05.000Z</time>
      </trkpt>
      <trkpt lat="43.59059" lon="6.77372">
        <ele>162.7</ele>
        <time>2025-01-10T10:42:04.000Z</time>
      </trkpt>
      <trkpt lat="43.59056" lon="6.77377">
        <ele>162.6</ele>
        <time>2025-01-10T10:42:03.000Z</time>
      </trkpt>
      <trkpt lat="43.59053" lon="6.77381">
        <ele>162.5</ele>
        <time>2025-01-10T10:42:02.000Z</time>
      </trkpt>
      <trkpt lat="43.5905" lon="6.77386">
        <ele>162.4</ele>
        <time>2025-01-10T10:42:01.000Z</time>
      </trkpt>
      <trkpt lat="43.59047" lon="6.77391">
        <ele>162.3</ele>
        <time>2025-01-10T10:42:00.000Z</time>
      </trkpt>
      <trkpt lat="43.59044" lon="6.77395">
        <ele>162.1</ele>
        <time>2025-01-10T10:41:59.000Z</time>
      </trkpt>
      <trkpt lat="43.59041" lon="6.77401">
        <ele>162</ele>
        <time>2025-01-10T10:41:58.000Z</time>
      </trkpt>
      <trkpt lat="43.59038" lon="6.77406">
        <ele>161.8</ele>
        <time>2025-01-10T10:41:57.000Z</time>
      </trkpt>
      <trkpt lat="43.59035" lon="6.77411">
        <ele>161.7</ele>
        <time>2025-01-10T10:41:56.000Z</time>
      </trkpt>
      <trkpt lat="43.59033" lon="6.77416">
        <ele>161.5</ele>
        <time>2025-01-10T10:41:55.000Z</time>
      </trkpt>
      <trkpt lat="43.5903" lon="6.77421">
        <ele>161.3</ele>
        <time>2025-01-10T10:41:54.000Z</time>
      </trkpt>
      <trkpt lat="43.59027" lon="6.77427">
        <ele>161.1</ele>
        <time>2025-01-10T10:41:53.000Z</time>
      </trkpt>
      <trkpt lat="43.59025" lon="6.77432">
        <ele>161</ele>
        <time>2025-01-10T10:41:52.000Z</time>
      </trkpt>
      <trkpt lat="43.59022" lon="6.77437">
        <ele>160.8</ele>
        <time>2025-01-10T10:41:51.000Z</time>
      </trkpt>
      <trkpt lat="43.5902" lon="6.77441">
        <ele>160.6</ele>
        <time>2025-01-10T10:41:50.000Z</time>
      </trkpt>
      <trkpt lat="43.59017" lon="6.77446">
        <ele>160.5</ele>
        <time>2025-01-10T10:41:49.000Z</time>
      </trkpt>
      <trkpt lat="43.59014" lon="6.7745">
        <ele>160.3</ele>
        <time>2025-01-10T10:41:48.000Z</time>
      </trkpt>
      <trkpt lat="43.59011" lon="6.77455">
        <ele>160.2</ele>
        <time>2025-01-10T10:41:47.000Z</time>
      </trkpt>
      <trkpt lat="43.59008" lon="6.77459">
        <ele>160</ele>
        <time>2025-01-10T10:41:46.000Z</time>
      </trkpt>
      <trkpt lat="43.59006" lon="6.77464">
        <ele>159.9</ele>
        <time>2025-01-10T10:41:45.000Z</time>
      </trkpt>
      <trkpt lat="43.59003" lon="6.77469">
        <ele>159.8</ele>
        <time>2025-01-10T10:41:44.000Z</time>
      </trkpt>
      <trkpt lat="43.59" lon="6.77473">
        <ele>159.8</ele>
        <time>2025-01-10T10:41:43.000Z</time>
      </trkpt>
      <trkpt lat="43.58997" lon="6.77478">
        <ele>159.7</ele>
        <time>2025-01-10T10:41:42.000Z</time>
      </trkpt>
      <trkpt lat="43.58994" lon="6.77483">
        <ele>159.7</ele>
        <time>2025-01-10T10:41:41.000Z</time>
      </trkpt>
      <trkpt lat="43.58991" lon="6.77488">
        <ele>159.6</ele>
        <time>2025-01-10T10:41:40.000Z</time>
      </trkpt>
      <trkpt lat="43.58988" lon="6.77494">
        <ele>159.6</ele>
        <time>2025-01-10T10:41:39.000Z</time>
      </trkpt>
      <trkpt lat="43.58985" lon="6.775">
        <ele>159.7</ele>
        <time>2025-01-10T10:41:38.000Z</time>
      </trkpt>
      <trkpt lat="43.58982" lon="6.77507">
        <ele>159.7</ele>
        <time>2025-01-10T10:41:37.000Z</time>
      </trkpt>
      <trkpt lat="43.58979" lon="6.77514">
        <ele>159.8</ele>
        <time>2025-01-10T10:41:36.000Z</time>
      </trkpt>
      <trkpt lat="43.58976" lon="6.77521">
        <ele>159.8</ele>
        <time>2025-01-10T10:41:35.000Z</time>
      </trkpt>
      <trkpt lat="43.58974" lon="6.77529">
        <ele>160</ele>
        <time>2025-01-10T10:41:34.000Z</time>
      </trkpt>
      <trkpt lat="43.58971" lon="6.77536">
        <ele>160.1</ele>
        <time>2025-01-10T10:41:33.000Z</time>
      </trkpt>
      <trkpt lat="43.58969" lon="6.77544">
        <ele>160.3</ele>
        <time>2025-01-10T10:41:32.000Z</time>
      </trkpt>
      <trkpt lat="43.58967" lon="6.77553">
        <ele>160.5</ele>
        <time>2025-01-10T10:41:31.000Z</time>
      </trkpt>
      <trkpt lat="43.58965" lon="6.7756">
        <ele>160.7</ele>
        <time>2025-01-10T10:41:30.000Z</time>
      </trkpt>
      <trkpt lat="43.58963" lon="6.77568">
        <ele>161</ele>
        <time>2025-01-10T10:41:29.000Z</time>
      </trkpt>
      <trkpt lat="43.58961" lon="6.77576">
        <ele>161.3</ele>
        <time>2025-01-10T10:41:28.000Z</time>
      </trkpt>
      <trkpt lat="43.58959" lon="6.77584">
        <ele>161.6</ele>
        <time>2025-01-10T10:41:27.000Z</time>
      </trkpt>
      <trkpt lat="43.58958" lon="6.7759">
        <ele>161.8</ele>
        <time>2025-01-10T10:41:26.000Z</time>
      </trkpt>
      <trkpt lat="43.58956" lon="6.77597">
        <ele>162</ele>
        <time>2025-01-10T10:41:25.000Z</time>
      </trkpt>
      <trkpt lat="43.58954" lon="6.77604">
        <ele>162.2</ele>
        <time>2025-01-10T10:41:24.000Z</time>
      </trkpt>
      <trkpt lat="43.58952" lon="6.77611">
        <ele>162.3</ele>
        <time>2025-01-10T10:41:23.000Z</time>
      </trkpt>
      <trkpt lat="43.5895" lon="6.77618">
        <ele>162.4</ele>
        <time>2025-01-10T10:41:22.000Z</time>
      </trkpt>
      <trkpt lat="43.58948" lon="6.77625">
        <ele>162.6</ele>
        <time>2025-01-10T10:41:21.000Z</time>
      </trkpt>
      <trkpt lat="43.58947" lon="6.77632">
        <ele>162.7</ele>
        <time>2025-01-10T10:41:20.000Z</time>
      </trkpt>
      <trkpt lat="43.58945" lon="6.7764">
        <ele>162.8</ele>
        <time>2025-01-10T10:41:19.000Z</time>
      </trkpt>
      <trkpt lat="43.58943" lon="6.77647">
        <ele>162.9</ele>
        <time>2025-01-10T10:41:18.000Z</time>
      </trkpt>
      <trkpt lat="43.58941" lon="6.77654">
        <ele>163.1</ele>
        <time>2025-01-10T10:41:17.000Z</time>
      </trkpt>
      <trkpt lat="43.58939" lon="6.7766">
        <ele>163.2</ele>
        <time>2025-01-10T10:41:16.000Z</time>
      </trkpt>
      <trkpt lat="43.58937" lon="6.77667">
        <ele>163.3</ele>
        <time>2025-01-10T10:41:15.000Z</time>
      </trkpt>
      <trkpt lat="43.58935" lon="6.77672">
        <ele>163.4</ele>
        <time>2025-01-10T10:41:14.000Z</time>
      </trkpt>
      <trkpt lat="43.58934" lon="6.77678">
        <ele>163.4</ele>
        <time>2025-01-10T10:41:13.000Z</time>
      </trkpt>
      <trkpt lat="43.58932" lon="6.77684">
        <ele>163.4</ele>
        <time>2025-01-10T10:41:12.000Z</time>
      </trkpt>
      <trkpt lat="43.5893" lon="6.7769">
        <ele>163.4</ele>
        <time>2025-01-10T10:41:11.000Z</time>
      </trkpt>
      <trkpt lat="43.58928" lon="6.77696">
        <ele>163.3</ele>
        <time>2025-01-10T10:41:10.000Z</time>
      </trkpt>
      <trkpt lat="43.58926" lon="6.77702">
        <ele>163.2</ele>
        <time>2025-01-10T10:41:09.000Z</time>
      </trkpt>
      <trkpt lat="43.58924" lon="6.77708">
        <ele>163.1</ele>
        <time>2025-01-10T10:41:08.000Z</time>
      </trkpt>
      <trkpt lat="43.58922" lon="6.77714">
        <ele>163</ele>
        <time>2025-01-10T10:41:07.000Z</time>
      </trkpt>
      <trkpt lat="43.5892" lon="6.77719">
        <ele>162.9</ele>
        <time>2025-01-10T10:41:06.000Z</time>
      </trkpt>
      <trkpt lat="43.58918" lon="6.77725">
        <ele>162.8</ele>
        <time>2025-01-10T10:41:05.000Z</time>
      </trkpt>
      <trkpt lat="43.58916" lon="6.7773">
        <ele>162.6</ele>
        <time>2025-01-10T10:41:04.000Z</time>
      </trkpt>
      <trkpt lat="43.58914" lon="6.77735">
        <ele>162.5</ele>
        <time>2025-01-10T10:41:03.000Z</time>
      </trkpt>
      <trkpt lat="43.58912" lon="6.7774">
        <ele>162.3</ele>
        <time>2025-01-10T10:41:02.000Z</time>
      </trkpt>
      <trkpt lat="43.5891" lon="6.77745">
        <ele>162.2</ele>
        <time>2025-01-10T10:41:01.000Z</time>
      </trkpt>
      <trkpt lat="43.58909" lon="6.7775">
        <ele>162</ele>
        <time>2025-01-10T10:41:00.000Z</time>
      </trkpt>
      <trkpt lat="43.58908" lon="6.77756">
        <ele>161.8</ele>
        <time>2025-01-10T10:40:59.000Z</time>
      </trkpt>
      <trkpt lat="43.58908" lon="6.77761">
        <ele>161.6</ele>
        <time>2025-01-10T10:40:58.000Z</time>
      </trkpt>
      <trkpt lat="43.58909" lon="6.77766">
        <ele>161.3</ele>
        <time>2025-01-10T10:40:57.000Z</time>
      </trkpt>
      <trkpt lat="43.5891" lon="6.7777">
        <ele>161.1</ele>
        <time>2025-01-10T10:40:56.000Z</time>
      </trkpt>
      <trkpt lat="43.58913" lon="6.77775">
        <ele>160.8</ele>
        <time>2025-01-10T10:40:55.000Z</time>
      </trkpt>
      <trkpt lat="43.58915" lon="6.77779">
        <ele>160.5</ele>
        <time>2025-01-10T10:40:54.000Z</time>
      </trkpt>
      <trkpt lat="43.58917" lon="6.77783">
        <ele>160.2</ele>
        <time>2025-01-10T10:40:53.000Z</time>
      </trkpt>
      <trkpt lat="43.58919" lon="6.77787">
        <ele>159.8</ele>
        <time>2025-01-10T10:40:52.000Z</time>
      </trkpt>
      <trkpt lat="43.58922" lon="6.7779">
        <ele>159.5</ele>
        <time>2025-01-10T10:40:51.000Z</time>
      </trkpt>
      <trkpt lat="43.58924" lon="6.77794">
        <ele>159.2</ele>
        <time>2025-01-10T10:40:50.000Z</time>
      </trkpt>
      <trkpt lat="43.58925" lon="6.77798">
        <ele>158.9</ele>
        <time>2025-01-10T10:40:49.000Z</time>
      </trkpt>
      <trkpt lat="43.58927" lon="6.77803">
        <ele>158.6</ele>
        <time>2025-01-10T10:40:48.000Z</time>
      </trkpt>
      <trkpt lat="43.58928" lon="6.77809">
        <ele>158.3</ele>
        <time>2025-01-10T10:40:47.000Z</time>
      </trkpt>
      <trkpt lat="43.58927" lon="6.77816">
        <ele>158</ele>
        <time>2025-01-10T10:40:46.000Z</time>
      </trkpt>
      <trkpt lat="43.58924" lon="6.77823">
        <ele>157.8</ele>
        <time>2025-01-10T10:40:45.000Z</time>
      </trkpt>
      <trkpt lat="43.58921" lon="6.7783">
        <ele>157.7</ele>
        <time>2025-01-10T10:40:44.000Z</time>
      </trkpt>
      <trkpt lat="43.58915" lon="6.77835">
        <ele>157.6</ele>
        <time>2025-01-10T10:40:43.000Z</time>
      </trkpt>
      <trkpt lat="43.58909" lon="6.7784">
        <ele>157.7</ele>
        <time>2025-01-10T10:40:42.000Z</time>
      </trkpt>
      <trkpt lat="43.58902" lon="6.77843">
        <ele>157.9</ele>
        <time>2025-01-10T10:40:41.000Z</time>
      </trkpt>
      <trkpt lat="43.58896" lon="6.77846">
        <ele>158.2</ele>
        <time>2025-01-10T10:40:40.000Z</time>
      </trkpt>
      <trkpt lat="43.5889" lon="6.77849">
        <ele>158.6</ele>
        <time>2025-01-10T10:40:39.000Z</time>
      </trkpt>
      <trkpt lat="43.58884" lon="6.77851">
        <ele>159</ele>
        <time>2025-01-10T10:40:38.000Z</time>
      </trkpt>
      <trkpt lat="43.58879" lon="6.77854">
        <ele>159.5</ele>
        <time>2025-01-10T10:40:37.000Z</time>
      </trkpt>
      <trkpt lat="43.58874" lon="6.77857">
        <ele>159.8</ele>
        <time>2025-01-10T10:40:36.000Z</time>
      </trkpt>
      <trkpt lat="43.5887" lon="6.77861">
        <ele>160.1</ele>
        <time>2025-01-10T10:40:35.000Z</time>
      </trkpt>
      <trkpt lat="43.58866" lon="6.77865">
        <ele>160.4</ele>
        <time>2025-01-10T10:40:34.000Z</time>
      </trkpt>
      <trkpt lat="43.58862" lon="6.77869">
        <ele>160.7</ele>
        <time>2025-01-10T10:40:33.000Z</time>
      </trkpt>
      <trkpt lat="43.58858" lon="6.77873">
        <ele>161</ele>
        <time>2025-01-10T10:40:32.000Z</time>
      </trkpt>
      <trkpt lat="43.58855" lon="6.77877">
        <ele>161.2</ele>
        <time>2025-01-10T10:40:31.000Z</time>
      </trkpt>
      <trkpt lat="43.58852" lon="6.77881">
        <ele>161.5</ele>
        <time>2025-01-10T10:40:30.000Z</time>
      </trkpt>
      <trkpt lat="43.58849" lon="6.77883">
        <ele>161.7</ele>
        <time>2025-01-10T10:40:29.000Z</time>
      </trkpt>
      <trkpt lat="43.58847" lon="6.77886">
        <ele>161.8</ele>
        <time>2025-01-10T10:40:28.000Z</time>
      </trkpt>
      <trkpt lat="43.58845" lon="6.77889">
        <ele>162</ele>
        <time>2025-01-10T10:40:27.000Z</time>
      </trkpt>
      <trkpt lat="43.58843" lon="6.77891">
        <ele>162.2</ele>
        <time>2025-01-10T10:40:26.000Z</time>
      </trkpt>
      <trkpt lat="43.58841" lon="6.77894">
        <ele>162.3</ele>
        <time>2025-01-10T10:40:25.000Z</time>
      </trkpt>
      <trkpt lat="43.5884" lon="6.77896">
        <ele>162.5</ele>
        <time>2025-01-10T10:40:24.000Z</time>
      </trkpt>
      <trkpt lat="43.58839" lon="6.77898">
        <ele>162.6</ele>
        <time>2025-01-10T10:40:23.000Z</time>
      </trkpt>
      <trkpt lat="43.58838" lon="6.779">
        <ele>162.7</ele>
        <time>2025-01-10T10:40:22.000Z</time>
      </trkpt>
      <trkpt lat="43.58837" lon="6.779">
        <ele>162.8</ele>
        <time>2025-01-10T10:40:21.000Z</time>
      </trkpt>
      <trkpt lat="43.58836" lon="6.77901">
        <ele>162.8</ele>
        <time>2025-01-10T10:40:20.000Z</time>
      </trkpt>
      <trkpt lat="43.58836" lon="6.77901">
        <ele>162.9</ele>
        <time>2025-01-10T10:40:19.000Z</time>
      </trkpt>
      <trkpt lat="43.58836" lon="6.77902">
        <ele>163</ele>
        <time>2025-01-10T10:40:18.000Z</time>
      </trkpt>
      <trkpt lat="43.58837" lon="6.77902">
        <ele>163.1</ele>
        <time>2025-01-10T10:40:17.000Z</time>
      </trkpt>
      <trkpt lat="43.58837" lon="6.77902">
        <ele>163.2</ele>
        <time>2025-01-10T10:40:16.000Z</time>
      </trkpt>
      <trkpt lat="43.58838" lon="6.77902">
        <ele>163.3</ele>
        <time>2025-01-10T10:40:15.000Z</time>
      </trkpt>
      <trkpt lat="43.58838" lon="6.77902">
        <ele>163.4</ele>
        <time>2025-01-10T10:40:14.000Z</time>
      </trkpt>
      <trkpt lat="43.58838" lon="6.77902">
        <ele>163.5</ele>
        <time>2025-01-10T10:40:13.000Z</time>
      </trkpt>
      <trkpt lat="43.58838" lon="6.77902">
        <ele>163.7</ele>
        <time>2025-01-10T10:40:12.000Z</time>
      </trkpt>
      <trkpt lat="43.58837" lon="6.77902">
        <ele>163.8</ele>
        <time>2025-01-10T10:40:11.000Z</time>
      </trkpt>
      <trkpt lat="43.58837" lon="6.77902">
        <ele>163.9</ele>
        <time>2025-01-10T10:40:10.000Z</time>
      </trkpt>
      <trkpt lat="43.58837" lon="6.77903">
        <ele>164</ele>
        <time>2025-01-10T10:40:09.000Z</time>
      </trkpt>
      <trkpt lat="43.58838" lon="6.77903">
        <ele>164.1</ele>
        <time>2025-01-10T10:40:08.000Z</time>
      </trkpt>
      <trkpt lat="43.58838" lon="6.77903">
        <ele>164.2</ele>
        <time>2025-01-10T10:40:07.000Z</time>
      </trkpt>
      <trkpt lat="43.58838" lon="6.77903">
        <ele>164.7</ele>
        <time>2025-01-10T10:40:06.000Z</time>
      </trkpt>
      <trkpt lat="43.58839" lon="6.77903">
        <ele>164.8</ele>
        <time>2025-01-10T10:40:05.000Z</time>
      </trkpt>
      <trkpt lat="43.5884" lon="6.77903">
        <ele>164.9</ele>
        <time>2025-01-10T10:40:04.000Z</time>
      </trkpt>
      <trkpt lat="43.58841" lon="6.77903">
        <ele>165.1</ele>
        <time>2025-01-10T10:40:03.000Z</time>
      </trkpt>
      <trkpt lat="43.58843" lon="6.77903">
        <ele>165.5</ele>
        <time>2025-01-10T10:40:02.000Z</time>
      </trkpt>
      <trkpt lat="43.58846" lon="6.77902">
        <ele>166</ele>
        <time>2025-01-10T10:40:01.000Z</time>
      </trkpt>
      <trkpt lat="43.58848" lon="6.77902">
        <ele>166.4</ele>
        <time>2025-01-10T10:40:00.000Z</time>
      </trkpt>
      <trkpt lat="43.5885" lon="6.77901">
        <ele>166.5</ele>
        <time>2025-01-10T10:39:59.000Z</time>
      </trkpt>
      <trkpt lat="43.58852" lon="6.779">
        <ele>167</ele>
        <time>2025-01-10T10:39:58.000Z</time>
      </trkpt>
      <trkpt lat="43.58853" lon="6.77899">
        <ele>166.6</ele>
        <time>2025-01-10T10:39:57.000Z</time>
      </trkpt>
      <trkpt lat="43.58855" lon="6.77897">
        <ele>167.1</ele>
        <time>2025-01-10T10:39:56.000Z</time>
      </trkpt>
      <trkpt lat="43.58857" lon="6.77896">
        <ele>167.7</ele>
        <time>2025-01-10T10:39:55.000Z</time>
      </trkpt>
      <trkpt lat="43.58858" lon="6.77894">
        <ele>167.3</ele>
        <time>2025-01-10T10:39:54.000Z</time>
      </trkpt>
      <trkpt lat="43.58859" lon="6.77892">
        <ele>167.4</ele>
        <time>2025-01-10T10:39:53.000Z</time>
      </trkpt>
      <trkpt lat="43.58861" lon="6.77891">
        <ele>167.9</ele>
        <time>2025-01-10T10:39:52.000Z</time>
      </trkpt>
      <trkpt lat="43.58862" lon="6.77892">
        <ele>168</ele>
        <time>2025-01-10T10:39:51.000Z</time>
      </trkpt>
      <trkpt lat="43.58864" lon="6.77894">
        <ele>168.5</ele>
        <time>2025-01-10T10:39:50.000Z</time>
      </trkpt>
      <trkpt lat="43.58863" lon="6.77897">
        <ele>169.1</ele>
        <time>2025-01-10T10:39:49.000Z</time>
      </trkpt>
      <trkpt lat="43.58861" lon="6.77903">
        <ele>169.3</ele>
        <time>2025-01-10T10:39:48.000Z</time>
      </trkpt>
      <trkpt lat="43.58859" lon="6.77907">
        <ele>169.5</ele>
        <time>2025-01-10T10:39:47.000Z</time>
      </trkpt>
      <trkpt lat="43.58858" lon="6.7791">
        <ele>170.1</ele>
        <time>2025-01-10T10:39:46.000Z</time>
      </trkpt>
      <trkpt lat="43.58858" lon="6.77913">
        <ele>170.6</ele>
        <time>2025-01-10T10:39:45.000Z</time>
      </trkpt>
      <trkpt lat="43.58857" lon="6.77915">
        <ele>170.7</ele>
        <time>2025-01-10T10:39:44.000Z</time>
      </trkpt>
      <trkpt lat="43.58856" lon="6.77917">
        <ele>170.5</ele>
        <time>2025-01-10T10:39:43.000Z</time>
      </trkpt>
      <trkpt lat="43.58856" lon="6.77917">
        <ele>171</ele>
        <time>2025-01-10T10:39:42.000Z</time>
      </trkpt>
      <trkpt lat="43.58856" lon="6.77917">
        <ele>171.1</ele>
        <time>2025-01-10T10:39:41.000Z</time>
      </trkpt>
      <trkpt lat="43.58856" lon="6.77918">
        <ele>171.2</ele>
        <time>2025-01-10T10:39:40.000Z</time>
      </trkpt>
      <trkpt lat="43.58856" lon="6.77918">
        <ele>171.3</ele>
        <time>2025-01-10T10:39:39.000Z</time>
      </trkpt>
      <trkpt lat="43.58857" lon="6.77919">
        <ele>171.9</ele>
        <time>2025-01-10T10:39:38.000Z</time>
      </trkpt>
      <trkpt lat="43.58859" lon="6.7792">
        <ele>172</ele>
        <time>2025-01-10T10:39:37.000Z</time>
      </trkpt>
      <trkpt lat="43.58861" lon="6.7792">
        <ele>172.5</ele>
        <time>2025-01-10T10:39:36.000Z</time>
      </trkpt>
      <trkpt lat="43.58862" lon="6.77921">
        <ele>173</ele>
        <time>2025-01-10T10:39:35.000Z</time>
      </trkpt>
      <trkpt lat="43.58864" lon="6.77922">
        <ele>173.5</ele>
        <time>2025-01-10T10:39:34.000Z</time>
      </trkpt>
      <trkpt lat="43.58866" lon="6.77923">
        <ele>173.6</ele>
        <time>2025-01-10T10:39:33.000Z</time>
      </trkpt>
      <trkpt lat="43.58868" lon="6.77924">
        <ele>174</ele>
        <time>2025-01-10T10:39:32.000Z</time>
      </trkpt>
      <trkpt lat="43.58871" lon="6.77926">
        <ele>174.8</ele>
        <time>2025-01-10T10:39:31.000Z</time>
      </trkpt>
      <trkpt lat="43.58873" lon="6.77927">
        <ele>175.2</ele>
        <time>2025-01-10T10:39:30.000Z</time>
      </trkpt>
      <trkpt lat="43.58875" lon="6.77928">
        <ele>175.3</ele>
        <time>2025-01-10T10:39:29.000Z</time>
      </trkpt>
      <trkpt lat="43.58879" lon="6.77931">
        <ele>176.4</ele>
        <time>2025-01-10T10:39:28.000Z</time>
      </trkpt>
      <trkpt lat="43.58882" lon="6.77932">
        <ele>176.7</ele>
        <time>2025-01-10T10:39:27.000Z</time>
      </trkpt>
      <trkpt lat="43.58885" lon="6.77934">
        <ele>177.5</ele>
        <time>2025-01-10T10:39:26.000Z</time>
      </trkpt>
      <trkpt lat="43.58889" lon="6.77936">
        <ele>177.9</ele>
        <time>2025-01-10T10:39:25.000Z</time>
      </trkpt>
      <trkpt lat="43.58892" lon="6.77938">
        <ele>178.3</ele>
        <time>2025-01-10T10:39:24.000Z</time>
      </trkpt>
      <trkpt lat="43.58896" lon="6.7794">
        <ele>179.1</ele>
        <time>2025-01-10T10:39:23.000Z</time>
      </trkpt>
      <trkpt lat="43.58898" lon="6.77941">
        <ele>179.4</ele>
        <time>2025-01-10T10:39:22.000Z</time>
      </trkpt>
      <trkpt lat="43.58902" lon="6.77943">
        <ele>180.2</ele>
        <time>2025-01-10T10:39:21.000Z</time>
      </trkpt>
      <trkpt lat="43.58905" lon="6.77944">
        <ele>180.5</ele>
        <time>2025-01-10T10:39:20.000Z</time>
      </trkpt>
      <trkpt lat="43.58908" lon="6.77945">
        <ele>180.9</ele>
        <time>2025-01-10T10:39:19.000Z</time>
      </trkpt>
      <trkpt lat="43.58912" lon="6.77946">
        <ele>181.2</ele>
        <time>2025-01-10T10:39:18.000Z</time>
      </trkpt>
      <trkpt lat="43.58916" lon="6.77947">
        <ele>182</ele>
        <time>2025-01-10T10:39:17.000Z</time>
      </trkpt>
      <trkpt lat="43.58919" lon="6.77948">
        <ele>182.6</ele>
        <time>2025-01-10T10:39:16.000Z</time>
      </trkpt>
      <trkpt lat="43.58923" lon="6.77949">
        <ele>182.9</ele>
        <time>2025-01-10T10:39:15.000Z</time>
      </trkpt>
      <trkpt lat="43.58926" lon="6.7795">
        <ele>183.3</ele>
        <time>2025-01-10T10:39:14.000Z</time>
      </trkpt>
      <trkpt lat="43.58929" lon="6.77952">
        <ele>184</ele>
        <time>2025-01-10T10:39:13.000Z</time>
      </trkpt>
      <trkpt lat="43.58931" lon="6.77953">
        <ele>184.2</ele>
        <time>2025-01-10T10:39:12.000Z</time>
      </trkpt>
      <trkpt lat="43.58934" lon="6.77955">
        <ele>184.5</ele>
        <time>2025-01-10T10:39:11.000Z</time>
      </trkpt>
      <trkpt lat="43.58936" lon="6.77956">
        <ele>185.3</ele>
        <time>2025-01-10T10:39:10.000Z</time>
      </trkpt>
      <trkpt lat="43.58939" lon="6.77958">
        <ele>185.6</ele>
        <time>2025-01-10T10:39:09.000Z</time>
      </trkpt>
      <trkpt lat="43.58941" lon="6.7796">
        <ele>186.4</ele>
        <time>2025-01-10T10:39:08.000Z</time>
      </trkpt>
      <trkpt lat="43.58942" lon="6.77962">
        <ele>186.5</ele>
        <time>2025-01-10T10:39:07.000Z</time>
      </trkpt>
      <trkpt lat="43.58943" lon="6.77964">
        <ele>187</ele>
        <time>2025-01-10T10:39:06.000Z</time>
      </trkpt>
      <trkpt lat="43.58944" lon="6.77966">
        <ele>187.2</ele>
        <time>2025-01-10T10:39:05.000Z</time>
      </trkpt>
      <trkpt lat="43.58945" lon="6.77969">
        <ele>187.9</ele>
        <time>2025-01-10T10:39:04.000Z</time>
      </trkpt>
      <trkpt lat="43.58947" lon="6.77972">
        <ele>188.1</ele>
        <time>2025-01-10T10:39:03.000Z</time>
      </trkpt>
      <trkpt lat="43.5895" lon="6.77975">
        <ele>188.3</ele>
        <time>2025-01-10T10:39:02.000Z</time>
      </trkpt>
      <trkpt lat="43.58953" lon="6.77977">
        <ele>188.6</ele>
        <time>2025-01-10T10:39:01.000Z</time>
      </trkpt>
      <trkpt lat="43.58956" lon="6.77979">
        <ele>188.8</ele>
        <time>2025-01-10T10:39:00.000Z</time>
      </trkpt>
      <trkpt lat="43.58959" lon="6.77982">
        <ele>189.1</ele>
        <time>2025-01-10T10:38:59.000Z</time>
      </trkpt>
      <trkpt lat="43.58961" lon="6.77984">
        <ele>189.3</ele>
        <time>2025-01-10T10:38:58.000Z</time>
      </trkpt>
      <trkpt lat="43.58962" lon="6.77985">
        <ele>189.5</ele>
        <time>2025-01-10T10:38:57.000Z</time>
      </trkpt>
      <trkpt lat="43.58963" lon="6.77986">
        <ele>189.5</ele>
        <time>2025-01-10T10:38:56.000Z</time>
      </trkpt>
      <trkpt lat="43.58963" lon="6.77987">
        <ele>189.6</ele>
        <time>2025-01-10T10:38:55.000Z</time>
      </trkpt>
      <trkpt lat="43.58963" lon="6.77987">
        <ele>189.6</ele>
        <time>2025-01-10T10:38:54.000Z</time>
      </trkpt>
      <trkpt lat="43.58963" lon="6.77987">
        <ele>189.6</ele>
        <time>2025-01-10T10:38:53.000Z</time>
      </trkpt>
      <trkpt lat="43.58963" lon="6.77987">
        <ele>189.6</ele>
        <time>2025-01-10T10:38:52.000Z</time>
      </trkpt>
      <trkpt lat="43.58963" lon="6.77987">
        <ele>189.6</ele>
        <time>2025-01-10T10:38:51.000Z</time>
      </trkpt>
      <trkpt lat="43.58963" lon="6.77987">
        <ele>189.6</ele>
        <time>2025-01-10T10:38:50.000Z</time>
      </trkpt>
      <trkpt lat="43.58963" lon="6.77987">
        <ele>189.6</ele>
        <time>2025-01-10T10:38:49.000Z</time>
      </trkpt>
      <trkpt lat="43.58964" lon="6.77987">
        <ele>189.7</ele>
        <time>2025-01-10T10:38:48.000Z</time>
      </trkpt>
      <trkpt lat="43.58963" lon="6.77987">
        <ele>189.7</ele>
        <time>2025-01-10T10:38:47.000Z</time>
      </trkpt>
      <trkpt lat="43.58964" lon="6.77986">
        <ele>189.7</ele>
        <time>2025-01-10T10:38:46.000Z</time>
      </trkpt>
      <trkpt lat="43.58964" lon="6.77986">
        <ele>189.7</ele>
        <time>2025-01-10T10:38:45.000Z</time>
      </trkpt>
      <trkpt lat="43.58964" lon="6.77986">
        <ele>189.8</ele>
        <time>2025-01-10T10:38:44.000Z</time>
      </trkpt>
      <trkpt lat="43.58964" lon="6.77987">
        <ele>189.8</ele>
        <time>2025-01-10T10:38:43.000Z</time>
      </trkpt>
      <trkpt lat="43.58965" lon="6.77987">
        <ele>189.8</ele>
        <time>2025-01-10T10:38:42.000Z</time>
      </trkpt>
      <trkpt lat="43.58966" lon="6.77987">
        <ele>190</ele>
        <time>2025-01-10T10:38:41.000Z</time>
      </trkpt>
      <trkpt lat="43.58968" lon="6.77989">
        <ele>190.1</ele>
        <time>2025-01-10T10:38:40.000Z</time>
      </trkpt>
      <trkpt lat="43.5897" lon="6.77992">
        <ele>190.5</ele>
        <time>2025-01-10T10:38:39.000Z</time>
      </trkpt>
      <trkpt lat="43.58971" lon="6.77997">
        <ele>190.9</ele>
        <time>2025-01-10T10:38:38.000Z</time>
      </trkpt>
      <trkpt lat="43.58972" lon="6.78001">
        <ele>191.3</ele>
        <time>2025-01-10T10:38:37.000Z</time>
      </trkpt>
      <trkpt lat="43.58972" lon="6.78006">
        <ele>191.6</ele>
        <time>2025-01-10T10:38:36.000Z</time>
      </trkpt>
      <trkpt lat="43.58972" lon="6.78011">
        <ele>192.1</ele>
        <time>2025-01-10T10:38:35.000Z</time>
      </trkpt>
      <trkpt lat="43.58972" lon="6.78015">
        <ele>192.5</ele>
        <time>2025-01-10T10:38:34.000Z</time>
      </trkpt>
      <trkpt lat="43.58973" lon="6.78019">
        <ele>192.9</ele>
        <time>2025-01-10T10:38:33.000Z</time>
      </trkpt>
      <trkpt lat="43.58974" lon="6.78023">
        <ele>193.3</ele>
        <time>2025-01-10T10:38:32.000Z</time>
      </trkpt>
      <trkpt lat="43.58975" lon="6.78027">
        <ele>193.7</ele>
        <time>2025-01-10T10:38:31.000Z</time>
      </trkpt>
      <trkpt lat="43.58977" lon="6.7803">
        <ele>194.1</ele>
        <time>2025-01-10T10:38:30.000Z</time>
      </trkpt>
      <trkpt lat="43.58978" lon="6.78033">
        <ele>194.5</ele>
        <time>2025-01-10T10:38:29.000Z</time>
      </trkpt>
      <trkpt lat="43.5898" lon="6.78035">
        <ele>194.9</ele>
        <time>2025-01-10T10:38:28.000Z</time>
      </trkpt>
      <trkpt lat="43.58982" lon="6.78037">
        <ele>195.1</ele>
        <time>2025-01-10T10:38:27.000Z</time>
      </trkpt>
      <trkpt lat="43.58984" lon="6.78037">
        <ele>195.4</ele>
        <time>2025-01-10T10:38:26.000Z</time>
      </trkpt>
      <trkpt lat="43.58986" lon="6.78038">
        <ele>195.8</ele>
        <time>2025-01-10T10:38:25.000Z</time>
      </trkpt>
      <trkpt lat="43.58988" lon="6.78039">
        <ele>196.2</ele>
        <time>2025-01-10T10:38:24.000Z</time>
      </trkpt>
      <trkpt lat="43.58991" lon="6.78041">
        <ele>196.5</ele>
        <time>2025-01-10T10:38:23.000Z</time>
      </trkpt>
      <trkpt lat="43.58993" lon="6.78044">
        <ele>197</ele>
        <time>2025-01-10T10:38:22.000Z</time>
      </trkpt>
      <trkpt lat="43.58995" lon="6.78048">
        <ele>197.5</ele>
        <time>2025-01-10T10:38:21.000Z</time>
      </trkpt>
      <trkpt lat="43.58997" lon="6.78053">
        <ele>197.9</ele>
        <time>2025-01-10T10:38:20.000Z</time>
      </trkpt>
      <trkpt lat="43.58999" lon="6.78057">
        <ele>198.4</ele>
        <time>2025-01-10T10:38:19.000Z</time>
      </trkpt>
      <trkpt lat="43.59001" lon="6.7806">
        <ele>198.8</ele>
        <time>2025-01-10T10:38:18.000Z</time>
      </trkpt>
      <trkpt lat="43.59003" lon="6.78063">
        <ele>199.3</ele>
        <time>2025-01-10T10:38:17.000Z</time>
      </trkpt>
      <trkpt lat="43.59006" lon="6.78066">
        <ele>199.6</ele>
        <time>2025-01-10T10:38:16.000Z</time>
      </trkpt>
      <trkpt lat="43.59008" lon="6.78069">
        <ele>200</ele>
        <time>2025-01-10T10:38:15.000Z</time>
      </trkpt>
      <trkpt lat="43.5901" lon="6.78072">
        <ele>200.4</ele>
        <time>2025-01-10T10:38:14.000Z</time>
      </trkpt>
      <trkpt lat="43.59013" lon="6.78076">
        <ele>200.9</ele>
        <time>2025-01-10T10:38:13.000Z</time>
      </trkpt>
      <trkpt lat="43.59014" lon="6.78081">
        <ele>201.3</ele>
        <time>2025-01-10T10:38:12.000Z</time>
      </trkpt>
      <trkpt lat="43.59015" lon="6.78086">
        <ele>201.8</ele>
        <time>2025-01-10T10:38:11.000Z</time>
      </trkpt>
      <trkpt lat="43.59016" lon="6.78091">
        <ele>202.2</ele>
        <time>2025-01-10T10:38:10.000Z</time>
      </trkpt>
      <trkpt lat="43.59017" lon="6.78096">
        <ele>202.7</ele>
        <time>2025-01-10T10:38:09.000Z</time>
      </trkpt>
      <trkpt lat="43.59018" lon="6.781">
        <ele>203.1</ele>
        <time>2025-01-10T10:38:08.000Z</time>
      </trkpt>
      <trkpt lat="43.5902" lon="6.78103">
        <ele>203.5</ele>
        <time>2025-01-10T10:38:07.000Z</time>
      </trkpt>
      <trkpt lat="43.59022" lon="6.78106">
        <ele>203.9</ele>
        <time>2025-01-10T10:38:06.000Z</time>
      </trkpt>
      <trkpt lat="43.59024" lon="6.78108">
        <ele>204.3</ele>
        <time>2025-01-10T10:38:05.000Z</time>
      </trkpt>
      <trkpt lat="43.59026" lon="6.78109">
        <ele>204.7</ele>
        <time>2025-01-10T10:38:04.000Z</time>
      </trkpt>
      <trkpt lat="43.59029" lon="6.78111">
        <ele>205.1</ele>
        <time>2025-01-10T10:38:03.000Z</time>
      </trkpt>
      <trkpt lat="43.59031" lon="6.78112">
        <ele>205.6</ele>
        <time>2025-01-10T10:38:02.000Z</time>
      </trkpt>
      <trkpt lat="43.59033" lon="6.78114">
        <ele>206</ele>
        <time>2025-01-10T10:38:01.000Z</time>
      </trkpt>
      <trkpt lat="43.59035" lon="6.78117">
        <ele>206.4</ele>
        <time>2025-01-10T10:38:00.000Z</time>
      </trkpt>
      <trkpt lat="43.59036" lon="6.7812">
        <ele>206.9</ele>
        <time>2025-01-10T10:37:59.000Z</time>
      </trkpt>
      <trkpt lat="43.59037" lon="6.78125">
        <ele>207.4</ele>
        <time>2025-01-10T10:37:58.000Z</time>
      </trkpt>
      <trkpt lat="43.59038" lon="6.78129">
        <ele>208</ele>
        <time>2025-01-10T10:37:57.000Z</time>
      </trkpt>
      <trkpt lat="43.59039" lon="6.78134">
        <ele>208.5</ele>
        <time>2025-01-10T10:37:56.000Z</time>
      </trkpt>
      <trkpt lat="43.5904" lon="6.78138">
        <ele>209</ele>
        <time>2025-01-10T10:37:55.000Z</time>
      </trkpt>
      <trkpt lat="43.59042" lon="6.78142">
        <ele>209.6</ele>
        <time>2025-01-10T10:37:54.000Z</time>
      </trkpt>
      <trkpt lat="43.59043" lon="6.78147">
        <ele>210.1</ele>
        <time>2025-01-10T10:37:53.000Z</time>
      </trkpt>
      <trkpt lat="43.59045" lon="6.78152">
        <ele>210.7</ele>
        <time>2025-01-10T10:37:52.000Z</time>
      </trkpt>
      <trkpt lat="43.59047" lon="6.78158">
        <ele>211.2</ele>
        <time>2025-01-10T10:37:51.000Z</time>
      </trkpt>
      <trkpt lat="43.59049" lon="6.78163">
        <ele>211.8</ele>
        <time>2025-01-10T10:37:50.000Z</time>
      </trkpt>
      <trkpt lat="43.59051" lon="6.78167">
        <ele>212.2</ele>
        <time>2025-01-10T10:37:49.000Z</time>
      </trkpt>
      <trkpt lat="43.59052" lon="6.78172">
        <ele>212.7</ele>
        <time>2025-01-10T10:37:48.000Z</time>
      </trkpt>
      <trkpt lat="43.59054" lon="6.78177">
        <ele>213.2</ele>
        <time>2025-01-10T10:37:47.000Z</time>
      </trkpt>
      <trkpt lat="43.59056" lon="6.78182">
        <ele>213.7</ele>
        <time>2025-01-10T10:37:46.000Z</time>
      </trkpt>
      <trkpt lat="43.59057" lon="6.78187">
        <ele>214.2</ele>
        <time>2025-01-10T10:37:45.000Z</time>
      </trkpt>
      <trkpt lat="43.59059" lon="6.78193">
        <ele>214.7</ele>
        <time>2025-01-10T10:37:44.000Z</time>
      </trkpt>
      <trkpt lat="43.5906" lon="6.78199">
        <ele>215.3</ele>
        <time>2025-01-10T10:37:43.000Z</time>
      </trkpt>
      <trkpt lat="43.59062" lon="6.78205">
        <ele>215.9</ele>
        <time>2025-01-10T10:37:42.000Z</time>
      </trkpt>
      <trkpt lat="43.59063" lon="6.78212">
        <ele>216.5</ele>
        <time>2025-01-10T10:37:41.000Z</time>
      </trkpt>
      <trkpt lat="43.59064" lon="6.78218">
        <ele>217.1</ele>
        <time>2025-01-10T10:37:40.000Z</time>
      </trkpt>
      <trkpt lat="43.59065" lon="6.78224">
        <ele>217.6</ele>
        <time>2025-01-10T10:37:39.000Z</time>
      </trkpt>
      <trkpt lat="43.59067" lon="6.7823">
        <ele>218.2</ele>
        <time>2025-01-10T10:37:38.000Z</time>
      </trkpt>
      <trkpt lat="43.59068" lon="6.78235">
        <ele>218.6</ele>
        <time>2025-01-10T10:37:37.000Z</time>
      </trkpt>
      <trkpt lat="43.59069" lon="6.78239">
        <ele>219</ele>
        <time>2025-01-10T10:37:36.000Z</time>
      </trkpt>
      <trkpt lat="43.5907" lon="6.78243">
        <ele>219.4</ele>
        <time>2025-01-10T10:37:35.000Z</time>
      </trkpt>
      <trkpt lat="43.59072" lon="6.78247">
        <ele>219.7</ele>
        <time>2025-01-10T10:37:34.000Z</time>
      </trkpt>
      <trkpt lat="43.59073" lon="6.78251">
        <ele>220.1</ele>
        <time>2025-01-10T10:37:33.000Z</time>
      </trkpt>
      <trkpt lat="43.59075" lon="6.78254">
        <ele>220.3</ele>
        <time>2025-01-10T10:37:32.000Z</time>
      </trkpt>
      <trkpt lat="43.59076" lon="6.78257">
        <ele>220.6</ele>
        <time>2025-01-10T10:37:31.000Z</time>
      </trkpt>
      <trkpt lat="43.59078" lon="6.7826">
        <ele>220.8</ele>
        <time>2025-01-10T10:37:30.000Z</time>
      </trkpt>
      <trkpt lat="43.59079" lon="6.78264">
        <ele>221</ele>
        <time>2025-01-10T10:37:29.000Z</time>
      </trkpt>
      <trkpt lat="43.59081" lon="6.78268">
        <ele>221.3</ele>
        <time>2025-01-10T10:37:28.000Z</time>
      </trkpt>
      <trkpt lat="43.59082" lon="6.78273">
        <ele>221.6</ele>
        <time>2025-01-10T10:37:27.000Z</time>
      </trkpt>
      <trkpt lat="43.59084" lon="6.78278">
        <ele>221.9</ele>
        <time>2025-01-10T10:37:26.000Z</time>
      </trkpt>
      <trkpt lat="43.59086" lon="6.78283">
        <ele>222.2</ele>
        <time>2025-01-10T10:37:25.000Z</time>
      </trkpt>
      <trkpt lat="43.59088" lon="6.78289">
        <ele>222.5</ele>
        <time>2025-01-10T10:37:24.000Z</time>
      </trkpt>
      <trkpt lat="43.59089" lon="6.78295">
        <ele>222.9</ele>
        <time>2025-01-10T10:37:23.000Z</time>
      </trkpt>
      <trkpt lat="43.5909" lon="6.78301">
        <ele>223.2</ele>
        <time>2025-01-10T10:37:22.000Z</time>
      </trkpt>
      <trkpt lat="43.59091" lon="6.78307">
        <ele>223.5</ele>
        <time>2025-01-10T10:37:21.000Z</time>
      </trkpt>
      <trkpt lat="43.59092" lon="6.78312">
        <ele>223.7</ele>
        <time>2025-01-10T10:37:20.000Z</time>
      </trkpt>
      <trkpt lat="43.59093" lon="6.78317">
        <ele>223.9</ele>
        <time>2025-01-10T10:37:19.000Z</time>
      </trkpt>
      <trkpt lat="43.59094" lon="6.78321">
        <ele>224</ele>
        <time>2025-01-10T10:37:18.000Z</time>
      </trkpt>
      <trkpt lat="43.59095" lon="6.78326">
        <ele>224.2</ele>
        <time>2025-01-10T10:37:17.000Z</time>
      </trkpt>
      <trkpt lat="43.59096" lon="6.7833">
        <ele>224.3</ele>
        <time>2025-01-10T10:37:16.000Z</time>
      </trkpt>
      <trkpt lat="43.59097" lon="6.78334">
        <ele>224.4</ele>
        <time>2025-01-10T10:37:15.000Z</time>
      </trkpt>
      <trkpt lat="43.59096" lon="6.78339">
        <ele>224.4</ele>
        <time>2025-01-10T10:37:14.000Z</time>
      </trkpt>
      <trkpt lat="43.59096" lon="6.78343">
        <ele>224.4</ele>
        <time>2025-01-10T10:37:13.000Z</time>
      </trkpt>
      <trkpt lat="43.59096" lon="6.78343">
        <ele>224.4</ele>
        <time>2025-01-10T10:37:12.000Z</time>
      </trkpt>
      <trkpt lat="43.59096" lon="6.78343">
        <ele>224.4</ele>
        <time>2025-01-10T10:37:11.000Z</time>
      </trkpt>
      <trkpt lat="43.59096" lon="6.78343">
        <ele>224.4</ele>
        <time>2025-01-10T10:37:10.000Z</time>
      </trkpt>
      <trkpt lat="43.59096" lon="6.78343">
        <ele>224.4</ele>
        <time>2025-01-10T10:37:09.000Z</time>
      </trkpt>
      <trkpt lat="43.59096" lon="6.78343">
        <ele>224.4</ele>
        <time>2025-01-10T10:37:08.000Z</time>
      </trkpt>
      <trkpt lat="43.59096" lon="6.78343">
        <ele>224.4</ele>
        <time>2025-01-10T10:37:07.000Z</time>
      </trkpt>
      <trkpt lat="43.59096" lon="6.78343">
        <ele>224.4</ele>
        <time>2025-01-10T10:37:06.000Z</time>
      </trkpt>
      <trkpt lat="43.59096" lon="6.78343">
        <ele>224.4</ele>
        <time>2025-01-10T10:37:05.000Z</time>
      </trkpt>
      <trkpt lat="43.59096" lon="6.78343">
        <ele>224.4</ele>
        <time>2025-01-10T10:37:04.000Z</time>
      </trkpt>
      <trkpt lat="43.59096" lon="6.78342">
        <ele>224.4</ele>
        <time>2025-01-10T10:37:03.000Z</time>
      </trkpt>
      <trkpt lat="43.59096" lon="6.78342">
        <ele>224.4</ele>
        <time>2025-01-10T10:37:02.000Z</time>
      </trkpt>
      <trkpt lat="43.59096" lon="6.78341">
        <ele>224.4</ele>
        <time>2025-01-10T10:37:01.000Z</time>
      </trkpt>
      <trkpt lat="43.59096" lon="6.78341">
        <ele>224.4</ele>
        <time>2025-01-10T10:37:00.000Z</time>
      </trkpt>
      <trkpt lat="43.59096" lon="6.78341">
        <ele>224.4</ele>
        <time>2025-01-10T10:36:59.000Z</time>
      </trkpt>
      <trkpt lat="43.59096" lon="6.78341">
        <ele>224.4</ele>
        <time>2025-01-10T10:36:58.000Z</time>
      </trkpt>
      <trkpt lat="43.59096" lon="6.78341">
        <ele>224.4</ele>
        <time>2025-01-10T10:36:57.000Z</time>
      </trkpt>
      <trkpt lat="43.59096" lon="6.78341">
        <ele>224.4</ele>
        <time>2025-01-10T10:36:56.000Z</time>
      </trkpt>
      <trkpt lat="43.59096" lon="6.78341">
        <ele>224.4</ele>
        <time>2025-01-10T10:36:55.000Z</time>
      </trkpt>
      <trkpt lat="43.59096" lon="6.78341">
        <ele>224.4</ele>
        <time>2025-01-10T10:36:54.000Z</time>
      </trkpt>
      <trkpt lat="43.59097" lon="6.78341">
        <ele>224.4</ele>
        <time>2025-01-10T10:36:53.000Z</time>
      </trkpt>
      <trkpt lat="43.59098" lon="6.78342">
        <ele>224.4</ele>
        <time>2025-01-10T10:36:52.000Z</time>
      </trkpt>
      <trkpt lat="43.591" lon="6.78343">
        <ele>224.3</ele>
        <time>2025-01-10T10:36:51.000Z</time>
      </trkpt>
      <trkpt lat="43.59102" lon="6.78345">
        <ele>224.3</ele>
        <time>2025-01-10T10:36:50.000Z</time>
      </trkpt>
      <trkpt lat="43.59104" lon="6.78348">
        <ele>224.2</ele>
        <time>2025-01-10T10:36:49.000Z</time>
      </trkpt>
      <trkpt lat="43.59107" lon="6.78352">
        <ele>224.2</ele>
        <time>2025-01-10T10:36:48.000Z</time>
      </trkpt>
      <trkpt lat="43.5911" lon="6.78356">
        <ele>224.1</ele>
        <time>2025-01-10T10:36:47.000Z</time>
      </trkpt>
      <trkpt lat="43.59112" lon="6.78361">
        <ele>224</ele>
        <time>2025-01-10T10:36:46.000Z</time>
      </trkpt>
      <trkpt lat="43.59116" lon="6.78366">
        <ele>223.9</ele>
        <time>2025-01-10T10:36:45.000Z</time>
      </trkpt>
      <trkpt lat="43.59119" lon="6.78371">
        <ele>223.8</ele>
        <time>2025-01-10T10:36:44.000Z</time>
      </trkpt>
      <trkpt lat="43.59122" lon="6.78376">
        <ele>223.7</ele>
        <time>2025-01-10T10:36:43.000Z</time>
      </trkpt>
      <trkpt lat="43.59125" lon="6.78382">
        <ele>223.6</ele>
        <time>2025-01-10T10:36:42.000Z</time>
      </trkpt>
      <trkpt lat="43.59128" lon="6.78389">
        <ele>223.5</ele>
        <time>2025-01-10T10:36:41.000Z</time>
      </trkpt>
      <trkpt lat="43.5913" lon="6.78395">
        <ele>223.4</ele>
        <time>2025-01-10T10:36:40.000Z</time>
      </trkpt>
      <trkpt lat="43.59132" lon="6.78402">
        <ele>223.3</ele>
        <time>2025-01-10T10:36:39.000Z</time>
      </trkpt>
      <trkpt lat="43.59135" lon="6.78409">
        <ele>223.1</ele>
        <time>2025-01-10T10:36:38.000Z</time>
      </trkpt>
      <trkpt lat="43.59137" lon="6.78415">
        <ele>222.9</ele>
        <time>2025-01-10T10:36:37.000Z</time>
      </trkpt>
      <trkpt lat="43.59139" lon="6.78421">
        <ele>222.7</ele>
        <time>2025-01-10T10:36:36.000Z</time>
      </trkpt>
      <trkpt lat="43.59142" lon="6.78427">
        <ele>222.4</ele>
        <time>2025-01-10T10:36:35.000Z</time>
      </trkpt>
      <trkpt lat="43.59145" lon="6.78433">
        <ele>222.2</ele>
        <time>2025-01-10T10:36:34.000Z</time>
      </trkpt>
      <trkpt lat="43.59148" lon="6.78438">
        <ele>221.9</ele>
        <time>2025-01-10T10:36:33.000Z</time>
      </trkpt>
      <trkpt lat="43.59151" lon="6.78444">
        <ele>221.7</ele>
        <time>2025-01-10T10:36:32.000Z</time>
      </trkpt>
      <trkpt lat="43.59155" lon="6.7845">
        <ele>221.5</ele>
        <time>2025-01-10T10:36:31.000Z</time>
      </trkpt>
      <trkpt lat="43.59158" lon="6.78456">
        <ele>221.4</ele>
        <time>2025-01-10T10:36:30.000Z</time>
      </trkpt>
      <trkpt lat="43.59161" lon="6.78462">
        <ele>221.2</ele>
        <time>2025-01-10T10:36:29.000Z</time>
      </trkpt>
      <trkpt lat="43.59164" lon="6.78467">
        <ele>221.1</ele>
        <time>2025-01-10T10:36:28.000Z</time>
      </trkpt>
      <trkpt lat="43.59167" lon="6.78473">
        <ele>221</ele>
        <time>2025-01-10T10:36:27.000Z</time>
      </trkpt>
      <trkpt lat="43.5917" lon="6.78479">
        <ele>220.8</ele>
        <time>2025-01-10T10:36:26.000Z</time>
      </trkpt>
      <trkpt lat="43.59173" lon="6.78484">
        <ele>220.6</ele>
        <time>2025-01-10T10:36:25.000Z</time>
      </trkpt>
      <trkpt lat="43.59176" lon="6.78489">
        <ele>220.4</ele>
        <time>2025-01-10T10:36:24.000Z</time>
      </trkpt>
      <trkpt lat="43.59179" lon="6.78494">
        <ele>220.2</ele>
        <time>2025-01-10T10:36:23.000Z</time>
      </trkpt>
      <trkpt lat="43.59182" lon="6.78499">
        <ele>220</ele>
        <time>2025-01-10T10:36:22.000Z</time>
      </trkpt>
      <trkpt lat="43.59185" lon="6.78504">
        <ele>219.7</ele>
        <time>2025-01-10T10:36:21.000Z</time>
      </trkpt>
      <trkpt lat="43.59188" lon="6.78509">
        <ele>219.5</ele>
        <time>2025-01-10T10:36:20.000Z</time>
      </trkpt>
      <trkpt lat="43.59191" lon="6.78514">
        <ele>219.1</ele>
        <time>2025-01-10T10:36:19.000Z</time>
      </trkpt>
      <trkpt lat="43.59193" lon="6.78518">
        <ele>218.9</ele>
        <time>2025-01-10T10:36:18.000Z</time>
      </trkpt>
      <trkpt lat="43.59197" lon="6.78525">
        <ele>218.5</ele>
        <time>2025-01-10T10:36:17.000Z</time>
      </trkpt>
      <trkpt lat="43.59199" lon="6.7853">
        <ele>218.2</ele>
        <time>2025-01-10T10:36:16.000Z</time>
      </trkpt>
      <trkpt lat="43.59203" lon="6.78535">
        <ele>217.8</ele>
        <time>2025-01-10T10:36:15.000Z</time>
      </trkpt>
      <trkpt lat="43.59206" lon="6.7854">
        <ele>217.5</ele>
        <time>2025-01-10T10:36:14.000Z</time>
      </trkpt>
      <trkpt lat="43.59209" lon="6.78545">
        <ele>217.1</ele>
        <time>2025-01-10T10:36:13.000Z</time>
      </trkpt>
      <trkpt lat="43.59212" lon="6.7855">
        <ele>216.8</ele>
        <time>2025-01-10T10:36:12.000Z</time>
      </trkpt>
      <trkpt lat="43.59215" lon="6.78555">
        <ele>216.5</ele>
        <time>2025-01-10T10:36:11.000Z</time>
      </trkpt>
      <trkpt lat="43.59218" lon="6.7856">
        <ele>216.1</ele>
        <time>2025-01-10T10:36:10.000Z</time>
      </trkpt>
      <trkpt lat="43.59221" lon="6.78564">
        <ele>215.7</ele>
        <time>2025-01-10T10:36:09.000Z</time>
      </trkpt>
      <trkpt lat="43.59224" lon="6.78569">
        <ele>215.4</ele>
        <time>2025-01-10T10:36:08.000Z</time>
      </trkpt>
      <trkpt lat="43.59227" lon="6.78574">
        <ele>215</ele>
        <time>2025-01-10T10:36:07.000Z</time>
      </trkpt>
      <trkpt lat="43.59229" lon="6.7858">
        <ele>214.7</ele>
        <time>2025-01-10T10:36:06.000Z</time>
      </trkpt>
      <trkpt lat="43.59232" lon="6.78585">
        <ele>214.4</ele>
        <time>2025-01-10T10:36:05.000Z</time>
      </trkpt>
      <trkpt lat="43.59234" lon="6.78591">
        <ele>214.1</ele>
        <time>2025-01-10T10:36:04.000Z</time>
      </trkpt>
      <trkpt lat="43.59237" lon="6.78595">
        <ele>213.9</ele>
        <time>2025-01-10T10:36:03.000Z</time>
      </trkpt>
      <trkpt lat="43.5924" lon="6.786">
        <ele>213.7</ele>
        <time>2025-01-10T10:36:02.000Z</time>
      </trkpt>
      <trkpt lat="43.59244" lon="6.78604">
        <ele>213.6</ele>
        <time>2025-01-10T10:36:01.000Z</time>
      </trkpt>
      <trkpt lat="43.59247" lon="6.78608">
        <ele>213.5</ele>
        <time>2025-01-10T10:36:00.000Z</time>
      </trkpt>
      <trkpt lat="43.59252" lon="6.78611">
        <ele>213.5</ele>
        <time>2025-01-10T10:35:59.000Z</time>
      </trkpt>
      <trkpt lat="43.59256" lon="6.78614">
        <ele>213.5</ele>
        <time>2025-01-10T10:35:58.000Z</time>
      </trkpt>
      <trkpt lat="43.59261" lon="6.78616">
        <ele>213.6</ele>
        <time>2025-01-10T10:35:57.000Z</time>
      </trkpt>
      <trkpt lat="43.59266" lon="6.78618">
        <ele>213.7</ele>
        <time>2025-01-10T10:35:56.000Z</time>
      </trkpt>
      <trkpt lat="43.59271" lon="6.7862">
        <ele>213.7</ele>
        <time>2025-01-10T10:35:55.000Z</time>
      </trkpt>
      <trkpt lat="43.59276" lon="6.78622">
        <ele>213.8</ele>
        <time>2025-01-10T10:35:54.000Z</time>
      </trkpt>
      <trkpt lat="43.59281" lon="6.78623">
        <ele>213.8</ele>
        <time>2025-01-10T10:35:53.000Z</time>
      </trkpt>
      <trkpt lat="43.59286" lon="6.78625">
        <ele>213.8</ele>
        <time>2025-01-10T10:35:52.000Z</time>
      </trkpt>
      <trkpt lat="43.5929" lon="6.78628">
        <ele>213.7</ele>
        <time>2025-01-10T10:35:51.000Z</time>
      </trkpt>
      <trkpt lat="43.59295" lon="6.78631">
        <ele>213.6</ele>
        <time>2025-01-10T10:35:50.000Z</time>
      </trkpt>
      <trkpt lat="43.59299" lon="6.78634">
        <ele>213.5</ele>
        <time>2025-01-10T10:35:49.000Z</time>
      </trkpt>
      <trkpt lat="43.59303" lon="6.78637">
        <ele>213.3</ele>
        <time>2025-01-10T10:35:48.000Z</time>
      </trkpt>
      <trkpt lat="43.59307" lon="6.7864">
        <ele>213.1</ele>
        <time>2025-01-10T10:35:47.000Z</time>
      </trkpt>
      <trkpt lat="43.59311" lon="6.78643">
        <ele>212.9</ele>
        <time>2025-01-10T10:35:46.000Z</time>
      </trkpt>
      <trkpt lat="43.59315" lon="6.78645">
        <ele>212.7</ele>
        <time>2025-01-10T10:35:45.000Z</time>
      </trkpt>
      <trkpt lat="43.5932" lon="6.78648">
        <ele>212.4</ele>
        <time>2025-01-10T10:35:44.000Z</time>
      </trkpt>
      <trkpt lat="43.59323" lon="6.78651">
        <ele>212.1</ele>
        <time>2025-01-10T10:35:43.000Z</time>
      </trkpt>
      <trkpt lat="43.59327" lon="6.78655">
        <ele>211.8</ele>
        <time>2025-01-10T10:35:42.000Z</time>
      </trkpt>
      <trkpt lat="43.59331" lon="6.78658">
        <ele>211.6</ele>
        <time>2025-01-10T10:35:41.000Z</time>
      </trkpt>
      <trkpt lat="43.59335" lon="6.78663">
        <ele>211.3</ele>
        <time>2025-01-10T10:35:40.000Z</time>
      </trkpt>
      <trkpt lat="43.59338" lon="6.78668">
        <ele>211</ele>
        <time>2025-01-10T10:35:39.000Z</time>
      </trkpt>
      <trkpt lat="43.59341" lon="6.78673">
        <ele>210.7</ele>
        <time>2025-01-10T10:35:38.000Z</time>
      </trkpt>
      <trkpt lat="43.59344" lon="6.78677">
        <ele>210.5</ele>
        <time>2025-01-10T10:35:37.000Z</time>
      </trkpt>
      <trkpt lat="43.59347" lon="6.78682">
        <ele>210.3</ele>
        <time>2025-01-10T10:35:36.000Z</time>
      </trkpt>
      <trkpt lat="43.59351" lon="6.78689">
        <ele>210</ele>
        <time>2025-01-10T10:35:35.000Z</time>
      </trkpt>
      <trkpt lat="43.59354" lon="6.78694">
        <ele>209.7</ele>
        <time>2025-01-10T10:35:34.000Z</time>
      </trkpt>
      <trkpt lat="43.59357" lon="6.78698">
        <ele>209.5</ele>
        <time>2025-01-10T10:35:33.000Z</time>
      </trkpt>
      <trkpt lat="43.5936" lon="6.78703">
        <ele>209.3</ele>
        <time>2025-01-10T10:35:32.000Z</time>
      </trkpt>
      <trkpt lat="43.59365" lon="6.7871">
        <ele>209</ele>
        <time>2025-01-10T10:35:31.000Z</time>
      </trkpt>
      <trkpt lat="43.59367" lon="6.78714">
        <ele>208.8</ele>
        <time>2025-01-10T10:35:30.000Z</time>
      </trkpt>
      <trkpt lat="43.59371" lon="6.78719">
        <ele>208.6</ele>
        <time>2025-01-10T10:35:29.000Z</time>
      </trkpt>
      <trkpt lat="43.59375" lon="6.78724">
        <ele>208.4</ele>
        <time>2025-01-10T10:35:28.000Z</time>
      </trkpt>
      <trkpt lat="43.59379" lon="6.78731">
        <ele>208.3</ele>
        <time>2025-01-10T10:35:27.000Z</time>
      </trkpt>
      <trkpt lat="43.59382" lon="6.78735">
        <ele>208.1</ele>
        <time>2025-01-10T10:35:26.000Z</time>
      </trkpt>
      <trkpt lat="43.59386" lon="6.78741">
        <ele>208.1</ele>
        <time>2025-01-10T10:35:25.000Z</time>
      </trkpt>
      <trkpt lat="43.59389" lon="6.78746">
        <ele>208</ele>
        <time>2025-01-10T10:35:24.000Z</time>
      </trkpt>
      <trkpt lat="43.59393" lon="6.78751">
        <ele>207.9</ele>
        <time>2025-01-10T10:35:23.000Z</time>
      </trkpt>
      <trkpt lat="43.59397" lon="6.78756">
        <ele>207.8</ele>
        <time>2025-01-10T10:35:22.000Z</time>
      </trkpt>
      <trkpt lat="43.594" lon="6.7876">
        <ele>207.8</ele>
        <time>2025-01-10T10:35:21.000Z</time>
      </trkpt>
      <trkpt lat="43.59404" lon="6.78765">
        <ele>207.8</ele>
        <time>2025-01-10T10:35:20.000Z</time>
      </trkpt>
      <trkpt lat="43.59408" lon="6.78769">
        <ele>207.8</ele>
        <time>2025-01-10T10:35:19.000Z</time>
      </trkpt>
      <trkpt lat="43.59413" lon="6.78772">
        <ele>207.8</ele>
        <time>2025-01-10T10:35:18.000Z</time>
      </trkpt>
      <trkpt lat="43.59417" lon="6.78775">
        <ele>207.8</ele>
        <time>2025-01-10T10:35:17.000Z</time>
      </trkpt>
      <trkpt lat="43.59422" lon="6.78777">
        <ele>207.9</ele>
        <time>2025-01-10T10:35:16.000Z</time>
      </trkpt>
      <trkpt lat="43.59427" lon="6.78779">
        <ele>207.9</ele>
        <time>2025-01-10T10:35:15.000Z</time>
      </trkpt>
      <trkpt lat="43.59433" lon="6.7878">
        <ele>208</ele>
        <time>2025-01-10T10:35:14.000Z</time>
      </trkpt>
      <trkpt lat="43.59438" lon="6.78781">
        <ele>208.1</ele>
        <time>2025-01-10T10:35:13.000Z</time>
      </trkpt>
      <trkpt lat="43.59442" lon="6.78782">
        <ele>208.2</ele>
        <time>2025-01-10T10:35:12.000Z</time>
      </trkpt>
      <trkpt lat="43.59447" lon="6.78783">
        <ele>208.3</ele>
        <time>2025-01-10T10:35:11.000Z</time>
      </trkpt>
      <trkpt lat="43.59452" lon="6.78783">
        <ele>208.5</ele>
        <time>2025-01-10T10:35:10.000Z</time>
      </trkpt>
      <trkpt lat="43.59457" lon="6.78783">
        <ele>208.6</ele>
        <time>2025-01-10T10:35:09.000Z</time>
      </trkpt>
      <trkpt lat="43.59462" lon="6.78783">
        <ele>208.7</ele>
        <time>2025-01-10T10:35:08.000Z</time>
      </trkpt>
      <trkpt lat="43.59466" lon="6.78783">
        <ele>208.8</ele>
        <time>2025-01-10T10:35:07.000Z</time>
      </trkpt>
      <trkpt lat="43.59472" lon="6.78783">
        <ele>208.9</ele>
        <time>2025-01-10T10:35:06.000Z</time>
      </trkpt>
      <trkpt lat="43.59477" lon="6.78783">
        <ele>209</ele>
        <time>2025-01-10T10:35:05.000Z</time>
      </trkpt>
      <trkpt lat="43.59482" lon="6.78783">
        <ele>209</ele>
        <time>2025-01-10T10:35:04.000Z</time>
      </trkpt>
      <trkpt lat="43.59487" lon="6.78784">
        <ele>209.1</ele>
        <time>2025-01-10T10:35:03.000Z</time>
      </trkpt>
      <trkpt lat="43.59492" lon="6.78786">
        <ele>209.2</ele>
        <time>2025-01-10T10:35:02.000Z</time>
      </trkpt>
      <trkpt lat="43.59497" lon="6.78788">
        <ele>209.2</ele>
        <time>2025-01-10T10:35:01.000Z</time>
      </trkpt>
      <trkpt lat="43.59501" lon="6.7879">
        <ele>209.2</ele>
        <time>2025-01-10T10:35:00.000Z</time>
      </trkpt>
      <trkpt lat="43.59506" lon="6.78793">
        <ele>209.2</ele>
        <time>2025-01-10T10:34:59.000Z</time>
      </trkpt>
      <trkpt lat="43.5951" lon="6.78795">
        <ele>209.2</ele>
        <time>2025-01-10T10:34:58.000Z</time>
      </trkpt>
      <trkpt lat="43.59515" lon="6.78798">
        <ele>209.2</ele>
        <time>2025-01-10T10:34:57.000Z</time>
      </trkpt>
      <trkpt lat="43.59519" lon="6.788">
        <ele>209.2</ele>
        <time>2025-01-10T10:34:56.000Z</time>
      </trkpt>
      <trkpt lat="43.59523" lon="6.78802">
        <ele>209.2</ele>
        <time>2025-01-10T10:34:55.000Z</time>
      </trkpt>
      <trkpt lat="43.59527" lon="6.78804">
        <ele>209.2</ele>
        <time>2025-01-10T10:34:54.000Z</time>
      </trkpt>
      <trkpt lat="43.5953" lon="6.78806">
        <ele>209.1</ele>
        <time>2025-01-10T10:34:53.000Z</time>
      </trkpt>
      <trkpt lat="43.59533" lon="6.78807">
        <ele>209.1</ele>
        <time>2025-01-10T10:34:52.000Z</time>
      </trkpt>
      <trkpt lat="43.59535" lon="6.78807">
        <ele>209.1</ele>
        <time>2025-01-10T10:34:51.000Z</time>
      </trkpt>
      <trkpt lat="43.59536" lon="6.78807">
        <ele>209.1</ele>
        <time>2025-01-10T10:34:50.000Z</time>
      </trkpt>
      <trkpt lat="43.59536" lon="6.78807">
        <ele>209.1</ele>
        <time>2025-01-10T10:34:49.000Z</time>
      </trkpt>
      <trkpt lat="43.59536" lon="6.78807">
        <ele>209.1</ele>
        <time>2025-01-10T10:34:48.000Z</time>
      </trkpt>
      <trkpt lat="43.59537" lon="6.78807">
        <ele>209.1</ele>
        <time>2025-01-10T10:34:47.000Z</time>
      </trkpt>
      <trkpt lat="43.59539" lon="6.78808">
        <ele>209.1</ele>
        <time>2025-01-10T10:34:46.000Z</time>
      </trkpt>
      <trkpt lat="43.5954" lon="6.78808">
        <ele>209.1</ele>
        <time>2025-01-10T10:34:45.000Z</time>
      </trkpt>
      <trkpt lat="43.59542" lon="6.7881">
        <ele>209.1</ele>
        <time>2025-01-10T10:34:44.000Z</time>
      </trkpt>
      <trkpt lat="43.59545" lon="6.78811">
        <ele>209.1</ele>
        <time>2025-01-10T10:34:43.000Z</time>
      </trkpt>
      <trkpt lat="43.59548" lon="6.78813">
        <ele>209</ele>
        <time>2025-01-10T10:34:42.000Z</time>
      </trkpt>
      <trkpt lat="43.59552" lon="6.78814">
        <ele>209</ele>
        <time>2025-01-10T10:34:41.000Z</time>
      </trkpt>
      <trkpt lat="43.59556" lon="6.78815">
        <ele>209</ele>
        <time>2025-01-10T10:34:40.000Z</time>
      </trkpt>
      <trkpt lat="43.59561" lon="6.78816">
        <ele>209</ele>
        <time>2025-01-10T10:34:39.000Z</time>
      </trkpt>
      <trkpt lat="43.59563" lon="6.78817">
        <ele>209</ele>
        <time>2025-01-10T10:34:38.000Z</time>
      </trkpt>
      <trkpt lat="43.59565" lon="6.78818">
        <ele>209</ele>
        <time>2025-01-10T10:34:37.000Z</time>
      </trkpt>
      <trkpt lat="43.59567" lon="6.78818">
        <ele>209</ele>
        <time>2025-01-10T10:34:36.000Z</time>
      </trkpt>
      <trkpt lat="43.59569" lon="6.78819">
        <ele>209</ele>
        <time>2025-01-10T10:34:35.000Z</time>
      </trkpt>
      <trkpt lat="43.59571" lon="6.7882">
        <ele>209</ele>
        <time>2025-01-10T10:34:34.000Z</time>
      </trkpt>
      <trkpt lat="43.59573" lon="6.7882">
        <ele>209</ele>
        <time>2025-01-10T10:34:33.000Z</time>
      </trkpt>
      <trkpt lat="43.59575" lon="6.78821">
        <ele>208.9</ele>
        <time>2025-01-10T10:34:32.000Z</time>
      </trkpt>
      <trkpt lat="43.59577" lon="6.78822">
        <ele>208.9</ele>
        <time>2025-01-10T10:34:31.000Z</time>
      </trkpt>
      <trkpt lat="43.5958" lon="6.78823">
        <ele>208.9</ele>
        <time>2025-01-10T10:34:30.000Z</time>
      </trkpt>
      <trkpt lat="43.59582" lon="6.78823">
        <ele>208.9</ele>
        <time>2025-01-10T10:34:29.000Z</time>
      </trkpt>
      <trkpt lat="43.59584" lon="6.78824">
        <ele>208.9</ele>
        <time>2025-01-10T10:34:28.000Z</time>
      </trkpt>
      <trkpt lat="43.59586" lon="6.78825">
        <ele>208.9</ele>
        <time>2025-01-10T10:34:27.000Z</time>
      </trkpt>
      <trkpt lat="43.59588" lon="6.78826">
        <ele>209</ele>
        <time>2025-01-10T10:34:26.000Z</time>
      </trkpt>
      <trkpt lat="43.59591" lon="6.78827">
        <ele>209.1</ele>
        <time>2025-01-10T10:34:25.000Z</time>
      </trkpt>
      <trkpt lat="43.59592" lon="6.78828">
        <ele>209.2</ele>
        <time>2025-01-10T10:34:24.000Z</time>
      </trkpt>
      <trkpt lat="43.59594" lon="6.78829">
        <ele>209.3</ele>
        <time>2025-01-10T10:34:23.000Z</time>
      </trkpt>
      <trkpt lat="43.59596" lon="6.78831">
        <ele>209.4</ele>
        <time>2025-01-10T10:34:22.000Z</time>
      </trkpt>
      <trkpt lat="43.596" lon="6.78833">
        <ele>209.7</ele>
        <time>2025-01-10T10:34:21.000Z</time>
      </trkpt>
      <trkpt lat="43.59604" lon="6.78836">
        <ele>209.9</ele>
        <time>2025-01-10T10:34:20.000Z</time>
      </trkpt>
      <trkpt lat="43.59608" lon="6.78839">
        <ele>210.2</ele>
        <time>2025-01-10T10:34:19.000Z</time>
      </trkpt>
      <trkpt lat="43.59612" lon="6.78844">
        <ele>210.6</ele>
        <time>2025-01-10T10:34:18.000Z</time>
      </trkpt>
      <trkpt lat="43.59617" lon="6.7885">
        <ele>211</ele>
        <time>2025-01-10T10:34:17.000Z</time>
      </trkpt>
      <trkpt lat="43.5962" lon="6.78858">
        <ele>211.5</ele>
        <time>2025-01-10T10:34:16.000Z</time>
      </trkpt>
      <trkpt lat="43.59623" lon="6.78867">
        <ele>212.1</ele>
        <time>2025-01-10T10:34:15.000Z</time>
      </trkpt>
      <trkpt lat="43.59626" lon="6.78877">
        <ele>212.7</ele>
        <time>2025-01-10T10:34:14.000Z</time>
      </trkpt>
      <trkpt lat="43.59629" lon="6.78889">
        <ele>213.5</ele>
        <time>2025-01-10T10:34:13.000Z</time>
      </trkpt>
      <trkpt lat="43.59632" lon="6.78901">
        <ele>214.4</ele>
        <time>2025-01-10T10:34:12.000Z</time>
      </trkpt>
      <trkpt lat="43.59637" lon="6.78912">
        <ele>215.4</ele>
        <time>2025-01-10T10:34:11.000Z</time>
      </trkpt>
      <trkpt lat="43.59641" lon="6.78921">
        <ele>216.5</ele>
        <time>2025-01-10T10:34:10.000Z</time>
      </trkpt>
      <trkpt lat="43.59646" lon="6.78931">
        <ele>217.6</ele>
        <time>2025-01-10T10:34:09.000Z</time>
      </trkpt>
      <trkpt lat="43.59647" lon="6.78932">
        <ele>217.8</ele>
        <time>2025-01-10T10:34:08.000Z</time>
      </trkpt>
      <trkpt lat="43.59648" lon="6.78934">
        <ele>218.1</ele>
        <time>2025-01-10T10:34:07.000Z</time>
      </trkpt>
      <trkpt lat="43.59649" lon="6.78935">
        <ele>218.3</ele>
        <time>2025-01-10T10:34:06.000Z</time>
      </trkpt>
      <trkpt lat="43.5965" lon="6.78936">
        <ele>218.5</ele>
        <time>2025-01-10T10:34:05.000Z</time>
      </trkpt>
      <trkpt lat="43.59651" lon="6.78938">
        <ele>218.7</ele>
        <time>2025-01-10T10:34:04.000Z</time>
      </trkpt>
      <trkpt lat="43.59652" lon="6.78939">
        <ele>219</ele>
        <time>2025-01-10T10:34:03.000Z</time>
      </trkpt>
      <trkpt lat="43.59654" lon="6.78941">
        <ele>219.2</ele>
        <time>2025-01-10T10:34:02.000Z</time>
      </trkpt>
      <trkpt lat="43.59655" lon="6.78942">
        <ele>219.4</ele>
        <time>2025-01-10T10:34:01.000Z</time>
      </trkpt>
      <trkpt lat="43.59656" lon="6.78944">
        <ele>219.6</ele>
        <time>2025-01-10T10:34:00.000Z</time>
      </trkpt>
      <trkpt lat="43.59657" lon="6.78945">
        <ele>219.8</ele>
        <time>2025-01-10T10:33:59.000Z</time>
      </trkpt>
      <trkpt lat="43.59658" lon="6.78947">
        <ele>220.1</ele>
        <time>2025-01-10T10:33:58.000Z</time>
      </trkpt>
      <trkpt lat="43.59659" lon="6.78948">
        <ele>220.3</ele>
        <time>2025-01-10T10:33:57.000Z</time>
      </trkpt>
      <trkpt lat="43.5966" lon="6.7895">
        <ele>220.5</ele>
        <time>2025-01-10T10:33:56.000Z</time>
      </trkpt>
      <trkpt lat="43.59662" lon="6.78951">
        <ele>220.7</ele>
        <time>2025-01-10T10:33:55.000Z</time>
      </trkpt>
      <trkpt lat="43.59663" lon="6.78953">
        <ele>221</ele>
        <time>2025-01-10T10:33:54.000Z</time>
      </trkpt>
      <trkpt lat="43.59664" lon="6.78954">
        <ele>221.2</ele>
        <time>2025-01-10T10:33:53.000Z</time>
      </trkpt>
      <trkpt lat="43.59665" lon="6.78956">
        <ele>221.4</ele>
        <time>2025-01-10T10:33:52.000Z</time>
      </trkpt>
      <trkpt lat="43.59666" lon="6.78957">
        <ele>221.6</ele>
        <time>2025-01-10T10:33:51.000Z</time>
      </trkpt>
      <trkpt lat="43.59667" lon="6.78959">
        <ele>221.8</ele>
        <time>2025-01-10T10:33:50.000Z</time>
      </trkpt>
      <trkpt lat="43.59668" lon="6.7896">
        <ele>222</ele>
        <time>2025-01-10T10:33:49.000Z</time>
      </trkpt>
      <trkpt lat="43.5967" lon="6.78962">
        <ele>222.2</ele>
        <time>2025-01-10T10:33:48.000Z</time>
      </trkpt>
      <trkpt lat="43.59671" lon="6.78963">
        <ele>222.5</ele>
        <time>2025-01-10T10:33:47.000Z</time>
      </trkpt>
      <trkpt lat="43.59672" lon="6.78965">
        <ele>222.7</ele>
        <time>2025-01-10T10:33:46.000Z</time>
      </trkpt>
      <trkpt lat="43.59673" lon="6.78966">
        <ele>222.9</ele>
        <time>2025-01-10T10:33:45.000Z</time>
      </trkpt>
      <trkpt lat="43.59674" lon="6.78968">
        <ele>223.1</ele>
        <time>2025-01-10T10:33:44.000Z</time>
      </trkpt>
      <trkpt lat="43.59676" lon="6.78969">
        <ele>223.3</ele>
        <time>2025-01-10T10:33:43.000Z</time>
      </trkpt>
      <trkpt lat="43.59676" lon="6.7897">
        <ele>223.4</ele>
        <time>2025-01-10T10:33:42.000Z</time>
      </trkpt>
      <trkpt lat="43.59676" lon="6.7897">
        <ele>223.4</ele>
        <time>2025-01-10T10:33:41.000Z</time>
      </trkpt>
      <trkpt lat="43.59677" lon="6.78971">
        <ele>223.5</ele>
        <time>2025-01-10T10:33:40.000Z</time>
      </trkpt>
      <trkpt lat="43.59678" lon="6.78974">
        <ele>223.8</ele>
        <time>2025-01-10T10:33:39.000Z</time>
      </trkpt>
      <trkpt lat="43.59679" lon="6.78979">
        <ele>224.2</ele>
        <time>2025-01-10T10:33:38.000Z</time>
      </trkpt>
      <trkpt lat="43.59681" lon="6.78984">
        <ele>224.6</ele>
        <time>2025-01-10T10:33:37.000Z</time>
      </trkpt>
      <trkpt lat="43.59681" lon="6.7899">
        <ele>225</ele>
        <time>2025-01-10T10:33:36.000Z</time>
      </trkpt>
      <trkpt lat="43.59682" lon="6.78997">
        <ele>225.4</ele>
        <time>2025-01-10T10:33:35.000Z</time>
      </trkpt>
      <trkpt lat="43.59683" lon="6.79003">
        <ele>225.7</ele>
        <time>2025-01-10T10:33:34.000Z</time>
      </trkpt>
      <trkpt lat="43.59684" lon="6.79009">
        <ele>225.9</ele>
        <time>2025-01-10T10:33:33.000Z</time>
      </trkpt>
      <trkpt lat="43.59685" lon="6.79015">
        <ele>226.1</ele>
        <time>2025-01-10T10:33:32.000Z</time>
      </trkpt>
      <trkpt lat="43.59686" lon="6.79021">
        <ele>226.3</ele>
        <time>2025-01-10T10:33:31.000Z</time>
      </trkpt>
      <trkpt lat="43.59686" lon="6.79027">
        <ele>226.5</ele>
        <time>2025-01-10T10:33:30.000Z</time>
      </trkpt>
      <trkpt lat="43.59687" lon="6.79033">
        <ele>226.6</ele>
        <time>2025-01-10T10:33:29.000Z</time>
      </trkpt>
      <trkpt lat="43.59688" lon="6.79039">
        <ele>226.8</ele>
        <time>2025-01-10T10:33:28.000Z</time>
      </trkpt>
      <trkpt lat="43.5969" lon="6.79045">
        <ele>227</ele>
        <time>2025-01-10T10:33:27.000Z</time>
      </trkpt>
      <trkpt lat="43.59693" lon="6.7905">
        <ele>227.1</ele>
        <time>2025-01-10T10:33:26.000Z</time>
      </trkpt>
      <trkpt lat="43.59696" lon="6.79055">
        <ele>227.3</ele>
        <time>2025-01-10T10:33:25.000Z</time>
      </trkpt>
      <trkpt lat="43.59699" lon="6.79059">
        <ele>227.5</ele>
        <time>2025-01-10T10:33:24.000Z</time>
      </trkpt>
      <trkpt lat="43.59703" lon="6.79064">
        <ele>227.7</ele>
        <time>2025-01-10T10:33:23.000Z</time>
      </trkpt>
      <trkpt lat="43.59706" lon="6.79067">
        <ele>227.9</ele>
        <time>2025-01-10T10:33:22.000Z</time>
      </trkpt>
      <trkpt lat="43.5971" lon="6.79071">
        <ele>228.2</ele>
        <time>2025-01-10T10:33:21.000Z</time>
      </trkpt>
      <trkpt lat="43.59713" lon="6.79073">
        <ele>228.4</ele>
        <time>2025-01-10T10:33:20.000Z</time>
      </trkpt>
      <trkpt lat="43.59715" lon="6.79074">
        <ele>228.6</ele>
        <time>2025-01-10T10:33:19.000Z</time>
      </trkpt>
      <trkpt lat="43.59718" lon="6.79074">
        <ele>228.8</ele>
        <time>2025-01-10T10:33:18.000Z</time>
      </trkpt>
      <trkpt lat="43.5972" lon="6.79072">
        <ele>228.9</ele>
        <time>2025-01-10T10:33:17.000Z</time>
      </trkpt>
      <trkpt lat="43.59722" lon="6.7907">
        <ele>229.1</ele>
        <time>2025-01-10T10:33:16.000Z</time>
      </trkpt>
      <trkpt lat="43.59724" lon="6.79069">
        <ele>229.3</ele>
        <time>2025-01-10T10:33:15.000Z</time>
      </trkpt>
      <trkpt lat="43.59727" lon="6.79069">
        <ele>229.4</ele>
        <time>2025-01-10T10:33:14.000Z</time>
      </trkpt>
      <trkpt lat="43.59727" lon="6.79069">
        <ele>229.4</ele>
        <time>2025-01-10T10:33:13.000Z</time>
      </trkpt>
      <trkpt lat="43.59727" lon="6.79069">
        <ele>229.4</ele>
        <time>2025-01-10T10:33:12.000Z</time>
      </trkpt>
      <trkpt lat="43.59727" lon="6.79069">
        <ele>229.4</ele>
        <time>2025-01-10T10:33:11.000Z</time>
      </trkpt>
      <trkpt lat="43.59727" lon="6.79069">
        <ele>229.4</ele>
        <time>2025-01-10T10:33:10.000Z</time>
      </trkpt>
      <trkpt lat="43.59727" lon="6.79069">
        <ele>229.4</ele>
        <time>2025-01-10T10:33:09.000Z</time>
      </trkpt>
      <trkpt lat="43.59727" lon="6.79069">
        <ele>229.5</ele>
        <time>2025-01-10T10:33:08.000Z</time>
      </trkpt>
      <trkpt lat="43.59726" lon="6.79069">
        <ele>229.5</ele>
        <time>2025-01-10T10:33:07.000Z</time>
      </trkpt>
      <trkpt lat="43.59726" lon="6.79069">
        <ele>229.5</ele>
        <time>2025-01-10T10:33:06.000Z</time>
      </trkpt>
      <trkpt lat="43.59727" lon="6.79069">
        <ele>229.5</ele>
        <time>2025-01-10T10:33:05.000Z</time>
      </trkpt>
      <trkpt lat="43.59727" lon="6.79069">
        <ele>229.5</ele>
        <time>2025-01-10T10:33:04.000Z</time>
      </trkpt>
      <trkpt lat="43.59727" lon="6.79069">
        <ele>229.5</ele>
        <time>2025-01-10T10:33:03.000Z</time>
      </trkpt>
      <trkpt lat="43.59727" lon="6.79068">
        <ele>229.6</ele>
        <time>2025-01-10T10:33:02.000Z</time>
      </trkpt>
      <trkpt lat="43.59727" lon="6.79069">
        <ele>229.6</ele>
        <time>2025-01-10T10:33:01.000Z</time>
      </trkpt>
      <trkpt lat="43.59727" lon="6.79068">
        <ele>229.6</ele>
        <time>2025-01-10T10:33:00.000Z</time>
      </trkpt>
      <trkpt lat="43.59727" lon="6.79068">
        <ele>229.6</ele>
        <time>2025-01-10T10:32:59.000Z</time>
      </trkpt>
      <trkpt lat="43.59727" lon="6.79068">
        <ele>229.6</ele>
        <time>2025-01-10T10:32:58.000Z</time>
      </trkpt>
      <trkpt lat="43.59726" lon="6.79069">
        <ele>229.6</ele>
        <time>2025-01-10T10:32:57.000Z</time>
      </trkpt>
      <trkpt lat="43.59726" lon="6.7907">
        <ele>229.6</ele>
        <time>2025-01-10T10:32:56.000Z</time>
      </trkpt>
      <trkpt lat="43.59725" lon="6.79072">
        <ele>229.6</ele>
        <time>2025-01-10T10:32:55.000Z</time>
      </trkpt>
      <trkpt lat="43.59723" lon="6.79075">
        <ele>229.7</ele>
        <time>2025-01-10T10:32:54.000Z</time>
      </trkpt>
      <trkpt lat="43.59722" lon="6.79078">
        <ele>229.7</ele>
        <time>2025-01-10T10:32:53.000Z</time>
      </trkpt>
      <trkpt lat="43.59721" lon="6.79081">
        <ele>229.7</ele>
        <time>2025-01-10T10:32:52.000Z</time>
      </trkpt>
      <trkpt lat="43.59719" lon="6.79085">
        <ele>229.8</ele>
        <time>2025-01-10T10:32:51.000Z</time>
      </trkpt>
      <trkpt lat="43.59718" lon="6.7909">
        <ele>229.8</ele>
        <time>2025-01-10T10:32:50.000Z</time>
      </trkpt>
      <trkpt lat="43.59716" lon="6.79094">
        <ele>229.9</ele>
        <time>2025-01-10T10:32:49.000Z</time>
      </trkpt>
      <trkpt lat="43.59714" lon="6.79098">
        <ele>229.9</ele>
        <time>2025-01-10T10:32:48.000Z</time>
      </trkpt>
      <trkpt lat="43.59712" lon="6.79102">
        <ele>230</ele>
        <time>2025-01-10T10:32:47.000Z</time>
      </trkpt>
      <trkpt lat="43.59709" lon="6.79105">
        <ele>230</ele>
        <time>2025-01-10T10:32:46.000Z</time>
      </trkpt>
      <trkpt lat="43.59707" lon="6.79109">
        <ele>229.9</ele>
        <time>2025-01-10T10:32:45.000Z</time>
      </trkpt>
      <trkpt lat="43.59705" lon="6.79112">
        <ele>229.7</ele>
        <time>2025-01-10T10:32:44.000Z</time>
      </trkpt>
      <trkpt lat="43.59702" lon="6.79116">
        <ele>229.5</ele>
        <time>2025-01-10T10:32:43.000Z</time>
      </trkpt>
      <trkpt lat="43.59699" lon="6.7912">
        <ele>229.3</ele>
        <time>2025-01-10T10:32:42.000Z</time>
      </trkpt>
      <trkpt lat="43.59696" lon="6.79124">
        <ele>229</ele>
        <time>2025-01-10T10:32:41.000Z</time>
      </trkpt>
      <trkpt lat="43.59693" lon="6.79129">
        <ele>228.7</ele>
        <time>2025-01-10T10:32:40.000Z</time>
      </trkpt>
      <trkpt lat="43.59691" lon="6.79133">
        <ele>228.4</ele>
        <time>2025-01-10T10:32:39.000Z</time>
      </trkpt>
      <trkpt lat="43.59688" lon="6.79137">
        <ele>228.2</ele>
        <time>2025-01-10T10:32:38.000Z</time>
      </trkpt>
      <trkpt lat="43.59686" lon="6.79141">
        <ele>227.9</ele>
        <time>2025-01-10T10:32:37.000Z</time>
      </trkpt>
      <trkpt lat="43.59683" lon="6.79145">
        <ele>227.6</ele>
        <time>2025-01-10T10:32:36.000Z</time>
      </trkpt>
      <trkpt lat="43.59681" lon="6.79149">
        <ele>227.3</ele>
        <time>2025-01-10T10:32:35.000Z</time>
      </trkpt>
      <trkpt lat="43.59679" lon="6.79152">
        <ele>227.1</ele>
        <time>2025-01-10T10:32:34.000Z</time>
      </trkpt>
      <trkpt lat="43.59677" lon="6.79155">
        <ele>226.8</ele>
        <time>2025-01-10T10:32:33.000Z</time>
      </trkpt>
      <trkpt lat="43.59675" lon="6.79158">
        <ele>226.6</ele>
        <time>2025-01-10T10:32:32.000Z</time>
      </trkpt>
      <trkpt lat="43.59672" lon="6.79161">
        <ele>226.3</ele>
        <time>2025-01-10T10:32:31.000Z</time>
      </trkpt>
      <trkpt lat="43.5967" lon="6.79164">
        <ele>226</ele>
        <time>2025-01-10T10:32:30.000Z</time>
      </trkpt>
      <trkpt lat="43.59668" lon="6.79168">
        <ele>225.7</ele>
        <time>2025-01-10T10:32:29.000Z</time>
      </trkpt>
      <trkpt lat="43.59665" lon="6.79173">
        <ele>225.3</ele>
        <time>2025-01-10T10:32:28.000Z</time>
      </trkpt>
      <trkpt lat="43.59663" lon="6.79177">
        <ele>224.9</ele>
        <time>2025-01-10T10:32:27.000Z</time>
      </trkpt>
      <trkpt lat="43.59661" lon="6.79182">
        <ele>224.5</ele>
        <time>2025-01-10T10:32:26.000Z</time>
      </trkpt>
      <trkpt lat="43.59659" lon="6.79186">
        <ele>224.1</ele>
        <time>2025-01-10T10:32:25.000Z</time>
      </trkpt>
      <trkpt lat="43.59657" lon="6.79192">
        <ele>223.6</ele>
        <time>2025-01-10T10:32:24.000Z</time>
      </trkpt>
      <trkpt lat="43.59654" lon="6.79197">
        <ele>223.1</ele>
        <time>2025-01-10T10:32:23.000Z</time>
      </trkpt>
      <trkpt lat="43.59651" lon="6.79203">
        <ele>222.6</ele>
        <time>2025-01-10T10:32:22.000Z</time>
      </trkpt>
      <trkpt lat="43.59649" lon="6.79208">
        <ele>222.2</ele>
        <time>2025-01-10T10:32:21.000Z</time>
      </trkpt>
      <trkpt lat="43.59646" lon="6.79213">
        <ele>221.8</ele>
        <time>2025-01-10T10:32:20.000Z</time>
      </trkpt>
      <trkpt lat="43.59643" lon="6.79218">
        <ele>221.4</ele>
        <time>2025-01-10T10:32:19.000Z</time>
      </trkpt>
      <trkpt lat="43.5964" lon="6.79223">
        <ele>221</ele>
        <time>2025-01-10T10:32:18.000Z</time>
      </trkpt>
      <trkpt lat="43.59637" lon="6.79227">
        <ele>220.7</ele>
        <time>2025-01-10T10:32:17.000Z</time>
      </trkpt>
      <trkpt lat="43.59634" lon="6.79232">
        <ele>220.3</ele>
        <time>2025-01-10T10:32:16.000Z</time>
      </trkpt>
      <trkpt lat="43.59631" lon="6.79237">
        <ele>220</ele>
        <time>2025-01-10T10:32:15.000Z</time>
      </trkpt>
      <trkpt lat="43.59629" lon="6.79242">
        <ele>219.7</ele>
        <time>2025-01-10T10:32:14.000Z</time>
      </trkpt>
      <trkpt lat="43.59627" lon="6.79247">
        <ele>219.3</ele>
        <time>2025-01-10T10:32:13.000Z</time>
      </trkpt>
      <trkpt lat="43.59624" lon="6.79252">
        <ele>218.9</ele>
        <time>2025-01-10T10:32:12.000Z</time>
      </trkpt>
      <trkpt lat="43.59622" lon="6.79257">
        <ele>218.5</ele>
        <time>2025-01-10T10:32:11.000Z</time>
      </trkpt>
      <trkpt lat="43.59619" lon="6.79261">
        <ele>218.1</ele>
        <time>2025-01-10T10:32:10.000Z</time>
      </trkpt>
      <trkpt lat="43.59616" lon="6.79266">
        <ele>217.6</ele>
        <time>2025-01-10T10:32:09.000Z</time>
      </trkpt>
      <trkpt lat="43.59612" lon="6.79269">
        <ele>217.1</ele>
        <time>2025-01-10T10:32:08.000Z</time>
      </trkpt>
      <trkpt lat="43.59608" lon="6.79272">
        <ele>216.6</ele>
        <time>2025-01-10T10:32:07.000Z</time>
      </trkpt>
      <trkpt lat="43.59604" lon="6.79275">
        <ele>216</ele>
        <time>2025-01-10T10:32:06.000Z</time>
      </trkpt>
      <trkpt lat="43.59599" lon="6.79277">
        <ele>215.4</ele>
        <time>2025-01-10T10:32:05.000Z</time>
      </trkpt>
      <trkpt lat="43.59594" lon="6.7928">
        <ele>214.9</ele>
        <time>2025-01-10T10:32:04.000Z</time>
      </trkpt>
      <trkpt lat="43.59588" lon="6.79282">
        <ele>214.3</ele>
        <time>2025-01-10T10:32:03.000Z</time>
      </trkpt>
      <trkpt lat="43.59582" lon="6.79286">
        <ele>213.9</ele>
        <time>2025-01-10T10:32:02.000Z</time>
      </trkpt>
      <trkpt lat="43.59575" lon="6.79289">
        <ele>213.6</ele>
        <time>2025-01-10T10:32:01.000Z</time>
      </trkpt>
      <trkpt lat="43.59568" lon="6.79293">
        <ele>213.4</ele>
        <time>2025-01-10T10:32:00.000Z</time>
      </trkpt>
      <trkpt lat="43.59562" lon="6.79297">
        <ele>213.5</ele>
        <time>2025-01-10T10:31:59.000Z</time>
      </trkpt>
      <trkpt lat="43.59556" lon="6.79302">
        <ele>213.7</ele>
        <time>2025-01-10T10:31:58.000Z</time>
      </trkpt>
      <trkpt lat="43.5955" lon="6.79306">
        <ele>214.1</ele>
        <time>2025-01-10T10:31:57.000Z</time>
      </trkpt>
      <trkpt lat="43.59545" lon="6.79312">
        <ele>214.6</ele>
        <time>2025-01-10T10:31:56.000Z</time>
      </trkpt>
      <trkpt lat="43.59539" lon="6.79318">
        <ele>215.1</ele>
        <time>2025-01-10T10:31:55.000Z</time>
      </trkpt>
      <trkpt lat="43.59534" lon="6.79325">
        <ele>215.6</ele>
        <time>2025-01-10T10:31:54.000Z</time>
      </trkpt>
      <trkpt lat="43.59528" lon="6.79332">
        <ele>216.1</ele>
        <time>2025-01-10T10:31:53.000Z</time>
      </trkpt>
      <trkpt lat="43.59522" lon="6.79339">
        <ele>216.7</ele>
        <time>2025-01-10T10:31:52.000Z</time>
      </trkpt>
      <trkpt lat="43.59516" lon="6.79344">
        <ele>217.2</ele>
        <time>2025-01-10T10:31:51.000Z</time>
      </trkpt>
      <trkpt lat="43.5951" lon="6.7935">
        <ele>217.9</ele>
        <time>2025-01-10T10:31:50.000Z</time>
      </trkpt>
      <trkpt lat="43.59504" lon="6.79355">
        <ele>218.5</ele>
        <time>2025-01-10T10:31:49.000Z</time>
      </trkpt>
      <trkpt lat="43.59499" lon="6.7936">
        <ele>219.1</ele>
        <time>2025-01-10T10:31:48.000Z</time>
      </trkpt>
      <trkpt lat="43.59495" lon="6.79366">
        <ele>219.6</ele>
        <time>2025-01-10T10:31:47.000Z</time>
      </trkpt>
      <trkpt lat="43.59491" lon="6.79371">
        <ele>220.1</ele>
        <time>2025-01-10T10:31:46.000Z</time>
      </trkpt>
      <trkpt lat="43.59488" lon="6.79377">
        <ele>220.6</ele>
        <time>2025-01-10T10:31:45.000Z</time>
      </trkpt>
      <trkpt lat="43.59485" lon="6.79383">
        <ele>221</ele>
        <time>2025-01-10T10:31:44.000Z</time>
      </trkpt>
      <trkpt lat="43.59483" lon="6.79389">
        <ele>221.3</ele>
        <time>2025-01-10T10:31:43.000Z</time>
      </trkpt>
      <trkpt lat="43.59481" lon="6.79395">
        <ele>221.7</ele>
        <time>2025-01-10T10:31:42.000Z</time>
      </trkpt>
      <trkpt lat="43.5948" lon="6.79402">
        <ele>222.1</ele>
        <time>2025-01-10T10:31:41.000Z</time>
      </trkpt>
      <trkpt lat="43.59479" lon="6.79409">
        <ele>222.4</ele>
        <time>2025-01-10T10:31:40.000Z</time>
      </trkpt>
      <trkpt lat="43.59478" lon="6.79417">
        <ele>222.8</ele>
        <time>2025-01-10T10:31:39.000Z</time>
      </trkpt>
      <trkpt lat="43.59477" lon="6.79425">
        <ele>223.1</ele>
        <time>2025-01-10T10:31:38.000Z</time>
      </trkpt>
      <trkpt lat="43.59476" lon="6.79433">
        <ele>223.4</ele>
        <time>2025-01-10T10:31:37.000Z</time>
      </trkpt>
      <trkpt lat="43.59475" lon="6.79442">
        <ele>223.6</ele>
        <time>2025-01-10T10:31:36.000Z</time>
      </trkpt>
      <trkpt lat="43.59473" lon="6.79451">
        <ele>223.8</ele>
        <time>2025-01-10T10:31:35.000Z</time>
      </trkpt>
      <trkpt lat="43.59471" lon="6.7946">
        <ele>223.9</ele>
        <time>2025-01-10T10:31:34.000Z</time>
      </trkpt>
      <trkpt lat="43.5947" lon="6.79469">
        <ele>224</ele>
        <time>2025-01-10T10:31:33.000Z</time>
      </trkpt>
      <trkpt lat="43.59467" lon="6.79477">
        <ele>224.1</ele>
        <time>2025-01-10T10:31:32.000Z</time>
      </trkpt>
      <trkpt lat="43.59463" lon="6.79485">
        <ele>224.1</ele>
        <time>2025-01-10T10:31:31.000Z</time>
      </trkpt>
      <trkpt lat="43.59458" lon="6.79493">
        <ele>224.3</ele>
        <time>2025-01-10T10:31:30.000Z</time>
      </trkpt>
      <trkpt lat="43.59452" lon="6.79498">
        <ele>224.5</ele>
        <time>2025-01-10T10:31:29.000Z</time>
      </trkpt>
      <trkpt lat="43.59445" lon="6.79503">
        <ele>224.9</ele>
        <time>2025-01-10T10:31:28.000Z</time>
      </trkpt>
      <trkpt lat="43.59439" lon="6.79507">
        <ele>225.4</ele>
        <time>2025-01-10T10:31:27.000Z</time>
      </trkpt>
      <trkpt lat="43.59432" lon="6.7951">
        <ele>225.8</ele>
        <time>2025-01-10T10:31:26.000Z</time>
      </trkpt>
      <trkpt lat="43.59427" lon="6.79512">
        <ele>226.2</ele>
        <time>2025-01-10T10:31:25.000Z</time>
      </trkpt>
      <trkpt lat="43.59421" lon="6.79514">
        <ele>226.5</ele>
        <time>2025-01-10T10:31:24.000Z</time>
      </trkpt>
      <trkpt lat="43.59417" lon="6.79516">
        <ele>226.8</ele>
        <time>2025-01-10T10:31:23.000Z</time>
      </trkpt>
      <trkpt lat="43.59411" lon="6.79517">
        <ele>227.1</ele>
        <time>2025-01-10T10:31:22.000Z</time>
      </trkpt>
      <trkpt lat="43.59406" lon="6.79518">
        <ele>227.4</ele>
        <time>2025-01-10T10:31:21.000Z</time>
      </trkpt>
      <trkpt lat="43.59401" lon="6.79519">
        <ele>227.7</ele>
        <time>2025-01-10T10:31:20.000Z</time>
      </trkpt>
      <trkpt lat="43.59395" lon="6.7952">
        <ele>228</ele>
        <time>2025-01-10T10:31:19.000Z</time>
      </trkpt>
      <trkpt lat="43.5939" lon="6.79522">
        <ele>228.3</ele>
        <time>2025-01-10T10:31:18.000Z</time>
      </trkpt>
      <trkpt lat="43.59385" lon="6.79523">
        <ele>228.5</ele>
        <time>2025-01-10T10:31:17.000Z</time>
      </trkpt>
      <trkpt lat="43.59381" lon="6.79526">
        <ele>228.8</ele>
        <time>2025-01-10T10:31:16.000Z</time>
      </trkpt>
      <trkpt lat="43.59377" lon="6.79529">
        <ele>229</ele>
        <time>2025-01-10T10:31:15.000Z</time>
      </trkpt>
      <trkpt lat="43.59374" lon="6.79531">
        <ele>229.2</ele>
        <time>2025-01-10T10:31:14.000Z</time>
      </trkpt>
      <trkpt lat="43.5937" lon="6.79536">
        <ele>229.5</ele>
        <time>2025-01-10T10:31:13.000Z</time>
      </trkpt>
      <trkpt lat="43.59367" lon="6.7954">
        <ele>229.7</ele>
        <time>2025-01-10T10:31:12.000Z</time>
      </trkpt>
      <trkpt lat="43.59364" lon="6.79544">
        <ele>229.9</ele>
        <time>2025-01-10T10:31:11.000Z</time>
      </trkpt>
      <trkpt lat="43.59362" lon="6.79548">
        <ele>230.2</ele>
        <time>2025-01-10T10:31:10.000Z</time>
      </trkpt>
      <trkpt lat="43.5936" lon="6.79553">
        <ele>230.4</ele>
        <time>2025-01-10T10:31:09.000Z</time>
      </trkpt>
      <trkpt lat="43.59358" lon="6.79557">
        <ele>230.5</ele>
        <time>2025-01-10T10:31:08.000Z</time>
      </trkpt>
      <trkpt lat="43.59355" lon="6.79561">
        <ele>230.5</ele>
        <time>2025-01-10T10:31:07.000Z</time>
      </trkpt>
      <trkpt lat="43.59352" lon="6.79564">
        <ele>230.6</ele>
        <time>2025-01-10T10:31:06.000Z</time>
      </trkpt>
      <trkpt lat="43.59349" lon="6.79567">
        <ele>230.6</ele>
        <time>2025-01-10T10:31:05.000Z</time>
      </trkpt>
      <trkpt lat="43.59345" lon="6.79569">
        <ele>230.5</ele>
        <time>2025-01-10T10:31:04.000Z</time>
      </trkpt>
      <trkpt lat="43.59342" lon="6.79571">
        <ele>230.4</ele>
        <time>2025-01-10T10:31:03.000Z</time>
      </trkpt>
      <trkpt lat="43.59338" lon="6.79573">
        <ele>230.2</ele>
        <time>2025-01-10T10:31:02.000Z</time>
      </trkpt>
      <trkpt lat="43.59335" lon="6.79575">
        <ele>230.1</ele>
        <time>2025-01-10T10:31:01.000Z</time>
      </trkpt>
      <trkpt lat="43.59331" lon="6.79577">
        <ele>229.9</ele>
        <time>2025-01-10T10:31:00.000Z</time>
      </trkpt>
      <trkpt lat="43.59328" lon="6.79579">
        <ele>229.7</ele>
        <time>2025-01-10T10:30:59.000Z</time>
      </trkpt>
      <trkpt lat="43.59324" lon="6.79581">
        <ele>229.4</ele>
        <time>2025-01-10T10:30:58.000Z</time>
      </trkpt>
      <trkpt lat="43.5932" lon="6.79584">
        <ele>229.1</ele>
        <time>2025-01-10T10:30:57.000Z</time>
      </trkpt>
      <trkpt lat="43.59317" lon="6.79586">
        <ele>228.8</ele>
        <time>2025-01-10T10:30:56.000Z</time>
      </trkpt>
      <trkpt lat="43.59314" lon="6.79587">
        <ele>228.6</ele>
        <time>2025-01-10T10:30:55.000Z</time>
      </trkpt>
      <trkpt lat="43.59311" lon="6.79589">
        <ele>228.3</ele>
        <time>2025-01-10T10:30:54.000Z</time>
      </trkpt>
      <trkpt lat="43.59309" lon="6.79592">
        <ele>228</ele>
        <time>2025-01-10T10:30:53.000Z</time>
      </trkpt>
      <trkpt lat="43.59306" lon="6.79594">
        <ele>227.7</ele>
        <time>2025-01-10T10:30:52.000Z</time>
      </trkpt>
      <trkpt lat="43.59304" lon="6.79597">
        <ele>227.4</ele>
        <time>2025-01-10T10:30:51.000Z</time>
      </trkpt>
      <trkpt lat="43.59301" lon="6.796">
        <ele>227.1</ele>
        <time>2025-01-10T10:30:50.000Z</time>
      </trkpt>
      <trkpt lat="43.593" lon="6.79603">
        <ele>226.8</ele>
        <time>2025-01-10T10:30:49.000Z</time>
      </trkpt>
      <trkpt lat="43.59298" lon="6.79607">
        <ele>226.5</ele>
        <time>2025-01-10T10:30:48.000Z</time>
      </trkpt>
      <trkpt lat="43.59297" lon="6.79611">
        <ele>226.2</ele>
        <time>2025-01-10T10:30:47.000Z</time>
      </trkpt>
      <trkpt lat="43.59295" lon="6.79615">
        <ele>225.8</ele>
        <time>2025-01-10T10:30:46.000Z</time>
      </trkpt>
      <trkpt lat="43.59294" lon="6.79619">
        <ele>225.4</ele>
        <time>2025-01-10T10:30:45.000Z</time>
      </trkpt>
      <trkpt lat="43.59294" lon="6.79625">
        <ele>224.9</ele>
        <time>2025-01-10T10:30:44.000Z</time>
      </trkpt>
      <trkpt lat="43.59293" lon="6.79629">
        <ele>224.6</ele>
        <time>2025-01-10T10:30:43.000Z</time>
      </trkpt>
      <trkpt lat="43.59293" lon="6.79633">
        <ele>224.1</ele>
        <time>2025-01-10T10:30:42.000Z</time>
      </trkpt>
      <trkpt lat="43.59292" lon="6.79638">
        <ele>223.7</ele>
        <time>2025-01-10T10:30:41.000Z</time>
      </trkpt>
      <trkpt lat="43.59291" lon="6.79642">
        <ele>223.2</ele>
        <time>2025-01-10T10:30:40.000Z</time>
      </trkpt>
      <trkpt lat="43.59288" lon="6.79646">
        <ele>222.7</ele>
        <time>2025-01-10T10:30:39.000Z</time>
      </trkpt>
      <trkpt lat="43.59285" lon="6.79649">
        <ele>222.2</ele>
        <time>2025-01-10T10:30:38.000Z</time>
      </trkpt>
      <trkpt lat="43.59283" lon="6.79651">
        <ele>221.9</ele>
        <time>2025-01-10T10:30:37.000Z</time>
      </trkpt>
      <trkpt lat="43.59279" lon="6.79652">
        <ele>221.4</ele>
        <time>2025-01-10T10:30:36.000Z</time>
      </trkpt>
      <trkpt lat="43.59276" lon="6.79654">
        <ele>221.1</ele>
        <time>2025-01-10T10:30:35.000Z</time>
      </trkpt>
      <trkpt lat="43.59273" lon="6.79655">
        <ele>220.7</ele>
        <time>2025-01-10T10:30:34.000Z</time>
      </trkpt>
      <trkpt lat="43.5927" lon="6.79656">
        <ele>220.4</ele>
        <time>2025-01-10T10:30:33.000Z</time>
      </trkpt>
      <trkpt lat="43.59267" lon="6.79657">
        <ele>220.1</ele>
        <time>2025-01-10T10:30:32.000Z</time>
      </trkpt>
      <trkpt lat="43.59264" lon="6.79659">
        <ele>219.8</ele>
        <time>2025-01-10T10:30:31.000Z</time>
      </trkpt>
      <trkpt lat="43.59261" lon="6.7966">
        <ele>219.6</ele>
        <time>2025-01-10T10:30:30.000Z</time>
      </trkpt>
      <trkpt lat="43.59259" lon="6.79663">
        <ele>219.3</ele>
        <time>2025-01-10T10:30:29.000Z</time>
      </trkpt>
      <trkpt lat="43.59258" lon="6.79665">
        <ele>218.7</ele>
        <time>2025-01-10T10:30:28.000Z</time>
      </trkpt>
      <trkpt lat="43.59257" lon="6.79668">
        <ele>218.4</ele>
        <time>2025-01-10T10:30:27.000Z</time>
      </trkpt>
      <trkpt lat="43.59257" lon="6.79671">
        <ele>218.2</ele>
        <time>2025-01-10T10:30:26.000Z</time>
      </trkpt>
      <trkpt lat="43.59258" lon="6.79675">
        <ele>217.8</ele>
        <time>2025-01-10T10:30:25.000Z</time>
      </trkpt>
      <trkpt lat="43.59259" lon="6.79677">
        <ele>217.6</ele>
        <time>2025-01-10T10:30:24.000Z</time>
      </trkpt>
      <trkpt lat="43.59261" lon="6.7968">
        <ele>217.3</ele>
        <time>2025-01-10T10:30:23.000Z</time>
      </trkpt>
      <trkpt lat="43.59263" lon="6.79682">
        <ele>217</ele>
        <time>2025-01-10T10:30:22.000Z</time>
      </trkpt>
      <trkpt lat="43.59266" lon="6.79685">
        <ele>216.8</ele>
        <time>2025-01-10T10:30:21.000Z</time>
      </trkpt>
      <trkpt lat="43.59268" lon="6.79687">
        <ele>216.6</ele>
        <time>2025-01-10T10:30:20.000Z</time>
      </trkpt>
      <trkpt lat="43.5927" lon="6.79689">
        <ele>216.4</ele>
        <time>2025-01-10T10:30:19.000Z</time>
      </trkpt>
      <trkpt lat="43.5927" lon="6.79689">
        <ele>216.4</ele>
        <time>2025-01-10T10:30:18.000Z</time>
      </trkpt>
      <trkpt lat="43.5927" lon="6.79689">
        <ele>216.4</ele>
        <time>2025-01-10T10:30:17.000Z</time>
      </trkpt>
      <trkpt lat="43.5927" lon="6.79689">
        <ele>216.4</ele>
        <time>2025-01-10T10:30:16.000Z</time>
      </trkpt>
      <trkpt lat="43.5927" lon="6.79689">
        <ele>216.4</ele>
        <time>2025-01-10T10:30:15.000Z</time>
      </trkpt>
      <trkpt lat="43.5927" lon="6.79689">
        <ele>216.4</ele>
        <time>2025-01-10T10:30:14.000Z</time>
      </trkpt>
      <trkpt lat="43.5927" lon="6.79689">
        <ele>216.4</ele>
        <time>2025-01-10T10:30:13.000Z</time>
      </trkpt>
      <trkpt lat="43.5927" lon="6.79689">
        <ele>216.4</ele>
        <time>2025-01-10T10:30:12.000Z</time>
      </trkpt>
      <trkpt lat="43.5927" lon="6.79689">
        <ele>216.4</ele>
        <time>2025-01-10T10:30:11.000Z</time>
      </trkpt>
      <trkpt lat="43.5927" lon="6.79689">
        <ele>216.4</ele>
        <time>2025-01-10T10:30:10.000Z</time>
      </trkpt>
      <trkpt lat="43.5927" lon="6.79689">
        <ele>216.4</ele>
        <time>2025-01-10T10:30:09.000Z</time>
      </trkpt>
      <trkpt lat="43.5927" lon="6.79689">
        <ele>216.4</ele>
        <time>2025-01-10T10:30:08.000Z</time>
      </trkpt>
      <trkpt lat="43.5927" lon="6.79689">
        <ele>216.4</ele>
        <time>2025-01-10T10:30:07.000Z</time>
      </trkpt>
      <trkpt lat="43.5927" lon="6.79689">
        <ele>216.4</ele>
        <time>2025-01-10T10:30:06.000Z</time>
      </trkpt>
      <trkpt lat="43.5927" lon="6.79689">
        <ele>216.4</ele>
        <time>2025-01-10T10:30:05.000Z</time>
      </trkpt>
      <trkpt lat="43.5927" lon="6.79689">
        <ele>216.4</ele>
        <time>2025-01-10T10:30:04.000Z</time>
      </trkpt>
      <trkpt lat="43.5927" lon="6.79689">
        <ele>216.3</ele>
        <time>2025-01-10T10:30:03.000Z</time>
      </trkpt>
      <trkpt lat="43.5927" lon="6.79689">
        <ele>216.3</ele>
        <time>2025-01-10T10:30:02.000Z</time>
      </trkpt>
      <trkpt lat="43.5927" lon="6.79689">
        <ele>216.3</ele>
        <time>2025-01-10T10:30:01.000Z</time>
      </trkpt>
      <trkpt lat="43.5927" lon="6.79689">
        <ele>216.3</ele>
        <time>2025-01-10T10:30:00.000Z</time>
      </trkpt>
      <trkpt lat="43.5927" lon="6.79689">
        <ele>216.3</ele>
        <time>2025-01-10T10:29:59.000Z</time>
      </trkpt>
      <trkpt lat="43.5927" lon="6.79689">
        <ele>216.3</ele>
        <time>2025-01-10T10:29:58.000Z</time>
      </trkpt>
      <trkpt lat="43.5927" lon="6.79689">
        <ele>216.3</ele>
        <time>2025-01-10T10:29:57.000Z</time>
      </trkpt>
      <trkpt lat="43.5927" lon="6.79689">
        <ele>216.3</ele>
        <time>2025-01-10T10:29:56.000Z</time>
      </trkpt>
      <trkpt lat="43.5927" lon="6.79689">
        <ele>216.3</ele>
        <time>2025-01-10T10:29:55.000Z</time>
      </trkpt>
      <trkpt lat="43.5927" lon="6.79689">
        <ele>216.3</ele>
        <time>2025-01-10T10:29:54.000Z</time>
      </trkpt>
      <trkpt lat="43.5927" lon="6.79689">
        <ele>216.3</ele>
        <time>2025-01-10T10:29:53.000Z</time>
      </trkpt>
      <trkpt lat="43.5927" lon="6.79689">
        <ele>216.3</ele>
        <time>2025-01-10T10:29:52.000Z</time>
      </trkpt>
      <trkpt lat="43.5927" lon="6.79689">
        <ele>216.3</ele>
        <time>2025-01-10T10:29:51.000Z</time>
      </trkpt>
      <trkpt lat="43.5927" lon="6.79689">
        <ele>216.3</ele>
        <time>2025-01-10T10:29:50.000Z</time>
      </trkpt>
      <trkpt lat="43.5927" lon="6.79689">
        <ele>216.3</ele>
        <time>2025-01-10T10:29:49.000Z</time>
      </trkpt>
      <trkpt lat="43.5927" lon="6.79689">
        <ele>216.3</ele>
        <time>2025-01-10T10:29:48.000Z</time>
      </trkpt>
      <trkpt lat="43.5927" lon="6.79689">
        <ele>216.3</ele>
        <time>2025-01-10T10:29:47.000Z</time>
      </trkpt>
      <trkpt lat="43.5927" lon="6.79689">
        <ele>216.3</ele>
        <time>2025-01-10T10:29:46.000Z</time>
      </trkpt>
      <trkpt lat="43.5927" lon="6.79689">
        <ele>216.3</ele>
        <time>2025-01-10T10:29:45.000Z</time>
      </trkpt>
      <trkpt lat="43.5927" lon="6.79689">
        <ele>216.3</ele>
        <time>2025-01-10T10:29:44.000Z</time>
      </trkpt>
      <trkpt lat="43.5927" lon="6.79689">
        <ele>216.3</ele>
        <time>2025-01-10T10:29:43.000Z</time>
      </trkpt>
      <trkpt lat="43.5927" lon="6.79689">
        <ele>216.3</ele>
        <time>2025-01-10T10:29:42.000Z</time>
      </trkpt>
      <trkpt lat="43.5927" lon="6.79689">
        <ele>216.3</ele>
        <time>2025-01-10T10:29:41.000Z</time>
      </trkpt>
      <trkpt lat="43.5927" lon="6.79689">
        <ele>216.3</ele>
        <time>2025-01-10T10:29:40.000Z</time>
      </trkpt>
      <trkpt lat="43.5927" lon="6.79689">
        <ele>216.3</ele>
        <time>2025-01-10T10:29:39.000Z</time>
      </trkpt>
      <trkpt lat="43.5927" lon="6.79689">
        <ele>216.3</ele>
        <time>2025-01-10T10:29:38.000Z</time>
      </trkpt>
      <trkpt lat="43.5927" lon="6.79688">
        <ele>216.3</ele>
        <time>2025-01-10T10:29:37.000Z</time>
      </trkpt>
      <trkpt lat="43.5927" lon="6.79688">
        <ele>216.2</ele>
        <time>2025-01-10T10:29:36.000Z</time>
      </trkpt>
      <trkpt lat="43.5927" lon="6.79689">
        <ele>216.2</ele>
        <time>2025-01-10T10:29:35.000Z</time>
      </trkpt>
      <trkpt lat="43.59271" lon="6.79689">
        <ele>216.2</ele>
        <time>2025-01-10T10:29:34.000Z</time>
      </trkpt>
      <trkpt lat="43.59271" lon="6.79689">
        <ele>216.2</ele>
        <time>2025-01-10T10:29:33.000Z</time>
      </trkpt>
      <trkpt lat="43.59272" lon="6.79689">
        <ele>216.1</ele>
        <time>2025-01-10T10:29:32.000Z</time>
      </trkpt>
      <trkpt lat="43.59272" lon="6.7969">
        <ele>216.1</ele>
        <time>2025-01-10T10:29:31.000Z</time>
      </trkpt>
      <trkpt lat="43.59274" lon="6.79691">
        <ele>215.9</ele>
        <time>2025-01-10T10:29:30.000Z</time>
      </trkpt>
      <trkpt lat="43.59275" lon="6.79693">
        <ele>215.8</ele>
        <time>2025-01-10T10:29:29.000Z</time>
      </trkpt>
      <trkpt lat="43.59277" lon="6.79697">
        <ele>215.6</ele>
        <time>2025-01-10T10:29:28.000Z</time>
      </trkpt>
      <trkpt lat="43.59278" lon="6.79701">
        <ele>215.4</ele>
        <time>2025-01-10T10:29:27.000Z</time>
      </trkpt>
      <trkpt lat="43.59278" lon="6.79706">
        <ele>215.2</ele>
        <time>2025-01-10T10:29:26.000Z</time>
      </trkpt>
      <trkpt lat="43.59278" lon="6.7971">
        <ele>215</ele>
        <time>2025-01-10T10:29:25.000Z</time>
      </trkpt>
      <trkpt lat="43.59278" lon="6.79715">
        <ele>214.9</ele>
        <time>2025-01-10T10:29:24.000Z</time>
      </trkpt>
      <trkpt lat="43.59276" lon="6.7972">
        <ele>214.7</ele>
        <time>2025-01-10T10:29:23.000Z</time>
      </trkpt>
      <trkpt lat="43.59274" lon="6.79724">
        <ele>214.6</ele>
        <time>2025-01-10T10:29:22.000Z</time>
      </trkpt>
      <trkpt lat="43.59271" lon="6.79727">
        <ele>214.5</ele>
        <time>2025-01-10T10:29:21.000Z</time>
      </trkpt>
      <trkpt lat="43.59268" lon="6.7973">
        <ele>214.4</ele>
        <time>2025-01-10T10:29:20.000Z</time>
      </trkpt>
      <trkpt lat="43.59268" lon="6.7973">
        <ele>214.4</ele>
        <time>2025-01-10T10:29:19.000Z</time>
      </trkpt>
      <trkpt lat="43.59268" lon="6.7973">
        <ele>214.4</ele>
        <time>2025-01-10T10:29:18.000Z</time>
      </trkpt>
      <trkpt lat="43.59268" lon="6.7973">
        <ele>214.4</ele>
        <time>2025-01-10T10:29:17.000Z</time>
      </trkpt>
      <trkpt lat="43.59268" lon="6.7973">
        <ele>214.4</ele>
        <time>2025-01-10T10:29:16.000Z</time>
      </trkpt>
      <trkpt lat="43.59268" lon="6.7973">
        <ele>214.4</ele>
        <time>2025-01-10T10:29:15.000Z</time>
      </trkpt>
      <trkpt lat="43.59267" lon="6.7973">
        <ele>214.4</ele>
        <time>2025-01-10T10:29:14.000Z</time>
      </trkpt>
      <trkpt lat="43.59267" lon="6.7973">
        <ele>214.4</ele>
        <time>2025-01-10T10:29:13.000Z</time>
      </trkpt>
      <trkpt lat="43.59266" lon="6.7973">
        <ele>214.4</ele>
        <time>2025-01-10T10:29:12.000Z</time>
      </trkpt>
      <trkpt lat="43.59265" lon="6.7973">
        <ele>214.3</ele>
        <time>2025-01-10T10:29:11.000Z</time>
      </trkpt>
      <trkpt lat="43.59265" lon="6.79731">
        <ele>214.3</ele>
        <time>2025-01-10T10:29:10.000Z</time>
      </trkpt>
      <trkpt lat="43.59265" lon="6.79731">
        <ele>214.3</ele>
        <time>2025-01-10T10:29:09.000Z</time>
      </trkpt>
      <trkpt lat="43.59264" lon="6.79731">
        <ele>214.3</ele>
        <time>2025-01-10T10:29:08.000Z</time>
      </trkpt>
      <trkpt lat="43.59263" lon="6.79731">
        <ele>214.3</ele>
        <time>2025-01-10T10:29:07.000Z</time>
      </trkpt>
      <trkpt lat="43.59263" lon="6.79732">
        <ele>214.3</ele>
        <time>2025-01-10T10:29:06.000Z</time>
      </trkpt>
      <trkpt lat="43.59262" lon="6.79732">
        <ele>214.2</ele>
        <time>2025-01-10T10:29:05.000Z</time>
      </trkpt>
      <trkpt lat="43.59261" lon="6.79731">
        <ele>214.2</ele>
        <time>2025-01-10T10:29:04.000Z</time>
      </trkpt>
      <trkpt lat="43.59261" lon="6.79731">
        <ele>214.2</ele>
        <time>2025-01-10T10:29:03.000Z</time>
      </trkpt>
      <trkpt lat="43.59261" lon="6.79731">
        <ele>214.2</ele>
        <time>2025-01-10T10:29:02.000Z</time>
      </trkpt>
      <trkpt lat="43.59262" lon="6.79732">
        <ele>214.2</ele>
        <time>2025-01-10T10:29:01.000Z</time>
      </trkpt>
      <trkpt lat="43.59262" lon="6.79732">
        <ele>214.2</ele>
        <time>2025-01-10T10:29:00.000Z</time>
      </trkpt>
      <trkpt lat="43.59262" lon="6.79732">
        <ele>214.2</ele>
        <time>2025-01-10T10:28:59.000Z</time>
      </trkpt>
      <trkpt lat="43.59262" lon="6.79732">
        <ele>214.2</ele>
        <time>2025-01-10T10:28:58.000Z</time>
      </trkpt>
      <trkpt lat="43.59262" lon="6.79732">
        <ele>214.2</ele>
        <time>2025-01-10T10:28:57.000Z</time>
      </trkpt>
      <trkpt lat="43.59262" lon="6.79732">
        <ele>214.2</ele>
        <time>2025-01-10T10:28:56.000Z</time>
      </trkpt>
      <trkpt lat="43.59262" lon="6.79732">
        <ele>214.2</ele>
        <time>2025-01-10T10:28:55.000Z</time>
      </trkpt>
      <trkpt lat="43.59263" lon="6.79731">
        <ele>214.2</ele>
        <time>2025-01-10T10:28:54.000Z</time>
      </trkpt>
      <trkpt lat="43.59263" lon="6.79731">
        <ele>214.2</ele>
        <time>2025-01-10T10:28:53.000Z</time>
      </trkpt>
      <trkpt lat="43.59265" lon="6.79731">
        <ele>214.1</ele>
        <time>2025-01-10T10:28:52.000Z</time>
      </trkpt>
      <trkpt lat="43.59267" lon="6.7973">
        <ele>214.1</ele>
        <time>2025-01-10T10:28:51.000Z</time>
      </trkpt>
      <trkpt lat="43.5927" lon="6.7973">
        <ele>214</ele>
        <time>2025-01-10T10:28:50.000Z</time>
      </trkpt>
      <trkpt lat="43.59273" lon="6.79731">
        <ele>214.4</ele>
        <time>2025-01-10T10:28:49.000Z</time>
      </trkpt>
      <trkpt lat="43.59275" lon="6.79732">
        <ele>214.8</ele>
        <time>2025-01-10T10:28:48.000Z</time>
      </trkpt>
      <trkpt lat="43.59278" lon="6.79733">
        <ele>215.1</ele>
        <time>2025-01-10T10:28:47.000Z</time>
      </trkpt>
      <trkpt lat="43.5928" lon="6.79734">
        <ele>215.4</ele>
        <time>2025-01-10T10:28:46.000Z</time>
      </trkpt>
      <trkpt lat="43.59281" lon="6.79735">
        <ele>215.7</ele>
        <time>2025-01-10T10:28:45.000Z</time>
      </trkpt>
      <trkpt lat="43.59282" lon="6.79735">
        <ele>215.8</ele>
        <time>2025-01-10T10:28:44.000Z</time>
      </trkpt>
      <trkpt lat="43.59283" lon="6.79735">
        <ele>216</ele>
        <time>2025-01-10T10:28:43.000Z</time>
      </trkpt>
      <trkpt lat="43.59285" lon="6.79736">
        <ele>216.2</ele>
        <time>2025-01-10T10:28:42.000Z</time>
      </trkpt>
      <trkpt lat="43.59287" lon="6.79737">
        <ele>216.5</ele>
        <time>2025-01-10T10:28:41.000Z</time>
      </trkpt>
      <trkpt lat="43.5929" lon="6.79737">
        <ele>216.8</ele>
        <time>2025-01-10T10:28:40.000Z</time>
      </trkpt>
      <trkpt lat="43.59292" lon="6.79738">
        <ele>217.2</ele>
        <time>2025-01-10T10:28:39.000Z</time>
      </trkpt>
      <trkpt lat="43.59295" lon="6.79739">
        <ele>217.5</ele>
        <time>2025-01-10T10:28:38.000Z</time>
      </trkpt>
      <trkpt lat="43.59297" lon="6.79741">
        <ele>217.8</ele>
        <time>2025-01-10T10:28:37.000Z</time>
      </trkpt>
      <trkpt lat="43.59299" lon="6.79742">
        <ele>218.1</ele>
        <time>2025-01-10T10:28:36.000Z</time>
      </trkpt>
      <trkpt lat="43.59301" lon="6.79744">
        <ele>218.3</ele>
        <time>2025-01-10T10:28:35.000Z</time>
      </trkpt>
      <trkpt lat="43.59303" lon="6.79746">
        <ele>218.5</ele>
        <time>2025-01-10T10:28:34.000Z</time>
      </trkpt>
      <trkpt lat="43.59305" lon="6.79748">
        <ele>218.7</ele>
        <time>2025-01-10T10:28:33.000Z</time>
      </trkpt>
      <trkpt lat="43.59307" lon="6.79749">
        <ele>218.9</ele>
        <time>2025-01-10T10:28:32.000Z</time>
      </trkpt>
      <trkpt lat="43.5931" lon="6.79751">
        <ele>219.1</ele>
        <time>2025-01-10T10:28:31.000Z</time>
      </trkpt>
      <trkpt lat="43.59312" lon="6.79751">
        <ele>219.2</ele>
        <time>2025-01-10T10:28:30.000Z</time>
      </trkpt>
      <trkpt lat="43.59316" lon="6.79752">
        <ele>219.4</ele>
        <time>2025-01-10T10:28:29.000Z</time>
      </trkpt>
      <trkpt lat="43.59318" lon="6.79752">
        <ele>219.4</ele>
        <time>2025-01-10T10:28:28.000Z</time>
      </trkpt>
      <trkpt lat="43.59321" lon="6.79751">
        <ele>219.5</ele>
        <time>2025-01-10T10:28:27.000Z</time>
      </trkpt>
      <trkpt lat="43.59325" lon="6.79751">
        <ele>219.6</ele>
        <time>2025-01-10T10:28:26.000Z</time>
      </trkpt>
      <trkpt lat="43.59328" lon="6.79751">
        <ele>219.7</ele>
        <time>2025-01-10T10:28:25.000Z</time>
      </trkpt>
      <trkpt lat="43.59333" lon="6.79751">
        <ele>219.9</ele>
        <time>2025-01-10T10:28:24.000Z</time>
      </trkpt>
      <trkpt lat="43.59336" lon="6.79751">
        <ele>220</ele>
        <time>2025-01-10T10:28:23.000Z</time>
      </trkpt>
      <trkpt lat="43.5934" lon="6.79751">
        <ele>220.3</ele>
        <time>2025-01-10T10:28:22.000Z</time>
      </trkpt>
      <trkpt lat="43.59344" lon="6.7975">
        <ele>220.6</ele>
        <time>2025-01-10T10:28:21.000Z</time>
      </trkpt>
      <trkpt lat="43.59349" lon="6.7975">
        <ele>221</ele>
        <time>2025-01-10T10:28:20.000Z</time>
      </trkpt>
      <trkpt lat="43.59353" lon="6.79749">
        <ele>221.4</ele>
        <time>2025-01-10T10:28:19.000Z</time>
      </trkpt>
      <trkpt lat="43.59357" lon="6.79749">
        <ele>221.9</ele>
        <time>2025-01-10T10:28:18.000Z</time>
      </trkpt>
      <trkpt lat="43.59362" lon="6.7975">
        <ele>222.5</ele>
        <time>2025-01-10T10:28:17.000Z</time>
      </trkpt>
      <trkpt lat="43.59366" lon="6.79752">
        <ele>223</ele>
        <time>2025-01-10T10:28:16.000Z</time>
      </trkpt>
      <trkpt lat="43.59371" lon="6.79753">
        <ele>223.7</ele>
        <time>2025-01-10T10:28:15.000Z</time>
      </trkpt>
      <trkpt lat="43.59375" lon="6.79755">
        <ele>224.1</ele>
        <time>2025-01-10T10:28:14.000Z</time>
      </trkpt>
      <trkpt lat="43.59379" lon="6.79756">
        <ele>224.6</ele>
        <time>2025-01-10T10:28:13.000Z</time>
      </trkpt>
      <trkpt lat="43.59382" lon="6.79758">
        <ele>225</ele>
        <time>2025-01-10T10:28:12.000Z</time>
      </trkpt>
      <trkpt lat="43.59386" lon="6.79759">
        <ele>225.5</ele>
        <time>2025-01-10T10:28:11.000Z</time>
      </trkpt>
      <trkpt lat="43.59392" lon="6.7976">
        <ele>226.1</ele>
        <time>2025-01-10T10:28:10.000Z</time>
      </trkpt>
      <trkpt lat="43.59395" lon="6.79761">
        <ele>226.5</ele>
        <time>2025-01-10T10:28:09.000Z</time>
      </trkpt>
      <trkpt lat="43.59399" lon="6.79763">
        <ele>227.1</ele>
        <time>2025-01-10T10:28:08.000Z</time>
      </trkpt>
      <trkpt lat="43.59403" lon="6.79764">
        <ele>227.6</ele>
        <time>2025-01-10T10:28:07.000Z</time>
      </trkpt>
      <trkpt lat="43.59407" lon="6.79766">
        <ele>228.1</ele>
        <time>2025-01-10T10:28:06.000Z</time>
      </trkpt>
      <trkpt lat="43.59411" lon="6.79767">
        <ele>228.6</ele>
        <time>2025-01-10T10:28:05.000Z</time>
      </trkpt>
      <trkpt lat="43.59415" lon="6.79769">
        <ele>229.1</ele>
        <time>2025-01-10T10:28:04.000Z</time>
      </trkpt>
      <trkpt lat="43.59419" lon="6.79771">
        <ele>229.6</ele>
        <time>2025-01-10T10:28:03.000Z</time>
      </trkpt>
      <trkpt lat="43.59423" lon="6.79772">
        <ele>230.2</ele>
        <time>2025-01-10T10:28:02.000Z</time>
      </trkpt>
      <trkpt lat="43.59428" lon="6.79774">
        <ele>231</ele>
        <time>2025-01-10T10:28:01.000Z</time>
      </trkpt>
      <trkpt lat="43.59433" lon="6.79776">
        <ele>231.6</ele>
        <time>2025-01-10T10:28:00.000Z</time>
      </trkpt>
      <trkpt lat="43.59436" lon="6.79777">
        <ele>232</ele>
        <time>2025-01-10T10:27:59.000Z</time>
      </trkpt>
      <trkpt lat="43.5944" lon="6.79778">
        <ele>232.5</ele>
        <time>2025-01-10T10:27:58.000Z</time>
      </trkpt>
      <trkpt lat="43.59444" lon="6.7978">
        <ele>233</ele>
        <time>2025-01-10T10:27:57.000Z</time>
      </trkpt>
      <trkpt lat="43.59448" lon="6.79781">
        <ele>233.5</ele>
        <time>2025-01-10T10:27:56.000Z</time>
      </trkpt>
      <trkpt lat="43.59452" lon="6.79781">
        <ele>234</ele>
        <time>2025-01-10T10:27:55.000Z</time>
      </trkpt>
      <trkpt lat="43.59456" lon="6.79782">
        <ele>234.4</ele>
        <time>2025-01-10T10:27:54.000Z</time>
      </trkpt>
      <trkpt lat="43.59459" lon="6.79783">
        <ele>234.9</ele>
        <time>2025-01-10T10:27:53.000Z</time>
      </trkpt>
      <trkpt lat="43.59463" lon="6.79784">
        <ele>235.3</ele>
        <time>2025-01-10T10:27:52.000Z</time>
      </trkpt>
      <trkpt lat="43.59465" lon="6.79784">
        <ele>235.6</ele>
        <time>2025-01-10T10:27:51.000Z</time>
      </trkpt>
      <trkpt lat="43.59468" lon="6.79782">
        <ele>235.9</ele>
        <time>2025-01-10T10:27:50.000Z</time>
      </trkpt>
      <trkpt lat="43.59471" lon="6.7978">
        <ele>236.2</ele>
        <time>2025-01-10T10:27:49.000Z</time>
      </trkpt>
      <trkpt lat="43.59475" lon="6.79777">
        <ele>236.5</ele>
        <time>2025-01-10T10:27:48.000Z</time>
      </trkpt>
      <trkpt lat="43.5948" lon="6.79774">
        <ele>236.8</ele>
        <time>2025-01-10T10:27:47.000Z</time>
      </trkpt>
      <trkpt lat="43.59483" lon="6.79772">
        <ele>237.1</ele>
        <time>2025-01-10T10:27:46.000Z</time>
      </trkpt>
      <trkpt lat="43.59486" lon="6.7977">
        <ele>237.3</ele>
        <time>2025-01-10T10:27:45.000Z</time>
      </trkpt>
      <trkpt lat="43.59489" lon="6.79768">
        <ele>237.5</ele>
        <time>2025-01-10T10:27:44.000Z</time>
      </trkpt>
      <trkpt lat="43.59491" lon="6.79767">
        <ele>237.7</ele>
        <time>2025-01-10T10:27:43.000Z</time>
      </trkpt>
      <trkpt lat="43.59492" lon="6.79766">
        <ele>237.8</ele>
        <time>2025-01-10T10:27:42.000Z</time>
      </trkpt>
      <trkpt lat="43.59492" lon="6.79766">
        <ele>237.8</ele>
        <time>2025-01-10T10:27:41.000Z</time>
      </trkpt>
      <trkpt lat="43.59492" lon="6.79765">
        <ele>237.9</ele>
        <time>2025-01-10T10:27:40.000Z</time>
      </trkpt>
      <trkpt lat="43.59493" lon="6.79764">
        <ele>238</ele>
        <time>2025-01-10T10:27:39.000Z</time>
      </trkpt>
      <trkpt lat="43.59494" lon="6.79761">
        <ele>238.2</ele>
        <time>2025-01-10T10:27:38.000Z</time>
      </trkpt>
      <trkpt lat="43.59497" lon="6.79758">
        <ele>238.5</ele>
        <time>2025-01-10T10:27:37.000Z</time>
      </trkpt>
      <trkpt lat="43.595" lon="6.79754">
        <ele>238.9</ele>
        <time>2025-01-10T10:27:36.000Z</time>
      </trkpt>
      <trkpt lat="43.59504" lon="6.79751">
        <ele>239.3</ele>
        <time>2025-01-10T10:27:35.000Z</time>
      </trkpt>
      <trkpt lat="43.59509" lon="6.79748">
        <ele>239.8</ele>
        <time>2025-01-10T10:27:34.000Z</time>
      </trkpt>
      <trkpt lat="43.59514" lon="6.79746">
        <ele>240.3</ele>
        <time>2025-01-10T10:27:33.000Z</time>
      </trkpt>
      <trkpt lat="43.59519" lon="6.79742">
        <ele>240.8</ele>
        <time>2025-01-10T10:27:32.000Z</time>
      </trkpt>
      <trkpt lat="43.59522" lon="6.79739">
        <ele>241.2</ele>
        <time>2025-01-10T10:27:31.000Z</time>
      </trkpt>
      <trkpt lat="43.59525" lon="6.79736">
        <ele>241.4</ele>
        <time>2025-01-10T10:27:30.000Z</time>
      </trkpt>
      <trkpt lat="43.59526" lon="6.79734">
        <ele>241.5</ele>
        <time>2025-01-10T10:27:29.000Z</time>
      </trkpt>
      <trkpt lat="43.59527" lon="6.79733">
        <ele>241.6</ele>
        <time>2025-01-10T10:27:28.000Z</time>
      </trkpt>
      <trkpt lat="43.59527" lon="6.79732">
        <ele>241.6</ele>
        <time>2025-01-10T10:27:27.000Z</time>
      </trkpt>
      <trkpt lat="43.59527" lon="6.79731">
        <ele>241.6</ele>
        <time>2025-01-10T10:27:26.000Z</time>
      </trkpt>
      <trkpt lat="43.59528" lon="6.79731">
        <ele>241.6</ele>
        <time>2025-01-10T10:27:25.000Z</time>
      </trkpt>
      <trkpt lat="43.59529" lon="6.7973">
        <ele>241.7</ele>
        <time>2025-01-10T10:27:24.000Z</time>
      </trkpt>
      <trkpt lat="43.5953" lon="6.79728">
        <ele>241.8</ele>
        <time>2025-01-10T10:27:23.000Z</time>
      </trkpt>
      <trkpt lat="43.59533" lon="6.79726">
        <ele>241.8</ele>
        <time>2025-01-10T10:27:22.000Z</time>
      </trkpt>
      <trkpt lat="43.59536" lon="6.79724">
        <ele>241.9</ele>
        <time>2025-01-10T10:27:21.000Z</time>
      </trkpt>
      <trkpt lat="43.59538" lon="6.79722">
        <ele>241.9</ele>
        <time>2025-01-10T10:27:20.000Z</time>
      </trkpt>
      <trkpt lat="43.5954" lon="6.7972">
        <ele>241.9</ele>
        <time>2025-01-10T10:27:19.000Z</time>
      </trkpt>
      <trkpt lat="43.59542" lon="6.79718">
        <ele>241.9</ele>
        <time>2025-01-10T10:27:18.000Z</time>
      </trkpt>
      <trkpt lat="43.59543" lon="6.79717">
        <ele>241.9</ele>
        <time>2025-01-10T10:27:17.000Z</time>
      </trkpt>
      <trkpt lat="43.59545" lon="6.79716">
        <ele>241.9</ele>
        <time>2025-01-10T10:27:16.000Z</time>
      </trkpt>
      <trkpt lat="43.59544" lon="6.79714">
        <ele>241.9</ele>
        <time>2025-01-10T10:27:15.000Z</time>
      </trkpt>
      <trkpt lat="43.59544" lon="6.79713">
        <ele>241.9</ele>
        <time>2025-01-10T10:27:14.000Z</time>
      </trkpt>
      <trkpt lat="43.59545" lon="6.79713">
        <ele>241.9</ele>
        <time>2025-01-10T10:27:13.000Z</time>
      </trkpt>
      <trkpt lat="43.59545" lon="6.79714">
        <ele>241.9</ele>
        <time>2025-01-10T10:27:12.000Z</time>
      </trkpt>
      <trkpt lat="43.59545" lon="6.79714">
        <ele>241.9</ele>
        <time>2025-01-10T10:27:11.000Z</time>
      </trkpt>
      <trkpt lat="43.59545" lon="6.79714">
        <ele>241.9</ele>
        <time>2025-01-10T10:27:10.000Z</time>
      </trkpt>
      <trkpt lat="43.59544" lon="6.79714">
        <ele>241.9</ele>
        <time>2025-01-10T10:27:09.000Z</time>
      </trkpt>
      <trkpt lat="43.59544" lon="6.79714">
        <ele>241.9</ele>
        <time>2025-01-10T10:27:08.000Z</time>
      </trkpt>
      <trkpt lat="43.59544" lon="6.79715">
        <ele>241.9</ele>
        <time>2025-01-10T10:27:07.000Z</time>
      </trkpt>
      <trkpt lat="43.59544" lon="6.79715">
        <ele>241.9</ele>
        <time>2025-01-10T10:27:06.000Z</time>
      </trkpt>
      <trkpt lat="43.59544" lon="6.79715">
        <ele>241.9</ele>
        <time>2025-01-10T10:27:05.000Z</time>
      </trkpt>
      <trkpt lat="43.59544" lon="6.79715">
        <ele>241.9</ele>
        <time>2025-01-10T10:27:04.000Z</time>
      </trkpt>
      <trkpt lat="43.59544" lon="6.79716">
        <ele>241.9</ele>
        <time>2025-01-10T10:27:03.000Z</time>
      </trkpt>
      <trkpt lat="43.59545" lon="6.79716">
        <ele>241.9</ele>
        <time>2025-01-10T10:27:02.000Z</time>
      </trkpt>
      <trkpt lat="43.59546" lon="6.79717">
        <ele>241.9</ele>
        <time>2025-01-10T10:27:01.000Z</time>
      </trkpt>
      <trkpt lat="43.59548" lon="6.79719">
        <ele>241.9</ele>
        <time>2025-01-10T10:27:00.000Z</time>
      </trkpt>
      <trkpt lat="43.5955" lon="6.79722">
        <ele>241.9</ele>
        <time>2025-01-10T10:26:59.000Z</time>
      </trkpt>
      <trkpt lat="43.59554" lon="6.79726">
        <ele>241.9</ele>
        <time>2025-01-10T10:26:58.000Z</time>
      </trkpt>
      <trkpt lat="43.59557" lon="6.79731">
        <ele>241.9</ele>
        <time>2025-01-10T10:26:57.000Z</time>
      </trkpt>
      <trkpt lat="43.59561" lon="6.79737">
        <ele>241.9</ele>
        <time>2025-01-10T10:26:56.000Z</time>
      </trkpt>
      <trkpt lat="43.59565" lon="6.79743">
        <ele>241.9</ele>
        <time>2025-01-10T10:26:55.000Z</time>
      </trkpt>
      <trkpt lat="43.5957" lon="6.79748">
        <ele>242</ele>
        <time>2025-01-10T10:26:54.000Z</time>
      </trkpt>
      <trkpt lat="43.59574" lon="6.79754">
        <ele>242</ele>
        <time>2025-01-10T10:26:53.000Z</time>
      </trkpt>
      <trkpt lat="43.59579" lon="6.79759">
        <ele>242.1</ele>
        <time>2025-01-10T10:26:52.000Z</time>
      </trkpt>
      <trkpt lat="43.59583" lon="6.79765">
        <ele>242.2</ele>
        <time>2025-01-10T10:26:51.000Z</time>
      </trkpt>
      <trkpt lat="43.59588" lon="6.79771">
        <ele>242.4</ele>
        <time>2025-01-10T10:26:50.000Z</time>
      </trkpt>
      <trkpt lat="43.59592" lon="6.79776">
        <ele>242.5</ele>
        <time>2025-01-10T10:26:49.000Z</time>
      </trkpt>
      <trkpt lat="43.59597" lon="6.79781">
        <ele>242.7</ele>
        <time>2025-01-10T10:26:48.000Z</time>
      </trkpt>
      <trkpt lat="43.59601" lon="6.79787">
        <ele>242.8</ele>
        <time>2025-01-10T10:26:47.000Z</time>
      </trkpt>
      <trkpt lat="43.59606" lon="6.79792">
        <ele>243</ele>
        <time>2025-01-10T10:26:46.000Z</time>
      </trkpt>
      <trkpt lat="43.5961" lon="6.79798">
        <ele>243.2</ele>
        <time>2025-01-10T10:26:45.000Z</time>
      </trkpt>
      <trkpt lat="43.59615" lon="6.79803">
        <ele>243.3</ele>
        <time>2025-01-10T10:26:44.000Z</time>
      </trkpt>
      <trkpt lat="43.59619" lon="6.79809">
        <ele>243.5</ele>
        <time>2025-01-10T10:26:43.000Z</time>
      </trkpt>
      <trkpt lat="43.59624" lon="6.79815">
        <ele>243.6</ele>
        <time>2025-01-10T10:26:42.000Z</time>
      </trkpt>
      <trkpt lat="43.59628" lon="6.79821">
        <ele>243.8</ele>
        <time>2025-01-10T10:26:41.000Z</time>
      </trkpt>
      <trkpt lat="43.59632" lon="6.79827">
        <ele>244</ele>
        <time>2025-01-10T10:26:40.000Z</time>
      </trkpt>
      <trkpt lat="43.59636" lon="6.79833">
        <ele>244.2</ele>
        <time>2025-01-10T10:26:39.000Z</time>
      </trkpt>
      <trkpt lat="43.5964" lon="6.79839">
        <ele>244.4</ele>
        <time>2025-01-10T10:26:38.000Z</time>
      </trkpt>
      <trkpt lat="43.59643" lon="6.79846">
        <ele>244.6</ele>
        <time>2025-01-10T10:26:37.000Z</time>
      </trkpt>
      <trkpt lat="43.59647" lon="6.79852">
        <ele>244.7</ele>
        <time>2025-01-10T10:26:36.000Z</time>
      </trkpt>
      <trkpt lat="43.5965" lon="6.79858">
        <ele>244.9</ele>
        <time>2025-01-10T10:26:35.000Z</time>
      </trkpt>
      <trkpt lat="43.59653" lon="6.79864">
        <ele>245.1</ele>
        <time>2025-01-10T10:26:34.000Z</time>
      </trkpt>
      <trkpt lat="43.59656" lon="6.79871">
        <ele>245.2</ele>
        <time>2025-01-10T10:26:33.000Z</time>
      </trkpt>
      <trkpt lat="43.59659" lon="6.79878">
        <ele>245.4</ele>
        <time>2025-01-10T10:26:32.000Z</time>
      </trkpt>
      <trkpt lat="43.59662" lon="6.79884">
        <ele>245.5</ele>
        <time>2025-01-10T10:26:31.000Z</time>
      </trkpt>
      <trkpt lat="43.59665" lon="6.7989">
        <ele>245.6</ele>
        <time>2025-01-10T10:26:30.000Z</time>
      </trkpt>
      <trkpt lat="43.59668" lon="6.79897">
        <ele>245.7</ele>
        <time>2025-01-10T10:26:29.000Z</time>
      </trkpt>
      <trkpt lat="43.59671" lon="6.79903">
        <ele>245.8</ele>
        <time>2025-01-10T10:26:28.000Z</time>
      </trkpt>
      <trkpt lat="43.59674" lon="6.79909">
        <ele>245.8</ele>
        <time>2025-01-10T10:26:27.000Z</time>
      </trkpt>
      <trkpt lat="43.59677" lon="6.79915">
        <ele>245.9</ele>
        <time>2025-01-10T10:26:26.000Z</time>
      </trkpt>
      <trkpt lat="43.59679" lon="6.79922">
        <ele>246</ele>
        <time>2025-01-10T10:26:25.000Z</time>
      </trkpt>
      <trkpt lat="43.59682" lon="6.79927">
        <ele>246.1</ele>
        <time>2025-01-10T10:26:24.000Z</time>
      </trkpt>
      <trkpt lat="43.59684" lon="6.79933">
        <ele>246.2</ele>
        <time>2025-01-10T10:26:23.000Z</time>
      </trkpt>
      <trkpt lat="43.59687" lon="6.79939">
        <ele>246.3</ele>
        <time>2025-01-10T10:26:22.000Z</time>
      </trkpt>
      <trkpt lat="43.59689" lon="6.79945">
        <ele>246.4</ele>
        <time>2025-01-10T10:26:21.000Z</time>
      </trkpt>
      <trkpt lat="43.59691" lon="6.7995">
        <ele>246.5</ele>
        <time>2025-01-10T10:26:20.000Z</time>
      </trkpt>
      <trkpt lat="43.59693" lon="6.79956">
        <ele>246.6</ele>
        <time>2025-01-10T10:26:19.000Z</time>
      </trkpt>
      <trkpt lat="43.59696" lon="6.79962">
        <ele>246.7</ele>
        <time>2025-01-10T10:26:18.000Z</time>
      </trkpt>
      <trkpt lat="43.59698" lon="6.79967">
        <ele>246.8</ele>
        <time>2025-01-10T10:26:17.000Z</time>
      </trkpt>
      <trkpt lat="43.597" lon="6.79973">
        <ele>246.8</ele>
        <time>2025-01-10T10:26:16.000Z</time>
      </trkpt>
      <trkpt lat="43.59702" lon="6.79979">
        <ele>246.9</ele>
        <time>2025-01-10T10:26:15.000Z</time>
      </trkpt>
      <trkpt lat="43.59704" lon="6.79984">
        <ele>247</ele>
        <time>2025-01-10T10:26:14.000Z</time>
      </trkpt>
      <trkpt lat="43.59707" lon="6.7999">
        <ele>247.1</ele>
        <time>2025-01-10T10:26:13.000Z</time>
      </trkpt>
      <trkpt lat="43.59709" lon="6.79996">
        <ele>247.2</ele>
        <time>2025-01-10T10:26:12.000Z</time>
      </trkpt>
      <trkpt lat="43.59712" lon="6.80002">
        <ele>247.3</ele>
        <time>2025-01-10T10:26:11.000Z</time>
      </trkpt>
      <trkpt lat="43.59715" lon="6.80007">
        <ele>247.4</ele>
        <time>2025-01-10T10:26:10.000Z</time>
      </trkpt>
      <trkpt lat="43.59717" lon="6.80013">
        <ele>247.4</ele>
        <time>2025-01-10T10:26:09.000Z</time>
      </trkpt>
      <trkpt lat="43.5972" lon="6.80018">
        <ele>247.5</ele>
        <time>2025-01-10T10:26:08.000Z</time>
      </trkpt>
      <trkpt lat="43.59723" lon="6.80023">
        <ele>247.6</ele>
        <time>2025-01-10T10:26:07.000Z</time>
      </trkpt>
      <trkpt lat="43.59725" lon="6.80028">
        <ele>247.7</ele>
        <time>2025-01-10T10:26:06.000Z</time>
      </trkpt>
      <trkpt lat="43.59728" lon="6.80034">
        <ele>247.7</ele>
        <time>2025-01-10T10:26:05.000Z</time>
      </trkpt>
      <trkpt lat="43.59731" lon="6.80039">
        <ele>247.8</ele>
        <time>2025-01-10T10:26:04.000Z</time>
      </trkpt>
      <trkpt lat="43.59734" lon="6.80044">
        <ele>247.8</ele>
        <time>2025-01-10T10:26:03.000Z</time>
      </trkpt>
      <trkpt lat="43.59737" lon="6.80049">
        <ele>247.9</ele>
        <time>2025-01-10T10:26:02.000Z</time>
      </trkpt>
      <trkpt lat="43.5974" lon="6.80053">
        <ele>247.9</ele>
        <time>2025-01-10T10:26:01.000Z</time>
      </trkpt>
      <trkpt lat="43.59743" lon="6.80058">
        <ele>248</ele>
        <time>2025-01-10T10:26:00.000Z</time>
      </trkpt>
      <trkpt lat="43.59746" lon="6.80063">
        <ele>248</ele>
        <time>2025-01-10T10:25:59.000Z</time>
      </trkpt>
      <trkpt lat="43.59749" lon="6.80067">
        <ele>248</ele>
        <time>2025-01-10T10:25:58.000Z</time>
      </trkpt>
      <trkpt lat="43.59753" lon="6.80071">
        <ele>248</ele>
        <time>2025-01-10T10:25:57.000Z</time>
      </trkpt>
      <trkpt lat="43.59756" lon="6.80075">
        <ele>248</ele>
        <time>2025-01-10T10:25:56.000Z</time>
      </trkpt>
      <trkpt lat="43.5976" lon="6.80079">
        <ele>248</ele>
        <time>2025-01-10T10:25:55.000Z</time>
      </trkpt>
      <trkpt lat="43.59764" lon="6.80083">
        <ele>248</ele>
        <time>2025-01-10T10:25:54.000Z</time>
      </trkpt>
      <trkpt lat="43.59768" lon="6.80086">
        <ele>247.9</ele>
        <time>2025-01-10T10:25:53.000Z</time>
      </trkpt>
      <trkpt lat="43.59772" lon="6.80089">
        <ele>247.9</ele>
        <time>2025-01-10T10:25:52.000Z</time>
      </trkpt>
      <trkpt lat="43.59775" lon="6.80092">
        <ele>247.9</ele>
        <time>2025-01-10T10:25:51.000Z</time>
      </trkpt>
      <trkpt lat="43.59779" lon="6.80095">
        <ele>247.8</ele>
        <time>2025-01-10T10:25:50.000Z</time>
      </trkpt>
      <trkpt lat="43.59783" lon="6.80098">
        <ele>247.7</ele>
        <time>2025-01-10T10:25:49.000Z</time>
      </trkpt>
      <trkpt lat="43.59787" lon="6.80101">
        <ele>247.7</ele>
        <time>2025-01-10T10:25:48.000Z</time>
      </trkpt>
      <trkpt lat="43.59791" lon="6.80104">
        <ele>247.6</ele>
        <time>2025-01-10T10:25:47.000Z</time>
      </trkpt>
      <trkpt lat="43.59794" lon="6.80107">
        <ele>247.6</ele>
        <time>2025-01-10T10:25:46.000Z</time>
      </trkpt>
      <trkpt lat="43.59797" lon="6.8011">
        <ele>247.5</ele>
        <time>2025-01-10T10:25:45.000Z</time>
      </trkpt>
      <trkpt lat="43.598" lon="6.80113">
        <ele>247.5</ele>
        <time>2025-01-10T10:25:44.000Z</time>
      </trkpt>
      <trkpt lat="43.59802" lon="6.80116">
        <ele>247.4</ele>
        <time>2025-01-10T10:25:43.000Z</time>
      </trkpt>
      <trkpt lat="43.59803" lon="6.80119">
        <ele>247.4</ele>
        <time>2025-01-10T10:25:42.000Z</time>
      </trkpt>
      <trkpt lat="43.59804" lon="6.80123">
        <ele>247.4</ele>
        <time>2025-01-10T10:25:41.000Z</time>
      </trkpt>
      <trkpt lat="43.59804" lon="6.80126">
        <ele>247.3</ele>
        <time>2025-01-10T10:25:40.000Z</time>
      </trkpt>
      <trkpt lat="43.59805" lon="6.80129">
        <ele>247.3</ele>
        <time>2025-01-10T10:25:39.000Z</time>
      </trkpt>
      <trkpt lat="43.59804" lon="6.80133">
        <ele>247.2</ele>
        <time>2025-01-10T10:25:38.000Z</time>
      </trkpt>
      <trkpt lat="43.59803" lon="6.80135">
        <ele>247</ele>
        <time>2025-01-10T10:25:37.000Z</time>
      </trkpt>
      <trkpt lat="43.59801" lon="6.80138">
        <ele>246.9</ele>
        <time>2025-01-10T10:25:36.000Z</time>
      </trkpt>
      <trkpt lat="43.59799" lon="6.80141">
        <ele>246.8</ele>
        <time>2025-01-10T10:25:35.000Z</time>
      </trkpt>
      <trkpt lat="43.59797" lon="6.80144">
        <ele>246.7</ele>
        <time>2025-01-10T10:25:34.000Z</time>
      </trkpt>
      <trkpt lat="43.59795" lon="6.80147">
        <ele>246.6</ele>
        <time>2025-01-10T10:25:33.000Z</time>
      </trkpt>
      <trkpt lat="43.59792" lon="6.8015">
        <ele>246.5</ele>
        <time>2025-01-10T10:25:32.000Z</time>
      </trkpt>
      <trkpt lat="43.5979" lon="6.80152">
        <ele>246.4</ele>
        <time>2025-01-10T10:25:31.000Z</time>
      </trkpt>
      <trkpt lat="43.59787" lon="6.80154">
        <ele>246.3</ele>
        <time>2025-01-10T10:25:30.000Z</time>
      </trkpt>
      <trkpt lat="43.59784" lon="6.80156">
        <ele>246.2</ele>
        <time>2025-01-10T10:25:29.000Z</time>
      </trkpt>
      <trkpt lat="43.59781" lon="6.80157">
        <ele>246.1</ele>
        <time>2025-01-10T10:25:28.000Z</time>
      </trkpt>
      <trkpt lat="43.59778" lon="6.80158">
        <ele>246</ele>
        <time>2025-01-10T10:25:27.000Z</time>
      </trkpt>
      <trkpt lat="43.59774" lon="6.80159">
        <ele>245.9</ele>
        <time>2025-01-10T10:25:26.000Z</time>
      </trkpt>
      <trkpt lat="43.59771" lon="6.8016">
        <ele>245.8</ele>
        <time>2025-01-10T10:25:25.000Z</time>
      </trkpt>
      <trkpt lat="43.59768" lon="6.80161">
        <ele>245.7</ele>
        <time>2025-01-10T10:25:24.000Z</time>
      </trkpt>
      <trkpt lat="43.59764" lon="6.80161">
        <ele>245.6</ele>
        <time>2025-01-10T10:25:23.000Z</time>
      </trkpt>
      <trkpt lat="43.59761" lon="6.80162">
        <ele>245.5</ele>
        <time>2025-01-10T10:25:22.000Z</time>
      </trkpt>
      <trkpt lat="43.59757" lon="6.80162">
        <ele>245.4</ele>
        <time>2025-01-10T10:25:21.000Z</time>
      </trkpt>
      <trkpt lat="43.59754" lon="6.80161">
        <ele>245.3</ele>
        <time>2025-01-10T10:25:20.000Z</time>
      </trkpt>
      <trkpt lat="43.5975" lon="6.80158">
        <ele>245.1</ele>
        <time>2025-01-10T10:25:19.000Z</time>
      </trkpt>
      <trkpt lat="43.59747" lon="6.80155">
        <ele>245</ele>
        <time>2025-01-10T10:25:18.000Z</time>
      </trkpt>
      <trkpt lat="43.59745" lon="6.8015">
        <ele>244.9</ele>
        <time>2025-01-10T10:25:17.000Z</time>
      </trkpt>
      <trkpt lat="43.59742" lon="6.80145">
        <ele>244.7</ele>
        <time>2025-01-10T10:25:16.000Z</time>
      </trkpt>
      <trkpt lat="43.59741" lon="6.80139">
        <ele>244.6</ele>
        <time>2025-01-10T10:25:15.000Z</time>
      </trkpt>
      <trkpt lat="43.5974" lon="6.80133">
        <ele>244.4</ele>
        <time>2025-01-10T10:25:14.000Z</time>
      </trkpt>
      <trkpt lat="43.59739" lon="6.80126">
        <ele>244.3</ele>
        <time>2025-01-10T10:25:13.000Z</time>
      </trkpt>
      <trkpt lat="43.59739" lon="6.8012">
        <ele>244.2</ele>
        <time>2025-01-10T10:25:12.000Z</time>
      </trkpt>
      <trkpt lat="43.59739" lon="6.80115">
        <ele>244</ele>
        <time>2025-01-10T10:25:11.000Z</time>
      </trkpt>
      <trkpt lat="43.59738" lon="6.8011">
        <ele>243.9</ele>
        <time>2025-01-10T10:25:10.000Z</time>
      </trkpt>
      <trkpt lat="43.59738" lon="6.80105">
        <ele>243.8</ele>
        <time>2025-01-10T10:25:09.000Z</time>
      </trkpt>
      <trkpt lat="43.59739" lon="6.801">
        <ele>243.7</ele>
        <time>2025-01-10T10:25:08.000Z</time>
      </trkpt>
      <trkpt lat="43.59739" lon="6.80096">
        <ele>243.6</ele>
        <time>2025-01-10T10:25:07.000Z</time>
      </trkpt>
      <trkpt lat="43.5974" lon="6.80093">
        <ele>243.5</ele>
        <time>2025-01-10T10:25:06.000Z</time>
      </trkpt>
      <trkpt lat="43.59742" lon="6.8009">
        <ele>243.4</ele>
        <time>2025-01-10T10:25:05.000Z</time>
      </trkpt>
      <trkpt lat="43.59743" lon="6.80088">
        <ele>243.4</ele>
        <time>2025-01-10T10:25:04.000Z</time>
      </trkpt>
      <trkpt lat="43.59745" lon="6.80088">
        <ele>243.3</ele>
        <time>2025-01-10T10:25:03.000Z</time>
      </trkpt>
      <trkpt lat="43.59746" lon="6.80089">
        <ele>243.3</ele>
        <time>2025-01-10T10:25:02.000Z</time>
      </trkpt>
      <trkpt lat="43.59747" lon="6.80091">
        <ele>243.2</ele>
        <time>2025-01-10T10:25:01.000Z</time>
      </trkpt>
      <trkpt lat="43.59746" lon="6.80092">
        <ele>243.2</ele>
        <time>2025-01-10T10:25:00.000Z</time>
      </trkpt>
      <trkpt lat="43.59744" lon="6.80093">
        <ele>243.1</ele>
        <time>2025-01-10T10:24:59.000Z</time>
      </trkpt>
      <trkpt lat="43.59742" lon="6.80093">
        <ele>243.1</ele>
        <time>2025-01-10T10:24:58.000Z</time>
      </trkpt>
      <trkpt lat="43.59741" lon="6.80094">
        <ele>243</ele>
        <time>2025-01-10T10:24:57.000Z</time>
      </trkpt>
      <trkpt lat="43.59739" lon="6.80095">
        <ele>243</ele>
        <time>2025-01-10T10:24:56.000Z</time>
      </trkpt>
      <trkpt lat="43.59738" lon="6.80098">
        <ele>242.9</ele>
        <time>2025-01-10T10:24:55.000Z</time>
      </trkpt>
      <trkpt lat="43.59737" lon="6.80101">
        <ele>242.8</ele>
        <time>2025-01-10T10:24:54.000Z</time>
      </trkpt>
      <trkpt lat="43.59737" lon="6.80104">
        <ele>242.7</ele>
        <time>2025-01-10T10:24:53.000Z</time>
      </trkpt>
      <trkpt lat="43.59736" lon="6.80107">
        <ele>242.7</ele>
        <time>2025-01-10T10:24:52.000Z</time>
      </trkpt>
      <trkpt lat="43.59736" lon="6.80111">
        <ele>242.6</ele>
        <time>2025-01-10T10:24:51.000Z</time>
      </trkpt>
      <trkpt lat="43.59737" lon="6.80115">
        <ele>242.5</ele>
        <time>2025-01-10T10:24:50.000Z</time>
      </trkpt>
      <trkpt lat="43.59737" lon="6.80119">
        <ele>242.4</ele>
        <time>2025-01-10T10:24:49.000Z</time>
      </trkpt>
      <trkpt lat="43.59737" lon="6.80124">
        <ele>242.3</ele>
        <time>2025-01-10T10:24:48.000Z</time>
      </trkpt>
      <trkpt lat="43.59738" lon="6.80128">
        <ele>242.2</ele>
        <time>2025-01-10T10:24:47.000Z</time>
      </trkpt>
      <trkpt lat="43.59738" lon="6.80132">
        <ele>242.1</ele>
        <time>2025-01-10T10:24:46.000Z</time>
      </trkpt>
      <trkpt lat="43.59739" lon="6.80136">
        <ele>242</ele>
        <time>2025-01-10T10:24:45.000Z</time>
      </trkpt>
      <trkpt lat="43.59739" lon="6.8014">
        <ele>241.9</ele>
        <time>2025-01-10T10:24:44.000Z</time>
      </trkpt>
      <trkpt lat="43.5974" lon="6.80144">
        <ele>241.8</ele>
        <time>2025-01-10T10:24:43.000Z</time>
      </trkpt>
      <trkpt lat="43.59742" lon="6.80148">
        <ele>241.7</ele>
        <time>2025-01-10T10:24:42.000Z</time>
      </trkpt>
      <trkpt lat="43.59744" lon="6.80151">
        <ele>241.6</ele>
        <time>2025-01-10T10:24:41.000Z</time>
      </trkpt>
      <trkpt lat="43.59746" lon="6.80154">
        <ele>241.7</ele>
        <time>2025-01-10T10:24:40.000Z</time>
      </trkpt>
      <trkpt lat="43.59748" lon="6.80156">
        <ele>242</ele>
        <time>2025-01-10T10:24:39.000Z</time>
      </trkpt>
      <trkpt lat="43.59751" lon="6.80158">
        <ele>242.2</ele>
        <time>2025-01-10T10:24:38.000Z</time>
      </trkpt>
      <trkpt lat="43.59755" lon="6.8016">
        <ele>242.5</ele>
        <time>2025-01-10T10:24:37.000Z</time>
      </trkpt>
      <trkpt lat="43.59758" lon="6.80161">
        <ele>242.8</ele>
        <time>2025-01-10T10:24:36.000Z</time>
      </trkpt>
      <trkpt lat="43.59761" lon="6.80161">
        <ele>243</ele>
        <time>2025-01-10T10:24:35.000Z</time>
      </trkpt>
      <trkpt lat="43.59764" lon="6.8016">
        <ele>243.3</ele>
        <time>2025-01-10T10:24:34.000Z</time>
      </trkpt>
      <trkpt lat="43.59767" lon="6.8016">
        <ele>243.5</ele>
        <time>2025-01-10T10:24:33.000Z</time>
      </trkpt>
      <trkpt lat="43.5977" lon="6.80159">
        <ele>243.8</ele>
        <time>2025-01-10T10:24:32.000Z</time>
      </trkpt>
      <trkpt lat="43.59774" lon="6.80157">
        <ele>244.1</ele>
        <time>2025-01-10T10:24:31.000Z</time>
      </trkpt>
      <trkpt lat="43.59778" lon="6.80155">
        <ele>244.5</ele>
        <time>2025-01-10T10:24:30.000Z</time>
      </trkpt>
      <trkpt lat="43.59783" lon="6.80153">
        <ele>244.8</ele>
        <time>2025-01-10T10:24:29.000Z</time>
      </trkpt>
      <trkpt lat="43.59787" lon="6.8015">
        <ele>245.2</ele>
        <time>2025-01-10T10:24:28.000Z</time>
      </trkpt>
      <trkpt lat="43.59791" lon="6.80147">
        <ele>245.6</ele>
        <time>2025-01-10T10:24:27.000Z</time>
      </trkpt>
      <trkpt lat="43.59794" lon="6.80144">
        <ele>245.9</ele>
        <time>2025-01-10T10:24:26.000Z</time>
      </trkpt>
      <trkpt lat="43.59797" lon="6.80141">
        <ele>246.2</ele>
        <time>2025-01-10T10:24:25.000Z</time>
      </trkpt>
      <trkpt lat="43.598" lon="6.80138">
        <ele>246.5</ele>
        <time>2025-01-10T10:24:24.000Z</time>
      </trkpt>
      <trkpt lat="43.59802" lon="6.80136">
        <ele>246.7</ele>
        <time>2025-01-10T10:24:23.000Z</time>
      </trkpt>
      <trkpt lat="43.59805" lon="6.80134">
        <ele>246.9</ele>
        <time>2025-01-10T10:24:22.000Z</time>
      </trkpt>
      <trkpt lat="43.59806" lon="6.80134">
        <ele>247</ele>
        <time>2025-01-10T10:24:21.000Z</time>
      </trkpt>
      <trkpt lat="43.59807" lon="6.80135">
        <ele>247.1</ele>
        <time>2025-01-10T10:24:20.000Z</time>
      </trkpt>
      <trkpt lat="43.59808" lon="6.80135">
        <ele>247.1</ele>
        <time>2025-01-10T10:24:19.000Z</time>
      </trkpt>
      <trkpt lat="43.59807" lon="6.80135">
        <ele>247.2</ele>
        <time>2025-01-10T10:24:18.000Z</time>
      </trkpt>
      <trkpt lat="43.59807" lon="6.80135">
        <ele>247.2</ele>
        <time>2025-01-10T10:24:17.000Z</time>
      </trkpt>
      <trkpt lat="43.59807" lon="6.80136">
        <ele>247.2</ele>
        <time>2025-01-10T10:24:16.000Z</time>
      </trkpt>
      <trkpt lat="43.59807" lon="6.80136">
        <ele>247.2</ele>
        <time>2025-01-10T10:24:15.000Z</time>
      </trkpt>
      <trkpt lat="43.59807" lon="6.80136">
        <ele>247.2</ele>
        <time>2025-01-10T10:24:14.000Z</time>
      </trkpt>
      <trkpt lat="43.59807" lon="6.80136">
        <ele>247.2</ele>
        <time>2025-01-10T10:24:13.000Z</time>
      </trkpt>
      <trkpt lat="43.59807" lon="6.80136">
        <ele>247.2</ele>
        <time>2025-01-10T10:24:12.000Z</time>
      </trkpt>
      <trkpt lat="43.59807" lon="6.80136">
        <ele>247.2</ele>
        <time>2025-01-10T10:24:11.000Z</time>
      </trkpt>
      <trkpt lat="43.59806" lon="6.80136">
        <ele>247.2</ele>
        <time>2025-01-10T10:24:10.000Z</time>
      </trkpt>
      <trkpt lat="43.59806" lon="6.80136">
        <ele>247.2</ele>
        <time>2025-01-10T10:24:09.000Z</time>
      </trkpt>
      <trkpt lat="43.59807" lon="6.80137">
        <ele>247.2</ele>
        <time>2025-01-10T10:24:08.000Z</time>
      </trkpt>
      <trkpt lat="43.59807" lon="6.80138">
        <ele>247.2</ele>
        <time>2025-01-10T10:24:07.000Z</time>
      </trkpt>
      <trkpt lat="43.59808" lon="6.80139">
        <ele>247.1</ele>
        <time>2025-01-10T10:24:06.000Z</time>
      </trkpt>
      <trkpt lat="43.59809" lon="6.80142">
        <ele>247</ele>
        <time>2025-01-10T10:24:05.000Z</time>
      </trkpt>
      <trkpt lat="43.59811" lon="6.80145">
        <ele>246.9</ele>
        <time>2025-01-10T10:24:04.000Z</time>
      </trkpt>
      <trkpt lat="43.59813" lon="6.80149">
        <ele>246.8</ele>
        <time>2025-01-10T10:24:03.000Z</time>
      </trkpt>
      <trkpt lat="43.59815" lon="6.80152">
        <ele>246.6</ele>
        <time>2025-01-10T10:24:02.000Z</time>
      </trkpt>
      <trkpt lat="43.59818" lon="6.80156">
        <ele>246.5</ele>
        <time>2025-01-10T10:24:01.000Z</time>
      </trkpt>
      <trkpt lat="43.5982" lon="6.80159">
        <ele>246.3</ele>
        <time>2025-01-10T10:24:00.000Z</time>
      </trkpt>
      <trkpt lat="43.59823" lon="6.80162">
        <ele>246.2</ele>
        <time>2025-01-10T10:23:59.000Z</time>
      </trkpt>
      <trkpt lat="43.59826" lon="6.80166">
        <ele>246</ele>
        <time>2025-01-10T10:23:58.000Z</time>
      </trkpt>
      <trkpt lat="43.59829" lon="6.8017">
        <ele>245.8</ele>
        <time>2025-01-10T10:23:57.000Z</time>
      </trkpt>
      <trkpt lat="43.59832" lon="6.80174">
        <ele>245.6</ele>
        <time>2025-01-10T10:23:56.000Z</time>
      </trkpt>
      <trkpt lat="43.59836" lon="6.80178">
        <ele>245.4</ele>
        <time>2025-01-10T10:23:55.000Z</time>
      </trkpt>
      <trkpt lat="43.59839" lon="6.80182">
        <ele>245.2</ele>
        <time>2025-01-10T10:23:54.000Z</time>
      </trkpt>
      <trkpt lat="43.59842" lon="6.80187">
        <ele>245.1</ele>
        <time>2025-01-10T10:23:53.000Z</time>
      </trkpt>
      <trkpt lat="43.59845" lon="6.80191">
        <ele>244.9</ele>
        <time>2025-01-10T10:23:52.000Z</time>
      </trkpt>
      <trkpt lat="43.59848" lon="6.80196">
        <ele>244.7</ele>
        <time>2025-01-10T10:23:51.000Z</time>
      </trkpt>
      <trkpt lat="43.59851" lon="6.802">
        <ele>244.6</ele>
        <time>2025-01-10T10:23:50.000Z</time>
      </trkpt>
      <trkpt lat="43.59854" lon="6.80204">
        <ele>244.5</ele>
        <time>2025-01-10T10:23:49.000Z</time>
      </trkpt>
      <trkpt lat="43.59857" lon="6.80209">
        <ele>244.3</ele>
        <time>2025-01-10T10:23:48.000Z</time>
      </trkpt>
      <trkpt lat="43.5986" lon="6.80213">
        <ele>244.2</ele>
        <time>2025-01-10T10:23:47.000Z</time>
      </trkpt>
      <trkpt lat="43.59863" lon="6.80218">
        <ele>244</ele>
        <time>2025-01-10T10:23:46.000Z</time>
      </trkpt>
      <trkpt lat="43.59866" lon="6.80223">
        <ele>243.9</ele>
        <time>2025-01-10T10:23:45.000Z</time>
      </trkpt>
      <trkpt lat="43.59869" lon="6.80227">
        <ele>243.7</ele>
        <time>2025-01-10T10:23:44.000Z</time>
      </trkpt>
      <trkpt lat="43.59872" lon="6.80232">
        <ele>243.5</ele>
        <time>2025-01-10T10:23:43.000Z</time>
      </trkpt>
      <trkpt lat="43.59874" lon="6.80237">
        <ele>243.4</ele>
        <time>2025-01-10T10:23:42.000Z</time>
      </trkpt>
      <trkpt lat="43.59878" lon="6.80241">
        <ele>243.2</ele>
        <time>2025-01-10T10:23:41.000Z</time>
      </trkpt>
      <trkpt lat="43.59881" lon="6.80246">
        <ele>243</ele>
        <time>2025-01-10T10:23:40.000Z</time>
      </trkpt>
      <trkpt lat="43.59884" lon="6.8025">
        <ele>242.9</ele>
        <time>2025-01-10T10:23:39.000Z</time>
      </trkpt>
      <trkpt lat="43.59886" lon="6.80255">
        <ele>242.7</ele>
        <time>2025-01-10T10:23:38.000Z</time>
      </trkpt>
      <trkpt lat="43.59889" lon="6.80259">
        <ele>242.6</ele>
        <time>2025-01-10T10:23:37.000Z</time>
      </trkpt>
      <trkpt lat="43.59892" lon="6.80264">
        <ele>242.5</ele>
        <time>2025-01-10T10:23:36.000Z</time>
      </trkpt>
      <trkpt lat="43.59895" lon="6.80269">
        <ele>242.3</ele>
        <time>2025-01-10T10:23:35.000Z</time>
      </trkpt>
      <trkpt lat="43.59898" lon="6.80274">
        <ele>242.2</ele>
        <time>2025-01-10T10:23:34.000Z</time>
      </trkpt>
      <trkpt lat="43.599" lon="6.80278">
        <ele>242.1</ele>
        <time>2025-01-10T10:23:33.000Z</time>
      </trkpt>
      <trkpt lat="43.59903" lon="6.80283">
        <ele>241.9</ele>
        <time>2025-01-10T10:23:32.000Z</time>
      </trkpt>
      <trkpt lat="43.59906" lon="6.80288">
        <ele>241.8</ele>
        <time>2025-01-10T10:23:31.000Z</time>
      </trkpt>
      <trkpt lat="43.59908" lon="6.80293">
        <ele>241.6</ele>
        <time>2025-01-10T10:23:30.000Z</time>
      </trkpt>
      <trkpt lat="43.59912" lon="6.80298">
        <ele>241.5</ele>
        <time>2025-01-10T10:23:29.000Z</time>
      </trkpt>
      <trkpt lat="43.59915" lon="6.80303">
        <ele>241.3</ele>
        <time>2025-01-10T10:23:28.000Z</time>
      </trkpt>
      <trkpt lat="43.59918" lon="6.80307">
        <ele>241.2</ele>
        <time>2025-01-10T10:23:27.000Z</time>
      </trkpt>
      <trkpt lat="43.59921" lon="6.80312">
        <ele>241.1</ele>
        <time>2025-01-10T10:23:26.000Z</time>
      </trkpt>
      <trkpt lat="43.59923" lon="6.80317">
        <ele>240.9</ele>
        <time>2025-01-10T10:23:25.000Z</time>
      </trkpt>
      <trkpt lat="43.59926" lon="6.80321">
        <ele>240.8</ele>
        <time>2025-01-10T10:23:24.000Z</time>
      </trkpt>
      <trkpt lat="43.59928" lon="6.80324">
        <ele>240.7</ele>
        <time>2025-01-10T10:23:23.000Z</time>
      </trkpt>
      <trkpt lat="43.59931" lon="6.80328">
        <ele>240.6</ele>
        <time>2025-01-10T10:23:22.000Z</time>
      </trkpt>
      <trkpt lat="43.59933" lon="6.80331">
        <ele>240.5</ele>
        <time>2025-01-10T10:23:21.000Z</time>
      </trkpt>
      <trkpt lat="43.59933" lon="6.80332">
        <ele>240.5</ele>
        <time>2025-01-10T10:23:20.000Z</time>
      </trkpt>
      <trkpt lat="43.59933" lon="6.80332">
        <ele>240.5</ele>
        <time>2025-01-10T10:23:19.000Z</time>
      </trkpt>
      <trkpt lat="43.59933" lon="6.80332">
        <ele>240.5</ele>
        <time>2025-01-10T10:23:18.000Z</time>
      </trkpt>
      <trkpt lat="43.59933" lon="6.80332">
        <ele>240.5</ele>
        <time>2025-01-10T10:23:17.000Z</time>
      </trkpt>
      <trkpt lat="43.59933" lon="6.80332">
        <ele>240.5</ele>
        <time>2025-01-10T10:23:16.000Z</time>
      </trkpt>
      <trkpt lat="43.59933" lon="6.80332">
        <ele>240.5</ele>
        <time>2025-01-10T10:23:15.000Z</time>
      </trkpt>
      <trkpt lat="43.59933" lon="6.80333">
        <ele>240.5</ele>
        <time>2025-01-10T10:23:14.000Z</time>
      </trkpt>
      <trkpt lat="43.59933" lon="6.80333">
        <ele>240.5</ele>
        <time>2025-01-10T10:23:13.000Z</time>
      </trkpt>
      <trkpt lat="43.59933" lon="6.80333">
        <ele>240.5</ele>
        <time>2025-01-10T10:23:12.000Z</time>
      </trkpt>
      <trkpt lat="43.59933" lon="6.80333">
        <ele>240.4</ele>
        <time>2025-01-10T10:23:11.000Z</time>
      </trkpt>
      <trkpt lat="43.59933" lon="6.80333">
        <ele>240.4</ele>
        <time>2025-01-10T10:23:10.000Z</time>
      </trkpt>
      <trkpt lat="43.59933" lon="6.80333">
        <ele>240.4</ele>
        <time>2025-01-10T10:23:09.000Z</time>
      </trkpt>
      <trkpt lat="43.59933" lon="6.80333">
        <ele>240.4</ele>
        <time>2025-01-10T10:23:08.000Z</time>
      </trkpt>
      <trkpt lat="43.59933" lon="6.80333">
        <ele>240.4</ele>
        <time>2025-01-10T10:23:07.000Z</time>
      </trkpt>
      <trkpt lat="43.59933" lon="6.80333">
        <ele>240.4</ele>
        <time>2025-01-10T10:23:06.000Z</time>
      </trkpt>
      <trkpt lat="43.59933" lon="6.80333">
        <ele>240.4</ele>
        <time>2025-01-10T10:23:05.000Z</time>
      </trkpt>
      <trkpt lat="43.59933" lon="6.80333">
        <ele>240.4</ele>
        <time>2025-01-10T10:23:04.000Z</time>
      </trkpt>
      <trkpt lat="43.59933" lon="6.80333">
        <ele>240.4</ele>
        <time>2025-01-10T10:23:03.000Z</time>
      </trkpt>
      <trkpt lat="43.59933" lon="6.80333">
        <ele>240.4</ele>
        <time>2025-01-10T10:23:02.000Z</time>
      </trkpt>
      <trkpt lat="43.59933" lon="6.80333">
        <ele>240.4</ele>
        <time>2025-01-10T10:23:01.000Z</time>
      </trkpt>
      <trkpt lat="43.59933" lon="6.80333">
        <ele>240.4</ele>
        <time>2025-01-10T10:23:00.000Z</time>
      </trkpt>
      <trkpt lat="43.59933" lon="6.80333">
        <ele>240.4</ele>
        <time>2025-01-10T10:22:59.000Z</time>
      </trkpt>
      <trkpt lat="43.59933" lon="6.80333">
        <ele>240.4</ele>
        <time>2025-01-10T10:22:58.000Z</time>
      </trkpt>
      <trkpt lat="43.59933" lon="6.80333">
        <ele>240.4</ele>
        <time>2025-01-10T10:22:57.000Z</time>
      </trkpt>
      <trkpt lat="43.59934" lon="6.80333">
        <ele>240.4</ele>
        <time>2025-01-10T10:22:56.000Z</time>
      </trkpt>
      <trkpt lat="43.59934" lon="6.80333">
        <ele>240.4</ele>
        <time>2025-01-10T10:22:55.000Z</time>
      </trkpt>
      <trkpt lat="43.59934" lon="6.80333">
        <ele>240.4</ele>
        <time>2025-01-10T10:22:54.000Z</time>
      </trkpt>
      <trkpt lat="43.59934" lon="6.80332">
        <ele>240.4</ele>
        <time>2025-01-10T10:22:53.000Z</time>
      </trkpt>
      <trkpt lat="43.59934" lon="6.80332">
        <ele>240.4</ele>
        <time>2025-01-10T10:22:52.000Z</time>
      </trkpt>
      <trkpt lat="43.59934" lon="6.80332">
        <ele>240.4</ele>
        <time>2025-01-10T10:22:51.000Z</time>
      </trkpt>
      <trkpt lat="43.59934" lon="6.80332">
        <ele>240.4</ele>
        <time>2025-01-10T10:22:50.000Z</time>
      </trkpt>
      <trkpt lat="43.59934" lon="6.80332">
        <ele>240.4</ele>
        <time>2025-01-10T10:22:49.000Z</time>
      </trkpt>
      <trkpt lat="43.59934" lon="6.80332">
        <ele>240.4</ele>
        <time>2025-01-10T10:22:48.000Z</time>
      </trkpt>
      <trkpt lat="43.59934" lon="6.80331">
        <ele>240.3</ele>
        <time>2025-01-10T10:22:47.000Z</time>
      </trkpt>
      <trkpt lat="43.59934" lon="6.80331">
        <ele>240.3</ele>
        <time>2025-01-10T10:22:46.000Z</time>
      </trkpt>
      <trkpt lat="43.59935" lon="6.80331">
        <ele>240.3</ele>
        <time>2025-01-10T10:22:45.000Z</time>
      </trkpt>
      <trkpt lat="43.59934" lon="6.80332">
        <ele>240.3</ele>
        <time>2025-01-10T10:22:44.000Z</time>
      </trkpt>
      <trkpt lat="43.59935" lon="6.80332">
        <ele>240.3</ele>
        <time>2025-01-10T10:22:43.000Z</time>
      </trkpt>
      <trkpt lat="43.59935" lon="6.80331">
        <ele>240.3</ele>
        <time>2025-01-10T10:22:42.000Z</time>
      </trkpt>
      <trkpt lat="43.59935" lon="6.80331">
        <ele>240.3</ele>
        <time>2025-01-10T10:22:41.000Z</time>
      </trkpt>
      <trkpt lat="43.59936" lon="6.80332">
        <ele>240.3</ele>
        <time>2025-01-10T10:22:40.000Z</time>
      </trkpt>
      <trkpt lat="43.59937" lon="6.80333">
        <ele>240.2</ele>
        <time>2025-01-10T10:22:39.000Z</time>
      </trkpt>
      <trkpt lat="43.59938" lon="6.80335">
        <ele>240.2</ele>
        <time>2025-01-10T10:22:38.000Z</time>
      </trkpt>
      <trkpt lat="43.5994" lon="6.80338">
        <ele>240.1</ele>
        <time>2025-01-10T10:22:37.000Z</time>
      </trkpt>
      <trkpt lat="43.59942" lon="6.80341">
        <ele>240</ele>
        <time>2025-01-10T10:22:36.000Z</time>
      </trkpt>
      <trkpt lat="43.59944" lon="6.80345">
        <ele>239.9</ele>
        <time>2025-01-10T10:22:35.000Z</time>
      </trkpt>
      <trkpt lat="43.59946" lon="6.80349">
        <ele>239.7</ele>
        <time>2025-01-10T10:22:34.000Z</time>
      </trkpt>
      <trkpt lat="43.59949" lon="6.80354">
        <ele>239.6</ele>
        <time>2025-01-10T10:22:33.000Z</time>
      </trkpt>
      <trkpt lat="43.59952" lon="6.80358">
        <ele>239.5</ele>
        <time>2025-01-10T10:22:32.000Z</time>
      </trkpt>
      <trkpt lat="43.59954" lon="6.80362">
        <ele>239.3</ele>
        <time>2025-01-10T10:22:31.000Z</time>
      </trkpt>
      <trkpt lat="43.59957" lon="6.80366">
        <ele>239.2</ele>
        <time>2025-01-10T10:22:30.000Z</time>
      </trkpt>
      <trkpt lat="43.5996" lon="6.8037">
        <ele>239</ele>
        <time>2025-01-10T10:22:29.000Z</time>
      </trkpt>
      <trkpt lat="43.59963" lon="6.80375">
        <ele>238.9</ele>
        <time>2025-01-10T10:22:28.000Z</time>
      </trkpt>
      <trkpt lat="43.59966" lon="6.80379">
        <ele>238.8</ele>
        <time>2025-01-10T10:22:27.000Z</time>
      </trkpt>
      <trkpt lat="43.59968" lon="6.80384">
        <ele>238.6</ele>
        <time>2025-01-10T10:22:26.000Z</time>
      </trkpt>
      <trkpt lat="43.59971" lon="6.80389">
        <ele>238.5</ele>
        <time>2025-01-10T10:22:25.000Z</time>
      </trkpt>
      <trkpt lat="43.59974" lon="6.80393">
        <ele>238.3</ele>
        <time>2025-01-10T10:22:24.000Z</time>
      </trkpt>
      <trkpt lat="43.59977" lon="6.80398">
        <ele>238.2</ele>
        <time>2025-01-10T10:22:23.000Z</time>
      </trkpt>
      <trkpt lat="43.59981" lon="6.80402">
        <ele>238.1</ele>
        <time>2025-01-10T10:22:22.000Z</time>
      </trkpt>
      <trkpt lat="43.59984" lon="6.80407">
        <ele>237.9</ele>
        <time>2025-01-10T10:22:21.000Z</time>
      </trkpt>
      <trkpt lat="43.59987" lon="6.80412">
        <ele>237.8</ele>
        <time>2025-01-10T10:22:20.000Z</time>
      </trkpt>
      <trkpt lat="43.59989" lon="6.80418">
        <ele>237.7</ele>
        <time>2025-01-10T10:22:19.000Z</time>
      </trkpt>
      <trkpt lat="43.59992" lon="6.80422">
        <ele>237.5</ele>
        <time>2025-01-10T10:22:18.000Z</time>
      </trkpt>
      <trkpt lat="43.59996" lon="6.80427">
        <ele>237.4</ele>
        <time>2025-01-10T10:22:17.000Z</time>
      </trkpt>
      <trkpt lat="43.59999" lon="6.80432">
        <ele>237.3</ele>
        <time>2025-01-10T10:22:16.000Z</time>
      </trkpt>
      <trkpt lat="43.60002" lon="6.80436">
        <ele>237.1</ele>
        <time>2025-01-10T10:22:15.000Z</time>
      </trkpt>
      <trkpt lat="43.60005" lon="6.8044">
        <ele>237</ele>
        <time>2025-01-10T10:22:14.000Z</time>
      </trkpt>
      <trkpt lat="43.60008" lon="6.80445">
        <ele>236.8</ele>
        <time>2025-01-10T10:22:13.000Z</time>
      </trkpt>
      <trkpt lat="43.60011" lon="6.80449">
        <ele>236.7</ele>
        <time>2025-01-10T10:22:12.000Z</time>
      </trkpt>
      <trkpt lat="43.60014" lon="6.80453">
        <ele>236.5</ele>
        <time>2025-01-10T10:22:11.000Z</time>
      </trkpt>
      <trkpt lat="43.60017" lon="6.80458">
        <ele>236.4</ele>
        <time>2025-01-10T10:22:10.000Z</time>
      </trkpt>
      <trkpt lat="43.60019" lon="6.80463">
        <ele>236.2</ele>
        <time>2025-01-10T10:22:09.000Z</time>
      </trkpt>
      <trkpt lat="43.60022" lon="6.80468">
        <ele>236.1</ele>
        <time>2025-01-10T10:22:08.000Z</time>
      </trkpt>
      <trkpt lat="43.60024" lon="6.80473">
        <ele>235.9</ele>
        <time>2025-01-10T10:22:07.000Z</time>
      </trkpt>
      <trkpt lat="43.60027" lon="6.80478">
        <ele>235.8</ele>
        <time>2025-01-10T10:22:06.000Z</time>
      </trkpt>
      <trkpt lat="43.6003" lon="6.80482">
        <ele>235.7</ele>
        <time>2025-01-10T10:22:05.000Z</time>
      </trkpt>
      <trkpt lat="43.60033" lon="6.80486">
        <ele>235.5</ele>
        <time>2025-01-10T10:22:04.000Z</time>
      </trkpt>
      <trkpt lat="43.60036" lon="6.8049">
        <ele>235.4</ele>
        <time>2025-01-10T10:22:03.000Z</time>
      </trkpt>
      <trkpt lat="43.60039" lon="6.80494">
        <ele>235.3</ele>
        <time>2025-01-10T10:22:02.000Z</time>
      </trkpt>
      <trkpt lat="43.60042" lon="6.80499">
        <ele>235.3</ele>
        <time>2025-01-10T10:22:01.000Z</time>
      </trkpt>
      <trkpt lat="43.60045" lon="6.80503">
        <ele>235.2</ele>
        <time>2025-01-10T10:22:00.000Z</time>
      </trkpt>
      <trkpt lat="43.60048" lon="6.80507">
        <ele>235.1</ele>
        <time>2025-01-10T10:21:59.000Z</time>
      </trkpt>
      <trkpt lat="43.6005" lon="6.80512">
        <ele>235</ele>
        <time>2025-01-10T10:21:58.000Z</time>
      </trkpt>
      <trkpt lat="43.60053" lon="6.80517">
        <ele>234.9</ele>
        <time>2025-01-10T10:21:57.000Z</time>
      </trkpt>
      <trkpt lat="43.60056" lon="6.80521">
        <ele>234.8</ele>
        <time>2025-01-10T10:21:56.000Z</time>
      </trkpt>
      <trkpt lat="43.60059" lon="6.80525">
        <ele>234.7</ele>
        <time>2025-01-10T10:21:55.000Z</time>
      </trkpt>
      <trkpt lat="43.60062" lon="6.80529">
        <ele>234.7</ele>
        <time>2025-01-10T10:21:54.000Z</time>
      </trkpt>
      <trkpt lat="43.60065" lon="6.80533">
        <ele>234.6</ele>
        <time>2025-01-10T10:21:53.000Z</time>
      </trkpt>
      <trkpt lat="43.60067" lon="6.80537">
        <ele>234.5</ele>
        <time>2025-01-10T10:21:52.000Z</time>
      </trkpt>
      <trkpt lat="43.6007" lon="6.80541">
        <ele>234.4</ele>
        <time>2025-01-10T10:21:51.000Z</time>
      </trkpt>
      <trkpt lat="43.60073" lon="6.80545">
        <ele>234.3</ele>
        <time>2025-01-10T10:21:50.000Z</time>
      </trkpt>
      <trkpt lat="43.60075" lon="6.80548">
        <ele>234.3</ele>
        <time>2025-01-10T10:21:49.000Z</time>
      </trkpt>
      <trkpt lat="43.60077" lon="6.80551">
        <ele>234.2</ele>
        <time>2025-01-10T10:21:48.000Z</time>
      </trkpt>
      <trkpt lat="43.60079" lon="6.80554">
        <ele>234.1</ele>
        <time>2025-01-10T10:21:47.000Z</time>
      </trkpt>
      <trkpt lat="43.60081" lon="6.80557">
        <ele>234.1</ele>
        <time>2025-01-10T10:21:46.000Z</time>
      </trkpt>
      <trkpt lat="43.60083" lon="6.8056">
        <ele>234</ele>
        <time>2025-01-10T10:21:45.000Z</time>
      </trkpt>
      <trkpt lat="43.60085" lon="6.80564">
        <ele>233.8</ele>
        <time>2025-01-10T10:21:44.000Z</time>
      </trkpt>
      <trkpt lat="43.60088" lon="6.80568">
        <ele>233.7</ele>
        <time>2025-01-10T10:21:43.000Z</time>
      </trkpt>
      <trkpt lat="43.6009" lon="6.80571">
        <ele>233.5</ele>
        <time>2025-01-10T10:21:42.000Z</time>
      </trkpt>
      <trkpt lat="43.60093" lon="6.80575">
        <ele>233.4</ele>
        <time>2025-01-10T10:21:41.000Z</time>
      </trkpt>
      <trkpt lat="43.60096" lon="6.80579">
        <ele>233.2</ele>
        <time>2025-01-10T10:21:40.000Z</time>
      </trkpt>
      <trkpt lat="43.60099" lon="6.80583">
        <ele>233</ele>
        <time>2025-01-10T10:21:39.000Z</time>
      </trkpt>
      <trkpt lat="43.60102" lon="6.80586">
        <ele>232.9</ele>
        <time>2025-01-10T10:21:38.000Z</time>
      </trkpt>
      <trkpt lat="43.60105" lon="6.8059">
        <ele>232.8</ele>
        <time>2025-01-10T10:21:37.000Z</time>
      </trkpt>
      <trkpt lat="43.60108" lon="6.80593">
        <ele>232.6</ele>
        <time>2025-01-10T10:21:36.000Z</time>
      </trkpt>
      <trkpt lat="43.60111" lon="6.80596">
        <ele>232.5</ele>
        <time>2025-01-10T10:21:35.000Z</time>
      </trkpt>
      <trkpt lat="43.60114" lon="6.80599">
        <ele>232.4</ele>
        <time>2025-01-10T10:21:34.000Z</time>
      </trkpt>
      <trkpt lat="43.60117" lon="6.80602">
        <ele>232.3</ele>
        <time>2025-01-10T10:21:33.000Z</time>
      </trkpt>
      <trkpt lat="43.6012" lon="6.80605">
        <ele>232.2</ele>
        <time>2025-01-10T10:21:32.000Z</time>
      </trkpt>
      <trkpt lat="43.60123" lon="6.80607">
        <ele>232.1</ele>
        <time>2025-01-10T10:21:31.000Z</time>
      </trkpt>
      <trkpt lat="43.60126" lon="6.8061">
        <ele>232</ele>
        <time>2025-01-10T10:21:30.000Z</time>
      </trkpt>
      <trkpt lat="43.6013" lon="6.80613">
        <ele>231.9</ele>
        <time>2025-01-10T10:21:29.000Z</time>
      </trkpt>
      <trkpt lat="43.60133" lon="6.80615">
        <ele>231.8</ele>
        <time>2025-01-10T10:21:28.000Z</time>
      </trkpt>
      <trkpt lat="43.60136" lon="6.80618">
        <ele>231.6</ele>
        <time>2025-01-10T10:21:27.000Z</time>
      </trkpt>
      <trkpt lat="43.60139" lon="6.80621">
        <ele>231.5</ele>
        <time>2025-01-10T10:21:26.000Z</time>
      </trkpt>
      <trkpt lat="43.60142" lon="6.80624">
        <ele>231.4</ele>
        <time>2025-01-10T10:21:25.000Z</time>
      </trkpt>
      <trkpt lat="43.60146" lon="6.80627">
        <ele>231.3</ele>
        <time>2025-01-10T10:21:24.000Z</time>
      </trkpt>
      <trkpt lat="43.60149" lon="6.8063">
        <ele>231.2</ele>
        <time>2025-01-10T10:21:23.000Z</time>
      </trkpt>
      <trkpt lat="43.60152" lon="6.80632">
        <ele>231.1</ele>
        <time>2025-01-10T10:21:22.000Z</time>
      </trkpt>
      <trkpt lat="43.60155" lon="6.80635">
        <ele>230.9</ele>
        <time>2025-01-10T10:21:21.000Z</time>
      </trkpt>
      <trkpt lat="43.60158" lon="6.80638">
        <ele>230.8</ele>
        <time>2025-01-10T10:21:20.000Z</time>
      </trkpt>
      <trkpt lat="43.60162" lon="6.8064">
        <ele>230.7</ele>
        <time>2025-01-10T10:21:19.000Z</time>
      </trkpt>
      <trkpt lat="43.60165" lon="6.80643">
        <ele>230.5</ele>
        <time>2025-01-10T10:21:18.000Z</time>
      </trkpt>
      <trkpt lat="43.60168" lon="6.80646">
        <ele>230.4</ele>
        <time>2025-01-10T10:21:17.000Z</time>
      </trkpt>
      <trkpt lat="43.60171" lon="6.80649">
        <ele>230.3</ele>
        <time>2025-01-10T10:21:16.000Z</time>
      </trkpt>
      <trkpt lat="43.60175" lon="6.80652">
        <ele>230.1</ele>
        <time>2025-01-10T10:21:15.000Z</time>
      </trkpt>
      <trkpt lat="43.60178" lon="6.80654">
        <ele>230</ele>
        <time>2025-01-10T10:21:14.000Z</time>
      </trkpt>
      <trkpt lat="43.60181" lon="6.80657">
        <ele>229.9</ele>
        <time>2025-01-10T10:21:13.000Z</time>
      </trkpt>
      <trkpt lat="43.60185" lon="6.80659">
        <ele>229.8</ele>
        <time>2025-01-10T10:21:12.000Z</time>
      </trkpt>
      <trkpt lat="43.60188" lon="6.80662">
        <ele>229.6</ele>
        <time>2025-01-10T10:21:11.000Z</time>
      </trkpt>
      <trkpt lat="43.60192" lon="6.80664">
        <ele>229.5</ele>
        <time>2025-01-10T10:21:10.000Z</time>
      </trkpt>
      <trkpt lat="43.60195" lon="6.80667">
        <ele>229.3</ele>
        <time>2025-01-10T10:21:09.000Z</time>
      </trkpt>
      <trkpt lat="43.60198" lon="6.80669">
        <ele>229.2</ele>
        <time>2025-01-10T10:21:08.000Z</time>
      </trkpt>
      <trkpt lat="43.60202" lon="6.80672">
        <ele>229.1</ele>
        <time>2025-01-10T10:21:07.000Z</time>
      </trkpt>
      <trkpt lat="43.60205" lon="6.80676">
        <ele>228.9</ele>
        <time>2025-01-10T10:21:06.000Z</time>
      </trkpt>
      <trkpt lat="43.60208" lon="6.80679">
        <ele>228.7</ele>
        <time>2025-01-10T10:21:05.000Z</time>
      </trkpt>
      <trkpt lat="43.60212" lon="6.80683">
        <ele>228.5</ele>
        <time>2025-01-10T10:21:04.000Z</time>
      </trkpt>
      <trkpt lat="43.60215" lon="6.80686">
        <ele>228.4</ele>
        <time>2025-01-10T10:21:03.000Z</time>
      </trkpt>
      <trkpt lat="43.60219" lon="6.80689">
        <ele>228.2</ele>
        <time>2025-01-10T10:21:02.000Z</time>
      </trkpt>
      <trkpt lat="43.60222" lon="6.80693">
        <ele>228.1</ele>
        <time>2025-01-10T10:21:01.000Z</time>
      </trkpt>
      <trkpt lat="43.60226" lon="6.80696">
        <ele>228</ele>
        <time>2025-01-10T10:21:00.000Z</time>
      </trkpt>
      <trkpt lat="43.6023" lon="6.80698">
        <ele>227.9</ele>
        <time>2025-01-10T10:20:59.000Z</time>
      </trkpt>
      <trkpt lat="43.60233" lon="6.80701">
        <ele>227.8</ele>
        <time>2025-01-10T10:20:58.000Z</time>
      </trkpt>
      <trkpt lat="43.60237" lon="6.80704">
        <ele>227.7</ele>
        <time>2025-01-10T10:20:57.000Z</time>
      </trkpt>
      <trkpt lat="43.60241" lon="6.80707">
        <ele>227.6</ele>
        <time>2025-01-10T10:20:56.000Z</time>
      </trkpt>
      <trkpt lat="43.60244" lon="6.80711">
        <ele>227.5</ele>
        <time>2025-01-10T10:20:55.000Z</time>
      </trkpt>
      <trkpt lat="43.60248" lon="6.80714">
        <ele>227.4</ele>
        <time>2025-01-10T10:20:54.000Z</time>
      </trkpt>
      <trkpt lat="43.60251" lon="6.80717">
        <ele>227.3</ele>
        <time>2025-01-10T10:20:53.000Z</time>
      </trkpt>
      <trkpt lat="43.60255" lon="6.8072">
        <ele>227.2</ele>
        <time>2025-01-10T10:20:52.000Z</time>
      </trkpt>
      <trkpt lat="43.60258" lon="6.80722">
        <ele>227.1</ele>
        <time>2025-01-10T10:20:51.000Z</time>
      </trkpt>
      <trkpt lat="43.60262" lon="6.80725">
        <ele>227</ele>
        <time>2025-01-10T10:20:50.000Z</time>
      </trkpt>
      <trkpt lat="43.60265" lon="6.80727">
        <ele>226.9</ele>
        <time>2025-01-10T10:20:49.000Z</time>
      </trkpt>
      <trkpt lat="43.60269" lon="6.8073">
        <ele>226.8</ele>
        <time>2025-01-10T10:20:48.000Z</time>
      </trkpt>
      <trkpt lat="43.60273" lon="6.80733">
        <ele>226.6</ele>
        <time>2025-01-10T10:20:47.000Z</time>
      </trkpt>
      <trkpt lat="43.60277" lon="6.80736">
        <ele>226.5</ele>
        <time>2025-01-10T10:20:46.000Z</time>
      </trkpt>
      <trkpt lat="43.6028" lon="6.80739">
        <ele>226.4</ele>
        <time>2025-01-10T10:20:45.000Z</time>
      </trkpt>
      <trkpt lat="43.60284" lon="6.80742">
        <ele>226.3</ele>
        <time>2025-01-10T10:20:44.000Z</time>
      </trkpt>
      <trkpt lat="43.60288" lon="6.80745">
        <ele>226.1</ele>
        <time>2025-01-10T10:20:43.000Z</time>
      </trkpt>
      <trkpt lat="43.60291" lon="6.80749">
        <ele>225.9</ele>
        <time>2025-01-10T10:20:42.000Z</time>
      </trkpt>
      <trkpt lat="43.60295" lon="6.80751">
        <ele>225.8</ele>
        <time>2025-01-10T10:20:41.000Z</time>
      </trkpt>
      <trkpt lat="43.60299" lon="6.80754">
        <ele>225.6</ele>
        <time>2025-01-10T10:20:40.000Z</time>
      </trkpt>
      <trkpt lat="43.60302" lon="6.80756">
        <ele>225.5</ele>
        <time>2025-01-10T10:20:39.000Z</time>
      </trkpt>
      <trkpt lat="43.60306" lon="6.80758">
        <ele>225.4</ele>
        <time>2025-01-10T10:20:38.000Z</time>
      </trkpt>
      <trkpt lat="43.60309" lon="6.80761">
        <ele>225.2</ele>
        <time>2025-01-10T10:20:37.000Z</time>
      </trkpt>
      <trkpt lat="43.60313" lon="6.80764">
        <ele>225.1</ele>
        <time>2025-01-10T10:20:36.000Z</time>
      </trkpt>
      <trkpt lat="43.60316" lon="6.80768">
        <ele>224.9</ele>
        <time>2025-01-10T10:20:35.000Z</time>
      </trkpt>
      <trkpt lat="43.6032" lon="6.80771">
        <ele>224.8</ele>
        <time>2025-01-10T10:20:34.000Z</time>
      </trkpt>
      <trkpt lat="43.60323" lon="6.80774">
        <ele>224.7</ele>
        <time>2025-01-10T10:20:33.000Z</time>
      </trkpt>
      <trkpt lat="43.60326" lon="6.80777">
        <ele>224.6</ele>
        <time>2025-01-10T10:20:32.000Z</time>
      </trkpt>
      <trkpt lat="43.6033" lon="6.8078">
        <ele>224.5</ele>
        <time>2025-01-10T10:20:31.000Z</time>
      </trkpt>
      <trkpt lat="43.60334" lon="6.80783">
        <ele>224.3</ele>
        <time>2025-01-10T10:20:30.000Z</time>
      </trkpt>
      <trkpt lat="43.60337" lon="6.80786">
        <ele>224.2</ele>
        <time>2025-01-10T10:20:29.000Z</time>
      </trkpt>
      <trkpt lat="43.60341" lon="6.80789">
        <ele>224.1</ele>
        <time>2025-01-10T10:20:28.000Z</time>
      </trkpt>
      <trkpt lat="43.60344" lon="6.80791">
        <ele>224</ele>
        <time>2025-01-10T10:20:27.000Z</time>
      </trkpt>
      <trkpt lat="43.60348" lon="6.80793">
        <ele>223.9</ele>
        <time>2025-01-10T10:20:26.000Z</time>
      </trkpt>
      <trkpt lat="43.60352" lon="6.80795">
        <ele>223.8</ele>
        <time>2025-01-10T10:20:25.000Z</time>
      </trkpt>
      <trkpt lat="43.60356" lon="6.80797">
        <ele>223.7</ele>
        <time>2025-01-10T10:20:24.000Z</time>
      </trkpt>
      <trkpt lat="43.6036" lon="6.80799">
        <ele>223.5</ele>
        <time>2025-01-10T10:20:23.000Z</time>
      </trkpt>
      <trkpt lat="43.60364" lon="6.80801">
        <ele>223.4</ele>
        <time>2025-01-10T10:20:22.000Z</time>
      </trkpt>
      <trkpt lat="43.60368" lon="6.80803">
        <ele>223.3</ele>
        <time>2025-01-10T10:20:21.000Z</time>
      </trkpt>
      <trkpt lat="43.60372" lon="6.80804">
        <ele>223.1</ele>
        <time>2025-01-10T10:20:20.000Z</time>
      </trkpt>
      <trkpt lat="43.60376" lon="6.80806">
        <ele>223</ele>
        <time>2025-01-10T10:20:19.000Z</time>
      </trkpt>
      <trkpt lat="43.60379" lon="6.80807">
        <ele>222.9</ele>
        <time>2025-01-10T10:20:18.000Z</time>
      </trkpt>
      <trkpt lat="43.60383" lon="6.80809">
        <ele>222.9</ele>
        <time>2025-01-10T10:20:17.000Z</time>
      </trkpt>
      <trkpt lat="43.60387" lon="6.80811">
        <ele>222.8</ele>
        <time>2025-01-10T10:20:16.000Z</time>
      </trkpt>
      <trkpt lat="43.60391" lon="6.80812">
        <ele>222.7</ele>
        <time>2025-01-10T10:20:15.000Z</time>
      </trkpt>
      <trkpt lat="43.60394" lon="6.80814">
        <ele>222.6</ele>
        <time>2025-01-10T10:20:14.000Z</time>
      </trkpt>
      <trkpt lat="43.60398" lon="6.80815">
        <ele>222.5</ele>
        <time>2025-01-10T10:20:13.000Z</time>
      </trkpt>
      <trkpt lat="43.60402" lon="6.80816">
        <ele>222.4</ele>
        <time>2025-01-10T10:20:12.000Z</time>
      </trkpt>
      <trkpt lat="43.60405" lon="6.80816">
        <ele>222.3</ele>
        <time>2025-01-10T10:20:11.000Z</time>
      </trkpt>
      <trkpt lat="43.60409" lon="6.80817">
        <ele>222.2</ele>
        <time>2025-01-10T10:20:10.000Z</time>
      </trkpt>
      <trkpt lat="43.60413" lon="6.80818">
        <ele>222.1</ele>
        <time>2025-01-10T10:20:09.000Z</time>
      </trkpt>
      <trkpt lat="43.60417" lon="6.80819">
        <ele>221.9</ele>
        <time>2025-01-10T10:20:08.000Z</time>
      </trkpt>
      <trkpt lat="43.60421" lon="6.80821">
        <ele>221.8</ele>
        <time>2025-01-10T10:20:07.000Z</time>
      </trkpt>
      <trkpt lat="43.60425" lon="6.80821">
        <ele>221.6</ele>
        <time>2025-01-10T10:20:06.000Z</time>
      </trkpt>
      <trkpt lat="43.60429" lon="6.80822">
        <ele>221.5</ele>
        <time>2025-01-10T10:20:05.000Z</time>
      </trkpt>
      <trkpt lat="43.60433" lon="6.80823">
        <ele>221.3</ele>
        <time>2025-01-10T10:20:04.000Z</time>
      </trkpt>
      <trkpt lat="43.60437" lon="6.80823">
        <ele>221.2</ele>
        <time>2025-01-10T10:20:03.000Z</time>
      </trkpt>
      <trkpt lat="43.60441" lon="6.80824">
        <ele>221</ele>
        <time>2025-01-10T10:20:02.000Z</time>
      </trkpt>
      <trkpt lat="43.60445" lon="6.80824">
        <ele>220.9</ele>
        <time>2025-01-10T10:20:01.000Z</time>
      </trkpt>
      <trkpt lat="43.60449" lon="6.80825">
        <ele>220.8</ele>
        <time>2025-01-10T10:20:00.000Z</time>
      </trkpt>
      <trkpt lat="43.60454" lon="6.80827">
        <ele>220.6</ele>
        <time>2025-01-10T10:19:59.000Z</time>
      </trkpt>
      <trkpt lat="43.60458" lon="6.80828">
        <ele>220.5</ele>
        <time>2025-01-10T10:19:58.000Z</time>
      </trkpt>
      <trkpt lat="43.60462" lon="6.80829">
        <ele>220.3</ele>
        <time>2025-01-10T10:19:57.000Z</time>
      </trkpt>
      <trkpt lat="43.60467" lon="6.8083">
        <ele>220.1</ele>
        <time>2025-01-10T10:19:56.000Z</time>
      </trkpt>
      <trkpt lat="43.60471" lon="6.80832">
        <ele>220</ele>
        <time>2025-01-10T10:19:55.000Z</time>
      </trkpt>
      <trkpt lat="43.60475" lon="6.80834">
        <ele>219.8</ele>
        <time>2025-01-10T10:19:54.000Z</time>
      </trkpt>
      <trkpt lat="43.60479" lon="6.80836">
        <ele>219.7</ele>
        <time>2025-01-10T10:19:53.000Z</time>
      </trkpt>
      <trkpt lat="43.60483" lon="6.80838">
        <ele>219.5</ele>
        <time>2025-01-10T10:19:52.000Z</time>
      </trkpt>
      <trkpt lat="43.60488" lon="6.80839">
        <ele>219.4</ele>
        <time>2025-01-10T10:19:51.000Z</time>
      </trkpt>
      <trkpt lat="43.60492" lon="6.80841">
        <ele>219.2</ele>
        <time>2025-01-10T10:19:50.000Z</time>
      </trkpt>
      <trkpt lat="43.60496" lon="6.80843">
        <ele>219.1</ele>
        <time>2025-01-10T10:19:49.000Z</time>
      </trkpt>
      <trkpt lat="43.60499" lon="6.80845">
        <ele>218.9</ele>
        <time>2025-01-10T10:19:48.000Z</time>
      </trkpt>
      <trkpt lat="43.60503" lon="6.80848">
        <ele>218.8</ele>
        <time>2025-01-10T10:19:47.000Z</time>
      </trkpt>
      <trkpt lat="43.60507" lon="6.80851">
        <ele>218.7</ele>
        <time>2025-01-10T10:19:46.000Z</time>
      </trkpt>
      <trkpt lat="43.6051" lon="6.80854">
        <ele>218.5</ele>
        <time>2025-01-10T10:19:45.000Z</time>
      </trkpt>
      <trkpt lat="43.60514" lon="6.80858">
        <ele>218.4</ele>
        <time>2025-01-10T10:19:44.000Z</time>
      </trkpt>
      <trkpt lat="43.60517" lon="6.80862">
        <ele>218.3</ele>
        <time>2025-01-10T10:19:43.000Z</time>
      </trkpt>
      <trkpt lat="43.6052" lon="6.80865">
        <ele>218.2</ele>
        <time>2025-01-10T10:19:42.000Z</time>
      </trkpt>
      <trkpt lat="43.60524" lon="6.80869">
        <ele>218.1</ele>
        <time>2025-01-10T10:19:41.000Z</time>
      </trkpt>
      <trkpt lat="43.60527" lon="6.80872">
        <ele>218</ele>
        <time>2025-01-10T10:19:40.000Z</time>
      </trkpt>
      <trkpt lat="43.60531" lon="6.80876">
        <ele>217.8</ele>
        <time>2025-01-10T10:19:39.000Z</time>
      </trkpt>
      <trkpt lat="43.60534" lon="6.8088">
        <ele>217.7</ele>
        <time>2025-01-10T10:19:38.000Z</time>
      </trkpt>
      <trkpt lat="43.60537" lon="6.80884">
        <ele>217.6</ele>
        <time>2025-01-10T10:19:37.000Z</time>
      </trkpt>
      <trkpt lat="43.6054" lon="6.80888">
        <ele>217.5</ele>
        <time>2025-01-10T10:19:36.000Z</time>
      </trkpt>
      <trkpt lat="43.60543" lon="6.80892">
        <ele>217.4</ele>
        <time>2025-01-10T10:19:35.000Z</time>
      </trkpt>
      <trkpt lat="43.60545" lon="6.80896">
        <ele>217.3</ele>
        <time>2025-01-10T10:19:34.000Z</time>
      </trkpt>
      <trkpt lat="43.60549" lon="6.80901">
        <ele>217.2</ele>
        <time>2025-01-10T10:19:33.000Z</time>
      </trkpt>
      <trkpt lat="43.60551" lon="6.80905">
        <ele>217.1</ele>
        <time>2025-01-10T10:19:32.000Z</time>
      </trkpt>
      <trkpt lat="43.60554" lon="6.8091">
        <ele>217</ele>
        <time>2025-01-10T10:19:31.000Z</time>
      </trkpt>
      <trkpt lat="43.60556" lon="6.80914">
        <ele>216.9</ele>
        <time>2025-01-10T10:19:30.000Z</time>
      </trkpt>
      <trkpt lat="43.60559" lon="6.80919">
        <ele>216.7</ele>
        <time>2025-01-10T10:19:29.000Z</time>
      </trkpt>
      <trkpt lat="43.60561" lon="6.80924">
        <ele>216.6</ele>
        <time>2025-01-10T10:19:28.000Z</time>
      </trkpt>
      <trkpt lat="43.60564" lon="6.80928">
        <ele>216.5</ele>
        <time>2025-01-10T10:19:27.000Z</time>
      </trkpt>
      <trkpt lat="43.60566" lon="6.80932">
        <ele>216.3</ele>
        <time>2025-01-10T10:19:26.000Z</time>
      </trkpt>
      <trkpt lat="43.60569" lon="6.80936">
        <ele>216.2</ele>
        <time>2025-01-10T10:19:25.000Z</time>
      </trkpt>
      <trkpt lat="43.60572" lon="6.8094">
        <ele>216.1</ele>
        <time>2025-01-10T10:19:24.000Z</time>
      </trkpt>
      <trkpt lat="43.60575" lon="6.80944">
        <ele>216</ele>
        <time>2025-01-10T10:19:23.000Z</time>
      </trkpt>
      <trkpt lat="43.60577" lon="6.80947">
        <ele>215.8</ele>
        <time>2025-01-10T10:19:22.000Z</time>
      </trkpt>
      <trkpt lat="43.6058" lon="6.80952">
        <ele>215.7</ele>
        <time>2025-01-10T10:19:21.000Z</time>
      </trkpt>
      <trkpt lat="43.60582" lon="6.80957">
        <ele>215.6</ele>
        <time>2025-01-10T10:19:20.000Z</time>
      </trkpt>
      <trkpt lat="43.60584" lon="6.80961">
        <ele>215.5</ele>
        <time>2025-01-10T10:19:19.000Z</time>
      </trkpt>
      <trkpt lat="43.60586" lon="6.80966">
        <ele>215.4</ele>
        <time>2025-01-10T10:19:18.000Z</time>
      </trkpt>
      <trkpt lat="43.60588" lon="6.80971">
        <ele>215.2</ele>
        <time>2025-01-10T10:19:17.000Z</time>
      </trkpt>
      <trkpt lat="43.6059" lon="6.80975">
        <ele>215.1</ele>
        <time>2025-01-10T10:19:16.000Z</time>
      </trkpt>
      <trkpt lat="43.60593" lon="6.80979">
        <ele>215</ele>
        <time>2025-01-10T10:19:15.000Z</time>
      </trkpt>
      <trkpt lat="43.60595" lon="6.80983">
        <ele>214.9</ele>
        <time>2025-01-10T10:19:14.000Z</time>
      </trkpt>
      <trkpt lat="43.60598" lon="6.80987">
        <ele>214.8</ele>
        <time>2025-01-10T10:19:13.000Z</time>
      </trkpt>
      <trkpt lat="43.606" lon="6.80991">
        <ele>214.7</ele>
        <time>2025-01-10T10:19:12.000Z</time>
      </trkpt>
      <trkpt lat="43.60603" lon="6.80995">
        <ele>214.6</ele>
        <time>2025-01-10T10:19:11.000Z</time>
      </trkpt>
      <trkpt lat="43.60605" lon="6.80999">
        <ele>214.5</ele>
        <time>2025-01-10T10:19:10.000Z</time>
      </trkpt>
      <trkpt lat="43.60608" lon="6.81002">
        <ele>214.4</ele>
        <time>2025-01-10T10:19:09.000Z</time>
      </trkpt>
      <trkpt lat="43.6061" lon="6.81006">
        <ele>214.3</ele>
        <time>2025-01-10T10:19:08.000Z</time>
      </trkpt>
      <trkpt lat="43.60613" lon="6.8101">
        <ele>214.3</ele>
        <time>2025-01-10T10:19:07.000Z</time>
      </trkpt>
      <trkpt lat="43.60616" lon="6.81013">
        <ele>214.2</ele>
        <time>2025-01-10T10:19:06.000Z</time>
      </trkpt>
      <trkpt lat="43.60619" lon="6.81017">
        <ele>214.1</ele>
        <time>2025-01-10T10:19:05.000Z</time>
      </trkpt>
      <trkpt lat="43.60621" lon="6.81019">
        <ele>214.1</ele>
        <time>2025-01-10T10:19:04.000Z</time>
      </trkpt>
      <trkpt lat="43.60624" lon="6.81022">
        <ele>214</ele>
        <time>2025-01-10T10:19:03.000Z</time>
      </trkpt>
      <trkpt lat="43.60626" lon="6.81025">
        <ele>213.9</ele>
        <time>2025-01-10T10:19:02.000Z</time>
      </trkpt>
      <trkpt lat="43.60628" lon="6.81028">
        <ele>213.9</ele>
        <time>2025-01-10T10:19:01.000Z</time>
      </trkpt>
      <trkpt lat="43.60631" lon="6.8103">
        <ele>213.8</ele>
        <time>2025-01-10T10:19:00.000Z</time>
      </trkpt>
      <trkpt lat="43.60633" lon="6.81033">
        <ele>213.7</ele>
        <time>2025-01-10T10:18:59.000Z</time>
      </trkpt>
      <trkpt lat="43.60636" lon="6.81035">
        <ele>213.7</ele>
        <time>2025-01-10T10:18:58.000Z</time>
      </trkpt>
      <trkpt lat="43.60639" lon="6.81037">
        <ele>213.6</ele>
        <time>2025-01-10T10:18:57.000Z</time>
      </trkpt>
      <trkpt lat="43.60642" lon="6.8104">
        <ele>213.4</ele>
        <time>2025-01-10T10:18:56.000Z</time>
      </trkpt>
      <trkpt lat="43.60645" lon="6.81043">
        <ele>213.3</ele>
        <time>2025-01-10T10:18:55.000Z</time>
      </trkpt>
      <trkpt lat="43.60648" lon="6.81046">
        <ele>213.2</ele>
        <time>2025-01-10T10:18:54.000Z</time>
      </trkpt>
      <trkpt lat="43.60652" lon="6.81048">
        <ele>213.1</ele>
        <time>2025-01-10T10:18:53.000Z</time>
      </trkpt>
      <trkpt lat="43.60655" lon="6.8105">
        <ele>213</ele>
        <time>2025-01-10T10:18:52.000Z</time>
      </trkpt>
      <trkpt lat="43.60659" lon="6.81052">
        <ele>212.9</ele>
        <time>2025-01-10T10:18:51.000Z</time>
      </trkpt>
      <trkpt lat="43.60663" lon="6.81054">
        <ele>212.8</ele>
        <time>2025-01-10T10:18:50.000Z</time>
      </trkpt>
      <trkpt lat="43.60667" lon="6.81056">
        <ele>212.6</ele>
        <time>2025-01-10T10:18:49.000Z</time>
      </trkpt>
      <trkpt lat="43.6067" lon="6.81059">
        <ele>212.5</ele>
        <time>2025-01-10T10:18:48.000Z</time>
      </trkpt>
      <trkpt lat="43.60674" lon="6.81061">
        <ele>212.4</ele>
        <time>2025-01-10T10:18:47.000Z</time>
      </trkpt>
      <trkpt lat="43.60677" lon="6.81063">
        <ele>212.3</ele>
        <time>2025-01-10T10:18:46.000Z</time>
      </trkpt>
      <trkpt lat="43.60681" lon="6.81064">
        <ele>212.1</ele>
        <time>2025-01-10T10:18:45.000Z</time>
      </trkpt>
      <trkpt lat="43.60685" lon="6.81066">
        <ele>212</ele>
        <time>2025-01-10T10:18:44.000Z</time>
      </trkpt>
      <trkpt lat="43.60688" lon="6.81067">
        <ele>211.9</ele>
        <time>2025-01-10T10:18:43.000Z</time>
      </trkpt>
      <trkpt lat="43.60692" lon="6.81068">
        <ele>211.8</ele>
        <time>2025-01-10T10:18:42.000Z</time>
      </trkpt>
      <trkpt lat="43.60696" lon="6.81069">
        <ele>211.7</ele>
        <time>2025-01-10T10:18:41.000Z</time>
      </trkpt>
      <trkpt lat="43.607" lon="6.81071">
        <ele>211.5</ele>
        <time>2025-01-10T10:18:40.000Z</time>
      </trkpt>
      <trkpt lat="43.60704" lon="6.81073">
        <ele>211.4</ele>
        <time>2025-01-10T10:18:39.000Z</time>
      </trkpt>
      <trkpt lat="43.60708" lon="6.81075">
        <ele>211.3</ele>
        <time>2025-01-10T10:18:38.000Z</time>
      </trkpt>
      <trkpt lat="43.60712" lon="6.81076">
        <ele>211.1</ele>
        <time>2025-01-10T10:18:37.000Z</time>
      </trkpt>
      <trkpt lat="43.60716" lon="6.81077">
        <ele>211</ele>
        <time>2025-01-10T10:18:36.000Z</time>
      </trkpt>
      <trkpt lat="43.6072" lon="6.81078">
        <ele>210.8</ele>
        <time>2025-01-10T10:18:35.000Z</time>
      </trkpt>
      <trkpt lat="43.60724" lon="6.81078">
        <ele>210.7</ele>
        <time>2025-01-10T10:18:34.000Z</time>
      </trkpt>
      <trkpt lat="43.60727" lon="6.81079">
        <ele>210.6</ele>
        <time>2025-01-10T10:18:33.000Z</time>
      </trkpt>
      <trkpt lat="43.60731" lon="6.81081">
        <ele>210.4</ele>
        <time>2025-01-10T10:18:32.000Z</time>
      </trkpt>
      <trkpt lat="43.60735" lon="6.81081">
        <ele>210.3</ele>
        <time>2025-01-10T10:18:31.000Z</time>
      </trkpt>
      <trkpt lat="43.60739" lon="6.81082">
        <ele>210.1</ele>
        <time>2025-01-10T10:18:30.000Z</time>
      </trkpt>
      <trkpt lat="43.60742" lon="6.81083">
        <ele>210</ele>
        <time>2025-01-10T10:18:29.000Z</time>
      </trkpt>
      <trkpt lat="43.60746" lon="6.81083">
        <ele>209.8</ele>
        <time>2025-01-10T10:18:28.000Z</time>
      </trkpt>
      <trkpt lat="43.6075" lon="6.81084">
        <ele>209.7</ele>
        <time>2025-01-10T10:18:27.000Z</time>
      </trkpt>
      <trkpt lat="43.60754" lon="6.81085">
        <ele>209.5</ele>
        <time>2025-01-10T10:18:26.000Z</time>
      </trkpt>
      <trkpt lat="43.60758" lon="6.81086">
        <ele>209.4</ele>
        <time>2025-01-10T10:18:25.000Z</time>
      </trkpt>
      <trkpt lat="43.60762" lon="6.81088">
        <ele>209.2</ele>
        <time>2025-01-10T10:18:24.000Z</time>
      </trkpt>
      <trkpt lat="43.60766" lon="6.81089">
        <ele>209.1</ele>
        <time>2025-01-10T10:18:23.000Z</time>
      </trkpt>
      <trkpt lat="43.60769" lon="6.81091">
        <ele>208.9</ele>
        <time>2025-01-10T10:18:22.000Z</time>
      </trkpt>
      <trkpt lat="43.60773" lon="6.81092">
        <ele>208.8</ele>
        <time>2025-01-10T10:18:21.000Z</time>
      </trkpt>
      <trkpt lat="43.60777" lon="6.81094">
        <ele>208.6</ele>
        <time>2025-01-10T10:18:20.000Z</time>
      </trkpt>
      <trkpt lat="43.6078" lon="6.81096">
        <ele>208.5</ele>
        <time>2025-01-10T10:18:19.000Z</time>
      </trkpt>
      <trkpt lat="43.60784" lon="6.81097">
        <ele>208.3</ele>
        <time>2025-01-10T10:18:18.000Z</time>
      </trkpt>
      <trkpt lat="43.60788" lon="6.811">
        <ele>208.2</ele>
        <time>2025-01-10T10:18:17.000Z</time>
      </trkpt>
      <trkpt lat="43.60791" lon="6.81102">
        <ele>208</ele>
        <time>2025-01-10T10:18:16.000Z</time>
      </trkpt>
      <trkpt lat="43.60795" lon="6.81104">
        <ele>207.9</ele>
        <time>2025-01-10T10:18:15.000Z</time>
      </trkpt>
      <trkpt lat="43.60798" lon="6.81106">
        <ele>207.7</ele>
        <time>2025-01-10T10:18:14.000Z</time>
      </trkpt>
      <trkpt lat="43.60802" lon="6.81108">
        <ele>207.5</ele>
        <time>2025-01-10T10:18:13.000Z</time>
      </trkpt>
      <trkpt lat="43.60805" lon="6.81111">
        <ele>207.3</ele>
        <time>2025-01-10T10:18:12.000Z</time>
      </trkpt>
      <trkpt lat="43.60808" lon="6.81114">
        <ele>207.2</ele>
        <time>2025-01-10T10:18:11.000Z</time>
      </trkpt>
      <trkpt lat="43.60811" lon="6.81117">
        <ele>207</ele>
        <time>2025-01-10T10:18:10.000Z</time>
      </trkpt>
      <trkpt lat="43.60815" lon="6.8112">
        <ele>206.8</ele>
        <time>2025-01-10T10:18:09.000Z</time>
      </trkpt>
      <trkpt lat="43.60818" lon="6.81123">
        <ele>206.6</ele>
        <time>2025-01-10T10:18:08.000Z</time>
      </trkpt>
      <trkpt lat="43.60821" lon="6.81126">
        <ele>206.4</ele>
        <time>2025-01-10T10:18:07.000Z</time>
      </trkpt>
      <trkpt lat="43.60824" lon="6.81129">
        <ele>206.2</ele>
        <time>2025-01-10T10:18:06.000Z</time>
      </trkpt>
      <trkpt lat="43.60828" lon="6.81132">
        <ele>206</ele>
        <time>2025-01-10T10:18:05.000Z</time>
      </trkpt>
      <trkpt lat="43.60831" lon="6.81136">
        <ele>205.8</ele>
        <time>2025-01-10T10:18:04.000Z</time>
      </trkpt>
      <trkpt lat="43.60834" lon="6.81138">
        <ele>205.6</ele>
        <time>2025-01-10T10:18:03.000Z</time>
      </trkpt>
      <trkpt lat="43.60837" lon="6.81142">
        <ele>205.5</ele>
        <time>2025-01-10T10:18:02.000Z</time>
      </trkpt>
      <trkpt lat="43.6084" lon="6.81145">
        <ele>205.3</ele>
        <time>2025-01-10T10:18:01.000Z</time>
      </trkpt>
      <trkpt lat="43.60843" lon="6.81148">
        <ele>205.2</ele>
        <time>2025-01-10T10:18:00.000Z</time>
      </trkpt>
      <trkpt lat="43.60845" lon="6.81152">
        <ele>205.1</ele>
        <time>2025-01-10T10:17:59.000Z</time>
      </trkpt>
      <trkpt lat="43.60849" lon="6.81155">
        <ele>205</ele>
        <time>2025-01-10T10:17:58.000Z</time>
      </trkpt>
      <trkpt lat="43.60852" lon="6.81159">
        <ele>204.9</ele>
        <time>2025-01-10T10:17:57.000Z</time>
      </trkpt>
      <trkpt lat="43.60855" lon="6.81164">
        <ele>204.8</ele>
        <time>2025-01-10T10:17:56.000Z</time>
      </trkpt>
      <trkpt lat="43.60857" lon="6.81168">
        <ele>204.7</ele>
        <time>2025-01-10T10:17:55.000Z</time>
      </trkpt>
      <trkpt lat="43.6086" lon="6.81172">
        <ele>204.7</ele>
        <time>2025-01-10T10:17:54.000Z</time>
      </trkpt>
      <trkpt lat="43.60863" lon="6.81177">
        <ele>204.6</ele>
        <time>2025-01-10T10:17:53.000Z</time>
      </trkpt>
      <trkpt lat="43.60865" lon="6.81181">
        <ele>204.6</ele>
        <time>2025-01-10T10:17:52.000Z</time>
      </trkpt>
      <trkpt lat="43.60868" lon="6.81186">
        <ele>204.5</ele>
        <time>2025-01-10T10:17:51.000Z</time>
      </trkpt>
      <trkpt lat="43.6087" lon="6.8119">
        <ele>204.5</ele>
        <time>2025-01-10T10:17:50.000Z</time>
      </trkpt>
      <trkpt lat="43.60873" lon="6.81195">
        <ele>204.4</ele>
        <time>2025-01-10T10:17:49.000Z</time>
      </trkpt>
      <trkpt lat="43.60875" lon="6.812">
        <ele>204.4</ele>
        <time>2025-01-10T10:17:48.000Z</time>
      </trkpt>
      <trkpt lat="43.60877" lon="6.81205">
        <ele>204.3</ele>
        <time>2025-01-10T10:17:47.000Z</time>
      </trkpt>
      <trkpt lat="43.60879" lon="6.8121">
        <ele>204.2</ele>
        <time>2025-01-10T10:17:46.000Z</time>
      </trkpt>
      <trkpt lat="43.6088" lon="6.81215">
        <ele>204.1</ele>
        <time>2025-01-10T10:17:45.000Z</time>
      </trkpt>
      <trkpt lat="43.60882" lon="6.8122">
        <ele>204</ele>
        <time>2025-01-10T10:17:44.000Z</time>
      </trkpt>
      <trkpt lat="43.60884" lon="6.81225">
        <ele>203.9</ele>
        <time>2025-01-10T10:17:43.000Z</time>
      </trkpt>
      <trkpt lat="43.60885" lon="6.8123">
        <ele>203.8</ele>
        <time>2025-01-10T10:17:42.000Z</time>
      </trkpt>
      <trkpt lat="43.60887" lon="6.81235">
        <ele>203.7</ele>
        <time>2025-01-10T10:17:41.000Z</time>
      </trkpt>
      <trkpt lat="43.60889" lon="6.8124">
        <ele>203.6</ele>
        <time>2025-01-10T10:17:40.000Z</time>
      </trkpt>
      <trkpt lat="43.6089" lon="6.81245">
        <ele>203.5</ele>
        <time>2025-01-10T10:17:39.000Z</time>
      </trkpt>
      <trkpt lat="43.60892" lon="6.8125">
        <ele>203.4</ele>
        <time>2025-01-10T10:17:38.000Z</time>
      </trkpt>
      <trkpt lat="43.60893" lon="6.81255">
        <ele>203.3</ele>
        <time>2025-01-10T10:17:37.000Z</time>
      </trkpt>
      <trkpt lat="43.60894" lon="6.8126">
        <ele>203.2</ele>
        <time>2025-01-10T10:17:36.000Z</time>
      </trkpt>
      <trkpt lat="43.60896" lon="6.81265">
        <ele>203.1</ele>
        <time>2025-01-10T10:17:35.000Z</time>
      </trkpt>
      <trkpt lat="43.60897" lon="6.8127">
        <ele>203</ele>
        <time>2025-01-10T10:17:34.000Z</time>
      </trkpt>
      <trkpt lat="43.60899" lon="6.81275">
        <ele>202.9</ele>
        <time>2025-01-10T10:17:33.000Z</time>
      </trkpt>
      <trkpt lat="43.609" lon="6.81279">
        <ele>202.8</ele>
        <time>2025-01-10T10:17:32.000Z</time>
      </trkpt>
      <trkpt lat="43.60901" lon="6.81283">
        <ele>202.7</ele>
        <time>2025-01-10T10:17:31.000Z</time>
      </trkpt>
      <trkpt lat="43.60902" lon="6.81288">
        <ele>202.6</ele>
        <time>2025-01-10T10:17:30.000Z</time>
      </trkpt>
      <trkpt lat="43.60904" lon="6.81292">
        <ele>202.5</ele>
        <time>2025-01-10T10:17:29.000Z</time>
      </trkpt>
      <trkpt lat="43.60905" lon="6.81296">
        <ele>202.4</ele>
        <time>2025-01-10T10:17:28.000Z</time>
      </trkpt>
      <trkpt lat="43.60906" lon="6.81301">
        <ele>202.2</ele>
        <time>2025-01-10T10:17:27.000Z</time>
      </trkpt>
      <trkpt lat="43.60908" lon="6.81305">
        <ele>202.1</ele>
        <time>2025-01-10T10:17:26.000Z</time>
      </trkpt>
      <trkpt lat="43.60909" lon="6.8131">
        <ele>202</ele>
        <time>2025-01-10T10:17:25.000Z</time>
      </trkpt>
      <trkpt lat="43.60911" lon="6.81314">
        <ele>201.9</ele>
        <time>2025-01-10T10:17:24.000Z</time>
      </trkpt>
      <trkpt lat="43.60912" lon="6.81318">
        <ele>201.8</ele>
        <time>2025-01-10T10:17:23.000Z</time>
      </trkpt>
      <trkpt lat="43.60914" lon="6.81323">
        <ele>201.6</ele>
        <time>2025-01-10T10:17:22.000Z</time>
      </trkpt>
      <trkpt lat="43.60915" lon="6.81328">
        <ele>201.5</ele>
        <time>2025-01-10T10:17:21.000Z</time>
      </trkpt>
      <trkpt lat="43.60916" lon="6.81333">
        <ele>201.4</ele>
        <time>2025-01-10T10:17:20.000Z</time>
      </trkpt>
      <trkpt lat="43.60917" lon="6.81338">
        <ele>201.3</ele>
        <time>2025-01-10T10:17:19.000Z</time>
      </trkpt>
      <trkpt lat="43.60919" lon="6.81343">
        <ele>201.1</ele>
        <time>2025-01-10T10:17:18.000Z</time>
      </trkpt>
      <trkpt lat="43.6092" lon="6.81347">
        <ele>201</ele>
        <time>2025-01-10T10:17:17.000Z</time>
      </trkpt>
      <trkpt lat="43.60922" lon="6.81352">
        <ele>200.9</ele>
        <time>2025-01-10T10:17:16.000Z</time>
      </trkpt>
      <trkpt lat="43.60924" lon="6.81356">
        <ele>200.8</ele>
        <time>2025-01-10T10:17:15.000Z</time>
      </trkpt>
      <trkpt lat="43.60926" lon="6.81361">
        <ele>200.7</ele>
        <time>2025-01-10T10:17:14.000Z</time>
      </trkpt>
      <trkpt lat="43.60928" lon="6.81365">
        <ele>200.6</ele>
        <time>2025-01-10T10:17:13.000Z</time>
      </trkpt>
      <trkpt lat="43.60931" lon="6.81369">
        <ele>200.4</ele>
        <time>2025-01-10T10:17:12.000Z</time>
      </trkpt>
      <trkpt lat="43.60933" lon="6.81373">
        <ele>200.3</ele>
        <time>2025-01-10T10:17:11.000Z</time>
      </trkpt>
      <trkpt lat="43.60935" lon="6.81378">
        <ele>200.2</ele>
        <time>2025-01-10T10:17:10.000Z</time>
      </trkpt>
      <trkpt lat="43.60938" lon="6.81382">
        <ele>200.1</ele>
        <time>2025-01-10T10:17:09.000Z</time>
      </trkpt>
      <trkpt lat="43.6094" lon="6.81386">
        <ele>200</ele>
        <time>2025-01-10T10:17:08.000Z</time>
      </trkpt>
      <trkpt lat="43.60942" lon="6.8139">
        <ele>199.9</ele>
        <time>2025-01-10T10:17:07.000Z</time>
      </trkpt>
      <trkpt lat="43.60945" lon="6.81394">
        <ele>199.8</ele>
        <time>2025-01-10T10:17:06.000Z</time>
      </trkpt>
      <trkpt lat="43.60947" lon="6.81398">
        <ele>199.6</ele>
        <time>2025-01-10T10:17:05.000Z</time>
      </trkpt>
      <trkpt lat="43.6095" lon="6.81403">
        <ele>199.5</ele>
        <time>2025-01-10T10:17:04.000Z</time>
      </trkpt>
      <trkpt lat="43.60952" lon="6.81407">
        <ele>199.4</ele>
        <time>2025-01-10T10:17:03.000Z</time>
      </trkpt>
      <trkpt lat="43.60955" lon="6.8141">
        <ele>199.2</ele>
        <time>2025-01-10T10:17:02.000Z</time>
      </trkpt>
      <trkpt lat="43.60958" lon="6.81414">
        <ele>199.1</ele>
        <time>2025-01-10T10:17:01.000Z</time>
      </trkpt>
      <trkpt lat="43.6096" lon="6.81417">
        <ele>199</ele>
        <time>2025-01-10T10:17:00.000Z</time>
      </trkpt>
      <trkpt lat="43.60963" lon="6.8142">
        <ele>198.8</ele>
        <time>2025-01-10T10:16:59.000Z</time>
      </trkpt>
      <trkpt lat="43.60966" lon="6.81424">
        <ele>198.7</ele>
        <time>2025-01-10T10:16:58.000Z</time>
      </trkpt>
      <trkpt lat="43.60969" lon="6.81427">
        <ele>198.5</ele>
        <time>2025-01-10T10:16:57.000Z</time>
      </trkpt>
      <trkpt lat="43.60972" lon="6.8143">
        <ele>198.4</ele>
        <time>2025-01-10T10:16:56.000Z</time>
      </trkpt>
      <trkpt lat="43.60975" lon="6.81433">
        <ele>198.3</ele>
        <time>2025-01-10T10:16:55.000Z</time>
      </trkpt>
      <trkpt lat="43.60978" lon="6.81436">
        <ele>198.1</ele>
        <time>2025-01-10T10:16:54.000Z</time>
      </trkpt>
      <trkpt lat="43.60981" lon="6.81439">
        <ele>198</ele>
        <time>2025-01-10T10:16:53.000Z</time>
      </trkpt>
      <trkpt lat="43.60985" lon="6.81442">
        <ele>197.8</ele>
        <time>2025-01-10T10:16:52.000Z</time>
      </trkpt>
      <trkpt lat="43.60988" lon="6.81444">
        <ele>197.7</ele>
        <time>2025-01-10T10:16:51.000Z</time>
      </trkpt>
      <trkpt lat="43.60992" lon="6.81446">
        <ele>197.5</ele>
        <time>2025-01-10T10:16:50.000Z</time>
      </trkpt>
      <trkpt lat="43.60995" lon="6.81449">
        <ele>197.4</ele>
        <time>2025-01-10T10:16:49.000Z</time>
      </trkpt>
      <trkpt lat="43.60999" lon="6.81451">
        <ele>197.3</ele>
        <time>2025-01-10T10:16:48.000Z</time>
      </trkpt>
      <trkpt lat="43.61003" lon="6.81454">
        <ele>197.1</ele>
        <time>2025-01-10T10:16:47.000Z</time>
      </trkpt>
      <trkpt lat="43.61006" lon="6.81456">
        <ele>197</ele>
        <time>2025-01-10T10:16:46.000Z</time>
      </trkpt>
      <trkpt lat="43.6101" lon="6.81459">
        <ele>196.8</ele>
        <time>2025-01-10T10:16:45.000Z</time>
      </trkpt>
      <trkpt lat="43.61014" lon="6.81461">
        <ele>196.7</ele>
        <time>2025-01-10T10:16:44.000Z</time>
      </trkpt>
      <trkpt lat="43.61017" lon="6.81463">
        <ele>196.6</ele>
        <time>2025-01-10T10:16:43.000Z</time>
      </trkpt>
      <trkpt lat="43.61021" lon="6.81465">
        <ele>196.4</ele>
        <time>2025-01-10T10:16:42.000Z</time>
      </trkpt>
      <trkpt lat="43.61025" lon="6.81467">
        <ele>196.3</ele>
        <time>2025-01-10T10:16:41.000Z</time>
      </trkpt>
      <trkpt lat="43.61028" lon="6.81469">
        <ele>196.2</ele>
        <time>2025-01-10T10:16:40.000Z</time>
      </trkpt>
      <trkpt lat="43.61032" lon="6.81471">
        <ele>196.1</ele>
        <time>2025-01-10T10:16:39.000Z</time>
      </trkpt>
      <trkpt lat="43.61036" lon="6.81473">
        <ele>195.9</ele>
        <time>2025-01-10T10:16:38.000Z</time>
      </trkpt>
      <trkpt lat="43.6104" lon="6.81475">
        <ele>195.8</ele>
        <time>2025-01-10T10:16:37.000Z</time>
      </trkpt>
      <trkpt lat="43.61044" lon="6.81477">
        <ele>195.7</ele>
        <time>2025-01-10T10:16:36.000Z</time>
      </trkpt>
      <trkpt lat="43.61048" lon="6.81479">
        <ele>195.6</ele>
        <time>2025-01-10T10:16:35.000Z</time>
      </trkpt>
      <trkpt lat="43.61052" lon="6.81481">
        <ele>195.5</ele>
        <time>2025-01-10T10:16:34.000Z</time>
      </trkpt>
      <trkpt lat="43.61056" lon="6.81483">
        <ele>195.3</ele>
        <time>2025-01-10T10:16:33.000Z</time>
      </trkpt>
      <trkpt lat="43.6106" lon="6.81485">
        <ele>195.2</ele>
        <time>2025-01-10T10:16:32.000Z</time>
      </trkpt>
      <trkpt lat="43.61064" lon="6.81487">
        <ele>195.1</ele>
        <time>2025-01-10T10:16:31.000Z</time>
      </trkpt>
      <trkpt lat="43.61069" lon="6.8149">
        <ele>195</ele>
        <time>2025-01-10T10:16:30.000Z</time>
      </trkpt>
      <trkpt lat="43.61073" lon="6.81492">
        <ele>194.9</ele>
        <time>2025-01-10T10:16:29.000Z</time>
      </trkpt>
      <trkpt lat="43.61077" lon="6.81494">
        <ele>194.8</ele>
        <time>2025-01-10T10:16:28.000Z</time>
      </trkpt>
      <trkpt lat="43.61081" lon="6.81496">
        <ele>194.7</ele>
        <time>2025-01-10T10:16:27.000Z</time>
      </trkpt>
      <trkpt lat="43.61085" lon="6.81498">
        <ele>194.7</ele>
        <time>2025-01-10T10:16:26.000Z</time>
      </trkpt>
      <trkpt lat="43.61089" lon="6.81499">
        <ele>194.6</ele>
        <time>2025-01-10T10:16:25.000Z</time>
      </trkpt>
      <trkpt lat="43.61093" lon="6.81501">
        <ele>194.5</ele>
        <time>2025-01-10T10:16:24.000Z</time>
      </trkpt>
      <trkpt lat="43.61096" lon="6.81502">
        <ele>194.4</ele>
        <time>2025-01-10T10:16:23.000Z</time>
      </trkpt>
      <trkpt lat="43.61099" lon="6.81505">
        <ele>194.3</ele>
        <time>2025-01-10T10:16:22.000Z</time>
      </trkpt>
      <trkpt lat="43.61101" lon="6.81508">
        <ele>194.2</ele>
        <time>2025-01-10T10:16:21.000Z</time>
      </trkpt>
      <trkpt lat="43.61104" lon="6.81512">
        <ele>194.1</ele>
        <time>2025-01-10T10:16:20.000Z</time>
      </trkpt>
      <trkpt lat="43.61107" lon="6.81516">
        <ele>194</ele>
        <time>2025-01-10T10:16:19.000Z</time>
      </trkpt>
      <trkpt lat="43.6111" lon="6.81519">
        <ele>193.8</ele>
        <time>2025-01-10T10:16:18.000Z</time>
      </trkpt>
      <trkpt lat="43.61114" lon="6.81523">
        <ele>193.7</ele>
        <time>2025-01-10T10:16:17.000Z</time>
      </trkpt>
      <trkpt lat="43.61117" lon="6.81526">
        <ele>193.6</ele>
        <time>2025-01-10T10:16:16.000Z</time>
      </trkpt>
      <trkpt lat="43.61121" lon="6.81529">
        <ele>193.5</ele>
        <time>2025-01-10T10:16:15.000Z</time>
      </trkpt>
      <trkpt lat="43.61124" lon="6.81532">
        <ele>193.4</ele>
        <time>2025-01-10T10:16:14.000Z</time>
      </trkpt>
      <trkpt lat="43.61127" lon="6.81536">
        <ele>193.3</ele>
        <time>2025-01-10T10:16:13.000Z</time>
      </trkpt>
      <trkpt lat="43.61129" lon="6.8154">
        <ele>193.2</ele>
        <time>2025-01-10T10:16:12.000Z</time>
      </trkpt>
      <trkpt lat="43.61132" lon="6.81543">
        <ele>193.2</ele>
        <time>2025-01-10T10:16:11.000Z</time>
      </trkpt>
      <trkpt lat="43.61135" lon="6.81546">
        <ele>193.1</ele>
        <time>2025-01-10T10:16:10.000Z</time>
      </trkpt>
      <trkpt lat="43.61137" lon="6.81549">
        <ele>193</ele>
        <time>2025-01-10T10:16:09.000Z</time>
      </trkpt>
      <trkpt lat="43.6114" lon="6.81553">
        <ele>192.7</ele>
        <time>2025-01-10T10:16:08.000Z</time>
      </trkpt>
      <trkpt lat="43.61142" lon="6.81557">
        <ele>192.3</ele>
        <time>2025-01-10T10:16:07.000Z</time>
      </trkpt>
      <trkpt lat="43.61144" lon="6.81561">
        <ele>192</ele>
        <time>2025-01-10T10:16:06.000Z</time>
      </trkpt>
      <trkpt lat="43.61146" lon="6.81567">
        <ele>191.9</ele>
        <time>2025-01-10T10:16:05.000Z</time>
      </trkpt>
      <trkpt lat="43.61148" lon="6.81572">
        <ele>191.8</ele>
        <time>2025-01-10T10:16:04.000Z</time>
      </trkpt>
      <trkpt lat="43.6115" lon="6.81577">
        <ele>191.7</ele>
        <time>2025-01-10T10:16:03.000Z</time>
      </trkpt>
      <trkpt lat="43.61153" lon="6.81582">
        <ele>191.6</ele>
        <time>2025-01-10T10:16:02.000Z</time>
      </trkpt>
      <trkpt lat="43.61155" lon="6.81587">
        <ele>191.5</ele>
        <time>2025-01-10T10:16:01.000Z</time>
      </trkpt>
      <trkpt lat="43.61158" lon="6.81591">
        <ele>191.4</ele>
        <time>2025-01-10T10:16:00.000Z</time>
      </trkpt>
      <trkpt lat="43.6116" lon="6.81596">
        <ele>191.2</ele>
        <time>2025-01-10T10:15:59.000Z</time>
      </trkpt>
      <trkpt lat="43.61163" lon="6.81602">
        <ele>191.1</ele>
        <time>2025-01-10T10:15:58.000Z</time>
      </trkpt>
      <trkpt lat="43.61165" lon="6.81607">
        <ele>190.9</ele>
        <time>2025-01-10T10:15:57.000Z</time>
      </trkpt>
      <trkpt lat="43.61167" lon="6.81612">
        <ele>190.8</ele>
        <time>2025-01-10T10:15:56.000Z</time>
      </trkpt>
      <trkpt lat="43.61169" lon="6.81618">
        <ele>190.6</ele>
        <time>2025-01-10T10:15:55.000Z</time>
      </trkpt>
      <trkpt lat="43.61171" lon="6.81623">
        <ele>190.5</ele>
        <time>2025-01-10T10:15:54.000Z</time>
      </trkpt>
      <trkpt lat="43.61173" lon="6.81629">
        <ele>190.3</ele>
        <time>2025-01-10T10:15:53.000Z</time>
      </trkpt>
      <trkpt lat="43.61174" lon="6.81634">
        <ele>190.1</ele>
        <time>2025-01-10T10:15:52.000Z</time>
      </trkpt>
      <trkpt lat="43.61176" lon="6.8164">
        <ele>190</ele>
        <time>2025-01-10T10:15:51.000Z</time>
      </trkpt>
      <trkpt lat="43.61177" lon="6.81645">
        <ele>189.8</ele>
        <time>2025-01-10T10:15:50.000Z</time>
      </trkpt>
      <trkpt lat="43.61178" lon="6.8165">
        <ele>189.6</ele>
        <time>2025-01-10T10:15:49.000Z</time>
      </trkpt>
      <trkpt lat="43.61179" lon="6.81655">
        <ele>189.5</ele>
        <time>2025-01-10T10:15:48.000Z</time>
      </trkpt>
      <trkpt lat="43.6118" lon="6.81661">
        <ele>189.3</ele>
        <time>2025-01-10T10:15:47.000Z</time>
      </trkpt>
      <trkpt lat="43.6118" lon="6.81666">
        <ele>189.1</ele>
        <time>2025-01-10T10:15:46.000Z</time>
      </trkpt>
      <trkpt lat="43.61181" lon="6.81672">
        <ele>188.9</ele>
        <time>2025-01-10T10:15:45.000Z</time>
      </trkpt>
      <trkpt lat="43.61181" lon="6.81677">
        <ele>188.8</ele>
        <time>2025-01-10T10:15:44.000Z</time>
      </trkpt>
      <trkpt lat="43.61182" lon="6.81681">
        <ele>188.6</ele>
        <time>2025-01-10T10:15:43.000Z</time>
      </trkpt>
      <trkpt lat="43.61183" lon="6.81684">
        <ele>188.5</ele>
        <time>2025-01-10T10:15:42.000Z</time>
      </trkpt>
      <trkpt lat="43.61185" lon="6.81687">
        <ele>188.4</ele>
        <time>2025-01-10T10:15:41.000Z</time>
      </trkpt>
      <trkpt lat="43.61187" lon="6.81689">
        <ele>188.3</ele>
        <time>2025-01-10T10:15:40.000Z</time>
      </trkpt>
      <trkpt lat="43.6119" lon="6.8169">
        <ele>188.1</ele>
        <time>2025-01-10T10:15:39.000Z</time>
      </trkpt>
      <trkpt lat="43.61193" lon="6.81691">
        <ele>188</ele>
        <time>2025-01-10T10:15:38.000Z</time>
      </trkpt>
      <trkpt lat="43.61196" lon="6.8169">
        <ele>187.9</ele>
        <time>2025-01-10T10:15:37.000Z</time>
      </trkpt>
      <trkpt lat="43.61199" lon="6.81689">
        <ele>187.7</ele>
        <time>2025-01-10T10:15:36.000Z</time>
      </trkpt>
      <trkpt lat="43.61201" lon="6.81688">
        <ele>187.6</ele>
        <time>2025-01-10T10:15:35.000Z</time>
      </trkpt>
      <trkpt lat="43.61201" lon="6.81688">
        <ele>187.6</ele>
        <time>2025-01-10T10:15:34.000Z</time>
      </trkpt>
      <trkpt lat="43.61201" lon="6.81688">
        <ele>187.6</ele>
        <time>2025-01-10T10:15:33.000Z</time>
      </trkpt>
      <trkpt lat="43.61201" lon="6.81688">
        <ele>187.6</ele>
        <time>2025-01-10T10:15:32.000Z</time>
      </trkpt>
      <trkpt lat="43.61201" lon="6.81688">
        <ele>187.6</ele>
        <time>2025-01-10T10:15:31.000Z</time>
      </trkpt>
      <trkpt lat="43.61201" lon="6.81688">
        <ele>187.6</ele>
        <time>2025-01-10T10:15:30.000Z</time>
      </trkpt>
      <trkpt lat="43.61201" lon="6.81688">
        <ele>187.6</ele>
        <time>2025-01-10T10:15:29.000Z</time>
      </trkpt>
      <trkpt lat="43.61201" lon="6.81688">
        <ele>187.6</ele>
        <time>2025-01-10T10:15:28.000Z</time>
      </trkpt>
      <trkpt lat="43.61201" lon="6.81688">
        <ele>187.6</ele>
        <time>2025-01-10T10:15:27.000Z</time>
      </trkpt>
      <trkpt lat="43.61201" lon="6.81688">
        <ele>187.6</ele>
        <time>2025-01-10T10:15:26.000Z</time>
      </trkpt>
      <trkpt lat="43.61201" lon="6.81688">
        <ele>187.6</ele>
        <time>2025-01-10T10:15:25.000Z</time>
      </trkpt>
      <trkpt lat="43.61201" lon="6.81688">
        <ele>187.6</ele>
        <time>2025-01-10T10:15:24.000Z</time>
      </trkpt>
      <trkpt lat="43.61201" lon="6.81688">
        <ele>187.6</ele>
        <time>2025-01-10T10:15:23.000Z</time>
      </trkpt>
      <trkpt lat="43.61201" lon="6.81688">
        <ele>187.6</ele>
        <time>2025-01-10T10:15:22.000Z</time>
      </trkpt>
      <trkpt lat="43.61201" lon="6.81688">
        <ele>187.6</ele>
        <time>2025-01-10T10:15:21.000Z</time>
      </trkpt>
      <trkpt lat="43.61201" lon="6.81688">
        <ele>187.6</ele>
        <time>2025-01-10T10:15:20.000Z</time>
      </trkpt>
      <trkpt lat="43.61201" lon="6.81687">
        <ele>187.6</ele>
        <time>2025-01-10T10:15:19.000Z</time>
      </trkpt>
      <trkpt lat="43.61201" lon="6.81687">
        <ele>187.6</ele>
        <time>2025-01-10T10:15:18.000Z</time>
      </trkpt>
      <trkpt lat="43.61201" lon="6.81686">
        <ele>187.6</ele>
        <time>2025-01-10T10:15:17.000Z</time>
      </trkpt>
      <trkpt lat="43.61201" lon="6.81686">
        <ele>187.6</ele>
        <time>2025-01-10T10:15:16.000Z</time>
      </trkpt>
      <trkpt lat="43.61201" lon="6.81686">
        <ele>187.5</ele>
        <time>2025-01-10T10:15:15.000Z</time>
      </trkpt>
      <trkpt lat="43.61201" lon="6.81685">
        <ele>187.5</ele>
        <time>2025-01-10T10:15:14.000Z</time>
      </trkpt>
      <trkpt lat="43.612" lon="6.81683">
        <ele>187.5</ele>
        <time>2025-01-10T10:15:13.000Z</time>
      </trkpt>
      <trkpt lat="43.612" lon="6.81683">
        <ele>187.4</ele>
        <time>2025-01-10T10:15:12.000Z</time>
      </trkpt>
      <trkpt lat="43.612" lon="6.81683">
        <ele>187.4</ele>
        <time>2025-01-10T10:15:11.000Z</time>
      </trkpt>
      <trkpt lat="43.612" lon="6.81683">
        <ele>187.4</ele>
        <time>2025-01-10T10:15:10.000Z</time>
      </trkpt>
      <trkpt lat="43.612" lon="6.81683">
        <ele>187.4</ele>
        <time>2025-01-10T10:15:09.000Z</time>
      </trkpt>
      <trkpt lat="43.61201" lon="6.81684">
        <ele>187.3</ele>
        <time>2025-01-10T10:15:08.000Z</time>
      </trkpt>
      <trkpt lat="43.61201" lon="6.81684">
        <ele>187.3</ele>
        <time>2025-01-10T10:15:07.000Z</time>
      </trkpt>
      <trkpt lat="43.61201" lon="6.81686">
        <ele>187.3</ele>
        <time>2025-01-10T10:15:06.000Z</time>
      </trkpt>
      <trkpt lat="43.61202" lon="6.81688">
        <ele>187.2</ele>
        <time>2025-01-10T10:15:05.000Z</time>
      </trkpt>
      <trkpt lat="43.61202" lon="6.81692">
        <ele>187.1</ele>
        <time>2025-01-10T10:15:04.000Z</time>
      </trkpt>
      <trkpt lat="43.61202" lon="6.81696">
        <ele>186.9</ele>
        <time>2025-01-10T10:15:03.000Z</time>
      </trkpt>
      <trkpt lat="43.61203" lon="6.81701">
        <ele>186.7</ele>
        <time>2025-01-10T10:15:02.000Z</time>
      </trkpt>
      <trkpt lat="43.61204" lon="6.81706">
        <ele>186.6</ele>
        <time>2025-01-10T10:15:01.000Z</time>
      </trkpt>
      <trkpt lat="43.61205" lon="6.81711">
        <ele>186.3</ele>
        <time>2025-01-10T10:15:00.000Z</time>
      </trkpt>
      <trkpt lat="43.61206" lon="6.81717">
        <ele>186.1</ele>
        <time>2025-01-10T10:14:59.000Z</time>
      </trkpt>
      <trkpt lat="43.61207" lon="6.81723">
        <ele>185.9</ele>
        <time>2025-01-10T10:14:58.000Z</time>
      </trkpt>
      <trkpt lat="43.61208" lon="6.81729">
        <ele>185.6</ele>
        <time>2025-01-10T10:14:57.000Z</time>
      </trkpt>
      <trkpt lat="43.61209" lon="6.81735">
        <ele>185.4</ele>
        <time>2025-01-10T10:14:56.000Z</time>
      </trkpt>
      <trkpt lat="43.61209" lon="6.81741">
        <ele>185.1</ele>
        <time>2025-01-10T10:14:55.000Z</time>
      </trkpt>
      <trkpt lat="43.6121" lon="6.81747">
        <ele>184.9</ele>
        <time>2025-01-10T10:14:54.000Z</time>
      </trkpt>
      <trkpt lat="43.61211" lon="6.81753">
        <ele>184.7</ele>
        <time>2025-01-10T10:14:53.000Z</time>
      </trkpt>
      <trkpt lat="43.61212" lon="6.81759">
        <ele>184.6</ele>
        <time>2025-01-10T10:14:52.000Z</time>
      </trkpt>
      <trkpt lat="43.61213" lon="6.81765">
        <ele>184.6</ele>
        <time>2025-01-10T10:14:51.000Z</time>
      </trkpt>
      <trkpt lat="43.61214" lon="6.81771">
        <ele>184.5</ele>
        <time>2025-01-10T10:14:50.000Z</time>
      </trkpt>
      <trkpt lat="43.61215" lon="6.81777">
        <ele>184.3</ele>
        <time>2025-01-10T10:14:49.000Z</time>
      </trkpt>
      <trkpt lat="43.61217" lon="6.81783">
        <ele>184</ele>
        <time>2025-01-10T10:14:48.000Z</time>
      </trkpt>
      <trkpt lat="43.61218" lon="6.8179">
        <ele>183.8</ele>
        <time>2025-01-10T10:14:47.000Z</time>
      </trkpt>
      <trkpt lat="43.61219" lon="6.81795">
        <ele>183.6</ele>
        <time>2025-01-10T10:14:46.000Z</time>
      </trkpt>
      <trkpt lat="43.6122" lon="6.81801">
        <ele>183.4</ele>
        <time>2025-01-10T10:14:45.000Z</time>
      </trkpt>
      <trkpt lat="43.61222" lon="6.81807">
        <ele>183.2</ele>
        <time>2025-01-10T10:14:44.000Z</time>
      </trkpt>
      <trkpt lat="43.61223" lon="6.81812">
        <ele>183</ele>
        <time>2025-01-10T10:14:43.000Z</time>
      </trkpt>
      <trkpt lat="43.61225" lon="6.81818">
        <ele>182.8</ele>
        <time>2025-01-10T10:14:42.000Z</time>
      </trkpt>
      <trkpt lat="43.61227" lon="6.81824">
        <ele>182.6</ele>
        <time>2025-01-10T10:14:41.000Z</time>
      </trkpt>
      <trkpt lat="43.61228" lon="6.81831">
        <ele>182.4</ele>
        <time>2025-01-10T10:14:40.000Z</time>
      </trkpt>
      <trkpt lat="43.6123" lon="6.81837">
        <ele>182.1</ele>
        <time>2025-01-10T10:14:39.000Z</time>
      </trkpt>
      <trkpt lat="43.61232" lon="6.81843">
        <ele>181.9</ele>
        <time>2025-01-10T10:14:38.000Z</time>
      </trkpt>
      <trkpt lat="43.61235" lon="6.81849">
        <ele>181.7</ele>
        <time>2025-01-10T10:14:37.000Z</time>
      </trkpt>
      <trkpt lat="43.61237" lon="6.81855">
        <ele>181.6</ele>
        <time>2025-01-10T10:14:36.000Z</time>
      </trkpt>
      <trkpt lat="43.61239" lon="6.81861">
        <ele>181.6</ele>
        <time>2025-01-10T10:14:35.000Z</time>
      </trkpt>
      <trkpt lat="43.61242" lon="6.81867">
        <ele>181.5</ele>
        <time>2025-01-10T10:14:34.000Z</time>
      </trkpt>
      <trkpt lat="43.61245" lon="6.81875">
        <ele>181.5</ele>
        <time>2025-01-10T10:14:33.000Z</time>
      </trkpt>
      <trkpt lat="43.61247" lon="6.81879">
        <ele>181.5</ele>
        <time>2025-01-10T10:14:32.000Z</time>
      </trkpt>
      <trkpt lat="43.61248" lon="6.8188">
        <ele>181.5</ele>
        <time>2025-01-10T10:14:31.000Z</time>
      </trkpt>
      <trkpt lat="43.61248" lon="6.81881">
        <ele>181.5</ele>
        <time>2025-01-10T10:14:30.000Z</time>
      </trkpt>
      <trkpt lat="43.61249" lon="6.81882">
        <ele>181.4</ele>
        <time>2025-01-10T10:14:29.000Z</time>
      </trkpt>
      <trkpt lat="43.61249" lon="6.81883">
        <ele>181.4</ele>
        <time>2025-01-10T10:14:28.000Z</time>
      </trkpt>
      <trkpt lat="43.6125" lon="6.81884">
        <ele>181.4</ele>
        <time>2025-01-10T10:14:27.000Z</time>
      </trkpt>
      <trkpt lat="43.6125" lon="6.81885">
        <ele>181.4</ele>
        <time>2025-01-10T10:14:26.000Z</time>
      </trkpt>
      <trkpt lat="43.61251" lon="6.81886">
        <ele>181.4</ele>
        <time>2025-01-10T10:14:25.000Z</time>
      </trkpt>
      <trkpt lat="43.61251" lon="6.81887">
        <ele>181.4</ele>
        <time>2025-01-10T10:14:24.000Z</time>
      </trkpt>
      <trkpt lat="43.61252" lon="6.81887">
        <ele>181.4</ele>
        <time>2025-01-10T10:14:23.000Z</time>
      </trkpt>
      <trkpt lat="43.61253" lon="6.81888">
        <ele>181.4</ele>
        <time>2025-01-10T10:14:22.000Z</time>
      </trkpt>
      <trkpt lat="43.61253" lon="6.81889">
        <ele>181.4</ele>
        <time>2025-01-10T10:14:21.000Z</time>
      </trkpt>
      <trkpt lat="43.61254" lon="6.8189">
        <ele>181.4</ele>
        <time>2025-01-10T10:14:20.000Z</time>
      </trkpt>
      <trkpt lat="43.61254" lon="6.81891">
        <ele>181.4</ele>
        <time>2025-01-10T10:14:19.000Z</time>
      </trkpt>
      <trkpt lat="43.61255" lon="6.81892">
        <ele>181.3</ele>
        <time>2025-01-10T10:14:18.000Z</time>
      </trkpt>
      <trkpt lat="43.61255" lon="6.81893">
        <ele>181.3</ele>
        <time>2025-01-10T10:14:17.000Z</time>
      </trkpt>
      <trkpt lat="43.61256" lon="6.81894">
        <ele>181.3</ele>
        <time>2025-01-10T10:14:16.000Z</time>
      </trkpt>
      <trkpt lat="43.61256" lon="6.81895">
        <ele>181.2</ele>
        <time>2025-01-10T10:14:15.000Z</time>
      </trkpt>
      <trkpt lat="43.61257" lon="6.81896">
        <ele>181.2</ele>
        <time>2025-01-10T10:14:14.000Z</time>
      </trkpt>
      <trkpt lat="43.61257" lon="6.81896">
        <ele>181.1</ele>
        <time>2025-01-10T10:14:13.000Z</time>
      </trkpt>
      <trkpt lat="43.61258" lon="6.81897">
        <ele>181.1</ele>
        <time>2025-01-10T10:14:12.000Z</time>
      </trkpt>
      <trkpt lat="43.61258" lon="6.81898">
        <ele>181</ele>
        <time>2025-01-10T10:14:11.000Z</time>
      </trkpt>
      <trkpt lat="43.61259" lon="6.81899">
        <ele>181</ele>
        <time>2025-01-10T10:14:10.000Z</time>
      </trkpt>
      <trkpt lat="43.61259" lon="6.819">
        <ele>181</ele>
        <time>2025-01-10T10:14:09.000Z</time>
      </trkpt>
      <trkpt lat="43.6126" lon="6.81901">
        <ele>180.9</ele>
        <time>2025-01-10T10:14:08.000Z</time>
      </trkpt>
      <trkpt lat="43.61261" lon="6.81902">
        <ele>180.9</ele>
        <time>2025-01-10T10:14:07.000Z</time>
      </trkpt>
      <trkpt lat="43.61261" lon="6.81903">
        <ele>180.8</ele>
        <time>2025-01-10T10:14:06.000Z</time>
      </trkpt>
      <trkpt lat="43.61262" lon="6.81904">
        <ele>180.8</ele>
        <time>2025-01-10T10:14:05.000Z</time>
      </trkpt>
      <trkpt lat="43.61262" lon="6.81905">
        <ele>180.8</ele>
        <time>2025-01-10T10:14:04.000Z</time>
      </trkpt>
      <trkpt lat="43.61263" lon="6.81906">
        <ele>180.7</ele>
        <time>2025-01-10T10:14:03.000Z</time>
      </trkpt>
      <trkpt lat="43.61263" lon="6.81906">
        <ele>180.7</ele>
        <time>2025-01-10T10:14:02.000Z</time>
      </trkpt>
      <trkpt lat="43.61264" lon="6.81907">
        <ele>180.6</ele>
        <time>2025-01-10T10:14:01.000Z</time>
      </trkpt>
      <trkpt lat="43.61264" lon="6.81908">
        <ele>180.6</ele>
        <time>2025-01-10T10:14:00.000Z</time>
      </trkpt>
      <trkpt lat="43.61265" lon="6.81909">
        <ele>180.6</ele>
        <time>2025-01-10T10:13:59.000Z</time>
      </trkpt>
      <trkpt lat="43.61265" lon="6.8191">
        <ele>180.5</ele>
        <time>2025-01-10T10:13:58.000Z</time>
      </trkpt>
      <trkpt lat="43.61266" lon="6.81911">
        <ele>180.5</ele>
        <time>2025-01-10T10:13:57.000Z</time>
      </trkpt>
      <trkpt lat="43.61266" lon="6.81912">
        <ele>180.4</ele>
        <time>2025-01-10T10:13:56.000Z</time>
      </trkpt>
      <trkpt lat="43.61267" lon="6.81913">
        <ele>180.4</ele>
        <time>2025-01-10T10:13:55.000Z</time>
      </trkpt>
      <trkpt lat="43.61267" lon="6.81914">
        <ele>180.3</ele>
        <time>2025-01-10T10:13:54.000Z</time>
      </trkpt>
      <trkpt lat="43.61268" lon="6.81915">
        <ele>180.3</ele>
        <time>2025-01-10T10:13:53.000Z</time>
      </trkpt>
      <trkpt lat="43.61268" lon="6.81915">
        <ele>180.3</ele>
        <time>2025-01-10T10:13:52.000Z</time>
      </trkpt>
      <trkpt lat="43.61269" lon="6.81916">
        <ele>180.2</ele>
        <time>2025-01-10T10:13:51.000Z</time>
      </trkpt>
      <trkpt lat="43.6127" lon="6.81918">
        <ele>180.2</ele>
        <time>2025-01-10T10:13:50.000Z</time>
      </trkpt>
      <trkpt lat="43.6127" lon="6.81918">
        <ele>180.1</ele>
        <time>2025-01-10T10:13:49.000Z</time>
      </trkpt>
      <trkpt lat="43.6127" lon="6.81919">
        <ele>180.1</ele>
        <time>2025-01-10T10:13:48.000Z</time>
      </trkpt>
      <trkpt lat="43.61271" lon="6.81919">
        <ele>180.1</ele>
        <time>2025-01-10T10:13:47.000Z</time>
      </trkpt>
      <trkpt lat="43.61272" lon="6.81921">
        <ele>180</ele>
        <time>2025-01-10T10:13:46.000Z</time>
      </trkpt>
      <trkpt lat="43.61274" lon="6.81925">
        <ele>179.8</ele>
        <time>2025-01-10T10:13:45.000Z</time>
      </trkpt>
      <trkpt lat="43.61277" lon="6.8193">
        <ele>179.6</ele>
        <time>2025-01-10T10:13:44.000Z</time>
      </trkpt>
      <trkpt lat="43.6128" lon="6.81934">
        <ele>179.3</ele>
        <time>2025-01-10T10:13:43.000Z</time>
      </trkpt>
      <trkpt lat="43.61283" lon="6.81939">
        <ele>179</ele>
        <time>2025-01-10T10:13:42.000Z</time>
      </trkpt>
      <trkpt lat="43.61287" lon="6.81943">
        <ele>178.8</ele>
        <time>2025-01-10T10:13:41.000Z</time>
      </trkpt>
      <trkpt lat="43.6129" lon="6.81947">
        <ele>178.5</ele>
        <time>2025-01-10T10:13:40.000Z</time>
      </trkpt>
      <trkpt lat="43.61294" lon="6.81951">
        <ele>178.2</ele>
        <time>2025-01-10T10:13:39.000Z</time>
      </trkpt>
      <trkpt lat="43.61298" lon="6.81955">
        <ele>177.9</ele>
        <time>2025-01-10T10:13:38.000Z</time>
      </trkpt>
      <trkpt lat="43.61302" lon="6.81959">
        <ele>177.6</ele>
        <time>2025-01-10T10:13:37.000Z</time>
      </trkpt>
      <trkpt lat="43.61306" lon="6.81963">
        <ele>177.3</ele>
        <time>2025-01-10T10:13:36.000Z</time>
      </trkpt>
      <trkpt lat="43.6131" lon="6.81967">
        <ele>177</ele>
        <time>2025-01-10T10:13:35.000Z</time>
      </trkpt>
      <trkpt lat="43.61314" lon="6.81971">
        <ele>176.6</ele>
        <time>2025-01-10T10:13:34.000Z</time>
      </trkpt>
      <trkpt lat="43.61319" lon="6.81975">
        <ele>176.3</ele>
        <time>2025-01-10T10:13:33.000Z</time>
      </trkpt>
      <trkpt lat="43.61323" lon="6.81979">
        <ele>175.9</ele>
        <time>2025-01-10T10:13:32.000Z</time>
      </trkpt>
      <trkpt lat="43.61327" lon="6.81983">
        <ele>175.6</ele>
        <time>2025-01-10T10:13:31.000Z</time>
      </trkpt>
      <trkpt lat="43.61331" lon="6.81987">
        <ele>175.2</ele>
        <time>2025-01-10T10:13:30.000Z</time>
      </trkpt>
      <trkpt lat="43.61335" lon="6.81991">
        <ele>174.9</ele>
        <time>2025-01-10T10:13:29.000Z</time>
      </trkpt>
      <trkpt lat="43.6134" lon="6.81995">
        <ele>174.5</ele>
        <time>2025-01-10T10:13:28.000Z</time>
      </trkpt>
      <trkpt lat="43.61344" lon="6.81999">
        <ele>174.1</ele>
        <time>2025-01-10T10:13:27.000Z</time>
      </trkpt>
      <trkpt lat="43.61348" lon="6.82004">
        <ele>173.6</ele>
        <time>2025-01-10T10:13:26.000Z</time>
      </trkpt>
      <trkpt lat="43.61352" lon="6.82008">
        <ele>173.2</ele>
        <time>2025-01-10T10:13:25.000Z</time>
      </trkpt>
      <trkpt lat="43.61356" lon="6.82012">
        <ele>172.8</ele>
        <time>2025-01-10T10:13:24.000Z</time>
      </trkpt>
      <trkpt lat="43.6136" lon="6.82017">
        <ele>172.4</ele>
        <time>2025-01-10T10:13:23.000Z</time>
      </trkpt>
      <trkpt lat="43.61365" lon="6.82021">
        <ele>171.9</ele>
        <time>2025-01-10T10:13:22.000Z</time>
      </trkpt>
      <trkpt lat="43.61369" lon="6.82026">
        <ele>171.4</ele>
        <time>2025-01-10T10:13:21.000Z</time>
      </trkpt>
      <trkpt lat="43.61373" lon="6.82032">
        <ele>170.9</ele>
        <time>2025-01-10T10:13:20.000Z</time>
      </trkpt>
      <trkpt lat="43.61377" lon="6.82038">
        <ele>170.4</ele>
        <time>2025-01-10T10:13:19.000Z</time>
      </trkpt>
      <trkpt lat="43.61381" lon="6.82043">
        <ele>169.9</ele>
        <time>2025-01-10T10:13:18.000Z</time>
      </trkpt>
      <trkpt lat="43.61384" lon="6.82049">
        <ele>169.5</ele>
        <time>2025-01-10T10:13:17.000Z</time>
      </trkpt>
      <trkpt lat="43.61389" lon="6.82054">
        <ele>169</ele>
        <time>2025-01-10T10:13:16.000Z</time>
      </trkpt>
      <trkpt lat="43.61393" lon="6.8206">
        <ele>168.6</ele>
        <time>2025-01-10T10:13:15.000Z</time>
      </trkpt>
      <trkpt lat="43.61397" lon="6.82066">
        <ele>168.2</ele>
        <time>2025-01-10T10:13:14.000Z</time>
      </trkpt>
      <trkpt lat="43.61401" lon="6.82071">
        <ele>167.9</ele>
        <time>2025-01-10T10:13:13.000Z</time>
      </trkpt>
      <trkpt lat="43.61405" lon="6.82076">
        <ele>167.6</ele>
        <time>2025-01-10T10:13:12.000Z</time>
      </trkpt>
      <trkpt lat="43.61411" lon="6.8208">
        <ele>167.3</ele>
        <time>2025-01-10T10:13:11.000Z</time>
      </trkpt>
      <trkpt lat="43.61416" lon="6.82084">
        <ele>167.1</ele>
        <time>2025-01-10T10:13:10.000Z</time>
      </trkpt>
      <trkpt lat="43.61421" lon="6.82087">
        <ele>166.9</ele>
        <time>2025-01-10T10:13:09.000Z</time>
      </trkpt>
      <trkpt lat="43.61427" lon="6.82089">
        <ele>166.7</ele>
        <time>2025-01-10T10:13:08.000Z</time>
      </trkpt>
      <trkpt lat="43.61432" lon="6.82091">
        <ele>166.5</ele>
        <time>2025-01-10T10:13:07.000Z</time>
      </trkpt>
      <trkpt lat="43.61438" lon="6.82093">
        <ele>166.4</ele>
        <time>2025-01-10T10:13:06.000Z</time>
      </trkpt>
      <trkpt lat="43.61444" lon="6.82094">
        <ele>166.3</ele>
        <time>2025-01-10T10:13:05.000Z</time>
      </trkpt>
      <trkpt lat="43.61449" lon="6.82095">
        <ele>166.2</ele>
        <time>2025-01-10T10:13:04.000Z</time>
      </trkpt>
      <trkpt lat="43.61455" lon="6.82097">
        <ele>166.1</ele>
        <time>2025-01-10T10:13:03.000Z</time>
      </trkpt>
      <trkpt lat="43.6146" lon="6.82099">
        <ele>166.1</ele>
        <time>2025-01-10T10:13:02.000Z</time>
      </trkpt>
      <trkpt lat="43.61465" lon="6.821">
        <ele>166.1</ele>
        <time>2025-01-10T10:13:01.000Z</time>
      </trkpt>
      <trkpt lat="43.61471" lon="6.82102">
        <ele>166.1</ele>
        <time>2025-01-10T10:13:00.000Z</time>
      </trkpt>
      <trkpt lat="43.61476" lon="6.82104">
        <ele>166.2</ele>
        <time>2025-01-10T10:12:59.000Z</time>
      </trkpt>
      <trkpt lat="43.61481" lon="6.82106">
        <ele>166.2</ele>
        <time>2025-01-10T10:12:58.000Z</time>
      </trkpt>
      <trkpt lat="43.61487" lon="6.82108">
        <ele>166.3</ele>
        <time>2025-01-10T10:12:57.000Z</time>
      </trkpt>
      <trkpt lat="43.61492" lon="6.8211">
        <ele>166.4</ele>
        <time>2025-01-10T10:12:56.000Z</time>
      </trkpt>
      <trkpt lat="43.61497" lon="6.82112">
        <ele>166.5</ele>
        <time>2025-01-10T10:12:55.000Z</time>
      </trkpt>
      <trkpt lat="43.61502" lon="6.82114">
        <ele>166.7</ele>
        <time>2025-01-10T10:12:54.000Z</time>
      </trkpt>
      <trkpt lat="43.61508" lon="6.82116">
        <ele>166.8</ele>
        <time>2025-01-10T10:12:53.000Z</time>
      </trkpt>
      <trkpt lat="43.61512" lon="6.82117">
        <ele>166.9</ele>
        <time>2025-01-10T10:12:52.000Z</time>
      </trkpt>
      <trkpt lat="43.61516" lon="6.82118">
        <ele>167</ele>
        <time>2025-01-10T10:12:51.000Z</time>
      </trkpt>
      <trkpt lat="43.61521" lon="6.8212">
        <ele>167.1</ele>
        <time>2025-01-10T10:12:50.000Z</time>
      </trkpt>
      <trkpt lat="43.61525" lon="6.82122">
        <ele>167.1</ele>
        <time>2025-01-10T10:12:49.000Z</time>
      </trkpt>
      <trkpt lat="43.6153" lon="6.82123">
        <ele>167.2</ele>
        <time>2025-01-10T10:12:48.000Z</time>
      </trkpt>
      <trkpt lat="43.61535" lon="6.82125">
        <ele>167.2</ele>
        <time>2025-01-10T10:12:47.000Z</time>
      </trkpt>
      <trkpt lat="43.61538" lon="6.82126">
        <ele>167.3</ele>
        <time>2025-01-10T10:12:46.000Z</time>
      </trkpt>
      <trkpt lat="43.61543" lon="6.82127">
        <ele>167.3</ele>
        <time>2025-01-10T10:12:45.000Z</time>
      </trkpt>
      <trkpt lat="43.61548" lon="6.82128">
        <ele>167.3</ele>
        <time>2025-01-10T10:12:44.000Z</time>
      </trkpt>
      <trkpt lat="43.61552" lon="6.8213">
        <ele>167.3</ele>
        <time>2025-01-10T10:12:43.000Z</time>
      </trkpt>
      <trkpt lat="43.61557" lon="6.82131">
        <ele>167.3</ele>
        <time>2025-01-10T10:12:42.000Z</time>
      </trkpt>
      <trkpt lat="43.61562" lon="6.82133">
        <ele>167.3</ele>
        <time>2025-01-10T10:12:41.000Z</time>
      </trkpt>
      <trkpt lat="43.61567" lon="6.82135">
        <ele>167.2</ele>
        <time>2025-01-10T10:12:40.000Z</time>
      </trkpt>
      <trkpt lat="43.61572" lon="6.82137">
        <ele>167.2</ele>
        <time>2025-01-10T10:12:39.000Z</time>
      </trkpt>
      <trkpt lat="43.61577" lon="6.82139">
        <ele>167.1</ele>
        <time>2025-01-10T10:12:38.000Z</time>
      </trkpt>
      <trkpt lat="43.61581" lon="6.8214">
        <ele>167.1</ele>
        <time>2025-01-10T10:12:37.000Z</time>
      </trkpt>
      <trkpt lat="43.61586" lon="6.82142">
        <ele>167</ele>
        <time>2025-01-10T10:12:36.000Z</time>
      </trkpt>
      <trkpt lat="43.61591" lon="6.82143">
        <ele>166.9</ele>
        <time>2025-01-10T10:12:35.000Z</time>
      </trkpt>
      <trkpt lat="43.61596" lon="6.82145">
        <ele>166.8</ele>
        <time>2025-01-10T10:12:34.000Z</time>
      </trkpt>
      <trkpt lat="43.61601" lon="6.82147">
        <ele>166.7</ele>
        <time>2025-01-10T10:12:33.000Z</time>
      </trkpt>
      <trkpt lat="43.61606" lon="6.8215">
        <ele>166.6</ele>
        <time>2025-01-10T10:12:32.000Z</time>
      </trkpt>
      <trkpt lat="43.6161" lon="6.82152">
        <ele>166.5</ele>
        <time>2025-01-10T10:12:31.000Z</time>
      </trkpt>
      <trkpt lat="43.61614" lon="6.82155">
        <ele>166.4</ele>
        <time>2025-01-10T10:12:30.000Z</time>
      </trkpt>
      <trkpt lat="43.61619" lon="6.82159">
        <ele>166.2</ele>
        <time>2025-01-10T10:12:29.000Z</time>
      </trkpt>
      <trkpt lat="43.61624" lon="6.82163">
        <ele>166</ele>
        <time>2025-01-10T10:12:28.000Z</time>
      </trkpt>
      <trkpt lat="43.61627" lon="6.82166">
        <ele>165.9</ele>
        <time>2025-01-10T10:12:27.000Z</time>
      </trkpt>
      <trkpt lat="43.61631" lon="6.8217">
        <ele>165.8</ele>
        <time>2025-01-10T10:12:26.000Z</time>
      </trkpt>
      <trkpt lat="43.61635" lon="6.82174">
        <ele>165.6</ele>
        <time>2025-01-10T10:12:25.000Z</time>
      </trkpt>
      <trkpt lat="43.61639" lon="6.82178">
        <ele>165.5</ele>
        <time>2025-01-10T10:12:24.000Z</time>
      </trkpt>
      <trkpt lat="43.61644" lon="6.82183">
        <ele>165.3</ele>
        <time>2025-01-10T10:12:23.000Z</time>
      </trkpt>
      <trkpt lat="43.61648" lon="6.82187">
        <ele>165.1</ele>
        <time>2025-01-10T10:12:22.000Z</time>
      </trkpt>
      <trkpt lat="43.61651" lon="6.82191">
        <ele>165</ele>
        <time>2025-01-10T10:12:21.000Z</time>
      </trkpt>
      <trkpt lat="43.61654" lon="6.82195">
        <ele>164.8</ele>
        <time>2025-01-10T10:12:20.000Z</time>
      </trkpt>
      <trkpt lat="43.61658" lon="6.82199">
        <ele>164.7</ele>
        <time>2025-01-10T10:12:19.000Z</time>
      </trkpt>
      <trkpt lat="43.61662" lon="6.82204">
        <ele>164.5</ele>
        <time>2025-01-10T10:12:18.000Z</time>
      </trkpt>
      <trkpt lat="43.61665" lon="6.82208">
        <ele>164.3</ele>
        <time>2025-01-10T10:12:17.000Z</time>
      </trkpt>
      <trkpt lat="43.61669" lon="6.82211">
        <ele>164.2</ele>
        <time>2025-01-10T10:12:16.000Z</time>
      </trkpt>
      <trkpt lat="43.61673" lon="6.82214">
        <ele>164</ele>
        <time>2025-01-10T10:12:15.000Z</time>
      </trkpt>
      <trkpt lat="43.61676" lon="6.82218">
        <ele>163.8</ele>
        <time>2025-01-10T10:12:14.000Z</time>
      </trkpt>
      <trkpt lat="43.6168" lon="6.8222">
        <ele>163.6</ele>
        <time>2025-01-10T10:12:13.000Z</time>
      </trkpt>
      <trkpt lat="43.61684" lon="6.82223">
        <ele>163.4</ele>
        <time>2025-01-10T10:12:12.000Z</time>
      </trkpt>
      <trkpt lat="43.61688" lon="6.82226">
        <ele>163.2</ele>
        <time>2025-01-10T10:12:11.000Z</time>
      </trkpt>
      <trkpt lat="43.61691" lon="6.82228">
        <ele>163</ele>
        <time>2025-01-10T10:12:10.000Z</time>
      </trkpt>
      <trkpt lat="43.61695" lon="6.8223">
        <ele>162.8</ele>
        <time>2025-01-10T10:12:09.000Z</time>
      </trkpt>
      <trkpt lat="43.61699" lon="6.82231">
        <ele>162.6</ele>
        <time>2025-01-10T10:12:08.000Z</time>
      </trkpt>
      <trkpt lat="43.61703" lon="6.82233">
        <ele>162.4</ele>
        <time>2025-01-10T10:12:07.000Z</time>
      </trkpt>
      <trkpt lat="43.61708" lon="6.82234">
        <ele>162.2</ele>
        <time>2025-01-10T10:12:06.000Z</time>
      </trkpt>
      <trkpt lat="43.61712" lon="6.82235">
        <ele>162</ele>
        <time>2025-01-10T10:12:05.000Z</time>
      </trkpt>
      <trkpt lat="43.61716" lon="6.82236">
        <ele>161.8</ele>
        <time>2025-01-10T10:12:04.000Z</time>
      </trkpt>
      <trkpt lat="43.61721" lon="6.82237">
        <ele>161.6</ele>
        <time>2025-01-10T10:12:03.000Z</time>
      </trkpt>
      <trkpt lat="43.61725" lon="6.82238">
        <ele>161.4</ele>
        <time>2025-01-10T10:12:02.000Z</time>
      </trkpt>
      <trkpt lat="43.61729" lon="6.82238">
        <ele>161.2</ele>
        <time>2025-01-10T10:12:01.000Z</time>
      </trkpt>
      <trkpt lat="43.61733" lon="6.82239">
        <ele>161</ele>
        <time>2025-01-10T10:12:00.000Z</time>
      </trkpt>
      <trkpt lat="43.61737" lon="6.8224">
        <ele>160.8</ele>
        <time>2025-01-10T10:11:59.000Z</time>
      </trkpt>
      <trkpt lat="43.61742" lon="6.82242">
        <ele>160.6</ele>
        <time>2025-01-10T10:11:58.000Z</time>
      </trkpt>
      <trkpt lat="43.61746" lon="6.82244">
        <ele>160.4</ele>
        <time>2025-01-10T10:11:57.000Z</time>
      </trkpt>
      <trkpt lat="43.61749" lon="6.82246">
        <ele>160.2</ele>
        <time>2025-01-10T10:11:56.000Z</time>
      </trkpt>
      <trkpt lat="43.61753" lon="6.82248">
        <ele>160</ele>
        <time>2025-01-10T10:11:55.000Z</time>
      </trkpt>
      <trkpt lat="43.61757" lon="6.8225">
        <ele>159.8</ele>
        <time>2025-01-10T10:11:54.000Z</time>
      </trkpt>
      <trkpt lat="43.61761" lon="6.82252">
        <ele>159.7</ele>
        <time>2025-01-10T10:11:53.000Z</time>
      </trkpt>
      <trkpt lat="43.61765" lon="6.82255">
        <ele>159.5</ele>
        <time>2025-01-10T10:11:52.000Z</time>
      </trkpt>
      <trkpt lat="43.61768" lon="6.82257">
        <ele>159.3</ele>
        <time>2025-01-10T10:11:51.000Z</time>
      </trkpt>
      <trkpt lat="43.61772" lon="6.8226">
        <ele>159.1</ele>
        <time>2025-01-10T10:11:50.000Z</time>
      </trkpt>
      <trkpt lat="43.61775" lon="6.82263">
        <ele>158.9</ele>
        <time>2025-01-10T10:11:49.000Z</time>
      </trkpt>
      <trkpt lat="43.61779" lon="6.82266">
        <ele>158.7</ele>
        <time>2025-01-10T10:11:48.000Z</time>
      </trkpt>
      <trkpt lat="43.61782" lon="6.82269">
        <ele>158.5</ele>
        <time>2025-01-10T10:11:47.000Z</time>
      </trkpt>
      <trkpt lat="43.61784" lon="6.82272">
        <ele>158.4</ele>
        <time>2025-01-10T10:11:46.000Z</time>
      </trkpt>
      <trkpt lat="43.61787" lon="6.82275">
        <ele>158.2</ele>
        <time>2025-01-10T10:11:45.000Z</time>
      </trkpt>
      <trkpt lat="43.6179" lon="6.82278">
        <ele>158</ele>
        <time>2025-01-10T10:11:44.000Z</time>
      </trkpt>
      <trkpt lat="43.61793" lon="6.82282">
        <ele>157.8</ele>
        <time>2025-01-10T10:11:43.000Z</time>
      </trkpt>
      <trkpt lat="43.61795" lon="6.82285">
        <ele>157.6</ele>
        <time>2025-01-10T10:11:42.000Z</time>
      </trkpt>
      <trkpt lat="43.61797" lon="6.82287">
        <ele>157.5</ele>
        <time>2025-01-10T10:11:41.000Z</time>
      </trkpt>
      <trkpt lat="43.618" lon="6.8229">
        <ele>157.3</ele>
        <time>2025-01-10T10:11:40.000Z</time>
      </trkpt>
      <trkpt lat="43.61803" lon="6.82293">
        <ele>157.2</ele>
        <time>2025-01-10T10:11:39.000Z</time>
      </trkpt>
      <trkpt lat="43.61806" lon="6.82296">
        <ele>157</ele>
        <time>2025-01-10T10:11:38.000Z</time>
      </trkpt>
      <trkpt lat="43.61808" lon="6.82299">
        <ele>156.8</ele>
        <time>2025-01-10T10:11:37.000Z</time>
      </trkpt>
      <trkpt lat="43.6181" lon="6.82301">
        <ele>156.7</ele>
        <time>2025-01-10T10:11:36.000Z</time>
      </trkpt>
      <trkpt lat="43.61813" lon="6.82304">
        <ele>156.5</ele>
        <time>2025-01-10T10:11:35.000Z</time>
      </trkpt>
      <trkpt lat="43.61816" lon="6.82307">
        <ele>156.4</ele>
        <time>2025-01-10T10:11:34.000Z</time>
      </trkpt>
      <trkpt lat="43.61818" lon="6.82311">
        <ele>156.2</ele>
        <time>2025-01-10T10:11:33.000Z</time>
      </trkpt>
      <trkpt lat="43.6182" lon="6.82315">
        <ele>156.1</ele>
        <time>2025-01-10T10:11:32.000Z</time>
      </trkpt>
      <trkpt lat="43.61821" lon="6.8232">
        <ele>155.8</ele>
        <time>2025-01-10T10:11:31.000Z</time>
      </trkpt>
      <trkpt lat="43.61822" lon="6.82323">
        <ele>155.6</ele>
        <time>2025-01-10T10:11:30.000Z</time>
      </trkpt>
      <trkpt lat="43.61824" lon="6.82328">
        <ele>155.3</ele>
        <time>2025-01-10T10:11:29.000Z</time>
      </trkpt>
      <trkpt lat="43.61824" lon="6.82328">
        <ele>155.3</ele>
        <time>2025-01-10T10:11:28.000Z</time>
      </trkpt>
      <trkpt lat="43.61824" lon="6.82328">
        <ele>155.3</ele>
        <time>2025-01-10T10:11:27.000Z</time>
      </trkpt>
      <trkpt lat="43.61824" lon="6.82328">
        <ele>155.2</ele>
        <time>2025-01-10T10:11:26.000Z</time>
      </trkpt>
      <trkpt lat="43.61824" lon="6.82328">
        <ele>155.2</ele>
        <time>2025-01-10T10:11:25.000Z</time>
      </trkpt>
      <trkpt lat="43.61823" lon="6.82328">
        <ele>155.2</ele>
        <time>2025-01-10T10:11:24.000Z</time>
      </trkpt>
      <trkpt lat="43.61823" lon="6.82328">
        <ele>155.2</ele>
        <time>2025-01-10T10:11:23.000Z</time>
      </trkpt>
      <trkpt lat="43.61823" lon="6.82328">
        <ele>155.2</ele>
        <time>2025-01-10T10:11:22.000Z</time>
      </trkpt>
      <trkpt lat="43.61823" lon="6.82327">
        <ele>155.1</ele>
        <time>2025-01-10T10:11:21.000Z</time>
      </trkpt>
      <trkpt lat="43.61822" lon="6.82327">
        <ele>155.1</ele>
        <time>2025-01-10T10:11:20.000Z</time>
      </trkpt>
      <trkpt lat="43.61822" lon="6.82327">
        <ele>155.1</ele>
        <time>2025-01-10T10:11:19.000Z</time>
      </trkpt>
      <trkpt lat="43.61822" lon="6.82327">
        <ele>155.1</ele>
        <time>2025-01-10T10:11:18.000Z</time>
      </trkpt>
      <trkpt lat="43.61822" lon="6.82327">
        <ele>155.1</ele>
        <time>2025-01-10T10:11:17.000Z</time>
      </trkpt>
      <trkpt lat="43.61822" lon="6.82327">
        <ele>155.1</ele>
        <time>2025-01-10T10:11:16.000Z</time>
      </trkpt>
      <trkpt lat="43.61822" lon="6.82327">
        <ele>155.1</ele>
        <time>2025-01-10T10:11:15.000Z</time>
      </trkpt>
      <trkpt lat="43.61822" lon="6.82327">
        <ele>155.1</ele>
        <time>2025-01-10T10:11:14.000Z</time>
      </trkpt>
      <trkpt lat="43.61822" lon="6.82327">
        <ele>155.1</ele>
        <time>2025-01-10T10:11:13.000Z</time>
      </trkpt>
      <trkpt lat="43.61822" lon="6.82327">
        <ele>155.1</ele>
        <time>2025-01-10T10:11:12.000Z</time>
      </trkpt>
      <trkpt lat="43.61822" lon="6.82327">
        <ele>155.1</ele>
        <time>2025-01-10T10:11:11.000Z</time>
      </trkpt>
      <trkpt lat="43.61822" lon="6.82327">
        <ele>155.1</ele>
        <time>2025-01-10T10:11:10.000Z</time>
      </trkpt>
      <trkpt lat="43.61822" lon="6.82327">
        <ele>155.1</ele>
        <time>2025-01-10T10:11:09.000Z</time>
      </trkpt>
      <trkpt lat="43.61822" lon="6.82327">
        <ele>155.1</ele>
        <time>2025-01-10T10:11:08.000Z</time>
      </trkpt>
      <trkpt lat="43.61822" lon="6.82327">
        <ele>155.1</ele>
        <time>2025-01-10T10:11:07.000Z</time>
      </trkpt>
      <trkpt lat="43.61822" lon="6.82327">
        <ele>155.1</ele>
        <time>2025-01-10T10:11:06.000Z</time>
      </trkpt>
      <trkpt lat="43.61822" lon="6.82327">
        <ele>155.1</ele>
        <time>2025-01-10T10:11:05.000Z</time>
      </trkpt>
      <trkpt lat="43.61822" lon="6.82327">
        <ele>155.1</ele>
        <time>2025-01-10T10:11:04.000Z</time>
      </trkpt>
      <trkpt lat="43.61822" lon="6.82327">
        <ele>155.1</ele>
        <time>2025-01-10T10:11:03.000Z</time>
      </trkpt>
      <trkpt lat="43.61823" lon="6.82328">
        <ele>155</ele>
        <time>2025-01-10T10:11:02.000Z</time>
      </trkpt>
      <trkpt lat="43.61823" lon="6.82329">
        <ele>154.9</ele>
        <time>2025-01-10T10:11:01.000Z</time>
      </trkpt>
      <trkpt lat="43.61824" lon="6.8233">
        <ele>154.8</ele>
        <time>2025-01-10T10:11:00.000Z</time>
      </trkpt>
      <trkpt lat="43.61824" lon="6.82331">
        <ele>154.8</ele>
        <time>2025-01-10T10:10:59.000Z</time>
      </trkpt>
      <trkpt lat="43.61825" lon="6.82332">
        <ele>154.7</ele>
        <time>2025-01-10T10:10:58.000Z</time>
      </trkpt>
      <trkpt lat="43.61825" lon="6.82333">
        <ele>154.6</ele>
        <time>2025-01-10T10:10:57.000Z</time>
      </trkpt>
      <trkpt lat="43.61825" lon="6.82334">
        <ele>154.5</ele>
        <time>2025-01-10T10:10:56.000Z</time>
      </trkpt>
      <trkpt lat="43.61826" lon="6.82335">
        <ele>154.4</ele>
        <time>2025-01-10T10:10:55.000Z</time>
      </trkpt>
      <trkpt lat="43.61826" lon="6.82336">
        <ele>154.3</ele>
        <time>2025-01-10T10:10:54.000Z</time>
      </trkpt>
      <trkpt lat="43.61827" lon="6.82336">
        <ele>154.2</ele>
        <time>2025-01-10T10:10:53.000Z</time>
      </trkpt>
      <trkpt lat="43.61827" lon="6.82336">
        <ele>154.2</ele>
        <time>2025-01-10T10:10:52.000Z</time>
      </trkpt>
      <trkpt lat="43.61827" lon="6.82336">
        <ele>154.2</ele>
        <time>2025-01-10T10:10:51.000Z</time>
      </trkpt>
      <trkpt lat="43.61827" lon="6.82336">
        <ele>154.2</ele>
        <time>2025-01-10T10:10:50.000Z</time>
      </trkpt>
      <trkpt lat="43.61827" lon="6.82336">
        <ele>154.2</ele>
        <time>2025-01-10T10:10:49.000Z</time>
      </trkpt>
      <trkpt lat="43.61827" lon="6.82336">
        <ele>154.2</ele>
        <time>2025-01-10T10:10:48.000Z</time>
      </trkpt>
      <trkpt lat="43.61827" lon="6.82336">
        <ele>154.2</ele>
        <time>2025-01-10T10:10:47.000Z</time>
      </trkpt>
      <trkpt lat="43.61827" lon="6.82336">
        <ele>154.2</ele>
        <time>2025-01-10T10:10:46.000Z</time>
      </trkpt>
      <trkpt lat="43.61827" lon="6.82336">
        <ele>154.2</ele>
        <time>2025-01-10T10:10:45.000Z</time>
      </trkpt>
      <trkpt lat="43.61827" lon="6.82336">
        <ele>154.2</ele>
        <time>2025-01-10T10:10:44.000Z</time>
      </trkpt>
      <trkpt lat="43.61827" lon="6.82336">
        <ele>154.2</ele>
        <time>2025-01-10T10:10:43.000Z</time>
      </trkpt>
      <trkpt lat="43.61827" lon="6.82336">
        <ele>154.2</ele>
        <time>2025-01-10T10:10:42.000Z</time>
      </trkpt>
      <trkpt lat="43.61827" lon="6.82336">
        <ele>154.2</ele>
        <time>2025-01-10T10:10:41.000Z</time>
      </trkpt>
      <trkpt lat="43.61827" lon="6.82336">
        <ele>154.2</ele>
        <time>2025-01-10T10:10:40.000Z</time>
      </trkpt>
      <trkpt lat="43.61827" lon="6.82336">
        <ele>154.2</ele>
        <time>2025-01-10T10:10:39.000Z</time>
      </trkpt>
      <trkpt lat="43.61827" lon="6.82336">
        <ele>154.2</ele>
        <time>2025-01-10T10:10:38.000Z</time>
      </trkpt>
      <trkpt lat="43.61827" lon="6.82336">
        <ele>154.2</ele>
        <time>2025-01-10T10:10:37.000Z</time>
      </trkpt>
      <trkpt lat="43.61827" lon="6.82336">
        <ele>154.2</ele>
        <time>2025-01-10T10:10:36.000Z</time>
      </trkpt>
      <trkpt lat="43.61827" lon="6.82336">
        <ele>154.2</ele>
        <time>2025-01-10T10:10:35.000Z</time>
      </trkpt>
      <trkpt lat="43.61827" lon="6.82336">
        <ele>154.2</ele>
        <time>2025-01-10T10:10:34.000Z</time>
      </trkpt>
      <trkpt lat="43.61827" lon="6.82336">
        <ele>154.2</ele>
        <time>2025-01-10T10:10:33.000Z</time>
      </trkpt>
      <trkpt lat="43.61827" lon="6.82336">
        <ele>154.2</ele>
        <time>2025-01-10T10:10:32.000Z</time>
      </trkpt>
      <trkpt lat="43.61827" lon="6.82336">
        <ele>154.2</ele>
        <time>2025-01-10T10:10:31.000Z</time>
      </trkpt>
      <trkpt lat="43.61827" lon="6.82336">
        <ele>154.2</ele>
        <time>2025-01-10T10:10:30.000Z</time>
      </trkpt>
      <trkpt lat="43.61827" lon="6.82336">
        <ele>154.2</ele>
        <time>2025-01-10T10:10:29.000Z</time>
      </trkpt>
      <trkpt lat="43.61827" lon="6.82336">
        <ele>154.2</ele>
        <time>2025-01-10T10:10:28.000Z</time>
      </trkpt>
      <trkpt lat="43.61827" lon="6.82336">
        <ele>154.2</ele>
        <time>2025-01-10T10:10:27.000Z</time>
      </trkpt>
      <trkpt lat="43.61827" lon="6.82336">
        <ele>154.2</ele>
        <time>2025-01-10T10:10:26.000Z</time>
      </trkpt>
      <trkpt lat="43.61827" lon="6.82336">
        <ele>154.2</ele>
        <time>2025-01-10T10:10:25.000Z</time>
      </trkpt>
      <trkpt lat="43.61827" lon="6.82336">
        <ele>154.2</ele>
        <time>2025-01-10T10:10:24.000Z</time>
      </trkpt>
      <trkpt lat="43.61827" lon="6.82336">
        <ele>154.2</ele>
        <time>2025-01-10T10:10:23.000Z</time>
      </trkpt>
      <trkpt lat="43.61827" lon="6.82336">
        <ele>154.2</ele>
        <time>2025-01-10T10:10:22.000Z</time>
      </trkpt>
      <trkpt lat="43.61827" lon="6.82336">
        <ele>154.2</ele>
        <time>2025-01-10T10:10:21.000Z</time>
      </trkpt>
      <trkpt lat="43.61827" lon="6.82336">
        <ele>154.2</ele>
        <time>2025-01-10T10:10:20.000Z</time>
      </trkpt>
      <trkpt lat="43.61827" lon="6.82336">
        <ele>154.2</ele>
        <time>2025-01-10T10:10:19.000Z</time>
      </trkpt>
      <trkpt lat="43.61827" lon="6.82336">
        <ele>154.2</ele>
        <time>2025-01-10T10:10:18.000Z</time>
      </trkpt>
      <trkpt lat="43.61827" lon="6.82336">
        <ele>154.2</ele>
        <time>2025-01-10T10:10:17.000Z</time>
      </trkpt>
      <trkpt lat="43.61827" lon="6.82336">
        <ele>154.2</ele>
        <time>2025-01-10T10:10:16.000Z</time>
      </trkpt>
      <trkpt lat="43.61827" lon="6.82336">
        <ele>154.2</ele>
        <time>2025-01-10T10:10:15.000Z</time>
      </trkpt>
      <trkpt lat="43.61827" lon="6.82336">
        <ele>154.2</ele>
        <time>2025-01-10T10:10:14.000Z</time>
      </trkpt>
      <trkpt lat="43.61827" lon="6.82336">
        <ele>154.2</ele>
        <time>2025-01-10T10:10:13.000Z</time>
      </trkpt>
      <trkpt lat="43.61827" lon="6.82336">
        <ele>154.2</ele>
        <time>2025-01-10T10:10:12.000Z</time>
      </trkpt>
      <trkpt lat="43.61828" lon="6.82337">
        <ele>154.1</ele>
        <time>2025-01-10T10:10:11.000Z</time>
      </trkpt>
      <trkpt lat="43.61827" lon="6.82337">
        <ele>154.1</ele>
        <time>2025-01-10T10:10:10.000Z</time>
      </trkpt>
      <trkpt lat="43.61828" lon="6.82337">
        <ele>154</ele>
        <time>2025-01-10T10:10:09.000Z</time>
      </trkpt>
      <trkpt lat="43.61828" lon="6.82337">
        <ele>154</ele>
        <time>2025-01-10T10:10:08.000Z</time>
      </trkpt>
      <trkpt lat="43.61828" lon="6.82337">
        <ele>154</ele>
        <time>2025-01-10T10:10:07.000Z</time>
      </trkpt>
      <trkpt lat="43.61827" lon="6.82338">
        <ele>153.9</ele>
        <time>2025-01-10T10:10:06.000Z</time>
      </trkpt>
      <trkpt lat="43.61827" lon="6.82338">
        <ele>153.9</ele>
        <time>2025-01-10T10:10:05.000Z</time>
      </trkpt>
      <trkpt lat="43.61827" lon="6.82338">
        <ele>153.9</ele>
        <time>2025-01-10T10:10:04.000Z</time>
      </trkpt>
      <trkpt lat="43.61827" lon="6.82338">
        <ele>153.9</ele>
        <time>2025-01-10T10:10:03.000Z</time>
      </trkpt>
      <trkpt lat="43.61827" lon="6.82338">
        <ele>153.8</ele>
        <time>2025-01-10T10:10:02.000Z</time>
      </trkpt>
      <trkpt lat="43.61827" lon="6.82339">
        <ele>153.8</ele>
        <time>2025-01-10T10:10:01.000Z</time>
      </trkpt>
      <trkpt lat="43.61828" lon="6.82339">
        <ele>153.7</ele>
        <time>2025-01-10T10:10:00.000Z</time>
      </trkpt>
      <trkpt lat="43.61828" lon="6.82339">
        <ele>153.7</ele>
        <time>2025-01-10T10:09:59.000Z</time>
      </trkpt>
      <trkpt lat="43.61828" lon="6.8234">
        <ele>153.6</ele>
        <time>2025-01-10T10:09:58.000Z</time>
      </trkpt>
      <trkpt lat="43.61829" lon="6.8234">
        <ele>153.5</ele>
        <time>2025-01-10T10:09:57.000Z</time>
      </trkpt>
      <trkpt lat="43.6183" lon="6.82341">
        <ele>153.3</ele>
        <time>2025-01-10T10:09:56.000Z</time>
      </trkpt>
      <trkpt lat="43.61831" lon="6.82343">
        <ele>153.2</ele>
        <time>2025-01-10T10:09:55.000Z</time>
      </trkpt>
      <trkpt lat="43.61833" lon="6.82344">
        <ele>152.9</ele>
        <time>2025-01-10T10:09:54.000Z</time>
      </trkpt>
      <trkpt lat="43.61834" lon="6.82346">
        <ele>152.7</ele>
        <time>2025-01-10T10:09:53.000Z</time>
      </trkpt>
      <trkpt lat="43.61836" lon="6.82348">
        <ele>152.3</ele>
        <time>2025-01-10T10:09:52.000Z</time>
      </trkpt>
      <trkpt lat="43.61838" lon="6.8235">
        <ele>152.1</ele>
        <time>2025-01-10T10:09:51.000Z</time>
      </trkpt>
      <trkpt lat="43.6184" lon="6.82352">
        <ele>151.8</ele>
        <time>2025-01-10T10:09:50.000Z</time>
      </trkpt>
      <trkpt lat="43.61841" lon="6.82353">
        <ele>151.6</ele>
        <time>2025-01-10T10:09:49.000Z</time>
      </trkpt>
      <trkpt lat="43.61843" lon="6.82355">
        <ele>151.3</ele>
        <time>2025-01-10T10:09:48.000Z</time>
      </trkpt>
      <trkpt lat="43.61844" lon="6.82357">
        <ele>151.1</ele>
        <time>2025-01-10T10:09:47.000Z</time>
      </trkpt>
      <trkpt lat="43.61846" lon="6.82359">
        <ele>150.8</ele>
        <time>2025-01-10T10:09:46.000Z</time>
      </trkpt>
      <trkpt lat="43.61847" lon="6.8236">
        <ele>150.7</ele>
        <time>2025-01-10T10:09:45.000Z</time>
      </trkpt>
      <trkpt lat="43.61847" lon="6.8236">
        <ele>150.6</ele>
        <time>2025-01-10T10:09:44.000Z</time>
      </trkpt>
      <trkpt lat="43.61847" lon="6.82361">
        <ele>150.6</ele>
        <time>2025-01-10T10:09:43.000Z</time>
      </trkpt>
      <trkpt lat="43.61847" lon="6.82361">
        <ele>150.6</ele>
        <time>2025-01-10T10:09:42.000Z</time>
      </trkpt>
      <trkpt lat="43.61847" lon="6.82361">
        <ele>150.6</ele>
        <time>2025-01-10T10:09:41.000Z</time>
      </trkpt>
      <trkpt lat="43.61847" lon="6.82361">
        <ele>150.6</ele>
        <time>2025-01-10T10:09:40.000Z</time>
      </trkpt>
      <trkpt lat="43.61847" lon="6.82361">
        <ele>150.5</ele>
        <time>2025-01-10T10:09:39.000Z</time>
      </trkpt>
      <trkpt lat="43.61848" lon="6.82361">
        <ele>150.5</ele>
        <time>2025-01-10T10:09:38.000Z</time>
      </trkpt>
      <trkpt lat="43.61848" lon="6.82361">
        <ele>150.5</ele>
        <time>2025-01-10T10:09:37.000Z</time>
      </trkpt>
      <trkpt lat="43.61848" lon="6.82362">
        <ele>150.4</ele>
        <time>2025-01-10T10:09:36.000Z</time>
      </trkpt>
      <trkpt lat="43.61848" lon="6.82362">
        <ele>150.4</ele>
        <time>2025-01-10T10:09:35.000Z</time>
      </trkpt>
      <trkpt lat="43.61848" lon="6.82362">
        <ele>150.4</ele>
        <time>2025-01-10T10:09:34.000Z</time>
      </trkpt>
      <trkpt lat="43.61848" lon="6.82363">
        <ele>150.3</ele>
        <time>2025-01-10T10:09:33.000Z</time>
      </trkpt>
      <trkpt lat="43.61849" lon="6.82363">
        <ele>150.3</ele>
        <time>2025-01-10T10:09:32.000Z</time>
      </trkpt>
      <trkpt lat="43.61851" lon="6.82365">
        <ele>150.1</ele>
        <time>2025-01-10T10:09:31.000Z</time>
      </trkpt>
      <trkpt lat="43.61852" lon="6.82367">
        <ele>149.8</ele>
        <time>2025-01-10T10:09:30.000Z</time>
      </trkpt>
      <trkpt lat="43.61854" lon="6.82369">
        <ele>149.6</ele>
        <time>2025-01-10T10:09:29.000Z</time>
      </trkpt>
      <trkpt lat="43.61856" lon="6.82371">
        <ele>149.4</ele>
        <time>2025-01-10T10:09:28.000Z</time>
      </trkpt>
      <trkpt lat="43.61858" lon="6.82374">
        <ele>149.1</ele>
        <time>2025-01-10T10:09:27.000Z</time>
      </trkpt>
      <trkpt lat="43.61861" lon="6.82377">
        <ele>148.7</ele>
        <time>2025-01-10T10:09:26.000Z</time>
      </trkpt>
      <trkpt lat="43.61864" lon="6.82379">
        <ele>148.4</ele>
        <time>2025-01-10T10:09:25.000Z</time>
      </trkpt>
      <trkpt lat="43.61866" lon="6.82381">
        <ele>148.2</ele>
        <time>2025-01-10T10:09:24.000Z</time>
      </trkpt>
      <trkpt lat="43.61869" lon="6.82382">
        <ele>147.9</ele>
        <time>2025-01-10T10:09:23.000Z</time>
      </trkpt>
      <trkpt lat="43.61871" lon="6.82384">
        <ele>147.7</ele>
        <time>2025-01-10T10:09:22.000Z</time>
      </trkpt>
      <trkpt lat="43.61874" lon="6.82386">
        <ele>147.3</ele>
        <time>2025-01-10T10:09:21.000Z</time>
      </trkpt>
      <trkpt lat="43.61877" lon="6.82388">
        <ele>147</ele>
        <time>2025-01-10T10:09:20.000Z</time>
      </trkpt>
      <trkpt lat="43.61879" lon="6.82389">
        <ele>146.8</ele>
        <time>2025-01-10T10:09:19.000Z</time>
      </trkpt>
      <trkpt lat="43.61882" lon="6.82391">
        <ele>146.4</ele>
        <time>2025-01-10T10:09:18.000Z</time>
      </trkpt>
      <trkpt lat="43.61885" lon="6.82393">
        <ele>146.1</ele>
        <time>2025-01-10T10:09:17.000Z</time>
      </trkpt>
      <trkpt lat="43.61888" lon="6.82396">
        <ele>145.7</ele>
        <time>2025-01-10T10:09:16.000Z</time>
      </trkpt>
      <trkpt lat="43.61891" lon="6.82398">
        <ele>145.4</ele>
        <time>2025-01-10T10:09:15.000Z</time>
      </trkpt>
      <trkpt lat="43.61894" lon="6.824">
        <ele>145.1</ele>
        <time>2025-01-10T10:09:14.000Z</time>
      </trkpt>
      <trkpt lat="43.61896" lon="6.82402">
        <ele>144.8</ele>
        <time>2025-01-10T10:09:13.000Z</time>
      </trkpt>
      <trkpt lat="43.61899" lon="6.82405">
        <ele>144.5</ele>
        <time>2025-01-10T10:09:12.000Z</time>
      </trkpt>
      <trkpt lat="43.61901" lon="6.82409">
        <ele>144.1</ele>
        <time>2025-01-10T10:09:11.000Z</time>
      </trkpt>
      <trkpt lat="43.61903" lon="6.82411">
        <ele>143.9</ele>
        <time>2025-01-10T10:09:10.000Z</time>
      </trkpt>
      <trkpt lat="43.61905" lon="6.82413">
        <ele>143.6</ele>
        <time>2025-01-10T10:09:09.000Z</time>
      </trkpt>
      <trkpt lat="43.61908" lon="6.82415">
        <ele>143.4</ele>
        <time>2025-01-10T10:09:08.000Z</time>
      </trkpt>
      <trkpt lat="43.6191" lon="6.82417">
        <ele>143.1</ele>
        <time>2025-01-10T10:09:07.000Z</time>
      </trkpt>
      <trkpt lat="43.61913" lon="6.82418">
        <ele>142.8</ele>
        <time>2025-01-10T10:09:06.000Z</time>
      </trkpt>
      <trkpt lat="43.61915" lon="6.8242">
        <ele>142.6</ele>
        <time>2025-01-10T10:09:05.000Z</time>
      </trkpt>
      <trkpt lat="43.61917" lon="6.82421">
        <ele>142.4</ele>
        <time>2025-01-10T10:09:04.000Z</time>
      </trkpt>
      <trkpt lat="43.61918" lon="6.82421">
        <ele>142.3</ele>
        <time>2025-01-10T10:09:03.000Z</time>
      </trkpt>
      <trkpt lat="43.6192" lon="6.82421">
        <ele>142.1</ele>
        <time>2025-01-10T10:09:02.000Z</time>
      </trkpt>
      <trkpt lat="43.61922" lon="6.82421">
        <ele>141.9</ele>
        <time>2025-01-10T10:09:01.000Z</time>
      </trkpt>
      <trkpt lat="43.61925" lon="6.82421">
        <ele>141.6</ele>
        <time>2025-01-10T10:09:00.000Z</time>
      </trkpt>
      <trkpt lat="43.61927" lon="6.82421">
        <ele>141.3</ele>
        <time>2025-01-10T10:08:59.000Z</time>
      </trkpt>
      <trkpt lat="43.6193" lon="6.82421">
        <ele>141</ele>
        <time>2025-01-10T10:08:58.000Z</time>
      </trkpt>
      <trkpt lat="43.61932" lon="6.82421">
        <ele>140.7</ele>
        <time>2025-01-10T10:08:57.000Z</time>
      </trkpt>
      <trkpt lat="43.61935" lon="6.82421">
        <ele>140.4</ele>
        <time>2025-01-10T10:08:56.000Z</time>
      </trkpt>
      <trkpt lat="43.61937" lon="6.82421">
        <ele>140</ele>
        <time>2025-01-10T10:08:55.000Z</time>
      </trkpt>
      <trkpt lat="43.61939" lon="6.82421">
        <ele>139.8</ele>
        <time>2025-01-10T10:08:54.000Z</time>
      </trkpt>
      <trkpt lat="43.61941" lon="6.82421">
        <ele>139.5</ele>
        <time>2025-01-10T10:08:53.000Z</time>
      </trkpt>
      <trkpt lat="43.61944" lon="6.82422">
        <ele>139</ele>
        <time>2025-01-10T10:08:52.000Z</time>
      </trkpt>
      <trkpt lat="43.61947" lon="6.82423">
        <ele>138.6</ele>
        <time>2025-01-10T10:08:51.000Z</time>
      </trkpt>
      <trkpt lat="43.61949" lon="6.82424">
        <ele>138.2</ele>
        <time>2025-01-10T10:08:50.000Z</time>
      </trkpt>
      <trkpt lat="43.61951" lon="6.82425">
        <ele>137.8</ele>
        <time>2025-01-10T10:08:49.000Z</time>
      </trkpt>
      <trkpt lat="43.61953" lon="6.82426">
        <ele>137.5</ele>
        <time>2025-01-10T10:08:48.000Z</time>
      </trkpt>
      <trkpt lat="43.61955" lon="6.82427">
        <ele>137.1</ele>
        <time>2025-01-10T10:08:47.000Z</time>
      </trkpt>
      <trkpt lat="43.61958" lon="6.82428">
        <ele>136.7</ele>
        <time>2025-01-10T10:08:46.000Z</time>
      </trkpt>
      <trkpt lat="43.61961" lon="6.82429">
        <ele>136.2</ele>
        <time>2025-01-10T10:08:45.000Z</time>
      </trkpt>
      <trkpt lat="43.61963" lon="6.82431">
        <ele>135.8</ele>
        <time>2025-01-10T10:08:44.000Z</time>
      </trkpt>
      <trkpt lat="43.61965" lon="6.82432">
        <ele>135.5</ele>
        <time>2025-01-10T10:08:43.000Z</time>
      </trkpt>
      <trkpt lat="43.61967" lon="6.82434">
        <ele>135.1</ele>
        <time>2025-01-10T10:08:42.000Z</time>
      </trkpt>
      <trkpt lat="43.6197" lon="6.82435">
        <ele>134.7</ele>
        <time>2025-01-10T10:08:41.000Z</time>
      </trkpt>
      <trkpt lat="43.61972" lon="6.82437">
        <ele>134.2</ele>
        <time>2025-01-10T10:08:40.000Z</time>
      </trkpt>
      <trkpt lat="43.61975" lon="6.82438">
        <ele>133.8</ele>
        <time>2025-01-10T10:08:39.000Z</time>
      </trkpt>
      <trkpt lat="43.61977" lon="6.82438">
        <ele>133.5</ele>
        <time>2025-01-10T10:08:38.000Z</time>
      </trkpt>
      <trkpt lat="43.61979" lon="6.82439">
        <ele>133.2</ele>
        <time>2025-01-10T10:08:37.000Z</time>
      </trkpt>
      <trkpt lat="43.61981" lon="6.82441">
        <ele>132.8</ele>
        <time>2025-01-10T10:08:36.000Z</time>
      </trkpt>
      <trkpt lat="43.61983" lon="6.82443">
        <ele>132.3</ele>
        <time>2025-01-10T10:08:35.000Z</time>
      </trkpt>
      <trkpt lat="43.61985" lon="6.82445">
        <ele>132</ele>
        <time>2025-01-10T10:08:34.000Z</time>
      </trkpt>
      <trkpt lat="43.61987" lon="6.82447">
        <ele>131.6</ele>
        <time>2025-01-10T10:08:33.000Z</time>
      </trkpt>
      <trkpt lat="43.61989" lon="6.82448">
        <ele>131.3</ele>
        <time>2025-01-10T10:08:32.000Z</time>
      </trkpt>
      <trkpt lat="43.61991" lon="6.82449">
        <ele>131</ele>
        <time>2025-01-10T10:08:31.000Z</time>
      </trkpt>
      <trkpt lat="43.61993" lon="6.8245">
        <ele>130.6</ele>
        <time>2025-01-10T10:08:30.000Z</time>
      </trkpt>
      <trkpt lat="43.61996" lon="6.82451">
        <ele>130.2</ele>
        <time>2025-01-10T10:08:29.000Z</time>
      </trkpt>
      <trkpt lat="43.61998" lon="6.82452">
        <ele>129.8</ele>
        <time>2025-01-10T10:08:28.000Z</time>
      </trkpt>
      <trkpt lat="43.62" lon="6.82454">
        <ele>129.5</ele>
        <time>2025-01-10T10:08:27.000Z</time>
      </trkpt>
      <trkpt lat="43.62002" lon="6.82456">
        <ele>129.2</ele>
        <time>2025-01-10T10:08:26.000Z</time>
      </trkpt>
      <trkpt lat="43.62004" lon="6.82458">
        <ele>128.9</ele>
        <time>2025-01-10T10:08:25.000Z</time>
      </trkpt>
      <trkpt lat="43.62006" lon="6.82459">
        <ele>128.5</ele>
        <time>2025-01-10T10:08:24.000Z</time>
      </trkpt>
      <trkpt lat="43.62008" lon="6.82461">
        <ele>128.3</ele>
        <time>2025-01-10T10:08:23.000Z</time>
      </trkpt>
      <trkpt lat="43.6201" lon="6.82462">
        <ele>128</ele>
        <time>2025-01-10T10:08:22.000Z</time>
      </trkpt>
      <trkpt lat="43.62012" lon="6.82464">
        <ele>127.7</ele>
        <time>2025-01-10T10:08:21.000Z</time>
      </trkpt>
      <trkpt lat="43.62014" lon="6.82465">
        <ele>127.4</ele>
        <time>2025-01-10T10:08:20.000Z</time>
      </trkpt>
      <trkpt lat="43.62016" lon="6.82467">
        <ele>127</ele>
        <time>2025-01-10T10:08:19.000Z</time>
      </trkpt>
      <trkpt lat="43.62019" lon="6.82468">
        <ele>126.7</ele>
        <time>2025-01-10T10:08:18.000Z</time>
      </trkpt>
      <trkpt lat="43.62021" lon="6.82469">
        <ele>126.4</ele>
        <time>2025-01-10T10:08:17.000Z</time>
      </trkpt>
      <trkpt lat="43.62023" lon="6.82471">
        <ele>126.1</ele>
        <time>2025-01-10T10:08:16.000Z</time>
      </trkpt>
      <trkpt lat="43.62026" lon="6.82472">
        <ele>125.6</ele>
        <time>2025-01-10T10:08:15.000Z</time>
      </trkpt>
      <trkpt lat="43.62028" lon="6.82473">
        <ele>125.4</ele>
        <time>2025-01-10T10:08:14.000Z</time>
      </trkpt>
      <trkpt lat="43.6203" lon="6.82474">
        <ele>125</ele>
        <time>2025-01-10T10:08:13.000Z</time>
      </trkpt>
      <trkpt lat="43.62032" lon="6.82474">
        <ele>124.8</ele>
        <time>2025-01-10T10:08:12.000Z</time>
      </trkpt>
      <trkpt lat="43.62034" lon="6.82475">
        <ele>124.5</ele>
        <time>2025-01-10T10:08:11.000Z</time>
      </trkpt>
      <trkpt lat="43.62037" lon="6.82477">
        <ele>124.1</ele>
        <time>2025-01-10T10:08:10.000Z</time>
      </trkpt>
      <trkpt lat="43.62039" lon="6.82479">
        <ele>123.8</ele>
        <time>2025-01-10T10:08:09.000Z</time>
      </trkpt>
      <trkpt lat="43.62042" lon="6.8248">
        <ele>123.4</ele>
        <time>2025-01-10T10:08:08.000Z</time>
      </trkpt>
      <trkpt lat="43.62044" lon="6.82481">
        <ele>123.1</ele>
        <time>2025-01-10T10:08:07.000Z</time>
      </trkpt>
      <trkpt lat="43.62047" lon="6.82482">
        <ele>122.9</ele>
        <time>2025-01-10T10:08:06.000Z</time>
      </trkpt>
      <trkpt lat="43.6205" lon="6.82483">
        <ele>122.5</ele>
        <time>2025-01-10T10:08:05.000Z</time>
      </trkpt>
      <trkpt lat="43.62053" lon="6.82484">
        <ele>122.2</ele>
        <time>2025-01-10T10:08:04.000Z</time>
      </trkpt>
      <trkpt lat="43.62054" lon="6.82486">
        <ele>122</ele>
        <time>2025-01-10T10:08:03.000Z</time>
      </trkpt>
      <trkpt lat="43.62056" lon="6.82488">
        <ele>121.7</ele>
        <time>2025-01-10T10:08:02.000Z</time>
      </trkpt>
      <trkpt lat="43.62059" lon="6.82489">
        <ele>121.4</ele>
        <time>2025-01-10T10:08:01.000Z</time>
      </trkpt>
      <trkpt lat="43.62061" lon="6.82491">
        <ele>121.1</ele>
        <time>2025-01-10T10:08:00.000Z</time>
      </trkpt>
      <trkpt lat="43.62062" lon="6.82492">
        <ele>120.9</ele>
        <time>2025-01-10T10:07:59.000Z</time>
      </trkpt>
      <trkpt lat="43.62063" lon="6.82492">
        <ele>120.8</ele>
        <time>2025-01-10T10:07:58.000Z</time>
      </trkpt>
      <trkpt lat="43.62063" lon="6.82493">
        <ele>120.8</ele>
        <time>2025-01-10T10:07:57.000Z</time>
      </trkpt>
      <trkpt lat="43.62064" lon="6.82494">
        <ele>120.7</ele>
        <time>2025-01-10T10:07:56.000Z</time>
      </trkpt>
      <trkpt lat="43.62064" lon="6.82494">
        <ele>120.6</ele>
        <time>2025-01-10T10:07:55.000Z</time>
      </trkpt>
      <trkpt lat="43.62066" lon="6.82495">
        <ele>120.5</ele>
        <time>2025-01-10T10:07:54.000Z</time>
      </trkpt>
      <trkpt lat="43.62068" lon="6.82495">
        <ele>120.2</ele>
        <time>2025-01-10T10:07:53.000Z</time>
      </trkpt>
      <trkpt lat="43.6207" lon="6.82495">
        <ele>120</ele>
        <time>2025-01-10T10:07:52.000Z</time>
      </trkpt>
      <trkpt lat="43.62072" lon="6.82495">
        <ele>119.7</ele>
        <time>2025-01-10T10:07:51.000Z</time>
      </trkpt>
      <trkpt lat="43.62074" lon="6.82495">
        <ele>119.5</ele>
        <time>2025-01-10T10:07:50.000Z</time>
      </trkpt>
      <trkpt lat="43.62077" lon="6.82495">
        <ele>119.1</ele>
        <time>2025-01-10T10:07:49.000Z</time>
      </trkpt>
      <trkpt lat="43.62079" lon="6.82496">
        <ele>118.9</ele>
        <time>2025-01-10T10:07:48.000Z</time>
      </trkpt>
      <trkpt lat="43.62081" lon="6.82496">
        <ele>118.7</ele>
        <time>2025-01-10T10:07:47.000Z</time>
      </trkpt>
      <trkpt lat="43.62083" lon="6.82496">
        <ele>118.5</ele>
        <time>2025-01-10T10:07:46.000Z</time>
      </trkpt>
      <trkpt lat="43.62085" lon="6.82497">
        <ele>118.3</ele>
        <time>2025-01-10T10:07:45.000Z</time>
      </trkpt>
      <trkpt lat="43.62087" lon="6.82498">
        <ele>118</ele>
        <time>2025-01-10T10:07:44.000Z</time>
      </trkpt>
      <trkpt lat="43.6209" lon="6.82499">
        <ele>117.7</ele>
        <time>2025-01-10T10:07:43.000Z</time>
      </trkpt>
      <trkpt lat="43.62092" lon="6.825">
        <ele>117.4</ele>
        <time>2025-01-10T10:07:42.000Z</time>
      </trkpt>
      <trkpt lat="43.62094" lon="6.82501">
        <ele>117.2</ele>
        <time>2025-01-10T10:07:41.000Z</time>
      </trkpt>
      <trkpt lat="43.62096" lon="6.82503">
        <ele>117</ele>
        <time>2025-01-10T10:07:40.000Z</time>
      </trkpt>
      <trkpt lat="43.62098" lon="6.82503">
        <ele>116.8</ele>
        <time>2025-01-10T10:07:39.000Z</time>
      </trkpt>
      <trkpt lat="43.621" lon="6.82504">
        <ele>116.5</ele>
        <time>2025-01-10T10:07:38.000Z</time>
      </trkpt>
      <trkpt lat="43.62102" lon="6.82506">
        <ele>116.3</ele>
        <time>2025-01-10T10:07:37.000Z</time>
      </trkpt>
      <trkpt lat="43.62104" lon="6.82506">
        <ele>116.1</ele>
        <time>2025-01-10T10:07:36.000Z</time>
      </trkpt>
      <trkpt lat="43.62106" lon="6.82507">
        <ele>115.9</ele>
        <time>2025-01-10T10:07:35.000Z</time>
      </trkpt>
      <trkpt lat="43.62108" lon="6.82507">
        <ele>115.7</ele>
        <time>2025-01-10T10:07:34.000Z</time>
      </trkpt>
      <trkpt lat="43.62111" lon="6.82507">
        <ele>115.5</ele>
        <time>2025-01-10T10:07:33.000Z</time>
      </trkpt>
      <trkpt lat="43.62113" lon="6.82507">
        <ele>115.3</ele>
        <time>2025-01-10T10:07:32.000Z</time>
      </trkpt>
      <trkpt lat="43.62115" lon="6.82507">
        <ele>115.1</ele>
        <time>2025-01-10T10:07:31.000Z</time>
      </trkpt>
      <trkpt lat="43.62119" lon="6.82507">
        <ele>114.8</ele>
        <time>2025-01-10T10:07:30.000Z</time>
      </trkpt>
      <trkpt lat="43.62122" lon="6.82507">
        <ele>114.6</ele>
        <time>2025-01-10T10:07:29.000Z</time>
      </trkpt>
      <trkpt lat="43.62126" lon="6.82507">
        <ele>114.3</ele>
        <time>2025-01-10T10:07:28.000Z</time>
      </trkpt>
      <trkpt lat="43.62129" lon="6.82507">
        <ele>114</ele>
        <time>2025-01-10T10:07:27.000Z</time>
      </trkpt>
      <trkpt lat="43.62132" lon="6.82506">
        <ele>113.8</ele>
        <time>2025-01-10T10:07:26.000Z</time>
      </trkpt>
      <trkpt lat="43.62134" lon="6.82506">
        <ele>113.6</ele>
        <time>2025-01-10T10:07:25.000Z</time>
      </trkpt>
      <trkpt lat="43.62137" lon="6.82506">
        <ele>113.3</ele>
        <time>2025-01-10T10:07:24.000Z</time>
      </trkpt>
      <trkpt lat="43.6214" lon="6.82505">
        <ele>113</ele>
        <time>2025-01-10T10:07:23.000Z</time>
      </trkpt>
      <trkpt lat="43.6214" lon="6.82505">
        <ele>113</ele>
        <time>2025-01-10T10:07:22.000Z</time>
      </trkpt>
      <trkpt lat="43.6214" lon="6.82505">
        <ele>113</ele>
        <time>2025-01-10T10:07:21.000Z</time>
      </trkpt>
      <trkpt lat="43.6214" lon="6.82505">
        <ele>113</ele>
        <time>2025-01-10T10:07:20.000Z</time>
      </trkpt>
      <trkpt lat="43.6214" lon="6.82505">
        <ele>113</ele>
        <time>2025-01-10T10:07:19.000Z</time>
      </trkpt>
      <trkpt lat="43.6214" lon="6.82506">
        <ele>113</ele>
        <time>2025-01-10T10:07:18.000Z</time>
      </trkpt>
      <trkpt lat="43.6214" lon="6.82506">
        <ele>113</ele>
        <time>2025-01-10T10:07:17.000Z</time>
      </trkpt>
      <trkpt lat="43.6214" lon="6.82506">
        <ele>112.9</ele>
        <time>2025-01-10T10:07:16.000Z</time>
      </trkpt>
      <trkpt lat="43.6214" lon="6.82506">
        <ele>112.9</ele>
        <time>2025-01-10T10:07:15.000Z</time>
      </trkpt>
      <trkpt lat="43.6214" lon="6.82506">
        <ele>112.9</ele>
        <time>2025-01-10T10:07:14.000Z</time>
      </trkpt>
      <trkpt lat="43.6214" lon="6.82506">
        <ele>112.9</ele>
        <time>2025-01-10T10:07:13.000Z</time>
      </trkpt>
      <trkpt lat="43.6214" lon="6.82506">
        <ele>112.9</ele>
        <time>2025-01-10T10:07:12.000Z</time>
      </trkpt>
      <trkpt lat="43.6214" lon="6.82506">
        <ele>112.9</ele>
        <time>2025-01-10T10:07:11.000Z</time>
      </trkpt>
      <trkpt lat="43.6214" lon="6.82506">
        <ele>112.9</ele>
        <time>2025-01-10T10:07:10.000Z</time>
      </trkpt>
      <trkpt lat="43.6214" lon="6.82506">
        <ele>112.9</ele>
        <time>2025-01-10T10:07:09.000Z</time>
      </trkpt>
      <trkpt lat="43.6214" lon="6.82506">
        <ele>112.9</ele>
        <time>2025-01-10T10:07:08.000Z</time>
      </trkpt>
      <trkpt lat="43.6214" lon="6.82506">
        <ele>112.9</ele>
        <time>2025-01-10T10:07:07.000Z</time>
      </trkpt>
      <trkpt lat="43.62139" lon="6.82506">
        <ele>112.9</ele>
        <time>2025-01-10T10:07:06.000Z</time>
      </trkpt>
      <trkpt lat="43.62139" lon="6.82506">
        <ele>112.9</ele>
        <time>2025-01-10T10:07:05.000Z</time>
      </trkpt>
      <trkpt lat="43.62139" lon="6.82506">
        <ele>112.9</ele>
        <time>2025-01-10T10:07:04.000Z</time>
      </trkpt>
      <trkpt lat="43.62139" lon="6.82506">
        <ele>112.9</ele>
        <time>2025-01-10T10:07:03.000Z</time>
      </trkpt>
      <trkpt lat="43.62139" lon="6.82506">
        <ele>112.9</ele>
        <time>2025-01-10T10:07:02.000Z</time>
      </trkpt>
      <trkpt lat="43.62139" lon="6.82506">
        <ele>112.9</ele>
        <time>2025-01-10T10:07:01.000Z</time>
      </trkpt>
      <trkpt lat="43.62139" lon="6.82506">
        <ele>112.9</ele>
        <time>2025-01-10T10:07:00.000Z</time>
      </trkpt>
      <trkpt lat="43.62139" lon="6.82506">
        <ele>112.9</ele>
        <time>2025-01-10T10:06:59.000Z</time>
      </trkpt>
      <trkpt lat="43.62139" lon="6.82506">
        <ele>112.9</ele>
        <time>2025-01-10T10:06:58.000Z</time>
      </trkpt>
      <trkpt lat="43.6214" lon="6.82507">
        <ele>112.8</ele>
        <time>2025-01-10T10:06:57.000Z</time>
      </trkpt>
      <trkpt lat="43.6214" lon="6.82507">
        <ele>112.7</ele>
        <time>2025-01-10T10:06:56.000Z</time>
      </trkpt>
      <trkpt lat="43.6214" lon="6.82508">
        <ele>112.7</ele>
        <time>2025-01-10T10:06:55.000Z</time>
      </trkpt>
      <trkpt lat="43.62141" lon="6.82508">
        <ele>112.7</ele>
        <time>2025-01-10T10:06:54.000Z</time>
      </trkpt>
      <trkpt lat="43.62141" lon="6.82509">
        <ele>112.6</ele>
        <time>2025-01-10T10:06:53.000Z</time>
      </trkpt>
      <trkpt lat="43.62141" lon="6.8251">
        <ele>112.5</ele>
        <time>2025-01-10T10:06:52.000Z</time>
      </trkpt>
      <trkpt lat="43.62141" lon="6.8251">
        <ele>112.5</ele>
        <time>2025-01-10T10:06:51.000Z</time>
      </trkpt>
      <trkpt lat="43.62142" lon="6.8251">
        <ele>112.5</ele>
        <time>2025-01-10T10:06:50.000Z</time>
      </trkpt>
      <trkpt lat="43.62142" lon="6.82509">
        <ele>112.5</ele>
        <time>2025-01-10T10:06:49.000Z</time>
      </trkpt>
      <trkpt lat="43.62142" lon="6.82509">
        <ele>112.5</ele>
        <time>2025-01-10T10:06:48.000Z</time>
      </trkpt>
      <trkpt lat="43.62142" lon="6.82509">
        <ele>112.4</ele>
        <time>2025-01-10T10:06:47.000Z</time>
      </trkpt>
      <trkpt lat="43.62142" lon="6.82509">
        <ele>112.4</ele>
        <time>2025-01-10T10:06:46.000Z</time>
      </trkpt>
      <trkpt lat="43.62143" lon="6.82509">
        <ele>112.4</ele>
        <time>2025-01-10T10:06:45.000Z</time>
      </trkpt>
      <trkpt lat="43.62143" lon="6.82509">
        <ele>112.4</ele>
        <time>2025-01-10T10:06:44.000Z</time>
      </trkpt>
      <trkpt lat="43.62143" lon="6.82509">
        <ele>112.4</ele>
        <time>2025-01-10T10:06:43.000Z</time>
      </trkpt>
      <trkpt lat="43.62143" lon="6.8251">
        <ele>112.3</ele>
        <time>2025-01-10T10:06:42.000Z</time>
      </trkpt>
      <trkpt lat="43.62144" lon="6.8251">
        <ele>112.3</ele>
        <time>2025-01-10T10:06:41.000Z</time>
      </trkpt>
      <trkpt lat="43.62145" lon="6.82509">
        <ele>112.2</ele>
        <time>2025-01-10T10:06:40.000Z</time>
      </trkpt>
      <trkpt lat="43.62146" lon="6.82509">
        <ele>112.1</ele>
        <time>2025-01-10T10:06:39.000Z</time>
      </trkpt>
      <trkpt lat="43.62147" lon="6.82508">
        <ele>112</ele>
        <time>2025-01-10T10:06:38.000Z</time>
      </trkpt>
      <trkpt lat="43.62147" lon="6.82508">
        <ele>111.9</ele>
        <time>2025-01-10T10:06:37.000Z</time>
      </trkpt>
      <trkpt lat="43.62149" lon="6.82507">
        <ele>111.7</ele>
        <time>2025-01-10T10:06:36.000Z</time>
      </trkpt>
      <trkpt lat="43.6215" lon="6.82506">
        <ele>111.6</ele>
        <time>2025-01-10T10:06:35.000Z</time>
      </trkpt>
      <trkpt lat="43.6215" lon="6.82505">
        <ele>111.5</ele>
        <time>2025-01-10T10:06:34.000Z</time>
      </trkpt>
      <trkpt lat="43.62151" lon="6.82503">
        <ele>111.4</ele>
        <time>2025-01-10T10:06:33.000Z</time>
      </trkpt>
      <trkpt lat="43.62152" lon="6.82502">
        <ele>111.2</ele>
        <time>2025-01-10T10:06:32.000Z</time>
      </trkpt>
      <trkpt lat="43.62153" lon="6.82502">
        <ele>111.1</ele>
        <time>2025-01-10T10:06:31.000Z</time>
      </trkpt>
      <trkpt lat="43.62153" lon="6.82502">
        <ele>111.1</ele>
        <time>2025-01-10T10:06:30.000Z</time>
      </trkpt>
      <trkpt lat="43.62153" lon="6.82502">
        <ele>111</ele>
        <time>2025-01-10T10:06:29.000Z</time>
      </trkpt>
      <trkpt lat="43.62153" lon="6.82502">
        <ele>111</ele>
        <time>2025-01-10T10:06:28.000Z</time>
      </trkpt>
      <trkpt lat="43.62153" lon="6.82502">
        <ele>111</ele>
        <time>2025-01-10T10:06:27.000Z</time>
      </trkpt>
      <trkpt lat="43.62153" lon="6.82503">
        <ele>110.9</ele>
        <time>2025-01-10T10:06:26.000Z</time>
      </trkpt>
      <trkpt lat="43.62154" lon="6.82503">
        <ele>110.9</ele>
        <time>2025-01-10T10:06:25.000Z</time>
      </trkpt>
      <trkpt lat="43.62155" lon="6.82502">
        <ele>110.7</ele>
        <time>2025-01-10T10:06:24.000Z</time>
      </trkpt>
      <trkpt lat="43.62157" lon="6.82501">
        <ele>110.5</ele>
        <time>2025-01-10T10:06:23.000Z</time>
      </trkpt>
      <trkpt lat="43.62159" lon="6.825">
        <ele>110.2</ele>
        <time>2025-01-10T10:06:22.000Z</time>
      </trkpt>
      <trkpt lat="43.62161" lon="6.82499">
        <ele>109.9</ele>
        <time>2025-01-10T10:06:21.000Z</time>
      </trkpt>
      <trkpt lat="43.62163" lon="6.82499">
        <ele>109.6</ele>
        <time>2025-01-10T10:06:20.000Z</time>
      </trkpt>
      <trkpt lat="43.62166" lon="6.82498">
        <ele>109.3</ele>
        <time>2025-01-10T10:06:19.000Z</time>
      </trkpt>
      <trkpt lat="43.62168" lon="6.82498">
        <ele>109</ele>
        <time>2025-01-10T10:06:18.000Z</time>
      </trkpt>
      <trkpt lat="43.6217" lon="6.82497">
        <ele>108.8</ele>
        <time>2025-01-10T10:06:17.000Z</time>
      </trkpt>
      <trkpt lat="43.62172" lon="6.82496">
        <ele>108.5</ele>
        <time>2025-01-10T10:06:16.000Z</time>
      </trkpt>
      <trkpt lat="43.62175" lon="6.82496">
        <ele>108.2</ele>
        <time>2025-01-10T10:06:15.000Z</time>
      </trkpt>
      <trkpt lat="43.62177" lon="6.82495">
        <ele>107.9</ele>
        <time>2025-01-10T10:06:14.000Z</time>
      </trkpt>
      <trkpt lat="43.62179" lon="6.82494">
        <ele>107.6</ele>
        <time>2025-01-10T10:06:13.000Z</time>
      </trkpt>
      <trkpt lat="43.62182" lon="6.82494">
        <ele>107.3</ele>
        <time>2025-01-10T10:06:12.000Z</time>
      </trkpt>
      <trkpt lat="43.62185" lon="6.82494">
        <ele>107</ele>
        <time>2025-01-10T10:06:11.000Z</time>
      </trkpt>
      <trkpt lat="43.62187" lon="6.82495">
        <ele>106.7</ele>
        <time>2025-01-10T10:06:10.000Z</time>
      </trkpt>
      <trkpt lat="43.62189" lon="6.82496">
        <ele>106.5</ele>
        <time>2025-01-10T10:06:09.000Z</time>
      </trkpt>
      <trkpt lat="43.6219" lon="6.82497">
        <ele>106.3</ele>
        <time>2025-01-10T10:06:08.000Z</time>
      </trkpt>
      <trkpt lat="43.62191" lon="6.82498">
        <ele>106.2</ele>
        <time>2025-01-10T10:06:07.000Z</time>
      </trkpt>
      <trkpt lat="43.62192" lon="6.82498">
        <ele>106.1</ele>
        <time>2025-01-10T10:06:06.000Z</time>
      </trkpt>
      <trkpt lat="43.62191" lon="6.82498">
        <ele>106.1</ele>
        <time>2025-01-10T10:06:05.000Z</time>
      </trkpt>
      <trkpt lat="43.62191" lon="6.82498">
        <ele>106.1</ele>
        <time>2025-01-10T10:06:04.000Z</time>
      </trkpt>
      <trkpt lat="43.62191" lon="6.82498">
        <ele>106.1</ele>
        <time>2025-01-10T10:06:03.000Z</time>
      </trkpt>
      <trkpt lat="43.62191" lon="6.82499">
        <ele>106.1</ele>
        <time>2025-01-10T10:06:02.000Z</time>
      </trkpt>
      <trkpt lat="43.62191" lon="6.82499">
        <ele>106</ele>
        <time>2025-01-10T10:06:01.000Z</time>
      </trkpt>
      <trkpt lat="43.62192" lon="6.82499">
        <ele>106</ele>
        <time>2025-01-10T10:06:00.000Z</time>
      </trkpt>
      <trkpt lat="43.62192" lon="6.82499">
        <ele>106</ele>
        <time>2025-01-10T10:05:59.000Z</time>
      </trkpt>
      <trkpt lat="43.62192" lon="6.825">
        <ele>106</ele>
        <time>2025-01-10T10:05:58.000Z</time>
      </trkpt>
      <trkpt lat="43.62192" lon="6.825">
        <ele>105.9</ele>
        <time>2025-01-10T10:05:57.000Z</time>
      </trkpt>
      <trkpt lat="43.62192" lon="6.82501">
        <ele>105.9</ele>
        <time>2025-01-10T10:05:56.000Z</time>
      </trkpt>
      <trkpt lat="43.62192" lon="6.82501">
        <ele>105.8</ele>
        <time>2025-01-10T10:05:55.000Z</time>
      </trkpt>
      <trkpt lat="43.62192" lon="6.82503">
        <ele>105.7</ele>
        <time>2025-01-10T10:05:54.000Z</time>
      </trkpt>
      <trkpt lat="43.62192" lon="6.82504">
        <ele>105.6</ele>
        <time>2025-01-10T10:05:53.000Z</time>
      </trkpt>
      <trkpt lat="43.62192" lon="6.82505">
        <ele>105.5</ele>
        <time>2025-01-10T10:05:52.000Z</time>
      </trkpt>
      <trkpt lat="43.62192" lon="6.82507">
        <ele>105.3</ele>
        <time>2025-01-10T10:05:51.000Z</time>
      </trkpt>
      <trkpt lat="43.62192" lon="6.82508">
        <ele>105.2</ele>
        <time>2025-01-10T10:05:50.000Z</time>
      </trkpt>
      <trkpt lat="43.62192" lon="6.8251">
        <ele>105.1</ele>
        <time>2025-01-10T10:05:49.000Z</time>
      </trkpt>
      <trkpt lat="43.62192" lon="6.82511">
        <ele>105</ele>
        <time>2025-01-10T10:05:48.000Z</time>
      </trkpt>
      <trkpt lat="43.62192" lon="6.82512">
        <ele>104.9</ele>
        <time>2025-01-10T10:05:47.000Z</time>
      </trkpt>
      <trkpt lat="43.62192" lon="6.82514">
        <ele>104.7</ele>
        <time>2025-01-10T10:05:46.000Z</time>
      </trkpt>
      <trkpt lat="43.62191" lon="6.82515">
        <ele>104.6</ele>
        <time>2025-01-10T10:05:45.000Z</time>
      </trkpt>
      <trkpt lat="43.62191" lon="6.82516">
        <ele>104.5</ele>
        <time>2025-01-10T10:05:44.000Z</time>
      </trkpt>
      <trkpt lat="43.62191" lon="6.82517">
        <ele>104.4</ele>
        <time>2025-01-10T10:05:43.000Z</time>
      </trkpt>
      <trkpt lat="43.6219" lon="6.82518">
        <ele>104.3</ele>
        <time>2025-01-10T10:05:42.000Z</time>
      </trkpt>
      <trkpt lat="43.6219" lon="6.8252">
        <ele>104.2</ele>
        <time>2025-01-10T10:05:41.000Z</time>
      </trkpt>
      <trkpt lat="43.62189" lon="6.82521">
        <ele>104</ele>
        <time>2025-01-10T10:05:40.000Z</time>
      </trkpt>
      <trkpt lat="43.62189" lon="6.82522">
        <ele>103.9</ele>
        <time>2025-01-10T10:05:39.000Z</time>
      </trkpt>
      <trkpt lat="43.62188" lon="6.82523">
        <ele>103.8</ele>
        <time>2025-01-10T10:05:38.000Z</time>
      </trkpt>
      <trkpt lat="43.62188" lon="6.82524">
        <ele>103.7</ele>
        <time>2025-01-10T10:05:37.000Z</time>
      </trkpt>
      <trkpt lat="43.62187" lon="6.82526">
        <ele>103.6</ele>
        <time>2025-01-10T10:05:36.000Z</time>
      </trkpt>
      <trkpt lat="43.62187" lon="6.82527">
        <ele>103.5</ele>
        <time>2025-01-10T10:05:35.000Z</time>
      </trkpt>
      <trkpt lat="43.62187" lon="6.82528">
        <ele>103.4</ele>
        <time>2025-01-10T10:05:34.000Z</time>
      </trkpt>
      <trkpt lat="43.62186" lon="6.82529">
        <ele>103.4</ele>
        <time>2025-01-10T10:05:33.000Z</time>
      </trkpt>
      <trkpt lat="43.62186" lon="6.8253">
        <ele>103.3</ele>
        <time>2025-01-10T10:05:32.000Z</time>
      </trkpt>
      <trkpt lat="43.62186" lon="6.82531">
        <ele>103.2</ele>
        <time>2025-01-10T10:05:31.000Z</time>
      </trkpt>
      <trkpt lat="43.62185" lon="6.82532">
        <ele>103.1</ele>
        <time>2025-01-10T10:05:30.000Z</time>
      </trkpt>
      <trkpt lat="43.62185" lon="6.82532">
        <ele>103.1</ele>
        <time>2025-01-10T10:05:29.000Z</time>
      </trkpt>
      <trkpt lat="43.62184" lon="6.82533">
        <ele>103</ele>
        <time>2025-01-10T10:05:28.000Z</time>
      </trkpt>
      <trkpt lat="43.62184" lon="6.82534">
        <ele>102.9</ele>
        <time>2025-01-10T10:05:27.000Z</time>
      </trkpt>
      <trkpt lat="43.62183" lon="6.82535">
        <ele>102.8</ele>
        <time>2025-01-10T10:05:26.000Z</time>
      </trkpt>
      <trkpt lat="43.62182" lon="6.82536">
        <ele>102.7</ele>
        <time>2025-01-10T10:05:25.000Z</time>
      </trkpt>
      <trkpt lat="43.62182" lon="6.82537">
        <ele>102.6</ele>
        <time>2025-01-10T10:05:24.000Z</time>
      </trkpt>
      <trkpt lat="43.62181" lon="6.82538">
        <ele>102.5</ele>
        <time>2025-01-10T10:05:23.000Z</time>
      </trkpt>
      <trkpt lat="43.6218" lon="6.82538">
        <ele>102.5</ele>
        <time>2025-01-10T10:05:22.000Z</time>
      </trkpt>
      <trkpt lat="43.6218" lon="6.82539">
        <ele>102.4</ele>
        <time>2025-01-10T10:05:21.000Z</time>
      </trkpt>
      <trkpt lat="43.62179" lon="6.8254">
        <ele>102.4</ele>
        <time>2025-01-10T10:05:20.000Z</time>
      </trkpt>
      <trkpt lat="43.62179" lon="6.8254">
        <ele>102.3</ele>
        <time>2025-01-10T10:05:19.000Z</time>
      </trkpt>
      <trkpt lat="43.62178" lon="6.82542">
        <ele>102.2</ele>
        <time>2025-01-10T10:05:18.000Z</time>
      </trkpt>
      <trkpt lat="43.62178" lon="6.82543">
        <ele>102.1</ele>
        <time>2025-01-10T10:05:17.000Z</time>
      </trkpt>
      <trkpt lat="43.62176" lon="6.82546">
        <ele>101.9</ele>
        <time>2025-01-10T10:05:16.000Z</time>
      </trkpt>
      <trkpt lat="43.62175" lon="6.82548">
        <ele>101.7</ele>
        <time>2025-01-10T10:05:15.000Z</time>
      </trkpt>
      <trkpt lat="43.62173" lon="6.8255">
        <ele>101.5</ele>
        <time>2025-01-10T10:05:14.000Z</time>
      </trkpt>
      <trkpt lat="43.62172" lon="6.82553">
        <ele>101.3</ele>
        <time>2025-01-10T10:05:13.000Z</time>
      </trkpt>
      <trkpt lat="43.62171" lon="6.82555">
        <ele>101.1</ele>
        <time>2025-01-10T10:05:12.000Z</time>
      </trkpt>
      <trkpt lat="43.6217" lon="6.82556">
        <ele>101</ele>
        <time>2025-01-10T10:05:11.000Z</time>
      </trkpt>
      <trkpt lat="43.6217" lon="6.82556">
        <ele>101</ele>
        <time>2025-01-10T10:05:10.000Z</time>
      </trkpt>
      <trkpt lat="43.62171" lon="6.82556">
        <ele>101</ele>
        <time>2025-01-10T10:05:09.000Z</time>
      </trkpt>
      <trkpt lat="43.62171" lon="6.82556">
        <ele>101</ele>
        <time>2025-01-10T10:05:08.000Z</time>
      </trkpt>
      <trkpt lat="43.62171" lon="6.82556">
        <ele>101</ele>
        <time>2025-01-10T10:05:07.000Z</time>
      </trkpt>
      <trkpt lat="43.62171" lon="6.82556">
        <ele>101</ele>
        <time>2025-01-10T10:05:06.000Z</time>
      </trkpt>
      <trkpt lat="43.62171" lon="6.82556">
        <ele>101</ele>
        <time>2025-01-10T10:05:05.000Z</time>
      </trkpt>
      <trkpt lat="43.62171" lon="6.82556">
        <ele>101</ele>
        <time>2025-01-10T10:05:04.000Z</time>
      </trkpt>
      <trkpt lat="43.62171" lon="6.82556">
        <ele>101</ele>
        <time>2025-01-10T10:05:03.000Z</time>
      </trkpt>
      <trkpt lat="43.62171" lon="6.82556">
        <ele>101</ele>
        <time>2025-01-10T10:05:02.000Z</time>
      </trkpt>
      <trkpt lat="43.6217" lon="6.82556">
        <ele>100.9</ele>
        <time>2025-01-10T10:05:01.000Z</time>
      </trkpt>
      <trkpt lat="43.62169" lon="6.82554">
        <ele>100.8</ele>
        <time>2025-01-10T10:05:00.000Z</time>
      </trkpt>
      <trkpt lat="43.62169" lon="6.82553">
        <ele>100.7</ele>
        <time>2025-01-10T10:04:59.000Z</time>
      </trkpt>
      <trkpt lat="43.62169" lon="6.82553">
        <ele>100.7</ele>
        <time>2025-01-10T10:04:58.000Z</time>
      </trkpt>
      <trkpt lat="43.62169" lon="6.82553">
        <ele>100.7</ele>
        <time>2025-01-10T10:04:57.000Z</time>
      </trkpt>
      <trkpt lat="43.62169" lon="6.82553">
        <ele>100.7</ele>
        <time>2025-01-10T10:04:56.000Z</time>
      </trkpt>
      <trkpt lat="43.62169" lon="6.82554">
        <ele>100.6</ele>
        <time>2025-01-10T10:04:55.000Z</time>
      </trkpt>
      <trkpt lat="43.62169" lon="6.82554">
        <ele>100.6</ele>
        <time>2025-01-10T10:04:54.000Z</time>
      </trkpt>
      <trkpt lat="43.62169" lon="6.82554">
        <ele>100.6</ele>
        <time>2025-01-10T10:04:53.000Z</time>
      </trkpt>
      <trkpt lat="43.62169" lon="6.82554">
        <ele>100.6</ele>
        <time>2025-01-10T10:04:52.000Z</time>
      </trkpt>
      <trkpt lat="43.62169" lon="6.82555">
        <ele>100.6</ele>
        <time>2025-01-10T10:04:51.000Z</time>
      </trkpt>
      <trkpt lat="43.62169" lon="6.82555">
        <ele>100.5</ele>
        <time>2025-01-10T10:04:50.000Z</time>
      </trkpt>
      <trkpt lat="43.62169" lon="6.82554">
        <ele>100.5</ele>
        <time>2025-01-10T10:04:49.000Z</time>
      </trkpt>
      <trkpt lat="43.62169" lon="6.82555">
        <ele>100.5</ele>
        <time>2025-01-10T10:04:48.000Z</time>
      </trkpt>
      <trkpt lat="43.62168" lon="6.82556">
        <ele>100.4</ele>
        <time>2025-01-10T10:04:47.000Z</time>
      </trkpt>
      <trkpt lat="43.62168" lon="6.82556">
        <ele>100.4</ele>
        <time>2025-01-10T10:04:46.000Z</time>
      </trkpt>
      <trkpt lat="43.62167" lon="6.82558">
        <ele>100.3</ele>
        <time>2025-01-10T10:04:45.000Z</time>
      </trkpt>
      <trkpt lat="43.62167" lon="6.82559">
        <ele>100.2</ele>
        <time>2025-01-10T10:04:44.000Z</time>
      </trkpt>
      <trkpt lat="43.62166" lon="6.8256">
        <ele>100.1</ele>
        <time>2025-01-10T10:04:43.000Z</time>
      </trkpt>
      <trkpt lat="43.62166" lon="6.82561">
        <ele>100</ele>
        <time>2025-01-10T10:04:42.000Z</time>
      </trkpt>
      <trkpt lat="43.62165" lon="6.82562">
        <ele>99.9</ele>
        <time>2025-01-10T10:04:41.000Z</time>
      </trkpt>
      <trkpt lat="43.62165" lon="6.82563">
        <ele>99.8</ele>
        <time>2025-01-10T10:04:40.000Z</time>
      </trkpt>
      <trkpt lat="43.62164" lon="6.82564">
        <ele>99.7</ele>
        <time>2025-01-10T10:04:39.000Z</time>
      </trkpt>
      <trkpt lat="43.62163" lon="6.82565">
        <ele>99.6</ele>
        <time>2025-01-10T10:04:38.000Z</time>
      </trkpt>
      <trkpt lat="43.62163" lon="6.82565">
        <ele>99.6</ele>
        <time>2025-01-10T10:04:37.000Z</time>
      </trkpt>
      <trkpt lat="43.62162" lon="6.82566">
        <ele>99.5</ele>
        <time>2025-01-10T10:04:36.000Z</time>
      </trkpt>
      <trkpt lat="43.62161" lon="6.82567">
        <ele>99.4</ele>
        <time>2025-01-10T10:04:35.000Z</time>
      </trkpt>
      <trkpt lat="43.6216" lon="6.82567">
        <ele>99.3</ele>
        <time>2025-01-10T10:04:34.000Z</time>
      </trkpt>
      <trkpt lat="43.62159" lon="6.82568">
        <ele>99.2</ele>
        <time>2025-01-10T10:04:33.000Z</time>
      </trkpt>
      <trkpt lat="43.62158" lon="6.82568">
        <ele>99.1</ele>
        <time>2025-01-10T10:04:32.000Z</time>
      </trkpt>
      <trkpt lat="43.62157" lon="6.82569">
        <ele>99</ele>
        <time>2025-01-10T10:04:31.000Z</time>
      </trkpt>
      <trkpt lat="43.62157" lon="6.82569">
        <ele>98.9</ele>
        <time>2025-01-10T10:04:30.000Z</time>
      </trkpt>
      <trkpt lat="43.62156" lon="6.8257">
        <ele>98.8</ele>
        <time>2025-01-10T10:04:29.000Z</time>
      </trkpt>
      <trkpt lat="43.62155" lon="6.82571">
        <ele>98.7</ele>
        <time>2025-01-10T10:04:28.000Z</time>
      </trkpt>
      <trkpt lat="43.62155" lon="6.82571">
        <ele>98.6</ele>
        <time>2025-01-10T10:04:27.000Z</time>
      </trkpt>
      <trkpt lat="43.62154" lon="6.82572">
        <ele>98.6</ele>
        <time>2025-01-10T10:04:26.000Z</time>
      </trkpt>
      <trkpt lat="43.62154" lon="6.82573">
        <ele>98.5</ele>
        <time>2025-01-10T10:04:25.000Z</time>
      </trkpt>
      <trkpt lat="43.62153" lon="6.82574">
        <ele>98.4</ele>
        <time>2025-01-10T10:04:24.000Z</time>
      </trkpt>
      <trkpt lat="43.62152" lon="6.82574">
        <ele>98.3</ele>
        <time>2025-01-10T10:04:23.000Z</time>
      </trkpt>
      <trkpt lat="43.62152" lon="6.82575">
        <ele>98.2</ele>
        <time>2025-01-10T10:04:22.000Z</time>
      </trkpt>
      <trkpt lat="43.62151" lon="6.82576">
        <ele>98.1</ele>
        <time>2025-01-10T10:04:21.000Z</time>
      </trkpt>
      <trkpt lat="43.6215" lon="6.82576">
        <ele>98.1</ele>
        <time>2025-01-10T10:04:20.000Z</time>
      </trkpt>
      <trkpt lat="43.62149" lon="6.82577">
        <ele>98</ele>
        <time>2025-01-10T10:04:19.000Z</time>
      </trkpt>
      <trkpt lat="43.62148" lon="6.82578">
        <ele>97.9</ele>
        <time>2025-01-10T10:04:18.000Z</time>
      </trkpt>
      <trkpt lat="43.62148" lon="6.82578">
        <ele>97.8</ele>
        <time>2025-01-10T10:04:17.000Z</time>
      </trkpt>
      <trkpt lat="43.62147" lon="6.82579">
        <ele>97.7</ele>
        <time>2025-01-10T10:04:16.000Z</time>
      </trkpt>
      <trkpt lat="43.62147" lon="6.82579">
        <ele>97.6</ele>
        <time>2025-01-10T10:04:15.000Z</time>
      </trkpt>
      <trkpt lat="43.62146" lon="6.8258">
        <ele>97.5</ele>
        <time>2025-01-10T10:04:14.000Z</time>
      </trkpt>
      <trkpt lat="43.62145" lon="6.82581">
        <ele>97.4</ele>
        <time>2025-01-10T10:04:13.000Z</time>
      </trkpt>
      <trkpt lat="43.62144" lon="6.82582">
        <ele>97.3</ele>
        <time>2025-01-10T10:04:12.000Z</time>
      </trkpt>
      <trkpt lat="43.62143" lon="6.82582">
        <ele>97.2</ele>
        <time>2025-01-10T10:04:11.000Z</time>
      </trkpt>
      <trkpt lat="43.62142" lon="6.82582">
        <ele>97.1</ele>
        <time>2025-01-10T10:04:10.000Z</time>
      </trkpt>
      <trkpt lat="43.62142" lon="6.82582">
        <ele>97.1</ele>
        <time>2025-01-10T10:04:09.000Z</time>
      </trkpt>
      <trkpt lat="43.62141" lon="6.82582">
        <ele>97</ele>
        <time>2025-01-10T10:04:08.000Z</time>
      </trkpt>
      <trkpt lat="43.62141" lon="6.82582">
        <ele>97</ele>
        <time>2025-01-10T10:04:07.000Z</time>
      </trkpt>
      <trkpt lat="43.62141" lon="6.82582">
        <ele>97</ele>
        <time>2025-01-10T10:04:06.000Z</time>
      </trkpt>
      <trkpt lat="43.62141" lon="6.82583">
        <ele>96.9</ele>
        <time>2025-01-10T10:04:05.000Z</time>
      </trkpt>
      <trkpt lat="43.6214" lon="6.82583">
        <ele>96.9</ele>
        <time>2025-01-10T10:04:04.000Z</time>
      </trkpt>
      <trkpt lat="43.6214" lon="6.82583">
        <ele>96.9</ele>
        <time>2025-01-10T10:04:03.000Z</time>
      </trkpt>
      <trkpt lat="43.6214" lon="6.82583">
        <ele>96.8</ele>
        <time>2025-01-10T10:04:02.000Z</time>
      </trkpt>
      <trkpt lat="43.62139" lon="6.82584">
        <ele>96.7</ele>
        <time>2025-01-10T10:04:01.000Z</time>
      </trkpt>
      <trkpt lat="43.62138" lon="6.82585">
        <ele>96.6</ele>
        <time>2025-01-10T10:04:00.000Z</time>
      </trkpt>
      <trkpt lat="43.62137" lon="6.82585">
        <ele>96.5</ele>
        <time>2025-01-10T10:03:59.000Z</time>
      </trkpt>
      <trkpt lat="43.62135" lon="6.82586">
        <ele>96.3</ele>
        <time>2025-01-10T10:03:58.000Z</time>
      </trkpt>
      <trkpt lat="43.62134" lon="6.82588">
        <ele>96.1</ele>
        <time>2025-01-10T10:03:57.000Z</time>
      </trkpt>
      <trkpt lat="43.62132" lon="6.8259">
        <ele>95.9</ele>
        <time>2025-01-10T10:03:56.000Z</time>
      </trkpt>
      <trkpt lat="43.6213" lon="6.82593">
        <ele>95.7</ele>
        <time>2025-01-10T10:03:55.000Z</time>
      </trkpt>
      <trkpt lat="43.62128" lon="6.82595">
        <ele>95.4</ele>
        <time>2025-01-10T10:03:54.000Z</time>
      </trkpt>
      <trkpt lat="43.62126" lon="6.82598">
        <ele>95.2</ele>
        <time>2025-01-10T10:03:53.000Z</time>
      </trkpt>
      <trkpt lat="43.62124" lon="6.82601">
        <ele>95</ele>
        <time>2025-01-10T10:03:52.000Z</time>
      </trkpt>
      <trkpt lat="43.62123" lon="6.82604">
        <ele>94.7</ele>
        <time>2025-01-10T10:03:51.000Z</time>
      </trkpt>
      <trkpt lat="43.62121" lon="6.82607">
        <ele>94.5</ele>
        <time>2025-01-10T10:03:50.000Z</time>
      </trkpt>
      <trkpt lat="43.62121" lon="6.82608">
        <ele>94.5</ele>
        <time>2025-01-10T10:03:49.000Z</time>
      </trkpt>
      <trkpt lat="43.62121" lon="6.82608">
        <ele>94.5</ele>
        <time>2025-01-10T10:03:48.000Z</time>
      </trkpt>
      <trkpt lat="43.62121" lon="6.82608">
        <ele>94.5</ele>
        <time>2025-01-10T10:03:47.000Z</time>
      </trkpt>
      <trkpt lat="43.62121" lon="6.82608">
        <ele>94.5</ele>
        <time>2025-01-10T10:03:46.000Z</time>
      </trkpt>
      <trkpt lat="43.62121" lon="6.82608">
        <ele>94.5</ele>
        <time>2025-01-10T10:03:45.000Z</time>
      </trkpt>
      <trkpt lat="43.62121" lon="6.82608">
        <ele>94.5</ele>
        <time>2025-01-10T10:03:44.000Z</time>
      </trkpt>
      <trkpt lat="43.62122" lon="6.82608">
        <ele>94.5</ele>
        <time>2025-01-10T10:03:43.000Z</time>
      </trkpt>
      <trkpt lat="43.62122" lon="6.82608">
        <ele>94.5</ele>
        <time>2025-01-10T10:03:42.000Z</time>
      </trkpt>
      <trkpt lat="43.62122" lon="6.82608">
        <ele>94.4</ele>
        <time>2025-01-10T10:03:41.000Z</time>
      </trkpt>
      <trkpt lat="43.62122" lon="6.82608">
        <ele>94.4</ele>
        <time>2025-01-10T10:03:40.000Z</time>
      </trkpt>
      <trkpt lat="43.62122" lon="6.82608">
        <ele>94.4</ele>
        <time>2025-01-10T10:03:39.000Z</time>
      </trkpt>
      <trkpt lat="43.62122" lon="6.82608">
        <ele>94.4</ele>
        <time>2025-01-10T10:03:38.000Z</time>
      </trkpt>
      <trkpt lat="43.62122" lon="6.82608">
        <ele>94.4</ele>
        <time>2025-01-10T10:03:37.000Z</time>
      </trkpt>
      <trkpt lat="43.62122" lon="6.82608">
        <ele>94.4</ele>
        <time>2025-01-10T10:03:36.000Z</time>
      </trkpt>
      <trkpt lat="43.62122" lon="6.82608">
        <ele>94.4</ele>
        <time>2025-01-10T10:03:35.000Z</time>
      </trkpt>
      <trkpt lat="43.62122" lon="6.82608">
        <ele>94.4</ele>
        <time>2025-01-10T10:03:34.000Z</time>
      </trkpt>
      <trkpt lat="43.62122" lon="6.82608">
        <ele>94.4</ele>
        <time>2025-01-10T10:03:33.000Z</time>
      </trkpt>
      <trkpt lat="43.62122" lon="6.82608">
        <ele>94.4</ele>
        <time>2025-01-10T10:03:32.000Z</time>
      </trkpt>
      <trkpt lat="43.62122" lon="6.82608">
        <ele>94.4</ele>
        <time>2025-01-10T10:03:31.000Z</time>
      </trkpt>
      <trkpt lat="43.62122" lon="6.82608">
        <ele>94.4</ele>
        <time>2025-01-10T10:03:30.000Z</time>
      </trkpt>
      <trkpt lat="43.62122" lon="6.82608">
        <ele>94.4</ele>
        <time>2025-01-10T10:03:29.000Z</time>
      </trkpt>
      <trkpt lat="43.62122" lon="6.82608">
        <ele>94.4</ele>
        <time>2025-01-10T10:03:28.000Z</time>
      </trkpt>
      <trkpt lat="43.62122" lon="6.82608">
        <ele>94.4</ele>
        <time>2025-01-10T10:03:27.000Z</time>
      </trkpt>
      <trkpt lat="43.62122" lon="6.82608">
        <ele>94.4</ele>
        <time>2025-01-10T10:03:26.000Z</time>
      </trkpt>
      <trkpt lat="43.62122" lon="6.82608">
        <ele>94.4</ele>
        <time>2025-01-10T10:03:25.000Z</time>
      </trkpt>
      <trkpt lat="43.62122" lon="6.82608">
        <ele>94.4</ele>
        <time>2025-01-10T10:03:24.000Z</time>
      </trkpt>
      <trkpt lat="43.62121" lon="6.82609">
        <ele>94.2</ele>
        <time>2025-01-10T10:03:23.000Z</time>
      </trkpt>
      <trkpt lat="43.6212" lon="6.82609">
        <ele>94.2</ele>
        <time>2025-01-10T10:03:22.000Z</time>
      </trkpt>
      <trkpt lat="43.62119" lon="6.82609">
        <ele>94.1</ele>
        <time>2025-01-10T10:03:21.000Z</time>
      </trkpt>
      <trkpt lat="43.62118" lon="6.82609">
        <ele>94</ele>
        <time>2025-01-10T10:03:20.000Z</time>
      </trkpt>
      <trkpt lat="43.62118" lon="6.82609">
        <ele>94</ele>
        <time>2025-01-10T10:03:19.000Z</time>
      </trkpt>
      <trkpt lat="43.62118" lon="6.82609">
        <ele>94</ele>
        <time>2025-01-10T10:03:18.000Z</time>
      </trkpt>
      <trkpt lat="43.62117" lon="6.82609">
        <ele>93.9</ele>
        <time>2025-01-10T10:03:17.000Z</time>
      </trkpt>
      <trkpt lat="43.62117" lon="6.82608">
        <ele>93.9</ele>
        <time>2025-01-10T10:03:16.000Z</time>
      </trkpt>
      <trkpt lat="43.62117" lon="6.82608">
        <ele>93.9</ele>
        <time>2025-01-10T10:03:15.000Z</time>
      </trkpt>
      <trkpt lat="43.62117" lon="6.82608">
        <ele>93.9</ele>
        <time>2025-01-10T10:03:14.000Z</time>
      </trkpt>
      <trkpt lat="43.62117" lon="6.82608">
        <ele>93.9</ele>
        <time>2025-01-10T10:03:13.000Z</time>
      </trkpt>
      <trkpt lat="43.62117" lon="6.82608">
        <ele>93.8</ele>
        <time>2025-01-10T10:03:12.000Z</time>
      </trkpt>
      <trkpt lat="43.62117" lon="6.82608">
        <ele>93.8</ele>
        <time>2025-01-10T10:03:11.000Z</time>
      </trkpt>
      <trkpt lat="43.62116" lon="6.82608">
        <ele>93.8</ele>
        <time>2025-01-10T10:03:10.000Z</time>
      </trkpt>
      <trkpt lat="43.62116" lon="6.8261">
        <ele>93.7</ele>
        <time>2025-01-10T10:03:09.000Z</time>
      </trkpt>
      <trkpt lat="43.62117" lon="6.82613">
        <ele>93.5</ele>
        <time>2025-01-10T10:03:08.000Z</time>
      </trkpt>
      <trkpt lat="43.62117" lon="6.82616">
        <ele>93.4</ele>
        <time>2025-01-10T10:03:07.000Z</time>
      </trkpt>
      <trkpt lat="43.62118" lon="6.82619">
        <ele>93.2</ele>
        <time>2025-01-10T10:03:06.000Z</time>
      </trkpt>
      <trkpt lat="43.6212" lon="6.82622">
        <ele>93</ele>
        <time>2025-01-10T10:03:05.000Z</time>
      </trkpt>
      <trkpt lat="43.62121" lon="6.82626">
        <ele>92.8</ele>
        <time>2025-01-10T10:03:04.000Z</time>
      </trkpt>
      <trkpt lat="43.62123" lon="6.82628">
        <ele>92.6</ele>
        <time>2025-01-10T10:03:03.000Z</time>
      </trkpt>
      <trkpt lat="43.62125" lon="6.82631">
        <ele>92.4</ele>
        <time>2025-01-10T10:03:02.000Z</time>
      </trkpt>
      <trkpt lat="43.62127" lon="6.82635">
        <ele>92.2</ele>
        <time>2025-01-10T10:03:01.000Z</time>
      </trkpt>
      <trkpt lat="43.6213" lon="6.82638">
        <ele>92</ele>
        <time>2025-01-10T10:03:00.000Z</time>
      </trkpt>
      <trkpt lat="43.62132" lon="6.82642">
        <ele>91.7</ele>
        <time>2025-01-10T10:02:59.000Z</time>
      </trkpt>
      <trkpt lat="43.62134" lon="6.82645">
        <ele>91.5</ele>
        <time>2025-01-10T10:02:58.000Z</time>
      </trkpt>
      <trkpt lat="43.62137" lon="6.82649">
        <ele>91.3</ele>
        <time>2025-01-10T10:02:57.000Z</time>
      </trkpt>
      <trkpt lat="43.62139" lon="6.82652">
        <ele>91.1</ele>
        <time>2025-01-10T10:02:56.000Z</time>
      </trkpt>
      <trkpt lat="43.62141" lon="6.82655">
        <ele>90.9</ele>
        <time>2025-01-10T10:02:55.000Z</time>
      </trkpt>
      <trkpt lat="43.62144" lon="6.82658">
        <ele>90.7</ele>
        <time>2025-01-10T10:02:54.000Z</time>
      </trkpt>
      <trkpt lat="43.62146" lon="6.82661">
        <ele>90.4</ele>
        <time>2025-01-10T10:02:53.000Z</time>
      </trkpt>
      <trkpt lat="43.62148" lon="6.82664">
        <ele>90.2</ele>
        <time>2025-01-10T10:02:52.000Z</time>
      </trkpt>
      <trkpt lat="43.6215" lon="6.82668">
        <ele>90.1</ele>
        <time>2025-01-10T10:02:51.000Z</time>
      </trkpt>
      <trkpt lat="43.62152" lon="6.82672">
        <ele>89.9</ele>
        <time>2025-01-10T10:02:50.000Z</time>
      </trkpt>
      <trkpt lat="43.62153" lon="6.82676">
        <ele>89.7</ele>
        <time>2025-01-10T10:02:49.000Z</time>
      </trkpt>
      <trkpt lat="43.62154" lon="6.8268">
        <ele>89.5</ele>
        <time>2025-01-10T10:02:48.000Z</time>
      </trkpt>
      <trkpt lat="43.62155" lon="6.82684">
        <ele>89.4</ele>
        <time>2025-01-10T10:02:47.000Z</time>
      </trkpt>
      <trkpt lat="43.62155" lon="6.82689">
        <ele>89.2</ele>
        <time>2025-01-10T10:02:46.000Z</time>
      </trkpt>
      <trkpt lat="43.62155" lon="6.82693">
        <ele>89</ele>
        <time>2025-01-10T10:02:45.000Z</time>
      </trkpt>
      <trkpt lat="43.62155" lon="6.82698">
        <ele>88.9</ele>
        <time>2025-01-10T10:02:44.000Z</time>
      </trkpt>
      <trkpt lat="43.62154" lon="6.82703">
        <ele>88.7</ele>
        <time>2025-01-10T10:02:43.000Z</time>
      </trkpt>
      <trkpt lat="43.62153" lon="6.82707">
        <ele>88.6</ele>
        <time>2025-01-10T10:02:42.000Z</time>
      </trkpt>
      <trkpt lat="43.62152" lon="6.82712">
        <ele>88.4</ele>
        <time>2025-01-10T10:02:41.000Z</time>
      </trkpt>
      <trkpt lat="43.62151" lon="6.82716">
        <ele>88.3</ele>
        <time>2025-01-10T10:02:40.000Z</time>
      </trkpt>
      <trkpt lat="43.62151" lon="6.8272">
        <ele>88.2</ele>
        <time>2025-01-10T10:02:39.000Z</time>
      </trkpt>
      <trkpt lat="43.6215" lon="6.82725">
        <ele>88.1</ele>
        <time>2025-01-10T10:02:38.000Z</time>
      </trkpt>
      <trkpt lat="43.62149" lon="6.82728">
        <ele>88</ele>
        <time>2025-01-10T10:02:37.000Z</time>
      </trkpt>
      <trkpt lat="43.62149" lon="6.82729">
        <ele>88</ele>
        <time>2025-01-10T10:02:36.000Z</time>
      </trkpt>
      <trkpt lat="43.62149" lon="6.82729">
        <ele>88</ele>
        <time>2025-01-10T10:02:35.000Z</time>
      </trkpt>
      <trkpt lat="43.62149" lon="6.82729">
        <ele>88</ele>
        <time>2025-01-10T10:02:34.000Z</time>
      </trkpt>
      <trkpt lat="43.62149" lon="6.82729">
        <ele>88</ele>
        <time>2025-01-10T10:02:33.000Z</time>
      </trkpt>
      <trkpt lat="43.62149" lon="6.82729">
        <ele>88</ele>
        <time>2025-01-10T10:02:32.000Z</time>
      </trkpt>
      <trkpt lat="43.62149" lon="6.82729">
        <ele>88</ele>
        <time>2025-01-10T10:02:31.000Z</time>
      </trkpt>
      <trkpt lat="43.62149" lon="6.82729">
        <ele>88</ele>
        <time>2025-01-10T10:02:30.000Z</time>
      </trkpt>
      <trkpt lat="43.62149" lon="6.82729">
        <ele>88</ele>
        <time>2025-01-10T10:02:29.000Z</time>
      </trkpt>
      <trkpt lat="43.62149" lon="6.82729">
        <ele>88</ele>
        <time>2025-01-10T10:02:28.000Z</time>
      </trkpt>
      <trkpt lat="43.62149" lon="6.82729">
        <ele>88</ele>
        <time>2025-01-10T10:02:27.000Z</time>
      </trkpt>
      <trkpt lat="43.62149" lon="6.82729">
        <ele>88</ele>
        <time>2025-01-10T10:02:26.000Z</time>
      </trkpt>
      <trkpt lat="43.62149" lon="6.82729">
        <ele>88</ele>
        <time>2025-01-10T10:02:25.000Z</time>
      </trkpt>
      <trkpt lat="43.62149" lon="6.82729">
        <ele>88</ele>
        <time>2025-01-10T10:02:24.000Z</time>
      </trkpt>
      <trkpt lat="43.62149" lon="6.82729">
        <ele>88</ele>
        <time>2025-01-10T10:02:23.000Z</time>
      </trkpt>
      <trkpt lat="43.62149" lon="6.82729">
        <ele>88</ele>
        <time>2025-01-10T10:02:22.000Z</time>
      </trkpt>
      <trkpt lat="43.62149" lon="6.82729">
        <ele>87.9</ele>
        <time>2025-01-10T10:02:21.000Z</time>
      </trkpt>
      <trkpt lat="43.62148" lon="6.82729">
        <ele>87.9</ele>
        <time>2025-01-10T10:02:20.000Z</time>
      </trkpt>
      <trkpt lat="43.62148" lon="6.82729">
        <ele>87.9</ele>
        <time>2025-01-10T10:02:19.000Z</time>
      </trkpt>
      <trkpt lat="43.62148" lon="6.82728">
        <ele>87.9</ele>
        <time>2025-01-10T10:02:18.000Z</time>
      </trkpt>
      <trkpt lat="43.62148" lon="6.82728">
        <ele>87.9</ele>
        <time>2025-01-10T10:02:17.000Z</time>
      </trkpt>
      <trkpt lat="43.62147" lon="6.82728">
        <ele>87.9</ele>
        <time>2025-01-10T10:02:16.000Z</time>
      </trkpt>
      <trkpt lat="43.62147" lon="6.82728">
        <ele>87.8</ele>
        <time>2025-01-10T10:02:15.000Z</time>
      </trkpt>
      <trkpt lat="43.62147" lon="6.82727">
        <ele>87.8</ele>
        <time>2025-01-10T10:02:14.000Z</time>
      </trkpt>
      <trkpt lat="43.62147" lon="6.82728">
        <ele>87.8</ele>
        <time>2025-01-10T10:02:13.000Z</time>
      </trkpt>
      <trkpt lat="43.62147" lon="6.82728">
        <ele>87.8</ele>
        <time>2025-01-10T10:02:12.000Z</time>
      </trkpt>
      <trkpt lat="43.62148" lon="6.82729">
        <ele>87.8</ele>
        <time>2025-01-10T10:02:11.000Z</time>
      </trkpt>
      <trkpt lat="43.62147" lon="6.8273">
        <ele>87.8</ele>
        <time>2025-01-10T10:02:10.000Z</time>
      </trkpt>
      <trkpt lat="43.62147" lon="6.82732">
        <ele>87.7</ele>
        <time>2025-01-10T10:02:09.000Z</time>
      </trkpt>
      <trkpt lat="43.62146" lon="6.82733">
        <ele>87.7</ele>
        <time>2025-01-10T10:02:08.000Z</time>
      </trkpt>
      <trkpt lat="43.62146" lon="6.82735">
        <ele>87.6</ele>
        <time>2025-01-10T10:02:07.000Z</time>
      </trkpt>
      <trkpt lat="43.62145" lon="6.82736">
        <ele>87.6</ele>
        <time>2025-01-10T10:02:06.000Z</time>
      </trkpt>
      <trkpt lat="43.62144" lon="6.82736">
        <ele>87.6</ele>
        <time>2025-01-10T10:02:05.000Z</time>
      </trkpt>
      <trkpt lat="43.62143" lon="6.82737">
        <ele>87.5</ele>
        <time>2025-01-10T10:02:04.000Z</time>
      </trkpt>
      <trkpt lat="43.62142" lon="6.82737">
        <ele>87.5</ele>
        <time>2025-01-10T10:02:03.000Z</time>
      </trkpt>
      <trkpt lat="43.62141" lon="6.82738">
        <ele>87.5</ele>
        <time>2025-01-10T10:02:02.000Z</time>
      </trkpt>
      <trkpt lat="43.6214" lon="6.82739">
        <ele>87.5</ele>
        <time>2025-01-10T10:02:01.000Z</time>
      </trkpt>
      <trkpt lat="43.62139" lon="6.82739">
        <ele>87.4</ele>
        <time>2025-01-10T10:02:00.000Z</time>
      </trkpt>
      <trkpt lat="43.62138" lon="6.8274">
        <ele>87.4</ele>
        <time>2025-01-10T10:01:59.000Z</time>
      </trkpt>
      <trkpt lat="43.62137" lon="6.8274">
        <ele>87.4</ele>
        <time>2025-01-10T10:01:58.000Z</time>
      </trkpt>
      <trkpt lat="43.62137" lon="6.82741">
        <ele>87.4</ele>
        <time>2025-01-10T10:01:57.000Z</time>
      </trkpt>
      <trkpt lat="43.62136" lon="6.82742">
        <ele>87.4</ele>
        <time>2025-01-10T10:01:56.000Z</time>
      </trkpt>
      <trkpt lat="43.62136" lon="6.82742">
        <ele>87.4</ele>
        <time>2025-01-10T10:01:55.000Z</time>
      </trkpt>
      <trkpt lat="43.62136" lon="6.82743">
        <ele>87.4</ele>
        <time>2025-01-10T10:01:54.000Z</time>
      </trkpt>
      <trkpt lat="43.62136" lon="6.82743">
        <ele>87.4</ele>
        <time>2025-01-10T10:01:53.000Z</time>
      </trkpt>
      <trkpt lat="43.62136" lon="6.82744">
        <ele>87.3</ele>
        <time>2025-01-10T10:01:52.000Z</time>
      </trkpt>
      <trkpt lat="43.62137" lon="6.82744">
        <ele>87.3</ele>
        <time>2025-01-10T10:01:51.000Z</time>
      </trkpt>
      <trkpt lat="43.62137" lon="6.82745">
        <ele>87.3</ele>
        <time>2025-01-10T10:01:50.000Z</time>
      </trkpt>
      <trkpt lat="43.62137" lon="6.82746">
        <ele>87.3</ele>
        <time>2025-01-10T10:01:49.000Z</time>
      </trkpt>
      <trkpt lat="43.62137" lon="6.82747">
        <ele>87.3</ele>
        <time>2025-01-10T10:01:48.000Z</time>
      </trkpt>
      <trkpt lat="43.62137" lon="6.82748">
        <ele>87.3</ele>
        <time>2025-01-10T10:01:47.000Z</time>
      </trkpt>
      <trkpt lat="43.62137" lon="6.82749">
        <ele>87.3</ele>
        <time>2025-01-10T10:01:46.000Z</time>
      </trkpt>
      <trkpt lat="43.62137" lon="6.8275">
        <ele>87.3</ele>
        <time>2025-01-10T10:01:45.000Z</time>
      </trkpt>
      <trkpt lat="43.62137" lon="6.8275">
        <ele>87.3</ele>
        <time>2025-01-10T10:01:44.000Z</time>
      </trkpt>
      <trkpt lat="43.62137" lon="6.82751">
        <ele>87.3</ele>
        <time>2025-01-10T10:01:43.000Z</time>
      </trkpt>
      <trkpt lat="43.62137" lon="6.82752">
        <ele>87.3</ele>
        <time>2025-01-10T10:01:42.000Z</time>
      </trkpt>
      <trkpt lat="43.62138" lon="6.82752">
        <ele>87.3</ele>
        <time>2025-01-10T10:01:41.000Z</time>
      </trkpt>
      <trkpt lat="43.62138" lon="6.82752">
        <ele>87.2</ele>
        <time>2025-01-10T10:01:40.000Z</time>
      </trkpt>
      <trkpt lat="43.62139" lon="6.82754">
        <ele>87.2</ele>
        <time>2025-01-10T10:01:39.000Z</time>
      </trkpt>
      <trkpt lat="43.62139" lon="6.82754">
        <ele>87.2</ele>
        <time>2025-01-10T10:01:38.000Z</time>
      </trkpt>
      <trkpt lat="43.62138" lon="6.82755">
        <ele>87.2</ele>
        <time>2025-01-10T10:01:37.000Z</time>
      </trkpt>
      <trkpt lat="43.62138" lon="6.82755">
        <ele>87.2</ele>
        <time>2025-01-10T10:01:36.000Z</time>
      </trkpt>
      <trkpt lat="43.62138" lon="6.82755">
        <ele>87.2</ele>
        <time>2025-01-10T10:01:35.000Z</time>
      </trkpt>
      <trkpt lat="43.62139" lon="6.82755">
        <ele>87.2</ele>
        <time>2025-01-10T10:01:34.000Z</time>
      </trkpt>
      <trkpt lat="43.62139" lon="6.82757">
        <ele>87.2</ele>
        <time>2025-01-10T10:01:33.000Z</time>
      </trkpt>
      <trkpt lat="43.62139" lon="6.82759">
        <ele>87.2</ele>
        <time>2025-01-10T10:01:32.000Z</time>
      </trkpt>
      <trkpt lat="43.62138" lon="6.82763">
        <ele>87.2</ele>
        <time>2025-01-10T10:01:31.000Z</time>
      </trkpt>
      <trkpt lat="43.62138" lon="6.82767">
        <ele>87.2</ele>
        <time>2025-01-10T10:01:30.000Z</time>
      </trkpt>
      <trkpt lat="43.62137" lon="6.82771">
        <ele>87.2</ele>
        <time>2025-01-10T10:01:29.000Z</time>
      </trkpt>
      <trkpt lat="43.62136" lon="6.82777">
        <ele>87.2</ele>
        <time>2025-01-10T10:01:28.000Z</time>
      </trkpt>
      <trkpt lat="43.62135" lon="6.82782">
        <ele>87.2</ele>
        <time>2025-01-10T10:01:27.000Z</time>
      </trkpt>
      <trkpt lat="43.62134" lon="6.82788">
        <ele>87.2</ele>
        <time>2025-01-10T10:01:26.000Z</time>
      </trkpt>
      <trkpt lat="43.62133" lon="6.82794">
        <ele>87.3</ele>
        <time>2025-01-10T10:01:25.000Z</time>
      </trkpt>
      <trkpt lat="43.62132" lon="6.82801">
        <ele>87.3</ele>
        <time>2025-01-10T10:01:24.000Z</time>
      </trkpt>
      <trkpt lat="43.62131" lon="6.82807">
        <ele>87.5</ele>
        <time>2025-01-10T10:01:23.000Z</time>
      </trkpt>
      <trkpt lat="43.6213" lon="6.82813">
        <ele>87.6</ele>
        <time>2025-01-10T10:01:22.000Z</time>
      </trkpt>
      <trkpt lat="43.62129" lon="6.82819">
        <ele>87.7</ele>
        <time>2025-01-10T10:01:21.000Z</time>
      </trkpt>
      <trkpt lat="43.62128" lon="6.82824">
        <ele>87.9</ele>
        <time>2025-01-10T10:01:20.000Z</time>
      </trkpt>
      <trkpt lat="43.62127" lon="6.82829">
        <ele>88</ele>
        <time>2025-01-10T10:01:19.000Z</time>
      </trkpt>
      <trkpt lat="43.62126" lon="6.82835">
        <ele>88.2</ele>
        <time>2025-01-10T10:01:18.000Z</time>
      </trkpt>
      <trkpt lat="43.62126" lon="6.8284">
        <ele>88.4</ele>
        <time>2025-01-10T10:01:17.000Z</time>
      </trkpt>
      <trkpt lat="43.62125" lon="6.82845">
        <ele>88.6</ele>
        <time>2025-01-10T10:01:16.000Z</time>
      </trkpt>
      <trkpt lat="43.62125" lon="6.82851">
        <ele>88.8</ele>
        <time>2025-01-10T10:01:15.000Z</time>
      </trkpt>
      <trkpt lat="43.62125" lon="6.82858">
        <ele>89.1</ele>
        <time>2025-01-10T10:01:14.000Z</time>
      </trkpt>
      <trkpt lat="43.62125" lon="6.82863">
        <ele>89.3</ele>
        <time>2025-01-10T10:01:13.000Z</time>
      </trkpt>
      <trkpt lat="43.62126" lon="6.82869">
        <ele>89.5</ele>
        <time>2025-01-10T10:01:12.000Z</time>
      </trkpt>
      <trkpt lat="43.62127" lon="6.82875">
        <ele>89.7</ele>
        <time>2025-01-10T10:01:11.000Z</time>
      </trkpt>
      <trkpt lat="43.62128" lon="6.8288">
        <ele>89.9</ele>
        <time>2025-01-10T10:01:10.000Z</time>
      </trkpt>
      <trkpt lat="43.62129" lon="6.82886">
        <ele>90.1</ele>
        <time>2025-01-10T10:01:09.000Z</time>
      </trkpt>
      <trkpt lat="43.62131" lon="6.8289">
        <ele>90.3</ele>
        <time>2025-01-10T10:01:08.000Z</time>
      </trkpt>
      <trkpt lat="43.62133" lon="6.82895">
        <ele>90.4</ele>
        <time>2025-01-10T10:01:07.000Z</time>
      </trkpt>
      <trkpt lat="43.62136" lon="6.829">
        <ele>90.5</ele>
        <time>2025-01-10T10:01:06.000Z</time>
      </trkpt>
      <trkpt lat="43.62138" lon="6.82904">
        <ele>90.6</ele>
        <time>2025-01-10T10:01:05.000Z</time>
      </trkpt>
      <trkpt lat="43.6214" lon="6.82908">
        <ele>90.7</ele>
        <time>2025-01-10T10:01:04.000Z</time>
      </trkpt>
      <trkpt lat="43.62143" lon="6.82912">
        <ele>90.7</ele>
        <time>2025-01-10T10:01:03.000Z</time>
      </trkpt>
      <trkpt lat="43.62145" lon="6.82916">
        <ele>90.8</ele>
        <time>2025-01-10T10:01:02.000Z</time>
      </trkpt>
      <trkpt lat="43.62147" lon="6.82919">
        <ele>90.8</ele>
        <time>2025-01-10T10:01:01.000Z</time>
      </trkpt>
      <trkpt lat="43.6215" lon="6.82923">
        <ele>90.8</ele>
        <time>2025-01-10T10:01:00.000Z</time>
      </trkpt>
      <trkpt lat="43.62152" lon="6.82927">
        <ele>90.9</ele>
        <time>2025-01-10T10:00:59.000Z</time>
      </trkpt>
      <trkpt lat="43.62155" lon="6.82931">
        <ele>90.9</ele>
        <time>2025-01-10T10:00:58.000Z</time>
      </trkpt>
      <trkpt lat="43.62157" lon="6.82935">
        <ele>90.9</ele>
        <time>2025-01-10T10:00:57.000Z</time>
      </trkpt>
      <trkpt lat="43.62159" lon="6.82939">
        <ele>91</ele>
        <time>2025-01-10T10:00:56.000Z</time>
      </trkpt>
      <trkpt lat="43.62161" lon="6.82943">
        <ele>91</ele>
        <time>2025-01-10T10:00:55.000Z</time>
      </trkpt>
      <trkpt lat="43.62163" lon="6.82946">
        <ele>91.1</ele>
        <time>2025-01-10T10:00:54.000Z</time>
      </trkpt>
      <trkpt lat="43.62165" lon="6.8295">
        <ele>91.1</ele>
        <time>2025-01-10T10:00:53.000Z</time>
      </trkpt>
      <trkpt lat="43.62167" lon="6.82953">
        <ele>91.2</ele>
        <time>2025-01-10T10:00:52.000Z</time>
      </trkpt>
      <trkpt lat="43.62169" lon="6.82958">
        <ele>91.2</ele>
        <time>2025-01-10T10:00:51.000Z</time>
      </trkpt>
      <trkpt lat="43.62172" lon="6.82962">
        <ele>91.3</ele>
        <time>2025-01-10T10:00:50.000Z</time>
      </trkpt>
      <trkpt lat="43.62173" lon="6.82965">
        <ele>91.3</ele>
        <time>2025-01-10T10:00:49.000Z</time>
      </trkpt>
      <trkpt lat="43.62175" lon="6.82968">
        <ele>91.3</ele>
        <time>2025-01-10T10:00:48.000Z</time>
      </trkpt>
      <trkpt lat="43.62177" lon="6.8297">
        <ele>91.3</ele>
        <time>2025-01-10T10:00:47.000Z</time>
      </trkpt>
      <trkpt lat="43.6218" lon="6.82971">
        <ele>91.3</ele>
        <time>2025-01-10T10:00:46.000Z</time>
      </trkpt>
      <trkpt lat="43.62182" lon="6.82971">
        <ele>90.7</ele>
        <time>2025-01-10T10:00:45.000Z</time>
      </trkpt>
      <trkpt lat="43.62184" lon="6.8297">
        <ele>90.3</ele>
        <time>2025-01-10T10:00:44.000Z</time>
      </trkpt>
      <trkpt lat="43.62185" lon="6.82969">
        <ele>89.9</ele>
        <time>2025-01-10T10:00:43.000Z</time>
      </trkpt>
      <trkpt lat="43.62186" lon="6.82968">
        <ele>89.6</ele>
        <time>2025-01-10T10:00:42.000Z</time>
      </trkpt>
      <trkpt lat="43.62186" lon="6.82968">
        <ele>89.5</ele>
        <time>2025-01-10T10:00:41.000Z</time>
      </trkpt>
      <trkpt lat="43.62187" lon="6.82968">
        <ele>89.4</ele>
        <time>2025-01-10T10:00:40.000Z</time>
      </trkpt>
      <trkpt lat="43.62186" lon="6.82968">
        <ele>89.4</ele>
        <time>2025-01-10T10:00:39.000Z</time>
      </trkpt>
      <trkpt lat="43.62187" lon="6.82968">
        <ele>89.3</ele>
        <time>2025-01-10T10:00:38.000Z</time>
      </trkpt>
      <trkpt lat="43.62186" lon="6.82967">
        <ele>89.3</ele>
        <time>2025-01-10T10:00:37.000Z</time>
      </trkpt>
      <trkpt lat="43.62186" lon="6.82967">
        <ele>89.2</ele>
        <time>2025-01-10T10:00:36.000Z</time>
      </trkpt>
      <trkpt lat="43.62186" lon="6.82967">
        <ele>89.2</ele>
        <time>2025-01-10T10:00:35.000Z</time>
      </trkpt>
      <trkpt lat="43.62186" lon="6.82967">
        <ele>89.1</ele>
        <time>2025-01-10T10:00:34.000Z</time>
      </trkpt>
      <trkpt lat="43.62187" lon="6.82967">
        <ele>89</ele>
        <time>2025-01-10T10:00:33.000Z</time>
      </trkpt>
      <trkpt lat="43.62188" lon="6.82966">
        <ele>88.7</ele>
        <time>2025-01-10T10:00:32.000Z</time>
      </trkpt>
      <trkpt lat="43.62188" lon="6.82966">
        <ele>88.6</ele>
        <time>2025-01-10T10:00:31.000Z</time>
      </trkpt>
      <trkpt lat="43.62188" lon="6.82966">
        <ele>88.5</ele>
        <time>2025-01-10T10:00:30.000Z</time>
      </trkpt>
      <trkpt lat="43.62189" lon="6.82966">
        <ele>88.4</ele>
        <time>2025-01-10T10:00:29.000Z</time>
      </trkpt>
      <trkpt lat="43.62189" lon="6.82966">
        <ele>88.3</ele>
        <time>2025-01-10T10:00:28.000Z</time>
      </trkpt>
      <trkpt lat="43.62189" lon="6.82966">
        <ele>88.2</ele>
        <time>2025-01-10T10:00:27.000Z</time>
      </trkpt>
      <trkpt lat="43.62189" lon="6.82966">
        <ele>88.2</ele>
        <time>2025-01-10T10:00:26.000Z</time>
      </trkpt>
      <trkpt lat="43.6219" lon="6.82966">
        <ele>88.1</ele>
        <time>2025-01-10T10:00:25.000Z</time>
      </trkpt>
      <trkpt lat="43.6219" lon="6.82966">
        <ele>88</ele>
        <time>2025-01-10T10:00:24.000Z</time>
      </trkpt>
      <trkpt lat="43.6219" lon="6.82967">
        <ele>87.9</ele>
        <time>2025-01-10T10:00:23.000Z</time>
      </trkpt>
      <trkpt lat="43.62191" lon="6.82967">
        <ele>87.8</ele>
        <time>2025-01-10T10:00:22.000Z</time>
      </trkpt>
      <trkpt lat="43.62191" lon="6.82967">
        <ele>87.7</ele>
        <time>2025-01-10T10:00:21.000Z</time>
      </trkpt>
      <trkpt lat="43.6219" lon="6.82968">
        <ele>87.7</ele>
        <time>2025-01-10T10:00:20.000Z</time>
      </trkpt>
      <trkpt lat="43.6219" lon="6.82968">
        <ele>87.5</ele>
        <time>2025-01-10T10:00:19.000Z</time>
      </trkpt>
      <trkpt lat="43.6219" lon="6.82969">
        <ele>87.5</ele>
        <time>2025-01-10T10:00:18.000Z</time>
      </trkpt>
      <trkpt lat="43.6219" lon="6.82969">
        <ele>87.5</ele>
        <time>2025-01-10T10:00:17.000Z</time>
      </trkpt>
      <trkpt lat="43.6219" lon="6.82969">
        <ele>87.5</ele>
        <time>2025-01-10T10:00:16.000Z</time>
      </trkpt>
      <trkpt lat="43.6219" lon="6.82969">
        <ele>87.4</ele>
        <time>2025-01-10T10:00:15.000Z</time>
      </trkpt>
      <trkpt lat="43.6219" lon="6.82969">
        <ele>87.4</ele>
        <time>2025-01-10T10:00:14.000Z</time>
      </trkpt>
      <trkpt lat="43.6219" lon="6.82969">
        <ele>87.3</ele>
        <time>2025-01-10T10:00:13.000Z</time>
      </trkpt>
      <trkpt lat="43.6219" lon="6.8297">
        <ele>87.2</ele>
        <time>2025-01-10T10:00:12.000Z</time>
      </trkpt>
      <trkpt lat="43.6219" lon="6.8297">
        <ele>87.2</ele>
        <time>2025-01-10T10:00:11.000Z</time>
      </trkpt>
      <trkpt lat="43.6219" lon="6.8297">
        <ele>87.2</ele>
        <time>2025-01-10T10:00:10.000Z</time>
      </trkpt>
      <trkpt lat="43.6219" lon="6.8297">
        <ele>87.2</ele>
        <time>2025-01-10T10:00:09.000Z</time>
      </trkpt>
      <trkpt lat="43.6219" lon="6.8297">
        <ele>87.1</ele>
        <time>2025-01-10T10:00:08.000Z</time>
      </trkpt>
      <trkpt lat="43.6219" lon="6.8297">
        <ele>87.1</ele>
        <time>2025-01-10T10:00:07.000Z</time>
      </trkpt>
      <trkpt lat="43.6219" lon="6.8297">
        <ele>87.1</ele>
        <time>2025-01-10T10:00:06.000Z</time>
      </trkpt>
      <trkpt lat="43.6219" lon="6.8297">
        <ele>87.1</ele>
        <time>2025-01-10T10:00:05.000Z</time>
      </trkpt>
      <trkpt lat="43.6219" lon="6.8297">
        <ele>87.1</ele>
        <time>2025-01-10T10:00:04.000Z</time>
      </trkpt>
      <trkpt lat="43.6219" lon="6.8297">
        <ele>87.1</ele>
        <time>2025-01-10T10:00:03.000Z</time>
      </trkpt>
      <trkpt lat="43.6219" lon="6.8297">
        <ele>87.1</ele>
        <time>2025-01-10T10:00:02.000Z</time>
      </trkpt>
      <trkpt lat="43.6219" lon="6.8297">
        <ele>87.1</ele>
        <time>2025-01-10T10:00:01.000Z</time>
      </trkpt>
      <trkpt lat="43.6219" lon="6.8297">
        <ele>87.1</ele>
        <time>2025-01-10T10:00:00.000Z</time>
      </trkpt>
      <trkpt lat="43.6219" lon="6.8297">
        <ele>87.1</ele>
        <time>2025-01-10T09:59:59.000Z</time>
      </trkpt>
      <trkpt lat="43.6219" lon="6.8297">
        <ele>87.1</ele>
        <time>2025-01-10T09:59:58.000Z</time>
      </trkpt>
      <trkpt lat="43.6219" lon="6.8297">
        <ele>87.1</ele>
        <time>2025-01-10T09:59:57.000Z</time>
      </trkpt>
      <trkpt lat="43.6219" lon="6.8297">
        <ele>87.1</ele>
        <time>2025-01-10T09:59:56.000Z</time>
      </trkpt>
      <trkpt lat="43.6219" lon="6.8297">
        <ele>87.1</ele>
        <time>2025-01-10T09:59:55.000Z</time>
      </trkpt>
      <trkpt lat="43.6219" lon="6.8297">
        <ele>87.1</ele>
        <time>2025-01-10T09:59:54.000Z</time>
      </trkpt>
      <trkpt lat="43.6219" lon="6.8297">
        <ele>87</ele>
        <time>2025-01-10T09:59:53.000Z</time>
      </trkpt>
      <trkpt lat="43.6219" lon="6.8297">
        <ele>87</ele>
        <time>2025-01-10T09:59:52.000Z</time>
      </trkpt>
      <trkpt lat="43.6219" lon="6.8297">
        <ele>87</ele>
        <time>2025-01-10T09:59:51.000Z</time>
      </trkpt>
      <trkpt lat="43.62191" lon="6.8297">
        <ele>86.9</ele>
        <time>2025-01-10T09:59:50.000Z</time>
      </trkpt>
      <trkpt lat="43.62191" lon="6.82969">
        <ele>86.8</ele>
        <time>2025-01-10T09:59:49.000Z</time>
      </trkpt>
      <trkpt lat="43.62191" lon="6.82968">
        <ele>86.6</ele>
        <time>2025-01-10T09:59:48.000Z</time>
      </trkpt>
      <trkpt lat="43.62191" lon="6.82967">
        <ele>86.4</ele>
        <time>2025-01-10T09:59:47.000Z</time>
      </trkpt>
      <trkpt lat="43.62191" lon="6.82968">
        <ele>86.5</ele>
        <time>2025-01-10T09:59:46.000Z</time>
      </trkpt>
      <trkpt lat="43.6219" lon="6.82968">
        <ele>86.7</ele>
        <time>2025-01-10T09:59:45.000Z</time>
      </trkpt>
      <trkpt lat="43.62189" lon="6.82968">
        <ele>86.8</ele>
        <time>2025-01-10T09:59:44.000Z</time>
      </trkpt>
      <trkpt lat="43.62189" lon="6.82969">
        <ele>86.9</ele>
        <time>2025-01-10T09:59:43.000Z</time>
      </trkpt>
      <trkpt lat="43.62189" lon="6.82969">
        <ele>86.9</ele>
        <time>2025-01-10T09:59:42.000Z</time>
      </trkpt>
      <trkpt lat="43.62189" lon="6.82969">
        <ele>86.9</ele>
        <time>2025-01-10T09:59:41.000Z</time>
      </trkpt>
      <trkpt lat="43.6219" lon="6.82969">
        <ele>87.1</ele>
        <time>2025-01-10T09:59:40.000Z</time>
      </trkpt>
      <trkpt lat="43.62191" lon="6.8297">
        <ele>87.2</ele>
        <time>2025-01-10T09:59:39.000Z</time>
      </trkpt>
      <trkpt lat="43.62191" lon="6.8297">
        <ele>87.3</ele>
        <time>2025-01-10T09:59:38.000Z</time>
      </trkpt>
      <trkpt lat="43.62191" lon="6.8297">
        <ele>87.3</ele>
        <time>2025-01-10T09:59:37.000Z</time>
      </trkpt>
      <trkpt lat="43.62191" lon="6.82969">
        <ele>87.3</ele>
        <time>2025-01-10T09:59:36.000Z</time>
      </trkpt>
      <trkpt lat="43.6219" lon="6.82969">
        <ele>87.4</ele>
        <time>2025-01-10T09:59:35.000Z</time>
      </trkpt>
      <trkpt lat="43.6219" lon="6.82968">
        <ele>87.6</ele>
        <time>2025-01-10T09:59:34.000Z</time>
      </trkpt>
      <trkpt lat="43.62189" lon="6.82968">
        <ele>87.7</ele>
        <time>2025-01-10T09:59:33.000Z</time>
      </trkpt>
      <trkpt lat="43.62188" lon="6.82969">
        <ele>87.9</ele>
        <time>2025-01-10T09:59:32.000Z</time>
      </trkpt>
      <trkpt lat="43.62187" lon="6.8297">
        <ele>88.2</ele>
        <time>2025-01-10T09:59:31.000Z</time>
      </trkpt>
      <trkpt lat="43.62186" lon="6.82971">
        <ele>88.5</ele>
        <time>2025-01-10T09:59:30.000Z</time>
      </trkpt>
      <trkpt lat="43.62185" lon="6.82972">
        <ele>88.8</ele>
        <time>2025-01-10T09:59:29.000Z</time>
      </trkpt>
      <trkpt lat="43.62183" lon="6.82973">
        <ele>89</ele>
        <time>2025-01-10T09:59:28.000Z</time>
      </trkpt>
      <trkpt lat="43.62182" lon="6.82974">
        <ele>89.3</ele>
        <time>2025-01-10T09:59:27.000Z</time>
      </trkpt>
      <trkpt lat="43.62181" lon="6.82975">
        <ele>89.6</ele>
        <time>2025-01-10T09:59:26.000Z</time>
      </trkpt>
      <trkpt lat="43.6218" lon="6.82976">
        <ele>89.9</ele>
        <time>2025-01-10T09:59:25.000Z</time>
      </trkpt>
      <trkpt lat="43.62178" lon="6.82976">
        <ele>90.1</ele>
        <time>2025-01-10T09:59:24.000Z</time>
      </trkpt>
      <trkpt lat="43.62177" lon="6.82975">
        <ele>90.4</ele>
        <time>2025-01-10T09:59:23.000Z</time>
      </trkpt>
      <trkpt lat="43.62176" lon="6.82975">
        <ele>90.6</ele>
        <time>2025-01-10T09:59:22.000Z</time>
      </trkpt>
      <trkpt lat="43.62175" lon="6.82974">
        <ele>90.8</ele>
        <time>2025-01-10T09:59:21.000Z</time>
      </trkpt>
      <trkpt lat="43.62175" lon="6.82973">
        <ele>90.9</ele>
        <time>2025-01-10T09:59:20.000Z</time>
      </trkpt>
      <trkpt lat="43.62175" lon="6.82973">
        <ele>91</ele>
        <time>2025-01-10T09:59:19.000Z</time>
      </trkpt>
      <trkpt lat="43.62175" lon="6.82972">
        <ele>91.1</ele>
        <time>2025-01-10T09:59:18.000Z</time>
      </trkpt>
      <trkpt lat="43.62174" lon="6.82971">
        <ele>91.3</ele>
        <time>2025-01-10T09:59:17.000Z</time>
      </trkpt>
      <trkpt lat="43.62175" lon="6.82971">
        <ele>91.3</ele>
        <time>2025-01-10T09:59:16.000Z</time>
      </trkpt>
      <trkpt lat="43.62175" lon="6.82971">
        <ele>91.3</ele>
        <time>2025-01-10T09:59:15.000Z</time>
      </trkpt>
      <trkpt lat="43.62175" lon="6.82971">
        <ele>91.2</ele>
        <time>2025-01-10T09:59:14.000Z</time>
      </trkpt>
      <trkpt lat="43.62176" lon="6.82973">
        <ele>91.2</ele>
        <time>2025-01-10T09:59:13.000Z</time>
      </trkpt>
      <trkpt lat="43.62177" lon="6.82976">
        <ele>91.2</ele>
        <time>2025-01-10T09:59:12.000Z</time>
      </trkpt>
      <trkpt lat="43.62179" lon="6.8298">
        <ele>91.2</ele>
        <time>2025-01-10T09:59:11.000Z</time>
      </trkpt>
      <trkpt lat="43.6218" lon="6.82986">
        <ele>91.1</ele>
        <time>2025-01-10T09:59:10.000Z</time>
      </trkpt>
      <trkpt lat="43.62181" lon="6.82991">
        <ele>91.1</ele>
        <time>2025-01-10T09:59:09.000Z</time>
      </trkpt>
      <trkpt lat="43.62182" lon="6.82996">
        <ele>90.9</ele>
        <time>2025-01-10T09:59:08.000Z</time>
      </trkpt>
      <trkpt lat="43.62183" lon="6.83002">
        <ele>90.7</ele>
        <time>2025-01-10T09:59:07.000Z</time>
      </trkpt>
      <trkpt lat="43.62184" lon="6.83007">
        <ele>90.4</ele>
        <time>2025-01-10T09:59:06.000Z</time>
      </trkpt>
      <trkpt lat="43.62184" lon="6.83012">
        <ele>90.1</ele>
        <time>2025-01-10T09:59:05.000Z</time>
      </trkpt>
      <trkpt lat="43.62184" lon="6.83016">
        <ele>89.8</ele>
        <time>2025-01-10T09:59:04.000Z</time>
      </trkpt>
      <trkpt lat="43.62185" lon="6.83021">
        <ele>89.5</ele>
        <time>2025-01-10T09:59:03.000Z</time>
      </trkpt>
      <trkpt lat="43.62186" lon="6.83027">
        <ele>89.2</ele>
        <time>2025-01-10T09:59:02.000Z</time>
      </trkpt>
      <trkpt lat="43.62187" lon="6.83032">
        <ele>89</ele>
        <time>2025-01-10T09:59:01.000Z</time>
      </trkpt>
      <trkpt lat="43.62188" lon="6.83036">
        <ele>88.7</ele>
        <time>2025-01-10T09:59:00.000Z</time>
      </trkpt>
      <trkpt lat="43.62189" lon="6.83041">
        <ele>88.6</ele>
        <time>2025-01-10T09:58:59.000Z</time>
      </trkpt>
      <trkpt lat="43.6219" lon="6.83046">
        <ele>88.4</ele>
        <time>2025-01-10T09:58:58.000Z</time>
      </trkpt>
      <trkpt lat="43.6219" lon="6.83052">
        <ele>88.3</ele>
        <time>2025-01-10T09:58:57.000Z</time>
      </trkpt>
      <trkpt lat="43.6219" lon="6.83057">
        <ele>88.2</ele>
        <time>2025-01-10T09:58:56.000Z</time>
      </trkpt>
      <trkpt lat="43.6219" lon="6.83062">
        <ele>88.2</ele>
        <time>2025-01-10T09:58:55.000Z</time>
      </trkpt>
      <trkpt lat="43.6219" lon="6.83067">
        <ele>88.2</ele>
        <time>2025-01-10T09:58:54.000Z</time>
      </trkpt>
      <trkpt lat="43.62189" lon="6.83072">
        <ele>88.2</ele>
        <time>2025-01-10T09:58:53.000Z</time>
      </trkpt>
      <trkpt lat="43.62188" lon="6.83077">
        <ele>88.2</ele>
        <time>2025-01-10T09:58:52.000Z</time>
      </trkpt>
      <trkpt lat="43.62187" lon="6.83082">
        <ele>88.3</ele>
        <time>2025-01-10T09:58:51.000Z</time>
      </trkpt>
      <trkpt lat="43.62185" lon="6.83086">
        <ele>88.3</ele>
        <time>2025-01-10T09:58:50.000Z</time>
      </trkpt>
      <trkpt lat="43.62184" lon="6.83091">
        <ele>88.4</ele>
        <time>2025-01-10T09:58:49.000Z</time>
      </trkpt>
      <trkpt lat="43.62183" lon="6.83096">
        <ele>88.4</ele>
        <time>2025-01-10T09:58:48.000Z</time>
      </trkpt>
      <trkpt lat="43.62181" lon="6.83101">
        <ele>88.5</ele>
        <time>2025-01-10T09:58:47.000Z</time>
      </trkpt>
      <trkpt lat="43.62179" lon="6.83105">
        <ele>88.5</ele>
        <time>2025-01-10T09:58:46.000Z</time>
      </trkpt>
      <trkpt lat="43.62177" lon="6.83109">
        <ele>88.6</ele>
        <time>2025-01-10T09:58:45.000Z</time>
      </trkpt>
      <trkpt lat="43.62174" lon="6.83112">
        <ele>88.6</ele>
        <time>2025-01-10T09:58:44.000Z</time>
      </trkpt>
      <trkpt lat="43.62172" lon="6.83115">
        <ele>88.6</ele>
        <time>2025-01-10T09:58:43.000Z</time>
      </trkpt>
      <trkpt lat="43.62169" lon="6.83119">
        <ele>88.6</ele>
        <time>2025-01-10T09:58:42.000Z</time>
      </trkpt>
      <trkpt lat="43.62167" lon="6.83122">
        <ele>88.6</ele>
        <time>2025-01-10T09:58:41.000Z</time>
      </trkpt>
      <trkpt lat="43.62165" lon="6.83126">
        <ele>88.6</ele>
        <time>2025-01-10T09:58:40.000Z</time>
      </trkpt>
      <trkpt lat="43.62163" lon="6.83131">
        <ele>88.6</ele>
        <time>2025-01-10T09:58:39.000Z</time>
      </trkpt>
      <trkpt lat="43.62162" lon="6.83135">
        <ele>88.6</ele>
        <time>2025-01-10T09:58:38.000Z</time>
      </trkpt>
      <trkpt lat="43.6216" lon="6.8314">
        <ele>88.6</ele>
        <time>2025-01-10T09:58:37.000Z</time>
      </trkpt>
      <trkpt lat="43.62158" lon="6.83145">
        <ele>88.5</ele>
        <time>2025-01-10T09:58:36.000Z</time>
      </trkpt>
      <trkpt lat="43.62157" lon="6.83149">
        <ele>88.5</ele>
        <time>2025-01-10T09:58:35.000Z</time>
      </trkpt>
      <trkpt lat="43.62156" lon="6.83154">
        <ele>88.5</ele>
        <time>2025-01-10T09:58:34.000Z</time>
      </trkpt>
      <trkpt lat="43.62155" lon="6.8316">
        <ele>88.5</ele>
        <time>2025-01-10T09:58:33.000Z</time>
      </trkpt>
      <trkpt lat="43.62154" lon="6.83165">
        <ele>88.5</ele>
        <time>2025-01-10T09:58:32.000Z</time>
      </trkpt>
      <trkpt lat="43.62153" lon="6.83169">
        <ele>88.5</ele>
        <time>2025-01-10T09:58:31.000Z</time>
      </trkpt>
      <trkpt lat="43.62151" lon="6.83173">
        <ele>88.5</ele>
        <time>2025-01-10T09:58:30.000Z</time>
      </trkpt>
      <trkpt lat="43.62149" lon="6.83177">
        <ele>88.5</ele>
        <time>2025-01-10T09:58:29.000Z</time>
      </trkpt>
      <trkpt lat="43.62147" lon="6.83181">
        <ele>88.4</ele>
        <time>2025-01-10T09:58:28.000Z</time>
      </trkpt>
      <trkpt lat="43.62144" lon="6.83185">
        <ele>88.4</ele>
        <time>2025-01-10T09:58:27.000Z</time>
      </trkpt>
      <trkpt lat="43.62141" lon="6.83189">
        <ele>88.4</ele>
        <time>2025-01-10T09:58:26.000Z</time>
      </trkpt>
      <trkpt lat="43.62138" lon="6.83193">
        <ele>88.4</ele>
        <time>2025-01-10T09:58:25.000Z</time>
      </trkpt>
      <trkpt lat="43.62135" lon="6.83197">
        <ele>88.4</ele>
        <time>2025-01-10T09:58:24.000Z</time>
      </trkpt>
      <trkpt lat="43.62132" lon="6.83201">
        <ele>88.4</ele>
        <time>2025-01-10T09:58:23.000Z</time>
      </trkpt>
      <trkpt lat="43.62129" lon="6.83205">
        <ele>88.3</ele>
        <time>2025-01-10T09:58:22.000Z</time>
      </trkpt>
      <trkpt lat="43.62126" lon="6.83209">
        <ele>88.3</ele>
        <time>2025-01-10T09:58:21.000Z</time>
      </trkpt>
      <trkpt lat="43.62123" lon="6.83214">
        <ele>88.2</ele>
        <time>2025-01-10T09:58:20.000Z</time>
      </trkpt>
      <trkpt lat="43.62121" lon="6.83218">
        <ele>88.1</ele>
        <time>2025-01-10T09:58:19.000Z</time>
      </trkpt>
      <trkpt lat="43.62119" lon="6.83223">
        <ele>88.1</ele>
        <time>2025-01-10T09:58:18.000Z</time>
      </trkpt>
      <trkpt lat="43.62117" lon="6.83227">
        <ele>87.9</ele>
        <time>2025-01-10T09:58:17.000Z</time>
      </trkpt>
      <trkpt lat="43.62115" lon="6.83232">
        <ele>87.8</ele>
        <time>2025-01-10T09:58:16.000Z</time>
      </trkpt>
      <trkpt lat="43.62115" lon="6.83237">
        <ele>87.7</ele>
        <time>2025-01-10T09:58:15.000Z</time>
      </trkpt>
      <trkpt lat="43.62114" lon="6.83243">
        <ele>87.6</ele>
        <time>2025-01-10T09:58:14.000Z</time>
      </trkpt>
      <trkpt lat="43.62112" lon="6.83249">
        <ele>87.5</ele>
        <time>2025-01-10T09:58:13.000Z</time>
      </trkpt>
      <trkpt lat="43.6211" lon="6.83255">
        <ele>87.4</ele>
        <time>2025-01-10T09:58:12.000Z</time>
      </trkpt>
      <trkpt lat="43.62108" lon="6.8326">
        <ele>87.3</ele>
        <time>2025-01-10T09:58:11.000Z</time>
      </trkpt>
      <trkpt lat="43.62105" lon="6.83266">
        <ele>87.2</ele>
        <time>2025-01-10T09:58:10.000Z</time>
      </trkpt>
      <trkpt lat="43.62102" lon="6.83271">
        <ele>87.2</ele>
        <time>2025-01-10T09:58:09.000Z</time>
      </trkpt>
      <trkpt lat="43.62099" lon="6.83276">
        <ele>87.2</ele>
        <time>2025-01-10T09:58:08.000Z</time>
      </trkpt>
      <trkpt lat="43.62095" lon="6.83281">
        <ele>87.2</ele>
        <time>2025-01-10T09:58:07.000Z</time>
      </trkpt>
      <trkpt lat="43.62092" lon="6.83285">
        <ele>87.2</ele>
        <time>2025-01-10T09:58:06.000Z</time>
      </trkpt>
      <trkpt lat="43.62089" lon="6.83289">
        <ele>87.2</ele>
        <time>2025-01-10T09:58:05.000Z</time>
      </trkpt>
      <trkpt lat="43.62085" lon="6.83294">
        <ele>87.2</ele>
        <time>2025-01-10T09:58:04.000Z</time>
      </trkpt>
      <trkpt lat="43.62081" lon="6.83299">
        <ele>87.3</ele>
        <time>2025-01-10T09:58:03.000Z</time>
      </trkpt>
      <trkpt lat="43.62079" lon="6.83302">
        <ele>87.3</ele>
        <time>2025-01-10T09:58:02.000Z</time>
      </trkpt>
      <trkpt lat="43.62076" lon="6.83306">
        <ele>87.3</ele>
        <time>2025-01-10T09:58:01.000Z</time>
      </trkpt>
      <trkpt lat="43.62073" lon="6.8331">
        <ele>87.4</ele>
        <time>2025-01-10T09:58:00.000Z</time>
      </trkpt>
      <trkpt lat="43.62069" lon="6.83312">
        <ele>87.4</ele>
        <time>2025-01-10T09:57:59.000Z</time>
      </trkpt>
      <trkpt lat="43.62066" lon="6.83315">
        <ele>87.5</ele>
        <time>2025-01-10T09:57:58.000Z</time>
      </trkpt>
      <trkpt lat="43.62063" lon="6.83317">
        <ele>87.5</ele>
        <time>2025-01-10T09:57:57.000Z</time>
      </trkpt>
      <trkpt lat="43.6206" lon="6.8332">
        <ele>87.6</ele>
        <time>2025-01-10T09:57:56.000Z</time>
      </trkpt>
      <trkpt lat="43.62057" lon="6.83323">
        <ele>87.6</ele>
        <time>2025-01-10T09:57:55.000Z</time>
      </trkpt>
      <trkpt lat="43.62053" lon="6.83329">
        <ele>87.6</ele>
        <time>2025-01-10T09:57:54.000Z</time>
      </trkpt>
      <trkpt lat="43.62049" lon="6.83333">
        <ele>87.6</ele>
        <time>2025-01-10T09:57:53.000Z</time>
      </trkpt>
      <trkpt lat="43.62046" lon="6.83337">
        <ele>87.6</ele>
        <time>2025-01-10T09:57:52.000Z</time>
      </trkpt>
      <trkpt lat="43.62043" lon="6.8334">
        <ele>87.6</ele>
        <time>2025-01-10T09:57:51.000Z</time>
      </trkpt>
      <trkpt lat="43.6204" lon="6.83344">
        <ele>87.6</ele>
        <time>2025-01-10T09:57:50.000Z</time>
      </trkpt>
      <trkpt lat="43.62038" lon="6.83347">
        <ele>87.5</ele>
        <time>2025-01-10T09:57:49.000Z</time>
      </trkpt>
      <trkpt lat="43.62035" lon="6.83351">
        <ele>87.4</ele>
        <time>2025-01-10T09:57:48.000Z</time>
      </trkpt>
      <trkpt lat="43.62032" lon="6.83355">
        <ele>87.3</ele>
        <time>2025-01-10T09:57:47.000Z</time>
      </trkpt>
      <trkpt lat="43.6203" lon="6.83358">
        <ele>87.2</ele>
        <time>2025-01-10T09:57:46.000Z</time>
      </trkpt>
      <trkpt lat="43.62028" lon="6.83361">
        <ele>87.1</ele>
        <time>2025-01-10T09:57:45.000Z</time>
      </trkpt>
      <trkpt lat="43.62025" lon="6.83364">
        <ele>87</ele>
        <time>2025-01-10T09:57:44.000Z</time>
      </trkpt>
      <trkpt lat="43.62022" lon="6.83368">
        <ele>86.8</ele>
        <time>2025-01-10T09:57:43.000Z</time>
      </trkpt>
      <trkpt lat="43.6202" lon="6.83373">
        <ele>86.6</ele>
        <time>2025-01-10T09:57:42.000Z</time>
      </trkpt>
      <trkpt lat="43.62018" lon="6.83377">
        <ele>86.4</ele>
        <time>2025-01-10T09:57:41.000Z</time>
      </trkpt>
      <trkpt lat="43.62016" lon="6.83382">
        <ele>86.2</ele>
        <time>2025-01-10T09:57:40.000Z</time>
      </trkpt>
      <trkpt lat="43.62015" lon="6.83387">
        <ele>86.1</ele>
        <time>2025-01-10T09:57:39.000Z</time>
      </trkpt>
      <trkpt lat="43.62013" lon="6.83392">
        <ele>85.9</ele>
        <time>2025-01-10T09:57:38.000Z</time>
      </trkpt>
      <trkpt lat="43.62012" lon="6.83398">
        <ele>85.8</ele>
        <time>2025-01-10T09:57:37.000Z</time>
      </trkpt>
      <trkpt lat="43.6201" lon="6.83403">
        <ele>85.7</ele>
        <time>2025-01-10T09:57:36.000Z</time>
      </trkpt>
      <trkpt lat="43.62009" lon="6.83408">
        <ele>85.7</ele>
        <time>2025-01-10T09:57:35.000Z</time>
      </trkpt>
      <trkpt lat="43.62008" lon="6.83414">
        <ele>85.6</ele>
        <time>2025-01-10T09:57:34.000Z</time>
      </trkpt>
      <trkpt lat="43.62008" lon="6.83419">
        <ele>85.6</ele>
        <time>2025-01-10T09:57:33.000Z</time>
      </trkpt>
      <trkpt lat="43.62009" lon="6.83425">
        <ele>85.6</ele>
        <time>2025-01-10T09:57:32.000Z</time>
      </trkpt>
      <trkpt lat="43.62009" lon="6.8343">
        <ele>85.5</ele>
        <time>2025-01-10T09:57:31.000Z</time>
      </trkpt>
      <trkpt lat="43.62009" lon="6.83436">
        <ele>85.5</ele>
        <time>2025-01-10T09:57:30.000Z</time>
      </trkpt>
      <trkpt lat="43.6201" lon="6.83442">
        <ele>85.4</ele>
        <time>2025-01-10T09:57:29.000Z</time>
      </trkpt>
      <trkpt lat="43.6201" lon="6.83448">
        <ele>85.4</ele>
        <time>2025-01-10T09:57:28.000Z</time>
      </trkpt>
      <trkpt lat="43.6201" lon="6.83454">
        <ele>85.4</ele>
        <time>2025-01-10T09:57:27.000Z</time>
      </trkpt>
      <trkpt lat="43.62008" lon="6.8346">
        <ele>85.4</ele>
        <time>2025-01-10T09:57:26.000Z</time>
      </trkpt>
      <trkpt lat="43.62006" lon="6.83465">
        <ele>85.4</ele>
        <time>2025-01-10T09:57:25.000Z</time>
      </trkpt>
      <trkpt lat="43.62005" lon="6.83471">
        <ele>85.4</ele>
        <time>2025-01-10T09:57:24.000Z</time>
      </trkpt>
      <trkpt lat="43.62003" lon="6.83477">
        <ele>85.4</ele>
        <time>2025-01-10T09:57:23.000Z</time>
      </trkpt>
      <trkpt lat="43.62001" lon="6.83482">
        <ele>85.4</ele>
        <time>2025-01-10T09:57:22.000Z</time>
      </trkpt>
      <trkpt lat="43.62" lon="6.83488">
        <ele>85.5</ele>
        <time>2025-01-10T09:57:21.000Z</time>
      </trkpt>
      <trkpt lat="43.61998" lon="6.83493">
        <ele>85.5</ele>
        <time>2025-01-10T09:57:20.000Z</time>
      </trkpt>
      <trkpt lat="43.61995" lon="6.83498">
        <ele>85.5</ele>
        <time>2025-01-10T09:57:19.000Z</time>
      </trkpt>
      <trkpt lat="43.61993" lon="6.83503">
        <ele>85.5</ele>
        <time>2025-01-10T09:57:18.000Z</time>
      </trkpt>
      <trkpt lat="43.6199" lon="6.83508">
        <ele>85.6</ele>
        <time>2025-01-10T09:57:17.000Z</time>
      </trkpt>
      <trkpt lat="43.61988" lon="6.83512">
        <ele>85.6</ele>
        <time>2025-01-10T09:57:16.000Z</time>
      </trkpt>
      <trkpt lat="43.61984" lon="6.83516">
        <ele>85.6</ele>
        <time>2025-01-10T09:57:15.000Z</time>
      </trkpt>
      <trkpt lat="43.61981" lon="6.83519">
        <ele>85.7</ele>
        <time>2025-01-10T09:57:14.000Z</time>
      </trkpt>
      <trkpt lat="43.61978" lon="6.83522">
        <ele>85.7</ele>
        <time>2025-01-10T09:57:13.000Z</time>
      </trkpt>
      <trkpt lat="43.61975" lon="6.83525">
        <ele>85.8</ele>
        <time>2025-01-10T09:57:12.000Z</time>
      </trkpt>
      <trkpt lat="43.61971" lon="6.83528">
        <ele>85.9</ele>
        <time>2025-01-10T09:57:11.000Z</time>
      </trkpt>
      <trkpt lat="43.61967" lon="6.83532">
        <ele>86</ele>
        <time>2025-01-10T09:57:10.000Z</time>
      </trkpt>
      <trkpt lat="43.61963" lon="6.83535">
        <ele>86.1</ele>
        <time>2025-01-10T09:57:09.000Z</time>
      </trkpt>
      <trkpt lat="43.61959" lon="6.83538">
        <ele>86.2</ele>
        <time>2025-01-10T09:57:08.000Z</time>
      </trkpt>
      <trkpt lat="43.61956" lon="6.83541">
        <ele>86.3</ele>
        <time>2025-01-10T09:57:07.000Z</time>
      </trkpt>
      <trkpt lat="43.61952" lon="6.83543">
        <ele>86.4</ele>
        <time>2025-01-10T09:57:06.000Z</time>
      </trkpt>
      <trkpt lat="43.61947" lon="6.83544">
        <ele>86.4</ele>
        <time>2025-01-10T09:57:05.000Z</time>
      </trkpt>
      <trkpt lat="43.61943" lon="6.83544">
        <ele>86.4</ele>
        <time>2025-01-10T09:57:04.000Z</time>
      </trkpt>
      <trkpt lat="43.61938" lon="6.83544">
        <ele>86.4</ele>
        <time>2025-01-10T09:57:03.000Z</time>
      </trkpt>
      <trkpt lat="43.61934" lon="6.83544">
        <ele>86.4</ele>
        <time>2025-01-10T09:57:02.000Z</time>
      </trkpt>
      <trkpt lat="43.61929" lon="6.83545">
        <ele>86.5</ele>
        <time>2025-01-10T09:57:01.000Z</time>
      </trkpt>
      <trkpt lat="43.61924" lon="6.83545">
        <ele>86.5</ele>
        <time>2025-01-10T09:57:00.000Z</time>
      </trkpt>
      <trkpt lat="43.6192" lon="6.83546">
        <ele>86.5</ele>
        <time>2025-01-10T09:56:59.000Z</time>
      </trkpt>
      <trkpt lat="43.61916" lon="6.83547">
        <ele>86.6</ele>
        <time>2025-01-10T09:56:58.000Z</time>
      </trkpt>
      <trkpt lat="43.61912" lon="6.83548">
        <ele>86.6</ele>
        <time>2025-01-10T09:56:57.000Z</time>
      </trkpt>
      <trkpt lat="43.61908" lon="6.83548">
        <ele>86.7</ele>
        <time>2025-01-10T09:56:56.000Z</time>
      </trkpt>
      <trkpt lat="43.61904" lon="6.83548">
        <ele>86.8</ele>
        <time>2025-01-10T09:56:55.000Z</time>
      </trkpt>
      <trkpt lat="43.619" lon="6.83548">
        <ele>87</ele>
        <time>2025-01-10T09:56:54.000Z</time>
      </trkpt>
      <trkpt lat="43.61895" lon="6.83547">
        <ele>87.2</ele>
        <time>2025-01-10T09:56:53.000Z</time>
      </trkpt>
      <trkpt lat="43.61891" lon="6.83546">
        <ele>87.5</ele>
        <time>2025-01-10T09:56:52.000Z</time>
      </trkpt>
      <trkpt lat="43.61887" lon="6.83546">
        <ele>87.7</ele>
        <time>2025-01-10T09:56:51.000Z</time>
      </trkpt>
      <trkpt lat="43.61882" lon="6.83545">
        <ele>88</ele>
        <time>2025-01-10T09:56:50.000Z</time>
      </trkpt>
      <trkpt lat="43.61878" lon="6.83545">
        <ele>88.2</ele>
        <time>2025-01-10T09:56:49.000Z</time>
      </trkpt>
      <trkpt lat="43.61875" lon="6.83545">
        <ele>88.5</ele>
        <time>2025-01-10T09:56:48.000Z</time>
      </trkpt>
      <trkpt lat="43.61871" lon="6.83544">
        <ele>88.7</ele>
        <time>2025-01-10T09:56:47.000Z</time>
      </trkpt>
      <trkpt lat="43.61867" lon="6.83544">
        <ele>89</ele>
        <time>2025-01-10T09:56:46.000Z</time>
      </trkpt>
      <trkpt lat="43.61864" lon="6.83543">
        <ele>89.2</ele>
        <time>2025-01-10T09:56:45.000Z</time>
      </trkpt>
      <trkpt lat="43.6186" lon="6.83542">
        <ele>89.5</ele>
        <time>2025-01-10T09:56:44.000Z</time>
      </trkpt>
      <trkpt lat="43.61857" lon="6.83541">
        <ele>89.7</ele>
        <time>2025-01-10T09:56:43.000Z</time>
      </trkpt>
      <trkpt lat="43.61855" lon="6.83541">
        <ele>90</ele>
        <time>2025-01-10T09:56:42.000Z</time>
      </trkpt>
      <trkpt lat="43.61852" lon="6.8354">
        <ele>90.2</ele>
        <time>2025-01-10T09:56:41.000Z</time>
      </trkpt>
      <trkpt lat="43.6185" lon="6.8354">
        <ele>90.4</ele>
        <time>2025-01-10T09:56:40.000Z</time>
      </trkpt>
      <trkpt lat="43.61847" lon="6.8354">
        <ele>90.6</ele>
        <time>2025-01-10T09:56:39.000Z</time>
      </trkpt>
      <trkpt lat="43.61844" lon="6.8354">
        <ele>90.8</ele>
        <time>2025-01-10T09:56:38.000Z</time>
      </trkpt>
      <trkpt lat="43.61842" lon="6.8354">
        <ele>91.1</ele>
        <time>2025-01-10T09:56:37.000Z</time>
      </trkpt>
      <trkpt lat="43.61839" lon="6.83541">
        <ele>91.3</ele>
        <time>2025-01-10T09:56:36.000Z</time>
      </trkpt>
      <trkpt lat="43.61836" lon="6.83541">
        <ele>91.5</ele>
        <time>2025-01-10T09:56:35.000Z</time>
      </trkpt>
      <trkpt lat="43.61833" lon="6.83542">
        <ele>91.6</ele>
        <time>2025-01-10T09:56:34.000Z</time>
      </trkpt>
      <trkpt lat="43.6183" lon="6.83543">
        <ele>91.8</ele>
        <time>2025-01-10T09:56:33.000Z</time>
      </trkpt>
      <trkpt lat="43.61827" lon="6.83544">
        <ele>91.8</ele>
        <time>2025-01-10T09:56:32.000Z</time>
      </trkpt>
      <trkpt lat="43.61824" lon="6.83546">
        <ele>91.8</ele>
        <time>2025-01-10T09:56:31.000Z</time>
      </trkpt>
      <trkpt lat="43.61821" lon="6.83548">
        <ele>91.8</ele>
        <time>2025-01-10T09:56:30.000Z</time>
      </trkpt>
      <trkpt lat="43.61818" lon="6.8355">
        <ele>91.6</ele>
        <time>2025-01-10T09:56:29.000Z</time>
      </trkpt>
      <trkpt lat="43.61815" lon="6.83552">
        <ele>91.4</ele>
        <time>2025-01-10T09:56:28.000Z</time>
      </trkpt>
      <trkpt lat="43.61813" lon="6.83554">
        <ele>91.1</ele>
        <time>2025-01-10T09:56:27.000Z</time>
      </trkpt>
      <trkpt lat="43.61809" lon="6.83556">
        <ele>90.7</ele>
        <time>2025-01-10T09:56:26.000Z</time>
      </trkpt>
      <trkpt lat="43.61806" lon="6.83558">
        <ele>90.3</ele>
        <time>2025-01-10T09:56:25.000Z</time>
      </trkpt>
      <trkpt lat="43.61803" lon="6.83561">
        <ele>89.7</ele>
        <time>2025-01-10T09:56:24.000Z</time>
      </trkpt>
      <trkpt lat="43.618" lon="6.83563">
        <ele>89.2</ele>
        <time>2025-01-10T09:56:23.000Z</time>
      </trkpt>
      <trkpt lat="43.61797" lon="6.83565">
        <ele>88.7</ele>
        <time>2025-01-10T09:56:22.000Z</time>
      </trkpt>
      <trkpt lat="43.61793" lon="6.83568">
        <ele>88.1</ele>
        <time>2025-01-10T09:56:21.000Z</time>
      </trkpt>
      <trkpt lat="43.6179" lon="6.83571">
        <ele>87.6</ele>
        <time>2025-01-10T09:56:20.000Z</time>
      </trkpt>
      <trkpt lat="43.61787" lon="6.83575">
        <ele>87.1</ele>
        <time>2025-01-10T09:56:19.000Z</time>
      </trkpt>
      <trkpt lat="43.61783" lon="6.83578">
        <ele>86.6</ele>
        <time>2025-01-10T09:56:18.000Z</time>
      </trkpt>
      <trkpt lat="43.61779" lon="6.83582">
        <ele>86.2</ele>
        <time>2025-01-10T09:56:17.000Z</time>
      </trkpt>
      <trkpt lat="43.61775" lon="6.83584">
        <ele>85.8</ele>
        <time>2025-01-10T09:56:16.000Z</time>
      </trkpt>
      <trkpt lat="43.6177" lon="6.83586">
        <ele>85.4</ele>
        <time>2025-01-10T09:56:15.000Z</time>
      </trkpt>
      <trkpt lat="43.61765" lon="6.83588">
        <ele>85.2</ele>
        <time>2025-01-10T09:56:14.000Z</time>
      </trkpt>
      <trkpt lat="43.61761" lon="6.8359">
        <ele>85.1</ele>
        <time>2025-01-10T09:56:13.000Z</time>
      </trkpt>
      <trkpt lat="43.61758" lon="6.83593">
        <ele>85</ele>
        <time>2025-01-10T09:56:12.000Z</time>
      </trkpt>
      <trkpt lat="43.61755" lon="6.83596">
        <ele>84.9</ele>
        <time>2025-01-10T09:56:11.000Z</time>
      </trkpt>
      <trkpt lat="43.61752" lon="6.836">
        <ele>84.9</ele>
        <time>2025-01-10T09:56:10.000Z</time>
      </trkpt>
      <trkpt lat="43.6175" lon="6.83604">
        <ele>85</ele>
        <time>2025-01-10T09:56:09.000Z</time>
      </trkpt>
      <trkpt lat="43.61748" lon="6.83609">
        <ele>85.1</ele>
        <time>2025-01-10T09:56:08.000Z</time>
      </trkpt>
      <trkpt lat="43.61747" lon="6.83614">
        <ele>85.3</ele>
        <time>2025-01-10T09:56:07.000Z</time>
      </trkpt>
      <trkpt lat="43.61746" lon="6.83618">
        <ele>85.5</ele>
        <time>2025-01-10T09:56:06.000Z</time>
      </trkpt>
      <trkpt lat="43.61745" lon="6.83622">
        <ele>85.7</ele>
        <time>2025-01-10T09:56:05.000Z</time>
      </trkpt>
      <trkpt lat="43.61744" lon="6.83626">
        <ele>85.9</ele>
        <time>2025-01-10T09:56:04.000Z</time>
      </trkpt>
      <trkpt lat="43.61742" lon="6.83629">
        <ele>86.1</ele>
        <time>2025-01-10T09:56:03.000Z</time>
      </trkpt>
      <trkpt lat="43.61741" lon="6.83632">
        <ele>86.3</ele>
        <time>2025-01-10T09:56:02.000Z</time>
      </trkpt>
      <trkpt lat="43.6174" lon="6.83636">
        <ele>86.6</ele>
        <time>2025-01-10T09:56:01.000Z</time>
      </trkpt>
      <trkpt lat="43.6174" lon="6.83639">
        <ele>86.7</ele>
        <time>2025-01-10T09:56:00.000Z</time>
      </trkpt>
      <trkpt lat="43.61739" lon="6.83643">
        <ele>86.9</ele>
        <time>2025-01-10T09:55:59.000Z</time>
      </trkpt>
      <trkpt lat="43.6174" lon="6.83647">
        <ele>87.1</ele>
        <time>2025-01-10T09:55:58.000Z</time>
      </trkpt>
      <trkpt lat="43.6174" lon="6.83651">
        <ele>87.2</ele>
        <time>2025-01-10T09:55:57.000Z</time>
      </trkpt>
      <trkpt lat="43.61741" lon="6.83656">
        <ele>87.3</ele>
        <time>2025-01-10T09:55:56.000Z</time>
      </trkpt>
      <trkpt lat="43.61742" lon="6.83661">
        <ele>87.4</ele>
        <time>2025-01-10T09:55:55.000Z</time>
      </trkpt>
      <trkpt lat="43.61742" lon="6.83667">
        <ele>87.4</ele>
        <time>2025-01-10T09:55:54.000Z</time>
      </trkpt>
      <trkpt lat="43.61743" lon="6.83672">
        <ele>87.4</ele>
        <time>2025-01-10T09:55:53.000Z</time>
      </trkpt>
      <trkpt lat="43.61744" lon="6.83677">
        <ele>87.3</ele>
        <time>2025-01-10T09:55:52.000Z</time>
      </trkpt>
      <trkpt lat="43.61746" lon="6.83681">
        <ele>87.3</ele>
        <time>2025-01-10T09:55:51.000Z</time>
      </trkpt>
      <trkpt lat="43.61748" lon="6.83685">
        <ele>87.3</ele>
        <time>2025-01-10T09:55:50.000Z</time>
      </trkpt>
      <trkpt lat="43.61751" lon="6.83688">
        <ele>87.2</ele>
        <time>2025-01-10T09:55:49.000Z</time>
      </trkpt>
      <trkpt lat="43.61754" lon="6.83692">
        <ele>87.2</ele>
        <time>2025-01-10T09:55:48.000Z</time>
      </trkpt>
      <trkpt lat="43.61758" lon="6.83695">
        <ele>87.1</ele>
        <time>2025-01-10T09:55:47.000Z</time>
      </trkpt>
      <trkpt lat="43.61762" lon="6.83697">
        <ele>87.1</ele>
        <time>2025-01-10T09:55:46.000Z</time>
      </trkpt>
      <trkpt lat="43.61765" lon="6.83699">
        <ele>87</ele>
        <time>2025-01-10T09:55:45.000Z</time>
      </trkpt>
      <trkpt lat="43.61769" lon="6.83702">
        <ele>86.8</ele>
        <time>2025-01-10T09:55:44.000Z</time>
      </trkpt>
      <trkpt lat="43.61771" lon="6.83706">
        <ele>86.7</ele>
        <time>2025-01-10T09:55:43.000Z</time>
      </trkpt>
      <trkpt lat="43.61773" lon="6.8371">
        <ele>86.6</ele>
        <time>2025-01-10T09:55:42.000Z</time>
      </trkpt>
      <trkpt lat="43.61773" lon="6.83715">
        <ele>86.5</ele>
        <time>2025-01-10T09:55:41.000Z</time>
      </trkpt>
      <trkpt lat="43.61773" lon="6.8372">
        <ele>86.4</ele>
        <time>2025-01-10T09:55:40.000Z</time>
      </trkpt>
      <trkpt lat="43.61772" lon="6.83726">
        <ele>86.3</ele>
        <time>2025-01-10T09:55:39.000Z</time>
      </trkpt>
      <trkpt lat="43.61772" lon="6.83731">
        <ele>86.3</ele>
        <time>2025-01-10T09:55:38.000Z</time>
      </trkpt>
      <trkpt lat="43.61771" lon="6.83736">
        <ele>86.2</ele>
        <time>2025-01-10T09:55:37.000Z</time>
      </trkpt>
      <trkpt lat="43.6177" lon="6.83742">
        <ele>86.1</ele>
        <time>2025-01-10T09:55:36.000Z</time>
      </trkpt>
      <trkpt lat="43.61769" lon="6.83748">
        <ele>86.1</ele>
        <time>2025-01-10T09:55:35.000Z</time>
      </trkpt>
      <trkpt lat="43.61767" lon="6.83755">
        <ele>86</ele>
        <time>2025-01-10T09:55:34.000Z</time>
      </trkpt>
      <trkpt lat="43.61766" lon="6.83761">
        <ele>86</ele>
        <time>2025-01-10T09:55:33.000Z</time>
      </trkpt>
      <trkpt lat="43.61764" lon="6.83767">
        <ele>85.9</ele>
        <time>2025-01-10T09:55:32.000Z</time>
      </trkpt>
      <trkpt lat="43.61761" lon="6.83772">
        <ele>85.9</ele>
        <time>2025-01-10T09:55:31.000Z</time>
      </trkpt>
      <trkpt lat="43.61759" lon="6.83778">
        <ele>85.8</ele>
        <time>2025-01-10T09:55:30.000Z</time>
      </trkpt>
      <trkpt lat="43.61755" lon="6.83783">
        <ele>85.8</ele>
        <time>2025-01-10T09:55:29.000Z</time>
      </trkpt>
      <trkpt lat="43.61752" lon="6.83787">
        <ele>85.7</ele>
        <time>2025-01-10T09:55:28.000Z</time>
      </trkpt>
      <trkpt lat="43.61748" lon="6.83791">
        <ele>85.5</ele>
        <time>2025-01-10T09:55:27.000Z</time>
      </trkpt>
      <trkpt lat="43.61744" lon="6.83795">
        <ele>85.4</ele>
        <time>2025-01-10T09:55:26.000Z</time>
      </trkpt>
      <trkpt lat="43.6174" lon="6.83798">
        <ele>85.3</ele>
        <time>2025-01-10T09:55:25.000Z</time>
      </trkpt>
      <trkpt lat="43.61735" lon="6.83802">
        <ele>85.1</ele>
        <time>2025-01-10T09:55:24.000Z</time>
      </trkpt>
      <trkpt lat="43.61731" lon="6.83805">
        <ele>85</ele>
        <time>2025-01-10T09:55:23.000Z</time>
      </trkpt>
      <trkpt lat="43.61727" lon="6.83809">
        <ele>84.9</ele>
        <time>2025-01-10T09:55:22.000Z</time>
      </trkpt>
      <trkpt lat="43.61723" lon="6.83812">
        <ele>84.8</ele>
        <time>2025-01-10T09:55:21.000Z</time>
      </trkpt>
      <trkpt lat="43.61718" lon="6.83815">
        <ele>84.7</ele>
        <time>2025-01-10T09:55:20.000Z</time>
      </trkpt>
      <trkpt lat="43.61714" lon="6.83818">
        <ele>84.7</ele>
        <time>2025-01-10T09:55:19.000Z</time>
      </trkpt>
      <trkpt lat="43.61709" lon="6.8382">
        <ele>84.6</ele>
        <time>2025-01-10T09:55:18.000Z</time>
      </trkpt>
      <trkpt lat="43.61705" lon="6.83823">
        <ele>84.6</ele>
        <time>2025-01-10T09:55:17.000Z</time>
      </trkpt>
      <trkpt lat="43.61701" lon="6.83825">
        <ele>84.5</ele>
        <time>2025-01-10T09:55:16.000Z</time>
      </trkpt>
      <trkpt lat="43.61697" lon="6.83828">
        <ele>84.5</ele>
        <time>2025-01-10T09:55:15.000Z</time>
      </trkpt>
      <trkpt lat="43.61693" lon="6.83831">
        <ele>84.5</ele>
        <time>2025-01-10T09:55:14.000Z</time>
      </trkpt>
      <trkpt lat="43.61689" lon="6.83834">
        <ele>84.5</ele>
        <time>2025-01-10T09:55:13.000Z</time>
      </trkpt>
      <trkpt lat="43.61685" lon="6.83836">
        <ele>84.6</ele>
        <time>2025-01-10T09:55:12.000Z</time>
      </trkpt>
      <trkpt lat="43.61681" lon="6.8384">
        <ele>84.6</ele>
        <time>2025-01-10T09:55:11.000Z</time>
      </trkpt>
      <trkpt lat="43.61676" lon="6.83843">
        <ele>84.7</ele>
        <time>2025-01-10T09:55:10.000Z</time>
      </trkpt>
      <trkpt lat="43.61671" lon="6.83847">
        <ele>84.7</ele>
        <time>2025-01-10T09:55:09.000Z</time>
      </trkpt>
      <trkpt lat="43.61667" lon="6.8385">
        <ele>84.9</ele>
        <time>2025-01-10T09:55:08.000Z</time>
      </trkpt>
      <trkpt lat="43.61662" lon="6.83853">
        <ele>85</ele>
        <time>2025-01-10T09:55:07.000Z</time>
      </trkpt>
      <trkpt lat="43.61658" lon="6.83856">
        <ele>85.2</ele>
        <time>2025-01-10T09:55:06.000Z</time>
      </trkpt>
      <trkpt lat="43.61653" lon="6.8386">
        <ele>85.4</ele>
        <time>2025-01-10T09:55:05.000Z</time>
      </trkpt>
      <trkpt lat="43.61649" lon="6.83863">
        <ele>85.7</ele>
        <time>2025-01-10T09:55:04.000Z</time>
      </trkpt>
      <trkpt lat="43.61644" lon="6.83867">
        <ele>85.9</ele>
        <time>2025-01-10T09:55:03.000Z</time>
      </trkpt>
      <trkpt lat="43.6164" lon="6.83871">
        <ele>86.2</ele>
        <time>2025-01-10T09:55:02.000Z</time>
      </trkpt>
      <trkpt lat="43.61636" lon="6.83876">
        <ele>86.4</ele>
        <time>2025-01-10T09:55:01.000Z</time>
      </trkpt>
      <trkpt lat="43.61631" lon="6.8388">
        <ele>86.7</ele>
        <time>2025-01-10T09:55:00.000Z</time>
      </trkpt>
      <trkpt lat="43.61627" lon="6.83884">
        <ele>86.9</ele>
        <time>2025-01-10T09:54:59.000Z</time>
      </trkpt>
      <trkpt lat="43.61622" lon="6.83888">
        <ele>87.2</ele>
        <time>2025-01-10T09:54:58.000Z</time>
      </trkpt>
      <trkpt lat="43.61618" lon="6.83892">
        <ele>87.4</ele>
        <time>2025-01-10T09:54:57.000Z</time>
      </trkpt>
      <trkpt lat="43.61613" lon="6.83895">
        <ele>87.7</ele>
        <time>2025-01-10T09:54:56.000Z</time>
      </trkpt>
      <trkpt lat="43.61608" lon="6.83898">
        <ele>87.9</ele>
        <time>2025-01-10T09:54:55.000Z</time>
      </trkpt>
      <trkpt lat="43.61603" lon="6.83902">
        <ele>88.2</ele>
        <time>2025-01-10T09:54:54.000Z</time>
      </trkpt>
      <trkpt lat="43.61599" lon="6.83905">
        <ele>88.4</ele>
        <time>2025-01-10T09:54:53.000Z</time>
      </trkpt>
      <trkpt lat="43.61594" lon="6.83908">
        <ele>88.6</ele>
        <time>2025-01-10T09:54:52.000Z</time>
      </trkpt>
      <trkpt lat="43.6159" lon="6.83912">
        <ele>88.9</ele>
        <time>2025-01-10T09:54:51.000Z</time>
      </trkpt>
      <trkpt lat="43.61586" lon="6.83915">
        <ele>89.1</ele>
        <time>2025-01-10T09:54:50.000Z</time>
      </trkpt>
      <trkpt lat="43.61582" lon="6.83918">
        <ele>89.3</ele>
        <time>2025-01-10T09:54:49.000Z</time>
      </trkpt>
      <trkpt lat="43.61578" lon="6.83922">
        <ele>89.6</ele>
        <time>2025-01-10T09:54:48.000Z</time>
      </trkpt>
      <trkpt lat="43.61573" lon="6.83926">
        <ele>89.8</ele>
        <time>2025-01-10T09:54:47.000Z</time>
      </trkpt>
      <trkpt lat="43.61569" lon="6.8393">
        <ele>90.1</ele>
        <time>2025-01-10T09:54:46.000Z</time>
      </trkpt>
      <trkpt lat="43.61564" lon="6.83935">
        <ele>90.2</ele>
        <time>2025-01-10T09:54:45.000Z</time>
      </trkpt>
      <trkpt lat="43.61559" lon="6.8394">
        <ele>90.3</ele>
        <time>2025-01-10T09:54:44.000Z</time>
      </trkpt>
      <trkpt lat="43.61554" lon="6.83945">
        <ele>90.4</ele>
        <time>2025-01-10T09:54:43.000Z</time>
      </trkpt>
      <trkpt lat="43.61549" lon="6.83949">
        <ele>90.5</ele>
        <time>2025-01-10T09:54:42.000Z</time>
      </trkpt>
      <trkpt lat="43.61545" lon="6.83953">
        <ele>90.7</ele>
        <time>2025-01-10T09:54:41.000Z</time>
      </trkpt>
      <trkpt lat="43.61541" lon="6.83957">
        <ele>90.8</ele>
        <time>2025-01-10T09:54:40.000Z</time>
      </trkpt>
      <trkpt lat="43.61537" lon="6.8396">
        <ele>91</ele>
        <time>2025-01-10T09:54:39.000Z</time>
      </trkpt>
      <trkpt lat="43.61534" lon="6.83964">
        <ele>91.3</ele>
        <time>2025-01-10T09:54:38.000Z</time>
      </trkpt>
      <trkpt lat="43.61531" lon="6.83966">
        <ele>91.4</ele>
        <time>2025-01-10T09:54:37.000Z</time>
      </trkpt>
      <trkpt lat="43.61527" lon="6.83969">
        <ele>91.7</ele>
        <time>2025-01-10T09:54:36.000Z</time>
      </trkpt>
      <trkpt lat="43.61525" lon="6.83972">
        <ele>91.9</ele>
        <time>2025-01-10T09:54:35.000Z</time>
      </trkpt>
      <trkpt lat="43.61522" lon="6.83974">
        <ele>92.1</ele>
        <time>2025-01-10T09:54:34.000Z</time>
      </trkpt>
      <trkpt lat="43.6152" lon="6.83975">
        <ele>92.3</ele>
        <time>2025-01-10T09:54:33.000Z</time>
      </trkpt>
      <trkpt lat="43.61517" lon="6.83975">
        <ele>92.5</ele>
        <time>2025-01-10T09:54:32.000Z</time>
      </trkpt>
      <trkpt lat="43.61514" lon="6.83975">
        <ele>92.8</ele>
        <time>2025-01-10T09:54:31.000Z</time>
      </trkpt>
      <trkpt lat="43.61511" lon="6.83974">
        <ele>93</ele>
        <time>2025-01-10T09:54:30.000Z</time>
      </trkpt>
      <trkpt lat="43.61508" lon="6.83972">
        <ele>93.2</ele>
        <time>2025-01-10T09:54:29.000Z</time>
      </trkpt>
      <trkpt lat="43.61506" lon="6.83969">
        <ele>93.4</ele>
        <time>2025-01-10T09:54:28.000Z</time>
      </trkpt>
      <trkpt lat="43.61503" lon="6.83967">
        <ele>93.5</ele>
        <time>2025-01-10T09:54:27.000Z</time>
      </trkpt>
      <trkpt lat="43.61501" lon="6.83965">
        <ele>93.7</ele>
        <time>2025-01-10T09:54:26.000Z</time>
      </trkpt>
      <trkpt lat="43.61499" lon="6.83962">
        <ele>93.8</ele>
        <time>2025-01-10T09:54:25.000Z</time>
      </trkpt>
      <trkpt lat="43.61498" lon="6.8396">
        <ele>93.8</ele>
        <time>2025-01-10T09:54:24.000Z</time>
      </trkpt>
      <trkpt lat="43.61497" lon="6.83957">
        <ele>93.8</ele>
        <time>2025-01-10T09:54:23.000Z</time>
      </trkpt>
      <trkpt lat="43.61496" lon="6.83955">
        <ele>93.9</ele>
        <time>2025-01-10T09:54:22.000Z</time>
      </trkpt>
      <trkpt lat="43.61495" lon="6.83954">
        <ele>93.9</ele>
        <time>2025-01-10T09:54:21.000Z</time>
      </trkpt>
      <trkpt lat="43.61495" lon="6.83952">
        <ele>93.8</ele>
        <time>2025-01-10T09:54:20.000Z</time>
      </trkpt>
      <trkpt lat="43.61494" lon="6.8395">
        <ele>93.8</ele>
        <time>2025-01-10T09:54:19.000Z</time>
      </trkpt>
      <trkpt lat="43.61493" lon="6.83948">
        <ele>93.8</ele>
        <time>2025-01-10T09:54:18.000Z</time>
      </trkpt>
      <trkpt lat="43.61492" lon="6.83945">
        <ele>93.7</ele>
        <time>2025-01-10T09:54:17.000Z</time>
      </trkpt>
      <trkpt lat="43.61491" lon="6.83942">
        <ele>93.6</ele>
        <time>2025-01-10T09:54:16.000Z</time>
      </trkpt>
      <trkpt lat="43.6149" lon="6.83939">
        <ele>93.4</ele>
        <time>2025-01-10T09:54:15.000Z</time>
      </trkpt>
      <trkpt lat="43.61489" lon="6.83935">
        <ele>93.2</ele>
        <time>2025-01-10T09:54:14.000Z</time>
      </trkpt>
      <trkpt lat="43.61487" lon="6.83931">
        <ele>93</ele>
        <time>2025-01-10T09:54:13.000Z</time>
      </trkpt>
      <trkpt lat="43.61486" lon="6.83927">
        <ele>92.8</ele>
        <time>2025-01-10T09:54:12.000Z</time>
      </trkpt>
      <trkpt lat="43.61485" lon="6.83924">
        <ele>92.6</ele>
        <time>2025-01-10T09:54:11.000Z</time>
      </trkpt>
      <trkpt lat="43.61484" lon="6.8392">
        <ele>92.3</ele>
        <time>2025-01-10T09:54:10.000Z</time>
      </trkpt>
      <trkpt lat="43.61483" lon="6.83917">
        <ele>92.1</ele>
        <time>2025-01-10T09:54:09.000Z</time>
      </trkpt>
      <trkpt lat="43.61482" lon="6.83914">
        <ele>91.9</ele>
        <time>2025-01-10T09:54:08.000Z</time>
      </trkpt>
      <trkpt lat="43.61481" lon="6.8391">
        <ele>91.6</ele>
        <time>2025-01-10T09:54:07.000Z</time>
      </trkpt>
      <trkpt lat="43.6148" lon="6.83907">
        <ele>91.4</ele>
        <time>2025-01-10T09:54:06.000Z</time>
      </trkpt>
      <trkpt lat="43.61479" lon="6.83903">
        <ele>91.1</ele>
        <time>2025-01-10T09:54:05.000Z</time>
      </trkpt>
      <trkpt lat="43.61479" lon="6.83899">
        <ele>90.9</ele>
        <time>2025-01-10T09:54:04.000Z</time>
      </trkpt>
      <trkpt lat="43.61478" lon="6.83896">
        <ele>90.6</ele>
        <time>2025-01-10T09:54:03.000Z</time>
      </trkpt>
      <trkpt lat="43.61478" lon="6.83893">
        <ele>90.4</ele>
        <time>2025-01-10T09:54:02.000Z</time>
      </trkpt>
      <trkpt lat="43.61478" lon="6.8389">
        <ele>90.2</ele>
        <time>2025-01-10T09:54:01.000Z</time>
      </trkpt>
      <trkpt lat="43.61477" lon="6.83887">
        <ele>90</ele>
        <time>2025-01-10T09:54:00.000Z</time>
      </trkpt>
      <trkpt lat="43.61477" lon="6.83884">
        <ele>89.8</ele>
        <time>2025-01-10T09:53:59.000Z</time>
      </trkpt>
      <trkpt lat="43.61476" lon="6.8388">
        <ele>89.5</ele>
        <time>2025-01-10T09:53:58.000Z</time>
      </trkpt>
      <trkpt lat="43.61475" lon="6.83876">
        <ele>89.3</ele>
        <time>2025-01-10T09:53:57.000Z</time>
      </trkpt>
      <trkpt lat="43.61475" lon="6.83872">
        <ele>89</ele>
        <time>2025-01-10T09:53:56.000Z</time>
      </trkpt>
      <trkpt lat="43.61474" lon="6.83868">
        <ele>88.7</ele>
        <time>2025-01-10T09:53:55.000Z</time>
      </trkpt>
      <trkpt lat="43.61474" lon="6.83863">
        <ele>88.4</ele>
        <time>2025-01-10T09:53:54.000Z</time>
      </trkpt>
      <trkpt lat="43.61473" lon="6.83858">
        <ele>88.1</ele>
        <time>2025-01-10T09:53:53.000Z</time>
      </trkpt>
      <trkpt lat="43.61472" lon="6.83854">
        <ele>87.8</ele>
        <time>2025-01-10T09:53:52.000Z</time>
      </trkpt>
      <trkpt lat="43.61471" lon="6.83851">
        <ele>87.5</ele>
        <time>2025-01-10T09:53:51.000Z</time>
      </trkpt>
      <trkpt lat="43.61469" lon="6.83847">
        <ele>87.2</ele>
        <time>2025-01-10T09:53:50.000Z</time>
      </trkpt>
      <trkpt lat="43.61468" lon="6.83843">
        <ele>86.9</ele>
        <time>2025-01-10T09:53:49.000Z</time>
      </trkpt>
      <trkpt lat="43.61467" lon="6.8384">
        <ele>86.7</ele>
        <time>2025-01-10T09:53:48.000Z</time>
      </trkpt>
      <trkpt lat="43.61465" lon="6.83836">
        <ele>86.4</ele>
        <time>2025-01-10T09:53:47.000Z</time>
      </trkpt>
      <trkpt lat="43.61464" lon="6.83833">
        <ele>86.1</ele>
        <time>2025-01-10T09:53:46.000Z</time>
      </trkpt>
      <trkpt lat="43.61462" lon="6.83829">
        <ele>85.9</ele>
        <time>2025-01-10T09:53:45.000Z</time>
      </trkpt>
      <trkpt lat="43.6146" lon="6.83825">
        <ele>85.6</ele>
        <time>2025-01-10T09:53:44.000Z</time>
      </trkpt>
      <trkpt lat="43.61459" lon="6.83822">
        <ele>85.4</ele>
        <time>2025-01-10T09:53:43.000Z</time>
      </trkpt>
      <trkpt lat="43.61457" lon="6.83818">
        <ele>85.2</ele>
        <time>2025-01-10T09:53:42.000Z</time>
      </trkpt>
      <trkpt lat="43.61456" lon="6.83814">
        <ele>84.9</ele>
        <time>2025-01-10T09:53:41.000Z</time>
      </trkpt>
      <trkpt lat="43.61455" lon="6.8381">
        <ele>84.7</ele>
        <time>2025-01-10T09:53:40.000Z</time>
      </trkpt>
      <trkpt lat="43.61454" lon="6.83807">
        <ele>84.6</ele>
        <time>2025-01-10T09:53:39.000Z</time>
      </trkpt>
      <trkpt lat="43.61454" lon="6.83806">
        <ele>84.5</ele>
        <time>2025-01-10T09:53:38.000Z</time>
      </trkpt>
      <trkpt lat="43.61454" lon="6.83806">
        <ele>84.5</ele>
        <time>2025-01-10T09:53:37.000Z</time>
      </trkpt>
      <trkpt lat="43.61454" lon="6.83806">
        <ele>84.5</ele>
        <time>2025-01-10T09:53:36.000Z</time>
      </trkpt>
      <trkpt lat="43.61454" lon="6.83806">
        <ele>84.5</ele>
        <time>2025-01-10T09:53:35.000Z</time>
      </trkpt>
      <trkpt lat="43.61454" lon="6.83806">
        <ele>84.5</ele>
        <time>2025-01-10T09:53:34.000Z</time>
      </trkpt>
      <trkpt lat="43.61454" lon="6.83806">
        <ele>84.5</ele>
        <time>2025-01-10T09:53:33.000Z</time>
      </trkpt>
      <trkpt lat="43.61454" lon="6.83806">
        <ele>84.5</ele>
        <time>2025-01-10T09:53:32.000Z</time>
      </trkpt>
      <trkpt lat="43.61454" lon="6.83806">
        <ele>84.5</ele>
        <time>2025-01-10T09:53:31.000Z</time>
      </trkpt>
      <trkpt lat="43.61454" lon="6.83806">
        <ele>84.5</ele>
        <time>2025-01-10T09:53:30.000Z</time>
      </trkpt>
      <trkpt lat="43.61454" lon="6.83806">
        <ele>84.5</ele>
        <time>2025-01-10T09:53:29.000Z</time>
      </trkpt>
      <trkpt lat="43.61454" lon="6.83806">
        <ele>84.5</ele>
        <time>2025-01-10T09:53:28.000Z</time>
      </trkpt>
      <trkpt lat="43.61453" lon="6.83806">
        <ele>84.5</ele>
        <time>2025-01-10T09:53:27.000Z</time>
      </trkpt>
      <trkpt lat="43.61453" lon="6.83806">
        <ele>84.5</ele>
        <time>2025-01-10T09:53:26.000Z</time>
      </trkpt>
      <trkpt lat="43.61452" lon="6.83806">
        <ele>84.4</ele>
        <time>2025-01-10T09:53:25.000Z</time>
      </trkpt>
      <trkpt lat="43.61452" lon="6.83806">
        <ele>84.4</ele>
        <time>2025-01-10T09:53:24.000Z</time>
      </trkpt>
      <trkpt lat="43.61452" lon="6.83806">
        <ele>84.4</ele>
        <time>2025-01-10T09:53:23.000Z</time>
      </trkpt>
      <trkpt lat="43.61451" lon="6.83805">
        <ele>84.3</ele>
        <time>2025-01-10T09:53:22.000Z</time>
      </trkpt>
      <trkpt lat="43.61451" lon="6.83805">
        <ele>84.3</ele>
        <time>2025-01-10T09:53:21.000Z</time>
      </trkpt>
      <trkpt lat="43.61451" lon="6.83805">
        <ele>84.3</ele>
        <time>2025-01-10T09:53:20.000Z</time>
      </trkpt>
      <trkpt lat="43.6145" lon="6.83804">
        <ele>84.3</ele>
        <time>2025-01-10T09:53:19.000Z</time>
      </trkpt>
      <trkpt lat="43.61451" lon="6.83804">
        <ele>84.2</ele>
        <time>2025-01-10T09:53:18.000Z</time>
      </trkpt>
      <trkpt lat="43.61452" lon="6.83804">
        <ele>84.2</ele>
        <time>2025-01-10T09:53:17.000Z</time>
      </trkpt>
      <trkpt lat="43.61452" lon="6.83804">
        <ele>84.1</ele>
        <time>2025-01-10T09:53:16.000Z</time>
      </trkpt>
      <trkpt lat="43.61453" lon="6.83805">
        <ele>84.1</ele>
        <time>2025-01-10T09:53:15.000Z</time>
      </trkpt>
      <trkpt lat="43.61453" lon="6.83806">
        <ele>84</ele>
        <time>2025-01-10T09:53:14.000Z</time>
      </trkpt>
      <trkpt lat="43.61454" lon="6.83806">
        <ele>83.9</ele>
        <time>2025-01-10T09:53:13.000Z</time>
      </trkpt>
      <trkpt lat="43.61455" lon="6.83807">
        <ele>83.9</ele>
        <time>2025-01-10T09:53:12.000Z</time>
      </trkpt>
      <trkpt lat="43.61455" lon="6.83807">
        <ele>83.9</ele>
        <time>2025-01-10T09:53:11.000Z</time>
      </trkpt>
      <trkpt lat="43.61455" lon="6.83807">
        <ele>83.9</ele>
        <time>2025-01-10T09:53:10.000Z</time>
      </trkpt>
      <trkpt lat="43.61455" lon="6.83807">
        <ele>83.9</ele>
        <time>2025-01-10T09:53:09.000Z</time>
      </trkpt>
      <trkpt lat="43.61455" lon="6.83807">
        <ele>83.9</ele>
        <time>2025-01-10T09:53:08.000Z</time>
      </trkpt>
      <trkpt lat="43.61455" lon="6.83807">
        <ele>83.9</ele>
        <time>2025-01-10T09:53:07.000Z</time>
      </trkpt>
      <trkpt lat="43.61455" lon="6.83807">
        <ele>83.9</ele>
        <time>2025-01-10T09:53:06.000Z</time>
      </trkpt>
      <trkpt lat="43.61455" lon="6.83807">
        <ele>83.9</ele>
        <time>2025-01-10T09:53:05.000Z</time>
      </trkpt>
      <trkpt lat="43.61455" lon="6.83807">
        <ele>83.9</ele>
        <time>2025-01-10T09:53:04.000Z</time>
      </trkpt>
      <trkpt lat="43.61455" lon="6.83807">
        <ele>83.9</ele>
        <time>2025-01-10T09:53:03.000Z</time>
      </trkpt>
      <trkpt lat="43.61455" lon="6.83807">
        <ele>83.9</ele>
        <time>2025-01-10T09:53:02.000Z</time>
      </trkpt>
      <trkpt lat="43.61455" lon="6.83807">
        <ele>83.9</ele>
        <time>2025-01-10T09:53:01.000Z</time>
      </trkpt>
      <trkpt lat="43.61455" lon="6.83807">
        <ele>83.9</ele>
        <time>2025-01-10T09:53:00.000Z</time>
      </trkpt>
      <trkpt lat="43.61455" lon="6.83807">
        <ele>83.9</ele>
        <time>2025-01-10T09:52:59.000Z</time>
      </trkpt>
      <trkpt lat="43.61455" lon="6.83807">
        <ele>83.9</ele>
        <time>2025-01-10T09:52:58.000Z</time>
      </trkpt>
      <trkpt lat="43.61455" lon="6.83807">
        <ele>83.9</ele>
        <time>2025-01-10T09:52:57.000Z</time>
      </trkpt>
      <trkpt lat="43.61455" lon="6.83807">
        <ele>83.9</ele>
        <time>2025-01-10T09:52:56.000Z</time>
      </trkpt>
      <trkpt lat="43.61455" lon="6.83807">
        <ele>83.9</ele>
        <time>2025-01-10T09:52:55.000Z</time>
      </trkpt>
      <trkpt lat="43.61455" lon="6.83807">
        <ele>83.9</ele>
        <time>2025-01-10T09:52:54.000Z</time>
      </trkpt>
      <trkpt lat="43.61455" lon="6.83807">
        <ele>83.9</ele>
        <time>2025-01-10T09:52:53.000Z</time>
      </trkpt>
      <trkpt lat="43.61455" lon="6.83807">
        <ele>83.9</ele>
        <time>2025-01-10T09:52:52.000Z</time>
      </trkpt>
      <trkpt lat="43.61455" lon="6.83807">
        <ele>83.9</ele>
        <time>2025-01-10T09:52:51.000Z</time>
      </trkpt>
      <trkpt lat="43.61455" lon="6.83807">
        <ele>83.9</ele>
        <time>2025-01-10T09:52:50.000Z</time>
      </trkpt>
      <trkpt lat="43.61455" lon="6.83807">
        <ele>83.9</ele>
        <time>2025-01-10T09:52:49.000Z</time>
      </trkpt>
      <trkpt lat="43.61455" lon="6.83807">
        <ele>83.9</ele>
        <time>2025-01-10T09:52:48.000Z</time>
      </trkpt>
      <trkpt lat="43.61455" lon="6.83807">
        <ele>83.9</ele>
        <time>2025-01-10T09:52:47.000Z</time>
      </trkpt>
      <trkpt lat="43.61455" lon="6.83807">
        <ele>83.9</ele>
        <time>2025-01-10T09:52:46.000Z</time>
      </trkpt>
      <trkpt lat="43.61455" lon="6.83807">
        <ele>83.9</ele>
        <time>2025-01-10T09:52:45.000Z</time>
      </trkpt>
      <trkpt lat="43.61455" lon="6.83807">
        <ele>83.9</ele>
        <time>2025-01-10T09:52:44.000Z</time>
      </trkpt>
      <trkpt lat="43.61455" lon="6.83807">
        <ele>83.9</ele>
        <time>2025-01-10T09:52:43.000Z</time>
      </trkpt>
      <trkpt lat="43.61455" lon="6.83807">
        <ele>83.9</ele>
        <time>2025-01-10T09:52:42.000Z</time>
      </trkpt>
      <trkpt lat="43.61455" lon="6.83807">
        <ele>83.9</ele>
        <time>2025-01-10T09:52:41.000Z</time>
      </trkpt>
      <trkpt lat="43.61455" lon="6.83807">
        <ele>83.9</ele>
        <time>2025-01-10T09:52:40.000Z</time>
      </trkpt>
      <trkpt lat="43.61455" lon="6.83807">
        <ele>83.9</ele>
        <time>2025-01-10T09:52:39.000Z</time>
      </trkpt>
      <trkpt lat="43.61455" lon="6.83807">
        <ele>83.9</ele>
        <time>2025-01-10T09:52:38.000Z</time>
      </trkpt>
      <trkpt lat="43.61455" lon="6.83807">
        <ele>83.9</ele>
        <time>2025-01-10T09:52:37.000Z</time>
      </trkpt>
      <trkpt lat="43.61455" lon="6.83807">
        <ele>83.9</ele>
        <time>2025-01-10T09:52:36.000Z</time>
      </trkpt>
      <trkpt lat="43.61455" lon="6.83807">
        <ele>83.9</ele>
        <time>2025-01-10T09:52:35.000Z</time>
      </trkpt>
      <trkpt lat="43.61455" lon="6.83807">
        <ele>83.9</ele>
        <time>2025-01-10T09:52:34.000Z</time>
      </trkpt>
      <trkpt lat="43.61455" lon="6.83807">
        <ele>83.9</ele>
        <time>2025-01-10T09:52:33.000Z</time>
      </trkpt>
      <trkpt lat="43.61455" lon="6.83807">
        <ele>83.9</ele>
        <time>2025-01-10T09:52:32.000Z</time>
      </trkpt>
      <trkpt lat="43.61455" lon="6.83807">
        <ele>83.9</ele>
        <time>2025-01-10T09:52:31.000Z</time>
      </trkpt>
      <trkpt lat="43.61455" lon="6.83807">
        <ele>83.9</ele>
        <time>2025-01-10T09:52:30.000Z</time>
      </trkpt>
      <trkpt lat="43.61455" lon="6.83807">
        <ele>83.9</ele>
        <time>2025-01-10T09:52:29.000Z</time>
      </trkpt>
      <trkpt lat="43.61455" lon="6.83807">
        <ele>83.9</ele>
        <time>2025-01-10T09:52:28.000Z</time>
      </trkpt>
      <trkpt lat="43.61455" lon="6.83807">
        <ele>83.9</ele>
        <time>2025-01-10T09:52:27.000Z</time>
      </trkpt>
      <trkpt lat="43.61455" lon="6.83807">
        <ele>83.9</ele>
        <time>2025-01-10T09:52:26.000Z</time>
      </trkpt>
      <trkpt lat="43.61455" lon="6.83807">
        <ele>83.9</ele>
        <time>2025-01-10T09:52:25.000Z</time>
      </trkpt>
      <trkpt lat="43.61455" lon="6.83807">
        <ele>83.9</ele>
        <time>2025-01-10T09:52:24.000Z</time>
      </trkpt>
      <trkpt lat="43.61455" lon="6.83807">
        <ele>83.9</ele>
        <time>2025-01-10T09:52:23.000Z</time>
      </trkpt>
      <trkpt lat="43.61455" lon="6.83807">
        <ele>83.9</ele>
        <time>2025-01-10T09:52:22.000Z</time>
      </trkpt>
      <trkpt lat="43.61455" lon="6.83807">
        <ele>83.9</ele>
        <time>2025-01-10T09:52:21.000Z</time>
      </trkpt>
      <trkpt lat="43.61455" lon="6.83807">
        <ele>83.9</ele>
        <time>2025-01-10T09:52:20.000Z</time>
      </trkpt>
      <trkpt lat="43.61455" lon="6.83807">
        <ele>83.9</ele>
        <time>2025-01-10T09:52:19.000Z</time>
      </trkpt>
      <trkpt lat="43.61454" lon="6.83807">
        <ele>83.9</ele>
        <time>2025-01-10T09:52:18.000Z</time>
      </trkpt>
      <trkpt lat="43.61454" lon="6.83807">
        <ele>83.9</ele>
        <time>2025-01-10T09:52:17.000Z</time>
      </trkpt>
      <trkpt lat="43.61454" lon="6.83807">
        <ele>83.9</ele>
        <time>2025-01-10T09:52:16.000Z</time>
      </trkpt>
      <trkpt lat="43.61454" lon="6.83807">
        <ele>83.9</ele>
        <time>2025-01-10T09:52:15.000Z</time>
      </trkpt>
      <trkpt lat="43.61454" lon="6.83807">
        <ele>83.9</ele>
        <time>2025-01-10T09:52:14.000Z</time>
      </trkpt>
      <trkpt lat="43.61454" lon="6.83807">
        <ele>83.9</ele>
        <time>2025-01-10T09:52:13.000Z</time>
      </trkpt>
      <trkpt lat="43.61454" lon="6.83807">
        <ele>83.8</ele>
        <time>2025-01-10T09:52:12.000Z</time>
      </trkpt>
      <trkpt lat="43.61454" lon="6.83807">
        <ele>83.8</ele>
        <time>2025-01-10T09:52:11.000Z</time>
      </trkpt>
      <trkpt lat="43.61454" lon="6.83807">
        <ele>83.8</ele>
        <time>2025-01-10T09:52:10.000Z</time>
      </trkpt>
      <trkpt lat="43.61454" lon="6.83807">
        <ele>83.8</ele>
        <time>2025-01-10T09:52:09.000Z</time>
      </trkpt>
      <trkpt lat="43.61454" lon="6.83807">
        <ele>83.8</ele>
        <time>2025-01-10T09:52:08.000Z</time>
      </trkpt>
      <trkpt lat="43.61454" lon="6.83807">
        <ele>83.8</ele>
        <time>2025-01-10T09:52:07.000Z</time>
      </trkpt>
      <trkpt lat="43.61454" lon="6.83807">
        <ele>83.8</ele>
        <time>2025-01-10T09:52:06.000Z</time>
      </trkpt>
      <trkpt lat="43.61454" lon="6.83807">
        <ele>83.8</ele>
        <time>2025-01-10T09:52:05.000Z</time>
      </trkpt>
      <trkpt lat="43.61454" lon="6.83807">
        <ele>83.8</ele>
        <time>2025-01-10T09:52:04.000Z</time>
      </trkpt>
      <trkpt lat="43.61454" lon="6.83807">
        <ele>83.8</ele>
        <time>2025-01-10T09:52:03.000Z</time>
      </trkpt>
      <trkpt lat="43.61454" lon="6.83807">
        <ele>83.8</ele>
        <time>2025-01-10T09:52:02.000Z</time>
      </trkpt>
      <trkpt lat="43.61454" lon="6.83807">
        <ele>83.8</ele>
        <time>2025-01-10T09:52:01.000Z</time>
      </trkpt>
      <trkpt lat="43.61454" lon="6.83807">
        <ele>83.8</ele>
        <time>2025-01-10T09:52:00.000Z</time>
      </trkpt>
      <trkpt lat="43.61454" lon="6.83807">
        <ele>83.8</ele>
        <time>2025-01-10T09:51:59.000Z</time>
      </trkpt>
      <trkpt lat="43.61454" lon="6.83807">
        <ele>83.8</ele>
        <time>2025-01-10T09:51:58.000Z</time>
      </trkpt>
      <trkpt lat="43.61454" lon="6.83807">
        <ele>83.8</ele>
        <time>2025-01-10T09:51:57.000Z</time>
      </trkpt>
      <trkpt lat="43.61454" lon="6.83807">
        <ele>83.8</ele>
        <time>2025-01-10T09:51:56.000Z</time>
      </trkpt>
      <trkpt lat="43.61454" lon="6.83807">
        <ele>83.8</ele>
        <time>2025-01-10T09:51:55.000Z</time>
      </trkpt>
      <trkpt lat="43.61454" lon="6.83807">
        <ele>83.8</ele>
        <time>2025-01-10T09:51:54.000Z</time>
      </trkpt>
      <trkpt lat="43.61454" lon="6.83807">
        <ele>83.8</ele>
        <time>2025-01-10T09:51:53.000Z</time>
      </trkpt>
      <trkpt lat="43.61454" lon="6.83807">
        <ele>83.8</ele>
        <time>2025-01-10T09:51:52.000Z</time>
      </trkpt>
      <trkpt lat="43.61454" lon="6.83807">
        <ele>83.8</ele>
        <time>2025-01-10T09:51:51.000Z</time>
      </trkpt>
      <trkpt lat="43.61454" lon="6.83807">
        <ele>83.8</ele>
        <time>2025-01-10T09:51:50.000Z</time>
      </trkpt>
      <trkpt lat="43.61454" lon="6.83807">
        <ele>83.8</ele>
        <time>2025-01-10T09:51:49.000Z</time>
      </trkpt>
      <trkpt lat="43.61454" lon="6.83807">
        <ele>83.8</ele>
        <time>2025-01-10T09:51:48.000Z</time>
      </trkpt>
      <trkpt lat="43.61454" lon="6.83807">
        <ele>83.8</ele>
        <time>2025-01-10T09:51:47.000Z</time>
      </trkpt>
      <trkpt lat="43.61454" lon="6.83807">
        <ele>83.8</ele>
        <time>2025-01-10T09:51:46.000Z</time>
      </trkpt>
      <trkpt lat="43.61454" lon="6.83807">
        <ele>83.8</ele>
        <time>2025-01-10T09:51:45.000Z</time>
      </trkpt>
      <trkpt lat="43.61454" lon="6.83807">
        <ele>83.8</ele>
        <time>2025-01-10T09:51:44.000Z</time>
      </trkpt>
      <trkpt lat="43.61454" lon="6.83807">
        <ele>83.8</ele>
        <time>2025-01-10T09:51:43.000Z</time>
      </trkpt>
      <trkpt lat="43.61454" lon="6.83807">
        <ele>83.8</ele>
        <time>2025-01-10T09:51:42.000Z</time>
      </trkpt>
      <trkpt lat="43.61454" lon="6.83807">
        <ele>83.8</ele>
        <time>2025-01-10T09:51:41.000Z</time>
      </trkpt>
      <trkpt lat="43.61454" lon="6.83807">
        <ele>83.8</ele>
        <time>2025-01-10T09:51:40.000Z</time>
      </trkpt>
      <trkpt lat="43.61454" lon="6.83807">
        <ele>83.8</ele>
        <time>2025-01-10T09:51:39.000Z</time>
      </trkpt>
      <trkpt lat="43.61454" lon="6.83807">
        <ele>83.8</ele>
        <time>2025-01-10T09:51:38.000Z</time>
      </trkpt>
      <trkpt lat="43.61454" lon="6.83807">
        <ele>83.8</ele>
        <time>2025-01-10T09:51:37.000Z</time>
      </trkpt>
      <trkpt lat="43.61454" lon="6.83807">
        <ele>83.8</ele>
        <time>2025-01-10T09:51:36.000Z</time>
      </trkpt>
      <trkpt lat="43.61454" lon="6.83807">
        <ele>83.8</ele>
        <time>2025-01-10T09:51:35.000Z</time>
      </trkpt>
      <trkpt lat="43.61454" lon="6.83807">
        <ele>83.8</ele>
        <time>2025-01-10T09:51:34.000Z</time>
      </trkpt>
      <trkpt lat="43.61454" lon="6.83807">
        <ele>83.8</ele>
        <time>2025-01-10T09:51:33.000Z</time>
      </trkpt>
      <trkpt lat="43.61454" lon="6.83807">
        <ele>83.8</ele>
        <time>2025-01-10T09:51:32.000Z</time>
      </trkpt>
      <trkpt lat="43.61454" lon="6.83807">
        <ele>83.7</ele>
        <time>2025-01-10T09:51:31.000Z</time>
      </trkpt>
      <trkpt lat="43.61454" lon="6.83807">
        <ele>83.7</ele>
        <time>2025-01-10T09:51:30.000Z</time>
      </trkpt>
      <trkpt lat="43.61454" lon="6.83807">
        <ele>83.7</ele>
        <time>2025-01-10T09:51:29.000Z</time>
      </trkpt>
      <trkpt lat="43.61454" lon="6.83807">
        <ele>83.7</ele>
        <time>2025-01-10T09:51:28.000Z</time>
      </trkpt>
      <trkpt lat="43.61454" lon="6.83808">
        <ele>83.7</ele>
        <time>2025-01-10T09:51:27.000Z</time>
      </trkpt>
      <trkpt lat="43.61454" lon="6.83808">
        <ele>83.7</ele>
        <time>2025-01-10T09:51:26.000Z</time>
      </trkpt>
      <trkpt lat="43.61454" lon="6.83808">
        <ele>83.7</ele>
        <time>2025-01-10T09:51:25.000Z</time>
      </trkpt>
      <trkpt lat="43.61454" lon="6.83808">
        <ele>83.7</ele>
        <time>2025-01-10T09:51:24.000Z</time>
      </trkpt>
      <trkpt lat="43.61454" lon="6.83808">
        <ele>83.7</ele>
        <time>2025-01-10T09:51:23.000Z</time>
      </trkpt>
      <trkpt lat="43.61454" lon="6.83808">
        <ele>83.7</ele>
        <time>2025-01-10T09:51:22.000Z</time>
      </trkpt>
      <trkpt lat="43.61454" lon="6.83808">
        <ele>83.7</ele>
        <time>2025-01-10T09:51:21.000Z</time>
      </trkpt>
      <trkpt lat="43.61454" lon="6.83808">
        <ele>83.7</ele>
        <time>2025-01-10T09:51:20.000Z</time>
      </trkpt>
      <trkpt lat="43.61454" lon="6.83808">
        <ele>83.7</ele>
        <time>2025-01-10T09:51:19.000Z</time>
      </trkpt>
      <trkpt lat="43.61454" lon="6.83808">
        <ele>83.7</ele>
        <time>2025-01-10T09:51:18.000Z</time>
      </trkpt>
      <trkpt lat="43.61454" lon="6.83808">
        <ele>83.7</ele>
        <time>2025-01-10T09:51:17.000Z</time>
      </trkpt>
      <trkpt lat="43.61454" lon="6.83808">
        <ele>83.7</ele>
        <time>2025-01-10T09:51:16.000Z</time>
      </trkpt>
      <trkpt lat="43.61454" lon="6.83808">
        <ele>83.7</ele>
        <time>2025-01-10T09:51:15.000Z</time>
      </trkpt>
      <trkpt lat="43.61454" lon="6.83808">
        <ele>83.7</ele>
        <time>2025-01-10T09:51:14.000Z</time>
      </trkpt>
      <trkpt lat="43.61454" lon="6.83808">
        <ele>83.7</ele>
        <time>2025-01-10T09:51:13.000Z</time>
      </trkpt>
      <trkpt lat="43.61454" lon="6.83808">
        <ele>83.7</ele>
        <time>2025-01-10T09:51:12.000Z</time>
      </trkpt>
      <trkpt lat="43.61454" lon="6.83808">
        <ele>83.7</ele>
        <time>2025-01-10T09:51:11.000Z</time>
      </trkpt>
      <trkpt lat="43.61454" lon="6.83808">
        <ele>83.7</ele>
        <time>2025-01-10T09:51:10.000Z</time>
      </trkpt>
      <trkpt lat="43.61454" lon="6.83808">
        <ele>83.7</ele>
        <time>2025-01-10T09:51:09.000Z</time>
      </trkpt>
      <trkpt lat="43.61454" lon="6.83808">
        <ele>83.7</ele>
        <time>2025-01-10T09:51:08.000Z</time>
      </trkpt>
      <trkpt lat="43.61454" lon="6.83808">
        <ele>83.7</ele>
        <time>2025-01-10T09:51:07.000Z</time>
      </trkpt>
      <trkpt lat="43.61454" lon="6.83808">
        <ele>83.7</ele>
        <time>2025-01-10T09:51:06.000Z</time>
      </trkpt>
      <trkpt lat="43.61454" lon="6.83808">
        <ele>83.7</ele>
        <time>2025-01-10T09:51:05.000Z</time>
      </trkpt>
      <trkpt lat="43.61454" lon="6.83808">
        <ele>83.7</ele>
        <time>2025-01-10T09:51:04.000Z</time>
      </trkpt>
      <trkpt lat="43.61454" lon="6.83808">
        <ele>83.7</ele>
        <time>2025-01-10T09:51:03.000Z</time>
      </trkpt>
      <trkpt lat="43.61454" lon="6.83808">
        <ele>83.7</ele>
        <time>2025-01-10T09:51:02.000Z</time>
      </trkpt>
      <trkpt lat="43.61454" lon="6.83808">
        <ele>83.7</ele>
        <time>2025-01-10T09:51:01.000Z</time>
      </trkpt>
      <trkpt lat="43.61454" lon="6.83808">
        <ele>83.7</ele>
        <time>2025-01-10T09:51:00.000Z</time>
      </trkpt>
      <trkpt lat="43.61454" lon="6.83808">
        <ele>83.7</ele>
        <time>2025-01-10T09:50:59.000Z</time>
      </trkpt>
      <trkpt lat="43.61454" lon="6.83808">
        <ele>83.7</ele>
        <time>2025-01-10T09:50:58.000Z</time>
      </trkpt>
      <trkpt lat="43.61454" lon="6.83808">
        <ele>83.7</ele>
        <time>2025-01-10T09:50:57.000Z</time>
      </trkpt>
      <trkpt lat="43.61454" lon="6.83808">
        <ele>83.7</ele>
        <time>2025-01-10T09:50:56.000Z</time>
      </trkpt>
      <trkpt lat="43.61454" lon="6.83808">
        <ele>83.6</ele>
        <time>2025-01-10T09:50:55.000Z</time>
      </trkpt>
      <trkpt lat="43.61454" lon="6.83808">
        <ele>83.6</ele>
        <time>2025-01-10T09:50:54.000Z</time>
      </trkpt>
      <trkpt lat="43.61454" lon="6.83808">
        <ele>83.6</ele>
        <time>2025-01-10T09:50:53.000Z</time>
      </trkpt>
      <trkpt lat="43.61454" lon="6.83808">
        <ele>83.6</ele>
        <time>2025-01-10T09:50:52.000Z</time>
      </trkpt>
      <trkpt lat="43.61454" lon="6.83808">
        <ele>83.6</ele>
        <time>2025-01-10T09:50:51.000Z</time>
      </trkpt>
      <trkpt lat="43.61454" lon="6.83808">
        <ele>83.6</ele>
        <time>2025-01-10T09:50:50.000Z</time>
      </trkpt>
      <trkpt lat="43.61454" lon="6.83808">
        <ele>83.6</ele>
        <time>2025-01-10T09:50:49.000Z</time>
      </trkpt>
      <trkpt lat="43.61453" lon="6.83808">
        <ele>83.6</ele>
        <time>2025-01-10T09:50:48.000Z</time>
      </trkpt>
      <trkpt lat="43.61453" lon="6.83808">
        <ele>83.6</ele>
        <time>2025-01-10T09:50:47.000Z</time>
      </trkpt>
      <trkpt lat="43.61453" lon="6.83808">
        <ele>83.6</ele>
        <time>2025-01-10T09:50:46.000Z</time>
      </trkpt>
      <trkpt lat="43.61453" lon="6.83808">
        <ele>83.6</ele>
        <time>2025-01-10T09:50:45.000Z</time>
      </trkpt>
      <trkpt lat="43.61453" lon="6.83808">
        <ele>83.6</ele>
        <time>2025-01-10T09:50:44.000Z</time>
      </trkpt>
      <trkpt lat="43.61453" lon="6.83808">
        <ele>83.6</ele>
        <time>2025-01-10T09:50:43.000Z</time>
      </trkpt>
      <trkpt lat="43.61453" lon="6.83807">
        <ele>83.6</ele>
        <time>2025-01-10T09:50:42.000Z</time>
      </trkpt>
      <trkpt lat="43.61453" lon="6.83807">
        <ele>83.6</ele>
        <time>2025-01-10T09:50:41.000Z</time>
      </trkpt>
      <trkpt lat="43.61453" lon="6.83807">
        <ele>83.6</ele>
        <time>2025-01-10T09:50:40.000Z</time>
      </trkpt>
      <trkpt lat="43.61453" lon="6.83807">
        <ele>83.6</ele>
        <time>2025-01-10T09:50:39.000Z</time>
      </trkpt>
      <trkpt lat="43.61453" lon="6.83807">
        <ele>83.6</ele>
        <time>2025-01-10T09:50:38.000Z</time>
      </trkpt>
      <trkpt lat="43.61453" lon="6.83807">
        <ele>83.6</ele>
        <time>2025-01-10T09:50:37.000Z</time>
      </trkpt>
      <trkpt lat="43.61453" lon="6.83807">
        <ele>83.6</ele>
        <time>2025-01-10T09:50:36.000Z</time>
      </trkpt>
      <trkpt lat="43.61453" lon="6.83807">
        <ele>83.6</ele>
        <time>2025-01-10T09:50:35.000Z</time>
      </trkpt>
      <trkpt lat="43.61453" lon="6.83807">
        <ele>83.6</ele>
        <time>2025-01-10T09:50:34.000Z</time>
      </trkpt>
      <trkpt lat="43.61453" lon="6.83807">
        <ele>83.5</ele>
        <time>2025-01-10T09:50:33.000Z</time>
      </trkpt>
      <trkpt lat="43.61453" lon="6.83806">
        <ele>83.5</ele>
        <time>2025-01-10T09:50:32.000Z</time>
      </trkpt>
      <trkpt lat="43.61453" lon="6.83806">
        <ele>83.5</ele>
        <time>2025-01-10T09:50:31.000Z</time>
      </trkpt>
      <trkpt lat="43.61453" lon="6.83806">
        <ele>83.5</ele>
        <time>2025-01-10T09:50:30.000Z</time>
      </trkpt>
      <trkpt lat="43.61453" lon="6.83806">
        <ele>83.5</ele>
        <time>2025-01-10T09:50:29.000Z</time>
      </trkpt>
      <trkpt lat="43.61453" lon="6.83805">
        <ele>83.5</ele>
        <time>2025-01-10T09:50:28.000Z</time>
      </trkpt>
      <trkpt lat="43.61453" lon="6.83805">
        <ele>83.5</ele>
        <time>2025-01-10T09:50:27.000Z</time>
      </trkpt>
      <trkpt lat="43.61453" lon="6.83805">
        <ele>83.5</ele>
        <time>2025-01-10T09:50:26.000Z</time>
      </trkpt>
      <trkpt lat="43.61453" lon="6.83805">
        <ele>83.5</ele>
        <time>2025-01-10T09:50:25.000Z</time>
      </trkpt>
      <trkpt lat="43.61453" lon="6.83805">
        <ele>83.5</ele>
        <time>2025-01-10T09:50:24.000Z</time>
      </trkpt>
      <trkpt lat="43.61453" lon="6.83805">
        <ele>83.5</ele>
        <time>2025-01-10T09:50:23.000Z</time>
      </trkpt>
      <trkpt lat="43.61453" lon="6.83805">
        <ele>83.5</ele>
        <time>2025-01-10T09:50:22.000Z</time>
      </trkpt>
      <trkpt lat="43.61453" lon="6.83805">
        <ele>83.5</ele>
        <time>2025-01-10T09:50:21.000Z</time>
      </trkpt>
      <trkpt lat="43.61453" lon="6.83805">
        <ele>83.5</ele>
        <time>2025-01-10T09:50:20.000Z</time>
      </trkpt>
      <trkpt lat="43.61453" lon="6.83805">
        <ele>83.5</ele>
        <time>2025-01-10T09:50:19.000Z</time>
      </trkpt>
      <trkpt lat="43.61453" lon="6.83805">
        <ele>83.5</ele>
        <time>2025-01-10T09:50:18.000Z</time>
      </trkpt>
      <trkpt lat="43.61453" lon="6.83804">
        <ele>83.4</ele>
        <time>2025-01-10T09:50:17.000Z</time>
      </trkpt>
      <trkpt lat="43.61453" lon="6.83804">
        <ele>83.4</ele>
        <time>2025-01-10T09:50:16.000Z</time>
      </trkpt>
      <trkpt lat="43.61453" lon="6.83804">
        <ele>83.4</ele>
        <time>2025-01-10T09:50:15.000Z</time>
      </trkpt>
      <trkpt lat="43.61452" lon="6.83804">
        <ele>83.4</ele>
        <time>2025-01-10T09:50:14.000Z</time>
      </trkpt>
      <trkpt lat="43.61451" lon="6.83804">
        <ele>83.3</ele>
        <time>2025-01-10T09:50:13.000Z</time>
      </trkpt>
      <trkpt lat="43.61451" lon="6.83804">
        <ele>83.3</ele>
        <time>2025-01-10T09:50:12.000Z</time>
      </trkpt>
      <trkpt lat="43.6145" lon="6.83804">
        <ele>83.3</ele>
        <time>2025-01-10T09:50:11.000Z</time>
      </trkpt>
      <trkpt lat="43.6145" lon="6.83804">
        <ele>83.2</ele>
        <time>2025-01-10T09:50:10.000Z</time>
      </trkpt>
      <trkpt lat="43.6145" lon="6.83804">
        <ele>83.2</ele>
        <time>2025-01-10T09:50:09.000Z</time>
      </trkpt>
      <trkpt lat="43.6145" lon="6.83804">
        <ele>83.2</ele>
        <time>2025-01-10T09:50:08.000Z</time>
      </trkpt>
      <trkpt lat="43.6145" lon="6.83804">
        <ele>83.2</ele>
        <time>2025-01-10T09:50:07.000Z</time>
      </trkpt>
      <trkpt lat="43.61449" lon="6.83804">
        <ele>83.2</ele>
        <time>2025-01-10T09:50:06.000Z</time>
      </trkpt>
      <trkpt lat="43.61449" lon="6.83804">
        <ele>83.2</ele>
        <time>2025-01-10T09:50:05.000Z</time>
      </trkpt>
      <trkpt lat="43.61449" lon="6.83804">
        <ele>83.2</ele>
        <time>2025-01-10T09:50:04.000Z</time>
      </trkpt>
      <trkpt lat="43.61449" lon="6.83804">
        <ele>83.2</ele>
        <time>2025-01-10T09:50:03.000Z</time>
      </trkpt>
      <trkpt lat="43.61449" lon="6.83803">
        <ele>83.2</ele>
        <time>2025-01-10T09:50:02.000Z</time>
      </trkpt>
      <trkpt lat="43.61449" lon="6.83803">
        <ele>83.2</ele>
        <time>2025-01-10T09:50:01.000Z</time>
      </trkpt>
      <trkpt lat="43.61449" lon="6.83803">
        <ele>83.2</ele>
        <time>2025-01-10T09:50:00.000Z</time>
      </trkpt>
      <trkpt lat="43.61449" lon="6.83803">
        <ele>83.2</ele>
        <time>2025-01-10T09:49:59.000Z</time>
      </trkpt>
      <trkpt lat="43.61449" lon="6.83803">
        <ele>83.2</ele>
        <time>2025-01-10T09:49:58.000Z</time>
      </trkpt>
      <trkpt lat="43.61449" lon="6.83803">
        <ele>83.2</ele>
        <time>2025-01-10T09:49:57.000Z</time>
      </trkpt>
      <trkpt lat="43.61449" lon="6.83803">
        <ele>83.2</ele>
        <time>2025-01-10T09:49:56.000Z</time>
      </trkpt>
      <trkpt lat="43.61449" lon="6.83803">
        <ele>83.2</ele>
        <time>2025-01-10T09:49:55.000Z</time>
      </trkpt>
      <trkpt lat="43.61449" lon="6.83803">
        <ele>83.2</ele>
        <time>2025-01-10T09:49:54.000Z</time>
      </trkpt>
      <trkpt lat="43.61449" lon="6.83803">
        <ele>83.2</ele>
        <time>2025-01-10T09:49:53.000Z</time>
      </trkpt>
      <trkpt lat="43.61449" lon="6.83803">
        <ele>83.2</ele>
        <time>2025-01-10T09:49:52.000Z</time>
      </trkpt>
      <trkpt lat="43.61449" lon="6.83803">
        <ele>83.2</ele>
        <time>2025-01-10T09:49:51.000Z</time>
      </trkpt>
      <trkpt lat="43.61449" lon="6.83803">
        <ele>83.2</ele>
        <time>2025-01-10T09:49:50.000Z</time>
      </trkpt>
      <trkpt lat="43.61449" lon="6.83803">
        <ele>83.2</ele>
        <time>2025-01-10T09:49:49.000Z</time>
      </trkpt>
      <trkpt lat="43.61449" lon="6.83803">
        <ele>83.2</ele>
        <time>2025-01-10T09:49:48.000Z</time>
      </trkpt>
      <trkpt lat="43.61449" lon="6.83803">
        <ele>83.2</ele>
        <time>2025-01-10T09:49:47.000Z</time>
      </trkpt>
      <trkpt lat="43.61449" lon="6.83803">
        <ele>83.2</ele>
        <time>2025-01-10T09:49:46.000Z</time>
      </trkpt>
      <trkpt lat="43.61449" lon="6.83804">
        <ele>83.2</ele>
        <time>2025-01-10T09:49:45.000Z</time>
      </trkpt>
      <trkpt lat="43.61449" lon="6.83804">
        <ele>83.1</ele>
        <time>2025-01-10T09:49:44.000Z</time>
      </trkpt>
      <trkpt lat="43.61449" lon="6.83804">
        <ele>83.1</ele>
        <time>2025-01-10T09:49:43.000Z</time>
      </trkpt>
      <trkpt lat="43.61449" lon="6.83804">
        <ele>83.1</ele>
        <time>2025-01-10T09:49:42.000Z</time>
      </trkpt>
      <trkpt lat="43.61449" lon="6.83804">
        <ele>83.1</ele>
        <time>2025-01-10T09:49:41.000Z</time>
      </trkpt>
      <trkpt lat="43.61449" lon="6.83804">
        <ele>83.1</ele>
        <time>2025-01-10T09:49:40.000Z</time>
      </trkpt>
      <trkpt lat="43.61449" lon="6.83804">
        <ele>83.1</ele>
        <time>2025-01-10T09:49:39.000Z</time>
      </trkpt>
      <trkpt lat="43.61449" lon="6.83804">
        <ele>83.1</ele>
        <time>2025-01-10T09:49:38.000Z</time>
      </trkpt>
      <trkpt lat="43.61449" lon="6.83804">
        <ele>83.1</ele>
        <time>2025-01-10T09:49:37.000Z</time>
      </trkpt>
      <trkpt lat="43.61449" lon="6.83804">
        <ele>83.1</ele>
        <time>2025-01-10T09:49:36.000Z</time>
      </trkpt>
      <trkpt lat="43.6145" lon="6.83804">
        <ele>83.1</ele>
        <time>2025-01-10T09:49:35.000Z</time>
      </trkpt>
      <trkpt lat="43.6145" lon="6.83804">
        <ele>83.1</ele>
        <time>2025-01-10T09:49:34.000Z</time>
      </trkpt>
      <trkpt lat="43.6145" lon="6.83804">
        <ele>83.1</ele>
        <time>2025-01-10T09:49:33.000Z</time>
      </trkpt>
      <trkpt lat="43.6145" lon="6.83804">
        <ele>83.1</ele>
        <time>2025-01-10T09:49:32.000Z</time>
      </trkpt>
      <trkpt lat="43.6145" lon="6.83804">
        <ele>83.1</ele>
        <time>2025-01-10T09:49:31.000Z</time>
      </trkpt>
      <trkpt lat="43.6145" lon="6.83804">
        <ele>83.1</ele>
        <time>2025-01-10T09:49:30.000Z</time>
      </trkpt>
      <trkpt lat="43.6145" lon="6.83804">
        <ele>83.1</ele>
        <time>2025-01-10T09:49:29.000Z</time>
      </trkpt>
      <trkpt lat="43.6145" lon="6.83804">
        <ele>83.1</ele>
        <time>2025-01-10T09:49:28.000Z</time>
      </trkpt>
      <trkpt lat="43.6145" lon="6.83804">
        <ele>83.1</ele>
        <time>2025-01-10T09:49:27.000Z</time>
      </trkpt>
      <trkpt lat="43.6145" lon="6.83804">
        <ele>83.1</ele>
        <time>2025-01-10T09:49:26.000Z</time>
      </trkpt>
      <trkpt lat="43.6145" lon="6.83804">
        <ele>83.1</ele>
        <time>2025-01-10T09:49:25.000Z</time>
      </trkpt>
      <trkpt lat="43.6145" lon="6.83805">
        <ele>83.1</ele>
        <time>2025-01-10T09:49:24.000Z</time>
      </trkpt>
      <trkpt lat="43.6145" lon="6.83805">
        <ele>83.1</ele>
        <time>2025-01-10T09:49:23.000Z</time>
      </trkpt>
      <trkpt lat="43.6145" lon="6.83806">
        <ele>83</ele>
        <time>2025-01-10T09:49:22.000Z</time>
      </trkpt>
      <trkpt lat="43.6145" lon="6.83806">
        <ele>83</ele>
        <time>2025-01-10T09:49:21.000Z</time>
      </trkpt>
      <trkpt lat="43.6145" lon="6.83806">
        <ele>83</ele>
        <time>2025-01-10T09:49:20.000Z</time>
      </trkpt>
      <trkpt lat="43.6145" lon="6.83806">
        <ele>83</ele>
        <time>2025-01-10T09:49:19.000Z</time>
      </trkpt>
      <trkpt lat="43.6145" lon="6.83806">
        <ele>83</ele>
        <time>2025-01-10T09:49:18.000Z</time>
      </trkpt>
      <trkpt lat="43.6145" lon="6.83806">
        <ele>83</ele>
        <time>2025-01-10T09:49:17.000Z</time>
      </trkpt>
      <trkpt lat="43.6145" lon="6.83806">
        <ele>83</ele>
        <time>2025-01-10T09:49:16.000Z</time>
      </trkpt>
      <trkpt lat="43.6145" lon="6.83807">
        <ele>83</ele>
        <time>2025-01-10T09:49:15.000Z</time>
      </trkpt>
      <trkpt lat="43.6145" lon="6.83807">
        <ele>83</ele>
        <time>2025-01-10T09:49:14.000Z</time>
      </trkpt>
      <trkpt lat="43.6145" lon="6.83807">
        <ele>83</ele>
        <time>2025-01-10T09:49:13.000Z</time>
      </trkpt>
      <trkpt lat="43.6145" lon="6.83807">
        <ele>83</ele>
        <time>2025-01-10T09:49:12.000Z</time>
      </trkpt>
      <trkpt lat="43.6145" lon="6.83808">
        <ele>82.9</ele>
        <time>2025-01-10T09:49:11.000Z</time>
      </trkpt>
      <trkpt lat="43.61451" lon="6.83809">
        <ele>82.9</ele>
        <time>2025-01-10T09:49:10.000Z</time>
      </trkpt>
      <trkpt lat="43.61451" lon="6.8381">
        <ele>82.8</ele>
        <time>2025-01-10T09:49:09.000Z</time>
      </trkpt>
      <trkpt lat="43.61452" lon="6.83811">
        <ele>82.8</ele>
        <time>2025-01-10T09:49:08.000Z</time>
      </trkpt>
      <trkpt lat="43.61452" lon="6.83812">
        <ele>82.7</ele>
        <time>2025-01-10T09:49:07.000Z</time>
      </trkpt>
      <trkpt lat="43.61452" lon="6.83812">
        <ele>82.7</ele>
        <time>2025-01-10T09:49:06.000Z</time>
      </trkpt>
      <trkpt lat="43.61452" lon="6.83812">
        <ele>82.7</ele>
        <time>2025-01-10T09:49:05.000Z</time>
      </trkpt>
      <trkpt lat="43.61452" lon="6.83812">
        <ele>82.7</ele>
        <time>2025-01-10T09:49:04.000Z</time>
      </trkpt>
      <trkpt lat="43.61452" lon="6.83812">
        <ele>82.7</ele>
        <time>2025-01-10T09:49:03.000Z</time>
      </trkpt>
      <trkpt lat="43.61452" lon="6.83812">
        <ele>82.7</ele>
        <time>2025-01-10T09:49:02.000Z</time>
      </trkpt>
      <trkpt lat="43.61452" lon="6.83812">
        <ele>82.7</ele>
        <time>2025-01-10T09:49:01.000Z</time>
      </trkpt>
      <trkpt lat="43.61452" lon="6.83812">
        <ele>82.7</ele>
        <time>2025-01-10T09:49:00.000Z</time>
      </trkpt>
      <trkpt lat="43.61452" lon="6.83812">
        <ele>82.7</ele>
        <time>2025-01-10T09:48:59.000Z</time>
      </trkpt>
      <trkpt lat="43.61452" lon="6.83812">
        <ele>82.7</ele>
        <time>2025-01-10T09:48:58.000Z</time>
      </trkpt>
      <trkpt lat="43.61452" lon="6.83812">
        <ele>82.7</ele>
        <time>2025-01-10T09:48:57.000Z</time>
      </trkpt>
      <trkpt lat="43.61452" lon="6.83812">
        <ele>82.7</ele>
        <time>2025-01-10T09:48:56.000Z</time>
      </trkpt>
      <trkpt lat="43.61452" lon="6.83812">
        <ele>82.7</ele>
        <time>2025-01-10T09:48:55.000Z</time>
      </trkpt>
      <trkpt lat="43.61452" lon="6.83812">
        <ele>82.7</ele>
        <time>2025-01-10T09:48:54.000Z</time>
      </trkpt>
      <trkpt lat="43.61452" lon="6.83812">
        <ele>82.7</ele>
        <time>2025-01-10T09:48:53.000Z</time>
      </trkpt>
      <trkpt lat="43.61452" lon="6.83812">
        <ele>82.7</ele>
        <time>2025-01-10T09:48:52.000Z</time>
      </trkpt>
      <trkpt lat="43.61452" lon="6.83812">
        <ele>82.7</ele>
        <time>2025-01-10T09:48:51.000Z</time>
      </trkpt>
      <trkpt lat="43.61452" lon="6.83812">
        <ele>82.7</ele>
        <time>2025-01-10T09:48:50.000Z</time>
      </trkpt>
      <trkpt lat="43.61452" lon="6.83812">
        <ele>82.7</ele>
        <time>2025-01-10T09:48:49.000Z</time>
      </trkpt>
      <trkpt lat="43.61452" lon="6.83812">
        <ele>82.6</ele>
        <time>2025-01-10T09:48:48.000Z</time>
      </trkpt>
      <trkpt lat="43.61452" lon="6.83811">
        <ele>82.6</ele>
        <time>2025-01-10T09:48:47.000Z</time>
      </trkpt>
      <trkpt lat="43.61452" lon="6.83811">
        <ele>82.6</ele>
        <time>2025-01-10T09:48:46.000Z</time>
      </trkpt>
      <trkpt lat="43.61452" lon="6.83811">
        <ele>82.6</ele>
        <time>2025-01-10T09:48:45.000Z</time>
      </trkpt>
      <trkpt lat="43.61452" lon="6.8381">
        <ele>82.6</ele>
        <time>2025-01-10T09:48:44.000Z</time>
      </trkpt>
      <trkpt lat="43.61452" lon="6.8381">
        <ele>82.5</ele>
        <time>2025-01-10T09:48:43.000Z</time>
      </trkpt>
      <trkpt lat="43.61451" lon="6.83809">
        <ele>82.5</ele>
        <time>2025-01-10T09:48:42.000Z</time>
      </trkpt>
      <trkpt lat="43.61451" lon="6.83809">
        <ele>82.5</ele>
        <time>2025-01-10T09:48:41.000Z</time>
      </trkpt>
      <trkpt lat="43.61451" lon="6.83809">
        <ele>82.5</ele>
        <time>2025-01-10T09:48:40.000Z</time>
      </trkpt>
      <trkpt lat="43.61451" lon="6.83809">
        <ele>82.5</ele>
        <time>2025-01-10T09:48:39.000Z</time>
      </trkpt>
      <trkpt lat="43.61451" lon="6.83809">
        <ele>82.5</ele>
        <time>2025-01-10T09:48:38.000Z</time>
      </trkpt>
      <trkpt lat="43.61451" lon="6.83809">
        <ele>82.5</ele>
        <time>2025-01-10T09:48:37.000Z</time>
      </trkpt>
      <trkpt lat="43.6145" lon="6.83809">
        <ele>82.5</ele>
        <time>2025-01-10T09:48:36.000Z</time>
      </trkpt>
      <trkpt lat="43.6145" lon="6.83809">
        <ele>82.5</ele>
        <time>2025-01-10T09:48:35.000Z</time>
      </trkpt>
      <trkpt lat="43.6145" lon="6.83809">
        <ele>82.5</ele>
        <time>2025-01-10T09:48:34.000Z</time>
      </trkpt>
      <trkpt lat="43.6145" lon="6.83809">
        <ele>82.5</ele>
        <time>2025-01-10T09:48:33.000Z</time>
      </trkpt>
      <trkpt lat="43.6145" lon="6.83809">
        <ele>82.4</ele>
        <time>2025-01-10T09:48:32.000Z</time>
      </trkpt>
      <trkpt lat="43.6145" lon="6.83809">
        <ele>82.4</ele>
        <time>2025-01-10T09:48:31.000Z</time>
      </trkpt>
      <trkpt lat="43.6145" lon="6.83809">
        <ele>82.4</ele>
        <time>2025-01-10T09:48:30.000Z</time>
      </trkpt>
      <trkpt lat="43.6145" lon="6.83809">
        <ele>82.4</ele>
        <time>2025-01-10T09:48:29.000Z</time>
      </trkpt>
      <trkpt lat="43.6145" lon="6.83809">
        <ele>82.4</ele>
        <time>2025-01-10T09:48:28.000Z</time>
      </trkpt>
      <trkpt lat="43.6145" lon="6.83809">
        <ele>82.4</ele>
        <time>2025-01-10T09:48:27.000Z</time>
      </trkpt>
      <trkpt lat="43.6145" lon="6.83809">
        <ele>82.4</ele>
        <time>2025-01-10T09:48:26.000Z</time>
      </trkpt>
      <trkpt lat="43.6145" lon="6.83809">
        <ele>82.4</ele>
        <time>2025-01-10T09:48:25.000Z</time>
      </trkpt>
      <trkpt lat="43.6145" lon="6.83809">
        <ele>82.4</ele>
        <time>2025-01-10T09:48:24.000Z</time>
      </trkpt>
      <trkpt lat="43.6145" lon="6.83809">
        <ele>82.4</ele>
        <time>2025-01-10T09:48:23.000Z</time>
      </trkpt>
      <trkpt lat="43.6145" lon="6.83809">
        <ele>82.4</ele>
        <time>2025-01-10T09:48:22.000Z</time>
      </trkpt>
      <trkpt lat="43.6145" lon="6.83809">
        <ele>82.4</ele>
        <time>2025-01-10T09:48:21.000Z</time>
      </trkpt>
      <trkpt lat="43.6145" lon="6.83809">
        <ele>82.4</ele>
        <time>2025-01-10T09:48:20.000Z</time>
      </trkpt>
      <trkpt lat="43.6145" lon="6.83809">
        <ele>82.4</ele>
        <time>2025-01-10T09:48:19.000Z</time>
      </trkpt>
      <trkpt lat="43.6145" lon="6.83809">
        <ele>82.4</ele>
        <time>2025-01-10T09:48:18.000Z</time>
      </trkpt>
      <trkpt lat="43.6145" lon="6.83809">
        <ele>82.4</ele>
        <time>2025-01-10T09:48:17.000Z</time>
      </trkpt>
      <trkpt lat="43.6145" lon="6.83809">
        <ele>82.4</ele>
        <time>2025-01-10T09:48:16.000Z</time>
      </trkpt>
      <trkpt lat="43.6145" lon="6.83809">
        <ele>82.4</ele>
        <time>2025-01-10T09:48:15.000Z</time>
      </trkpt>
      <trkpt lat="43.6145" lon="6.83809">
        <ele>82.4</ele>
        <time>2025-01-10T09:48:14.000Z</time>
      </trkpt>
      <trkpt lat="43.6145" lon="6.83809">
        <ele>82.4</ele>
        <time>2025-01-10T09:48:13.000Z</time>
      </trkpt>
      <trkpt lat="43.6145" lon="6.83809">
        <ele>82.4</ele>
        <time>2025-01-10T09:48:12.000Z</time>
      </trkpt>
      <trkpt lat="43.6145" lon="6.83809">
        <ele>82.4</ele>
        <time>2025-01-10T09:48:11.000Z</time>
      </trkpt>
      <trkpt lat="43.6145" lon="6.83809">
        <ele>82.4</ele>
        <time>2025-01-10T09:48:10.000Z</time>
      </trkpt>
      <trkpt lat="43.6145" lon="6.83809">
        <ele>82.4</ele>
        <time>2025-01-10T09:48:09.000Z</time>
      </trkpt>
      <trkpt lat="43.6145" lon="6.83809">
        <ele>82.4</ele>
        <time>2025-01-10T09:48:08.000Z</time>
      </trkpt>
      <trkpt lat="43.6145" lon="6.83809">
        <ele>82.4</ele>
        <time>2025-01-10T09:48:07.000Z</time>
      </trkpt>
      <trkpt lat="43.6145" lon="6.83809">
        <ele>82.4</ele>
        <time>2025-01-10T09:48:06.000Z</time>
      </trkpt>
      <trkpt lat="43.6145" lon="6.83809">
        <ele>82.4</ele>
        <time>2025-01-10T09:48:05.000Z</time>
      </trkpt>
      <trkpt lat="43.6145" lon="6.83809">
        <ele>82.4</ele>
        <time>2025-01-10T09:48:04.000Z</time>
      </trkpt>
      <trkpt lat="43.6145" lon="6.83809">
        <ele>82.4</ele>
        <time>2025-01-10T09:48:03.000Z</time>
      </trkpt>
      <trkpt lat="43.6145" lon="6.83809">
        <ele>82.4</ele>
        <time>2025-01-10T09:48:02.000Z</time>
      </trkpt>
      <trkpt lat="43.6145" lon="6.83809">
        <ele>82.4</ele>
        <time>2025-01-10T09:48:01.000Z</time>
      </trkpt>
      <trkpt lat="43.61449" lon="6.83809">
        <ele>82.3</ele>
        <time>2025-01-10T09:48:00.000Z</time>
      </trkpt>
      <trkpt lat="43.61449" lon="6.83809">
        <ele>82.3</ele>
        <time>2025-01-10T09:47:59.000Z</time>
      </trkpt>
      <trkpt lat="43.61449" lon="6.83809">
        <ele>82.3</ele>
        <time>2025-01-10T09:47:58.000Z</time>
      </trkpt>
      <trkpt lat="43.61449" lon="6.83809">
        <ele>82.3</ele>
        <time>2025-01-10T09:47:57.000Z</time>
      </trkpt>
      <trkpt lat="43.61449" lon="6.83809">
        <ele>82.3</ele>
        <time>2025-01-10T09:47:56.000Z</time>
      </trkpt>
      <trkpt lat="43.61449" lon="6.83809">
        <ele>82.3</ele>
        <time>2025-01-10T09:47:55.000Z</time>
      </trkpt>
      <trkpt lat="43.61449" lon="6.83809">
        <ele>82.3</ele>
        <time>2025-01-10T09:47:54.000Z</time>
      </trkpt>
      <trkpt lat="43.61449" lon="6.83809">
        <ele>82.3</ele>
        <time>2025-01-10T09:47:53.000Z</time>
      </trkpt>
      <trkpt lat="43.61449" lon="6.83809">
        <ele>82.3</ele>
        <time>2025-01-10T09:47:52.000Z</time>
      </trkpt>
      <trkpt lat="43.6145" lon="6.83809">
        <ele>82.3</ele>
        <time>2025-01-10T09:47:51.000Z</time>
      </trkpt>
      <trkpt lat="43.61451" lon="6.83809">
        <ele>82.3</ele>
        <time>2025-01-10T09:47:50.000Z</time>
      </trkpt>
      <trkpt lat="43.61451" lon="6.83808">
        <ele>82.2</ele>
        <time>2025-01-10T09:47:49.000Z</time>
      </trkpt>
      <trkpt lat="43.61452" lon="6.83808">
        <ele>82.2</ele>
        <time>2025-01-10T09:47:48.000Z</time>
      </trkpt>
      <trkpt lat="43.61452" lon="6.83808">
        <ele>82.2</ele>
        <time>2025-01-10T09:47:47.000Z</time>
      </trkpt>
      <trkpt lat="43.61452" lon="6.83808">
        <ele>82.1</ele>
        <time>2025-01-10T09:47:46.000Z</time>
      </trkpt>
      <trkpt lat="43.61452" lon="6.83808">
        <ele>82.1</ele>
        <time>2025-01-10T09:47:45.000Z</time>
      </trkpt>
      <trkpt lat="43.61453" lon="6.83808">
        <ele>82.1</ele>
        <time>2025-01-10T09:47:44.000Z</time>
      </trkpt>
      <trkpt lat="43.61453" lon="6.83808">
        <ele>82</ele>
        <time>2025-01-10T09:47:43.000Z</time>
      </trkpt>
      <trkpt lat="43.61454" lon="6.83807">
        <ele>82</ele>
        <time>2025-01-10T09:47:42.000Z</time>
      </trkpt>
      <trkpt lat="43.61454" lon="6.83807">
        <ele>82</ele>
        <time>2025-01-10T09:47:41.000Z</time>
      </trkpt>
      <trkpt lat="43.61454" lon="6.83807">
        <ele>82</ele>
        <time>2025-01-10T09:47:40.000Z</time>
      </trkpt>
      <trkpt lat="43.61453" lon="6.83806">
        <ele>82</ele>
        <time>2025-01-10T09:47:39.000Z</time>
      </trkpt>
      <trkpt lat="43.61453" lon="6.83804">
        <ele>81.9</ele>
        <time>2025-01-10T09:47:38.000Z</time>
      </trkpt>
      <trkpt lat="43.61453" lon="6.83803">
        <ele>81.9</ele>
        <time>2025-01-10T09:47:37.000Z</time>
      </trkpt>
      <trkpt lat="43.61453" lon="6.83802">
        <ele>81.8</ele>
        <time>2025-01-10T09:47:36.000Z</time>
      </trkpt>
      <trkpt lat="43.61453" lon="6.83801">
        <ele>81.8</ele>
        <time>2025-01-10T09:47:35.000Z</time>
      </trkpt>
      <trkpt lat="43.61454" lon="6.838">
        <ele>81.7</ele>
        <time>2025-01-10T09:47:34.000Z</time>
      </trkpt>
      <trkpt lat="43.61454" lon="6.83799">
        <ele>81.7</ele>
        <time>2025-01-10T09:47:33.000Z</time>
      </trkpt>
      <trkpt lat="43.61454" lon="6.83798">
        <ele>81.7</ele>
        <time>2025-01-10T09:47:32.000Z</time>
      </trkpt>
      <trkpt lat="43.61455" lon="6.83796">
        <ele>81.6</ele>
        <time>2025-01-10T09:47:31.000Z</time>
      </trkpt>
      <trkpt lat="43.61455" lon="6.83795">
        <ele>81.6</ele>
        <time>2025-01-10T09:47:30.000Z</time>
      </trkpt>
      <trkpt lat="43.61456" lon="6.83795">
        <ele>81.6</ele>
        <time>2025-01-10T09:47:29.000Z</time>
      </trkpt>
      <trkpt lat="43.61456" lon="6.83794">
        <ele>81.6</ele>
        <time>2025-01-10T09:47:28.000Z</time>
      </trkpt>
      <trkpt lat="43.61456" lon="6.83794">
        <ele>81.5</ele>
        <time>2025-01-10T09:47:27.000Z</time>
      </trkpt>
      <trkpt lat="43.61456" lon="6.83793">
        <ele>81.5</ele>
        <time>2025-01-10T09:47:26.000Z</time>
      </trkpt>
      <trkpt lat="43.61456" lon="6.83793">
        <ele>81.5</ele>
        <time>2025-01-10T09:47:25.000Z</time>
      </trkpt>
      <trkpt lat="43.61456" lon="6.83793">
        <ele>81.5</ele>
        <time>2025-01-10T09:47:24.000Z</time>
      </trkpt>
      <trkpt lat="43.61456" lon="6.83794">
        <ele>81.5</ele>
        <time>2025-01-10T09:47:23.000Z</time>
      </trkpt>
      <trkpt lat="43.61457" lon="6.83794">
        <ele>81.5</ele>
        <time>2025-01-10T09:47:22.000Z</time>
      </trkpt>
      <trkpt lat="43.61456" lon="6.83793">
        <ele>81.5</ele>
        <time>2025-01-10T09:47:21.000Z</time>
      </trkpt>
      <trkpt lat="43.61456" lon="6.83793">
        <ele>81.5</ele>
        <time>2025-01-10T09:47:20.000Z</time>
      </trkpt>
      <trkpt lat="43.61456" lon="6.83793">
        <ele>81.5</ele>
        <time>2025-01-10T09:47:19.000Z</time>
      </trkpt>
      <trkpt lat="43.61455" lon="6.83792">
        <ele>81.5</ele>
        <time>2025-01-10T09:47:18.000Z</time>
      </trkpt>
      <trkpt lat="43.61455" lon="6.83792">
        <ele>81.4</ele>
        <time>2025-01-10T09:47:17.000Z</time>
      </trkpt>
      <trkpt lat="43.61454" lon="6.8379">
        <ele>81.4</ele>
        <time>2025-01-10T09:47:16.000Z</time>
      </trkpt>
      <trkpt lat="43.61453" lon="6.83789">
        <ele>81.4</ele>
        <time>2025-01-10T09:47:15.000Z</time>
      </trkpt>
      <trkpt lat="43.61452" lon="6.83788">
        <ele>81.4</ele>
        <time>2025-01-10T09:47:14.000Z</time>
      </trkpt>
      <trkpt lat="43.61451" lon="6.83788">
        <ele>81.4</ele>
        <time>2025-01-10T09:47:13.000Z</time>
      </trkpt>
      <trkpt lat="43.6145" lon="6.83788">
        <ele>81.4</ele>
        <time>2025-01-10T09:47:12.000Z</time>
      </trkpt>
      <trkpt lat="43.61448" lon="6.83789">
        <ele>81.4</ele>
        <time>2025-01-10T09:47:11.000Z</time>
      </trkpt>
      <trkpt lat="43.61446" lon="6.83791">
        <ele>81.5</ele>
        <time>2025-01-10T09:47:10.000Z</time>
      </trkpt>
      <trkpt lat="43.61442" lon="6.83794">
        <ele>81.6</ele>
        <time>2025-01-10T09:47:09.000Z</time>
      </trkpt>
      <trkpt lat="43.61438" lon="6.83795">
        <ele>81.8</ele>
        <time>2025-01-10T09:47:08.000Z</time>
      </trkpt>
      <trkpt lat="43.61432" lon="6.83797">
        <ele>82.1</ele>
        <time>2025-01-10T09:47:07.000Z</time>
      </trkpt>
      <trkpt lat="43.61428" lon="6.83797">
        <ele>82.4</ele>
        <time>2025-01-10T09:47:06.000Z</time>
      </trkpt>
      <trkpt lat="43.61425" lon="6.83798">
        <ele>82.6</ele>
        <time>2025-01-10T09:47:05.000Z</time>
      </trkpt>
      <trkpt lat="43.61422" lon="6.83798">
        <ele>82.8</ele>
        <time>2025-01-10T09:47:04.000Z</time>
      </trkpt>
      <trkpt lat="43.61419" lon="6.83798">
        <ele>83</ele>
        <time>2025-01-10T09:47:03.000Z</time>
      </trkpt>
      <trkpt lat="43.61417" lon="6.83797">
        <ele>83.2</ele>
        <time>2025-01-10T09:47:02.000Z</time>
      </trkpt>
      <trkpt lat="43.61414" lon="6.83797">
        <ele>83.3</ele>
        <time>2025-01-10T09:47:01.000Z</time>
      </trkpt>
      <trkpt lat="43.61412" lon="6.83795">
        <ele>83.5</ele>
        <time>2025-01-10T09:47:00.000Z</time>
      </trkpt>
      <trkpt lat="43.6141" lon="6.83794">
        <ele>83.6</ele>
        <time>2025-01-10T09:46:59.000Z</time>
      </trkpt>
      <trkpt lat="43.61409" lon="6.83793">
        <ele>83.8</ele>
        <time>2025-01-10T09:46:58.000Z</time>
      </trkpt>
      <trkpt lat="43.61407" lon="6.83793">
        <ele>83.8</ele>
        <time>2025-01-10T09:46:57.000Z</time>
      </trkpt>
      <trkpt lat="43.61406" lon="6.83792">
        <ele>83.9</ele>
        <time>2025-01-10T09:46:56.000Z</time>
      </trkpt>
      <trkpt lat="43.61405" lon="6.83791">
        <ele>84</ele>
        <time>2025-01-10T09:46:55.000Z</time>
      </trkpt>
      <trkpt lat="43.61405" lon="6.8379">
        <ele>84</ele>
        <time>2025-01-10T09:46:54.000Z</time>
      </trkpt>
      <trkpt lat="43.61404" lon="6.8379">
        <ele>84</ele>
        <time>2025-01-10T09:46:53.000Z</time>
      </trkpt>
      <trkpt lat="43.61404" lon="6.83789">
        <ele>84.1</ele>
        <time>2025-01-10T09:46:52.000Z</time>
      </trkpt>
      <trkpt lat="43.61404" lon="6.83789">
        <ele>84.1</ele>
        <time>2025-01-10T09:46:51.000Z</time>
      </trkpt>
      <trkpt lat="43.61403" lon="6.83789">
        <ele>84.1</ele>
        <time>2025-01-10T09:46:50.000Z</time>
      </trkpt>
      <trkpt lat="43.61403" lon="6.83789">
        <ele>84.1</ele>
        <time>2025-01-10T09:46:49.000Z</time>
      </trkpt>
      <trkpt lat="43.61402" lon="6.83789">
        <ele>84.1</ele>
        <time>2025-01-10T09:46:48.000Z</time>
      </trkpt>
      <trkpt lat="43.61401" lon="6.83789">
        <ele>84.2</ele>
        <time>2025-01-10T09:46:47.000Z</time>
      </trkpt>
      <trkpt lat="43.614" lon="6.8379">
        <ele>84.2</ele>
        <time>2025-01-10T09:46:46.000Z</time>
      </trkpt>
      <trkpt lat="43.61397" lon="6.83792">
        <ele>84.3</ele>
        <time>2025-01-10T09:46:45.000Z</time>
      </trkpt>
      <trkpt lat="43.61394" lon="6.83794">
        <ele>84.4</ele>
        <time>2025-01-10T09:46:44.000Z</time>
      </trkpt>
      <trkpt lat="43.61391" lon="6.83797">
        <ele>84.5</ele>
        <time>2025-01-10T09:46:43.000Z</time>
      </trkpt>
      <trkpt lat="43.61388" lon="6.83801">
        <ele>84.5</ele>
        <time>2025-01-10T09:46:42.000Z</time>
      </trkpt>
      <trkpt lat="43.61386" lon="6.83806">
        <ele>84.7</ele>
        <time>2025-01-10T09:46:41.000Z</time>
      </trkpt>
      <trkpt lat="43.61382" lon="6.83811">
        <ele>84.9</ele>
        <time>2025-01-10T09:46:40.000Z</time>
      </trkpt>
      <trkpt lat="43.6138" lon="6.83816">
        <ele>85.2</ele>
        <time>2025-01-10T09:46:39.000Z</time>
      </trkpt>
      <trkpt lat="43.61378" lon="6.83821">
        <ele>85.6</ele>
        <time>2025-01-10T09:46:38.000Z</time>
      </trkpt>
      <trkpt lat="43.61374" lon="6.83825">
        <ele>86</ele>
        <time>2025-01-10T09:46:37.000Z</time>
      </trkpt>
      <trkpt lat="43.61371" lon="6.83829">
        <ele>86.4</ele>
        <time>2025-01-10T09:46:36.000Z</time>
      </trkpt>
      <trkpt lat="43.61368" lon="6.83832">
        <ele>86.8</ele>
        <time>2025-01-10T09:46:35.000Z</time>
      </trkpt>
      <trkpt lat="43.61364" lon="6.83834">
        <ele>87.1</ele>
        <time>2025-01-10T09:46:34.000Z</time>
      </trkpt>
      <trkpt lat="43.61361" lon="6.83837">
        <ele>87.4</ele>
        <time>2025-01-10T09:46:33.000Z</time>
      </trkpt>
      <trkpt lat="43.61359" lon="6.8384">
        <ele>87.7</ele>
        <time>2025-01-10T09:46:32.000Z</time>
      </trkpt>
      <trkpt lat="43.61356" lon="6.83843">
        <ele>87.8</ele>
        <time>2025-01-10T09:46:31.000Z</time>
      </trkpt>
      <trkpt lat="43.61355" lon="6.83846">
        <ele>88</ele>
        <time>2025-01-10T09:46:30.000Z</time>
      </trkpt>
      <trkpt lat="43.61353" lon="6.8385">
        <ele>88.1</ele>
        <time>2025-01-10T09:46:29.000Z</time>
      </trkpt>
      <trkpt lat="43.61352" lon="6.83854">
        <ele>88.1</ele>
        <time>2025-01-10T09:46:28.000Z</time>
      </trkpt>
      <trkpt lat="43.6135" lon="6.83858">
        <ele>88.1</ele>
        <time>2025-01-10T09:46:27.000Z</time>
      </trkpt>
      <trkpt lat="43.61349" lon="6.83862">
        <ele>88.1</ele>
        <time>2025-01-10T09:46:26.000Z</time>
      </trkpt>
      <trkpt lat="43.61347" lon="6.83865">
        <ele>88</ele>
        <time>2025-01-10T09:46:25.000Z</time>
      </trkpt>
      <trkpt lat="43.61345" lon="6.83869">
        <ele>87.9</ele>
        <time>2025-01-10T09:46:24.000Z</time>
      </trkpt>
      <trkpt lat="43.61344" lon="6.83873">
        <ele>87.7</ele>
        <time>2025-01-10T09:46:23.000Z</time>
      </trkpt>
      <trkpt lat="43.61344" lon="6.83877">
        <ele>87.6</ele>
        <time>2025-01-10T09:46:22.000Z</time>
      </trkpt>
      <trkpt lat="43.61343" lon="6.83881">
        <ele>87.4</ele>
        <time>2025-01-10T09:46:21.000Z</time>
      </trkpt>
      <trkpt lat="43.61342" lon="6.83886">
        <ele>87.2</ele>
        <time>2025-01-10T09:46:20.000Z</time>
      </trkpt>
      <trkpt lat="43.61343" lon="6.8389">
        <ele>86.9</ele>
        <time>2025-01-10T09:46:19.000Z</time>
      </trkpt>
      <trkpt lat="43.61343" lon="6.83895">
        <ele>86.5</ele>
        <time>2025-01-10T09:46:18.000Z</time>
      </trkpt>
      <trkpt lat="43.61342" lon="6.839">
        <ele>86.1</ele>
        <time>2025-01-10T09:46:17.000Z</time>
      </trkpt>
      <trkpt lat="43.61342" lon="6.83903">
        <ele>85.8</ele>
        <time>2025-01-10T09:46:16.000Z</time>
      </trkpt>
      <trkpt lat="43.61342" lon="6.83907">
        <ele>85.5</ele>
        <time>2025-01-10T09:46:15.000Z</time>
      </trkpt>
      <trkpt lat="43.61342" lon="6.83911">
        <ele>85.1</ele>
        <time>2025-01-10T09:46:14.000Z</time>
      </trkpt>
      <trkpt lat="43.61341" lon="6.83913">
        <ele>84.8</ele>
        <time>2025-01-10T09:46:13.000Z</time>
      </trkpt>
      <trkpt lat="43.61341" lon="6.83917">
        <ele>84.5</ele>
        <time>2025-01-10T09:46:12.000Z</time>
      </trkpt>
      <trkpt lat="43.61339" lon="6.8392">
        <ele>84.1</ele>
        <time>2025-01-10T09:46:11.000Z</time>
      </trkpt>
      <trkpt lat="43.61336" lon="6.83922">
        <ele>83.7</ele>
        <time>2025-01-10T09:46:10.000Z</time>
      </trkpt>
      <trkpt lat="43.61334" lon="6.83924">
        <ele>83.3</ele>
        <time>2025-01-10T09:46:09.000Z</time>
      </trkpt>
      <trkpt lat="43.61331" lon="6.83927">
        <ele>82.8</ele>
        <time>2025-01-10T09:46:08.000Z</time>
      </trkpt>
      <trkpt lat="43.61328" lon="6.8393">
        <ele>82.4</ele>
        <time>2025-01-10T09:46:07.000Z</time>
      </trkpt>
      <trkpt lat="43.61325" lon="6.83932">
        <ele>82</ele>
        <time>2025-01-10T09:46:06.000Z</time>
      </trkpt>
      <trkpt lat="43.61323" lon="6.83934">
        <ele>81.7</ele>
        <time>2025-01-10T09:46:05.000Z</time>
      </trkpt>
      <trkpt lat="43.61321" lon="6.83938">
        <ele>81.3</ele>
        <time>2025-01-10T09:46:04.000Z</time>
      </trkpt>
      <trkpt lat="43.6132" lon="6.83943">
        <ele>80.9</ele>
        <time>2025-01-10T09:46:03.000Z</time>
      </trkpt>
      <trkpt lat="43.61318" lon="6.83948">
        <ele>80.5</ele>
        <time>2025-01-10T09:46:02.000Z</time>
      </trkpt>
      <trkpt lat="43.61316" lon="6.83951">
        <ele>80.2</ele>
        <time>2025-01-10T09:46:01.000Z</time>
      </trkpt>
      <trkpt lat="43.61313" lon="6.83956">
        <ele>79.9</ele>
        <time>2025-01-10T09:46:00.000Z</time>
      </trkpt>
      <trkpt lat="43.61311" lon="6.83962">
        <ele>79.6</ele>
        <time>2025-01-10T09:45:59.000Z</time>
      </trkpt>
      <trkpt lat="43.61308" lon="6.83965">
        <ele>79.3</ele>
        <time>2025-01-10T09:45:58.000Z</time>
      </trkpt>
      <trkpt lat="43.61305" lon="6.8397">
        <ele>79.1</ele>
        <time>2025-01-10T09:45:57.000Z</time>
      </trkpt>
      <trkpt lat="43.61303" lon="6.83974">
        <ele>78.9</ele>
        <time>2025-01-10T09:45:56.000Z</time>
      </trkpt>
      <trkpt lat="43.613" lon="6.83978">
        <ele>78.8</ele>
        <time>2025-01-10T09:45:55.000Z</time>
      </trkpt>
      <trkpt lat="43.61297" lon="6.83983">
        <ele>78.7</ele>
        <time>2025-01-10T09:45:54.000Z</time>
      </trkpt>
      <trkpt lat="43.61294" lon="6.83988">
        <ele>78.6</ele>
        <time>2025-01-10T09:45:53.000Z</time>
      </trkpt>
      <trkpt lat="43.61292" lon="6.83994">
        <ele>78.6</ele>
        <time>2025-01-10T09:45:52.000Z</time>
      </trkpt>
      <trkpt lat="43.6129" lon="6.84">
        <ele>78.7</ele>
        <time>2025-01-10T09:45:51.000Z</time>
      </trkpt>
      <trkpt lat="43.61287" lon="6.84007">
        <ele>78.9</ele>
        <time>2025-01-10T09:45:50.000Z</time>
      </trkpt>
      <trkpt lat="43.61284" lon="6.84013">
        <ele>79.1</ele>
        <time>2025-01-10T09:45:49.000Z</time>
      </trkpt>
      <trkpt lat="43.61283" lon="6.8402">
        <ele>79.5</ele>
        <time>2025-01-10T09:45:48.000Z</time>
      </trkpt>
      <trkpt lat="43.6128" lon="6.84027">
        <ele>79.9</ele>
        <time>2025-01-10T09:45:47.000Z</time>
      </trkpt>
      <trkpt lat="43.61279" lon="6.84033">
        <ele>80.3</ele>
        <time>2025-01-10T09:45:46.000Z</time>
      </trkpt>
      <trkpt lat="43.61277" lon="6.84039">
        <ele>80.7</ele>
        <time>2025-01-10T09:45:45.000Z</time>
      </trkpt>
      <trkpt lat="43.61275" lon="6.84046">
        <ele>81.1</ele>
        <time>2025-01-10T09:45:44.000Z</time>
      </trkpt>
      <trkpt lat="43.61274" lon="6.84052">
        <ele>81.5</ele>
        <time>2025-01-10T09:45:43.000Z</time>
      </trkpt>
      <trkpt lat="43.61273" lon="6.84058">
        <ele>81.9</ele>
        <time>2025-01-10T09:45:42.000Z</time>
      </trkpt>
      <trkpt lat="43.61272" lon="6.84064">
        <ele>82.3</ele>
        <time>2025-01-10T09:45:41.000Z</time>
      </trkpt>
      <trkpt lat="43.61271" lon="6.8407">
        <ele>82.6</ele>
        <time>2025-01-10T09:45:40.000Z</time>
      </trkpt>
      <trkpt lat="43.6127" lon="6.84075">
        <ele>82.9</ele>
        <time>2025-01-10T09:45:39.000Z</time>
      </trkpt>
      <trkpt lat="43.61269" lon="6.84081">
        <ele>83.2</ele>
        <time>2025-01-10T09:45:38.000Z</time>
      </trkpt>
      <trkpt lat="43.61267" lon="6.84087">
        <ele>83.6</ele>
        <time>2025-01-10T09:45:37.000Z</time>
      </trkpt>
      <trkpt lat="43.61265" lon="6.84093">
        <ele>83.9</ele>
        <time>2025-01-10T09:45:36.000Z</time>
      </trkpt>
      <trkpt lat="43.61264" lon="6.84099">
        <ele>84.2</ele>
        <time>2025-01-10T09:45:35.000Z</time>
      </trkpt>
      <trkpt lat="43.61262" lon="6.84104">
        <ele>84.5</ele>
        <time>2025-01-10T09:45:34.000Z</time>
      </trkpt>
      <trkpt lat="43.6126" lon="6.84111">
        <ele>84.7</ele>
        <time>2025-01-10T09:45:33.000Z</time>
      </trkpt>
      <trkpt lat="43.61259" lon="6.84116">
        <ele>84.9</ele>
        <time>2025-01-10T09:45:32.000Z</time>
      </trkpt>
      <trkpt lat="43.61258" lon="6.84122">
        <ele>85</ele>
        <time>2025-01-10T09:45:31.000Z</time>
      </trkpt>
      <trkpt lat="43.61257" lon="6.84127">
        <ele>85.1</ele>
        <time>2025-01-10T09:45:30.000Z</time>
      </trkpt>
      <trkpt lat="43.61254" lon="6.84132">
        <ele>85.2</ele>
        <time>2025-01-10T09:45:29.000Z</time>
      </trkpt>
      <trkpt lat="43.61252" lon="6.84138">
        <ele>85.3</ele>
        <time>2025-01-10T09:45:28.000Z</time>
      </trkpt>
      <trkpt lat="43.61249" lon="6.84142">
        <ele>85.3</ele>
        <time>2025-01-10T09:45:27.000Z</time>
      </trkpt>
      <trkpt lat="43.61246" lon="6.84145">
        <ele>85.3</ele>
        <time>2025-01-10T09:45:26.000Z</time>
      </trkpt>
      <trkpt lat="43.61243" lon="6.84147">
        <ele>85.3</ele>
        <time>2025-01-10T09:45:25.000Z</time>
      </trkpt>
      <trkpt lat="43.6124" lon="6.84149">
        <ele>85.3</ele>
        <time>2025-01-10T09:45:24.000Z</time>
      </trkpt>
      <trkpt lat="43.61236" lon="6.8415">
        <ele>85.2</ele>
        <time>2025-01-10T09:45:23.000Z</time>
      </trkpt>
      <trkpt lat="43.61233" lon="6.84152">
        <ele>85.2</ele>
        <time>2025-01-10T09:45:22.000Z</time>
      </trkpt>
      <trkpt lat="43.6123" lon="6.84153">
        <ele>85.2</ele>
        <time>2025-01-10T09:45:21.000Z</time>
      </trkpt>
      <trkpt lat="43.61227" lon="6.84155">
        <ele>85.3</ele>
        <time>2025-01-10T09:45:20.000Z</time>
      </trkpt>
      <trkpt lat="43.61224" lon="6.84157">
        <ele>85.3</ele>
        <time>2025-01-10T09:45:19.000Z</time>
      </trkpt>
      <trkpt lat="43.61222" lon="6.84159">
        <ele>85.4</ele>
        <time>2025-01-10T09:45:18.000Z</time>
      </trkpt>
      <trkpt lat="43.61219" lon="6.84162">
        <ele>85.5</ele>
        <time>2025-01-10T09:45:17.000Z</time>
      </trkpt>
      <trkpt lat="43.61217" lon="6.84166">
        <ele>85.6</ele>
        <time>2025-01-10T09:45:16.000Z</time>
      </trkpt>
      <trkpt lat="43.61214" lon="6.84171">
        <ele>85.8</ele>
        <time>2025-01-10T09:45:15.000Z</time>
      </trkpt>
      <trkpt lat="43.61212" lon="6.84176">
        <ele>86.1</ele>
        <time>2025-01-10T09:45:14.000Z</time>
      </trkpt>
      <trkpt lat="43.61208" lon="6.8418">
        <ele>86.4</ele>
        <time>2025-01-10T09:45:13.000Z</time>
      </trkpt>
      <trkpt lat="43.61205" lon="6.84185">
        <ele>86.8</ele>
        <time>2025-01-10T09:45:12.000Z</time>
      </trkpt>
      <trkpt lat="43.61203" lon="6.84189">
        <ele>87.2</ele>
        <time>2025-01-10T09:45:11.000Z</time>
      </trkpt>
      <trkpt lat="43.61201" lon="6.84194">
        <ele>87.5</ele>
        <time>2025-01-10T09:45:10.000Z</time>
      </trkpt>
      <trkpt lat="43.61199" lon="6.84198">
        <ele>87.8</ele>
        <time>2025-01-10T09:45:09.000Z</time>
      </trkpt>
      <trkpt lat="43.61197" lon="6.84203">
        <ele>88.1</ele>
        <time>2025-01-10T09:45:08.000Z</time>
      </trkpt>
      <trkpt lat="43.61196" lon="6.84207">
        <ele>88.3</ele>
        <time>2025-01-10T09:45:07.000Z</time>
      </trkpt>
      <trkpt lat="43.61195" lon="6.84212">
        <ele>88.5</ele>
        <time>2025-01-10T09:45:06.000Z</time>
      </trkpt>
      <trkpt lat="43.61193" lon="6.84216">
        <ele>88.6</ele>
        <time>2025-01-10T09:45:05.000Z</time>
      </trkpt>
      <trkpt lat="43.6119" lon="6.84221">
        <ele>88.7</ele>
        <time>2025-01-10T09:45:04.000Z</time>
      </trkpt>
      <trkpt lat="43.61188" lon="6.84225">
        <ele>88.8</ele>
        <time>2025-01-10T09:45:03.000Z</time>
      </trkpt>
      <trkpt lat="43.61185" lon="6.8423">
        <ele>88.8</ele>
        <time>2025-01-10T09:45:02.000Z</time>
      </trkpt>
      <trkpt lat="43.61183" lon="6.84235">
        <ele>88.8</ele>
        <time>2025-01-10T09:45:01.000Z</time>
      </trkpt>
      <trkpt lat="43.61182" lon="6.8424">
        <ele>88.8</ele>
        <time>2025-01-10T09:45:00.000Z</time>
      </trkpt>
      <trkpt lat="43.61181" lon="6.84245">
        <ele>88.8</ele>
        <time>2025-01-10T09:44:59.000Z</time>
      </trkpt>
      <trkpt lat="43.61181" lon="6.84252">
        <ele>88.8</ele>
        <time>2025-01-10T09:44:58.000Z</time>
      </trkpt>
      <trkpt lat="43.61181" lon="6.84258">
        <ele>88.8</ele>
        <time>2025-01-10T09:44:57.000Z</time>
      </trkpt>
      <trkpt lat="43.61181" lon="6.84264">
        <ele>88.8</ele>
        <time>2025-01-10T09:44:56.000Z</time>
      </trkpt>
      <trkpt lat="43.61182" lon="6.84271">
        <ele>88.7</ele>
        <time>2025-01-10T09:44:55.000Z</time>
      </trkpt>
      <trkpt lat="43.61184" lon="6.84277">
        <ele>88.6</ele>
        <time>2025-01-10T09:44:54.000Z</time>
      </trkpt>
      <trkpt lat="43.61185" lon="6.84282">
        <ele>88.5</ele>
        <time>2025-01-10T09:44:53.000Z</time>
      </trkpt>
      <trkpt lat="43.61187" lon="6.84287">
        <ele>88.4</ele>
        <time>2025-01-10T09:44:52.000Z</time>
      </trkpt>
      <trkpt lat="43.6119" lon="6.84291">
        <ele>88.3</ele>
        <time>2025-01-10T09:44:51.000Z</time>
      </trkpt>
      <trkpt lat="43.61192" lon="6.84295">
        <ele>88.2</ele>
        <time>2025-01-10T09:44:50.000Z</time>
      </trkpt>
      <trkpt lat="43.61195" lon="6.84299">
        <ele>88.1</ele>
        <time>2025-01-10T09:44:49.000Z</time>
      </trkpt>
      <trkpt lat="43.61199" lon="6.84303">
        <ele>87.9</ele>
        <time>2025-01-10T09:44:48.000Z</time>
      </trkpt>
      <trkpt lat="43.61203" lon="6.84306">
        <ele>87.8</ele>
        <time>2025-01-10T09:44:47.000Z</time>
      </trkpt>
      <trkpt lat="43.61207" lon="6.84309">
        <ele>87.8</ele>
        <time>2025-01-10T09:44:46.000Z</time>
      </trkpt>
      <trkpt lat="43.61211" lon="6.84312">
        <ele>87.8</ele>
        <time>2025-01-10T09:44:45.000Z</time>
      </trkpt>
      <trkpt lat="43.61215" lon="6.84315">
        <ele>87.8</ele>
        <time>2025-01-10T09:44:44.000Z</time>
      </trkpt>
      <trkpt lat="43.6122" lon="6.84317">
        <ele>87.9</ele>
        <time>2025-01-10T09:44:43.000Z</time>
      </trkpt>
      <trkpt lat="43.61224" lon="6.84318">
        <ele>88</ele>
        <time>2025-01-10T09:44:42.000Z</time>
      </trkpt>
      <trkpt lat="43.61228" lon="6.8432">
        <ele>88.1</ele>
        <time>2025-01-10T09:44:41.000Z</time>
      </trkpt>
      <trkpt lat="43.61232" lon="6.84321">
        <ele>88.1</ele>
        <time>2025-01-10T09:44:40.000Z</time>
      </trkpt>
      <trkpt lat="43.61235" lon="6.84323">
        <ele>88.2</ele>
        <time>2025-01-10T09:44:39.000Z</time>
      </trkpt>
      <trkpt lat="43.61238" lon="6.84325">
        <ele>88.2</ele>
        <time>2025-01-10T09:44:38.000Z</time>
      </trkpt>
      <trkpt lat="43.6124" lon="6.84327">
        <ele>88.2</ele>
        <time>2025-01-10T09:44:37.000Z</time>
      </trkpt>
      <trkpt lat="43.61241" lon="6.84328">
        <ele>88.2</ele>
        <time>2025-01-10T09:44:36.000Z</time>
      </trkpt>
      <trkpt lat="43.61242" lon="6.84331">
        <ele>88.2</ele>
        <time>2025-01-10T09:44:35.000Z</time>
      </trkpt>
      <trkpt lat="43.61243" lon="6.84333">
        <ele>88.2</ele>
        <time>2025-01-10T09:44:34.000Z</time>
      </trkpt>
      <trkpt lat="43.61245" lon="6.84335">
        <ele>88.1</ele>
        <time>2025-01-10T09:44:33.000Z</time>
      </trkpt>
      <trkpt lat="43.61246" lon="6.84338">
        <ele>88.1</ele>
        <time>2025-01-10T09:44:32.000Z</time>
      </trkpt>
      <trkpt lat="43.61248" lon="6.84342">
        <ele>87.8</ele>
        <time>2025-01-10T09:44:31.000Z</time>
      </trkpt>
      <trkpt lat="43.6125" lon="6.84347">
        <ele>87.6</ele>
        <time>2025-01-10T09:44:30.000Z</time>
      </trkpt>
      <trkpt lat="43.61251" lon="6.84354">
        <ele>87.3</ele>
        <time>2025-01-10T09:44:29.000Z</time>
      </trkpt>
      <trkpt lat="43.61253" lon="6.8436">
        <ele>87</ele>
        <time>2025-01-10T09:44:28.000Z</time>
      </trkpt>
      <trkpt lat="43.61254" lon="6.84366">
        <ele>86.7</ele>
        <time>2025-01-10T09:44:27.000Z</time>
      </trkpt>
      <trkpt lat="43.61254" lon="6.84373">
        <ele>86.3</ele>
        <time>2025-01-10T09:44:26.000Z</time>
      </trkpt>
      <trkpt lat="43.61254" lon="6.84379">
        <ele>86</ele>
        <time>2025-01-10T09:44:25.000Z</time>
      </trkpt>
      <trkpt lat="43.61253" lon="6.84385">
        <ele>85.7</ele>
        <time>2025-01-10T09:44:24.000Z</time>
      </trkpt>
      <trkpt lat="43.61251" lon="6.8439">
        <ele>85.4</ele>
        <time>2025-01-10T09:44:23.000Z</time>
      </trkpt>
      <trkpt lat="43.61248" lon="6.84395">
        <ele>85.1</ele>
        <time>2025-01-10T09:44:22.000Z</time>
      </trkpt>
      <trkpt lat="43.61245" lon="6.84399">
        <ele>84.8</ele>
        <time>2025-01-10T09:44:21.000Z</time>
      </trkpt>
      <trkpt lat="43.61242" lon="6.84402">
        <ele>84.5</ele>
        <time>2025-01-10T09:44:20.000Z</time>
      </trkpt>
      <trkpt lat="43.61238" lon="6.84405">
        <ele>84.2</ele>
        <time>2025-01-10T09:44:19.000Z</time>
      </trkpt>
      <trkpt lat="43.61234" lon="6.84408">
        <ele>83.9</ele>
        <time>2025-01-10T09:44:18.000Z</time>
      </trkpt>
      <trkpt lat="43.61229" lon="6.84411">
        <ele>83.7</ele>
        <time>2025-01-10T09:44:17.000Z</time>
      </trkpt>
      <trkpt lat="43.61225" lon="6.84413">
        <ele>83.4</ele>
        <time>2025-01-10T09:44:16.000Z</time>
      </trkpt>
      <trkpt lat="43.61221" lon="6.84415">
        <ele>83.1</ele>
        <time>2025-01-10T09:44:15.000Z</time>
      </trkpt>
      <trkpt lat="43.61217" lon="6.84417">
        <ele>82.8</ele>
        <time>2025-01-10T09:44:14.000Z</time>
      </trkpt>
      <trkpt lat="43.61213" lon="6.84419">
        <ele>82.6</ele>
        <time>2025-01-10T09:44:13.000Z</time>
      </trkpt>
      <trkpt lat="43.61209" lon="6.84421">
        <ele>82.3</ele>
        <time>2025-01-10T09:44:12.000Z</time>
      </trkpt>
      <trkpt lat="43.61204" lon="6.84423">
        <ele>82</ele>
        <time>2025-01-10T09:44:11.000Z</time>
      </trkpt>
      <trkpt lat="43.612" lon="6.84425">
        <ele>81.7</ele>
        <time>2025-01-10T09:44:10.000Z</time>
      </trkpt>
      <trkpt lat="43.61196" lon="6.84428">
        <ele>81.4</ele>
        <time>2025-01-10T09:44:09.000Z</time>
      </trkpt>
      <trkpt lat="43.61192" lon="6.8443">
        <ele>81.1</ele>
        <time>2025-01-10T09:44:08.000Z</time>
      </trkpt>
      <trkpt lat="43.61188" lon="6.84432">
        <ele>80.8</ele>
        <time>2025-01-10T09:44:07.000Z</time>
      </trkpt>
      <trkpt lat="43.61184" lon="6.84434">
        <ele>80.5</ele>
        <time>2025-01-10T09:44:06.000Z</time>
      </trkpt>
      <trkpt lat="43.6118" lon="6.84436">
        <ele>80.3</ele>
        <time>2025-01-10T09:44:05.000Z</time>
      </trkpt>
      <trkpt lat="43.61176" lon="6.84437">
        <ele>80</ele>
        <time>2025-01-10T09:44:04.000Z</time>
      </trkpt>
      <trkpt lat="43.61172" lon="6.84439">
        <ele>79.8</ele>
        <time>2025-01-10T09:44:03.000Z</time>
      </trkpt>
      <trkpt lat="43.61168" lon="6.84441">
        <ele>79.6</ele>
        <time>2025-01-10T09:44:02.000Z</time>
      </trkpt>
      <trkpt lat="43.61164" lon="6.84443">
        <ele>79.4</ele>
        <time>2025-01-10T09:44:01.000Z</time>
      </trkpt>
      <trkpt lat="43.6116" lon="6.84445">
        <ele>79.1</ele>
        <time>2025-01-10T09:44:00.000Z</time>
      </trkpt>
      <trkpt lat="43.61155" lon="6.84446">
        <ele>78.9</ele>
        <time>2025-01-10T09:43:59.000Z</time>
      </trkpt>
      <trkpt lat="43.6115" lon="6.84448">
        <ele>78.7</ele>
        <time>2025-01-10T09:43:58.000Z</time>
      </trkpt>
      <trkpt lat="43.61146" lon="6.8445">
        <ele>78.4</ele>
        <time>2025-01-10T09:43:57.000Z</time>
      </trkpt>
      <trkpt lat="43.61141" lon="6.84452">
        <ele>78.2</ele>
        <time>2025-01-10T09:43:56.000Z</time>
      </trkpt>
      <trkpt lat="43.61137" lon="6.84454">
        <ele>78</ele>
        <time>2025-01-10T09:43:55.000Z</time>
      </trkpt>
      <trkpt lat="43.61133" lon="6.84456">
        <ele>77.8</ele>
        <time>2025-01-10T09:43:54.000Z</time>
      </trkpt>
      <trkpt lat="43.6113" lon="6.84458">
        <ele>77.6</ele>
        <time>2025-01-10T09:43:53.000Z</time>
      </trkpt>
      <trkpt lat="43.61126" lon="6.8446">
        <ele>77.4</ele>
        <time>2025-01-10T09:43:52.000Z</time>
      </trkpt>
      <trkpt lat="43.61123" lon="6.84463">
        <ele>77.2</ele>
        <time>2025-01-10T09:43:51.000Z</time>
      </trkpt>
      <trkpt lat="43.61119" lon="6.84465">
        <ele>77</ele>
        <time>2025-01-10T09:43:50.000Z</time>
      </trkpt>
      <trkpt lat="43.61115" lon="6.84469">
        <ele>76.7</ele>
        <time>2025-01-10T09:43:49.000Z</time>
      </trkpt>
      <trkpt lat="43.61112" lon="6.84472">
        <ele>76.5</ele>
        <time>2025-01-10T09:43:48.000Z</time>
      </trkpt>
      <trkpt lat="43.61108" lon="6.84476">
        <ele>76.3</ele>
        <time>2025-01-10T09:43:47.000Z</time>
      </trkpt>
      <trkpt lat="43.61105" lon="6.8448">
        <ele>76</ele>
        <time>2025-01-10T09:43:46.000Z</time>
      </trkpt>
      <trkpt lat="43.61102" lon="6.84483">
        <ele>75.8</ele>
        <time>2025-01-10T09:43:45.000Z</time>
      </trkpt>
      <trkpt lat="43.61098" lon="6.84487">
        <ele>75.5</ele>
        <time>2025-01-10T09:43:44.000Z</time>
      </trkpt>
      <trkpt lat="43.61095" lon="6.84491">
        <ele>75.3</ele>
        <time>2025-01-10T09:43:43.000Z</time>
      </trkpt>
      <trkpt lat="43.61092" lon="6.84494">
        <ele>75.1</ele>
        <time>2025-01-10T09:43:42.000Z</time>
      </trkpt>
      <trkpt lat="43.61089" lon="6.84497">
        <ele>74.9</ele>
        <time>2025-01-10T09:43:41.000Z</time>
      </trkpt>
      <trkpt lat="43.61086" lon="6.845">
        <ele>74.7</ele>
        <time>2025-01-10T09:43:40.000Z</time>
      </trkpt>
      <trkpt lat="43.61085" lon="6.84502">
        <ele>74.6</ele>
        <time>2025-01-10T09:43:39.000Z</time>
      </trkpt>
      <trkpt lat="43.61085" lon="6.84503">
        <ele>74.6</ele>
        <time>2025-01-10T09:43:38.000Z</time>
      </trkpt>
      <trkpt lat="43.61085" lon="6.84503">
        <ele>74.6</ele>
        <time>2025-01-10T09:43:37.000Z</time>
      </trkpt>
      <trkpt lat="43.61085" lon="6.84503">
        <ele>74.6</ele>
        <time>2025-01-10T09:43:36.000Z</time>
      </trkpt>
      <trkpt lat="43.61085" lon="6.84503">
        <ele>74.6</ele>
        <time>2025-01-10T09:43:35.000Z</time>
      </trkpt>
      <trkpt lat="43.61085" lon="6.84503">
        <ele>74.6</ele>
        <time>2025-01-10T09:43:34.000Z</time>
      </trkpt>
      <trkpt lat="43.61085" lon="6.84503">
        <ele>74.6</ele>
        <time>2025-01-10T09:43:33.000Z</time>
      </trkpt>
      <trkpt lat="43.61085" lon="6.84503">
        <ele>74.6</ele>
        <time>2025-01-10T09:43:32.000Z</time>
      </trkpt>
      <trkpt lat="43.61085" lon="6.84503">
        <ele>74.6</ele>
        <time>2025-01-10T09:43:31.000Z</time>
      </trkpt>
      <trkpt lat="43.61085" lon="6.84503">
        <ele>74.6</ele>
        <time>2025-01-10T09:43:30.000Z</time>
      </trkpt>
      <trkpt lat="43.61085" lon="6.84503">
        <ele>74.6</ele>
        <time>2025-01-10T09:43:29.000Z</time>
      </trkpt>
      <trkpt lat="43.61085" lon="6.84503">
        <ele>74.6</ele>
        <time>2025-01-10T09:43:28.000Z</time>
      </trkpt>
      <trkpt lat="43.61085" lon="6.84503">
        <ele>74.6</ele>
        <time>2025-01-10T09:43:27.000Z</time>
      </trkpt>
      <trkpt lat="43.61085" lon="6.84503">
        <ele>74.5</ele>
        <time>2025-01-10T09:43:26.000Z</time>
      </trkpt>
      <trkpt lat="43.61085" lon="6.84503">
        <ele>74.5</ele>
        <time>2025-01-10T09:43:25.000Z</time>
      </trkpt>
      <trkpt lat="43.61085" lon="6.84503">
        <ele>74.5</ele>
        <time>2025-01-10T09:43:24.000Z</time>
      </trkpt>
      <trkpt lat="43.61085" lon="6.84503">
        <ele>74.5</ele>
        <time>2025-01-10T09:43:23.000Z</time>
      </trkpt>
      <trkpt lat="43.61085" lon="6.84503">
        <ele>74.5</ele>
        <time>2025-01-10T09:43:22.000Z</time>
      </trkpt>
      <trkpt lat="43.61085" lon="6.84503">
        <ele>74.5</ele>
        <time>2025-01-10T09:43:21.000Z</time>
      </trkpt>
      <trkpt lat="43.61085" lon="6.84503">
        <ele>74.5</ele>
        <time>2025-01-10T09:43:20.000Z</time>
      </trkpt>
      <trkpt lat="43.61085" lon="6.84503">
        <ele>74.5</ele>
        <time>2025-01-10T09:43:19.000Z</time>
      </trkpt>
      <trkpt lat="43.61086" lon="6.84503">
        <ele>74.5</ele>
        <time>2025-01-10T09:43:18.000Z</time>
      </trkpt>
      <trkpt lat="43.61086" lon="6.84503">
        <ele>74.5</ele>
        <time>2025-01-10T09:43:17.000Z</time>
      </trkpt>
      <trkpt lat="43.61086" lon="6.84503">
        <ele>74.5</ele>
        <time>2025-01-10T09:43:16.000Z</time>
      </trkpt>
      <trkpt lat="43.61086" lon="6.84503">
        <ele>74.5</ele>
        <time>2025-01-10T09:43:15.000Z</time>
      </trkpt>
      <trkpt lat="43.61086" lon="6.84503">
        <ele>74.5</ele>
        <time>2025-01-10T09:43:14.000Z</time>
      </trkpt>
      <trkpt lat="43.61086" lon="6.84503">
        <ele>74.5</ele>
        <time>2025-01-10T09:43:13.000Z</time>
      </trkpt>
      <trkpt lat="43.61086" lon="6.84503">
        <ele>74.5</ele>
        <time>2025-01-10T09:43:12.000Z</time>
      </trkpt>
      <trkpt lat="43.61086" lon="6.84503">
        <ele>74.5</ele>
        <time>2025-01-10T09:43:11.000Z</time>
      </trkpt>
      <trkpt lat="43.61086" lon="6.84503">
        <ele>74.5</ele>
        <time>2025-01-10T09:43:10.000Z</time>
      </trkpt>
      <trkpt lat="43.61086" lon="6.84503">
        <ele>74.5</ele>
        <time>2025-01-10T09:43:09.000Z</time>
      </trkpt>
      <trkpt lat="43.61086" lon="6.84503">
        <ele>74.5</ele>
        <time>2025-01-10T09:43:08.000Z</time>
      </trkpt>
      <trkpt lat="43.61086" lon="6.84503">
        <ele>74.5</ele>
        <time>2025-01-10T09:43:07.000Z</time>
      </trkpt>
      <trkpt lat="43.61086" lon="6.84503">
        <ele>74.5</ele>
        <time>2025-01-10T09:43:06.000Z</time>
      </trkpt>
      <trkpt lat="43.61086" lon="6.84503">
        <ele>74.5</ele>
        <time>2025-01-10T09:43:05.000Z</time>
      </trkpt>
      <trkpt lat="43.61086" lon="6.84503">
        <ele>74.5</ele>
        <time>2025-01-10T09:43:04.000Z</time>
      </trkpt>
      <trkpt lat="43.61086" lon="6.84503">
        <ele>74.5</ele>
        <time>2025-01-10T09:43:03.000Z</time>
      </trkpt>
      <trkpt lat="43.61086" lon="6.84503">
        <ele>74.5</ele>
        <time>2025-01-10T09:43:02.000Z</time>
      </trkpt>
      <trkpt lat="43.61086" lon="6.84503">
        <ele>74.5</ele>
        <time>2025-01-10T09:43:01.000Z</time>
      </trkpt>
      <trkpt lat="43.61086" lon="6.84503">
        <ele>74.5</ele>
        <time>2025-01-10T09:43:00.000Z</time>
      </trkpt>
      <trkpt lat="43.61086" lon="6.84503">
        <ele>74.5</ele>
        <time>2025-01-10T09:42:59.000Z</time>
      </trkpt>
      <trkpt lat="43.61086" lon="6.84503">
        <ele>74.5</ele>
        <time>2025-01-10T09:42:58.000Z</time>
      </trkpt>
      <trkpt lat="43.61086" lon="6.84503">
        <ele>74.5</ele>
        <time>2025-01-10T09:42:57.000Z</time>
      </trkpt>
      <trkpt lat="43.61086" lon="6.84503">
        <ele>74.5</ele>
        <time>2025-01-10T09:42:56.000Z</time>
      </trkpt>
      <trkpt lat="43.61086" lon="6.84503">
        <ele>74.5</ele>
        <time>2025-01-10T09:42:55.000Z</time>
      </trkpt>
      <trkpt lat="43.61087" lon="6.84503">
        <ele>74.4</ele>
        <time>2025-01-10T09:42:54.000Z</time>
      </trkpt>
      <trkpt lat="43.61087" lon="6.84503">
        <ele>74.4</ele>
        <time>2025-01-10T09:42:53.000Z</time>
      </trkpt>
      <trkpt lat="43.61087" lon="6.84503">
        <ele>74.4</ele>
        <time>2025-01-10T09:42:52.000Z</time>
      </trkpt>
      <trkpt lat="43.61087" lon="6.84503">
        <ele>74.4</ele>
        <time>2025-01-10T09:42:51.000Z</time>
      </trkpt>
      <trkpt lat="43.61087" lon="6.84503">
        <ele>74.4</ele>
        <time>2025-01-10T09:42:50.000Z</time>
      </trkpt>
      <trkpt lat="43.61088" lon="6.84503">
        <ele>74.4</ele>
        <time>2025-01-10T09:42:49.000Z</time>
      </trkpt>
      <trkpt lat="43.61088" lon="6.84502">
        <ele>74.4</ele>
        <time>2025-01-10T09:42:48.000Z</time>
      </trkpt>
      <trkpt lat="43.61088" lon="6.84502">
        <ele>74.4</ele>
        <time>2025-01-10T09:42:47.000Z</time>
      </trkpt>
      <trkpt lat="43.61087" lon="6.84502">
        <ele>74.3</ele>
        <time>2025-01-10T09:42:46.000Z</time>
      </trkpt>
      <trkpt lat="43.61087" lon="6.84503">
        <ele>74.3</ele>
        <time>2025-01-10T09:42:45.000Z</time>
      </trkpt>
      <trkpt lat="43.61087" lon="6.84504">
        <ele>74.3</ele>
        <time>2025-01-10T09:42:44.000Z</time>
      </trkpt>
      <trkpt lat="43.61086" lon="6.84504">
        <ele>74.2</ele>
        <time>2025-01-10T09:42:43.000Z</time>
      </trkpt>
      <trkpt lat="43.61086" lon="6.84504">
        <ele>74.2</ele>
        <time>2025-01-10T09:42:42.000Z</time>
      </trkpt>
      <trkpt lat="43.61086" lon="6.84504">
        <ele>74.2</ele>
        <time>2025-01-10T09:42:41.000Z</time>
      </trkpt>
      <trkpt lat="43.61086" lon="6.84504">
        <ele>74.2</ele>
        <time>2025-01-10T09:42:40.000Z</time>
      </trkpt>
      <trkpt lat="43.61086" lon="6.84504">
        <ele>74.2</ele>
        <time>2025-01-10T09:42:39.000Z</time>
      </trkpt>
      <trkpt lat="43.61086" lon="6.84504">
        <ele>74.2</ele>
        <time>2025-01-10T09:42:38.000Z</time>
      </trkpt>
      <trkpt lat="43.61085" lon="6.84504">
        <ele>74.1</ele>
        <time>2025-01-10T09:42:37.000Z</time>
      </trkpt>
      <trkpt lat="43.61084" lon="6.84505">
        <ele>74.1</ele>
        <time>2025-01-10T09:42:36.000Z</time>
      </trkpt>
      <trkpt lat="43.61083" lon="6.84505">
        <ele>74.1</ele>
        <time>2025-01-10T09:42:35.000Z</time>
      </trkpt>
      <trkpt lat="43.61082" lon="6.84506">
        <ele>74</ele>
        <time>2025-01-10T09:42:34.000Z</time>
      </trkpt>
      <trkpt lat="43.61081" lon="6.84506">
        <ele>74</ele>
        <time>2025-01-10T09:42:33.000Z</time>
      </trkpt>
      <trkpt lat="43.6108" lon="6.84506">
        <ele>73.9</ele>
        <time>2025-01-10T09:42:32.000Z</time>
      </trkpt>
      <trkpt lat="43.61078" lon="6.84507">
        <ele>73.8</ele>
        <time>2025-01-10T09:42:31.000Z</time>
      </trkpt>
      <trkpt lat="43.61075" lon="6.84508">
        <ele>73.7</ele>
        <time>2025-01-10T09:42:30.000Z</time>
      </trkpt>
      <trkpt lat="43.61072" lon="6.84509">
        <ele>73.6</ele>
        <time>2025-01-10T09:42:29.000Z</time>
      </trkpt>
      <trkpt lat="43.6107" lon="6.84509">
        <ele>73.5</ele>
        <time>2025-01-10T09:42:28.000Z</time>
      </trkpt>
      <trkpt lat="43.6107" lon="6.8451">
        <ele>73.5</ele>
        <time>2025-01-10T09:42:27.000Z</time>
      </trkpt>
      <trkpt lat="43.6107" lon="6.8451">
        <ele>73.5</ele>
        <time>2025-01-10T09:42:26.000Z</time>
      </trkpt>
      <trkpt lat="43.6107" lon="6.8451">
        <ele>73.5</ele>
        <time>2025-01-10T09:42:25.000Z</time>
      </trkpt>
      <trkpt lat="43.6107" lon="6.8451">
        <ele>73.5</ele>
        <time>2025-01-10T09:42:24.000Z</time>
      </trkpt>
      <trkpt lat="43.6107" lon="6.8451">
        <ele>73.5</ele>
        <time>2025-01-10T09:42:23.000Z</time>
      </trkpt>
      <trkpt lat="43.6107" lon="6.8451">
        <ele>73.5</ele>
        <time>2025-01-10T09:42:22.000Z</time>
      </trkpt>
      <trkpt lat="43.61069" lon="6.8451">
        <ele>73.5</ele>
        <time>2025-01-10T09:42:21.000Z</time>
      </trkpt>
      <trkpt lat="43.61069" lon="6.8451">
        <ele>73.4</ele>
        <time>2025-01-10T09:42:20.000Z</time>
      </trkpt>
      <trkpt lat="43.61068" lon="6.8451">
        <ele>73.4</ele>
        <time>2025-01-10T09:42:19.000Z</time>
      </trkpt>
      <trkpt lat="43.61068" lon="6.8451">
        <ele>73.4</ele>
        <time>2025-01-10T09:42:18.000Z</time>
      </trkpt>
      <trkpt lat="43.61068" lon="6.8451">
        <ele>73.4</ele>
        <time>2025-01-10T09:42:17.000Z</time>
      </trkpt>
      <trkpt lat="43.61068" lon="6.8451">
        <ele>73.4</ele>
        <time>2025-01-10T09:42:16.000Z</time>
      </trkpt>
      <trkpt lat="43.61068" lon="6.8451">
        <ele>73.4</ele>
        <time>2025-01-10T09:42:15.000Z</time>
      </trkpt>
      <trkpt lat="43.61068" lon="6.8451">
        <ele>73.4</ele>
        <time>2025-01-10T09:42:14.000Z</time>
      </trkpt>
      <trkpt lat="43.61068" lon="6.8451">
        <ele>73.4</ele>
        <time>2025-01-10T09:42:13.000Z</time>
      </trkpt>
      <trkpt lat="43.61068" lon="6.8451">
        <ele>73.4</ele>
        <time>2025-01-10T09:42:12.000Z</time>
      </trkpt>
      <trkpt lat="43.61068" lon="6.8451">
        <ele>73.4</ele>
        <time>2025-01-10T09:42:11.000Z</time>
      </trkpt>
      <trkpt lat="43.61068" lon="6.8451">
        <ele>73.4</ele>
        <time>2025-01-10T09:42:10.000Z</time>
      </trkpt>
      <trkpt lat="43.61068" lon="6.8451">
        <ele>73.4</ele>
        <time>2025-01-10T09:42:09.000Z</time>
      </trkpt>
      <trkpt lat="43.61068" lon="6.8451">
        <ele>73.4</ele>
        <time>2025-01-10T09:42:08.000Z</time>
      </trkpt>
      <trkpt lat="43.61068" lon="6.8451">
        <ele>73.4</ele>
        <time>2025-01-10T09:42:07.000Z</time>
      </trkpt>
      <trkpt lat="43.61068" lon="6.8451">
        <ele>73.4</ele>
        <time>2025-01-10T09:42:06.000Z</time>
      </trkpt>
      <trkpt lat="43.61068" lon="6.8451">
        <ele>73.4</ele>
        <time>2025-01-10T09:42:05.000Z</time>
      </trkpt>
      <trkpt lat="43.61068" lon="6.8451">
        <ele>73.4</ele>
        <time>2025-01-10T09:42:04.000Z</time>
      </trkpt>
      <trkpt lat="43.61068" lon="6.8451">
        <ele>73.4</ele>
        <time>2025-01-10T09:42:03.000Z</time>
      </trkpt>
      <trkpt lat="43.61068" lon="6.8451">
        <ele>73.4</ele>
        <time>2025-01-10T09:42:02.000Z</time>
      </trkpt>
      <trkpt lat="43.61068" lon="6.8451">
        <ele>73.4</ele>
        <time>2025-01-10T09:42:01.000Z</time>
      </trkpt>
      <trkpt lat="43.61068" lon="6.84511">
        <ele>73.4</ele>
        <time>2025-01-10T09:42:00.000Z</time>
      </trkpt>
      <trkpt lat="43.61068" lon="6.8451">
        <ele>73.4</ele>
        <time>2025-01-10T09:41:59.000Z</time>
      </trkpt>
      <trkpt lat="43.61068" lon="6.8451">
        <ele>73.4</ele>
        <time>2025-01-10T09:41:58.000Z</time>
      </trkpt>
      <trkpt lat="43.61068" lon="6.84509">
        <ele>73.3</ele>
        <time>2025-01-10T09:41:57.000Z</time>
      </trkpt>
      <trkpt lat="43.61068" lon="6.84509">
        <ele>73.3</ele>
        <time>2025-01-10T09:41:56.000Z</time>
      </trkpt>
      <trkpt lat="43.61068" lon="6.84509">
        <ele>73.3</ele>
        <time>2025-01-10T09:41:55.000Z</time>
      </trkpt>
      <trkpt lat="43.61068" lon="6.8451">
        <ele>73.3</ele>
        <time>2025-01-10T09:41:54.000Z</time>
      </trkpt>
      <trkpt lat="43.61068" lon="6.84509">
        <ele>73.3</ele>
        <time>2025-01-10T09:41:53.000Z</time>
      </trkpt>
      <trkpt lat="43.61069" lon="6.84509">
        <ele>73.3</ele>
        <time>2025-01-10T09:41:52.000Z</time>
      </trkpt>
      <trkpt lat="43.61069" lon="6.8451">
        <ele>73.2</ele>
        <time>2025-01-10T09:41:51.000Z</time>
      </trkpt>
      <trkpt lat="43.6107" lon="6.84511">
        <ele>73.2</ele>
        <time>2025-01-10T09:41:50.000Z</time>
      </trkpt>
      <trkpt lat="43.6107" lon="6.84511">
        <ele>73.2</ele>
        <time>2025-01-10T09:41:49.000Z</time>
      </trkpt>
      <trkpt lat="43.6107" lon="6.8451">
        <ele>73.2</ele>
        <time>2025-01-10T09:41:48.000Z</time>
      </trkpt>
      <trkpt lat="43.6107" lon="6.8451">
        <ele>73.1</ele>
        <time>2025-01-10T09:41:47.000Z</time>
      </trkpt>
      <trkpt lat="43.61069" lon="6.84509">
        <ele>73.1</ele>
        <time>2025-01-10T09:41:46.000Z</time>
      </trkpt>
      <trkpt lat="43.61067" lon="6.84507">
        <ele>73</ele>
        <time>2025-01-10T09:41:45.000Z</time>
      </trkpt>
      <trkpt lat="43.61064" lon="6.84506">
        <ele>72.9</ele>
        <time>2025-01-10T09:41:44.000Z</time>
      </trkpt>
      <trkpt lat="43.61061" lon="6.84504">
        <ele>72.8</ele>
        <time>2025-01-10T09:41:43.000Z</time>
      </trkpt>
      <trkpt lat="43.61056" lon="6.84501">
        <ele>72.6</ele>
        <time>2025-01-10T09:41:42.000Z</time>
      </trkpt>
      <trkpt lat="43.61052" lon="6.84499">
        <ele>72.5</ele>
        <time>2025-01-10T09:41:41.000Z</time>
      </trkpt>
      <trkpt lat="43.61048" lon="6.84496">
        <ele>72.4</ele>
        <time>2025-01-10T09:41:40.000Z</time>
      </trkpt>
      <trkpt lat="43.61043" lon="6.84494">
        <ele>72.3</ele>
        <time>2025-01-10T09:41:39.000Z</time>
      </trkpt>
      <trkpt lat="43.61038" lon="6.84492">
        <ele>72.2</ele>
        <time>2025-01-10T09:41:38.000Z</time>
      </trkpt>
      <trkpt lat="43.61033" lon="6.84491">
        <ele>72.1</ele>
        <time>2025-01-10T09:41:37.000Z</time>
      </trkpt>
      <trkpt lat="43.61029" lon="6.84489">
        <ele>72</ele>
        <time>2025-01-10T09:41:36.000Z</time>
      </trkpt>
      <trkpt lat="43.61023" lon="6.84488">
        <ele>71.9</ele>
        <time>2025-01-10T09:41:35.000Z</time>
      </trkpt>
      <trkpt lat="43.61018" lon="6.84487">
        <ele>71.9</ele>
        <time>2025-01-10T09:41:34.000Z</time>
      </trkpt>
      <trkpt lat="43.61013" lon="6.84486">
        <ele>71.9</ele>
        <time>2025-01-10T09:41:33.000Z</time>
      </trkpt>
      <trkpt lat="43.61007" lon="6.84484">
        <ele>71.9</ele>
        <time>2025-01-10T09:41:32.000Z</time>
      </trkpt>
      <trkpt lat="43.61002" lon="6.84483">
        <ele>71.9</ele>
        <time>2025-01-10T09:41:31.000Z</time>
      </trkpt>
      <trkpt lat="43.60997" lon="6.84483">
        <ele>71.9</ele>
        <time>2025-01-10T09:41:30.000Z</time>
      </trkpt>
      <trkpt lat="43.60992" lon="6.84484">
        <ele>71.9</ele>
        <time>2025-01-10T09:41:29.000Z</time>
      </trkpt>
      <trkpt lat="43.60988" lon="6.84485">
        <ele>71.9</ele>
        <time>2025-01-10T09:41:28.000Z</time>
      </trkpt>
      <trkpt lat="43.60982" lon="6.84486">
        <ele>71.9</ele>
        <time>2025-01-10T09:41:27.000Z</time>
      </trkpt>
      <trkpt lat="43.60977" lon="6.84488">
        <ele>71.9</ele>
        <time>2025-01-10T09:41:26.000Z</time>
      </trkpt>
      <trkpt lat="43.60972" lon="6.84489">
        <ele>71.9</ele>
        <time>2025-01-10T09:41:25.000Z</time>
      </trkpt>
      <trkpt lat="43.60967" lon="6.84491">
        <ele>71.9</ele>
        <time>2025-01-10T09:41:24.000Z</time>
      </trkpt>
      <trkpt lat="43.60962" lon="6.84493">
        <ele>71.9</ele>
        <time>2025-01-10T09:41:23.000Z</time>
      </trkpt>
      <trkpt lat="43.60958" lon="6.84495">
        <ele>71.9</ele>
        <time>2025-01-10T09:41:22.000Z</time>
      </trkpt>
      <trkpt lat="43.60953" lon="6.84498">
        <ele>71.9</ele>
        <time>2025-01-10T09:41:21.000Z</time>
      </trkpt>
      <trkpt lat="43.60949" lon="6.845">
        <ele>71.9</ele>
        <time>2025-01-10T09:41:20.000Z</time>
      </trkpt>
      <trkpt lat="43.60946" lon="6.84502">
        <ele>71.9</ele>
        <time>2025-01-10T09:41:19.000Z</time>
      </trkpt>
      <trkpt lat="43.60943" lon="6.84504">
        <ele>71.9</ele>
        <time>2025-01-10T09:41:18.000Z</time>
      </trkpt>
      <trkpt lat="43.60941" lon="6.84505">
        <ele>72</ele>
        <time>2025-01-10T09:41:17.000Z</time>
      </trkpt>
      <trkpt lat="43.60939" lon="6.84506">
        <ele>72</ele>
        <time>2025-01-10T09:41:16.000Z</time>
      </trkpt>
      <trkpt lat="43.60939" lon="6.84506">
        <ele>72</ele>
        <time>2025-01-10T09:41:15.000Z</time>
      </trkpt>
      <trkpt lat="43.60938" lon="6.84506">
        <ele>72</ele>
        <time>2025-01-10T09:41:14.000Z</time>
      </trkpt>
      <trkpt lat="43.60938" lon="6.84506">
        <ele>72</ele>
        <time>2025-01-10T09:41:13.000Z</time>
      </trkpt>
      <trkpt lat="43.60938" lon="6.84507">
        <ele>72</ele>
        <time>2025-01-10T09:41:12.000Z</time>
      </trkpt>
      <trkpt lat="43.60936" lon="6.84508">
        <ele>72</ele>
        <time>2025-01-10T09:41:11.000Z</time>
      </trkpt>
      <trkpt lat="43.60938" lon="6.84508">
        <ele>72</ele>
        <time>2025-01-10T09:41:10.000Z</time>
      </trkpt>
      <trkpt lat="43.60938" lon="6.84507">
        <ele>72</ele>
        <time>2025-01-10T09:41:09.000Z</time>
      </trkpt>
      <trkpt lat="43.60938" lon="6.84507">
        <ele>72</ele>
        <time>2025-01-10T09:41:08.000Z</time>
      </trkpt>
      <trkpt lat="43.60939" lon="6.84506">
        <ele>72</ele>
        <time>2025-01-10T09:41:07.000Z</time>
      </trkpt>
      <trkpt lat="43.60939" lon="6.84505">
        <ele>72</ele>
        <time>2025-01-10T09:41:06.000Z</time>
      </trkpt>
      <trkpt lat="43.6094" lon="6.84505">
        <ele>72</ele>
        <time>2025-01-10T09:41:05.000Z</time>
      </trkpt>
      <trkpt lat="43.6094" lon="6.84504">
        <ele>72</ele>
        <time>2025-01-10T09:41:04.000Z</time>
      </trkpt>
      <trkpt lat="43.6094" lon="6.84504">
        <ele>72</ele>
        <time>2025-01-10T09:41:03.000Z</time>
      </trkpt>
      <trkpt lat="43.6094" lon="6.84504">
        <ele>72</ele>
        <time>2025-01-10T09:41:02.000Z</time>
      </trkpt>
      <trkpt lat="43.6094" lon="6.84504">
        <ele>72.1</ele>
        <time>2025-01-10T09:41:01.000Z</time>
      </trkpt>
      <trkpt lat="43.6094" lon="6.84504">
        <ele>72.1</ele>
        <time>2025-01-10T09:41:00.000Z</time>
      </trkpt>
      <trkpt lat="43.60939" lon="6.84504">
        <ele>72.1</ele>
        <time>2025-01-10T09:40:59.000Z</time>
      </trkpt>
      <trkpt lat="43.60937" lon="6.84504">
        <ele>72.1</ele>
        <time>2025-01-10T09:40:58.000Z</time>
      </trkpt>
      <trkpt lat="43.60934" lon="6.84504">
        <ele>72.1</ele>
        <time>2025-01-10T09:40:57.000Z</time>
      </trkpt>
      <trkpt lat="43.60931" lon="6.84504">
        <ele>72.2</ele>
        <time>2025-01-10T09:40:56.000Z</time>
      </trkpt>
      <trkpt lat="43.60927" lon="6.84505">
        <ele>72.2</ele>
        <time>2025-01-10T09:40:55.000Z</time>
      </trkpt>
      <trkpt lat="43.6092" lon="6.84506">
        <ele>72.4</ele>
        <time>2025-01-10T09:40:54.000Z</time>
      </trkpt>
      <trkpt lat="43.60914" lon="6.84507">
        <ele>72.6</ele>
        <time>2025-01-10T09:40:53.000Z</time>
      </trkpt>
      <trkpt lat="43.60909" lon="6.84509">
        <ele>72.7</ele>
        <time>2025-01-10T09:40:52.000Z</time>
      </trkpt>
      <trkpt lat="43.60903" lon="6.84512">
        <ele>72.9</ele>
        <time>2025-01-10T09:40:51.000Z</time>
      </trkpt>
      <trkpt lat="43.60897" lon="6.84515">
        <ele>73.1</ele>
        <time>2025-01-10T09:40:50.000Z</time>
      </trkpt>
      <trkpt lat="43.60891" lon="6.84517">
        <ele>73.3</ele>
        <time>2025-01-10T09:40:49.000Z</time>
      </trkpt>
      <trkpt lat="43.60885" lon="6.8452">
        <ele>73.5</ele>
        <time>2025-01-10T09:40:48.000Z</time>
      </trkpt>
      <trkpt lat="43.6088" lon="6.84524">
        <ele>73.7</ele>
        <time>2025-01-10T09:40:47.000Z</time>
      </trkpt>
      <trkpt lat="43.60874" lon="6.84526">
        <ele>73.9</ele>
        <time>2025-01-10T09:40:46.000Z</time>
      </trkpt>
      <trkpt lat="43.60869" lon="6.84529">
        <ele>74.1</ele>
        <time>2025-01-10T09:40:45.000Z</time>
      </trkpt>
      <trkpt lat="43.60863" lon="6.84531">
        <ele>74.3</ele>
        <time>2025-01-10T09:40:44.000Z</time>
      </trkpt>
      <trkpt lat="43.60858" lon="6.84534">
        <ele>74.5</ele>
        <time>2025-01-10T09:40:43.000Z</time>
      </trkpt>
      <trkpt lat="43.60853" lon="6.84535">
        <ele>74.7</ele>
        <time>2025-01-10T09:40:42.000Z</time>
      </trkpt>
      <trkpt lat="43.60848" lon="6.84537">
        <ele>74.9</ele>
        <time>2025-01-10T09:40:41.000Z</time>
      </trkpt>
      <trkpt lat="43.60843" lon="6.84539">
        <ele>75.1</ele>
        <time>2025-01-10T09:40:40.000Z</time>
      </trkpt>
      <trkpt lat="43.60838" lon="6.84541">
        <ele>75.3</ele>
        <time>2025-01-10T09:40:39.000Z</time>
      </trkpt>
      <trkpt lat="43.60833" lon="6.84542">
        <ele>75.5</ele>
        <time>2025-01-10T09:40:38.000Z</time>
      </trkpt>
      <trkpt lat="43.60829" lon="6.84544">
        <ele>75.6</ele>
        <time>2025-01-10T09:40:37.000Z</time>
      </trkpt>
      <trkpt lat="43.60824" lon="6.84546">
        <ele>75.7</ele>
        <time>2025-01-10T09:40:36.000Z</time>
      </trkpt>
      <trkpt lat="43.60819" lon="6.84548">
        <ele>75.9</ele>
        <time>2025-01-10T09:40:35.000Z</time>
      </trkpt>
      <trkpt lat="43.60815" lon="6.84549">
        <ele>76</ele>
        <time>2025-01-10T09:40:34.000Z</time>
      </trkpt>
      <trkpt lat="43.6081" lon="6.84551">
        <ele>76.1</ele>
        <time>2025-01-10T09:40:33.000Z</time>
      </trkpt>
      <trkpt lat="43.60805" lon="6.84552">
        <ele>76.1</ele>
        <time>2025-01-10T09:40:32.000Z</time>
      </trkpt>
      <trkpt lat="43.60801" lon="6.84553">
        <ele>76.2</ele>
        <time>2025-01-10T09:40:31.000Z</time>
      </trkpt>
      <trkpt lat="43.60797" lon="6.84554">
        <ele>76.2</ele>
        <time>2025-01-10T09:40:30.000Z</time>
      </trkpt>
      <trkpt lat="43.60794" lon="6.84555">
        <ele>76.2</ele>
        <time>2025-01-10T09:40:29.000Z</time>
      </trkpt>
      <trkpt lat="43.60791" lon="6.84556">
        <ele>76.2</ele>
        <time>2025-01-10T09:40:28.000Z</time>
      </trkpt>
      <trkpt lat="43.60789" lon="6.84558">
        <ele>76.2</ele>
        <time>2025-01-10T09:40:27.000Z</time>
      </trkpt>
      <trkpt lat="43.60789" lon="6.84558">
        <ele>76.2</ele>
        <time>2025-01-10T09:40:26.000Z</time>
      </trkpt>
      <trkpt lat="43.60789" lon="6.84558">
        <ele>76.2</ele>
        <time>2025-01-10T09:40:25.000Z</time>
      </trkpt>
      <trkpt lat="43.60789" lon="6.84558">
        <ele>76.2</ele>
        <time>2025-01-10T09:40:24.000Z</time>
      </trkpt>
      <trkpt lat="43.60789" lon="6.84558">
        <ele>76.2</ele>
        <time>2025-01-10T09:40:23.000Z</time>
      </trkpt>
      <trkpt lat="43.60789" lon="6.84558">
        <ele>76.2</ele>
        <time>2025-01-10T09:40:22.000Z</time>
      </trkpt>
      <trkpt lat="43.60789" lon="6.84558">
        <ele>76.2</ele>
        <time>2025-01-10T09:40:21.000Z</time>
      </trkpt>
      <trkpt lat="43.60789" lon="6.84557">
        <ele>76.2</ele>
        <time>2025-01-10T09:40:20.000Z</time>
      </trkpt>
      <trkpt lat="43.60789" lon="6.84557">
        <ele>76.2</ele>
        <time>2025-01-10T09:40:19.000Z</time>
      </trkpt>
      <trkpt lat="43.60789" lon="6.84557">
        <ele>76.2</ele>
        <time>2025-01-10T09:40:18.000Z</time>
      </trkpt>
      <trkpt lat="43.60789" lon="6.84557">
        <ele>76.2</ele>
        <time>2025-01-10T09:40:17.000Z</time>
      </trkpt>
      <trkpt lat="43.60789" lon="6.84557">
        <ele>76.2</ele>
        <time>2025-01-10T09:40:16.000Z</time>
      </trkpt>
      <trkpt lat="43.60789" lon="6.84557">
        <ele>76.2</ele>
        <time>2025-01-10T09:40:15.000Z</time>
      </trkpt>
      <trkpt lat="43.60789" lon="6.84557">
        <ele>76.2</ele>
        <time>2025-01-10T09:40:14.000Z</time>
      </trkpt>
      <trkpt lat="43.60789" lon="6.84558">
        <ele>76.2</ele>
        <time>2025-01-10T09:40:13.000Z</time>
      </trkpt>
      <trkpt lat="43.60789" lon="6.84558">
        <ele>76.2</ele>
        <time>2025-01-10T09:40:12.000Z</time>
      </trkpt>
      <trkpt lat="43.6079" lon="6.84558">
        <ele>76.2</ele>
        <time>2025-01-10T09:40:11.000Z</time>
      </trkpt>
      <trkpt lat="43.6079" lon="6.84558">
        <ele>76.1</ele>
        <time>2025-01-10T09:40:10.000Z</time>
      </trkpt>
      <trkpt lat="43.6079" lon="6.84558">
        <ele>76.1</ele>
        <time>2025-01-10T09:40:09.000Z</time>
      </trkpt>
      <trkpt lat="43.60791" lon="6.84559">
        <ele>76.1</ele>
        <time>2025-01-10T09:40:08.000Z</time>
      </trkpt>
      <trkpt lat="43.6079" lon="6.84559">
        <ele>76.1</ele>
        <time>2025-01-10T09:40:07.000Z</time>
      </trkpt>
      <trkpt lat="43.6079" lon="6.84559">
        <ele>76.1</ele>
        <time>2025-01-10T09:40:06.000Z</time>
      </trkpt>
      <trkpt lat="43.60789" lon="6.84559">
        <ele>76.1</ele>
        <time>2025-01-10T09:40:05.000Z</time>
      </trkpt>
      <trkpt lat="43.60787" lon="6.8456">
        <ele>76.1</ele>
        <time>2025-01-10T09:40:04.000Z</time>
      </trkpt>
      <trkpt lat="43.60785" lon="6.8456">
        <ele>76.1</ele>
        <time>2025-01-10T09:40:03.000Z</time>
      </trkpt>
      <trkpt lat="43.60781" lon="6.84561">
        <ele>76</ele>
        <time>2025-01-10T09:40:02.000Z</time>
      </trkpt>
      <trkpt lat="43.60777" lon="6.84562">
        <ele>76</ele>
        <time>2025-01-10T09:40:01.000Z</time>
      </trkpt>
      <trkpt lat="43.60773" lon="6.84562">
        <ele>76</ele>
        <time>2025-01-10T09:40:00.000Z</time>
      </trkpt>
      <trkpt lat="43.60769" lon="6.84563">
        <ele>75.9</ele>
        <time>2025-01-10T09:39:59.000Z</time>
      </trkpt>
      <trkpt lat="43.60764" lon="6.84563">
        <ele>75.8</ele>
        <time>2025-01-10T09:39:58.000Z</time>
      </trkpt>
      <trkpt lat="43.60759" lon="6.84564">
        <ele>75.8</ele>
        <time>2025-01-10T09:39:57.000Z</time>
      </trkpt>
      <trkpt lat="43.60754" lon="6.84564">
        <ele>75.7</ele>
        <time>2025-01-10T09:39:56.000Z</time>
      </trkpt>
      <trkpt lat="43.60749" lon="6.84564">
        <ele>75.7</ele>
        <time>2025-01-10T09:39:55.000Z</time>
      </trkpt>
      <trkpt lat="43.60744" lon="6.84564">
        <ele>75.6</ele>
        <time>2025-01-10T09:39:54.000Z</time>
      </trkpt>
      <trkpt lat="43.60739" lon="6.84564">
        <ele>75.5</ele>
        <time>2025-01-10T09:39:53.000Z</time>
      </trkpt>
      <trkpt lat="43.60732" lon="6.84563">
        <ele>75.5</ele>
        <time>2025-01-10T09:39:52.000Z</time>
      </trkpt>
      <trkpt lat="43.60726" lon="6.84561">
        <ele>75.5</ele>
        <time>2025-01-10T09:39:51.000Z</time>
      </trkpt>
      <trkpt lat="43.60721" lon="6.84558">
        <ele>75.5</ele>
        <time>2025-01-10T09:39:50.000Z</time>
      </trkpt>
      <trkpt lat="43.60715" lon="6.84555">
        <ele>75.6</ele>
        <time>2025-01-10T09:39:49.000Z</time>
      </trkpt>
      <trkpt lat="43.6071" lon="6.84552">
        <ele>75.6</ele>
        <time>2025-01-10T09:39:48.000Z</time>
      </trkpt>
      <trkpt lat="43.60705" lon="6.84548">
        <ele>75.7</ele>
        <time>2025-01-10T09:39:47.000Z</time>
      </trkpt>
      <trkpt lat="43.607" lon="6.84544">
        <ele>75.7</ele>
        <time>2025-01-10T09:39:46.000Z</time>
      </trkpt>
      <trkpt lat="43.60696" lon="6.84539">
        <ele>75.7</ele>
        <time>2025-01-10T09:39:45.000Z</time>
      </trkpt>
      <trkpt lat="43.60691" lon="6.84534">
        <ele>75.8</ele>
        <time>2025-01-10T09:39:44.000Z</time>
      </trkpt>
      <trkpt lat="43.60688" lon="6.84529">
        <ele>75.8</ele>
        <time>2025-01-10T09:39:43.000Z</time>
      </trkpt>
      <trkpt lat="43.60683" lon="6.84523">
        <ele>75.9</ele>
        <time>2025-01-10T09:39:42.000Z</time>
      </trkpt>
      <trkpt lat="43.60679" lon="6.84517">
        <ele>76</ele>
        <time>2025-01-10T09:39:41.000Z</time>
      </trkpt>
      <trkpt lat="43.60675" lon="6.84512">
        <ele>76</ele>
        <time>2025-01-10T09:39:40.000Z</time>
      </trkpt>
      <trkpt lat="43.6067" lon="6.84507">
        <ele>76.1</ele>
        <time>2025-01-10T09:39:39.000Z</time>
      </trkpt>
      <trkpt lat="43.60666" lon="6.84502">
        <ele>76.2</ele>
        <time>2025-01-10T09:39:38.000Z</time>
      </trkpt>
      <trkpt lat="43.60661" lon="6.84497">
        <ele>76.3</ele>
        <time>2025-01-10T09:39:37.000Z</time>
      </trkpt>
      <trkpt lat="43.60656" lon="6.84491">
        <ele>76.4</ele>
        <time>2025-01-10T09:39:36.000Z</time>
      </trkpt>
      <trkpt lat="43.60651" lon="6.84486">
        <ele>76.5</ele>
        <time>2025-01-10T09:39:35.000Z</time>
      </trkpt>
      <trkpt lat="43.60645" lon="6.84482">
        <ele>76.7</ele>
        <time>2025-01-10T09:39:34.000Z</time>
      </trkpt>
      <trkpt lat="43.6064" lon="6.84477">
        <ele>76.9</ele>
        <time>2025-01-10T09:39:33.000Z</time>
      </trkpt>
      <trkpt lat="43.60634" lon="6.84472">
        <ele>77.1</ele>
        <time>2025-01-10T09:39:32.000Z</time>
      </trkpt>
      <trkpt lat="43.60628" lon="6.84468">
        <ele>77.3</ele>
        <time>2025-01-10T09:39:31.000Z</time>
      </trkpt>
      <trkpt lat="43.60623" lon="6.84463">
        <ele>77.5</ele>
        <time>2025-01-10T09:39:30.000Z</time>
      </trkpt>
      <trkpt lat="43.60618" lon="6.84459">
        <ele>77.8</ele>
        <time>2025-01-10T09:39:29.000Z</time>
      </trkpt>
      <trkpt lat="43.60612" lon="6.84454">
        <ele>78.1</ele>
        <time>2025-01-10T09:39:28.000Z</time>
      </trkpt>
      <trkpt lat="43.60608" lon="6.8445">
        <ele>78.3</ele>
        <time>2025-01-10T09:39:27.000Z</time>
      </trkpt>
      <trkpt lat="43.60603" lon="6.84447">
        <ele>78.6</ele>
        <time>2025-01-10T09:39:26.000Z</time>
      </trkpt>
      <trkpt lat="43.606" lon="6.84444">
        <ele>78.8</ele>
        <time>2025-01-10T09:39:25.000Z</time>
      </trkpt>
      <trkpt lat="43.60594" lon="6.84441">
        <ele>79</ele>
        <time>2025-01-10T09:39:24.000Z</time>
      </trkpt>
      <trkpt lat="43.60589" lon="6.8444">
        <ele>79.2</ele>
        <time>2025-01-10T09:39:23.000Z</time>
      </trkpt>
      <trkpt lat="43.60584" lon="6.84441">
        <ele>79.4</ele>
        <time>2025-01-10T09:39:22.000Z</time>
      </trkpt>
      <trkpt lat="43.60579" lon="6.84442">
        <ele>79.5</ele>
        <time>2025-01-10T09:39:21.000Z</time>
      </trkpt>
      <trkpt lat="43.60573" lon="6.84444">
        <ele>79.5</ele>
        <time>2025-01-10T09:39:20.000Z</time>
      </trkpt>
      <trkpt lat="43.60567" lon="6.84448">
        <ele>79.5</ele>
        <time>2025-01-10T09:39:19.000Z</time>
      </trkpt>
      <trkpt lat="43.60561" lon="6.84452">
        <ele>79.5</ele>
        <time>2025-01-10T09:39:18.000Z</time>
      </trkpt>
      <trkpt lat="43.60555" lon="6.84457">
        <ele>79.5</ele>
        <time>2025-01-10T09:39:17.000Z</time>
      </trkpt>
      <trkpt lat="43.60549" lon="6.84461">
        <ele>79.5</ele>
        <time>2025-01-10T09:39:16.000Z</time>
      </trkpt>
      <trkpt lat="43.60542" lon="6.84464">
        <ele>79.5</ele>
        <time>2025-01-10T09:39:15.000Z</time>
      </trkpt>
      <trkpt lat="43.60536" lon="6.84465">
        <ele>79.5</ele>
        <time>2025-01-10T09:39:14.000Z</time>
      </trkpt>
      <trkpt lat="43.6053" lon="6.84462">
        <ele>79.6</ele>
        <time>2025-01-10T09:39:13.000Z</time>
      </trkpt>
      <trkpt lat="43.60524" lon="6.84456">
        <ele>79.7</ele>
        <time>2025-01-10T09:39:12.000Z</time>
      </trkpt>
      <trkpt lat="43.6052" lon="6.8445">
        <ele>79.8</ele>
        <time>2025-01-10T09:39:11.000Z</time>
      </trkpt>
      <trkpt lat="43.60515" lon="6.8444">
        <ele>79.9</ele>
        <time>2025-01-10T09:39:10.000Z</time>
      </trkpt>
      <trkpt lat="43.60511" lon="6.84426">
        <ele>80.1</ele>
        <time>2025-01-10T09:39:09.000Z</time>
      </trkpt>
      <trkpt lat="43.60508" lon="6.84417">
        <ele>80.4</ele>
        <time>2025-01-10T09:39:08.000Z</time>
      </trkpt>
      <trkpt lat="43.60504" lon="6.84403">
        <ele>80.8</ele>
        <time>2025-01-10T09:39:07.000Z</time>
      </trkpt>
      <trkpt lat="43.60499" lon="6.84392">
        <ele>81.2</ele>
        <time>2025-01-10T09:39:06.000Z</time>
      </trkpt>
      <trkpt lat="43.60493" lon="6.84382">
        <ele>81.7</ele>
        <time>2025-01-10T09:39:05.000Z</time>
      </trkpt>
      <trkpt lat="43.60487" lon="6.84372">
        <ele>82.3</ele>
        <time>2025-01-10T09:39:04.000Z</time>
      </trkpt>
      <trkpt lat="43.60481" lon="6.84362">
        <ele>82.9</ele>
        <time>2025-01-10T09:39:03.000Z</time>
      </trkpt>
      <trkpt lat="43.60476" lon="6.84351">
        <ele>83.7</ele>
        <time>2025-01-10T09:39:02.000Z</time>
      </trkpt>
      <trkpt lat="43.60471" lon="6.8434">
        <ele>84.4</ele>
        <time>2025-01-10T09:39:01.000Z</time>
      </trkpt>
      <trkpt lat="43.60469" lon="6.84327">
        <ele>85.3</ele>
        <time>2025-01-10T09:39:00.000Z</time>
      </trkpt>
      <trkpt lat="43.60467" lon="6.84312">
        <ele>86.2</ele>
        <time>2025-01-10T09:38:59.000Z</time>
      </trkpt>
      <trkpt lat="43.60466" lon="6.843">
        <ele>87.1</ele>
        <time>2025-01-10T09:38:58.000Z</time>
      </trkpt>
      <trkpt lat="43.60466" lon="6.8429">
        <ele>87.7</ele>
        <time>2025-01-10T09:38:57.000Z</time>
      </trkpt>
      <trkpt lat="43.60463" lon="6.84277">
        <ele>88.6</ele>
        <time>2025-01-10T09:38:56.000Z</time>
      </trkpt>
      <trkpt lat="43.60459" lon="6.84268">
        <ele>89.3</ele>
        <time>2025-01-10T09:38:55.000Z</time>
      </trkpt>
      <trkpt lat="43.60455" lon="6.84261">
        <ele>89.8</ele>
        <time>2025-01-10T09:38:54.000Z</time>
      </trkpt>
      <trkpt lat="43.60447" lon="6.84254">
        <ele>90.5</ele>
        <time>2025-01-10T09:38:53.000Z</time>
      </trkpt>
      <trkpt lat="43.60438" lon="6.84251">
        <ele>91.1</ele>
        <time>2025-01-10T09:38:52.000Z</time>
      </trkpt>
      <trkpt lat="43.60429" lon="6.84248">
        <ele>91.7</ele>
        <time>2025-01-10T09:38:51.000Z</time>
      </trkpt>
      <trkpt lat="43.6042" lon="6.84246">
        <ele>92.3</ele>
        <time>2025-01-10T09:38:50.000Z</time>
      </trkpt>
      <trkpt lat="43.60413" lon="6.84244">
        <ele>92.8</ele>
        <time>2025-01-10T09:38:49.000Z</time>
      </trkpt>
      <trkpt lat="43.60403" lon="6.84242">
        <ele>93.5</ele>
        <time>2025-01-10T09:38:48.000Z</time>
      </trkpt>
      <trkpt lat="43.60393" lon="6.8424">
        <ele>94.2</ele>
        <time>2025-01-10T09:38:47.000Z</time>
      </trkpt>
      <trkpt lat="43.60384" lon="6.84239">
        <ele>94.8</ele>
        <time>2025-01-10T09:38:46.000Z</time>
      </trkpt>
      <trkpt lat="43.60377" lon="6.84238">
        <ele>95.3</ele>
        <time>2025-01-10T09:38:45.000Z</time>
      </trkpt>
      <trkpt lat="43.60366" lon="6.84237">
        <ele>96.1</ele>
        <time>2025-01-10T09:38:44.000Z</time>
      </trkpt>
      <trkpt lat="43.60358" lon="6.84237">
        <ele>96.8</ele>
        <time>2025-01-10T09:38:43.000Z</time>
      </trkpt>
      <trkpt lat="43.60349" lon="6.84236">
        <ele>97.4</ele>
        <time>2025-01-10T09:38:42.000Z</time>
      </trkpt>
      <trkpt lat="43.60341" lon="6.84235">
        <ele>97.9</ele>
        <time>2025-01-10T09:38:41.000Z</time>
      </trkpt>
      <trkpt lat="43.60333" lon="6.84235">
        <ele>98.5</ele>
        <time>2025-01-10T09:38:40.000Z</time>
      </trkpt>
      <trkpt lat="43.60325" lon="6.84235">
        <ele>98.9</ele>
        <time>2025-01-10T09:38:39.000Z</time>
      </trkpt>
      <trkpt lat="43.60318" lon="6.84235">
        <ele>99.2</ele>
        <time>2025-01-10T09:38:38.000Z</time>
      </trkpt>
      <trkpt lat="43.60311" lon="6.84235">
        <ele>99.6</ele>
        <time>2025-01-10T09:38:37.000Z</time>
      </trkpt>
      <trkpt lat="43.60303" lon="6.84235">
        <ele>100</ele>
        <time>2025-01-10T09:38:36.000Z</time>
      </trkpt>
      <trkpt lat="43.60296" lon="6.84236">
        <ele>100.4</ele>
        <time>2025-01-10T09:38:35.000Z</time>
      </trkpt>
      <trkpt lat="43.60289" lon="6.84236">
        <ele>100.9</ele>
        <time>2025-01-10T09:38:34.000Z</time>
      </trkpt>
      <trkpt lat="43.60282" lon="6.84237">
        <ele>101.3</ele>
        <time>2025-01-10T09:38:33.000Z</time>
      </trkpt>
      <trkpt lat="43.60275" lon="6.84237">
        <ele>101.7</ele>
        <time>2025-01-10T09:38:32.000Z</time>
      </trkpt>
      <trkpt lat="43.60269" lon="6.84238">
        <ele>102.1</ele>
        <time>2025-01-10T09:38:31.000Z</time>
      </trkpt>
      <trkpt lat="43.60263" lon="6.84239">
        <ele>102.4</ele>
        <time>2025-01-10T09:38:30.000Z</time>
      </trkpt>
      <trkpt lat="43.60257" lon="6.8424">
        <ele>102.8</ele>
        <time>2025-01-10T09:38:29.000Z</time>
      </trkpt>
      <trkpt lat="43.60252" lon="6.8424">
        <ele>103.1</ele>
        <time>2025-01-10T09:38:28.000Z</time>
      </trkpt>
      <trkpt lat="43.60246" lon="6.84242">
        <ele>103.4</ele>
        <time>2025-01-10T09:38:27.000Z</time>
      </trkpt>
      <trkpt lat="43.60241" lon="6.84243">
        <ele>103.7</ele>
        <time>2025-01-10T09:38:26.000Z</time>
      </trkpt>
      <trkpt lat="43.60236" lon="6.84245">
        <ele>104</ele>
        <time>2025-01-10T09:38:25.000Z</time>
      </trkpt>
      <trkpt lat="43.60231" lon="6.84246">
        <ele>104.3</ele>
        <time>2025-01-10T09:38:24.000Z</time>
      </trkpt>
      <trkpt lat="43.60227" lon="6.84247">
        <ele>104.5</ele>
        <time>2025-01-10T09:38:23.000Z</time>
      </trkpt>
      <trkpt lat="43.60222" lon="6.84247">
        <ele>104.7</ele>
        <time>2025-01-10T09:38:22.000Z</time>
      </trkpt>
      <trkpt lat="43.60218" lon="6.84247">
        <ele>104.9</ele>
        <time>2025-01-10T09:38:21.000Z</time>
      </trkpt>
      <trkpt lat="43.60215" lon="6.84247">
        <ele>105.1</ele>
        <time>2025-01-10T09:38:20.000Z</time>
      </trkpt>
      <trkpt lat="43.60211" lon="6.84247">
        <ele>104.7</ele>
        <time>2025-01-10T09:38:19.000Z</time>
      </trkpt>
      <trkpt lat="43.60211" lon="6.84247">
        <ele>104.6</ele>
        <time>2025-01-10T09:38:18.000Z</time>
      </trkpt>
      <trkpt lat="43.60211" lon="6.84246">
        <ele>104.6</ele>
        <time>2025-01-10T09:38:17.000Z</time>
      </trkpt>
      <trkpt lat="43.60211" lon="6.84246">
        <ele>104.5</ele>
        <time>2025-01-10T09:38:16.000Z</time>
      </trkpt>
      <trkpt lat="43.60211" lon="6.84246">
        <ele>104.5</ele>
        <time>2025-01-10T09:38:15.000Z</time>
      </trkpt>
      <trkpt lat="43.60211" lon="6.84246">
        <ele>104.5</ele>
        <time>2025-01-10T09:38:14.000Z</time>
      </trkpt>
      <trkpt lat="43.60211" lon="6.84246">
        <ele>104.5</ele>
        <time>2025-01-10T09:38:13.000Z</time>
      </trkpt>
      <trkpt lat="43.60211" lon="6.84245">
        <ele>104.4</ele>
        <time>2025-01-10T09:38:12.000Z</time>
      </trkpt>
      <trkpt lat="43.60211" lon="6.84245">
        <ele>104.4</ele>
        <time>2025-01-10T09:38:11.000Z</time>
      </trkpt>
      <trkpt lat="43.60211" lon="6.84245">
        <ele>104.3</ele>
        <time>2025-01-10T09:38:10.000Z</time>
      </trkpt>
      <trkpt lat="43.60211" lon="6.84245">
        <ele>104.3</ele>
        <time>2025-01-10T09:38:09.000Z</time>
      </trkpt>
      <trkpt lat="43.60211" lon="6.84245">
        <ele>104.3</ele>
        <time>2025-01-10T09:38:08.000Z</time>
      </trkpt>
      <trkpt lat="43.60211" lon="6.84245">
        <ele>104.3</ele>
        <time>2025-01-10T09:38:07.000Z</time>
      </trkpt>
      <trkpt lat="43.60211" lon="6.84245">
        <ele>104.3</ele>
        <time>2025-01-10T09:38:06.000Z</time>
      </trkpt>
      <trkpt lat="43.60211" lon="6.84245">
        <ele>104.3</ele>
        <time>2025-01-10T09:38:05.000Z</time>
      </trkpt>
      <trkpt lat="43.60211" lon="6.84245">
        <ele>104.3</ele>
        <time>2025-01-10T09:38:04.000Z</time>
      </trkpt>
      <trkpt lat="43.60211" lon="6.84245">
        <ele>104.3</ele>
        <time>2025-01-10T09:38:03.000Z</time>
      </trkpt>
      <trkpt lat="43.60211" lon="6.84245">
        <ele>104.3</ele>
        <time>2025-01-10T09:38:02.000Z</time>
      </trkpt>
      <trkpt lat="43.60211" lon="6.84245">
        <ele>104.3</ele>
        <time>2025-01-10T09:38:01.000Z</time>
      </trkpt>
      <trkpt lat="43.60211" lon="6.84245">
        <ele>104.3</ele>
        <time>2025-01-10T09:38:00.000Z</time>
      </trkpt>
      <trkpt lat="43.60211" lon="6.84245">
        <ele>104.3</ele>
        <time>2025-01-10T09:37:59.000Z</time>
      </trkpt>
      <trkpt lat="43.60211" lon="6.84245">
        <ele>104.3</ele>
        <time>2025-01-10T09:37:58.000Z</time>
      </trkpt>
      <trkpt lat="43.60211" lon="6.84245">
        <ele>104.3</ele>
        <time>2025-01-10T09:37:57.000Z</time>
      </trkpt>
      <trkpt lat="43.60211" lon="6.84245">
        <ele>104.3</ele>
        <time>2025-01-10T09:37:56.000Z</time>
      </trkpt>
      <trkpt lat="43.60211" lon="6.84245">
        <ele>104.2</ele>
        <time>2025-01-10T09:37:55.000Z</time>
      </trkpt>
      <trkpt lat="43.60211" lon="6.84245">
        <ele>104.2</ele>
        <time>2025-01-10T09:37:54.000Z</time>
      </trkpt>
      <trkpt lat="43.60211" lon="6.84245">
        <ele>104.1</ele>
        <time>2025-01-10T09:37:53.000Z</time>
      </trkpt>
      <trkpt lat="43.60211" lon="6.84245">
        <ele>104.1</ele>
        <time>2025-01-10T09:37:52.000Z</time>
      </trkpt>
      <trkpt lat="43.60211" lon="6.84246">
        <ele>104.1</ele>
        <time>2025-01-10T09:37:51.000Z</time>
      </trkpt>
      <trkpt lat="43.60211" lon="6.84246">
        <ele>104.1</ele>
        <time>2025-01-10T09:37:50.000Z</time>
      </trkpt>
      <trkpt lat="43.60211" lon="6.84246">
        <ele>104.1</ele>
        <time>2025-01-10T09:37:49.000Z</time>
      </trkpt>
      <trkpt lat="43.60211" lon="6.84246">
        <ele>104.1</ele>
        <time>2025-01-10T09:37:48.000Z</time>
      </trkpt>
      <trkpt lat="43.60211" lon="6.84246">
        <ele>104.1</ele>
        <time>2025-01-10T09:37:47.000Z</time>
      </trkpt>
      <trkpt lat="43.60211" lon="6.84246">
        <ele>104.1</ele>
        <time>2025-01-10T09:37:46.000Z</time>
      </trkpt>
      <trkpt lat="43.60211" lon="6.84246">
        <ele>104.1</ele>
        <time>2025-01-10T09:37:45.000Z</time>
      </trkpt>
      <trkpt lat="43.60211" lon="6.84246">
        <ele>104.1</ele>
        <time>2025-01-10T09:37:44.000Z</time>
      </trkpt>
      <trkpt lat="43.60211" lon="6.84246">
        <ele>104.1</ele>
        <time>2025-01-10T09:37:43.000Z</time>
      </trkpt>
      <trkpt lat="43.60211" lon="6.84246">
        <ele>104.1</ele>
        <time>2025-01-10T09:37:42.000Z</time>
      </trkpt>
      <trkpt lat="43.60211" lon="6.84246">
        <ele>104.1</ele>
        <time>2025-01-10T09:37:41.000Z</time>
      </trkpt>
      <trkpt lat="43.60211" lon="6.84246">
        <ele>104.1</ele>
        <time>2025-01-10T09:37:40.000Z</time>
      </trkpt>
      <trkpt lat="43.60211" lon="6.84246">
        <ele>104.1</ele>
        <time>2025-01-10T09:37:39.000Z</time>
      </trkpt>
      <trkpt lat="43.60211" lon="6.84246">
        <ele>104.1</ele>
        <time>2025-01-10T09:37:38.000Z</time>
      </trkpt>
      <trkpt lat="43.60211" lon="6.84246">
        <ele>104.1</ele>
        <time>2025-01-10T09:37:37.000Z</time>
      </trkpt>
      <trkpt lat="43.60212" lon="6.84246">
        <ele>103.9</ele>
        <time>2025-01-10T09:37:36.000Z</time>
      </trkpt>
      <trkpt lat="43.60213" lon="6.84247">
        <ele>103.8</ele>
        <time>2025-01-10T09:37:35.000Z</time>
      </trkpt>
      <trkpt lat="43.60214" lon="6.84247">
        <ele>103.6</ele>
        <time>2025-01-10T09:37:34.000Z</time>
      </trkpt>
      <trkpt lat="43.60215" lon="6.84246">
        <ele>103.4</ele>
        <time>2025-01-10T09:37:33.000Z</time>
      </trkpt>
      <trkpt lat="43.60215" lon="6.84246">
        <ele>103.3</ele>
        <time>2025-01-10T09:37:32.000Z</time>
      </trkpt>
      <trkpt lat="43.60216" lon="6.84246">
        <ele>103.2</ele>
        <time>2025-01-10T09:37:31.000Z</time>
      </trkpt>
      <trkpt lat="43.60216" lon="6.84246">
        <ele>103.1</ele>
        <time>2025-01-10T09:37:30.000Z</time>
      </trkpt>
      <trkpt lat="43.60217" lon="6.84245">
        <ele>103.1</ele>
        <time>2025-01-10T09:37:29.000Z</time>
      </trkpt>
      <trkpt lat="43.60217" lon="6.84246">
        <ele>103.1</ele>
        <time>2025-01-10T09:37:28.000Z</time>
      </trkpt>
      <trkpt lat="43.60217" lon="6.84246">
        <ele>103</ele>
        <time>2025-01-10T09:37:27.000Z</time>
      </trkpt>
      <trkpt lat="43.60216" lon="6.84246">
        <ele>103</ele>
        <time>2025-01-10T09:37:26.000Z</time>
      </trkpt>
      <trkpt lat="43.60216" lon="6.84246">
        <ele>102.9</ele>
        <time>2025-01-10T09:37:25.000Z</time>
      </trkpt>
      <trkpt lat="43.60215" lon="6.84246">
        <ele>102.7</ele>
        <time>2025-01-10T09:37:24.000Z</time>
      </trkpt>
      <trkpt lat="43.60214" lon="6.84246">
        <ele>102.5</ele>
        <time>2025-01-10T09:37:23.000Z</time>
      </trkpt>
      <trkpt lat="43.60212" lon="6.84245">
        <ele>102.1</ele>
        <time>2025-01-10T09:37:22.000Z</time>
      </trkpt>
      <trkpt lat="43.60209" lon="6.84245">
        <ele>101.6</ele>
        <time>2025-01-10T09:37:21.000Z</time>
      </trkpt>
      <trkpt lat="43.60207" lon="6.84245">
        <ele>101</ele>
        <time>2025-01-10T09:37:20.000Z</time>
      </trkpt>
      <trkpt lat="43.60204" lon="6.84245">
        <ele>100.5</ele>
        <time>2025-01-10T09:37:19.000Z</time>
      </trkpt>
      <trkpt lat="43.60201" lon="6.84245">
        <ele>100</ele>
        <time>2025-01-10T09:37:18.000Z</time>
      </trkpt>
      <trkpt lat="43.60199" lon="6.84245">
        <ele>99.4</ele>
        <time>2025-01-10T09:37:17.000Z</time>
      </trkpt>
      <trkpt lat="43.60196" lon="6.84245">
        <ele>98.8</ele>
        <time>2025-01-10T09:37:16.000Z</time>
      </trkpt>
      <trkpt lat="43.60193" lon="6.84244">
        <ele>98.1</ele>
        <time>2025-01-10T09:37:15.000Z</time>
      </trkpt>
      <trkpt lat="43.6019" lon="6.84244">
        <ele>97.5</ele>
        <time>2025-01-10T09:37:14.000Z</time>
      </trkpt>
      <trkpt lat="43.60187" lon="6.84243">
        <ele>96.9</ele>
        <time>2025-01-10T09:37:13.000Z</time>
      </trkpt>
      <trkpt lat="43.60185" lon="6.84243">
        <ele>96.4</ele>
        <time>2025-01-10T09:37:12.000Z</time>
      </trkpt>
      <trkpt lat="43.60182" lon="6.84242">
        <ele>95.8</ele>
        <time>2025-01-10T09:37:11.000Z</time>
      </trkpt>
      <trkpt lat="43.6018" lon="6.84242">
        <ele>95.2</ele>
        <time>2025-01-10T09:37:10.000Z</time>
      </trkpt>
      <trkpt lat="43.60177" lon="6.84241">
        <ele>94.6</ele>
        <time>2025-01-10T09:37:09.000Z</time>
      </trkpt>
      <trkpt lat="43.60174" lon="6.8424">
        <ele>94</ele>
        <time>2025-01-10T09:37:08.000Z</time>
      </trkpt>
      <trkpt lat="43.60172" lon="6.84239">
        <ele>93.5</ele>
        <time>2025-01-10T09:37:07.000Z</time>
      </trkpt>
      <trkpt lat="43.60169" lon="6.84239">
        <ele>92.9</ele>
        <time>2025-01-10T09:37:06.000Z</time>
      </trkpt>
      <trkpt lat="43.60167" lon="6.84238">
        <ele>92.4</ele>
        <time>2025-01-10T09:37:05.000Z</time>
      </trkpt>
      <trkpt lat="43.60164" lon="6.84238">
        <ele>91.8</ele>
        <time>2025-01-10T09:37:04.000Z</time>
      </trkpt>
      <trkpt lat="43.60162" lon="6.84238">
        <ele>91.2</ele>
        <time>2025-01-10T09:37:03.000Z</time>
      </trkpt>
      <trkpt lat="43.60159" lon="6.84238">
        <ele>90.7</ele>
        <time>2025-01-10T09:37:02.000Z</time>
      </trkpt>
      <trkpt lat="43.60157" lon="6.84237">
        <ele>90.2</ele>
        <time>2025-01-10T09:37:01.000Z</time>
      </trkpt>
      <trkpt lat="43.60154" lon="6.84237">
        <ele>89.7</ele>
        <time>2025-01-10T09:37:00.000Z</time>
      </trkpt>
      <trkpt lat="43.60152" lon="6.84237">
        <ele>89.1</ele>
        <time>2025-01-10T09:36:59.000Z</time>
      </trkpt>
      <trkpt lat="43.60149" lon="6.84237">
        <ele>88.6</ele>
        <time>2025-01-10T09:36:58.000Z</time>
      </trkpt>
      <trkpt lat="43.60147" lon="6.84238">
        <ele>88</ele>
        <time>2025-01-10T09:36:57.000Z</time>
      </trkpt>
      <trkpt lat="43.60144" lon="6.84238">
        <ele>87.4</ele>
        <time>2025-01-10T09:36:56.000Z</time>
      </trkpt>
      <trkpt lat="43.60142" lon="6.84239">
        <ele>86.9</ele>
        <time>2025-01-10T09:36:55.000Z</time>
      </trkpt>
      <trkpt lat="43.6014" lon="6.84241">
        <ele>86.4</ele>
        <time>2025-01-10T09:36:54.000Z</time>
      </trkpt>
      <trkpt lat="43.60139" lon="6.84243">
        <ele>85.8</ele>
        <time>2025-01-10T09:36:53.000Z</time>
      </trkpt>
      <trkpt lat="43.60137" lon="6.84246">
        <ele>85</ele>
        <time>2025-01-10T09:36:52.000Z</time>
      </trkpt>
      <trkpt lat="43.60137" lon="6.84249">
        <ele>84.8</ele>
        <time>2025-01-10T09:36:51.000Z</time>
      </trkpt>
      <trkpt lat="43.60136" lon="6.84253">
        <ele>84.6</ele>
        <time>2025-01-10T09:36:50.000Z</time>
      </trkpt>
      <trkpt lat="43.60136" lon="6.84256">
        <ele>84.4</ele>
        <time>2025-01-10T09:36:49.000Z</time>
      </trkpt>
      <trkpt lat="43.60137" lon="6.84259">
        <ele>84.3</ele>
        <time>2025-01-10T09:36:48.000Z</time>
      </trkpt>
      <trkpt lat="43.60137" lon="6.84263">
        <ele>84.1</ele>
        <time>2025-01-10T09:36:47.000Z</time>
      </trkpt>
      <trkpt lat="43.60137" lon="6.84266">
        <ele>83.9</ele>
        <time>2025-01-10T09:36:46.000Z</time>
      </trkpt>
      <trkpt lat="43.60138" lon="6.8427">
        <ele>83.8</ele>
        <time>2025-01-10T09:36:45.000Z</time>
      </trkpt>
      <trkpt lat="43.60138" lon="6.84274">
        <ele>83.7</ele>
        <time>2025-01-10T09:36:44.000Z</time>
      </trkpt>
      <trkpt lat="43.60138" lon="6.84278">
        <ele>83.6</ele>
        <time>2025-01-10T09:36:43.000Z</time>
      </trkpt>
      <trkpt lat="43.60138" lon="6.84281">
        <ele>83.5</ele>
        <time>2025-01-10T09:36:42.000Z</time>
      </trkpt>
      <trkpt lat="43.60138" lon="6.84285">
        <ele>83.5</ele>
        <time>2025-01-10T09:36:41.000Z</time>
      </trkpt>
      <trkpt lat="43.60138" lon="6.84289">
        <ele>83.4</ele>
        <time>2025-01-10T09:36:40.000Z</time>
      </trkpt>
      <trkpt lat="43.60138" lon="6.84293">
        <ele>83.4</ele>
        <time>2025-01-10T09:36:39.000Z</time>
      </trkpt>
      <trkpt lat="43.60138" lon="6.84297">
        <ele>83.4</ele>
        <time>2025-01-10T09:36:38.000Z</time>
      </trkpt>
      <trkpt lat="43.60138" lon="6.84301">
        <ele>83.4</ele>
        <time>2025-01-10T09:36:37.000Z</time>
      </trkpt>
      <trkpt lat="43.60138" lon="6.84305">
        <ele>83.4</ele>
        <time>2025-01-10T09:36:36.000Z</time>
      </trkpt>
      <trkpt lat="43.60138" lon="6.84309">
        <ele>83.4</ele>
        <time>2025-01-10T09:36:35.000Z</time>
      </trkpt>
      <trkpt lat="43.60137" lon="6.84314">
        <ele>83.5</ele>
        <time>2025-01-10T09:36:34.000Z</time>
      </trkpt>
      <trkpt lat="43.60136" lon="6.84318">
        <ele>83.5</ele>
        <time>2025-01-10T09:36:33.000Z</time>
      </trkpt>
      <trkpt lat="43.60135" lon="6.84322">
        <ele>83.6</ele>
        <time>2025-01-10T09:36:32.000Z</time>
      </trkpt>
      <trkpt lat="43.60134" lon="6.84326">
        <ele>83.6</ele>
        <time>2025-01-10T09:36:31.000Z</time>
      </trkpt>
      <trkpt lat="43.60132" lon="6.8433">
        <ele>83.8</ele>
        <time>2025-01-10T09:36:30.000Z</time>
      </trkpt>
      <trkpt lat="43.60129" lon="6.84333">
        <ele>83.9</ele>
        <time>2025-01-10T09:36:29.000Z</time>
      </trkpt>
      <trkpt lat="43.60127" lon="6.84337">
        <ele>84.1</ele>
        <time>2025-01-10T09:36:28.000Z</time>
      </trkpt>
      <trkpt lat="43.60124" lon="6.8434">
        <ele>84.3</ele>
        <time>2025-01-10T09:36:27.000Z</time>
      </trkpt>
      <trkpt lat="43.60121" lon="6.84342">
        <ele>84.5</ele>
        <time>2025-01-10T09:36:26.000Z</time>
      </trkpt>
      <trkpt lat="43.60119" lon="6.84345">
        <ele>84.6</ele>
        <time>2025-01-10T09:36:25.000Z</time>
      </trkpt>
      <trkpt lat="43.60117" lon="6.84347">
        <ele>84.8</ele>
        <time>2025-01-10T09:36:24.000Z</time>
      </trkpt>
      <trkpt lat="43.60115" lon="6.84349">
        <ele>84.8</ele>
        <time>2025-01-10T09:36:23.000Z</time>
      </trkpt>
      <trkpt lat="43.60113" lon="6.84351">
        <ele>84.9</ele>
        <time>2025-01-10T09:36:22.000Z</time>
      </trkpt>
      <trkpt lat="43.60113" lon="6.84352">
        <ele>84.9</ele>
        <time>2025-01-10T09:36:21.000Z</time>
      </trkpt>
      <trkpt lat="43.60113" lon="6.84352">
        <ele>84.9</ele>
        <time>2025-01-10T09:36:20.000Z</time>
      </trkpt>
      <trkpt lat="43.60112" lon="6.84352">
        <ele>85</ele>
        <time>2025-01-10T09:36:19.000Z</time>
      </trkpt>
      <trkpt lat="43.60112" lon="6.84352">
        <ele>85</ele>
        <time>2025-01-10T09:36:18.000Z</time>
      </trkpt>
      <trkpt lat="43.60112" lon="6.84352">
        <ele>85</ele>
        <time>2025-01-10T09:36:17.000Z</time>
      </trkpt>
      <trkpt lat="43.60112" lon="6.84352">
        <ele>85</ele>
        <time>2025-01-10T09:36:16.000Z</time>
      </trkpt>
      <trkpt lat="43.60111" lon="6.84352">
        <ele>85</ele>
        <time>2025-01-10T09:36:15.000Z</time>
      </trkpt>
      <trkpt lat="43.6011" lon="6.84352">
        <ele>85</ele>
        <time>2025-01-10T09:36:14.000Z</time>
      </trkpt>
      <trkpt lat="43.6011" lon="6.84352">
        <ele>85</ele>
        <time>2025-01-10T09:36:13.000Z</time>
      </trkpt>
      <trkpt lat="43.60109" lon="6.84352">
        <ele>85.1</ele>
        <time>2025-01-10T09:36:12.000Z</time>
      </trkpt>
      <trkpt lat="43.60109" lon="6.84352">
        <ele>85.1</ele>
        <time>2025-01-10T09:36:11.000Z</time>
      </trkpt>
      <trkpt lat="43.60109" lon="6.84352">
        <ele>85.1</ele>
        <time>2025-01-10T09:36:10.000Z</time>
      </trkpt>
      <trkpt lat="43.60108" lon="6.84352">
        <ele>85.1</ele>
        <time>2025-01-10T09:36:09.000Z</time>
      </trkpt>
      <trkpt lat="43.60108" lon="6.84352">
        <ele>85.1</ele>
        <time>2025-01-10T09:36:08.000Z</time>
      </trkpt>
      <trkpt lat="43.60108" lon="6.84352">
        <ele>85.1</ele>
        <time>2025-01-10T09:36:07.000Z</time>
      </trkpt>
      <trkpt lat="43.60108" lon="6.84352">
        <ele>85.1</ele>
        <time>2025-01-10T09:36:06.000Z</time>
      </trkpt>
      <trkpt lat="43.60108" lon="6.84352">
        <ele>85.1</ele>
        <time>2025-01-10T09:36:05.000Z</time>
      </trkpt>
      <trkpt lat="43.60108" lon="6.84352">
        <ele>85.1</ele>
        <time>2025-01-10T09:36:04.000Z</time>
      </trkpt>
      <trkpt lat="43.60108" lon="6.84352">
        <ele>85.1</ele>
        <time>2025-01-10T09:36:03.000Z</time>
      </trkpt>
      <trkpt lat="43.60108" lon="6.84352">
        <ele>85.1</ele>
        <time>2025-01-10T09:36:02.000Z</time>
      </trkpt>
      <trkpt lat="43.60108" lon="6.84352">
        <ele>85.1</ele>
        <time>2025-01-10T09:36:01.000Z</time>
      </trkpt>
      <trkpt lat="43.60108" lon="6.84352">
        <ele>85.1</ele>
        <time>2025-01-10T09:36:00.000Z</time>
      </trkpt>
      <trkpt lat="43.60108" lon="6.84352">
        <ele>85.1</ele>
        <time>2025-01-10T09:35:59.000Z</time>
      </trkpt>
      <trkpt lat="43.60108" lon="6.84352">
        <ele>85.1</ele>
        <time>2025-01-10T09:35:58.000Z</time>
      </trkpt>
      <trkpt lat="43.60108" lon="6.84352">
        <ele>85.1</ele>
        <time>2025-01-10T09:35:57.000Z</time>
      </trkpt>
      <trkpt lat="43.60108" lon="6.84352">
        <ele>85.1</ele>
        <time>2025-01-10T09:35:56.000Z</time>
      </trkpt>
      <trkpt lat="43.60108" lon="6.84352">
        <ele>85.1</ele>
        <time>2025-01-10T09:35:55.000Z</time>
      </trkpt>
      <trkpt lat="43.60108" lon="6.84352">
        <ele>85.1</ele>
        <time>2025-01-10T09:35:54.000Z</time>
      </trkpt>
      <trkpt lat="43.60108" lon="6.84352">
        <ele>85.1</ele>
        <time>2025-01-10T09:35:53.000Z</time>
      </trkpt>
      <trkpt lat="43.60108" lon="6.84352">
        <ele>85.1</ele>
        <time>2025-01-10T09:35:52.000Z</time>
      </trkpt>
      <trkpt lat="43.60108" lon="6.84352">
        <ele>85.1</ele>
        <time>2025-01-10T09:35:51.000Z</time>
      </trkpt>
      <trkpt lat="43.60108" lon="6.84352">
        <ele>85.1</ele>
        <time>2025-01-10T09:35:50.000Z</time>
      </trkpt>
      <trkpt lat="43.60108" lon="6.84352">
        <ele>85.1</ele>
        <time>2025-01-10T09:35:49.000Z</time>
      </trkpt>
      <trkpt lat="43.60108" lon="6.84352">
        <ele>85.1</ele>
        <time>2025-01-10T09:35:48.000Z</time>
      </trkpt>
      <trkpt lat="43.60108" lon="6.84352">
        <ele>85.1</ele>
        <time>2025-01-10T09:35:47.000Z</time>
      </trkpt>
      <trkpt lat="43.60108" lon="6.84352">
        <ele>85.1</ele>
        <time>2025-01-10T09:35:46.000Z</time>
      </trkpt>
      <trkpt lat="43.60108" lon="6.84352">
        <ele>85.1</ele>
        <time>2025-01-10T09:35:45.000Z</time>
      </trkpt>
      <trkpt lat="43.60107" lon="6.84352">
        <ele>85.1</ele>
        <time>2025-01-10T09:35:44.000Z</time>
      </trkpt>
      <trkpt lat="43.60107" lon="6.84352">
        <ele>85.1</ele>
        <time>2025-01-10T09:35:43.000Z</time>
      </trkpt>
      <trkpt lat="43.60107" lon="6.84352">
        <ele>85.2</ele>
        <time>2025-01-10T09:35:42.000Z</time>
      </trkpt>
      <trkpt lat="43.60106" lon="6.84352">
        <ele>85.2</ele>
        <time>2025-01-10T09:35:41.000Z</time>
      </trkpt>
      <trkpt lat="43.60106" lon="6.84352">
        <ele>85.2</ele>
        <time>2025-01-10T09:35:40.000Z</time>
      </trkpt>
      <trkpt lat="43.60105" lon="6.84353">
        <ele>85.2</ele>
        <time>2025-01-10T09:35:39.000Z</time>
      </trkpt>
      <trkpt lat="43.60105" lon="6.84353">
        <ele>85.2</ele>
        <time>2025-01-10T09:35:38.000Z</time>
      </trkpt>
      <trkpt lat="43.60105" lon="6.84355">
        <ele>85.2</ele>
        <time>2025-01-10T09:35:37.000Z</time>
      </trkpt>
      <trkpt lat="43.60106" lon="6.84357">
        <ele>85.2</ele>
        <time>2025-01-10T09:35:36.000Z</time>
      </trkpt>
      <trkpt lat="43.60106" lon="6.84357">
        <ele>85.2</ele>
        <time>2025-01-10T09:35:35.000Z</time>
      </trkpt>
      <trkpt lat="43.60106" lon="6.84358">
        <ele>85.2</ele>
        <time>2025-01-10T09:35:34.000Z</time>
      </trkpt>
      <trkpt lat="43.60106" lon="6.84358">
        <ele>85.2</ele>
        <time>2025-01-10T09:35:33.000Z</time>
      </trkpt>
      <trkpt lat="43.60106" lon="6.84358">
        <ele>85.2</ele>
        <time>2025-01-10T09:35:32.000Z</time>
      </trkpt>
      <trkpt lat="43.60106" lon="6.84358">
        <ele>85.2</ele>
        <time>2025-01-10T09:35:31.000Z</time>
      </trkpt>
      <trkpt lat="43.60106" lon="6.84357">
        <ele>85.2</ele>
        <time>2025-01-10T09:35:30.000Z</time>
      </trkpt>
      <trkpt lat="43.60107" lon="6.84357">
        <ele>85.2</ele>
        <time>2025-01-10T09:35:29.000Z</time>
      </trkpt>
      <trkpt lat="43.60107" lon="6.84357">
        <ele>85.2</ele>
        <time>2025-01-10T09:35:28.000Z</time>
      </trkpt>
      <trkpt lat="43.60108" lon="6.84357">
        <ele>85.2</ele>
        <time>2025-01-10T09:35:27.000Z</time>
      </trkpt>
      <trkpt lat="43.60108" lon="6.84357">
        <ele>85.2</ele>
        <time>2025-01-10T09:35:26.000Z</time>
      </trkpt>
      <trkpt lat="43.60108" lon="6.84357">
        <ele>85.2</ele>
        <time>2025-01-10T09:35:25.000Z</time>
      </trkpt>
      <trkpt lat="43.60108" lon="6.84356">
        <ele>85.2</ele>
        <time>2025-01-10T09:35:24.000Z</time>
      </trkpt>
      <trkpt lat="43.60108" lon="6.84356">
        <ele>85.2</ele>
        <time>2025-01-10T09:35:23.000Z</time>
      </trkpt>
      <trkpt lat="43.60108" lon="6.84356">
        <ele>85.2</ele>
        <time>2025-01-10T09:35:22.000Z</time>
      </trkpt>
      <trkpt lat="43.60108" lon="6.84356">
        <ele>85.2</ele>
        <time>2025-01-10T09:35:21.000Z</time>
      </trkpt>
      <trkpt lat="43.60108" lon="6.84356">
        <ele>85.2</ele>
        <time>2025-01-10T09:35:20.000Z</time>
      </trkpt>
      <trkpt lat="43.60108" lon="6.84356">
        <ele>85.1</ele>
        <time>2025-01-10T09:35:19.000Z</time>
      </trkpt>
      <trkpt lat="43.60108" lon="6.84355">
        <ele>85.1</ele>
        <time>2025-01-10T09:35:18.000Z</time>
      </trkpt>
      <trkpt lat="43.60109" lon="6.84355">
        <ele>85.1</ele>
        <time>2025-01-10T09:35:17.000Z</time>
      </trkpt>
      <trkpt lat="43.60109" lon="6.84355">
        <ele>85.1</ele>
        <time>2025-01-10T09:35:16.000Z</time>
      </trkpt>
      <trkpt lat="43.60109" lon="6.84356">
        <ele>85.1</ele>
        <time>2025-01-10T09:35:15.000Z</time>
      </trkpt>
      <trkpt lat="43.60108" lon="6.84357">
        <ele>85.1</ele>
        <time>2025-01-10T09:35:14.000Z</time>
      </trkpt>
      <trkpt lat="43.60107" lon="6.8436">
        <ele>85.1</ele>
        <time>2025-01-10T09:35:13.000Z</time>
      </trkpt>
      <trkpt lat="43.60107" lon="6.84363">
        <ele>85</ele>
        <time>2025-01-10T09:35:12.000Z</time>
      </trkpt>
      <trkpt lat="43.60107" lon="6.84367">
        <ele>85</ele>
        <time>2025-01-10T09:35:11.000Z</time>
      </trkpt>
      <trkpt lat="43.60107" lon="6.84372">
        <ele>84.9</ele>
        <time>2025-01-10T09:35:10.000Z</time>
      </trkpt>
      <trkpt lat="43.60107" lon="6.84377">
        <ele>84.9</ele>
        <time>2025-01-10T09:35:09.000Z</time>
      </trkpt>
      <trkpt lat="43.60107" lon="6.84383">
        <ele>84.9</ele>
        <time>2025-01-10T09:35:08.000Z</time>
      </trkpt>
      <trkpt lat="43.60108" lon="6.84391">
        <ele>85</ele>
        <time>2025-01-10T09:35:07.000Z</time>
      </trkpt>
      <trkpt lat="43.60109" lon="6.84399">
        <ele>85.2</ele>
        <time>2025-01-10T09:35:06.000Z</time>
      </trkpt>
      <trkpt lat="43.6011" lon="6.84408">
        <ele>85.5</ele>
        <time>2025-01-10T09:35:05.000Z</time>
      </trkpt>
      <trkpt lat="43.60111" lon="6.84418">
        <ele>85.9</ele>
        <time>2025-01-10T09:35:04.000Z</time>
      </trkpt>
      <trkpt lat="43.60113" lon="6.84429">
        <ele>86.3</ele>
        <time>2025-01-10T09:35:03.000Z</time>
      </trkpt>
      <trkpt lat="43.60114" lon="6.8444">
        <ele>86.8</ele>
        <time>2025-01-10T09:35:02.000Z</time>
      </trkpt>
      <trkpt lat="43.60116" lon="6.8445">
        <ele>87.4</ele>
        <time>2025-01-10T09:35:01.000Z</time>
      </trkpt>
      <trkpt lat="43.60117" lon="6.84459">
        <ele>88</ele>
        <time>2025-01-10T09:35:00.000Z</time>
      </trkpt>
      <trkpt lat="43.60117" lon="6.84468">
        <ele>88.6</ele>
        <time>2025-01-10T09:34:59.000Z</time>
      </trkpt>
      <trkpt lat="43.60117" lon="6.84475">
        <ele>89.2</ele>
        <time>2025-01-10T09:34:58.000Z</time>
      </trkpt>
      <trkpt lat="43.60117" lon="6.8448">
        <ele>89.6</ele>
        <time>2025-01-10T09:34:57.000Z</time>
      </trkpt>
      <trkpt lat="43.60115" lon="6.84485">
        <ele>90.1</ele>
        <time>2025-01-10T09:34:56.000Z</time>
      </trkpt>
      <trkpt lat="43.60113" lon="6.8449">
        <ele>90.5</ele>
        <time>2025-01-10T09:34:55.000Z</time>
      </trkpt>
      <trkpt lat="43.60111" lon="6.84493">
        <ele>90.9</ele>
        <time>2025-01-10T09:34:54.000Z</time>
      </trkpt>
      <trkpt lat="43.60109" lon="6.84496">
        <ele>91.2</ele>
        <time>2025-01-10T09:34:53.000Z</time>
      </trkpt>
      <trkpt lat="43.60107" lon="6.84498">
        <ele>91.6</ele>
        <time>2025-01-10T09:34:52.000Z</time>
      </trkpt>
      <trkpt lat="43.60104" lon="6.84498">
        <ele>92</ele>
        <time>2025-01-10T09:34:51.000Z</time>
      </trkpt>
      <trkpt lat="43.601" lon="6.84498">
        <ele>92.5</ele>
        <time>2025-01-10T09:34:50.000Z</time>
      </trkpt>
      <trkpt lat="43.60097" lon="6.84497">
        <ele>92.9</ele>
        <time>2025-01-10T09:34:49.000Z</time>
      </trkpt>
      <trkpt lat="43.60093" lon="6.84497">
        <ele>93.4</ele>
        <time>2025-01-10T09:34:48.000Z</time>
      </trkpt>
      <trkpt lat="43.6009" lon="6.84498">
        <ele>93.8</ele>
        <time>2025-01-10T09:34:47.000Z</time>
      </trkpt>
      <trkpt lat="43.60087" lon="6.84498">
        <ele>94.3</ele>
        <time>2025-01-10T09:34:46.000Z</time>
      </trkpt>
      <trkpt lat="43.60082" lon="6.84498">
        <ele>94.8</ele>
        <time>2025-01-10T09:34:45.000Z</time>
      </trkpt>
      <trkpt lat="43.60078" lon="6.84499">
        <ele>95.4</ele>
        <time>2025-01-10T09:34:44.000Z</time>
      </trkpt>
      <trkpt lat="43.60072" lon="6.84498">
        <ele>96</ele>
        <time>2025-01-10T09:34:43.000Z</time>
      </trkpt>
      <trkpt lat="43.60067" lon="6.84497">
        <ele>96.6</ele>
        <time>2025-01-10T09:34:42.000Z</time>
      </trkpt>
      <trkpt lat="43.60061" lon="6.84494">
        <ele>97.2</ele>
        <time>2025-01-10T09:34:41.000Z</time>
      </trkpt>
      <trkpt lat="43.60054" lon="6.84491">
        <ele>98</ele>
        <time>2025-01-10T09:34:40.000Z</time>
      </trkpt>
      <trkpt lat="43.60047" lon="6.84486">
        <ele>98.8</ele>
        <time>2025-01-10T09:34:39.000Z</time>
      </trkpt>
      <trkpt lat="43.60039" lon="6.84481">
        <ele>99.7</ele>
        <time>2025-01-10T09:34:38.000Z</time>
      </trkpt>
      <trkpt lat="43.60031" lon="6.84476">
        <ele>100.9</ele>
        <time>2025-01-10T09:34:37.000Z</time>
      </trkpt>
      <trkpt lat="43.60022" lon="6.84471">
        <ele>102.2</ele>
        <time>2025-01-10T09:34:36.000Z</time>
      </trkpt>
      <trkpt lat="43.60015" lon="6.84465">
        <ele>103.4</ele>
        <time>2025-01-10T09:34:35.000Z</time>
      </trkpt>
      <trkpt lat="43.60009" lon="6.8446">
        <ele>104.5</ele>
        <time>2025-01-10T09:34:34.000Z</time>
      </trkpt>
      <trkpt lat="43.60003" lon="6.84455">
        <ele>105.4</ele>
        <time>2025-01-10T09:34:33.000Z</time>
      </trkpt>
      <trkpt lat="43.59997" lon="6.84449">
        <ele>106.3</ele>
        <time>2025-01-10T09:34:32.000Z</time>
      </trkpt>
      <trkpt lat="43.59992" lon="6.84444">
        <ele>107.1</ele>
        <time>2025-01-10T09:34:31.000Z</time>
      </trkpt>
      <trkpt lat="43.59987" lon="6.84438">
        <ele>107.8</ele>
        <time>2025-01-10T09:34:30.000Z</time>
      </trkpt>
      <trkpt lat="43.59983" lon="6.84432">
        <ele>108.5</ele>
        <time>2025-01-10T09:34:29.000Z</time>
      </trkpt>
      <trkpt lat="43.59979" lon="6.84426">
        <ele>109.2</ele>
        <time>2025-01-10T09:34:28.000Z</time>
      </trkpt>
      <trkpt lat="43.59974" lon="6.84419">
        <ele>109.8</ele>
        <time>2025-01-10T09:34:27.000Z</time>
      </trkpt>
      <trkpt lat="43.5997" lon="6.84411">
        <ele>110.4</ele>
        <time>2025-01-10T09:34:26.000Z</time>
      </trkpt>
      <trkpt lat="43.59966" lon="6.84403">
        <ele>111.1</ele>
        <time>2025-01-10T09:34:25.000Z</time>
      </trkpt>
      <trkpt lat="43.59962" lon="6.84394">
        <ele>111.7</ele>
        <time>2025-01-10T09:34:24.000Z</time>
      </trkpt>
      <trkpt lat="43.59958" lon="6.84385">
        <ele>112.4</ele>
        <time>2025-01-10T09:34:23.000Z</time>
      </trkpt>
      <trkpt lat="43.59954" lon="6.84376">
        <ele>113</ele>
        <time>2025-01-10T09:34:22.000Z</time>
      </trkpt>
      <trkpt lat="43.59951" lon="6.84367">
        <ele>113.7</ele>
        <time>2025-01-10T09:34:21.000Z</time>
      </trkpt>
      <trkpt lat="43.59947" lon="6.84358">
        <ele>114.6</ele>
        <time>2025-01-10T09:34:20.000Z</time>
      </trkpt>
      <trkpt lat="43.59945" lon="6.84352">
        <ele>115.2</ele>
        <time>2025-01-10T09:34:19.000Z</time>
      </trkpt>
      <trkpt lat="43.59942" lon="6.84345">
        <ele>115.8</ele>
        <time>2025-01-10T09:34:18.000Z</time>
      </trkpt>
      <trkpt lat="43.5994" lon="6.84338">
        <ele>116.4</ele>
        <time>2025-01-10T09:34:17.000Z</time>
      </trkpt>
      <trkpt lat="43.59938" lon="6.84331">
        <ele>117</ele>
        <time>2025-01-10T09:34:16.000Z</time>
      </trkpt>
      <trkpt lat="43.59935" lon="6.84324">
        <ele>117.5</ele>
        <time>2025-01-10T09:34:15.000Z</time>
      </trkpt>
      <trkpt lat="43.59933" lon="6.84318">
        <ele>118</ele>
        <time>2025-01-10T09:34:14.000Z</time>
      </trkpt>
      <trkpt lat="43.59932" lon="6.84316">
        <ele>118.2</ele>
        <time>2025-01-10T09:34:13.000Z</time>
      </trkpt>
      <trkpt lat="43.59932" lon="6.84314">
        <ele>118.3</ele>
        <time>2025-01-10T09:34:12.000Z</time>
      </trkpt>
      <trkpt lat="43.59932" lon="6.84312">
        <ele>118.4</ele>
        <time>2025-01-10T09:34:11.000Z</time>
      </trkpt>
      <trkpt lat="43.59932" lon="6.8431">
        <ele>118.6</ele>
        <time>2025-01-10T09:34:10.000Z</time>
      </trkpt>
      <trkpt lat="43.59931" lon="6.84308">
        <ele>118.7</ele>
        <time>2025-01-10T09:34:09.000Z</time>
      </trkpt>
      <trkpt lat="43.59931" lon="6.84306">
        <ele>118.8</ele>
        <time>2025-01-10T09:34:08.000Z</time>
      </trkpt>
      <trkpt lat="43.59931" lon="6.84304">
        <ele>118.9</ele>
        <time>2025-01-10T09:34:07.000Z</time>
      </trkpt>
      <trkpt lat="43.59931" lon="6.84302">
        <ele>119.1</ele>
        <time>2025-01-10T09:34:06.000Z</time>
      </trkpt>
      <trkpt lat="43.59931" lon="6.843">
        <ele>119.2</ele>
        <time>2025-01-10T09:34:05.000Z</time>
      </trkpt>
      <trkpt lat="43.5993" lon="6.84298">
        <ele>119.3</ele>
        <time>2025-01-10T09:34:04.000Z</time>
      </trkpt>
      <trkpt lat="43.5993" lon="6.84295">
        <ele>119.4</ele>
        <time>2025-01-10T09:34:03.000Z</time>
      </trkpt>
      <trkpt lat="43.5993" lon="6.84293">
        <ele>119.5</ele>
        <time>2025-01-10T09:34:02.000Z</time>
      </trkpt>
      <trkpt lat="43.5993" lon="6.84291">
        <ele>119.5</ele>
        <time>2025-01-10T09:34:01.000Z</time>
      </trkpt>
      <trkpt lat="43.5993" lon="6.84289">
        <ele>119.6</ele>
        <time>2025-01-10T09:34:00.000Z</time>
      </trkpt>
      <trkpt lat="43.59929" lon="6.84287">
        <ele>119.7</ele>
        <time>2025-01-10T09:33:59.000Z</time>
      </trkpt>
      <trkpt lat="43.59929" lon="6.84285">
        <ele>119.8</ele>
        <time>2025-01-10T09:33:58.000Z</time>
      </trkpt>
      <trkpt lat="43.59929" lon="6.84283">
        <ele>119.9</ele>
        <time>2025-01-10T09:33:57.000Z</time>
      </trkpt>
      <trkpt lat="43.59929" lon="6.84281">
        <ele>119.9</ele>
        <time>2025-01-10T09:33:56.000Z</time>
      </trkpt>
      <trkpt lat="43.59928" lon="6.84279">
        <ele>120</ele>
        <time>2025-01-10T09:33:55.000Z</time>
      </trkpt>
      <trkpt lat="43.59928" lon="6.84277">
        <ele>120.1</ele>
        <time>2025-01-10T09:33:54.000Z</time>
      </trkpt>
      <trkpt lat="43.59928" lon="6.84275">
        <ele>120.2</ele>
        <time>2025-01-10T09:33:53.000Z</time>
      </trkpt>
      <trkpt lat="43.59928" lon="6.84275">
        <ele>120.2</ele>
        <time>2025-01-10T09:33:52.000Z</time>
      </trkpt>
      <trkpt lat="43.59928" lon="6.84274">
        <ele>120.2</ele>
        <time>2025-01-10T09:33:51.000Z</time>
      </trkpt>
      <trkpt lat="43.59927" lon="6.84273">
        <ele>120.2</ele>
        <time>2025-01-10T09:33:50.000Z</time>
      </trkpt>
      <trkpt lat="43.59925" lon="6.84271">
        <ele>120.2</ele>
        <time>2025-01-10T09:33:49.000Z</time>
      </trkpt>
      <trkpt lat="43.59922" lon="6.84269">
        <ele>120.2</ele>
        <time>2025-01-10T09:33:48.000Z</time>
      </trkpt>
      <trkpt lat="43.59919" lon="6.84267">
        <ele>120.2</ele>
        <time>2025-01-10T09:33:47.000Z</time>
      </trkpt>
      <trkpt lat="43.59916" lon="6.84264">
        <ele>120.2</ele>
        <time>2025-01-10T09:33:46.000Z</time>
      </trkpt>
      <trkpt lat="43.59912" lon="6.8426">
        <ele>120.4</ele>
        <time>2025-01-10T09:33:45.000Z</time>
      </trkpt>
      <trkpt lat="43.59907" lon="6.84255">
        <ele>120.7</ele>
        <time>2025-01-10T09:33:44.000Z</time>
      </trkpt>
      <trkpt lat="43.59903" lon="6.84249">
        <ele>121.1</ele>
        <time>2025-01-10T09:33:43.000Z</time>
      </trkpt>
      <trkpt lat="43.59898" lon="6.84242">
        <ele>121.5</ele>
        <time>2025-01-10T09:33:42.000Z</time>
      </trkpt>
      <trkpt lat="43.59893" lon="6.84233">
        <ele>122.1</ele>
        <time>2025-01-10T09:33:41.000Z</time>
      </trkpt>
      <trkpt lat="43.59889" lon="6.84225">
        <ele>122.7</ele>
        <time>2025-01-10T09:33:40.000Z</time>
      </trkpt>
      <trkpt lat="43.59886" lon="6.84218">
        <ele>123.3</ele>
        <time>2025-01-10T09:33:39.000Z</time>
      </trkpt>
      <trkpt lat="43.59884" lon="6.84213">
        <ele>123.8</ele>
        <time>2025-01-10T09:33:38.000Z</time>
      </trkpt>
      <trkpt lat="43.59882" lon="6.84209">
        <ele>124.2</ele>
        <time>2025-01-10T09:33:37.000Z</time>
      </trkpt>
      <trkpt lat="43.5988" lon="6.84206">
        <ele>124.6</ele>
        <time>2025-01-10T09:33:36.000Z</time>
      </trkpt>
      <trkpt lat="43.5988" lon="6.84204">
        <ele>124.8</ele>
        <time>2025-01-10T09:33:35.000Z</time>
      </trkpt>
      <trkpt lat="43.5988" lon="6.84203">
        <ele>124.9</ele>
        <time>2025-01-10T09:33:34.000Z</time>
      </trkpt>
      <trkpt lat="43.5988" lon="6.84203">
        <ele>124.9</ele>
        <time>2025-01-10T09:33:33.000Z</time>
      </trkpt>
      <trkpt lat="43.59881" lon="6.84203">
        <ele>124.9</ele>
        <time>2025-01-10T09:33:32.000Z</time>
      </trkpt>
      <trkpt lat="43.59881" lon="6.84204">
        <ele>125</ele>
        <time>2025-01-10T09:33:31.000Z</time>
      </trkpt>
      <trkpt lat="43.5988" lon="6.84205">
        <ele>125.1</ele>
        <time>2025-01-10T09:33:30.000Z</time>
      </trkpt>
      <trkpt lat="43.5988" lon="6.84205">
        <ele>125.2</ele>
        <time>2025-01-10T09:33:29.000Z</time>
      </trkpt>
      <trkpt lat="43.5988" lon="6.84206">
        <ele>125.2</ele>
        <time>2025-01-10T09:33:28.000Z</time>
      </trkpt>
      <trkpt lat="43.5988" lon="6.84205">
        <ele>125.3</ele>
        <time>2025-01-10T09:33:27.000Z</time>
      </trkpt>
      <trkpt lat="43.59881" lon="6.84205">
        <ele>125.3</ele>
        <time>2025-01-10T09:33:26.000Z</time>
      </trkpt>
      <trkpt lat="43.59881" lon="6.84205">
        <ele>125.4</ele>
        <time>2025-01-10T09:33:25.000Z</time>
      </trkpt>
      <trkpt lat="43.59881" lon="6.84205">
        <ele>125.4</ele>
        <time>2025-01-10T09:33:24.000Z</time>
      </trkpt>
      <trkpt lat="43.59881" lon="6.84205">
        <ele>125.4</ele>
        <time>2025-01-10T09:33:23.000Z</time>
      </trkpt>
      <trkpt lat="43.59881" lon="6.84205">
        <ele>125.5</ele>
        <time>2025-01-10T09:33:22.000Z</time>
      </trkpt>
      <trkpt lat="43.59882" lon="6.84206">
        <ele>125.6</ele>
        <time>2025-01-10T09:33:21.000Z</time>
      </trkpt>
      <trkpt lat="43.59882" lon="6.84206">
        <ele>125.7</ele>
        <time>2025-01-10T09:33:20.000Z</time>
      </trkpt>
      <trkpt lat="43.59883" lon="6.84207">
        <ele>125.7</ele>
        <time>2025-01-10T09:33:19.000Z</time>
      </trkpt>
      <trkpt lat="43.59883" lon="6.84206">
        <ele>125.8</ele>
        <time>2025-01-10T09:33:18.000Z</time>
      </trkpt>
      <trkpt lat="43.59882" lon="6.84205">
        <ele>125.9</ele>
        <time>2025-01-10T09:33:17.000Z</time>
      </trkpt>
      <trkpt lat="43.59881" lon="6.84204">
        <ele>126.1</ele>
        <time>2025-01-10T09:33:16.000Z</time>
      </trkpt>
      <trkpt lat="43.59879" lon="6.842">
        <ele>126.6</ele>
        <time>2025-01-10T09:33:15.000Z</time>
      </trkpt>
      <trkpt lat="43.59877" lon="6.84195">
        <ele>127.2</ele>
        <time>2025-01-10T09:33:14.000Z</time>
      </trkpt>
      <trkpt lat="43.59874" lon="6.84189">
        <ele>127.9</ele>
        <time>2025-01-10T09:33:13.000Z</time>
      </trkpt>
      <trkpt lat="43.59872" lon="6.84183">
        <ele>128.7</ele>
        <time>2025-01-10T09:33:12.000Z</time>
      </trkpt>
      <trkpt lat="43.59869" lon="6.84177">
        <ele>129.6</ele>
        <time>2025-01-10T09:33:11.000Z</time>
      </trkpt>
      <trkpt lat="43.59867" lon="6.8417">
        <ele>130.7</ele>
        <time>2025-01-10T09:33:10.000Z</time>
      </trkpt>
      <trkpt lat="43.59864" lon="6.84163">
        <ele>132</ele>
        <time>2025-01-10T09:33:09.000Z</time>
      </trkpt>
      <trkpt lat="43.59862" lon="6.84156">
        <ele>133.5</ele>
        <time>2025-01-10T09:33:08.000Z</time>
      </trkpt>
      <trkpt lat="43.5986" lon="6.8415">
        <ele>134.9</ele>
        <time>2025-01-10T09:33:07.000Z</time>
      </trkpt>
      <trkpt lat="43.59858" lon="6.84144">
        <ele>136.1</ele>
        <time>2025-01-10T09:33:06.000Z</time>
      </trkpt>
      <trkpt lat="43.59856" lon="6.84138">
        <ele>137.6</ele>
        <time>2025-01-10T09:33:05.000Z</time>
      </trkpt>
      <trkpt lat="43.59855" lon="6.84132">
        <ele>138.7</ele>
        <time>2025-01-10T09:33:04.000Z</time>
      </trkpt>
      <trkpt lat="43.59854" lon="6.84128">
        <ele>139.5</ele>
        <time>2025-01-10T09:33:03.000Z</time>
      </trkpt>
      <trkpt lat="43.59853" lon="6.84124">
        <ele>140.4</ele>
        <time>2025-01-10T09:33:02.000Z</time>
      </trkpt>
      <trkpt lat="43.59851" lon="6.8412">
        <ele>141.3</ele>
        <time>2025-01-10T09:33:01.000Z</time>
      </trkpt>
      <trkpt lat="43.59849" lon="6.84115">
        <ele>142.2</ele>
        <time>2025-01-10T09:33:00.000Z</time>
      </trkpt>
      <trkpt lat="43.59847" lon="6.84111">
        <ele>142.8</ele>
        <time>2025-01-10T09:32:59.000Z</time>
      </trkpt>
      <trkpt lat="43.59844" lon="6.84107">
        <ele>143.5</ele>
        <time>2025-01-10T09:32:58.000Z</time>
      </trkpt>
      <trkpt lat="43.59842" lon="6.84103">
        <ele>144.2</ele>
        <time>2025-01-10T09:32:57.000Z</time>
      </trkpt>
      <trkpt lat="43.5984" lon="6.84099">
        <ele>145</ele>
        <time>2025-01-10T09:32:56.000Z</time>
      </trkpt>
      <trkpt lat="43.59837" lon="6.84094">
        <ele>145.8</ele>
        <time>2025-01-10T09:32:55.000Z</time>
      </trkpt>
      <trkpt lat="43.59834" lon="6.8409">
        <ele>146.7</ele>
        <time>2025-01-10T09:32:54.000Z</time>
      </trkpt>
      <trkpt lat="43.59831" lon="6.84086">
        <ele>147.7</ele>
        <time>2025-01-10T09:32:53.000Z</time>
      </trkpt>
      <trkpt lat="43.59828" lon="6.84081">
        <ele>148.6</ele>
        <time>2025-01-10T09:32:52.000Z</time>
      </trkpt>
      <trkpt lat="43.59825" lon="6.84076">
        <ele>149.5</ele>
        <time>2025-01-10T09:32:51.000Z</time>
      </trkpt>
      <trkpt lat="43.59822" lon="6.84071">
        <ele>150.4</ele>
        <time>2025-01-10T09:32:50.000Z</time>
      </trkpt>
      <trkpt lat="43.59821" lon="6.84065">
        <ele>151.2</ele>
        <time>2025-01-10T09:32:49.000Z</time>
      </trkpt>
      <trkpt lat="43.59819" lon="6.84058">
        <ele>152.1</ele>
        <time>2025-01-10T09:32:48.000Z</time>
      </trkpt>
      <trkpt lat="43.59817" lon="6.84052">
        <ele>152.8</ele>
        <time>2025-01-10T09:32:47.000Z</time>
      </trkpt>
      <trkpt lat="43.59815" lon="6.84045">
        <ele>153.5</ele>
        <time>2025-01-10T09:32:46.000Z</time>
      </trkpt>
      <trkpt lat="43.59813" lon="6.8404">
        <ele>154</ele>
        <time>2025-01-10T09:32:45.000Z</time>
      </trkpt>
      <trkpt lat="43.5981" lon="6.84033">
        <ele>154.8</ele>
        <time>2025-01-10T09:32:44.000Z</time>
      </trkpt>
      <trkpt lat="43.59806" lon="6.84027">
        <ele>155.6</ele>
        <time>2025-01-10T09:32:43.000Z</time>
      </trkpt>
      <trkpt lat="43.59803" lon="6.8402">
        <ele>156.4</ele>
        <time>2025-01-10T09:32:42.000Z</time>
      </trkpt>
      <trkpt lat="43.598" lon="6.84014">
        <ele>157.4</ele>
        <time>2025-01-10T09:32:41.000Z</time>
      </trkpt>
      <trkpt lat="43.59796" lon="6.84007">
        <ele>158.6</ele>
        <time>2025-01-10T09:32:40.000Z</time>
      </trkpt>
      <trkpt lat="43.59794" lon="6.84001">
        <ele>159.5</ele>
        <time>2025-01-10T09:32:39.000Z</time>
      </trkpt>
      <trkpt lat="43.59791" lon="6.83995">
        <ele>160.6</ele>
        <time>2025-01-10T09:32:38.000Z</time>
      </trkpt>
      <trkpt lat="43.59787" lon="6.83989">
        <ele>161.7</ele>
        <time>2025-01-10T09:32:37.000Z</time>
      </trkpt>
      <trkpt lat="43.59784" lon="6.83981">
        <ele>162.9</ele>
        <time>2025-01-10T09:32:36.000Z</time>
      </trkpt>
      <trkpt lat="43.59783" lon="6.83974">
        <ele>163.7</ele>
        <time>2025-01-10T09:32:35.000Z</time>
      </trkpt>
      <trkpt lat="43.5978" lon="6.83969">
        <ele>164.4</ele>
        <time>2025-01-10T09:32:34.000Z</time>
      </trkpt>
      <trkpt lat="43.59777" lon="6.83964">
        <ele>165</ele>
        <time>2025-01-10T09:32:33.000Z</time>
      </trkpt>
      <trkpt lat="43.59774" lon="6.83959">
        <ele>165.5</ele>
        <time>2025-01-10T09:32:32.000Z</time>
      </trkpt>
      <trkpt lat="43.5977" lon="6.83955">
        <ele>165.9</ele>
        <time>2025-01-10T09:32:31.000Z</time>
      </trkpt>
      <trkpt lat="43.59764" lon="6.83951">
        <ele>166.4</ele>
        <time>2025-01-10T09:32:30.000Z</time>
      </trkpt>
      <trkpt lat="43.59761" lon="6.8395">
        <ele>166.6</ele>
        <time>2025-01-10T09:32:29.000Z</time>
      </trkpt>
      <trkpt lat="43.59757" lon="6.83949">
        <ele>166.9</ele>
        <time>2025-01-10T09:32:28.000Z</time>
      </trkpt>
      <trkpt lat="43.59752" lon="6.83949">
        <ele>167.3</ele>
        <time>2025-01-10T09:32:27.000Z</time>
      </trkpt>
      <trkpt lat="43.59748" lon="6.8395">
        <ele>167.6</ele>
        <time>2025-01-10T09:32:26.000Z</time>
      </trkpt>
      <trkpt lat="43.59744" lon="6.83951">
        <ele>168</ele>
        <time>2025-01-10T09:32:25.000Z</time>
      </trkpt>
      <trkpt lat="43.59739" lon="6.83952">
        <ele>168.4</ele>
        <time>2025-01-10T09:32:24.000Z</time>
      </trkpt>
      <trkpt lat="43.59736" lon="6.83953">
        <ele>168.7</ele>
        <time>2025-01-10T09:32:23.000Z</time>
      </trkpt>
      <trkpt lat="43.59732" lon="6.83955">
        <ele>169.1</ele>
        <time>2025-01-10T09:32:22.000Z</time>
      </trkpt>
      <trkpt lat="43.59728" lon="6.83957">
        <ele>169.6</ele>
        <time>2025-01-10T09:32:21.000Z</time>
      </trkpt>
      <trkpt lat="43.59724" lon="6.83959">
        <ele>170.1</ele>
        <time>2025-01-10T09:32:20.000Z</time>
      </trkpt>
      <trkpt lat="43.59719" lon="6.83962">
        <ele>170.6</ele>
        <time>2025-01-10T09:32:19.000Z</time>
      </trkpt>
      <trkpt lat="43.59715" lon="6.83965">
        <ele>171.1</ele>
        <time>2025-01-10T09:32:18.000Z</time>
      </trkpt>
      <trkpt lat="43.5971" lon="6.83968">
        <ele>171.8</ele>
        <time>2025-01-10T09:32:17.000Z</time>
      </trkpt>
      <trkpt lat="43.59705" lon="6.83972">
        <ele>172.6</ele>
        <time>2025-01-10T09:32:16.000Z</time>
      </trkpt>
      <trkpt lat="43.59701" lon="6.83975">
        <ele>173.2</ele>
        <time>2025-01-10T09:32:15.000Z</time>
      </trkpt>
      <trkpt lat="43.59698" lon="6.83977">
        <ele>173.6</ele>
        <time>2025-01-10T09:32:14.000Z</time>
      </trkpt>
      <trkpt lat="43.59695" lon="6.8398">
        <ele>174.1</ele>
        <time>2025-01-10T09:32:13.000Z</time>
      </trkpt>
      <trkpt lat="43.59692" lon="6.83982">
        <ele>174.7</ele>
        <time>2025-01-10T09:32:12.000Z</time>
      </trkpt>
      <trkpt lat="43.59689" lon="6.83985">
        <ele>175.4</ele>
        <time>2025-01-10T09:32:11.000Z</time>
      </trkpt>
      <trkpt lat="43.59686" lon="6.83987">
        <ele>175.9</ele>
        <time>2025-01-10T09:32:10.000Z</time>
      </trkpt>
      <trkpt lat="43.59683" lon="6.8399">
        <ele>176.5</ele>
        <time>2025-01-10T09:32:09.000Z</time>
      </trkpt>
      <trkpt lat="43.5968" lon="6.83993">
        <ele>177.2</ele>
        <time>2025-01-10T09:32:08.000Z</time>
      </trkpt>
      <trkpt lat="43.59676" lon="6.83996">
        <ele>178</ele>
        <time>2025-01-10T09:32:07.000Z</time>
      </trkpt>
      <trkpt lat="43.59672" lon="6.83999">
        <ele>178.7</ele>
        <time>2025-01-10T09:32:06.000Z</time>
      </trkpt>
      <trkpt lat="43.59668" lon="6.84002">
        <ele>179.4</ele>
        <time>2025-01-10T09:32:05.000Z</time>
      </trkpt>
      <trkpt lat="43.59666" lon="6.84006">
        <ele>179.9</ele>
        <time>2025-01-10T09:32:04.000Z</time>
      </trkpt>
      <trkpt lat="43.59663" lon="6.84009">
        <ele>180.4</ele>
        <time>2025-01-10T09:32:03.000Z</time>
      </trkpt>
      <trkpt lat="43.59661" lon="6.84013">
        <ele>181</ele>
        <time>2025-01-10T09:32:02.000Z</time>
      </trkpt>
      <trkpt lat="43.59659" lon="6.84017">
        <ele>181.6</ele>
        <time>2025-01-10T09:32:01.000Z</time>
      </trkpt>
      <trkpt lat="43.59656" lon="6.84022">
        <ele>182.3</ele>
        <time>2025-01-10T09:32:00.000Z</time>
      </trkpt>
      <trkpt lat="43.59653" lon="6.84027">
        <ele>183.1</ele>
        <time>2025-01-10T09:31:59.000Z</time>
      </trkpt>
      <trkpt lat="43.5965" lon="6.84031">
        <ele>183.7</ele>
        <time>2025-01-10T09:31:58.000Z</time>
      </trkpt>
      <trkpt lat="43.59646" lon="6.84036">
        <ele>184.6</ele>
        <time>2025-01-10T09:31:57.000Z</time>
      </trkpt>
      <trkpt lat="43.59642" lon="6.8404">
        <ele>185.2</ele>
        <time>2025-01-10T09:31:56.000Z</time>
      </trkpt>
      <trkpt lat="43.59639" lon="6.84044">
        <ele>185.9</ele>
        <time>2025-01-10T09:31:55.000Z</time>
      </trkpt>
      <trkpt lat="43.59635" lon="6.84048">
        <ele>186.7</ele>
        <time>2025-01-10T09:31:54.000Z</time>
      </trkpt>
      <trkpt lat="43.59632" lon="6.84051">
        <ele>187.3</ele>
        <time>2025-01-10T09:31:53.000Z</time>
      </trkpt>
      <trkpt lat="43.59627" lon="6.84056">
        <ele>188.4</ele>
        <time>2025-01-10T09:31:52.000Z</time>
      </trkpt>
      <trkpt lat="43.59622" lon="6.84059">
        <ele>189.2</ele>
        <time>2025-01-10T09:31:51.000Z</time>
      </trkpt>
      <trkpt lat="43.59618" lon="6.84062">
        <ele>190</ele>
        <time>2025-01-10T09:31:50.000Z</time>
      </trkpt>
      <trkpt lat="43.59613" lon="6.84065">
        <ele>190.8</ele>
        <time>2025-01-10T09:31:49.000Z</time>
      </trkpt>
      <trkpt lat="43.59608" lon="6.84067">
        <ele>191.4</ele>
        <time>2025-01-10T09:31:48.000Z</time>
      </trkpt>
      <trkpt lat="43.59604" lon="6.8407">
        <ele>192</ele>
        <time>2025-01-10T09:31:47.000Z</time>
      </trkpt>
      <trkpt lat="43.596" lon="6.84072">
        <ele>192.5</ele>
        <time>2025-01-10T09:31:46.000Z</time>
      </trkpt>
      <trkpt lat="43.59596" lon="6.84073">
        <ele>192.9</ele>
        <time>2025-01-10T09:31:45.000Z</time>
      </trkpt>
      <trkpt lat="43.59592" lon="6.84075">
        <ele>193.3</ele>
        <time>2025-01-10T09:31:44.000Z</time>
      </trkpt>
      <trkpt lat="43.59588" lon="6.84076">
        <ele>193.6</ele>
        <time>2025-01-10T09:31:43.000Z</time>
      </trkpt>
      <trkpt lat="43.59585" lon="6.84077">
        <ele>194</ele>
        <time>2025-01-10T09:31:42.000Z</time>
      </trkpt>
      <trkpt lat="43.59581" lon="6.84079">
        <ele>194.4</ele>
        <time>2025-01-10T09:31:41.000Z</time>
      </trkpt>
      <trkpt lat="43.59577" lon="6.84081">
        <ele>194.9</ele>
        <time>2025-01-10T09:31:40.000Z</time>
      </trkpt>
      <trkpt lat="43.59572" lon="6.84082">
        <ele>195.5</ele>
        <time>2025-01-10T09:31:39.000Z</time>
      </trkpt>
      <trkpt lat="43.59567" lon="6.84084">
        <ele>196.2</ele>
        <time>2025-01-10T09:31:38.000Z</time>
      </trkpt>
      <trkpt lat="43.59562" lon="6.84085">
        <ele>197</ele>
        <time>2025-01-10T09:31:37.000Z</time>
      </trkpt>
      <trkpt lat="43.59557" lon="6.84086">
        <ele>197.6</ele>
        <time>2025-01-10T09:31:36.000Z</time>
      </trkpt>
      <trkpt lat="43.59553" lon="6.84086">
        <ele>198.1</ele>
        <time>2025-01-10T09:31:35.000Z</time>
      </trkpt>
      <trkpt lat="43.59549" lon="6.84088">
        <ele>198.6</ele>
        <time>2025-01-10T09:31:34.000Z</time>
      </trkpt>
      <trkpt lat="43.59546" lon="6.84089">
        <ele>199</ele>
        <time>2025-01-10T09:31:33.000Z</time>
      </trkpt>
      <trkpt lat="43.59542" lon="6.8409">
        <ele>199.5</ele>
        <time>2025-01-10T09:31:32.000Z</time>
      </trkpt>
      <trkpt lat="43.59539" lon="6.84092">
        <ele>200.1</ele>
        <time>2025-01-10T09:31:31.000Z</time>
      </trkpt>
      <trkpt lat="43.59536" lon="6.84095">
        <ele>200.6</ele>
        <time>2025-01-10T09:31:30.000Z</time>
      </trkpt>
      <trkpt lat="43.59533" lon="6.84098">
        <ele>201.1</ele>
        <time>2025-01-10T09:31:29.000Z</time>
      </trkpt>
      <trkpt lat="43.59531" lon="6.84102">
        <ele>201.7</ele>
        <time>2025-01-10T09:31:28.000Z</time>
      </trkpt>
      <trkpt lat="43.59529" lon="6.84107">
        <ele>202.3</ele>
        <time>2025-01-10T09:31:27.000Z</time>
      </trkpt>
      <trkpt lat="43.59527" lon="6.84111">
        <ele>202.9</ele>
        <time>2025-01-10T09:31:26.000Z</time>
      </trkpt>
      <trkpt lat="43.59523" lon="6.84115">
        <ele>203.7</ele>
        <time>2025-01-10T09:31:25.000Z</time>
      </trkpt>
      <trkpt lat="43.5952" lon="6.84119">
        <ele>204.4</ele>
        <time>2025-01-10T09:31:24.000Z</time>
      </trkpt>
      <trkpt lat="43.59515" lon="6.84123">
        <ele>205.3</ele>
        <time>2025-01-10T09:31:23.000Z</time>
      </trkpt>
      <trkpt lat="43.59511" lon="6.84127">
        <ele>206.1</ele>
        <time>2025-01-10T09:31:22.000Z</time>
      </trkpt>
      <trkpt lat="43.59506" lon="6.8413">
        <ele>206.8</ele>
        <time>2025-01-10T09:31:21.000Z</time>
      </trkpt>
      <trkpt lat="43.59502" lon="6.84131">
        <ele>207.5</ele>
        <time>2025-01-10T09:31:20.000Z</time>
      </trkpt>
      <trkpt lat="43.59497" lon="6.84132">
        <ele>208.1</ele>
        <time>2025-01-10T09:31:19.000Z</time>
      </trkpt>
      <trkpt lat="43.59492" lon="6.84133">
        <ele>208.6</ele>
        <time>2025-01-10T09:31:18.000Z</time>
      </trkpt>
      <trkpt lat="43.59488" lon="6.84133">
        <ele>209.1</ele>
        <time>2025-01-10T09:31:17.000Z</time>
      </trkpt>
      <trkpt lat="43.59481" lon="6.84135">
        <ele>209.8</ele>
        <time>2025-01-10T09:31:16.000Z</time>
      </trkpt>
      <trkpt lat="43.59475" lon="6.84137">
        <ele>210.4</ele>
        <time>2025-01-10T09:31:15.000Z</time>
      </trkpt>
      <trkpt lat="43.59469" lon="6.84139">
        <ele>211</ele>
        <time>2025-01-10T09:31:14.000Z</time>
      </trkpt>
      <trkpt lat="43.59465" lon="6.8414">
        <ele>211.4</ele>
        <time>2025-01-10T09:31:13.000Z</time>
      </trkpt>
      <trkpt lat="43.59458" lon="6.84142">
        <ele>212</ele>
        <time>2025-01-10T09:31:12.000Z</time>
      </trkpt>
      <trkpt lat="43.59453" lon="6.84144">
        <ele>212.5</ele>
        <time>2025-01-10T09:31:11.000Z</time>
      </trkpt>
      <trkpt lat="43.59447" lon="6.84146">
        <ele>213</ele>
        <time>2025-01-10T09:31:10.000Z</time>
      </trkpt>
      <trkpt lat="43.59441" lon="6.84148">
        <ele>213.5</ele>
        <time>2025-01-10T09:31:09.000Z</time>
      </trkpt>
      <trkpt lat="43.59436" lon="6.84151">
        <ele>214</ele>
        <time>2025-01-10T09:31:08.000Z</time>
      </trkpt>
      <trkpt lat="43.59432" lon="6.84153">
        <ele>214.4</ele>
        <time>2025-01-10T09:31:07.000Z</time>
      </trkpt>
      <trkpt lat="43.59427" lon="6.84156">
        <ele>214.8</ele>
        <time>2025-01-10T09:31:06.000Z</time>
      </trkpt>
      <trkpt lat="43.59423" lon="6.84158">
        <ele>215.2</ele>
        <time>2025-01-10T09:31:05.000Z</time>
      </trkpt>
      <trkpt lat="43.59419" lon="6.84159">
        <ele>215.7</ele>
        <time>2025-01-10T09:31:04.000Z</time>
      </trkpt>
      <trkpt lat="43.59415" lon="6.84161">
        <ele>216.1</ele>
        <time>2025-01-10T09:31:03.000Z</time>
      </trkpt>
      <trkpt lat="43.59412" lon="6.84162">
        <ele>216.5</ele>
        <time>2025-01-10T09:31:02.000Z</time>
      </trkpt>
      <trkpt lat="43.59408" lon="6.84164">
        <ele>217</ele>
        <time>2025-01-10T09:31:01.000Z</time>
      </trkpt>
      <trkpt lat="43.59404" lon="6.84166">
        <ele>217.4</ele>
        <time>2025-01-10T09:31:00.000Z</time>
      </trkpt>
      <trkpt lat="43.59401" lon="6.84168">
        <ele>217.8</ele>
        <time>2025-01-10T09:30:59.000Z</time>
      </trkpt>
      <trkpt lat="43.59397" lon="6.84169">
        <ele>218.1</ele>
        <time>2025-01-10T09:30:58.000Z</time>
      </trkpt>
      <trkpt lat="43.59393" lon="6.84171">
        <ele>218.4</ele>
        <time>2025-01-10T09:30:57.000Z</time>
      </trkpt>
      <trkpt lat="43.59389" lon="6.84173">
        <ele>218.7</ele>
        <time>2025-01-10T09:30:56.000Z</time>
      </trkpt>
      <trkpt lat="43.59384" lon="6.84175">
        <ele>218.8</ele>
        <time>2025-01-10T09:30:55.000Z</time>
      </trkpt>
      <trkpt lat="43.59381" lon="6.84177">
        <ele>218.9</ele>
        <time>2025-01-10T09:30:54.000Z</time>
      </trkpt>
      <trkpt lat="43.59377" lon="6.84178">
        <ele>218.9</ele>
        <time>2025-01-10T09:30:53.000Z</time>
      </trkpt>
      <trkpt lat="43.59375" lon="6.84179">
        <ele>218.9</ele>
        <time>2025-01-10T09:30:52.000Z</time>
      </trkpt>
      <trkpt lat="43.59373" lon="6.8418">
        <ele>218.9</ele>
        <time>2025-01-10T09:30:51.000Z</time>
      </trkpt>
      <trkpt lat="43.59372" lon="6.8418">
        <ele>218.8</ele>
        <time>2025-01-10T09:30:50.000Z</time>
      </trkpt>
      <trkpt lat="43.59371" lon="6.8418">
        <ele>218.8</ele>
        <time>2025-01-10T09:30:49.000Z</time>
      </trkpt>
      <trkpt lat="43.5937" lon="6.8418">
        <ele>218.8</ele>
        <time>2025-01-10T09:30:48.000Z</time>
      </trkpt>
      <trkpt lat="43.5937" lon="6.84179">
        <ele>218.8</ele>
        <time>2025-01-10T09:30:47.000Z</time>
      </trkpt>
      <trkpt lat="43.5937" lon="6.84179">
        <ele>218.8</ele>
        <time>2025-01-10T09:30:46.000Z</time>
      </trkpt>
      <trkpt lat="43.59369" lon="6.84179">
        <ele>218.8</ele>
        <time>2025-01-10T09:30:45.000Z</time>
      </trkpt>
      <trkpt lat="43.59367" lon="6.84179">
        <ele>218.8</ele>
        <time>2025-01-10T09:30:44.000Z</time>
      </trkpt>
      <trkpt lat="43.59365" lon="6.8418">
        <ele>218.8</ele>
        <time>2025-01-10T09:30:43.000Z</time>
      </trkpt>
      <trkpt lat="43.59363" lon="6.8418">
        <ele>218.8</ele>
        <time>2025-01-10T09:30:42.000Z</time>
      </trkpt>
      <trkpt lat="43.5936" lon="6.8418">
        <ele>218.7</ele>
        <time>2025-01-10T09:30:41.000Z</time>
      </trkpt>
      <trkpt lat="43.5936" lon="6.8418">
        <ele>218.7</ele>
        <time>2025-01-10T09:30:40.000Z</time>
      </trkpt>
      <trkpt lat="43.5936" lon="6.84179">
        <ele>218.7</ele>
        <time>2025-01-10T09:30:39.000Z</time>
      </trkpt>
      <trkpt lat="43.5936" lon="6.84179">
        <ele>218.7</ele>
        <time>2025-01-10T09:30:38.000Z</time>
      </trkpt>
      <trkpt lat="43.5936" lon="6.84179">
        <ele>218.7</ele>
        <time>2025-01-10T09:30:37.000Z</time>
      </trkpt>
      <trkpt lat="43.5936" lon="6.84179">
        <ele>218.7</ele>
        <time>2025-01-10T09:30:36.000Z</time>
      </trkpt>
      <trkpt lat="43.5936" lon="6.84179">
        <ele>218.7</ele>
        <time>2025-01-10T09:30:35.000Z</time>
      </trkpt>
      <trkpt lat="43.5936" lon="6.84179">
        <ele>218.7</ele>
        <time>2025-01-10T09:30:34.000Z</time>
      </trkpt>
      <trkpt lat="43.5936" lon="6.84179">
        <ele>218.7</ele>
        <time>2025-01-10T09:30:33.000Z</time>
      </trkpt>
      <trkpt lat="43.5936" lon="6.84179">
        <ele>218.7</ele>
        <time>2025-01-10T09:30:32.000Z</time>
      </trkpt>
      <trkpt lat="43.5936" lon="6.84179">
        <ele>218.7</ele>
        <time>2025-01-10T09:30:31.000Z</time>
      </trkpt>
      <trkpt lat="43.5936" lon="6.84179">
        <ele>218.7</ele>
        <time>2025-01-10T09:30:30.000Z</time>
      </trkpt>
      <trkpt lat="43.5936" lon="6.84179">
        <ele>218.7</ele>
        <time>2025-01-10T09:30:29.000Z</time>
      </trkpt>
      <trkpt lat="43.5936" lon="6.84179">
        <ele>218.7</ele>
        <time>2025-01-10T09:30:28.000Z</time>
      </trkpt>
      <trkpt lat="43.5936" lon="6.84179">
        <ele>218.7</ele>
        <time>2025-01-10T09:30:27.000Z</time>
      </trkpt>
      <trkpt lat="43.5936" lon="6.84179">
        <ele>218.7</ele>
        <time>2025-01-10T09:30:26.000Z</time>
      </trkpt>
      <trkpt lat="43.5936" lon="6.84179">
        <ele>218.7</ele>
        <time>2025-01-10T09:30:25.000Z</time>
      </trkpt>
      <trkpt lat="43.5936" lon="6.84179">
        <ele>218.7</ele>
        <time>2025-01-10T09:30:24.000Z</time>
      </trkpt>
      <trkpt lat="43.5936" lon="6.84179">
        <ele>218.7</ele>
        <time>2025-01-10T09:30:23.000Z</time>
      </trkpt>
      <trkpt lat="43.5936" lon="6.84179">
        <ele>218.7</ele>
        <time>2025-01-10T09:30:22.000Z</time>
      </trkpt>
      <trkpt lat="43.5936" lon="6.84179">
        <ele>218.7</ele>
        <time>2025-01-10T09:30:21.000Z</time>
      </trkpt>
      <trkpt lat="43.5936" lon="6.84179">
        <ele>218.7</ele>
        <time>2025-01-10T09:30:20.000Z</time>
      </trkpt>
      <trkpt lat="43.5936" lon="6.84179">
        <ele>218.7</ele>
        <time>2025-01-10T09:30:19.000Z</time>
      </trkpt>
      <trkpt lat="43.5936" lon="6.84179">
        <ele>218.7</ele>
        <time>2025-01-10T09:30:18.000Z</time>
      </trkpt>
      <trkpt lat="43.5936" lon="6.8418">
        <ele>218.7</ele>
        <time>2025-01-10T09:30:17.000Z</time>
      </trkpt>
      <trkpt lat="43.5936" lon="6.8418">
        <ele>218.7</ele>
        <time>2025-01-10T09:30:16.000Z</time>
      </trkpt>
      <trkpt lat="43.5936" lon="6.8418">
        <ele>218.7</ele>
        <time>2025-01-10T09:30:15.000Z</time>
      </trkpt>
      <trkpt lat="43.5936" lon="6.8418">
        <ele>218.7</ele>
        <time>2025-01-10T09:30:14.000Z</time>
      </trkpt>
      <trkpt lat="43.5936" lon="6.8418">
        <ele>218.7</ele>
        <time>2025-01-10T09:30:13.000Z</time>
      </trkpt>
      <trkpt lat="43.5936" lon="6.8418">
        <ele>218.7</ele>
        <time>2025-01-10T09:30:12.000Z</time>
      </trkpt>
      <trkpt lat="43.5936" lon="6.8418">
        <ele>218.7</ele>
        <time>2025-01-10T09:30:11.000Z</time>
      </trkpt>
      <trkpt lat="43.5936" lon="6.8418">
        <ele>218.7</ele>
        <time>2025-01-10T09:30:10.000Z</time>
      </trkpt>
      <trkpt lat="43.5936" lon="6.8418">
        <ele>218.7</ele>
        <time>2025-01-10T09:30:09.000Z</time>
      </trkpt>
      <trkpt lat="43.5936" lon="6.8418">
        <ele>218.7</ele>
        <time>2025-01-10T09:30:08.000Z</time>
      </trkpt>
      <trkpt lat="43.59361" lon="6.8418">
        <ele>218.7</ele>
        <time>2025-01-10T09:30:07.000Z</time>
      </trkpt>
      <trkpt lat="43.59361" lon="6.84179">
        <ele>218.7</ele>
        <time>2025-01-10T09:30:06.000Z</time>
      </trkpt>
      <trkpt lat="43.59361" lon="6.84179">
        <ele>218.7</ele>
        <time>2025-01-10T09:30:05.000Z</time>
      </trkpt>
      <trkpt lat="43.59361" lon="6.84179">
        <ele>218.7</ele>
        <time>2025-01-10T09:30:04.000Z</time>
      </trkpt>
      <trkpt lat="43.59361" lon="6.84179">
        <ele>218.7</ele>
        <time>2025-01-10T09:30:03.000Z</time>
      </trkpt>
      <trkpt lat="43.59361" lon="6.84179">
        <ele>218.7</ele>
        <time>2025-01-10T09:30:02.000Z</time>
      </trkpt>
      <trkpt lat="43.59361" lon="6.84179">
        <ele>218.7</ele>
        <time>2025-01-10T09:30:01.000Z</time>
      </trkpt>
      <trkpt lat="43.59361" lon="6.84179">
        <ele>218.7</ele>
        <time>2025-01-10T09:30:00.000Z</time>
      </trkpt>
      <trkpt lat="43.59361" lon="6.84179">
        <ele>218.7</ele>
        <time>2025-01-10T09:29:59.000Z</time>
      </trkpt>
      <trkpt lat="43.59361" lon="6.84179">
        <ele>218.7</ele>
        <time>2025-01-10T09:29:58.000Z</time>
      </trkpt>
      <trkpt lat="43.59361" lon="6.84179">
        <ele>218.7</ele>
        <time>2025-01-10T09:29:57.000Z</time>
      </trkpt>
      <trkpt lat="43.59361" lon="6.84179">
        <ele>218.7</ele>
        <time>2025-01-10T09:29:56.000Z</time>
      </trkpt>
      <trkpt lat="43.59361" lon="6.84179">
        <ele>218.7</ele>
        <time>2025-01-10T09:29:55.000Z</time>
      </trkpt>
      <trkpt lat="43.5936" lon="6.84179">
        <ele>218.7</ele>
        <time>2025-01-10T09:29:54.000Z</time>
      </trkpt>
      <trkpt lat="43.5936" lon="6.84179">
        <ele>218.7</ele>
        <time>2025-01-10T09:29:53.000Z</time>
      </trkpt>
      <trkpt lat="43.59359" lon="6.84179">
        <ele>218.7</ele>
        <time>2025-01-10T09:29:52.000Z</time>
      </trkpt>
      <trkpt lat="43.59359" lon="6.8418">
        <ele>218.7</ele>
        <time>2025-01-10T09:29:51.000Z</time>
      </trkpt>
      <trkpt lat="43.5936" lon="6.84181">
        <ele>218.7</ele>
        <time>2025-01-10T09:29:50.000Z</time>
      </trkpt>
      <trkpt lat="43.5936" lon="6.84181">
        <ele>218.7</ele>
        <time>2025-01-10T09:29:49.000Z</time>
      </trkpt>
      <trkpt lat="43.5936" lon="6.84181">
        <ele>218.7</ele>
        <time>2025-01-10T09:29:48.000Z</time>
      </trkpt>
      <trkpt lat="43.5936" lon="6.84181">
        <ele>218.7</ele>
        <time>2025-01-10T09:29:47.000Z</time>
      </trkpt>
      <trkpt lat="43.5936" lon="6.84181">
        <ele>218.7</ele>
        <time>2025-01-10T09:29:46.000Z</time>
      </trkpt>
      <trkpt lat="43.59361" lon="6.84182">
        <ele>218.7</ele>
        <time>2025-01-10T09:29:45.000Z</time>
      </trkpt>
      <trkpt lat="43.59361" lon="6.84183">
        <ele>218.7</ele>
        <time>2025-01-10T09:29:44.000Z</time>
      </trkpt>
      <trkpt lat="43.59361" lon="6.84183">
        <ele>218.7</ele>
        <time>2025-01-10T09:29:43.000Z</time>
      </trkpt>
      <trkpt lat="43.59361" lon="6.84184">
        <ele>218.7</ele>
        <time>2025-01-10T09:29:42.000Z</time>
      </trkpt>
      <trkpt lat="43.5936" lon="6.84185">
        <ele>218.7</ele>
        <time>2025-01-10T09:29:41.000Z</time>
      </trkpt>
      <trkpt lat="43.59359" lon="6.84186">
        <ele>218.8</ele>
        <time>2025-01-10T09:29:40.000Z</time>
      </trkpt>
      <trkpt lat="43.59357" lon="6.84187">
        <ele>218.8</ele>
        <time>2025-01-10T09:29:39.000Z</time>
      </trkpt>
      <trkpt lat="43.59353" lon="6.84187">
        <ele>218.8</ele>
        <time>2025-01-10T09:29:38.000Z</time>
      </trkpt>
      <trkpt lat="43.59349" lon="6.84188">
        <ele>218.9</ele>
        <time>2025-01-10T09:29:37.000Z</time>
      </trkpt>
      <trkpt lat="43.59344" lon="6.84188">
        <ele>219.1</ele>
        <time>2025-01-10T09:29:36.000Z</time>
      </trkpt>
      <trkpt lat="43.59339" lon="6.84189">
        <ele>219.3</ele>
        <time>2025-01-10T09:29:35.000Z</time>
      </trkpt>
      <trkpt lat="43.59333" lon="6.84189">
        <ele>219.5</ele>
        <time>2025-01-10T09:29:34.000Z</time>
      </trkpt>
      <trkpt lat="43.59328" lon="6.84189">
        <ele>219.8</ele>
        <time>2025-01-10T09:29:33.000Z</time>
      </trkpt>
      <trkpt lat="43.59324" lon="6.84189">
        <ele>220.1</ele>
        <time>2025-01-10T09:29:32.000Z</time>
      </trkpt>
      <trkpt lat="43.59319" lon="6.84189">
        <ele>220.4</ele>
        <time>2025-01-10T09:29:31.000Z</time>
      </trkpt>
      <trkpt lat="43.59315" lon="6.84189">
        <ele>220.7</ele>
        <time>2025-01-10T09:29:30.000Z</time>
      </trkpt>
      <trkpt lat="43.59312" lon="6.84188">
        <ele>220.9</ele>
        <time>2025-01-10T09:29:29.000Z</time>
      </trkpt>
      <trkpt lat="43.59308" lon="6.84187">
        <ele>221.1</ele>
        <time>2025-01-10T09:29:28.000Z</time>
      </trkpt>
      <trkpt lat="43.59305" lon="6.84187">
        <ele>221.3</ele>
        <time>2025-01-10T09:29:27.000Z</time>
      </trkpt>
      <trkpt lat="43.59303" lon="6.84185">
        <ele>221.5</ele>
        <time>2025-01-10T09:29:26.000Z</time>
      </trkpt>
      <trkpt lat="43.59302" lon="6.84185">
        <ele>221.5</ele>
        <time>2025-01-10T09:29:25.000Z</time>
      </trkpt>
      <trkpt lat="43.59302" lon="6.84185">
        <ele>221.5</ele>
        <time>2025-01-10T09:29:24.000Z</time>
      </trkpt>
      <trkpt lat="43.59302" lon="6.84185">
        <ele>221.5</ele>
        <time>2025-01-10T09:29:23.000Z</time>
      </trkpt>
      <trkpt lat="43.59302" lon="6.84185">
        <ele>221.5</ele>
        <time>2025-01-10T09:29:22.000Z</time>
      </trkpt>
      <trkpt lat="43.59302" lon="6.84185">
        <ele>221.5</ele>
        <time>2025-01-10T09:29:21.000Z</time>
      </trkpt>
      <trkpt lat="43.59302" lon="6.84185">
        <ele>221.5</ele>
        <time>2025-01-10T09:29:20.000Z</time>
      </trkpt>
      <trkpt lat="43.59302" lon="6.84185">
        <ele>221.5</ele>
        <time>2025-01-10T09:29:19.000Z</time>
      </trkpt>
      <trkpt lat="43.59302" lon="6.84185">
        <ele>221.5</ele>
        <time>2025-01-10T09:29:18.000Z</time>
      </trkpt>
      <trkpt lat="43.59302" lon="6.84186">
        <ele>221.5</ele>
        <time>2025-01-10T09:29:17.000Z</time>
      </trkpt>
      <trkpt lat="43.59302" lon="6.84186">
        <ele>221.5</ele>
        <time>2025-01-10T09:29:16.000Z</time>
      </trkpt>
      <trkpt lat="43.59301" lon="6.84186">
        <ele>221.6</ele>
        <time>2025-01-10T09:29:15.000Z</time>
      </trkpt>
      <trkpt lat="43.59301" lon="6.84186">
        <ele>221.6</ele>
        <time>2025-01-10T09:29:14.000Z</time>
      </trkpt>
      <trkpt lat="43.59302" lon="6.84186">
        <ele>221.6</ele>
        <time>2025-01-10T09:29:13.000Z</time>
      </trkpt>
      <trkpt lat="43.59302" lon="6.84186">
        <ele>221.6</ele>
        <time>2025-01-10T09:29:12.000Z</time>
      </trkpt>
      <trkpt lat="43.59301" lon="6.84186">
        <ele>221.6</ele>
        <time>2025-01-10T09:29:11.000Z</time>
      </trkpt>
      <trkpt lat="43.59301" lon="6.84186">
        <ele>221.6</ele>
        <time>2025-01-10T09:29:10.000Z</time>
      </trkpt>
      <trkpt lat="43.59302" lon="6.84186">
        <ele>221.6</ele>
        <time>2025-01-10T09:29:09.000Z</time>
      </trkpt>
      <trkpt lat="43.59302" lon="6.84184">
        <ele>221.7</ele>
        <time>2025-01-10T09:29:08.000Z</time>
      </trkpt>
      <trkpt lat="43.59304" lon="6.84184">
        <ele>221.7</ele>
        <time>2025-01-10T09:29:07.000Z</time>
      </trkpt>
      <trkpt lat="43.59304" lon="6.84185">
        <ele>221.8</ele>
        <time>2025-01-10T09:29:06.000Z</time>
      </trkpt>
      <trkpt lat="43.59305" lon="6.84185">
        <ele>221.8</ele>
        <time>2025-01-10T09:29:05.000Z</time>
      </trkpt>
      <trkpt lat="43.59305" lon="6.84185">
        <ele>221.8</ele>
        <time>2025-01-10T09:29:04.000Z</time>
      </trkpt>
      <trkpt lat="43.59305" lon="6.84185">
        <ele>221.8</ele>
        <time>2025-01-10T09:29:03.000Z</time>
      </trkpt>
      <trkpt lat="43.59306" lon="6.84185">
        <ele>221.8</ele>
        <time>2025-01-10T09:29:02.000Z</time>
      </trkpt>
      <trkpt lat="43.59306" lon="6.84186">
        <ele>221.8</ele>
        <time>2025-01-10T09:29:01.000Z</time>
      </trkpt>
      <trkpt lat="43.59307" lon="6.84186">
        <ele>221.8</ele>
        <time>2025-01-10T09:29:00.000Z</time>
      </trkpt>
      <trkpt lat="43.59307" lon="6.84188">
        <ele>221.9</ele>
        <time>2025-01-10T09:28:59.000Z</time>
      </trkpt>
      <trkpt lat="43.59307" lon="6.84187">
        <ele>221.9</ele>
        <time>2025-01-10T09:28:58.000Z</time>
      </trkpt>
      <trkpt lat="43.59307" lon="6.84187">
        <ele>221.9</ele>
        <time>2025-01-10T09:28:57.000Z</time>
      </trkpt>
      <trkpt lat="43.59307" lon="6.84187">
        <ele>221.9</ele>
        <time>2025-01-10T09:28:56.000Z</time>
      </trkpt>
      <trkpt lat="43.59308" lon="6.84187">
        <ele>221.9</ele>
        <time>2025-01-10T09:28:55.000Z</time>
      </trkpt>
      <trkpt lat="43.59308" lon="6.84186">
        <ele>221.9</ele>
        <time>2025-01-10T09:28:54.000Z</time>
      </trkpt>
      <trkpt lat="43.59309" lon="6.84186">
        <ele>221.9</ele>
        <time>2025-01-10T09:28:53.000Z</time>
      </trkpt>
      <trkpt lat="43.59309" lon="6.84186">
        <ele>221.9</ele>
        <time>2025-01-10T09:28:52.000Z</time>
      </trkpt>
      <trkpt lat="43.59309" lon="6.84186">
        <ele>221.9</ele>
        <time>2025-01-10T09:28:51.000Z</time>
      </trkpt>
      <trkpt lat="43.59308" lon="6.84184">
        <ele>221.9</ele>
        <time>2025-01-10T09:28:50.000Z</time>
      </trkpt>
      <trkpt lat="43.59306" lon="6.84182">
        <ele>221.9</ele>
        <time>2025-01-10T09:28:49.000Z</time>
      </trkpt>
      <trkpt lat="43.59304" lon="6.8418">
        <ele>221.9</ele>
        <time>2025-01-10T09:28:48.000Z</time>
      </trkpt>
      <trkpt lat="43.59301" lon="6.84177">
        <ele>221.9</ele>
        <time>2025-01-10T09:28:47.000Z</time>
      </trkpt>
      <trkpt lat="43.59298" lon="6.84174">
        <ele>221.8</ele>
        <time>2025-01-10T09:28:46.000Z</time>
      </trkpt>
      <trkpt lat="43.59295" lon="6.84171">
        <ele>221.6</ele>
        <time>2025-01-10T09:28:45.000Z</time>
      </trkpt>
      <trkpt lat="43.59292" lon="6.84167">
        <ele>221.5</ele>
        <time>2025-01-10T09:28:44.000Z</time>
      </trkpt>
      <trkpt lat="43.59289" lon="6.84163">
        <ele>221.2</ele>
        <time>2025-01-10T09:28:43.000Z</time>
      </trkpt>
      <trkpt lat="43.59287" lon="6.84159">
        <ele>221</ele>
        <time>2025-01-10T09:28:42.000Z</time>
      </trkpt>
      <trkpt lat="43.59283" lon="6.84155">
        <ele>220.7</ele>
        <time>2025-01-10T09:28:41.000Z</time>
      </trkpt>
      <trkpt lat="43.59279" lon="6.8415">
        <ele>220.3</ele>
        <time>2025-01-10T09:28:40.000Z</time>
      </trkpt>
      <trkpt lat="43.59274" lon="6.84146">
        <ele>220</ele>
        <time>2025-01-10T09:28:39.000Z</time>
      </trkpt>
      <trkpt lat="43.5927" lon="6.84142">
        <ele>219.6</ele>
        <time>2025-01-10T09:28:38.000Z</time>
      </trkpt>
      <trkpt lat="43.59266" lon="6.84137">
        <ele>219.2</ele>
        <time>2025-01-10T09:28:37.000Z</time>
      </trkpt>
      <trkpt lat="43.59261" lon="6.84134">
        <ele>218.9</ele>
        <time>2025-01-10T09:28:36.000Z</time>
      </trkpt>
      <trkpt lat="43.59254" lon="6.84129">
        <ele>218.5</ele>
        <time>2025-01-10T09:28:35.000Z</time>
      </trkpt>
      <trkpt lat="43.59249" lon="6.84125">
        <ele>218.2</ele>
        <time>2025-01-10T09:28:34.000Z</time>
      </trkpt>
      <trkpt lat="43.59244" lon="6.84123">
        <ele>218</ele>
        <time>2025-01-10T09:28:33.000Z</time>
      </trkpt>
      <trkpt lat="43.59239" lon="6.8412">
        <ele>217.9</ele>
        <time>2025-01-10T09:28:32.000Z</time>
      </trkpt>
      <trkpt lat="43.59232" lon="6.84118">
        <ele>217.8</ele>
        <time>2025-01-10T09:28:31.000Z</time>
      </trkpt>
      <trkpt lat="43.59226" lon="6.84117">
        <ele>217.8</ele>
        <time>2025-01-10T09:28:30.000Z</time>
      </trkpt>
      <trkpt lat="43.59221" lon="6.84116">
        <ele>217.9</ele>
        <time>2025-01-10T09:28:29.000Z</time>
      </trkpt>
      <trkpt lat="43.59215" lon="6.84116">
        <ele>218</ele>
        <time>2025-01-10T09:28:28.000Z</time>
      </trkpt>
      <trkpt lat="43.5921" lon="6.84115">
        <ele>218.1</ele>
        <time>2025-01-10T09:28:27.000Z</time>
      </trkpt>
      <trkpt lat="43.59205" lon="6.84113">
        <ele>218.3</ele>
        <time>2025-01-10T09:28:26.000Z</time>
      </trkpt>
      <trkpt lat="43.592" lon="6.84112">
        <ele>218.5</ele>
        <time>2025-01-10T09:28:25.000Z</time>
      </trkpt>
      <trkpt lat="43.59195" lon="6.8411">
        <ele>218.7</ele>
        <time>2025-01-10T09:28:24.000Z</time>
      </trkpt>
      <trkpt lat="43.59191" lon="6.84107">
        <ele>218.9</ele>
        <time>2025-01-10T09:28:23.000Z</time>
      </trkpt>
      <trkpt lat="43.59187" lon="6.84105">
        <ele>219.1</ele>
        <time>2025-01-10T09:28:22.000Z</time>
      </trkpt>
      <trkpt lat="43.59182" lon="6.84102">
        <ele>219.4</ele>
        <time>2025-01-10T09:28:21.000Z</time>
      </trkpt>
      <trkpt lat="43.59178" lon="6.84099">
        <ele>219.5</ele>
        <time>2025-01-10T09:28:20.000Z</time>
      </trkpt>
      <trkpt lat="43.59174" lon="6.84096">
        <ele>219.6</ele>
        <time>2025-01-10T09:28:19.000Z</time>
      </trkpt>
      <trkpt lat="43.59168" lon="6.84093">
        <ele>219.7</ele>
        <time>2025-01-10T09:28:18.000Z</time>
      </trkpt>
      <trkpt lat="43.59164" lon="6.8409">
        <ele>219.7</ele>
        <time>2025-01-10T09:28:17.000Z</time>
      </trkpt>
      <trkpt lat="43.59159" lon="6.84088">
        <ele>219.7</ele>
        <time>2025-01-10T09:28:16.000Z</time>
      </trkpt>
      <trkpt lat="43.59154" lon="6.84085">
        <ele>219.7</ele>
        <time>2025-01-10T09:28:15.000Z</time>
      </trkpt>
      <trkpt lat="43.59149" lon="6.84082">
        <ele>219.7</ele>
        <time>2025-01-10T09:28:14.000Z</time>
      </trkpt>
      <trkpt lat="43.59144" lon="6.84078">
        <ele>219.6</ele>
        <time>2025-01-10T09:28:13.000Z</time>
      </trkpt>
      <trkpt lat="43.5914" lon="6.84075">
        <ele>219.6</ele>
        <time>2025-01-10T09:28:12.000Z</time>
      </trkpt>
      <trkpt lat="43.59136" lon="6.84072">
        <ele>219.6</ele>
        <time>2025-01-10T09:28:11.000Z</time>
      </trkpt>
      <trkpt lat="43.59131" lon="6.8407">
        <ele>219.6</ele>
        <time>2025-01-10T09:28:10.000Z</time>
      </trkpt>
      <trkpt lat="43.59126" lon="6.84068">
        <ele>219.6</ele>
        <time>2025-01-10T09:28:09.000Z</time>
      </trkpt>
      <trkpt lat="43.59121" lon="6.84068">
        <ele>219.6</ele>
        <time>2025-01-10T09:28:08.000Z</time>
      </trkpt>
      <trkpt lat="43.59116" lon="6.84069">
        <ele>219.6</ele>
        <time>2025-01-10T09:28:07.000Z</time>
      </trkpt>
      <trkpt lat="43.59114" lon="6.84068">
        <ele>219.6</ele>
        <time>2025-01-10T09:28:06.000Z</time>
      </trkpt>
      <trkpt lat="43.5911" lon="6.84067">
        <ele>219.6</ele>
        <time>2025-01-10T09:28:05.000Z</time>
      </trkpt>
      <trkpt lat="43.59107" lon="6.84065">
        <ele>219.7</ele>
        <time>2025-01-10T09:28:04.000Z</time>
      </trkpt>
      <trkpt lat="43.59106" lon="6.84063">
        <ele>219.7</ele>
        <time>2025-01-10T09:28:03.000Z</time>
      </trkpt>
      <trkpt lat="43.59103" lon="6.8406">
        <ele>219.8</ele>
        <time>2025-01-10T09:28:02.000Z</time>
      </trkpt>
      <trkpt lat="43.591" lon="6.84057">
        <ele>219.9</ele>
        <time>2025-01-10T09:28:01.000Z</time>
      </trkpt>
      <trkpt lat="43.59097" lon="6.84054">
        <ele>220.1</ele>
        <time>2025-01-10T09:28:00.000Z</time>
      </trkpt>
      <trkpt lat="43.59095" lon="6.84051">
        <ele>220.2</ele>
        <time>2025-01-10T09:27:59.000Z</time>
      </trkpt>
      <trkpt lat="43.59093" lon="6.84048">
        <ele>220.3</ele>
        <time>2025-01-10T09:27:58.000Z</time>
      </trkpt>
      <trkpt lat="43.5909" lon="6.84045">
        <ele>220.5</ele>
        <time>2025-01-10T09:27:57.000Z</time>
      </trkpt>
      <trkpt lat="43.59088" lon="6.84041">
        <ele>220.6</ele>
        <time>2025-01-10T09:27:56.000Z</time>
      </trkpt>
      <trkpt lat="43.59086" lon="6.84036">
        <ele>220.8</ele>
        <time>2025-01-10T09:27:55.000Z</time>
      </trkpt>
      <trkpt lat="43.59085" lon="6.84031">
        <ele>221</ele>
        <time>2025-01-10T09:27:54.000Z</time>
      </trkpt>
      <trkpt lat="43.59086" lon="6.84024">
        <ele>221.2</ele>
        <time>2025-01-10T09:27:53.000Z</time>
      </trkpt>
      <trkpt lat="43.59086" lon="6.84021">
        <ele>221.3</ele>
        <time>2025-01-10T09:27:52.000Z</time>
      </trkpt>
      <trkpt lat="43.59085" lon="6.84017">
        <ele>221.4</ele>
        <time>2025-01-10T09:27:51.000Z</time>
      </trkpt>
      <trkpt lat="43.59085" lon="6.84014">
        <ele>221.4</ele>
        <time>2025-01-10T09:27:50.000Z</time>
      </trkpt>
      <trkpt lat="43.59085" lon="6.84011">
        <ele>221.5</ele>
        <time>2025-01-10T09:27:49.000Z</time>
      </trkpt>
      <trkpt lat="43.59085" lon="6.84007">
        <ele>221.5</ele>
        <time>2025-01-10T09:27:48.000Z</time>
      </trkpt>
      <trkpt lat="43.59085" lon="6.84002">
        <ele>221.5</ele>
        <time>2025-01-10T09:27:47.000Z</time>
      </trkpt>
      <trkpt lat="43.59085" lon="6.83999">
        <ele>221.6</ele>
        <time>2025-01-10T09:27:46.000Z</time>
      </trkpt>
      <trkpt lat="43.59086" lon="6.83995">
        <ele>221.6</ele>
        <time>2025-01-10T09:27:45.000Z</time>
      </trkpt>
      <trkpt lat="43.59086" lon="6.83992">
        <ele>221.6</ele>
        <time>2025-01-10T09:27:44.000Z</time>
      </trkpt>
      <trkpt lat="43.59087" lon="6.83988">
        <ele>221.6</ele>
        <time>2025-01-10T09:27:43.000Z</time>
      </trkpt>
      <trkpt lat="43.59088" lon="6.83984">
        <ele>221.5</ele>
        <time>2025-01-10T09:27:42.000Z</time>
      </trkpt>
      <trkpt lat="43.59088" lon="6.8398">
        <ele>221.5</ele>
        <time>2025-01-10T09:27:41.000Z</time>
      </trkpt>
      <trkpt lat="43.5909" lon="6.83976">
        <ele>221.5</ele>
        <time>2025-01-10T09:27:40.000Z</time>
      </trkpt>
      <trkpt lat="43.59091" lon="6.83972">
        <ele>221.4</ele>
        <time>2025-01-10T09:27:39.000Z</time>
      </trkpt>
      <trkpt lat="43.59092" lon="6.83968">
        <ele>221.4</ele>
        <time>2025-01-10T09:27:38.000Z</time>
      </trkpt>
      <trkpt lat="43.59093" lon="6.83963">
        <ele>221.3</ele>
        <time>2025-01-10T09:27:37.000Z</time>
      </trkpt>
      <trkpt lat="43.59094" lon="6.83958">
        <ele>221.2</ele>
        <time>2025-01-10T09:27:36.000Z</time>
      </trkpt>
      <trkpt lat="43.59095" lon="6.83954">
        <ele>221</ele>
        <time>2025-01-10T09:27:35.000Z</time>
      </trkpt>
      <trkpt lat="43.59096" lon="6.83949">
        <ele>220.9</ele>
        <time>2025-01-10T09:27:34.000Z</time>
      </trkpt>
      <trkpt lat="43.59096" lon="6.83944">
        <ele>220.7</ele>
        <time>2025-01-10T09:27:33.000Z</time>
      </trkpt>
      <trkpt lat="43.59096" lon="6.83939">
        <ele>220.5</ele>
        <time>2025-01-10T09:27:32.000Z</time>
      </trkpt>
      <trkpt lat="43.59097" lon="6.83933">
        <ele>220.2</ele>
        <time>2025-01-10T09:27:31.000Z</time>
      </trkpt>
      <trkpt lat="43.59097" lon="6.83928">
        <ele>219.9</ele>
        <time>2025-01-10T09:27:30.000Z</time>
      </trkpt>
      <trkpt lat="43.59097" lon="6.83922">
        <ele>219.6</ele>
        <time>2025-01-10T09:27:29.000Z</time>
      </trkpt>
      <trkpt lat="43.59096" lon="6.83916">
        <ele>219.2</ele>
        <time>2025-01-10T09:27:28.000Z</time>
      </trkpt>
      <trkpt lat="43.59096" lon="6.83911">
        <ele>218.9</ele>
        <time>2025-01-10T09:27:27.000Z</time>
      </trkpt>
      <trkpt lat="43.59096" lon="6.83906">
        <ele>218.6</ele>
        <time>2025-01-10T09:27:26.000Z</time>
      </trkpt>
      <trkpt lat="43.59096" lon="6.839">
        <ele>218.2</ele>
        <time>2025-01-10T09:27:25.000Z</time>
      </trkpt>
      <trkpt lat="43.59096" lon="6.83895">
        <ele>217.9</ele>
        <time>2025-01-10T09:27:24.000Z</time>
      </trkpt>
      <trkpt lat="43.59096" lon="6.83889">
        <ele>217.5</ele>
        <time>2025-01-10T09:27:23.000Z</time>
      </trkpt>
      <trkpt lat="43.59096" lon="6.83883">
        <ele>217.2</ele>
        <time>2025-01-10T09:27:22.000Z</time>
      </trkpt>
      <trkpt lat="43.59096" lon="6.83878">
        <ele>217</ele>
        <time>2025-01-10T09:27:21.000Z</time>
      </trkpt>
      <trkpt lat="43.59096" lon="6.83872">
        <ele>216.7</ele>
        <time>2025-01-10T09:27:20.000Z</time>
      </trkpt>
      <trkpt lat="43.59096" lon="6.83867">
        <ele>216.5</ele>
        <time>2025-01-10T09:27:19.000Z</time>
      </trkpt>
      <trkpt lat="43.59094" lon="6.83861">
        <ele>216.3</ele>
        <time>2025-01-10T09:27:18.000Z</time>
      </trkpt>
      <trkpt lat="43.59092" lon="6.83856">
        <ele>216.2</ele>
        <time>2025-01-10T09:27:17.000Z</time>
      </trkpt>
      <trkpt lat="43.5909" lon="6.83852">
        <ele>216</ele>
        <time>2025-01-10T09:27:16.000Z</time>
      </trkpt>
      <trkpt lat="43.59088" lon="6.83847">
        <ele>215.9</ele>
        <time>2025-01-10T09:27:15.000Z</time>
      </trkpt>
      <trkpt lat="43.59087" lon="6.83842">
        <ele>215.8</ele>
        <time>2025-01-10T09:27:14.000Z</time>
      </trkpt>
      <trkpt lat="43.59086" lon="6.83838">
        <ele>215.7</ele>
        <time>2025-01-10T09:27:13.000Z</time>
      </trkpt>
      <trkpt lat="43.59086" lon="6.83833">
        <ele>215.6</ele>
        <time>2025-01-10T09:27:12.000Z</time>
      </trkpt>
      <trkpt lat="43.59086" lon="6.83828">
        <ele>215.5</ele>
        <time>2025-01-10T09:27:11.000Z</time>
      </trkpt>
      <trkpt lat="43.59087" lon="6.83824">
        <ele>215.4</ele>
        <time>2025-01-10T09:27:10.000Z</time>
      </trkpt>
      <trkpt lat="43.59088" lon="6.8382">
        <ele>215.4</ele>
        <time>2025-01-10T09:27:09.000Z</time>
      </trkpt>
      <trkpt lat="43.59088" lon="6.83817">
        <ele>215.3</ele>
        <time>2025-01-10T09:27:08.000Z</time>
      </trkpt>
      <trkpt lat="43.5909" lon="6.83813">
        <ele>215.2</ele>
        <time>2025-01-10T09:27:07.000Z</time>
      </trkpt>
      <trkpt lat="43.59091" lon="6.83809">
        <ele>215.2</ele>
        <time>2025-01-10T09:27:06.000Z</time>
      </trkpt>
      <trkpt lat="43.59092" lon="6.83805">
        <ele>215.1</ele>
        <time>2025-01-10T09:27:05.000Z</time>
      </trkpt>
      <trkpt lat="43.59093" lon="6.83802">
        <ele>215</ele>
        <time>2025-01-10T09:27:04.000Z</time>
      </trkpt>
      <trkpt lat="43.59094" lon="6.83799">
        <ele>215</ele>
        <time>2025-01-10T09:27:03.000Z</time>
      </trkpt>
      <trkpt lat="43.59095" lon="6.83797">
        <ele>214.9</ele>
        <time>2025-01-10T09:27:02.000Z</time>
      </trkpt>
      <trkpt lat="43.59096" lon="6.83796">
        <ele>214.9</ele>
        <time>2025-01-10T09:27:01.000Z</time>
      </trkpt>
      <trkpt lat="43.59096" lon="6.83796">
        <ele>214.9</ele>
        <time>2025-01-10T09:27:00.000Z</time>
      </trkpt>
      <trkpt lat="43.59095" lon="6.83795">
        <ele>214.9</ele>
        <time>2025-01-10T09:26:59.000Z</time>
      </trkpt>
      <trkpt lat="43.59095" lon="6.83795">
        <ele>214.9</ele>
        <time>2025-01-10T09:26:58.000Z</time>
      </trkpt>
      <trkpt lat="43.59096" lon="6.83794">
        <ele>214.9</ele>
        <time>2025-01-10T09:26:57.000Z</time>
      </trkpt>
      <trkpt lat="43.59095" lon="6.83793">
        <ele>214.9</ele>
        <time>2025-01-10T09:26:56.000Z</time>
      </trkpt>
      <trkpt lat="43.59096" lon="6.83793">
        <ele>214.9</ele>
        <time>2025-01-10T09:26:55.000Z</time>
      </trkpt>
      <trkpt lat="43.59096" lon="6.83793">
        <ele>214.9</ele>
        <time>2025-01-10T09:26:54.000Z</time>
      </trkpt>
      <trkpt lat="43.59096" lon="6.83793">
        <ele>214.9</ele>
        <time>2025-01-10T09:26:53.000Z</time>
      </trkpt>
      <trkpt lat="43.59096" lon="6.83792">
        <ele>214.9</ele>
        <time>2025-01-10T09:26:52.000Z</time>
      </trkpt>
      <trkpt lat="43.59096" lon="6.83792">
        <ele>214.9</ele>
        <time>2025-01-10T09:26:51.000Z</time>
      </trkpt>
      <trkpt lat="43.59095" lon="6.83792">
        <ele>214.8</ele>
        <time>2025-01-10T09:26:50.000Z</time>
      </trkpt>
      <trkpt lat="43.59095" lon="6.83792">
        <ele>214.8</ele>
        <time>2025-01-10T09:26:49.000Z</time>
      </trkpt>
      <trkpt lat="43.59095" lon="6.83792">
        <ele>214.8</ele>
        <time>2025-01-10T09:26:48.000Z</time>
      </trkpt>
      <trkpt lat="43.59095" lon="6.83792">
        <ele>214.8</ele>
        <time>2025-01-10T09:26:47.000Z</time>
      </trkpt>
      <trkpt lat="43.59096" lon="6.83792">
        <ele>214.8</ele>
        <time>2025-01-10T09:26:46.000Z</time>
      </trkpt>
      <trkpt lat="43.59096" lon="6.83793">
        <ele>214.8</ele>
        <time>2025-01-10T09:26:45.000Z</time>
      </trkpt>
      <trkpt lat="43.59097" lon="6.83793">
        <ele>214.8</ele>
        <time>2025-01-10T09:26:44.000Z</time>
      </trkpt>
      <trkpt lat="43.59097" lon="6.83793">
        <ele>214.8</ele>
        <time>2025-01-10T09:26:43.000Z</time>
      </trkpt>
      <trkpt lat="43.59097" lon="6.83793">
        <ele>214.8</ele>
        <time>2025-01-10T09:26:42.000Z</time>
      </trkpt>
      <trkpt lat="43.59097" lon="6.83791">
        <ele>214.8</ele>
        <time>2025-01-10T09:26:41.000Z</time>
      </trkpt>
      <trkpt lat="43.59097" lon="6.83788">
        <ele>214.7</ele>
        <time>2025-01-10T09:26:40.000Z</time>
      </trkpt>
      <trkpt lat="43.59097" lon="6.83784">
        <ele>214.7</ele>
        <time>2025-01-10T09:26:39.000Z</time>
      </trkpt>
      <trkpt lat="43.59096" lon="6.83781">
        <ele>214.7</ele>
        <time>2025-01-10T09:26:38.000Z</time>
      </trkpt>
      <trkpt lat="43.59096" lon="6.83779">
        <ele>214.6</ele>
        <time>2025-01-10T09:26:37.000Z</time>
      </trkpt>
      <trkpt lat="43.59095" lon="6.83776">
        <ele>214.6</ele>
        <time>2025-01-10T09:26:36.000Z</time>
      </trkpt>
      <trkpt lat="43.59095" lon="6.83774">
        <ele>214.6</ele>
        <time>2025-01-10T09:26:35.000Z</time>
      </trkpt>
      <trkpt lat="43.59095" lon="6.83774">
        <ele>214.6</ele>
        <time>2025-01-10T09:26:34.000Z</time>
      </trkpt>
      <trkpt lat="43.59095" lon="6.83774">
        <ele>214.6</ele>
        <time>2025-01-10T09:26:33.000Z</time>
      </trkpt>
      <trkpt lat="43.59095" lon="6.83774">
        <ele>214.6</ele>
        <time>2025-01-10T09:26:32.000Z</time>
      </trkpt>
      <trkpt lat="43.59095" lon="6.83774">
        <ele>214.6</ele>
        <time>2025-01-10T09:26:31.000Z</time>
      </trkpt>
      <trkpt lat="43.59095" lon="6.83774">
        <ele>214.6</ele>
        <time>2025-01-10T09:26:30.000Z</time>
      </trkpt>
      <trkpt lat="43.59095" lon="6.83774">
        <ele>214.6</ele>
        <time>2025-01-10T09:26:29.000Z</time>
      </trkpt>
      <trkpt lat="43.59095" lon="6.83774">
        <ele>214.6</ele>
        <time>2025-01-10T09:26:28.000Z</time>
      </trkpt>
      <trkpt lat="43.59095" lon="6.83774">
        <ele>214.6</ele>
        <time>2025-01-10T09:26:27.000Z</time>
      </trkpt>
      <trkpt lat="43.59095" lon="6.83774">
        <ele>214.6</ele>
        <time>2025-01-10T09:26:26.000Z</time>
      </trkpt>
      <trkpt lat="43.59095" lon="6.83774">
        <ele>214.6</ele>
        <time>2025-01-10T09:26:25.000Z</time>
      </trkpt>
      <trkpt lat="43.59095" lon="6.83774">
        <ele>214.6</ele>
        <time>2025-01-10T09:26:24.000Z</time>
      </trkpt>
      <trkpt lat="43.59095" lon="6.83774">
        <ele>214.6</ele>
        <time>2025-01-10T09:26:23.000Z</time>
      </trkpt>
      <trkpt lat="43.59095" lon="6.83774">
        <ele>214.6</ele>
        <time>2025-01-10T09:26:22.000Z</time>
      </trkpt>
      <trkpt lat="43.59095" lon="6.83774">
        <ele>214.6</ele>
        <time>2025-01-10T09:26:21.000Z</time>
      </trkpt>
      <trkpt lat="43.59095" lon="6.83774">
        <ele>214.6</ele>
        <time>2025-01-10T09:26:20.000Z</time>
      </trkpt>
      <trkpt lat="43.59095" lon="6.83773">
        <ele>214.6</ele>
        <time>2025-01-10T09:26:19.000Z</time>
      </trkpt>
      <trkpt lat="43.59096" lon="6.83773">
        <ele>214.6</ele>
        <time>2025-01-10T09:26:18.000Z</time>
      </trkpt>
      <trkpt lat="43.59097" lon="6.83773">
        <ele>214.6</ele>
        <time>2025-01-10T09:26:17.000Z</time>
      </trkpt>
      <trkpt lat="43.59097" lon="6.83773">
        <ele>214.6</ele>
        <time>2025-01-10T09:26:16.000Z</time>
      </trkpt>
      <trkpt lat="43.59097" lon="6.83774">
        <ele>214.6</ele>
        <time>2025-01-10T09:26:15.000Z</time>
      </trkpt>
      <trkpt lat="43.59097" lon="6.83774">
        <ele>214.6</ele>
        <time>2025-01-10T09:26:14.000Z</time>
      </trkpt>
      <trkpt lat="43.59097" lon="6.83774">
        <ele>214.6</ele>
        <time>2025-01-10T09:26:13.000Z</time>
      </trkpt>
      <trkpt lat="43.59097" lon="6.83774">
        <ele>214.6</ele>
        <time>2025-01-10T09:26:12.000Z</time>
      </trkpt>
      <trkpt lat="43.59097" lon="6.83773">
        <ele>214.6</ele>
        <time>2025-01-10T09:26:11.000Z</time>
      </trkpt>
      <trkpt lat="43.59098" lon="6.83772">
        <ele>214.5</ele>
        <time>2025-01-10T09:26:10.000Z</time>
      </trkpt>
      <trkpt lat="43.59098" lon="6.83772">
        <ele>214.5</ele>
        <time>2025-01-10T09:26:09.000Z</time>
      </trkpt>
      <trkpt lat="43.59098" lon="6.83772">
        <ele>214.5</ele>
        <time>2025-01-10T09:26:08.000Z</time>
      </trkpt>
      <trkpt lat="43.59098" lon="6.83772">
        <ele>214.5</ele>
        <time>2025-01-10T09:26:07.000Z</time>
      </trkpt>
      <trkpt lat="43.59098" lon="6.83772">
        <ele>214.5</ele>
        <time>2025-01-10T09:26:06.000Z</time>
      </trkpt>
      <trkpt lat="43.59099" lon="6.83771">
        <ele>214.5</ele>
        <time>2025-01-10T09:26:05.000Z</time>
      </trkpt>
      <trkpt lat="43.59099" lon="6.83771">
        <ele>214.5</ele>
        <time>2025-01-10T09:26:04.000Z</time>
      </trkpt>
      <trkpt lat="43.59099" lon="6.8377">
        <ele>214.5</ele>
        <time>2025-01-10T09:26:03.000Z</time>
      </trkpt>
      <trkpt lat="43.591" lon="6.83769">
        <ele>214.5</ele>
        <time>2025-01-10T09:26:02.000Z</time>
      </trkpt>
      <trkpt lat="43.591" lon="6.83769">
        <ele>214.5</ele>
        <time>2025-01-10T09:26:01.000Z</time>
      </trkpt>
      <trkpt lat="43.59101" lon="6.83769">
        <ele>214.5</ele>
        <time>2025-01-10T09:26:00.000Z</time>
      </trkpt>
      <trkpt lat="43.59101" lon="6.83768">
        <ele>214.5</ele>
        <time>2025-01-10T09:25:59.000Z</time>
      </trkpt>
      <trkpt lat="43.59102" lon="6.83768">
        <ele>214.5</ele>
        <time>2025-01-10T09:25:58.000Z</time>
      </trkpt>
      <trkpt lat="43.59102" lon="6.83767">
        <ele>214.5</ele>
        <time>2025-01-10T09:25:57.000Z</time>
      </trkpt>
      <trkpt lat="43.59102" lon="6.83767">
        <ele>214.5</ele>
        <time>2025-01-10T09:25:56.000Z</time>
      </trkpt>
      <trkpt lat="43.59103" lon="6.83766">
        <ele>214.5</ele>
        <time>2025-01-10T09:25:55.000Z</time>
      </trkpt>
      <trkpt lat="43.59103" lon="6.83765">
        <ele>214.5</ele>
        <time>2025-01-10T09:25:54.000Z</time>
      </trkpt>
      <trkpt lat="43.59104" lon="6.83764">
        <ele>214.5</ele>
        <time>2025-01-10T09:25:53.000Z</time>
      </trkpt>
      <trkpt lat="43.59104" lon="6.83764">
        <ele>214.5</ele>
        <time>2025-01-10T09:25:52.000Z</time>
      </trkpt>
      <trkpt lat="43.59104" lon="6.83765">
        <ele>214.5</ele>
        <time>2025-01-10T09:25:51.000Z</time>
      </trkpt>
      <trkpt lat="43.59103" lon="6.83765">
        <ele>214.5</ele>
        <time>2025-01-10T09:25:50.000Z</time>
      </trkpt>
      <trkpt lat="43.59103" lon="6.83764">
        <ele>214.5</ele>
        <time>2025-01-10T09:25:49.000Z</time>
      </trkpt>
      <trkpt lat="43.59103" lon="6.83764">
        <ele>214.5</ele>
        <time>2025-01-10T09:25:48.000Z</time>
      </trkpt>
      <trkpt lat="43.59103" lon="6.83764">
        <ele>214.5</ele>
        <time>2025-01-10T09:25:47.000Z</time>
      </trkpt>
      <trkpt lat="43.59103" lon="6.83764">
        <ele>214.5</ele>
        <time>2025-01-10T09:25:46.000Z</time>
      </trkpt>
      <trkpt lat="43.59103" lon="6.83764">
        <ele>214.4</ele>
        <time>2025-01-10T09:25:45.000Z</time>
      </trkpt>
      <trkpt lat="43.59102" lon="6.83763">
        <ele>214.4</ele>
        <time>2025-01-10T09:25:44.000Z</time>
      </trkpt>
      <trkpt lat="43.59101" lon="6.83763">
        <ele>214.4</ele>
        <time>2025-01-10T09:25:43.000Z</time>
      </trkpt>
      <trkpt lat="43.59101" lon="6.83763">
        <ele>214.4</ele>
        <time>2025-01-10T09:25:42.000Z</time>
      </trkpt>
      <trkpt lat="43.591" lon="6.83763">
        <ele>214.4</ele>
        <time>2025-01-10T09:25:41.000Z</time>
      </trkpt>
      <trkpt lat="43.591" lon="6.83763">
        <ele>214.4</ele>
        <time>2025-01-10T09:25:40.000Z</time>
      </trkpt>
      <trkpt lat="43.591" lon="6.83762">
        <ele>214.4</ele>
        <time>2025-01-10T09:25:39.000Z</time>
      </trkpt>
      <trkpt lat="43.591" lon="6.8376">
        <ele>214.4</ele>
        <time>2025-01-10T09:25:38.000Z</time>
      </trkpt>
      <trkpt lat="43.59099" lon="6.83759">
        <ele>214.4</ele>
        <time>2025-01-10T09:25:37.000Z</time>
      </trkpt>
      <trkpt lat="43.59099" lon="6.83758">
        <ele>214.4</ele>
        <time>2025-01-10T09:25:36.000Z</time>
      </trkpt>
      <trkpt lat="43.59099" lon="6.83757">
        <ele>214.4</ele>
        <time>2025-01-10T09:25:35.000Z</time>
      </trkpt>
      <trkpt lat="43.59099" lon="6.83755">
        <ele>214.4</ele>
        <time>2025-01-10T09:25:34.000Z</time>
      </trkpt>
      <trkpt lat="43.59099" lon="6.83753">
        <ele>214.4</ele>
        <time>2025-01-10T09:25:33.000Z</time>
      </trkpt>
      <trkpt lat="43.59099" lon="6.83751">
        <ele>214.4</ele>
        <time>2025-01-10T09:25:32.000Z</time>
      </trkpt>
      <trkpt lat="43.59099" lon="6.83748">
        <ele>214.4</ele>
        <time>2025-01-10T09:25:31.000Z</time>
      </trkpt>
      <trkpt lat="43.59099" lon="6.83747">
        <ele>214.3</ele>
        <time>2025-01-10T09:25:30.000Z</time>
      </trkpt>
      <trkpt lat="43.59099" lon="6.83747">
        <ele>214.3</ele>
        <time>2025-01-10T09:25:29.000Z</time>
      </trkpt>
      <trkpt lat="43.59099" lon="6.83747">
        <ele>214.3</ele>
        <time>2025-01-10T09:25:28.000Z</time>
      </trkpt>
      <trkpt lat="43.59099" lon="6.83747">
        <ele>214.3</ele>
        <time>2025-01-10T09:25:27.000Z</time>
      </trkpt>
      <trkpt lat="43.59099" lon="6.83747">
        <ele>214.3</ele>
        <time>2025-01-10T09:25:26.000Z</time>
      </trkpt>
      <trkpt lat="43.59099" lon="6.83747">
        <ele>214.3</ele>
        <time>2025-01-10T09:25:25.000Z</time>
      </trkpt>
      <trkpt lat="43.59099" lon="6.83747">
        <ele>214.3</ele>
        <time>2025-01-10T09:25:24.000Z</time>
      </trkpt>
      <trkpt lat="43.59099" lon="6.83747">
        <ele>214.3</ele>
        <time>2025-01-10T09:25:23.000Z</time>
      </trkpt>
      <trkpt lat="43.59098" lon="6.83747">
        <ele>214.3</ele>
        <time>2025-01-10T09:25:22.000Z</time>
      </trkpt>
      <trkpt lat="43.59098" lon="6.83747">
        <ele>214.3</ele>
        <time>2025-01-10T09:25:21.000Z</time>
      </trkpt>
      <trkpt lat="43.59098" lon="6.83747">
        <ele>214.3</ele>
        <time>2025-01-10T09:25:20.000Z</time>
      </trkpt>
      <trkpt lat="43.59098" lon="6.83747">
        <ele>214.3</ele>
        <time>2025-01-10T09:25:19.000Z</time>
      </trkpt>
      <trkpt lat="43.59098" lon="6.83747">
        <ele>214.3</ele>
        <time>2025-01-10T09:25:18.000Z</time>
      </trkpt>
      <trkpt lat="43.59098" lon="6.83747">
        <ele>214.3</ele>
        <time>2025-01-10T09:25:17.000Z</time>
      </trkpt>
      <trkpt lat="43.59098" lon="6.83747">
        <ele>214.3</ele>
        <time>2025-01-10T09:25:16.000Z</time>
      </trkpt>
      <trkpt lat="43.59098" lon="6.83747">
        <ele>214.3</ele>
        <time>2025-01-10T09:25:15.000Z</time>
      </trkpt>
      <trkpt lat="43.59098" lon="6.83747">
        <ele>214.3</ele>
        <time>2025-01-10T09:25:14.000Z</time>
      </trkpt>
      <trkpt lat="43.59098" lon="6.83747">
        <ele>214.3</ele>
        <time>2025-01-10T09:25:13.000Z</time>
      </trkpt>
      <trkpt lat="43.59098" lon="6.83747">
        <ele>214.3</ele>
        <time>2025-01-10T09:25:12.000Z</time>
      </trkpt>
      <trkpt lat="43.59098" lon="6.83747">
        <ele>214.3</ele>
        <time>2025-01-10T09:25:11.000Z</time>
      </trkpt>
      <trkpt lat="43.59098" lon="6.83747">
        <ele>214.3</ele>
        <time>2025-01-10T09:25:10.000Z</time>
      </trkpt>
      <trkpt lat="43.59098" lon="6.83747">
        <ele>214.3</ele>
        <time>2025-01-10T09:25:09.000Z</time>
      </trkpt>
      <trkpt lat="43.59097" lon="6.83747">
        <ele>214.3</ele>
        <time>2025-01-10T09:25:08.000Z</time>
      </trkpt>
      <trkpt lat="43.59097" lon="6.83746">
        <ele>214.3</ele>
        <time>2025-01-10T09:25:07.000Z</time>
      </trkpt>
      <trkpt lat="43.59097" lon="6.83746">
        <ele>214.3</ele>
        <time>2025-01-10T09:25:06.000Z</time>
      </trkpt>
      <trkpt lat="43.59097" lon="6.83746">
        <ele>214.3</ele>
        <time>2025-01-10T09:25:05.000Z</time>
      </trkpt>
      <trkpt lat="43.59097" lon="6.83746">
        <ele>214.3</ele>
        <time>2025-01-10T09:25:04.000Z</time>
      </trkpt>
      <trkpt lat="43.59097" lon="6.83746">
        <ele>214.3</ele>
        <time>2025-01-10T09:25:03.000Z</time>
      </trkpt>
      <trkpt lat="43.59097" lon="6.83746">
        <ele>214.3</ele>
        <time>2025-01-10T09:25:02.000Z</time>
      </trkpt>
      <trkpt lat="43.59097" lon="6.83745">
        <ele>214.3</ele>
        <time>2025-01-10T09:25:01.000Z</time>
      </trkpt>
      <trkpt lat="43.59097" lon="6.83745">
        <ele>214.3</ele>
        <time>2025-01-10T09:25:00.000Z</time>
      </trkpt>
      <trkpt lat="43.59097" lon="6.83745">
        <ele>214.3</ele>
        <time>2025-01-10T09:24:59.000Z</time>
      </trkpt>
      <trkpt lat="43.59097" lon="6.83746">
        <ele>214.3</ele>
        <time>2025-01-10T09:24:58.000Z</time>
      </trkpt>
      <trkpt lat="43.59096" lon="6.83746">
        <ele>214.3</ele>
        <time>2025-01-10T09:24:57.000Z</time>
      </trkpt>
      <trkpt lat="43.59096" lon="6.83746">
        <ele>214.3</ele>
        <time>2025-01-10T09:24:56.000Z</time>
      </trkpt>
      <trkpt lat="43.59096" lon="6.83746">
        <ele>214.3</ele>
        <time>2025-01-10T09:24:55.000Z</time>
      </trkpt>
      <trkpt lat="43.59095" lon="6.83746">
        <ele>214.3</ele>
        <time>2025-01-10T09:24:54.000Z</time>
      </trkpt>
      <trkpt lat="43.59095" lon="6.83747">
        <ele>214.3</ele>
        <time>2025-01-10T09:24:53.000Z</time>
      </trkpt>
      <trkpt lat="43.59095" lon="6.83747">
        <ele>214.3</ele>
        <time>2025-01-10T09:24:52.000Z</time>
      </trkpt>
      <trkpt lat="43.59095" lon="6.83747">
        <ele>214.3</ele>
        <time>2025-01-10T09:24:51.000Z</time>
      </trkpt>
      <trkpt lat="43.59095" lon="6.83747">
        <ele>214.3</ele>
        <time>2025-01-10T09:24:50.000Z</time>
      </trkpt>
      <trkpt lat="43.59095" lon="6.83747">
        <ele>214.3</ele>
        <time>2025-01-10T09:24:49.000Z</time>
      </trkpt>
      <trkpt lat="43.59095" lon="6.83747">
        <ele>214.3</ele>
        <time>2025-01-10T09:24:48.000Z</time>
      </trkpt>
      <trkpt lat="43.59095" lon="6.83747">
        <ele>214.3</ele>
        <time>2025-01-10T09:24:47.000Z</time>
      </trkpt>
      <trkpt lat="43.59095" lon="6.83747">
        <ele>214.3</ele>
        <time>2025-01-10T09:24:46.000Z</time>
      </trkpt>
      <trkpt lat="43.59095" lon="6.83747">
        <ele>214.3</ele>
        <time>2025-01-10T09:24:45.000Z</time>
      </trkpt>
      <trkpt lat="43.59095" lon="6.83747">
        <ele>214.3</ele>
        <time>2025-01-10T09:24:44.000Z</time>
      </trkpt>
      <trkpt lat="43.59095" lon="6.83747">
        <ele>214.3</ele>
        <time>2025-01-10T09:24:43.000Z</time>
      </trkpt>
      <trkpt lat="43.59095" lon="6.83747">
        <ele>214.3</ele>
        <time>2025-01-10T09:24:42.000Z</time>
      </trkpt>
      <trkpt lat="43.59095" lon="6.83748">
        <ele>214.3</ele>
        <time>2025-01-10T09:24:41.000Z</time>
      </trkpt>
      <trkpt lat="43.59095" lon="6.83748">
        <ele>214.3</ele>
        <time>2025-01-10T09:24:40.000Z</time>
      </trkpt>
      <trkpt lat="43.59095" lon="6.83748">
        <ele>214.3</ele>
        <time>2025-01-10T09:24:39.000Z</time>
      </trkpt>
      <trkpt lat="43.59095" lon="6.83748">
        <ele>214.3</ele>
        <time>2025-01-10T09:24:38.000Z</time>
      </trkpt>
      <trkpt lat="43.59095" lon="6.83748">
        <ele>214.3</ele>
        <time>2025-01-10T09:24:37.000Z</time>
      </trkpt>
      <trkpt lat="43.59095" lon="6.83749">
        <ele>214.3</ele>
        <time>2025-01-10T09:24:36.000Z</time>
      </trkpt>
      <trkpt lat="43.59095" lon="6.83749">
        <ele>214.3</ele>
        <time>2025-01-10T09:24:35.000Z</time>
      </trkpt>
      <trkpt lat="43.59095" lon="6.83749">
        <ele>214.3</ele>
        <time>2025-01-10T09:24:34.000Z</time>
      </trkpt>
      <trkpt lat="43.59095" lon="6.83749">
        <ele>214.3</ele>
        <time>2025-01-10T09:24:33.000Z</time>
      </trkpt>
      <trkpt lat="43.59095" lon="6.83749">
        <ele>214.3</ele>
        <time>2025-01-10T09:24:32.000Z</time>
      </trkpt>
      <trkpt lat="43.59095" lon="6.83749">
        <ele>214.3</ele>
        <time>2025-01-10T09:24:31.000Z</time>
      </trkpt>
      <trkpt lat="43.59095" lon="6.83749">
        <ele>214.3</ele>
        <time>2025-01-10T09:24:30.000Z</time>
      </trkpt>
      <trkpt lat="43.59095" lon="6.83749">
        <ele>214.3</ele>
        <time>2025-01-10T09:24:29.000Z</time>
      </trkpt>
      <trkpt lat="43.59095" lon="6.83749">
        <ele>214.3</ele>
        <time>2025-01-10T09:24:28.000Z</time>
      </trkpt>
      <trkpt lat="43.59095" lon="6.83749">
        <ele>214.3</ele>
        <time>2025-01-10T09:24:27.000Z</time>
      </trkpt>
      <trkpt lat="43.59095" lon="6.83749">
        <ele>214.3</ele>
        <time>2025-01-10T09:24:26.000Z</time>
      </trkpt>
      <trkpt lat="43.59095" lon="6.83749">
        <ele>214.3</ele>
        <time>2025-01-10T09:24:25.000Z</time>
      </trkpt>
      <trkpt lat="43.59095" lon="6.83749">
        <ele>214.3</ele>
        <time>2025-01-10T09:24:24.000Z</time>
      </trkpt>
      <trkpt lat="43.59095" lon="6.83749">
        <ele>214.3</ele>
        <time>2025-01-10T09:24:23.000Z</time>
      </trkpt>
      <trkpt lat="43.59095" lon="6.83749">
        <ele>214.3</ele>
        <time>2025-01-10T09:24:22.000Z</time>
      </trkpt>
      <trkpt lat="43.59095" lon="6.83749">
        <ele>214.3</ele>
        <time>2025-01-10T09:24:21.000Z</time>
      </trkpt>
      <trkpt lat="43.59095" lon="6.83749">
        <ele>214.3</ele>
        <time>2025-01-10T09:24:20.000Z</time>
      </trkpt>
      <trkpt lat="43.59095" lon="6.83749">
        <ele>214.3</ele>
        <time>2025-01-10T09:24:19.000Z</time>
      </trkpt>
      <trkpt lat="43.59095" lon="6.83749">
        <ele>214.3</ele>
        <time>2025-01-10T09:24:18.000Z</time>
      </trkpt>
      <trkpt lat="43.59095" lon="6.83749">
        <ele>214.3</ele>
        <time>2025-01-10T09:24:17.000Z</time>
      </trkpt>
      <trkpt lat="43.59095" lon="6.83749">
        <ele>214.3</ele>
        <time>2025-01-10T09:24:16.000Z</time>
      </trkpt>
      <trkpt lat="43.59096" lon="6.83749">
        <ele>214.3</ele>
        <time>2025-01-10T09:24:15.000Z</time>
      </trkpt>
      <trkpt lat="43.59096" lon="6.83749">
        <ele>214.3</ele>
        <time>2025-01-10T09:24:14.000Z</time>
      </trkpt>
      <trkpt lat="43.59096" lon="6.83749">
        <ele>214.3</ele>
        <time>2025-01-10T09:24:13.000Z</time>
      </trkpt>
      <trkpt lat="43.59096" lon="6.83749">
        <ele>214.3</ele>
        <time>2025-01-10T09:24:12.000Z</time>
      </trkpt>
      <trkpt lat="43.59096" lon="6.83749">
        <ele>214.3</ele>
        <time>2025-01-10T09:24:11.000Z</time>
      </trkpt>
      <trkpt lat="43.59096" lon="6.83749">
        <ele>214.3</ele>
        <time>2025-01-10T09:24:10.000Z</time>
      </trkpt>
      <trkpt lat="43.59097" lon="6.83749">
        <ele>214.3</ele>
        <time>2025-01-10T09:24:09.000Z</time>
      </trkpt>
      <trkpt lat="43.59096" lon="6.83748">
        <ele>214.2</ele>
        <time>2025-01-10T09:24:08.000Z</time>
      </trkpt>
      <trkpt lat="43.59096" lon="6.83748">
        <ele>214.2</ele>
        <time>2025-01-10T09:24:07.000Z</time>
      </trkpt>
      <trkpt lat="43.59097" lon="6.83748">
        <ele>214.2</ele>
        <time>2025-01-10T09:24:06.000Z</time>
      </trkpt>
      <trkpt lat="43.59097" lon="6.83748">
        <ele>214.2</ele>
        <time>2025-01-10T09:24:05.000Z</time>
      </trkpt>
      <trkpt lat="43.59097" lon="6.83749">
        <ele>214.2</ele>
        <time>2025-01-10T09:24:04.000Z</time>
      </trkpt>
      <trkpt lat="43.59096" lon="6.8375">
        <ele>214.2</ele>
        <time>2025-01-10T09:24:03.000Z</time>
      </trkpt>
      <trkpt lat="43.59096" lon="6.83752">
        <ele>214.2</ele>
        <time>2025-01-10T09:24:02.000Z</time>
      </trkpt>
      <trkpt lat="43.59095" lon="6.83753">
        <ele>214.2</ele>
        <time>2025-01-10T09:24:01.000Z</time>
      </trkpt>
      <trkpt lat="43.59094" lon="6.83755">
        <ele>214.2</ele>
        <time>2025-01-10T09:24:00.000Z</time>
      </trkpt>
      <trkpt lat="43.59094" lon="6.83756">
        <ele>214.2</ele>
        <time>2025-01-10T09:23:59.000Z</time>
      </trkpt>
      <trkpt lat="43.59094" lon="6.83757">
        <ele>214.2</ele>
        <time>2025-01-10T09:23:58.000Z</time>
      </trkpt>
      <trkpt lat="43.59093" lon="6.83757">
        <ele>214.1</ele>
        <time>2025-01-10T09:23:57.000Z</time>
      </trkpt>
      <trkpt lat="43.59093" lon="6.83758">
        <ele>214.1</ele>
        <time>2025-01-10T09:23:56.000Z</time>
      </trkpt>
      <trkpt lat="43.59093" lon="6.83759">
        <ele>214.1</ele>
        <time>2025-01-10T09:23:55.000Z</time>
      </trkpt>
      <trkpt lat="43.59093" lon="6.8376">
        <ele>214.1</ele>
        <time>2025-01-10T09:23:54.000Z</time>
      </trkpt>
      <trkpt lat="43.59093" lon="6.83761">
        <ele>214.1</ele>
        <time>2025-01-10T09:23:53.000Z</time>
      </trkpt>
      <trkpt lat="43.59094" lon="6.83762">
        <ele>214.1</ele>
        <time>2025-01-10T09:23:52.000Z</time>
      </trkpt>
      <trkpt lat="43.59094" lon="6.83763">
        <ele>214.1</ele>
        <time>2025-01-10T09:23:51.000Z</time>
      </trkpt>
      <trkpt lat="43.59094" lon="6.83764">
        <ele>214.1</ele>
        <time>2025-01-10T09:23:50.000Z</time>
      </trkpt>
      <trkpt lat="43.59094" lon="6.83765">
        <ele>214.1</ele>
        <time>2025-01-10T09:23:49.000Z</time>
      </trkpt>
      <trkpt lat="43.59094" lon="6.83766">
        <ele>214.1</ele>
        <time>2025-01-10T09:23:48.000Z</time>
      </trkpt>
      <trkpt lat="43.59094" lon="6.83766">
        <ele>214.1</ele>
        <time>2025-01-10T09:23:47.000Z</time>
      </trkpt>
      <trkpt lat="43.59095" lon="6.83767">
        <ele>214.1</ele>
        <time>2025-01-10T09:23:46.000Z</time>
      </trkpt>
      <trkpt lat="43.59094" lon="6.83767">
        <ele>214.1</ele>
        <time>2025-01-10T09:23:45.000Z</time>
      </trkpt>
      <trkpt lat="43.59094" lon="6.83768">
        <ele>214.1</ele>
        <time>2025-01-10T09:23:44.000Z</time>
      </trkpt>
      <trkpt lat="43.59093" lon="6.83769">
        <ele>214.1</ele>
        <time>2025-01-10T09:23:43.000Z</time>
      </trkpt>
      <trkpt lat="43.59094" lon="6.8377">
        <ele>214.1</ele>
        <time>2025-01-10T09:23:42.000Z</time>
      </trkpt>
      <trkpt lat="43.59094" lon="6.8377">
        <ele>214.1</ele>
        <time>2025-01-10T09:23:41.000Z</time>
      </trkpt>
      <trkpt lat="43.59093" lon="6.8377">
        <ele>214.1</ele>
        <time>2025-01-10T09:23:40.000Z</time>
      </trkpt>
      <trkpt lat="43.59093" lon="6.8377">
        <ele>214.1</ele>
        <time>2025-01-10T09:23:39.000Z</time>
      </trkpt>
      <trkpt lat="43.59093" lon="6.8377">
        <ele>214.1</ele>
        <time>2025-01-10T09:23:38.000Z</time>
      </trkpt>
      <trkpt lat="43.59093" lon="6.8377">
        <ele>214.1</ele>
        <time>2025-01-10T09:23:37.000Z</time>
      </trkpt>
      <trkpt lat="43.59093" lon="6.8377">
        <ele>214.1</ele>
        <time>2025-01-10T09:23:36.000Z</time>
      </trkpt>
      <trkpt lat="43.59093" lon="6.8377">
        <ele>214.1</ele>
        <time>2025-01-10T09:23:35.000Z</time>
      </trkpt>
      <trkpt lat="43.59093" lon="6.83769">
        <ele>214.1</ele>
        <time>2025-01-10T09:23:34.000Z</time>
      </trkpt>
      <trkpt lat="43.59093" lon="6.83769">
        <ele>214.1</ele>
        <time>2025-01-10T09:23:33.000Z</time>
      </trkpt>
      <trkpt lat="43.59093" lon="6.83769">
        <ele>214.1</ele>
        <time>2025-01-10T09:23:32.000Z</time>
      </trkpt>
      <trkpt lat="43.59093" lon="6.83769">
        <ele>214.1</ele>
        <time>2025-01-10T09:23:31.000Z</time>
      </trkpt>
      <trkpt lat="43.59094" lon="6.83769">
        <ele>214.1</ele>
        <time>2025-01-10T09:23:30.000Z</time>
      </trkpt>
      <trkpt lat="43.59094" lon="6.83769">
        <ele>214.1</ele>
        <time>2025-01-10T09:23:29.000Z</time>
      </trkpt>
      <trkpt lat="43.59094" lon="6.83769">
        <ele>214.1</ele>
        <time>2025-01-10T09:23:28.000Z</time>
      </trkpt>
      <trkpt lat="43.59094" lon="6.83769">
        <ele>214.1</ele>
        <time>2025-01-10T09:23:27.000Z</time>
      </trkpt>
      <trkpt lat="43.59094" lon="6.83769">
        <ele>214.1</ele>
        <time>2025-01-10T09:23:26.000Z</time>
      </trkpt>
      <trkpt lat="43.59094" lon="6.83769">
        <ele>214.1</ele>
        <time>2025-01-10T09:23:25.000Z</time>
      </trkpt>
      <trkpt lat="43.59094" lon="6.83769">
        <ele>214.1</ele>
        <time>2025-01-10T09:23:24.000Z</time>
      </trkpt>
      <trkpt lat="43.59094" lon="6.83769">
        <ele>214.1</ele>
        <time>2025-01-10T09:23:23.000Z</time>
      </trkpt>
      <trkpt lat="43.59094" lon="6.83769">
        <ele>214.1</ele>
        <time>2025-01-10T09:23:22.000Z</time>
      </trkpt>
      <trkpt lat="43.59094" lon="6.83769">
        <ele>214.1</ele>
        <time>2025-01-10T09:23:21.000Z</time>
      </trkpt>
      <trkpt lat="43.59094" lon="6.83769">
        <ele>214.1</ele>
        <time>2025-01-10T09:23:20.000Z</time>
      </trkpt>
      <trkpt lat="43.59094" lon="6.83769">
        <ele>214.1</ele>
        <time>2025-01-10T09:23:19.000Z</time>
      </trkpt>
      <trkpt lat="43.59094" lon="6.83769">
        <ele>214.1</ele>
        <time>2025-01-10T09:23:18.000Z</time>
      </trkpt>
      <trkpt lat="43.59094" lon="6.83769">
        <ele>214.1</ele>
        <time>2025-01-10T09:23:17.000Z</time>
      </trkpt>
      <trkpt lat="43.59094" lon="6.8377">
        <ele>214.1</ele>
        <time>2025-01-10T09:23:16.000Z</time>
      </trkpt>
      <trkpt lat="43.59093" lon="6.83771">
        <ele>214.1</ele>
        <time>2025-01-10T09:23:15.000Z</time>
      </trkpt>
      <trkpt lat="43.59092" lon="6.83772">
        <ele>214.1</ele>
        <time>2025-01-10T09:23:14.000Z</time>
      </trkpt>
      <trkpt lat="43.59092" lon="6.83773">
        <ele>214.1</ele>
        <time>2025-01-10T09:23:13.000Z</time>
      </trkpt>
      <trkpt lat="43.59093" lon="6.83774">
        <ele>214.1</ele>
        <time>2025-01-10T09:23:12.000Z</time>
      </trkpt>
      <trkpt lat="43.59093" lon="6.83775">
        <ele>214.1</ele>
        <time>2025-01-10T09:23:11.000Z</time>
      </trkpt>
      <trkpt lat="43.59093" lon="6.83776">
        <ele>214.1</ele>
        <time>2025-01-10T09:23:10.000Z</time>
      </trkpt>
      <trkpt lat="43.59092" lon="6.83778">
        <ele>214.1</ele>
        <time>2025-01-10T09:23:09.000Z</time>
      </trkpt>
      <trkpt lat="43.59092" lon="6.83779">
        <ele>214.1</ele>
        <time>2025-01-10T09:23:08.000Z</time>
      </trkpt>
      <trkpt lat="43.59092" lon="6.83779">
        <ele>214.1</ele>
        <time>2025-01-10T09:23:07.000Z</time>
      </trkpt>
      <trkpt lat="43.59093" lon="6.83779">
        <ele>214.2</ele>
        <time>2025-01-10T09:23:06.000Z</time>
      </trkpt>
      <trkpt lat="43.59092" lon="6.83778">
        <ele>214.2</ele>
        <time>2025-01-10T09:23:05.000Z</time>
      </trkpt>
      <trkpt lat="43.59092" lon="6.83777">
        <ele>214.2</ele>
        <time>2025-01-10T09:23:04.000Z</time>
      </trkpt>
      <trkpt lat="43.59093" lon="6.83775">
        <ele>214.2</ele>
        <time>2025-01-10T09:23:03.000Z</time>
      </trkpt>
      <trkpt lat="43.59093" lon="6.83773">
        <ele>214.2</ele>
        <time>2025-01-10T09:23:02.000Z</time>
      </trkpt>
      <trkpt lat="43.59093" lon="6.83771">
        <ele>214.2</ele>
        <time>2025-01-10T09:23:01.000Z</time>
      </trkpt>
      <trkpt lat="43.59094" lon="6.83769">
        <ele>214.2</ele>
        <time>2025-01-10T09:23:00.000Z</time>
      </trkpt>
      <trkpt lat="43.59094" lon="6.83768">
        <ele>214.2</ele>
        <time>2025-01-10T09:22:59.000Z</time>
      </trkpt>
      <trkpt lat="43.59094" lon="6.83767">
        <ele>214.2</ele>
        <time>2025-01-10T09:22:58.000Z</time>
      </trkpt>
      <trkpt lat="43.59094" lon="6.83767">
        <ele>214.2</ele>
        <time>2025-01-10T09:22:57.000Z</time>
      </trkpt>
      <trkpt lat="43.59094" lon="6.83767">
        <ele>214.2</ele>
        <time>2025-01-10T09:22:56.000Z</time>
      </trkpt>
      <trkpt lat="43.59094" lon="6.83767">
        <ele>214.2</ele>
        <time>2025-01-10T09:22:55.000Z</time>
      </trkpt>
      <trkpt lat="43.59094" lon="6.83767">
        <ele>214.2</ele>
        <time>2025-01-10T09:22:54.000Z</time>
      </trkpt>
      <trkpt lat="43.59094" lon="6.83767">
        <ele>214.2</ele>
        <time>2025-01-10T09:22:53.000Z</time>
      </trkpt>
      <trkpt lat="43.59094" lon="6.83767">
        <ele>214.2</ele>
        <time>2025-01-10T09:22:52.000Z</time>
      </trkpt>
      <trkpt lat="43.59094" lon="6.83767">
        <ele>214.2</ele>
        <time>2025-01-10T09:22:51.000Z</time>
      </trkpt>
      <trkpt lat="43.59094" lon="6.83767">
        <ele>214.3</ele>
        <time>2025-01-10T09:22:50.000Z</time>
      </trkpt>
      <trkpt lat="43.59094" lon="6.83767">
        <ele>214.3</ele>
        <time>2025-01-10T09:22:49.000Z</time>
      </trkpt>
      <trkpt lat="43.59094" lon="6.83767">
        <ele>214.3</ele>
        <time>2025-01-10T09:22:48.000Z</time>
      </trkpt>
      <trkpt lat="43.59094" lon="6.83767">
        <ele>214.3</ele>
        <time>2025-01-10T09:22:47.000Z</time>
      </trkpt>
      <trkpt lat="43.59094" lon="6.83767">
        <ele>214.3</ele>
        <time>2025-01-10T09:22:46.000Z</time>
      </trkpt>
      <trkpt lat="43.59094" lon="6.83767">
        <ele>214.3</ele>
        <time>2025-01-10T09:22:45.000Z</time>
      </trkpt>
      <trkpt lat="43.59094" lon="6.83767">
        <ele>214.3</ele>
        <time>2025-01-10T09:22:44.000Z</time>
      </trkpt>
      <trkpt lat="43.59094" lon="6.83767">
        <ele>214.3</ele>
        <time>2025-01-10T09:22:43.000Z</time>
      </trkpt>
      <trkpt lat="43.59094" lon="6.83768">
        <ele>214.3</ele>
        <time>2025-01-10T09:22:42.000Z</time>
      </trkpt>
      <trkpt lat="43.59094" lon="6.83768">
        <ele>214.3</ele>
        <time>2025-01-10T09:22:41.000Z</time>
      </trkpt>
      <trkpt lat="43.59094" lon="6.83768">
        <ele>214.3</ele>
        <time>2025-01-10T09:22:40.000Z</time>
      </trkpt>
      <trkpt lat="43.59094" lon="6.83768">
        <ele>214.3</ele>
        <time>2025-01-10T09:22:39.000Z</time>
      </trkpt>
      <trkpt lat="43.59094" lon="6.83768">
        <ele>214.3</ele>
        <time>2025-01-10T09:22:38.000Z</time>
      </trkpt>
      <trkpt lat="43.59094" lon="6.83768">
        <ele>214.3</ele>
        <time>2025-01-10T09:22:37.000Z</time>
      </trkpt>
      <trkpt lat="43.59094" lon="6.83769">
        <ele>214.3</ele>
        <time>2025-01-10T09:22:36.000Z</time>
      </trkpt>
      <trkpt lat="43.59094" lon="6.83769">
        <ele>214.3</ele>
        <time>2025-01-10T09:22:35.000Z</time>
      </trkpt>
      <trkpt lat="43.59094" lon="6.83769">
        <ele>214.3</ele>
        <time>2025-01-10T09:22:34.000Z</time>
      </trkpt>
      <trkpt lat="43.59094" lon="6.83769">
        <ele>214.3</ele>
        <time>2025-01-10T09:22:33.000Z</time>
      </trkpt>
      <trkpt lat="43.59094" lon="6.83769">
        <ele>214.3</ele>
        <time>2025-01-10T09:22:32.000Z</time>
      </trkpt>
      <trkpt lat="43.59094" lon="6.83769">
        <ele>214.3</ele>
        <time>2025-01-10T09:22:31.000Z</time>
      </trkpt>
      <trkpt lat="43.59094" lon="6.83769">
        <ele>214.3</ele>
        <time>2025-01-10T09:22:30.000Z</time>
      </trkpt>
      <trkpt lat="43.59094" lon="6.8377">
        <ele>214.3</ele>
        <time>2025-01-10T09:22:29.000Z</time>
      </trkpt>
      <trkpt lat="43.59094" lon="6.8377">
        <ele>214.3</ele>
        <time>2025-01-10T09:22:28.000Z</time>
      </trkpt>
      <trkpt lat="43.59094" lon="6.8377">
        <ele>214.3</ele>
        <time>2025-01-10T09:22:27.000Z</time>
      </trkpt>
      <trkpt lat="43.59094" lon="6.8377">
        <ele>214.3</ele>
        <time>2025-01-10T09:22:26.000Z</time>
      </trkpt>
      <trkpt lat="43.59094" lon="6.8377">
        <ele>214.3</ele>
        <time>2025-01-10T09:22:25.000Z</time>
      </trkpt>
      <trkpt lat="43.59094" lon="6.8377">
        <ele>214.3</ele>
        <time>2025-01-10T09:22:24.000Z</time>
      </trkpt>
      <trkpt lat="43.59094" lon="6.8377">
        <ele>214.3</ele>
        <time>2025-01-10T09:22:23.000Z</time>
      </trkpt>
      <trkpt lat="43.59094" lon="6.8377">
        <ele>214.3</ele>
        <time>2025-01-10T09:22:22.000Z</time>
      </trkpt>
      <trkpt lat="43.59094" lon="6.8377">
        <ele>214.3</ele>
        <time>2025-01-10T09:22:21.000Z</time>
      </trkpt>
      <trkpt lat="43.59094" lon="6.8377">
        <ele>214.3</ele>
        <time>2025-01-10T09:22:20.000Z</time>
      </trkpt>
      <trkpt lat="43.59094" lon="6.8377">
        <ele>214.3</ele>
        <time>2025-01-10T09:22:19.000Z</time>
      </trkpt>
      <trkpt lat="43.59094" lon="6.8377">
        <ele>214.3</ele>
        <time>2025-01-10T09:22:18.000Z</time>
      </trkpt>
      <trkpt lat="43.59094" lon="6.8377">
        <ele>214.3</ele>
        <time>2025-01-10T09:22:17.000Z</time>
      </trkpt>
      <trkpt lat="43.59094" lon="6.8377">
        <ele>214.3</ele>
        <time>2025-01-10T09:22:16.000Z</time>
      </trkpt>
      <trkpt lat="43.59094" lon="6.8377">
        <ele>214.3</ele>
        <time>2025-01-10T09:22:15.000Z</time>
      </trkpt>
      <trkpt lat="43.59094" lon="6.8377">
        <ele>214.3</ele>
        <time>2025-01-10T09:22:14.000Z</time>
      </trkpt>
      <trkpt lat="43.59093" lon="6.8377">
        <ele>214.3</ele>
        <time>2025-01-10T09:22:13.000Z</time>
      </trkpt>
      <trkpt lat="43.59093" lon="6.8377">
        <ele>214.3</ele>
        <time>2025-01-10T09:22:12.000Z</time>
      </trkpt>
      <trkpt lat="43.59093" lon="6.8377">
        <ele>214.3</ele>
        <time>2025-01-10T09:22:11.000Z</time>
      </trkpt>
      <trkpt lat="43.59093" lon="6.8377">
        <ele>214.3</ele>
        <time>2025-01-10T09:22:10.000Z</time>
      </trkpt>
      <trkpt lat="43.59093" lon="6.8377">
        <ele>214.3</ele>
        <time>2025-01-10T09:22:09.000Z</time>
      </trkpt>
      <trkpt lat="43.59093" lon="6.8377">
        <ele>214.3</ele>
        <time>2025-01-10T09:22:08.000Z</time>
      </trkpt>
      <trkpt lat="43.59093" lon="6.8377">
        <ele>214.3</ele>
        <time>2025-01-10T09:22:07.000Z</time>
      </trkpt>
      <trkpt lat="43.59093" lon="6.8377">
        <ele>214.3</ele>
        <time>2025-01-10T09:22:06.000Z</time>
      </trkpt>
      <trkpt lat="43.59093" lon="6.8377">
        <ele>214.3</ele>
        <time>2025-01-10T09:22:05.000Z</time>
      </trkpt>
      <trkpt lat="43.59093" lon="6.83771">
        <ele>214.3</ele>
        <time>2025-01-10T09:22:04.000Z</time>
      </trkpt>
      <trkpt lat="43.59093" lon="6.83771">
        <ele>214.3</ele>
        <time>2025-01-10T09:22:03.000Z</time>
      </trkpt>
      <trkpt lat="43.59093" lon="6.83771">
        <ele>214.3</ele>
        <time>2025-01-10T09:22:02.000Z</time>
      </trkpt>
      <trkpt lat="43.59092" lon="6.83771">
        <ele>214.3</ele>
        <time>2025-01-10T09:22:01.000Z</time>
      </trkpt>
      <trkpt lat="43.59092" lon="6.83771">
        <ele>214.3</ele>
        <time>2025-01-10T09:22:00.000Z</time>
      </trkpt>
      <trkpt lat="43.59092" lon="6.83771">
        <ele>214.3</ele>
        <time>2025-01-10T09:21:59.000Z</time>
      </trkpt>
      <trkpt lat="43.59092" lon="6.83771">
        <ele>214.3</ele>
        <time>2025-01-10T09:21:58.000Z</time>
      </trkpt>
      <trkpt lat="43.59091" lon="6.83771">
        <ele>214.3</ele>
        <time>2025-01-10T09:21:57.000Z</time>
      </trkpt>
      <trkpt lat="43.59091" lon="6.83771">
        <ele>214.4</ele>
        <time>2025-01-10T09:21:56.000Z</time>
      </trkpt>
      <trkpt lat="43.5909" lon="6.83771">
        <ele>214.4</ele>
        <time>2025-01-10T09:21:55.000Z</time>
      </trkpt>
      <trkpt lat="43.5909" lon="6.83771">
        <ele>214.4</ele>
        <time>2025-01-10T09:21:54.000Z</time>
      </trkpt>
      <trkpt lat="43.5909" lon="6.83771">
        <ele>214.4</ele>
        <time>2025-01-10T09:21:53.000Z</time>
      </trkpt>
      <trkpt lat="43.5909" lon="6.83771">
        <ele>214.4</ele>
        <time>2025-01-10T09:21:52.000Z</time>
      </trkpt>
      <trkpt lat="43.5909" lon="6.8377">
        <ele>214.4</ele>
        <time>2025-01-10T09:21:51.000Z</time>
      </trkpt>
      <trkpt lat="43.5909" lon="6.8377">
        <ele>214.4</ele>
        <time>2025-01-10T09:21:50.000Z</time>
      </trkpt>
      <trkpt lat="43.59089" lon="6.8377">
        <ele>214.4</ele>
        <time>2025-01-10T09:21:49.000Z</time>
      </trkpt>
      <trkpt lat="43.59089" lon="6.8377">
        <ele>214.4</ele>
        <time>2025-01-10T09:21:48.000Z</time>
      </trkpt>
      <trkpt lat="43.59089" lon="6.8377">
        <ele>214.4</ele>
        <time>2025-01-10T09:21:47.000Z</time>
      </trkpt>
      <trkpt lat="43.59089" lon="6.8377">
        <ele>214.4</ele>
        <time>2025-01-10T09:21:46.000Z</time>
      </trkpt>
      <trkpt lat="43.59089" lon="6.8377">
        <ele>214.4</ele>
        <time>2025-01-10T09:21:45.000Z</time>
      </trkpt>
      <trkpt lat="43.59089" lon="6.8377">
        <ele>214.4</ele>
        <time>2025-01-10T09:21:44.000Z</time>
      </trkpt>
      <trkpt lat="43.59089" lon="6.8377">
        <ele>214.4</ele>
        <time>2025-01-10T09:21:43.000Z</time>
      </trkpt>
      <trkpt lat="43.59089" lon="6.8377">
        <ele>214.4</ele>
        <time>2025-01-10T09:21:42.000Z</time>
      </trkpt>
      <trkpt lat="43.59089" lon="6.8377">
        <ele>214.4</ele>
        <time>2025-01-10T09:21:41.000Z</time>
      </trkpt>
      <trkpt lat="43.59089" lon="6.8377">
        <ele>214.4</ele>
        <time>2025-01-10T09:21:40.000Z</time>
      </trkpt>
      <trkpt lat="43.59089" lon="6.8377">
        <ele>214.4</ele>
        <time>2025-01-10T09:21:39.000Z</time>
      </trkpt>
      <trkpt lat="43.59088" lon="6.8377">
        <ele>214.4</ele>
        <time>2025-01-10T09:21:38.000Z</time>
      </trkpt>
      <trkpt lat="43.59088" lon="6.8377">
        <ele>214.4</ele>
        <time>2025-01-10T09:21:37.000Z</time>
      </trkpt>
      <trkpt lat="43.59088" lon="6.8377">
        <ele>214.4</ele>
        <time>2025-01-10T09:21:36.000Z</time>
      </trkpt>
      <trkpt lat="43.59088" lon="6.8377">
        <ele>214.4</ele>
        <time>2025-01-10T09:21:35.000Z</time>
      </trkpt>
      <trkpt lat="43.59088" lon="6.83769">
        <ele>214.4</ele>
        <time>2025-01-10T09:21:34.000Z</time>
      </trkpt>
      <trkpt lat="43.59088" lon="6.83769">
        <ele>214.4</ele>
        <time>2025-01-10T09:21:33.000Z</time>
      </trkpt>
      <trkpt lat="43.59088" lon="6.83769">
        <ele>214.4</ele>
        <time>2025-01-10T09:21:32.000Z</time>
      </trkpt>
      <trkpt lat="43.59088" lon="6.83769">
        <ele>214.4</ele>
        <time>2025-01-10T09:21:31.000Z</time>
      </trkpt>
      <trkpt lat="43.59088" lon="6.83769">
        <ele>214.4</ele>
        <time>2025-01-10T09:21:30.000Z</time>
      </trkpt>
      <trkpt lat="43.59088" lon="6.83769">
        <ele>214.4</ele>
        <time>2025-01-10T09:21:29.000Z</time>
      </trkpt>
      <trkpt lat="43.59088" lon="6.83769">
        <ele>214.4</ele>
        <time>2025-01-10T09:21:28.000Z</time>
      </trkpt>
      <trkpt lat="43.59088" lon="6.83769">
        <ele>214.4</ele>
        <time>2025-01-10T09:21:27.000Z</time>
      </trkpt>
      <trkpt lat="43.59088" lon="6.83769">
        <ele>214.4</ele>
        <time>2025-01-10T09:21:26.000Z</time>
      </trkpt>
      <trkpt lat="43.59088" lon="6.83769">
        <ele>214.4</ele>
        <time>2025-01-10T09:21:25.000Z</time>
      </trkpt>
      <trkpt lat="43.59088" lon="6.83768">
        <ele>214.4</ele>
        <time>2025-01-10T09:21:24.000Z</time>
      </trkpt>
      <trkpt lat="43.59088" lon="6.83768">
        <ele>214.4</ele>
        <time>2025-01-10T09:21:23.000Z</time>
      </trkpt>
      <trkpt lat="43.59088" lon="6.83768">
        <ele>214.4</ele>
        <time>2025-01-10T09:21:22.000Z</time>
      </trkpt>
      <trkpt lat="43.59088" lon="6.83768">
        <ele>214.4</ele>
        <time>2025-01-10T09:21:21.000Z</time>
      </trkpt>
      <trkpt lat="43.59088" lon="6.83768">
        <ele>214.4</ele>
        <time>2025-01-10T09:21:20.000Z</time>
      </trkpt>
      <trkpt lat="43.59088" lon="6.83768">
        <ele>214.4</ele>
        <time>2025-01-10T09:21:19.000Z</time>
      </trkpt>
      <trkpt lat="43.59088" lon="6.83768">
        <ele>214.4</ele>
        <time>2025-01-10T09:21:18.000Z</time>
      </trkpt>
      <trkpt lat="43.59088" lon="6.83768">
        <ele>214.4</ele>
        <time>2025-01-10T09:21:17.000Z</time>
      </trkpt>
      <trkpt lat="43.59088" lon="6.83768">
        <ele>214.4</ele>
        <time>2025-01-10T09:21:16.000Z</time>
      </trkpt>
      <trkpt lat="43.59088" lon="6.83768">
        <ele>214.4</ele>
        <time>2025-01-10T09:21:15.000Z</time>
      </trkpt>
      <trkpt lat="43.59088" lon="6.83768">
        <ele>214.4</ele>
        <time>2025-01-10T09:21:14.000Z</time>
      </trkpt>
      <trkpt lat="43.59087" lon="6.83768">
        <ele>214.4</ele>
        <time>2025-01-10T09:21:13.000Z</time>
      </trkpt>
      <trkpt lat="43.59087" lon="6.83768">
        <ele>214.4</ele>
        <time>2025-01-10T09:21:12.000Z</time>
      </trkpt>
      <trkpt lat="43.59087" lon="6.83768">
        <ele>214.4</ele>
        <time>2025-01-10T09:21:11.000Z</time>
      </trkpt>
      <trkpt lat="43.59087" lon="6.83768">
        <ele>214.4</ele>
        <time>2025-01-10T09:21:10.000Z</time>
      </trkpt>
      <trkpt lat="43.59087" lon="6.83768">
        <ele>214.4</ele>
        <time>2025-01-10T09:21:09.000Z</time>
      </trkpt>
      <trkpt lat="43.59087" lon="6.83768">
        <ele>214.4</ele>
        <time>2025-01-10T09:21:08.000Z</time>
      </trkpt>
      <trkpt lat="43.59087" lon="6.83768">
        <ele>214.4</ele>
        <time>2025-01-10T09:21:07.000Z</time>
      </trkpt>
      <trkpt lat="43.59087" lon="6.83769">
        <ele>214.4</ele>
        <time>2025-01-10T09:21:06.000Z</time>
      </trkpt>
      <trkpt lat="43.59087" lon="6.83769">
        <ele>214.4</ele>
        <time>2025-01-10T09:21:05.000Z</time>
      </trkpt>
      <trkpt lat="43.59087" lon="6.83769">
        <ele>214.4</ele>
        <time>2025-01-10T09:21:04.000Z</time>
      </trkpt>
      <trkpt lat="43.59087" lon="6.8377">
        <ele>214.5</ele>
        <time>2025-01-10T09:21:03.000Z</time>
      </trkpt>
      <trkpt lat="43.59087" lon="6.8377">
        <ele>214.5</ele>
        <time>2025-01-10T09:21:02.000Z</time>
      </trkpt>
      <trkpt lat="43.59087" lon="6.83771">
        <ele>214.5</ele>
        <time>2025-01-10T09:21:01.000Z</time>
      </trkpt>
      <trkpt lat="43.59087" lon="6.83771">
        <ele>214.5</ele>
        <time>2025-01-10T09:21:00.000Z</time>
      </trkpt>
      <trkpt lat="43.59087" lon="6.83771">
        <ele>214.5</ele>
        <time>2025-01-10T09:20:59.000Z</time>
      </trkpt>
      <trkpt lat="43.59087" lon="6.83772">
        <ele>214.5</ele>
        <time>2025-01-10T09:20:58.000Z</time>
      </trkpt>
      <trkpt lat="43.59087" lon="6.83772">
        <ele>214.5</ele>
        <time>2025-01-10T09:20:57.000Z</time>
      </trkpt>
      <trkpt lat="43.59087" lon="6.83772">
        <ele>214.5</ele>
        <time>2025-01-10T09:20:56.000Z</time>
      </trkpt>
      <trkpt lat="43.59087" lon="6.83772">
        <ele>214.5</ele>
        <time>2025-01-10T09:20:55.000Z</time>
      </trkpt>
      <trkpt lat="43.59087" lon="6.83772">
        <ele>214.5</ele>
        <time>2025-01-10T09:20:54.000Z</time>
      </trkpt>
      <trkpt lat="43.59087" lon="6.83772">
        <ele>214.5</ele>
        <time>2025-01-10T09:20:53.000Z</time>
      </trkpt>
      <trkpt lat="43.59087" lon="6.83773">
        <ele>214.5</ele>
        <time>2025-01-10T09:20:52.000Z</time>
      </trkpt>
      <trkpt lat="43.59087" lon="6.83773">
        <ele>214.5</ele>
        <time>2025-01-10T09:20:51.000Z</time>
      </trkpt>
      <trkpt lat="43.59087" lon="6.83773">
        <ele>214.5</ele>
        <time>2025-01-10T09:20:50.000Z</time>
      </trkpt>
      <trkpt lat="43.59087" lon="6.83773">
        <ele>214.5</ele>
        <time>2025-01-10T09:20:49.000Z</time>
      </trkpt>
      <trkpt lat="43.59087" lon="6.83773">
        <ele>214.5</ele>
        <time>2025-01-10T09:20:48.000Z</time>
      </trkpt>
      <trkpt lat="43.59087" lon="6.83773">
        <ele>214.5</ele>
        <time>2025-01-10T09:20:47.000Z</time>
      </trkpt>
      <trkpt lat="43.59087" lon="6.83773">
        <ele>214.5</ele>
        <time>2025-01-10T09:20:46.000Z</time>
      </trkpt>
      <trkpt lat="43.59087" lon="6.83773">
        <ele>214.5</ele>
        <time>2025-01-10T09:20:45.000Z</time>
      </trkpt>
      <trkpt lat="43.59087" lon="6.83773">
        <ele>214.5</ele>
        <time>2025-01-10T09:20:44.000Z</time>
      </trkpt>
      <trkpt lat="43.59088" lon="6.83773">
        <ele>214.5</ele>
        <time>2025-01-10T09:20:43.000Z</time>
      </trkpt>
      <trkpt lat="43.59088" lon="6.83773">
        <ele>214.5</ele>
        <time>2025-01-10T09:20:42.000Z</time>
      </trkpt>
      <trkpt lat="43.59088" lon="6.83773">
        <ele>214.5</ele>
        <time>2025-01-10T09:20:41.000Z</time>
      </trkpt>
      <trkpt lat="43.59088" lon="6.83773">
        <ele>214.5</ele>
        <time>2025-01-10T09:20:40.000Z</time>
      </trkpt>
      <trkpt lat="43.59088" lon="6.83773">
        <ele>214.5</ele>
        <time>2025-01-10T09:20:39.000Z</time>
      </trkpt>
      <trkpt lat="43.59088" lon="6.83773">
        <ele>214.5</ele>
        <time>2025-01-10T09:20:38.000Z</time>
      </trkpt>
      <trkpt lat="43.59088" lon="6.83773">
        <ele>214.5</ele>
        <time>2025-01-10T09:20:37.000Z</time>
      </trkpt>
      <trkpt lat="43.59088" lon="6.83773">
        <ele>214.5</ele>
        <time>2025-01-10T09:20:36.000Z</time>
      </trkpt>
      <trkpt lat="43.59088" lon="6.83773">
        <ele>214.5</ele>
        <time>2025-01-10T09:20:35.000Z</time>
      </trkpt>
      <trkpt lat="43.59088" lon="6.83773">
        <ele>214.5</ele>
        <time>2025-01-10T09:20:34.000Z</time>
      </trkpt>
      <trkpt lat="43.59088" lon="6.83773">
        <ele>214.5</ele>
        <time>2025-01-10T09:20:33.000Z</time>
      </trkpt>
      <trkpt lat="43.59088" lon="6.83773">
        <ele>214.5</ele>
        <time>2025-01-10T09:20:32.000Z</time>
      </trkpt>
      <trkpt lat="43.59088" lon="6.83773">
        <ele>214.5</ele>
        <time>2025-01-10T09:20:31.000Z</time>
      </trkpt>
      <trkpt lat="43.59088" lon="6.83773">
        <ele>214.5</ele>
        <time>2025-01-10T09:20:30.000Z</time>
      </trkpt>
      <trkpt lat="43.59088" lon="6.83773">
        <ele>214.5</ele>
        <time>2025-01-10T09:20:29.000Z</time>
      </trkpt>
      <trkpt lat="43.59088" lon="6.83773">
        <ele>214.5</ele>
        <time>2025-01-10T09:20:28.000Z</time>
      </trkpt>
      <trkpt lat="43.59088" lon="6.83773">
        <ele>214.5</ele>
        <time>2025-01-10T09:20:27.000Z</time>
      </trkpt>
      <trkpt lat="43.59088" lon="6.83773">
        <ele>214.5</ele>
        <time>2025-01-10T09:20:26.000Z</time>
      </trkpt>
      <trkpt lat="43.59087" lon="6.83773">
        <ele>214.5</ele>
        <time>2025-01-10T09:20:25.000Z</time>
      </trkpt>
      <trkpt lat="43.59087" lon="6.83773">
        <ele>214.5</ele>
        <time>2025-01-10T09:20:24.000Z</time>
      </trkpt>
      <trkpt lat="43.59087" lon="6.83773">
        <ele>214.5</ele>
        <time>2025-01-10T09:20:23.000Z</time>
      </trkpt>
      <trkpt lat="43.59087" lon="6.83773">
        <ele>214.5</ele>
        <time>2025-01-10T09:20:22.000Z</time>
      </trkpt>
      <trkpt lat="43.59087" lon="6.83774">
        <ele>214.5</ele>
        <time>2025-01-10T09:20:21.000Z</time>
      </trkpt>
      <trkpt lat="43.59088" lon="6.83774">
        <ele>214.5</ele>
        <time>2025-01-10T09:20:20.000Z</time>
      </trkpt>
      <trkpt lat="43.59089" lon="6.83774">
        <ele>214.5</ele>
        <time>2025-01-10T09:20:19.000Z</time>
      </trkpt>
      <trkpt lat="43.59089" lon="6.83774">
        <ele>214.5</ele>
        <time>2025-01-10T09:20:18.000Z</time>
      </trkpt>
      <trkpt lat="43.5909" lon="6.83774">
        <ele>214.5</ele>
        <time>2025-01-10T09:20:17.000Z</time>
      </trkpt>
      <trkpt lat="43.5909" lon="6.83774">
        <ele>214.6</ele>
        <time>2025-01-10T09:20:16.000Z</time>
      </trkpt>
      <trkpt lat="43.59089" lon="6.83774">
        <ele>214.6</ele>
        <time>2025-01-10T09:20:15.000Z</time>
      </trkpt>
      <trkpt lat="43.59089" lon="6.83775">
        <ele>214.6</ele>
        <time>2025-01-10T09:20:14.000Z</time>
      </trkpt>
      <trkpt lat="43.59089" lon="6.83775">
        <ele>214.6</ele>
        <time>2025-01-10T09:20:13.000Z</time>
      </trkpt>
      <trkpt lat="43.5909" lon="6.83776">
        <ele>214.6</ele>
        <time>2025-01-10T09:20:12.000Z</time>
      </trkpt>
      <trkpt lat="43.5909" lon="6.83777">
        <ele>214.6</ele>
        <time>2025-01-10T09:20:11.000Z</time>
      </trkpt>
      <trkpt lat="43.5909" lon="6.83777">
        <ele>214.6</ele>
        <time>2025-01-10T09:20:10.000Z</time>
      </trkpt>
      <trkpt lat="43.5909" lon="6.83776">
        <ele>214.6</ele>
        <time>2025-01-10T09:20:09.000Z</time>
      </trkpt>
      <trkpt lat="43.5909" lon="6.83776">
        <ele>214.6</ele>
        <time>2025-01-10T09:20:08.000Z</time>
      </trkpt>
      <trkpt lat="43.5909" lon="6.83776">
        <ele>214.6</ele>
        <time>2025-01-10T09:20:07.000Z</time>
      </trkpt>
      <trkpt lat="43.5909" lon="6.83776">
        <ele>214.6</ele>
        <time>2025-01-10T09:20:06.000Z</time>
      </trkpt>
      <trkpt lat="43.5909" lon="6.83776">
        <ele>214.6</ele>
        <time>2025-01-10T09:20:05.000Z</time>
      </trkpt>
      <trkpt lat="43.5909" lon="6.83776">
        <ele>214.6</ele>
        <time>2025-01-10T09:20:04.000Z</time>
      </trkpt>
      <trkpt lat="43.5909" lon="6.83775">
        <ele>214.6</ele>
        <time>2025-01-10T09:20:03.000Z</time>
      </trkpt>
      <trkpt lat="43.59091" lon="6.83774">
        <ele>214.6</ele>
        <time>2025-01-10T09:20:02.000Z</time>
      </trkpt>
      <trkpt lat="43.59091" lon="6.83773">
        <ele>214.6</ele>
        <time>2025-01-10T09:20:01.000Z</time>
      </trkpt>
      <trkpt lat="43.59091" lon="6.83771">
        <ele>214.6</ele>
        <time>2025-01-10T09:20:00.000Z</time>
      </trkpt>
      <trkpt lat="43.5909" lon="6.8377">
        <ele>214.6</ele>
        <time>2025-01-10T09:19:59.000Z</time>
      </trkpt>
      <trkpt lat="43.59089" lon="6.8377">
        <ele>214.6</ele>
        <time>2025-01-10T09:19:58.000Z</time>
      </trkpt>
      <trkpt lat="43.59088" lon="6.8377">
        <ele>214.6</ele>
        <time>2025-01-10T09:19:57.000Z</time>
      </trkpt>
      <trkpt lat="43.59089" lon="6.83771">
        <ele>214.6</ele>
        <time>2025-01-10T09:19:56.000Z</time>
      </trkpt>
      <trkpt lat="43.59088" lon="6.83771">
        <ele>214.6</ele>
        <time>2025-01-10T09:19:55.000Z</time>
      </trkpt>
      <trkpt lat="43.59088" lon="6.83772">
        <ele>214.6</ele>
        <time>2025-01-10T09:19:54.000Z</time>
      </trkpt>
      <trkpt lat="43.59087" lon="6.83772">
        <ele>214.6</ele>
        <time>2025-01-10T09:19:53.000Z</time>
      </trkpt>
      <trkpt lat="43.59087" lon="6.83772">
        <ele>214.6</ele>
        <time>2025-01-10T09:19:52.000Z</time>
      </trkpt>
      <trkpt lat="43.59087" lon="6.83773">
        <ele>214.6</ele>
        <time>2025-01-10T09:19:51.000Z</time>
      </trkpt>
      <trkpt lat="43.59087" lon="6.83774">
        <ele>214.6</ele>
        <time>2025-01-10T09:19:50.000Z</time>
      </trkpt>
      <trkpt lat="43.59086" lon="6.83774">
        <ele>214.6</ele>
        <time>2025-01-10T09:19:49.000Z</time>
      </trkpt>
      <trkpt lat="43.59087" lon="6.83774">
        <ele>214.6</ele>
        <time>2025-01-10T09:19:48.000Z</time>
      </trkpt>
      <trkpt lat="43.59087" lon="6.83773">
        <ele>214.5</ele>
        <time>2025-01-10T09:19:47.000Z</time>
      </trkpt>
      <trkpt lat="43.59087" lon="6.83773">
        <ele>214.5</ele>
        <time>2025-01-10T09:19:46.000Z</time>
      </trkpt>
      <trkpt lat="43.59088" lon="6.83773">
        <ele>214.5</ele>
        <time>2025-01-10T09:19:45.000Z</time>
      </trkpt>
      <trkpt lat="43.59088" lon="6.83774">
        <ele>214.5</ele>
        <time>2025-01-10T09:19:44.000Z</time>
      </trkpt>
      <trkpt lat="43.59089" lon="6.83775">
        <ele>214.5</ele>
        <time>2025-01-10T09:19:43.000Z</time>
      </trkpt>
      <trkpt lat="43.5909" lon="6.83776">
        <ele>214.5</ele>
        <time>2025-01-10T09:19:42.000Z</time>
      </trkpt>
      <trkpt lat="43.59091" lon="6.83776">
        <ele>214.5</ele>
        <time>2025-01-10T09:19:41.000Z</time>
      </trkpt>
      <trkpt lat="43.59091" lon="6.83776">
        <ele>214.4</ele>
        <time>2025-01-10T09:19:40.000Z</time>
      </trkpt>
      <trkpt lat="43.59091" lon="6.83776">
        <ele>214.4</ele>
        <time>2025-01-10T09:19:39.000Z</time>
      </trkpt>
      <trkpt lat="43.59091" lon="6.83776">
        <ele>214.4</ele>
        <time>2025-01-10T09:19:38.000Z</time>
      </trkpt>
      <trkpt lat="43.59092" lon="6.83776">
        <ele>214.4</ele>
        <time>2025-01-10T09:19:37.000Z</time>
      </trkpt>
      <trkpt lat="43.59092" lon="6.83777">
        <ele>214.4</ele>
        <time>2025-01-10T09:19:36.000Z</time>
      </trkpt>
      <trkpt lat="43.59092" lon="6.83777">
        <ele>214.4</ele>
        <time>2025-01-10T09:19:35.000Z</time>
      </trkpt>
      <trkpt lat="43.59092" lon="6.83777">
        <ele>214.4</ele>
        <time>2025-01-10T09:19:34.000Z</time>
      </trkpt>
      <trkpt lat="43.59092" lon="6.83777">
        <ele>214.4</ele>
        <time>2025-01-10T09:19:33.000Z</time>
      </trkpt>
      <trkpt lat="43.59092" lon="6.83777">
        <ele>214.4</ele>
        <time>2025-01-10T09:19:32.000Z</time>
      </trkpt>
      <trkpt lat="43.59093" lon="6.83778">
        <ele>214.4</ele>
        <time>2025-01-10T09:19:31.000Z</time>
      </trkpt>
      <trkpt lat="43.59093" lon="6.83778">
        <ele>214.4</ele>
        <time>2025-01-10T09:19:30.000Z</time>
      </trkpt>
      <trkpt lat="43.59093" lon="6.83778">
        <ele>214.4</ele>
        <time>2025-01-10T09:19:29.000Z</time>
      </trkpt>
      <trkpt lat="43.59093" lon="6.83778">
        <ele>214.4</ele>
        <time>2025-01-10T09:19:28.000Z</time>
      </trkpt>
      <trkpt lat="43.59094" lon="6.83778">
        <ele>214.3</ele>
        <time>2025-01-10T09:19:27.000Z</time>
      </trkpt>
      <trkpt lat="43.59094" lon="6.83778">
        <ele>214.3</ele>
        <time>2025-01-10T09:19:26.000Z</time>
      </trkpt>
      <trkpt lat="43.59094" lon="6.83779">
        <ele>214.3</ele>
        <time>2025-01-10T09:19:25.000Z</time>
      </trkpt>
      <trkpt lat="43.59094" lon="6.83779">
        <ele>214.3</ele>
        <time>2025-01-10T09:19:24.000Z</time>
      </trkpt>
      <trkpt lat="43.59094" lon="6.83779">
        <ele>214.3</ele>
        <time>2025-01-10T09:19:23.000Z</time>
      </trkpt>
      <trkpt lat="43.59094" lon="6.83779">
        <ele>214.3</ele>
        <time>2025-01-10T09:19:22.000Z</time>
      </trkpt>
      <trkpt lat="43.59094" lon="6.83779">
        <ele>214.3</ele>
        <time>2025-01-10T09:19:21.000Z</time>
      </trkpt>
      <trkpt lat="43.59094" lon="6.83779">
        <ele>214.3</ele>
        <time>2025-01-10T09:19:20.000Z</time>
      </trkpt>
      <trkpt lat="43.59094" lon="6.83779">
        <ele>214.3</ele>
        <time>2025-01-10T09:19:19.000Z</time>
      </trkpt>
      <trkpt lat="43.59094" lon="6.83779">
        <ele>214.3</ele>
        <time>2025-01-10T09:19:18.000Z</time>
      </trkpt>
      <trkpt lat="43.59094" lon="6.83779">
        <ele>214.3</ele>
        <time>2025-01-10T09:19:17.000Z</time>
      </trkpt>
      <trkpt lat="43.59094" lon="6.83779">
        <ele>214.3</ele>
        <time>2025-01-10T09:19:16.000Z</time>
      </trkpt>
      <trkpt lat="43.59094" lon="6.83779">
        <ele>214.3</ele>
        <time>2025-01-10T09:19:15.000Z</time>
      </trkpt>
      <trkpt lat="43.59094" lon="6.83779">
        <ele>214.3</ele>
        <time>2025-01-10T09:19:14.000Z</time>
      </trkpt>
      <trkpt lat="43.59094" lon="6.83779">
        <ele>214.3</ele>
        <time>2025-01-10T09:19:13.000Z</time>
      </trkpt>
      <trkpt lat="43.59094" lon="6.83779">
        <ele>214.3</ele>
        <time>2025-01-10T09:19:12.000Z</time>
      </trkpt>
      <trkpt lat="43.59094" lon="6.83779">
        <ele>214.3</ele>
        <time>2025-01-10T09:19:11.000Z</time>
      </trkpt>
      <trkpt lat="43.59094" lon="6.83779">
        <ele>214.3</ele>
        <time>2025-01-10T09:19:10.000Z</time>
      </trkpt>
      <trkpt lat="43.59094" lon="6.83779">
        <ele>214.3</ele>
        <time>2025-01-10T09:19:09.000Z</time>
      </trkpt>
      <trkpt lat="43.59093" lon="6.83779">
        <ele>214.3</ele>
        <time>2025-01-10T09:19:08.000Z</time>
      </trkpt>
      <trkpt lat="43.59093" lon="6.83779">
        <ele>214.3</ele>
        <time>2025-01-10T09:19:07.000Z</time>
      </trkpt>
      <trkpt lat="43.59093" lon="6.83779">
        <ele>214.3</ele>
        <time>2025-01-10T09:19:06.000Z</time>
      </trkpt>
      <trkpt lat="43.59093" lon="6.83779">
        <ele>214.3</ele>
        <time>2025-01-10T09:19:05.000Z</time>
      </trkpt>
      <trkpt lat="43.59093" lon="6.83779">
        <ele>214.3</ele>
        <time>2025-01-10T09:19:04.000Z</time>
      </trkpt>
      <trkpt lat="43.59092" lon="6.83779">
        <ele>214.3</ele>
        <time>2025-01-10T09:19:03.000Z</time>
      </trkpt>
      <trkpt lat="43.59092" lon="6.83779">
        <ele>214.3</ele>
        <time>2025-01-10T09:19:02.000Z</time>
      </trkpt>
      <trkpt lat="43.59092" lon="6.83778">
        <ele>214.3</ele>
        <time>2025-01-10T09:19:01.000Z</time>
      </trkpt>
      <trkpt lat="43.59092" lon="6.83778">
        <ele>214.2</ele>
        <time>2025-01-10T09:19:00.000Z</time>
      </trkpt>
      <trkpt lat="43.59092" lon="6.83777">
        <ele>214.2</ele>
        <time>2025-01-10T09:18:59.000Z</time>
      </trkpt>
      <trkpt lat="43.59092" lon="6.83777">
        <ele>214.2</ele>
        <time>2025-01-10T09:18:58.000Z</time>
      </trkpt>
      <trkpt lat="43.59092" lon="6.83777">
        <ele>214.2</ele>
        <time>2025-01-10T09:18:57.000Z</time>
      </trkpt>
      <trkpt lat="43.59092" lon="6.83777">
        <ele>214.2</ele>
        <time>2025-01-10T09:18:56.000Z</time>
      </trkpt>
      <trkpt lat="43.59092" lon="6.83777">
        <ele>214.2</ele>
        <time>2025-01-10T09:18:55.000Z</time>
      </trkpt>
      <trkpt lat="43.59092" lon="6.83777">
        <ele>214.2</ele>
        <time>2025-01-10T09:18:54.000Z</time>
      </trkpt>
      <trkpt lat="43.59092" lon="6.83777">
        <ele>214.2</ele>
        <time>2025-01-10T09:18:53.000Z</time>
      </trkpt>
      <trkpt lat="43.59092" lon="6.83777">
        <ele>214.2</ele>
        <time>2025-01-10T09:18:52.000Z</time>
      </trkpt>
      <trkpt lat="43.59092" lon="6.83777">
        <ele>214.2</ele>
        <time>2025-01-10T09:18:51.000Z</time>
      </trkpt>
      <trkpt lat="43.59092" lon="6.83777">
        <ele>214.2</ele>
        <time>2025-01-10T09:18:50.000Z</time>
      </trkpt>
      <trkpt lat="43.59092" lon="6.83777">
        <ele>214.2</ele>
        <time>2025-01-10T09:18:49.000Z</time>
      </trkpt>
      <trkpt lat="43.59092" lon="6.83777">
        <ele>214.2</ele>
        <time>2025-01-10T09:18:48.000Z</time>
      </trkpt>
      <trkpt lat="43.59092" lon="6.83777">
        <ele>214.2</ele>
        <time>2025-01-10T09:18:47.000Z</time>
      </trkpt>
      <trkpt lat="43.59092" lon="6.83777">
        <ele>214.2</ele>
        <time>2025-01-10T09:18:46.000Z</time>
      </trkpt>
      <trkpt lat="43.59092" lon="6.83777">
        <ele>214.2</ele>
        <time>2025-01-10T09:18:45.000Z</time>
      </trkpt>
      <trkpt lat="43.59092" lon="6.83777">
        <ele>214.2</ele>
        <time>2025-01-10T09:18:44.000Z</time>
      </trkpt>
      <trkpt lat="43.59092" lon="6.83777">
        <ele>214.2</ele>
        <time>2025-01-10T09:18:43.000Z</time>
      </trkpt>
      <trkpt lat="43.59092" lon="6.83777">
        <ele>214.2</ele>
        <time>2025-01-10T09:18:42.000Z</time>
      </trkpt>
      <trkpt lat="43.59092" lon="6.83776">
        <ele>214.2</ele>
        <time>2025-01-10T09:18:41.000Z</time>
      </trkpt>
      <trkpt lat="43.59092" lon="6.83776">
        <ele>214.2</ele>
        <time>2025-01-10T09:18:40.000Z</time>
      </trkpt>
      <trkpt lat="43.59093" lon="6.83776">
        <ele>214.2</ele>
        <time>2025-01-10T09:18:39.000Z</time>
      </trkpt>
      <trkpt lat="43.59093" lon="6.83776">
        <ele>214.2</ele>
        <time>2025-01-10T09:18:38.000Z</time>
      </trkpt>
      <trkpt lat="43.59093" lon="6.83776">
        <ele>214.2</ele>
        <time>2025-01-10T09:18:37.000Z</time>
      </trkpt>
      <trkpt lat="43.59093" lon="6.83776">
        <ele>214.2</ele>
        <time>2025-01-10T09:18:36.000Z</time>
      </trkpt>
      <trkpt lat="43.59093" lon="6.83776">
        <ele>214.2</ele>
        <time>2025-01-10T09:18:35.000Z</time>
      </trkpt>
      <trkpt lat="43.59093" lon="6.83776">
        <ele>214.2</ele>
        <time>2025-01-10T09:18:34.000Z</time>
      </trkpt>
      <trkpt lat="43.59093" lon="6.83776">
        <ele>214.2</ele>
        <time>2025-01-10T09:18:33.000Z</time>
      </trkpt>
      <trkpt lat="43.59093" lon="6.83776">
        <ele>214.2</ele>
        <time>2025-01-10T09:18:32.000Z</time>
      </trkpt>
      <trkpt lat="43.59093" lon="6.83776">
        <ele>214.2</ele>
        <time>2025-01-10T09:18:31.000Z</time>
      </trkpt>
      <trkpt lat="43.59093" lon="6.83776">
        <ele>214.2</ele>
        <time>2025-01-10T09:18:30.000Z</time>
      </trkpt>
      <trkpt lat="43.59093" lon="6.83776">
        <ele>214.2</ele>
        <time>2025-01-10T09:18:29.000Z</time>
      </trkpt>
      <trkpt lat="43.59093" lon="6.83777">
        <ele>214.2</ele>
        <time>2025-01-10T09:18:28.000Z</time>
      </trkpt>
      <trkpt lat="43.59093" lon="6.83777">
        <ele>214.2</ele>
        <time>2025-01-10T09:18:27.000Z</time>
      </trkpt>
      <trkpt lat="43.59093" lon="6.83777">
        <ele>214.2</ele>
        <time>2025-01-10T09:18:26.000Z</time>
      </trkpt>
      <trkpt lat="43.59093" lon="6.83777">
        <ele>214.2</ele>
        <time>2025-01-10T09:18:25.000Z</time>
      </trkpt>
      <trkpt lat="43.59092" lon="6.83777">
        <ele>214.2</ele>
        <time>2025-01-10T09:18:24.000Z</time>
      </trkpt>
      <trkpt lat="43.59092" lon="6.83777">
        <ele>214.2</ele>
        <time>2025-01-10T09:18:23.000Z</time>
      </trkpt>
      <trkpt lat="43.59092" lon="6.83777">
        <ele>214.2</ele>
        <time>2025-01-10T09:18:22.000Z</time>
      </trkpt>
      <trkpt lat="43.59092" lon="6.83777">
        <ele>214.2</ele>
        <time>2025-01-10T09:18:21.000Z</time>
      </trkpt>
      <trkpt lat="43.59092" lon="6.83777">
        <ele>214.2</ele>
        <time>2025-01-10T09:18:20.000Z</time>
      </trkpt>
      <trkpt lat="43.59092" lon="6.83777">
        <ele>214.2</ele>
        <time>2025-01-10T09:18:19.000Z</time>
      </trkpt>
      <trkpt lat="43.59092" lon="6.83777">
        <ele>214.2</ele>
        <time>2025-01-10T09:18:18.000Z</time>
      </trkpt>
      <trkpt lat="43.59092" lon="6.83777">
        <ele>214.2</ele>
        <time>2025-01-10T09:18:17.000Z</time>
      </trkpt>
      <trkpt lat="43.59092" lon="6.83777">
        <ele>214.2</ele>
        <time>2025-01-10T09:18:16.000Z</time>
      </trkpt>
      <trkpt lat="43.59092" lon="6.83777">
        <ele>214.2</ele>
        <time>2025-01-10T09:18:15.000Z</time>
      </trkpt>
      <trkpt lat="43.59092" lon="6.83777">
        <ele>214.2</ele>
        <time>2025-01-10T09:18:14.000Z</time>
      </trkpt>
      <trkpt lat="43.59092" lon="6.83777">
        <ele>214.2</ele>
        <time>2025-01-10T09:18:13.000Z</time>
      </trkpt>
      <trkpt lat="43.59092" lon="6.83777">
        <ele>214.2</ele>
        <time>2025-01-10T09:18:12.000Z</time>
      </trkpt>
      <trkpt lat="43.59092" lon="6.83777">
        <ele>214.2</ele>
        <time>2025-01-10T09:18:11.000Z</time>
      </trkpt>
      <trkpt lat="43.59092" lon="6.83777">
        <ele>214.2</ele>
        <time>2025-01-10T09:18:10.000Z</time>
      </trkpt>
      <trkpt lat="43.59092" lon="6.83777">
        <ele>214.2</ele>
        <time>2025-01-10T09:18:09.000Z</time>
      </trkpt>
      <trkpt lat="43.59092" lon="6.83777">
        <ele>214.2</ele>
        <time>2025-01-10T09:18:08.000Z</time>
      </trkpt>
      <trkpt lat="43.59091" lon="6.83778">
        <ele>214.1</ele>
        <time>2025-01-10T09:18:07.000Z</time>
      </trkpt>
      <trkpt lat="43.59091" lon="6.83779">
        <ele>214.1</ele>
        <time>2025-01-10T09:18:06.000Z</time>
      </trkpt>
      <trkpt lat="43.59091" lon="6.8378">
        <ele>214.1</ele>
        <time>2025-01-10T09:18:05.000Z</time>
      </trkpt>
      <trkpt lat="43.59091" lon="6.83781">
        <ele>214</ele>
        <time>2025-01-10T09:18:04.000Z</time>
      </trkpt>
      <trkpt lat="43.59092" lon="6.8378">
        <ele>214</ele>
        <time>2025-01-10T09:18:03.000Z</time>
      </trkpt>
      <trkpt lat="43.59092" lon="6.83779">
        <ele>214</ele>
        <time>2025-01-10T09:18:02.000Z</time>
      </trkpt>
      <trkpt lat="43.59091" lon="6.83778">
        <ele>214</ele>
        <time>2025-01-10T09:18:01.000Z</time>
      </trkpt>
      <trkpt lat="43.59091" lon="6.83777">
        <ele>213.9</ele>
        <time>2025-01-10T09:18:00.000Z</time>
      </trkpt>
      <trkpt lat="43.59091" lon="6.83777">
        <ele>213.9</ele>
        <time>2025-01-10T09:17:59.000Z</time>
      </trkpt>
      <trkpt lat="43.59091" lon="6.83778">
        <ele>213.9</ele>
        <time>2025-01-10T09:17:58.000Z</time>
      </trkpt>
      <trkpt lat="43.59091" lon="6.83778">
        <ele>213.9</ele>
        <time>2025-01-10T09:17:57.000Z</time>
      </trkpt>
      <trkpt lat="43.59091" lon="6.83777">
        <ele>213.9</ele>
        <time>2025-01-10T09:17:56.000Z</time>
      </trkpt>
      <trkpt lat="43.59091" lon="6.83776">
        <ele>213.9</ele>
        <time>2025-01-10T09:17:55.000Z</time>
      </trkpt>
      <trkpt lat="43.59091" lon="6.83774">
        <ele>213.8</ele>
        <time>2025-01-10T09:17:54.000Z</time>
      </trkpt>
      <trkpt lat="43.59091" lon="6.83771">
        <ele>213.7</ele>
        <time>2025-01-10T09:17:53.000Z</time>
      </trkpt>
      <trkpt lat="43.59091" lon="6.83766">
        <ele>213.6</ele>
        <time>2025-01-10T09:17:52.000Z</time>
      </trkpt>
      <trkpt lat="43.5909" lon="6.83761">
        <ele>213.5</ele>
        <time>2025-01-10T09:17:51.000Z</time>
      </trkpt>
      <trkpt lat="43.5909" lon="6.83756">
        <ele>213.4</ele>
        <time>2025-01-10T09:17:50.000Z</time>
      </trkpt>
      <trkpt lat="43.59089" lon="6.83751">
        <ele>213.3</ele>
        <time>2025-01-10T09:17:49.000Z</time>
      </trkpt>
      <trkpt lat="43.59089" lon="6.83746">
        <ele>213.1</ele>
        <time>2025-01-10T09:17:48.000Z</time>
      </trkpt>
      <trkpt lat="43.59087" lon="6.83741">
        <ele>213</ele>
        <time>2025-01-10T09:17:47.000Z</time>
      </trkpt>
      <trkpt lat="43.59087" lon="6.83737">
        <ele>212.9</ele>
        <time>2025-01-10T09:17:46.000Z</time>
      </trkpt>
      <trkpt lat="43.59089" lon="6.83732">
        <ele>212.8</ele>
        <time>2025-01-10T09:17:45.000Z</time>
      </trkpt>
      <trkpt lat="43.59092" lon="6.83728">
        <ele>212.7</ele>
        <time>2025-01-10T09:17:44.000Z</time>
      </trkpt>
      <trkpt lat="43.59096" lon="6.83725">
        <ele>212.6</ele>
        <time>2025-01-10T09:17:43.000Z</time>
      </trkpt>
      <trkpt lat="43.59099" lon="6.83722">
        <ele>212.6</ele>
        <time>2025-01-10T09:17:42.000Z</time>
      </trkpt>
      <trkpt lat="43.59102" lon="6.83719">
        <ele>212.6</ele>
        <time>2025-01-10T09:17:41.000Z</time>
      </trkpt>
      <trkpt lat="43.59105" lon="6.83716">
        <ele>212.6</ele>
        <time>2025-01-10T09:17:40.000Z</time>
      </trkpt>
      <trkpt lat="43.59108" lon="6.83712">
        <ele>212.6</ele>
        <time>2025-01-10T09:17:39.000Z</time>
      </trkpt>
      <trkpt lat="43.5911" lon="6.83709">
        <ele>212.7</ele>
        <time>2025-01-10T09:17:38.000Z</time>
      </trkpt>
      <trkpt lat="43.59113" lon="6.83705">
        <ele>212.9</ele>
        <time>2025-01-10T09:17:37.000Z</time>
      </trkpt>
      <trkpt lat="43.59115" lon="6.83701">
        <ele>213</ele>
        <time>2025-01-10T09:17:36.000Z</time>
      </trkpt>
      <trkpt lat="43.59117" lon="6.83697">
        <ele>213.2</ele>
        <time>2025-01-10T09:17:35.000Z</time>
      </trkpt>
      <trkpt lat="43.59119" lon="6.83693">
        <ele>213.4</ele>
        <time>2025-01-10T09:17:34.000Z</time>
      </trkpt>
      <trkpt lat="43.59122" lon="6.83688">
        <ele>213.6</ele>
        <time>2025-01-10T09:17:33.000Z</time>
      </trkpt>
      <trkpt lat="43.59124" lon="6.83682">
        <ele>213.9</ele>
        <time>2025-01-10T09:17:32.000Z</time>
      </trkpt>
      <trkpt lat="43.59125" lon="6.83675">
        <ele>214.2</ele>
        <time>2025-01-10T09:17:31.000Z</time>
      </trkpt>
      <trkpt lat="43.59125" lon="6.83668">
        <ele>214.4</ele>
        <time>2025-01-10T09:17:30.000Z</time>
      </trkpt>
      <trkpt lat="43.59124" lon="6.8366">
        <ele>214.6</ele>
        <time>2025-01-10T09:17:29.000Z</time>
      </trkpt>
      <trkpt lat="43.59122" lon="6.83654">
        <ele>214.8</ele>
        <time>2025-01-10T09:17:28.000Z</time>
      </trkpt>
      <trkpt lat="43.59119" lon="6.83648">
        <ele>214.9</ele>
        <time>2025-01-10T09:17:27.000Z</time>
      </trkpt>
      <trkpt lat="43.59116" lon="6.83643">
        <ele>215</ele>
        <time>2025-01-10T09:17:26.000Z</time>
      </trkpt>
      <trkpt lat="43.59115" lon="6.83638">
        <ele>215.1</ele>
        <time>2025-01-10T09:17:25.000Z</time>
      </trkpt>
      <trkpt lat="43.59113" lon="6.83633">
        <ele>215.1</ele>
        <time>2025-01-10T09:17:24.000Z</time>
      </trkpt>
      <trkpt lat="43.59112" lon="6.83628">
        <ele>215.2</ele>
        <time>2025-01-10T09:17:23.000Z</time>
      </trkpt>
      <trkpt lat="43.59113" lon="6.83624">
        <ele>215.3</ele>
        <time>2025-01-10T09:17:22.000Z</time>
      </trkpt>
      <trkpt lat="43.59115" lon="6.8362">
        <ele>215.4</ele>
        <time>2025-01-10T09:17:21.000Z</time>
      </trkpt>
      <trkpt lat="43.59119" lon="6.83618">
        <ele>215.6</ele>
        <time>2025-01-10T09:17:20.000Z</time>
      </trkpt>
      <trkpt lat="43.59124" lon="6.83618">
        <ele>215.8</ele>
        <time>2025-01-10T09:17:19.000Z</time>
      </trkpt>
      <trkpt lat="43.59128" lon="6.83617">
        <ele>216.1</ele>
        <time>2025-01-10T09:17:18.000Z</time>
      </trkpt>
      <trkpt lat="43.59132" lon="6.83615">
        <ele>216.4</ele>
        <time>2025-01-10T09:17:17.000Z</time>
      </trkpt>
      <trkpt lat="43.59135" lon="6.83612">
        <ele>216.7</ele>
        <time>2025-01-10T09:17:16.000Z</time>
      </trkpt>
      <trkpt lat="43.59138" lon="6.83609">
        <ele>217</ele>
        <time>2025-01-10T09:17:15.000Z</time>
      </trkpt>
      <trkpt lat="43.59142" lon="6.83604">
        <ele>217.4</ele>
        <time>2025-01-10T09:17:14.000Z</time>
      </trkpt>
      <trkpt lat="43.59144" lon="6.836">
        <ele>217.6</ele>
        <time>2025-01-10T09:17:13.000Z</time>
      </trkpt>
      <trkpt lat="43.59146" lon="6.83596">
        <ele>217.9</ele>
        <time>2025-01-10T09:17:12.000Z</time>
      </trkpt>
      <trkpt lat="43.59148" lon="6.8359">
        <ele>218.1</ele>
        <time>2025-01-10T09:17:11.000Z</time>
      </trkpt>
      <trkpt lat="43.59149" lon="6.83584">
        <ele>218.3</ele>
        <time>2025-01-10T09:17:10.000Z</time>
      </trkpt>
      <trkpt lat="43.5915" lon="6.83578">
        <ele>218.5</ele>
        <time>2025-01-10T09:17:09.000Z</time>
      </trkpt>
      <trkpt lat="43.59151" lon="6.83572">
        <ele>218.6</ele>
        <time>2025-01-10T09:17:08.000Z</time>
      </trkpt>
      <trkpt lat="43.59152" lon="6.83566">
        <ele>218.7</ele>
        <time>2025-01-10T09:17:07.000Z</time>
      </trkpt>
      <trkpt lat="43.59154" lon="6.8356">
        <ele>218.8</ele>
        <time>2025-01-10T09:17:06.000Z</time>
      </trkpt>
      <trkpt lat="43.59155" lon="6.83554">
        <ele>218.8</ele>
        <time>2025-01-10T09:17:05.000Z</time>
      </trkpt>
      <trkpt lat="43.59156" lon="6.83548">
        <ele>218.8</ele>
        <time>2025-01-10T09:17:04.000Z</time>
      </trkpt>
      <trkpt lat="43.59156" lon="6.83542">
        <ele>218.9</ele>
        <time>2025-01-10T09:17:03.000Z</time>
      </trkpt>
      <trkpt lat="43.59156" lon="6.83536">
        <ele>218.9</ele>
        <time>2025-01-10T09:17:02.000Z</time>
      </trkpt>
      <trkpt lat="43.59156" lon="6.8353">
        <ele>219</ele>
        <time>2025-01-10T09:17:01.000Z</time>
      </trkpt>
      <trkpt lat="43.59156" lon="6.83525">
        <ele>219</ele>
        <time>2025-01-10T09:17:00.000Z</time>
      </trkpt>
      <trkpt lat="43.59157" lon="6.83519">
        <ele>219</ele>
        <time>2025-01-10T09:16:59.000Z</time>
      </trkpt>
      <trkpt lat="43.59157" lon="6.83514">
        <ele>219</ele>
        <time>2025-01-10T09:16:58.000Z</time>
      </trkpt>
      <trkpt lat="43.59158" lon="6.83509">
        <ele>218.9</ele>
        <time>2025-01-10T09:16:57.000Z</time>
      </trkpt>
      <trkpt lat="43.59159" lon="6.83505">
        <ele>218.9</ele>
        <time>2025-01-10T09:16:56.000Z</time>
      </trkpt>
      <trkpt lat="43.5916" lon="6.83502">
        <ele>218.8</ele>
        <time>2025-01-10T09:16:55.000Z</time>
      </trkpt>
      <trkpt lat="43.59161" lon="6.83498">
        <ele>218.7</ele>
        <time>2025-01-10T09:16:54.000Z</time>
      </trkpt>
      <trkpt lat="43.59163" lon="6.83495">
        <ele>218.6</ele>
        <time>2025-01-10T09:16:53.000Z</time>
      </trkpt>
      <trkpt lat="43.59164" lon="6.83492">
        <ele>218.5</ele>
        <time>2025-01-10T09:16:52.000Z</time>
      </trkpt>
      <trkpt lat="43.59165" lon="6.83489">
        <ele>218.4</ele>
        <time>2025-01-10T09:16:51.000Z</time>
      </trkpt>
      <trkpt lat="43.59167" lon="6.83486">
        <ele>218.3</ele>
        <time>2025-01-10T09:16:50.000Z</time>
      </trkpt>
      <trkpt lat="43.59169" lon="6.83483">
        <ele>218.2</ele>
        <time>2025-01-10T09:16:49.000Z</time>
      </trkpt>
      <trkpt lat="43.59172" lon="6.83479">
        <ele>218</ele>
        <time>2025-01-10T09:16:48.000Z</time>
      </trkpt>
      <trkpt lat="43.59174" lon="6.83476">
        <ele>217.9</ele>
        <time>2025-01-10T09:16:47.000Z</time>
      </trkpt>
      <trkpt lat="43.59177" lon="6.83473">
        <ele>217.8</ele>
        <time>2025-01-10T09:16:46.000Z</time>
      </trkpt>
      <trkpt lat="43.5918" lon="6.83469">
        <ele>217.7</ele>
        <time>2025-01-10T09:16:45.000Z</time>
      </trkpt>
      <trkpt lat="43.59181" lon="6.83465">
        <ele>217.6</ele>
        <time>2025-01-10T09:16:44.000Z</time>
      </trkpt>
      <trkpt lat="43.59184" lon="6.83461">
        <ele>217.5</ele>
        <time>2025-01-10T09:16:43.000Z</time>
      </trkpt>
      <trkpt lat="43.59185" lon="6.83456">
        <ele>217.4</ele>
        <time>2025-01-10T09:16:42.000Z</time>
      </trkpt>
      <trkpt lat="43.59188" lon="6.83452">
        <ele>217.4</ele>
        <time>2025-01-10T09:16:41.000Z</time>
      </trkpt>
      <trkpt lat="43.59189" lon="6.83446">
        <ele>217.3</ele>
        <time>2025-01-10T09:16:40.000Z</time>
      </trkpt>
      <trkpt lat="43.59191" lon="6.83441">
        <ele>217.3</ele>
        <time>2025-01-10T09:16:39.000Z</time>
      </trkpt>
      <trkpt lat="43.59192" lon="6.83436">
        <ele>217.3</ele>
        <time>2025-01-10T09:16:38.000Z</time>
      </trkpt>
      <trkpt lat="43.59192" lon="6.8343">
        <ele>217.3</ele>
        <time>2025-01-10T09:16:37.000Z</time>
      </trkpt>
      <trkpt lat="43.59192" lon="6.83424">
        <ele>217.3</ele>
        <time>2025-01-10T09:16:36.000Z</time>
      </trkpt>
      <trkpt lat="43.59193" lon="6.83419">
        <ele>217.3</ele>
        <time>2025-01-10T09:16:35.000Z</time>
      </trkpt>
      <trkpt lat="43.59194" lon="6.83413">
        <ele>217.3</ele>
        <time>2025-01-10T09:16:34.000Z</time>
      </trkpt>
      <trkpt lat="43.59195" lon="6.83408">
        <ele>217.2</ele>
        <time>2025-01-10T09:16:33.000Z</time>
      </trkpt>
      <trkpt lat="43.59198" lon="6.83403">
        <ele>217.1</ele>
        <time>2025-01-10T09:16:32.000Z</time>
      </trkpt>
      <trkpt lat="43.59201" lon="6.83398">
        <ele>217</ele>
        <time>2025-01-10T09:16:31.000Z</time>
      </trkpt>
      <trkpt lat="43.59204" lon="6.83396">
        <ele>216.9</ele>
        <time>2025-01-10T09:16:30.000Z</time>
      </trkpt>
      <trkpt lat="43.59206" lon="6.83393">
        <ele>216.7</ele>
        <time>2025-01-10T09:16:29.000Z</time>
      </trkpt>
      <trkpt lat="43.59207" lon="6.8339">
        <ele>216.5</ele>
        <time>2025-01-10T09:16:28.000Z</time>
      </trkpt>
      <trkpt lat="43.59209" lon="6.83387">
        <ele>216.3</ele>
        <time>2025-01-10T09:16:27.000Z</time>
      </trkpt>
      <trkpt lat="43.59212" lon="6.83385">
        <ele>216.1</ele>
        <time>2025-01-10T09:16:26.000Z</time>
      </trkpt>
      <trkpt lat="43.59214" lon="6.83383">
        <ele>215.8</ele>
        <time>2025-01-10T09:16:25.000Z</time>
      </trkpt>
      <trkpt lat="43.59216" lon="6.8338">
        <ele>215.6</ele>
        <time>2025-01-10T09:16:24.000Z</time>
      </trkpt>
      <trkpt lat="43.59218" lon="6.83378">
        <ele>215.4</ele>
        <time>2025-01-10T09:16:23.000Z</time>
      </trkpt>
      <trkpt lat="43.5922" lon="6.83376">
        <ele>215.1</ele>
        <time>2025-01-10T09:16:22.000Z</time>
      </trkpt>
      <trkpt lat="43.59223" lon="6.83374">
        <ele>214.9</ele>
        <time>2025-01-10T09:16:21.000Z</time>
      </trkpt>
      <trkpt lat="43.59224" lon="6.83373">
        <ele>214.7</ele>
        <time>2025-01-10T09:16:20.000Z</time>
      </trkpt>
      <trkpt lat="43.59227" lon="6.83371">
        <ele>214.5</ele>
        <time>2025-01-10T09:16:19.000Z</time>
      </trkpt>
      <trkpt lat="43.59229" lon="6.83368">
        <ele>214.2</ele>
        <time>2025-01-10T09:16:18.000Z</time>
      </trkpt>
      <trkpt lat="43.59231" lon="6.83366">
        <ele>214</ele>
        <time>2025-01-10T09:16:17.000Z</time>
      </trkpt>
      <trkpt lat="43.59232" lon="6.83364">
        <ele>213.8</ele>
        <time>2025-01-10T09:16:16.000Z</time>
      </trkpt>
      <trkpt lat="43.59233" lon="6.83362">
        <ele>213.6</ele>
        <time>2025-01-10T09:16:15.000Z</time>
      </trkpt>
      <trkpt lat="43.59234" lon="6.83361">
        <ele>213.5</ele>
        <time>2025-01-10T09:16:14.000Z</time>
      </trkpt>
      <trkpt lat="43.59233" lon="6.8336">
        <ele>213.5</ele>
        <time>2025-01-10T09:16:13.000Z</time>
      </trkpt>
      <trkpt lat="43.59232" lon="6.83359">
        <ele>213.4</ele>
        <time>2025-01-10T09:16:12.000Z</time>
      </trkpt>
      <trkpt lat="43.59232" lon="6.83359">
        <ele>213.4</ele>
        <time>2025-01-10T09:16:11.000Z</time>
      </trkpt>
      <trkpt lat="43.59232" lon="6.83359">
        <ele>213.4</ele>
        <time>2025-01-10T09:16:10.000Z</time>
      </trkpt>
      <trkpt lat="43.59233" lon="6.83359">
        <ele>213.3</ele>
        <time>2025-01-10T09:16:09.000Z</time>
      </trkpt>
      <trkpt lat="43.59233" lon="6.83358">
        <ele>213.3</ele>
        <time>2025-01-10T09:16:08.000Z</time>
      </trkpt>
      <trkpt lat="43.59233" lon="6.83358">
        <ele>213.3</ele>
        <time>2025-01-10T09:16:07.000Z</time>
      </trkpt>
      <trkpt lat="43.59233" lon="6.83358">
        <ele>213.2</ele>
        <time>2025-01-10T09:16:06.000Z</time>
      </trkpt>
      <trkpt lat="43.59234" lon="6.83358">
        <ele>213.2</ele>
        <time>2025-01-10T09:16:05.000Z</time>
      </trkpt>
      <trkpt lat="43.59234" lon="6.83359">
        <ele>213.2</ele>
        <time>2025-01-10T09:16:04.000Z</time>
      </trkpt>
      <trkpt lat="43.59235" lon="6.83359">
        <ele>213.1</ele>
        <time>2025-01-10T09:16:03.000Z</time>
      </trkpt>
      <trkpt lat="43.59236" lon="6.8336">
        <ele>213</ele>
        <time>2025-01-10T09:16:02.000Z</time>
      </trkpt>
      <trkpt lat="43.59237" lon="6.83361">
        <ele>212.9</ele>
        <time>2025-01-10T09:16:01.000Z</time>
      </trkpt>
      <trkpt lat="43.59239" lon="6.83361">
        <ele>212.7</ele>
        <time>2025-01-10T09:16:00.000Z</time>
      </trkpt>
      <trkpt lat="43.5924" lon="6.83362">
        <ele>212.6</ele>
        <time>2025-01-10T09:15:59.000Z</time>
      </trkpt>
      <trkpt lat="43.59241" lon="6.83362">
        <ele>212.6</ele>
        <time>2025-01-10T09:15:58.000Z</time>
      </trkpt>
      <trkpt lat="43.59242" lon="6.83361">
        <ele>212.5</ele>
        <time>2025-01-10T09:15:57.000Z</time>
      </trkpt>
      <trkpt lat="43.59242" lon="6.8336">
        <ele>212.5</ele>
        <time>2025-01-10T09:15:56.000Z</time>
      </trkpt>
      <trkpt lat="43.59242" lon="6.83359">
        <ele>212.4</ele>
        <time>2025-01-10T09:15:55.000Z</time>
      </trkpt>
      <trkpt lat="43.59242" lon="6.83357">
        <ele>212.2</ele>
        <time>2025-01-10T09:15:54.000Z</time>
      </trkpt>
      <trkpt lat="43.59242" lon="6.83353">
        <ele>212.1</ele>
        <time>2025-01-10T09:15:53.000Z</time>
      </trkpt>
      <trkpt lat="43.59242" lon="6.8335">
        <ele>211.9</ele>
        <time>2025-01-10T09:15:52.000Z</time>
      </trkpt>
      <trkpt lat="43.59242" lon="6.83347">
        <ele>211.7</ele>
        <time>2025-01-10T09:15:51.000Z</time>
      </trkpt>
      <trkpt lat="43.59243" lon="6.83343">
        <ele>211.4</ele>
        <time>2025-01-10T09:15:50.000Z</time>
      </trkpt>
      <trkpt lat="43.59243" lon="6.83339">
        <ele>211.3</ele>
        <time>2025-01-10T09:15:49.000Z</time>
      </trkpt>
      <trkpt lat="43.59242" lon="6.83333">
        <ele>211.1</ele>
        <time>2025-01-10T09:15:48.000Z</time>
      </trkpt>
      <trkpt lat="43.59241" lon="6.83328">
        <ele>210.9</ele>
        <time>2025-01-10T09:15:47.000Z</time>
      </trkpt>
      <trkpt lat="43.59239" lon="6.83323">
        <ele>210.8</ele>
        <time>2025-01-10T09:15:46.000Z</time>
      </trkpt>
      <trkpt lat="43.59238" lon="6.83318">
        <ele>210.7</ele>
        <time>2025-01-10T09:15:45.000Z</time>
      </trkpt>
      <trkpt lat="43.59236" lon="6.83314">
        <ele>210.5</ele>
        <time>2025-01-10T09:15:44.000Z</time>
      </trkpt>
      <trkpt lat="43.59234" lon="6.8331">
        <ele>210.4</ele>
        <time>2025-01-10T09:15:43.000Z</time>
      </trkpt>
      <trkpt lat="43.59232" lon="6.83306">
        <ele>210.4</ele>
        <time>2025-01-10T09:15:42.000Z</time>
      </trkpt>
      <trkpt lat="43.59231" lon="6.83303">
        <ele>210.3</ele>
        <time>2025-01-10T09:15:41.000Z</time>
      </trkpt>
      <trkpt lat="43.59229" lon="6.83301">
        <ele>210.2</ele>
        <time>2025-01-10T09:15:40.000Z</time>
      </trkpt>
      <trkpt lat="43.59226" lon="6.83298">
        <ele>210.2</ele>
        <time>2025-01-10T09:15:39.000Z</time>
      </trkpt>
      <trkpt lat="43.59223" lon="6.83296">
        <ele>210.1</ele>
        <time>2025-01-10T09:15:38.000Z</time>
      </trkpt>
      <trkpt lat="43.59219" lon="6.83293">
        <ele>210</ele>
        <time>2025-01-10T09:15:37.000Z</time>
      </trkpt>
      <trkpt lat="43.59215" lon="6.83291">
        <ele>209.9</ele>
        <time>2025-01-10T09:15:36.000Z</time>
      </trkpt>
      <trkpt lat="43.59211" lon="6.83288">
        <ele>209.9</ele>
        <time>2025-01-10T09:15:35.000Z</time>
      </trkpt>
      <trkpt lat="43.59207" lon="6.83285">
        <ele>209.8</ele>
        <time>2025-01-10T09:15:34.000Z</time>
      </trkpt>
      <trkpt lat="43.59204" lon="6.83283">
        <ele>209.8</ele>
        <time>2025-01-10T09:15:33.000Z</time>
      </trkpt>
      <trkpt lat="43.59199" lon="6.8328">
        <ele>209.8</ele>
        <time>2025-01-10T09:15:32.000Z</time>
      </trkpt>
      <trkpt lat="43.59195" lon="6.83277">
        <ele>209.8</ele>
        <time>2025-01-10T09:15:31.000Z</time>
      </trkpt>
      <trkpt lat="43.59192" lon="6.83274">
        <ele>209.8</ele>
        <time>2025-01-10T09:15:30.000Z</time>
      </trkpt>
      <trkpt lat="43.59189" lon="6.83271">
        <ele>209.7</ele>
        <time>2025-01-10T09:15:29.000Z</time>
      </trkpt>
      <trkpt lat="43.59184" lon="6.83267">
        <ele>209.7</ele>
        <time>2025-01-10T09:15:28.000Z</time>
      </trkpt>
      <trkpt lat="43.59181" lon="6.83264">
        <ele>209.7</ele>
        <time>2025-01-10T09:15:27.000Z</time>
      </trkpt>
      <trkpt lat="43.59176" lon="6.83261">
        <ele>209.7</ele>
        <time>2025-01-10T09:15:26.000Z</time>
      </trkpt>
      <trkpt lat="43.59173" lon="6.83257">
        <ele>209.7</ele>
        <time>2025-01-10T09:15:25.000Z</time>
      </trkpt>
      <trkpt lat="43.5917" lon="6.83254">
        <ele>209.7</ele>
        <time>2025-01-10T09:15:24.000Z</time>
      </trkpt>
      <trkpt lat="43.59165" lon="6.8325">
        <ele>209.6</ele>
        <time>2025-01-10T09:15:23.000Z</time>
      </trkpt>
      <trkpt lat="43.59162" lon="6.83247">
        <ele>209.6</ele>
        <time>2025-01-10T09:15:22.000Z</time>
      </trkpt>
      <trkpt lat="43.59158" lon="6.83244">
        <ele>209.6</ele>
        <time>2025-01-10T09:15:21.000Z</time>
      </trkpt>
      <trkpt lat="43.59156" lon="6.83241">
        <ele>209.6</ele>
        <time>2025-01-10T09:15:20.000Z</time>
      </trkpt>
      <trkpt lat="43.59152" lon="6.83238">
        <ele>209.6</ele>
        <time>2025-01-10T09:15:19.000Z</time>
      </trkpt>
      <trkpt lat="43.59148" lon="6.83236">
        <ele>209.6</ele>
        <time>2025-01-10T09:15:18.000Z</time>
      </trkpt>
      <trkpt lat="43.59145" lon="6.83234">
        <ele>209.6</ele>
        <time>2025-01-10T09:15:17.000Z</time>
      </trkpt>
      <trkpt lat="43.59141" lon="6.83231">
        <ele>209.5</ele>
        <time>2025-01-10T09:15:16.000Z</time>
      </trkpt>
      <trkpt lat="43.59138" lon="6.83229">
        <ele>209.5</ele>
        <time>2025-01-10T09:15:15.000Z</time>
      </trkpt>
      <trkpt lat="43.59132" lon="6.83225">
        <ele>209.4</ele>
        <time>2025-01-10T09:15:14.000Z</time>
      </trkpt>
      <trkpt lat="43.59128" lon="6.83222">
        <ele>209.3</ele>
        <time>2025-01-10T09:15:13.000Z</time>
      </trkpt>
      <trkpt lat="43.59124" lon="6.83219">
        <ele>209.2</ele>
        <time>2025-01-10T09:15:12.000Z</time>
      </trkpt>
      <trkpt lat="43.59119" lon="6.83216">
        <ele>209.2</ele>
        <time>2025-01-10T09:15:11.000Z</time>
      </trkpt>
      <trkpt lat="43.59114" lon="6.83212">
        <ele>209.1</ele>
        <time>2025-01-10T09:15:10.000Z</time>
      </trkpt>
      <trkpt lat="43.59109" lon="6.83208">
        <ele>209</ele>
        <time>2025-01-10T09:15:09.000Z</time>
      </trkpt>
      <trkpt lat="43.59105" lon="6.83204">
        <ele>209</ele>
        <time>2025-01-10T09:15:08.000Z</time>
      </trkpt>
      <trkpt lat="43.59101" lon="6.83199">
        <ele>208.9</ele>
        <time>2025-01-10T09:15:07.000Z</time>
      </trkpt>
      <trkpt lat="43.59097" lon="6.83195">
        <ele>208.9</ele>
        <time>2025-01-10T09:15:06.000Z</time>
      </trkpt>
      <trkpt lat="43.59094" lon="6.83193">
        <ele>209</ele>
        <time>2025-01-10T09:15:05.000Z</time>
      </trkpt>
      <trkpt lat="43.5909" lon="6.83189">
        <ele>209</ele>
        <time>2025-01-10T09:15:04.000Z</time>
      </trkpt>
      <trkpt lat="43.59086" lon="6.83186">
        <ele>209</ele>
        <time>2025-01-10T09:15:03.000Z</time>
      </trkpt>
      <trkpt lat="43.59083" lon="6.83183">
        <ele>209.1</ele>
        <time>2025-01-10T09:15:02.000Z</time>
      </trkpt>
      <trkpt lat="43.59081" lon="6.83181">
        <ele>209.1</ele>
        <time>2025-01-10T09:15:01.000Z</time>
      </trkpt>
      <trkpt lat="43.59078" lon="6.83179">
        <ele>209.1</ele>
        <time>2025-01-10T09:15:00.000Z</time>
      </trkpt>
      <trkpt lat="43.59076" lon="6.83177">
        <ele>209.2</ele>
        <time>2025-01-10T09:14:59.000Z</time>
      </trkpt>
      <trkpt lat="43.59072" lon="6.83175">
        <ele>209.2</ele>
        <time>2025-01-10T09:14:58.000Z</time>
      </trkpt>
      <trkpt lat="43.59069" lon="6.83174">
        <ele>209.2</ele>
        <time>2025-01-10T09:14:57.000Z</time>
      </trkpt>
      <trkpt lat="43.59065" lon="6.83173">
        <ele>209.2</ele>
        <time>2025-01-10T09:14:56.000Z</time>
      </trkpt>
      <trkpt lat="43.59061" lon="6.83172">
        <ele>209.3</ele>
        <time>2025-01-10T09:14:55.000Z</time>
      </trkpt>
      <trkpt lat="43.59056" lon="6.83171">
        <ele>209.2</ele>
        <time>2025-01-10T09:14:54.000Z</time>
      </trkpt>
      <trkpt lat="43.59052" lon="6.8317">
        <ele>209.2</ele>
        <time>2025-01-10T09:14:53.000Z</time>
      </trkpt>
      <trkpt lat="43.59049" lon="6.83168">
        <ele>209.1</ele>
        <time>2025-01-10T09:14:52.000Z</time>
      </trkpt>
      <trkpt lat="43.59046" lon="6.83165">
        <ele>209</ele>
        <time>2025-01-10T09:14:51.000Z</time>
      </trkpt>
      <trkpt lat="43.59046" lon="6.83165">
        <ele>209</ele>
        <time>2025-01-10T09:14:50.000Z</time>
      </trkpt>
      <trkpt lat="43.59046" lon="6.83165">
        <ele>209</ele>
        <time>2025-01-10T09:14:49.000Z</time>
      </trkpt>
      <trkpt lat="43.59046" lon="6.83165">
        <ele>209</ele>
        <time>2025-01-10T09:14:48.000Z</time>
      </trkpt>
      <trkpt lat="43.59046" lon="6.83165">
        <ele>209</ele>
        <time>2025-01-10T09:14:47.000Z</time>
      </trkpt>
      <trkpt lat="43.59046" lon="6.83165">
        <ele>209</ele>
        <time>2025-01-10T09:14:46.000Z</time>
      </trkpt>
      <trkpt lat="43.59046" lon="6.83165">
        <ele>209</ele>
        <time>2025-01-10T09:14:45.000Z</time>
      </trkpt>
      <trkpt lat="43.59046" lon="6.83165">
        <ele>209</ele>
        <time>2025-01-10T09:14:44.000Z</time>
      </trkpt>
      <trkpt lat="43.59046" lon="6.83165">
        <ele>209</ele>
        <time>2025-01-10T09:14:43.000Z</time>
      </trkpt>
      <trkpt lat="43.59046" lon="6.83165">
        <ele>209</ele>
        <time>2025-01-10T09:14:42.000Z</time>
      </trkpt>
      <trkpt lat="43.59046" lon="6.83165">
        <ele>209</ele>
        <time>2025-01-10T09:14:41.000Z</time>
      </trkpt>
      <trkpt lat="43.59046" lon="6.83165">
        <ele>209</ele>
        <time>2025-01-10T09:14:40.000Z</time>
      </trkpt>
      <trkpt lat="43.59045" lon="6.83166">
        <ele>209</ele>
        <time>2025-01-10T09:14:39.000Z</time>
      </trkpt>
      <trkpt lat="43.59045" lon="6.83166">
        <ele>209</ele>
        <time>2025-01-10T09:14:38.000Z</time>
      </trkpt>
      <trkpt lat="43.59045" lon="6.83166">
        <ele>209</ele>
        <time>2025-01-10T09:14:37.000Z</time>
      </trkpt>
      <trkpt lat="43.59045" lon="6.83166">
        <ele>209</ele>
        <time>2025-01-10T09:14:36.000Z</time>
      </trkpt>
      <trkpt lat="43.59045" lon="6.83167">
        <ele>209</ele>
        <time>2025-01-10T09:14:35.000Z</time>
      </trkpt>
      <trkpt lat="43.59045" lon="6.83167">
        <ele>209</ele>
        <time>2025-01-10T09:14:34.000Z</time>
      </trkpt>
      <trkpt lat="43.59045" lon="6.83167">
        <ele>209</ele>
        <time>2025-01-10T09:14:33.000Z</time>
      </trkpt>
      <trkpt lat="43.59045" lon="6.83167">
        <ele>209</ele>
        <time>2025-01-10T09:14:32.000Z</time>
      </trkpt>
      <trkpt lat="43.59044" lon="6.83167">
        <ele>209</ele>
        <time>2025-01-10T09:14:31.000Z</time>
      </trkpt>
      <trkpt lat="43.59043" lon="6.83168">
        <ele>209</ele>
        <time>2025-01-10T09:14:30.000Z</time>
      </trkpt>
      <trkpt lat="43.59043" lon="6.83168">
        <ele>208.9</ele>
        <time>2025-01-10T09:14:29.000Z</time>
      </trkpt>
      <trkpt lat="43.59042" lon="6.83168">
        <ele>208.9</ele>
        <time>2025-01-10T09:14:28.000Z</time>
      </trkpt>
      <trkpt lat="43.59041" lon="6.83168">
        <ele>208.9</ele>
        <time>2025-01-10T09:14:27.000Z</time>
      </trkpt>
      <trkpt lat="43.59041" lon="6.83166">
        <ele>208.9</ele>
        <time>2025-01-10T09:14:26.000Z</time>
      </trkpt>
      <trkpt lat="43.5904" lon="6.83164">
        <ele>208.9</ele>
        <time>2025-01-10T09:14:25.000Z</time>
      </trkpt>
      <trkpt lat="43.5904" lon="6.83164">
        <ele>208.9</ele>
        <time>2025-01-10T09:14:24.000Z</time>
      </trkpt>
      <trkpt lat="43.5904" lon="6.83164">
        <ele>208.9</ele>
        <time>2025-01-10T09:14:23.000Z</time>
      </trkpt>
      <trkpt lat="43.5904" lon="6.83164">
        <ele>208.9</ele>
        <time>2025-01-10T09:14:22.000Z</time>
      </trkpt>
      <trkpt lat="43.5904" lon="6.83164">
        <ele>208.9</ele>
        <time>2025-01-10T09:14:21.000Z</time>
      </trkpt>
      <trkpt lat="43.5904" lon="6.83164">
        <ele>208.9</ele>
        <time>2025-01-10T09:14:20.000Z</time>
      </trkpt>
      <trkpt lat="43.5904" lon="6.83164">
        <ele>208.9</ele>
        <time>2025-01-10T09:14:19.000Z</time>
      </trkpt>
      <trkpt lat="43.5904" lon="6.83164">
        <ele>208.9</ele>
        <time>2025-01-10T09:14:18.000Z</time>
      </trkpt>
      <trkpt lat="43.5904" lon="6.83164">
        <ele>208.8</ele>
        <time>2025-01-10T09:14:17.000Z</time>
      </trkpt>
      <trkpt lat="43.5904" lon="6.83164">
        <ele>208.8</ele>
        <time>2025-01-10T09:14:16.000Z</time>
      </trkpt>
      <trkpt lat="43.5904" lon="6.83164">
        <ele>208.8</ele>
        <time>2025-01-10T09:14:15.000Z</time>
      </trkpt>
      <trkpt lat="43.5904" lon="6.83164">
        <ele>208.8</ele>
        <time>2025-01-10T09:14:14.000Z</time>
      </trkpt>
      <trkpt lat="43.5904" lon="6.83164">
        <ele>208.8</ele>
        <time>2025-01-10T09:14:13.000Z</time>
      </trkpt>
      <trkpt lat="43.5904" lon="6.83164">
        <ele>208.8</ele>
        <time>2025-01-10T09:14:12.000Z</time>
      </trkpt>
      <trkpt lat="43.5904" lon="6.83164">
        <ele>208.8</ele>
        <time>2025-01-10T09:14:11.000Z</time>
      </trkpt>
      <trkpt lat="43.5904" lon="6.83164">
        <ele>208.8</ele>
        <time>2025-01-10T09:14:10.000Z</time>
      </trkpt>
      <trkpt lat="43.5904" lon="6.83164">
        <ele>208.8</ele>
        <time>2025-01-10T09:14:09.000Z</time>
      </trkpt>
      <trkpt lat="43.5904" lon="6.83164">
        <ele>208.8</ele>
        <time>2025-01-10T09:14:08.000Z</time>
      </trkpt>
      <trkpt lat="43.5904" lon="6.83164">
        <ele>208.8</ele>
        <time>2025-01-10T09:14:07.000Z</time>
      </trkpt>
      <trkpt lat="43.5904" lon="6.83164">
        <ele>208.8</ele>
        <time>2025-01-10T09:14:06.000Z</time>
      </trkpt>
      <trkpt lat="43.5904" lon="6.83165">
        <ele>208.8</ele>
        <time>2025-01-10T09:14:05.000Z</time>
      </trkpt>
      <trkpt lat="43.5904" lon="6.83165">
        <ele>208.8</ele>
        <time>2025-01-10T09:14:04.000Z</time>
      </trkpt>
      <trkpt lat="43.5904" lon="6.83165">
        <ele>208.8</ele>
        <time>2025-01-10T09:14:03.000Z</time>
      </trkpt>
      <trkpt lat="43.5904" lon="6.83165">
        <ele>208.8</ele>
        <time>2025-01-10T09:14:02.000Z</time>
      </trkpt>
      <trkpt lat="43.5904" lon="6.83165">
        <ele>208.8</ele>
        <time>2025-01-10T09:14:01.000Z</time>
      </trkpt>
      <trkpt lat="43.59039" lon="6.83165">
        <ele>208.8</ele>
        <time>2025-01-10T09:14:00.000Z</time>
      </trkpt>
      <trkpt lat="43.59039" lon="6.83165">
        <ele>208.8</ele>
        <time>2025-01-10T09:13:59.000Z</time>
      </trkpt>
      <trkpt lat="43.59039" lon="6.83165">
        <ele>208.8</ele>
        <time>2025-01-10T09:13:58.000Z</time>
      </trkpt>
      <trkpt lat="43.59039" lon="6.83165">
        <ele>208.8</ele>
        <time>2025-01-10T09:13:57.000Z</time>
      </trkpt>
      <trkpt lat="43.59039" lon="6.83165">
        <ele>208.8</ele>
        <time>2025-01-10T09:13:56.000Z</time>
      </trkpt>
      <trkpt lat="43.59039" lon="6.83165">
        <ele>208.8</ele>
        <time>2025-01-10T09:13:55.000Z</time>
      </trkpt>
      <trkpt lat="43.59039" lon="6.83165">
        <ele>208.8</ele>
        <time>2025-01-10T09:13:54.000Z</time>
      </trkpt>
      <trkpt lat="43.59038" lon="6.83165">
        <ele>208.8</ele>
        <time>2025-01-10T09:13:53.000Z</time>
      </trkpt>
      <trkpt lat="43.59038" lon="6.83165">
        <ele>208.8</ele>
        <time>2025-01-10T09:13:52.000Z</time>
      </trkpt>
      <trkpt lat="43.59038" lon="6.83165">
        <ele>208.8</ele>
        <time>2025-01-10T09:13:51.000Z</time>
      </trkpt>
      <trkpt lat="43.59038" lon="6.83165">
        <ele>208.8</ele>
        <time>2025-01-10T09:13:50.000Z</time>
      </trkpt>
      <trkpt lat="43.59037" lon="6.83165">
        <ele>208.8</ele>
        <time>2025-01-10T09:13:49.000Z</time>
      </trkpt>
      <trkpt lat="43.59037" lon="6.83165">
        <ele>208.8</ele>
        <time>2025-01-10T09:13:48.000Z</time>
      </trkpt>
      <trkpt lat="43.59036" lon="6.83165">
        <ele>208.8</ele>
        <time>2025-01-10T09:13:47.000Z</time>
      </trkpt>
      <trkpt lat="43.59036" lon="6.83166">
        <ele>208.8</ele>
        <time>2025-01-10T09:13:46.000Z</time>
      </trkpt>
      <trkpt lat="43.59036" lon="6.83167">
        <ele>208.8</ele>
        <time>2025-01-10T09:13:45.000Z</time>
      </trkpt>
      <trkpt lat="43.59036" lon="6.83167">
        <ele>208.8</ele>
        <time>2025-01-10T09:13:44.000Z</time>
      </trkpt>
      <trkpt lat="43.59035" lon="6.83167">
        <ele>208.8</ele>
        <time>2025-01-10T09:13:43.000Z</time>
      </trkpt>
      <trkpt lat="43.59035" lon="6.83167">
        <ele>208.8</ele>
        <time>2025-01-10T09:13:42.000Z</time>
      </trkpt>
      <trkpt lat="43.59035" lon="6.83167">
        <ele>208.8</ele>
        <time>2025-01-10T09:13:41.000Z</time>
      </trkpt>
      <trkpt lat="43.59035" lon="6.83168">
        <ele>208.8</ele>
        <time>2025-01-10T09:13:40.000Z</time>
      </trkpt>
      <trkpt lat="43.59035" lon="6.83168">
        <ele>208.8</ele>
        <time>2025-01-10T09:13:39.000Z</time>
      </trkpt>
      <trkpt lat="43.59034" lon="6.83168">
        <ele>208.8</ele>
        <time>2025-01-10T09:13:38.000Z</time>
      </trkpt>
      <trkpt lat="43.59034" lon="6.83168">
        <ele>208.8</ele>
        <time>2025-01-10T09:13:37.000Z</time>
      </trkpt>
      <trkpt lat="43.59034" lon="6.83168">
        <ele>208.8</ele>
        <time>2025-01-10T09:13:36.000Z</time>
      </trkpt>
      <trkpt lat="43.59034" lon="6.83169">
        <ele>208.8</ele>
        <time>2025-01-10T09:13:35.000Z</time>
      </trkpt>
      <trkpt lat="43.59033" lon="6.83169">
        <ele>208.8</ele>
        <time>2025-01-10T09:13:34.000Z</time>
      </trkpt>
      <trkpt lat="43.59033" lon="6.83169">
        <ele>208.8</ele>
        <time>2025-01-10T09:13:33.000Z</time>
      </trkpt>
      <trkpt lat="43.59033" lon="6.83169">
        <ele>208.8</ele>
        <time>2025-01-10T09:13:32.000Z</time>
      </trkpt>
      <trkpt lat="43.59033" lon="6.83169">
        <ele>208.8</ele>
        <time>2025-01-10T09:13:31.000Z</time>
      </trkpt>
      <trkpt lat="43.59033" lon="6.83169">
        <ele>208.8</ele>
        <time>2025-01-10T09:13:30.000Z</time>
      </trkpt>
      <trkpt lat="43.59033" lon="6.83169">
        <ele>208.8</ele>
        <time>2025-01-10T09:13:29.000Z</time>
      </trkpt>
      <trkpt lat="43.59033" lon="6.83169">
        <ele>208.8</ele>
        <time>2025-01-10T09:13:28.000Z</time>
      </trkpt>
      <trkpt lat="43.59032" lon="6.83169">
        <ele>208.8</ele>
        <time>2025-01-10T09:13:27.000Z</time>
      </trkpt>
      <trkpt lat="43.59032" lon="6.83169">
        <ele>208.8</ele>
        <time>2025-01-10T09:13:26.000Z</time>
      </trkpt>
      <trkpt lat="43.59032" lon="6.83169">
        <ele>208.8</ele>
        <time>2025-01-10T09:13:25.000Z</time>
      </trkpt>
      <trkpt lat="43.59032" lon="6.83169">
        <ele>208.8</ele>
        <time>2025-01-10T09:13:24.000Z</time>
      </trkpt>
      <trkpt lat="43.59032" lon="6.83169">
        <ele>208.8</ele>
        <time>2025-01-10T09:13:23.000Z</time>
      </trkpt>
      <trkpt lat="43.59031" lon="6.83169">
        <ele>208.8</ele>
        <time>2025-01-10T09:13:22.000Z</time>
      </trkpt>
      <trkpt lat="43.59031" lon="6.83169">
        <ele>208.8</ele>
        <time>2025-01-10T09:13:21.000Z</time>
      </trkpt>
      <trkpt lat="43.59031" lon="6.83169">
        <ele>208.8</ele>
        <time>2025-01-10T09:13:20.000Z</time>
      </trkpt>
      <trkpt lat="43.59031" lon="6.83169">
        <ele>208.8</ele>
        <time>2025-01-10T09:13:19.000Z</time>
      </trkpt>
      <trkpt lat="43.59031" lon="6.83169">
        <ele>208.8</ele>
        <time>2025-01-10T09:13:18.000Z</time>
      </trkpt>
      <trkpt lat="43.59031" lon="6.83169">
        <ele>208.8</ele>
        <time>2025-01-10T09:13:17.000Z</time>
      </trkpt>
      <trkpt lat="43.59031" lon="6.83169">
        <ele>208.8</ele>
        <time>2025-01-10T09:13:16.000Z</time>
      </trkpt>
      <trkpt lat="43.59031" lon="6.83169">
        <ele>208.8</ele>
        <time>2025-01-10T09:13:15.000Z</time>
      </trkpt>
      <trkpt lat="43.59031" lon="6.83169">
        <ele>208.8</ele>
        <time>2025-01-10T09:13:14.000Z</time>
      </trkpt>
      <trkpt lat="43.59031" lon="6.83168">
        <ele>208.8</ele>
        <time>2025-01-10T09:13:13.000Z</time>
      </trkpt>
      <trkpt lat="43.59031" lon="6.83168">
        <ele>208.8</ele>
        <time>2025-01-10T09:13:12.000Z</time>
      </trkpt>
      <trkpt lat="43.59031" lon="6.83167">
        <ele>208.8</ele>
        <time>2025-01-10T09:13:11.000Z</time>
      </trkpt>
      <trkpt lat="43.59031" lon="6.83167">
        <ele>208.8</ele>
        <time>2025-01-10T09:13:10.000Z</time>
      </trkpt>
      <trkpt lat="43.59031" lon="6.83167">
        <ele>208.8</ele>
        <time>2025-01-10T09:13:09.000Z</time>
      </trkpt>
      <trkpt lat="43.59031" lon="6.83167">
        <ele>208.8</ele>
        <time>2025-01-10T09:13:08.000Z</time>
      </trkpt>
      <trkpt lat="43.59031" lon="6.83167">
        <ele>208.8</ele>
        <time>2025-01-10T09:13:07.000Z</time>
      </trkpt>
      <trkpt lat="43.59031" lon="6.83167">
        <ele>208.8</ele>
        <time>2025-01-10T09:13:06.000Z</time>
      </trkpt>
      <trkpt lat="43.59032" lon="6.83167">
        <ele>208.8</ele>
        <time>2025-01-10T09:13:05.000Z</time>
      </trkpt>
      <trkpt lat="43.59033" lon="6.83167">
        <ele>208.8</ele>
        <time>2025-01-10T09:13:04.000Z</time>
      </trkpt>
      <trkpt lat="43.59033" lon="6.83167">
        <ele>208.8</ele>
        <time>2025-01-10T09:13:03.000Z</time>
      </trkpt>
      <trkpt lat="43.59034" lon="6.83167">
        <ele>208.8</ele>
        <time>2025-01-10T09:13:02.000Z</time>
      </trkpt>
      <trkpt lat="43.59034" lon="6.83167">
        <ele>208.8</ele>
        <time>2025-01-10T09:13:01.000Z</time>
      </trkpt>
      <trkpt lat="43.59034" lon="6.83167">
        <ele>208.8</ele>
        <time>2025-01-10T09:13:00.000Z</time>
      </trkpt>
      <trkpt lat="43.59034" lon="6.83166">
        <ele>208.8</ele>
        <time>2025-01-10T09:12:59.000Z</time>
      </trkpt>
      <trkpt lat="43.59034" lon="6.83166">
        <ele>208.8</ele>
        <time>2025-01-10T09:12:58.000Z</time>
      </trkpt>
      <trkpt lat="43.59034" lon="6.83166">
        <ele>208.8</ele>
        <time>2025-01-10T09:12:57.000Z</time>
      </trkpt>
      <trkpt lat="43.59034" lon="6.83165">
        <ele>208.8</ele>
        <time>2025-01-10T09:12:56.000Z</time>
      </trkpt>
      <trkpt lat="43.59034" lon="6.83165">
        <ele>208.8</ele>
        <time>2025-01-10T09:12:55.000Z</time>
      </trkpt>
      <trkpt lat="43.59034" lon="6.83165">
        <ele>208.8</ele>
        <time>2025-01-10T09:12:54.000Z</time>
      </trkpt>
      <trkpt lat="43.59034" lon="6.83165">
        <ele>208.8</ele>
        <time>2025-01-10T09:12:53.000Z</time>
      </trkpt>
      <trkpt lat="43.59034" lon="6.83165">
        <ele>208.8</ele>
        <time>2025-01-10T09:12:52.000Z</time>
      </trkpt>
      <trkpt lat="43.59034" lon="6.83165">
        <ele>208.8</ele>
        <time>2025-01-10T09:12:51.000Z</time>
      </trkpt>
      <trkpt lat="43.59034" lon="6.83165">
        <ele>208.8</ele>
        <time>2025-01-10T09:12:50.000Z</time>
      </trkpt>
      <trkpt lat="43.59034" lon="6.83165">
        <ele>208.8</ele>
        <time>2025-01-10T09:12:49.000Z</time>
      </trkpt>
      <trkpt lat="43.59035" lon="6.83165">
        <ele>208.8</ele>
        <time>2025-01-10T09:12:48.000Z</time>
      </trkpt>
      <trkpt lat="43.59036" lon="6.83165">
        <ele>208.8</ele>
        <time>2025-01-10T09:12:47.000Z</time>
      </trkpt>
      <trkpt lat="43.59037" lon="6.83165">
        <ele>208.8</ele>
        <time>2025-01-10T09:12:46.000Z</time>
      </trkpt>
      <trkpt lat="43.59038" lon="6.83165">
        <ele>208.8</ele>
        <time>2025-01-10T09:12:45.000Z</time>
      </trkpt>
      <trkpt lat="43.59039" lon="6.83164">
        <ele>208.8</ele>
        <time>2025-01-10T09:12:44.000Z</time>
      </trkpt>
      <trkpt lat="43.59039" lon="6.83163">
        <ele>208.8</ele>
        <time>2025-01-10T09:12:43.000Z</time>
      </trkpt>
      <trkpt lat="43.5904" lon="6.83163">
        <ele>208.8</ele>
        <time>2025-01-10T09:12:42.000Z</time>
      </trkpt>
      <trkpt lat="43.5904" lon="6.83162">
        <ele>208.9</ele>
        <time>2025-01-10T09:12:41.000Z</time>
      </trkpt>
      <trkpt lat="43.5904" lon="6.83162">
        <ele>208.9</ele>
        <time>2025-01-10T09:12:40.000Z</time>
      </trkpt>
      <trkpt lat="43.5904" lon="6.83162">
        <ele>208.9</ele>
        <time>2025-01-10T09:12:39.000Z</time>
      </trkpt>
      <trkpt lat="43.5904" lon="6.83162">
        <ele>208.9</ele>
        <time>2025-01-10T09:12:38.000Z</time>
      </trkpt>
      <trkpt lat="43.5904" lon="6.83162">
        <ele>208.9</ele>
        <time>2025-01-10T09:12:37.000Z</time>
      </trkpt>
      <trkpt lat="43.5904" lon="6.83162">
        <ele>208.9</ele>
        <time>2025-01-10T09:12:36.000Z</time>
      </trkpt>
      <trkpt lat="43.5904" lon="6.83162">
        <ele>208.9</ele>
        <time>2025-01-10T09:12:35.000Z</time>
      </trkpt>
      <trkpt lat="43.5904" lon="6.83162">
        <ele>208.9</ele>
        <time>2025-01-10T09:12:34.000Z</time>
      </trkpt>
      <trkpt lat="43.5904" lon="6.83162">
        <ele>208.9</ele>
        <time>2025-01-10T09:12:33.000Z</time>
      </trkpt>
      <trkpt lat="43.5904" lon="6.83162">
        <ele>208.9</ele>
        <time>2025-01-10T09:12:32.000Z</time>
      </trkpt>
      <trkpt lat="43.59039" lon="6.83162">
        <ele>208.9</ele>
        <time>2025-01-10T09:12:31.000Z</time>
      </trkpt>
      <trkpt lat="43.59039" lon="6.83162">
        <ele>208.9</ele>
        <time>2025-01-10T09:12:30.000Z</time>
      </trkpt>
      <trkpt lat="43.59039" lon="6.83163">
        <ele>208.9</ele>
        <time>2025-01-10T09:12:29.000Z</time>
      </trkpt>
      <trkpt lat="43.59039" lon="6.83163">
        <ele>208.9</ele>
        <time>2025-01-10T09:12:28.000Z</time>
      </trkpt>
      <trkpt lat="43.59038" lon="6.83163">
        <ele>208.9</ele>
        <time>2025-01-10T09:12:27.000Z</time>
      </trkpt>
      <trkpt lat="43.59038" lon="6.83163">
        <ele>208.9</ele>
        <time>2025-01-10T09:12:26.000Z</time>
      </trkpt>
      <trkpt lat="43.59038" lon="6.83164">
        <ele>208.9</ele>
        <time>2025-01-10T09:12:25.000Z</time>
      </trkpt>
      <trkpt lat="43.59038" lon="6.83164">
        <ele>208.9</ele>
        <time>2025-01-10T09:12:24.000Z</time>
      </trkpt>
      <trkpt lat="43.59038" lon="6.83164">
        <ele>208.9</ele>
        <time>2025-01-10T09:12:23.000Z</time>
      </trkpt>
      <trkpt lat="43.59038" lon="6.83164">
        <ele>208.9</ele>
        <time>2025-01-10T09:12:22.000Z</time>
      </trkpt>
      <trkpt lat="43.59037" lon="6.83164">
        <ele>208.9</ele>
        <time>2025-01-10T09:12:21.000Z</time>
      </trkpt>
      <trkpt lat="43.59037" lon="6.83164">
        <ele>208.9</ele>
        <time>2025-01-10T09:12:20.000Z</time>
      </trkpt>
      <trkpt lat="43.59037" lon="6.83164">
        <ele>208.9</ele>
        <time>2025-01-10T09:12:19.000Z</time>
      </trkpt>
      <trkpt lat="43.59037" lon="6.83164">
        <ele>208.9</ele>
        <time>2025-01-10T09:12:18.000Z</time>
      </trkpt>
      <trkpt lat="43.59037" lon="6.83164">
        <ele>208.9</ele>
        <time>2025-01-10T09:12:17.000Z</time>
      </trkpt>
      <trkpt lat="43.59037" lon="6.83164">
        <ele>208.9</ele>
        <time>2025-01-10T09:12:16.000Z</time>
      </trkpt>
      <trkpt lat="43.59037" lon="6.83164">
        <ele>208.9</ele>
        <time>2025-01-10T09:12:15.000Z</time>
      </trkpt>
      <trkpt lat="43.59037" lon="6.83164">
        <ele>208.9</ele>
        <time>2025-01-10T09:12:14.000Z</time>
      </trkpt>
      <trkpt lat="43.59037" lon="6.83164">
        <ele>208.9</ele>
        <time>2025-01-10T09:12:13.000Z</time>
      </trkpt>
      <trkpt lat="43.59037" lon="6.83164">
        <ele>208.9</ele>
        <time>2025-01-10T09:12:12.000Z</time>
      </trkpt>
      <trkpt lat="43.59037" lon="6.83164">
        <ele>208.9</ele>
        <time>2025-01-10T09:12:11.000Z</time>
      </trkpt>
      <trkpt lat="43.59037" lon="6.83164">
        <ele>208.9</ele>
        <time>2025-01-10T09:12:10.000Z</time>
      </trkpt>
      <trkpt lat="43.59037" lon="6.83164">
        <ele>208.9</ele>
        <time>2025-01-10T09:12:09.000Z</time>
      </trkpt>
      <trkpt lat="43.59036" lon="6.83164">
        <ele>208.9</ele>
        <time>2025-01-10T09:12:08.000Z</time>
      </trkpt>
      <trkpt lat="43.59036" lon="6.83164">
        <ele>208.9</ele>
        <time>2025-01-10T09:12:07.000Z</time>
      </trkpt>
      <trkpt lat="43.59036" lon="6.83164">
        <ele>208.9</ele>
        <time>2025-01-10T09:12:06.000Z</time>
      </trkpt>
      <trkpt lat="43.59036" lon="6.83164">
        <ele>208.9</ele>
        <time>2025-01-10T09:12:05.000Z</time>
      </trkpt>
      <trkpt lat="43.59036" lon="6.83164">
        <ele>208.9</ele>
        <time>2025-01-10T09:12:04.000Z</time>
      </trkpt>
      <trkpt lat="43.59036" lon="6.83164">
        <ele>208.9</ele>
        <time>2025-01-10T09:12:03.000Z</time>
      </trkpt>
      <trkpt lat="43.59036" lon="6.83164">
        <ele>208.9</ele>
        <time>2025-01-10T09:12:02.000Z</time>
      </trkpt>
      <trkpt lat="43.59036" lon="6.83164">
        <ele>208.9</ele>
        <time>2025-01-10T09:12:01.000Z</time>
      </trkpt>
      <trkpt lat="43.59036" lon="6.83164">
        <ele>208.9</ele>
        <time>2025-01-10T09:12:00.000Z</time>
      </trkpt>
      <trkpt lat="43.59036" lon="6.83164">
        <ele>208.9</ele>
        <time>2025-01-10T09:11:59.000Z</time>
      </trkpt>
      <trkpt lat="43.59036" lon="6.83164">
        <ele>208.9</ele>
        <time>2025-01-10T09:11:58.000Z</time>
      </trkpt>
      <trkpt lat="43.59036" lon="6.83164">
        <ele>208.9</ele>
        <time>2025-01-10T09:11:57.000Z</time>
      </trkpt>
      <trkpt lat="43.59037" lon="6.83164">
        <ele>208.9</ele>
        <time>2025-01-10T09:11:56.000Z</time>
      </trkpt>
      <trkpt lat="43.59036" lon="6.83163">
        <ele>208.9</ele>
        <time>2025-01-10T09:11:55.000Z</time>
      </trkpt>
      <trkpt lat="43.59036" lon="6.83162">
        <ele>208.9</ele>
        <time>2025-01-10T09:11:54.000Z</time>
      </trkpt>
      <trkpt lat="43.59036" lon="6.83161">
        <ele>208.9</ele>
        <time>2025-01-10T09:11:53.000Z</time>
      </trkpt>
      <trkpt lat="43.59037" lon="6.83161">
        <ele>208.9</ele>
        <time>2025-01-10T09:11:52.000Z</time>
      </trkpt>
      <trkpt lat="43.59038" lon="6.83162">
        <ele>209</ele>
        <time>2025-01-10T09:11:51.000Z</time>
      </trkpt>
      <trkpt lat="43.59039" lon="6.83162">
        <ele>209</ele>
        <time>2025-01-10T09:11:50.000Z</time>
      </trkpt>
      <trkpt lat="43.59039" lon="6.83162">
        <ele>209</ele>
        <time>2025-01-10T09:11:49.000Z</time>
      </trkpt>
      <trkpt lat="43.5904" lon="6.83162">
        <ele>209</ele>
        <time>2025-01-10T09:11:48.000Z</time>
      </trkpt>
      <trkpt lat="43.5904" lon="6.83162">
        <ele>209</ele>
        <time>2025-01-10T09:11:47.000Z</time>
      </trkpt>
      <trkpt lat="43.59041" lon="6.83161">
        <ele>209</ele>
        <time>2025-01-10T09:11:46.000Z</time>
      </trkpt>
      <trkpt lat="43.59041" lon="6.83161">
        <ele>209</ele>
        <time>2025-01-10T09:11:45.000Z</time>
      </trkpt>
      <trkpt lat="43.59042" lon="6.83161">
        <ele>209</ele>
        <time>2025-01-10T09:11:44.000Z</time>
      </trkpt>
      <trkpt lat="43.59042" lon="6.83161">
        <ele>209</ele>
        <time>2025-01-10T09:11:43.000Z</time>
      </trkpt>
      <trkpt lat="43.59043" lon="6.83162">
        <ele>209.1</ele>
        <time>2025-01-10T09:11:42.000Z</time>
      </trkpt>
      <trkpt lat="43.59044" lon="6.83162">
        <ele>209.1</ele>
        <time>2025-01-10T09:11:41.000Z</time>
      </trkpt>
      <trkpt lat="43.59044" lon="6.83162">
        <ele>209.1</ele>
        <time>2025-01-10T09:11:40.000Z</time>
      </trkpt>
      <trkpt lat="43.59044" lon="6.83162">
        <ele>209.1</ele>
        <time>2025-01-10T09:11:39.000Z</time>
      </trkpt>
      <trkpt lat="43.59044" lon="6.83162">
        <ele>209.1</ele>
        <time>2025-01-10T09:11:38.000Z</time>
      </trkpt>
      <trkpt lat="43.59044" lon="6.83162">
        <ele>209.1</ele>
        <time>2025-01-10T09:11:37.000Z</time>
      </trkpt>
      <trkpt lat="43.59044" lon="6.83162">
        <ele>209.1</ele>
        <time>2025-01-10T09:11:36.000Z</time>
      </trkpt>
      <trkpt lat="43.59044" lon="6.83162">
        <ele>209.1</ele>
        <time>2025-01-10T09:11:35.000Z</time>
      </trkpt>
      <trkpt lat="43.59044" lon="6.83162">
        <ele>209.1</ele>
        <time>2025-01-10T09:11:34.000Z</time>
      </trkpt>
      <trkpt lat="43.59044" lon="6.83162">
        <ele>209.1</ele>
        <time>2025-01-10T09:11:33.000Z</time>
      </trkpt>
      <trkpt lat="43.59044" lon="6.83162">
        <ele>209.1</ele>
        <time>2025-01-10T09:11:32.000Z</time>
      </trkpt>
      <trkpt lat="43.59044" lon="6.83162">
        <ele>209.1</ele>
        <time>2025-01-10T09:11:31.000Z</time>
      </trkpt>
      <trkpt lat="43.59044" lon="6.83161">
        <ele>209.1</ele>
        <time>2025-01-10T09:11:30.000Z</time>
      </trkpt>
      <trkpt lat="43.59044" lon="6.83161">
        <ele>209.1</ele>
        <time>2025-01-10T09:11:29.000Z</time>
      </trkpt>
      <trkpt lat="43.59044" lon="6.83161">
        <ele>209.1</ele>
        <time>2025-01-10T09:11:28.000Z</time>
      </trkpt>
      <trkpt lat="43.59044" lon="6.83161">
        <ele>209.1</ele>
        <time>2025-01-10T09:11:27.000Z</time>
      </trkpt>
      <trkpt lat="43.59044" lon="6.83161">
        <ele>209.1</ele>
        <time>2025-01-10T09:11:26.000Z</time>
      </trkpt>
      <trkpt lat="43.59044" lon="6.83161">
        <ele>209.1</ele>
        <time>2025-01-10T09:11:25.000Z</time>
      </trkpt>
      <trkpt lat="43.59044" lon="6.83161">
        <ele>209.1</ele>
        <time>2025-01-10T09:11:24.000Z</time>
      </trkpt>
      <trkpt lat="43.59044" lon="6.83161">
        <ele>209.1</ele>
        <time>2025-01-10T09:11:23.000Z</time>
      </trkpt>
      <trkpt lat="43.59044" lon="6.83161">
        <ele>209.1</ele>
        <time>2025-01-10T09:11:22.000Z</time>
      </trkpt>
      <trkpt lat="43.59044" lon="6.83161">
        <ele>209.1</ele>
        <time>2025-01-10T09:11:21.000Z</time>
      </trkpt>
      <trkpt lat="43.59044" lon="6.83161">
        <ele>209.1</ele>
        <time>2025-01-10T09:11:20.000Z</time>
      </trkpt>
      <trkpt lat="43.59044" lon="6.83161">
        <ele>209.1</ele>
        <time>2025-01-10T09:11:19.000Z</time>
      </trkpt>
      <trkpt lat="43.59044" lon="6.83161">
        <ele>209.1</ele>
        <time>2025-01-10T09:11:18.000Z</time>
      </trkpt>
      <trkpt lat="43.59044" lon="6.8316">
        <ele>209.1</ele>
        <time>2025-01-10T09:11:17.000Z</time>
      </trkpt>
      <trkpt lat="43.59044" lon="6.8316">
        <ele>209.1</ele>
        <time>2025-01-10T09:11:16.000Z</time>
      </trkpt>
      <trkpt lat="43.59044" lon="6.8316">
        <ele>209.1</ele>
        <time>2025-01-10T09:11:15.000Z</time>
      </trkpt>
      <trkpt lat="43.59044" lon="6.8316">
        <ele>209.1</ele>
        <time>2025-01-10T09:11:14.000Z</time>
      </trkpt>
      <trkpt lat="43.59044" lon="6.8316">
        <ele>209.1</ele>
        <time>2025-01-10T09:11:13.000Z</time>
      </trkpt>
      <trkpt lat="43.59044" lon="6.8316">
        <ele>209.1</ele>
        <time>2025-01-10T09:11:12.000Z</time>
      </trkpt>
      <trkpt lat="43.59044" lon="6.8316">
        <ele>209.1</ele>
        <time>2025-01-10T09:11:11.000Z</time>
      </trkpt>
      <trkpt lat="43.59044" lon="6.8316">
        <ele>209.1</ele>
        <time>2025-01-10T09:11:10.000Z</time>
      </trkpt>
      <trkpt lat="43.59044" lon="6.8316">
        <ele>209.1</ele>
        <time>2025-01-10T09:11:09.000Z</time>
      </trkpt>
      <trkpt lat="43.59044" lon="6.8316">
        <ele>209.1</ele>
        <time>2025-01-10T09:11:08.000Z</time>
      </trkpt>
      <trkpt lat="43.59044" lon="6.8316">
        <ele>209.1</ele>
        <time>2025-01-10T09:11:07.000Z</time>
      </trkpt>
      <trkpt lat="43.59044" lon="6.8316">
        <ele>209.1</ele>
        <time>2025-01-10T09:11:06.000Z</time>
      </trkpt>
      <trkpt lat="43.59044" lon="6.8316">
        <ele>209.1</ele>
        <time>2025-01-10T09:11:05.000Z</time>
      </trkpt>
      <trkpt lat="43.59044" lon="6.8316">
        <ele>209.1</ele>
        <time>2025-01-10T09:11:04.000Z</time>
      </trkpt>
      <trkpt lat="43.59044" lon="6.8316">
        <ele>209.1</ele>
        <time>2025-01-10T09:11:03.000Z</time>
      </trkpt>
      <trkpt lat="43.59044" lon="6.8316">
        <ele>209.1</ele>
        <time>2025-01-10T09:11:02.000Z</time>
      </trkpt>
      <trkpt lat="43.59044" lon="6.8316">
        <ele>209.1</ele>
        <time>2025-01-10T09:11:01.000Z</time>
      </trkpt>
      <trkpt lat="43.59044" lon="6.8316">
        <ele>209.1</ele>
        <time>2025-01-10T09:11:00.000Z</time>
      </trkpt>
      <trkpt lat="43.59044" lon="6.8316">
        <ele>209.1</ele>
        <time>2025-01-10T09:10:59.000Z</time>
      </trkpt>
      <trkpt lat="43.59043" lon="6.8316">
        <ele>209.1</ele>
        <time>2025-01-10T09:10:58.000Z</time>
      </trkpt>
      <trkpt lat="43.59042" lon="6.8316">
        <ele>209.2</ele>
        <time>2025-01-10T09:10:57.000Z</time>
      </trkpt>
      <trkpt lat="43.59042" lon="6.8316">
        <ele>209.2</ele>
        <time>2025-01-10T09:10:56.000Z</time>
      </trkpt>
      <trkpt lat="43.59042" lon="6.8316">
        <ele>209.2</ele>
        <time>2025-01-10T09:10:55.000Z</time>
      </trkpt>
      <trkpt lat="43.59042" lon="6.8316">
        <ele>209.2</ele>
        <time>2025-01-10T09:10:54.000Z</time>
      </trkpt>
      <trkpt lat="43.59042" lon="6.8316">
        <ele>209.2</ele>
        <time>2025-01-10T09:10:53.000Z</time>
      </trkpt>
      <trkpt lat="43.59042" lon="6.8316">
        <ele>209.2</ele>
        <time>2025-01-10T09:10:52.000Z</time>
      </trkpt>
      <trkpt lat="43.59042" lon="6.8316">
        <ele>209.2</ele>
        <time>2025-01-10T09:10:51.000Z</time>
      </trkpt>
      <trkpt lat="43.59041" lon="6.8316">
        <ele>209.2</ele>
        <time>2025-01-10T09:10:50.000Z</time>
      </trkpt>
      <trkpt lat="43.59041" lon="6.8316">
        <ele>209.2</ele>
        <time>2025-01-10T09:10:49.000Z</time>
      </trkpt>
      <trkpt lat="43.5904" lon="6.8316">
        <ele>209.2</ele>
        <time>2025-01-10T09:10:48.000Z</time>
      </trkpt>
      <trkpt lat="43.5904" lon="6.83161">
        <ele>209.2</ele>
        <time>2025-01-10T09:10:47.000Z</time>
      </trkpt>
      <trkpt lat="43.5904" lon="6.83161">
        <ele>209.2</ele>
        <time>2025-01-10T09:10:46.000Z</time>
      </trkpt>
      <trkpt lat="43.5904" lon="6.83161">
        <ele>209.2</ele>
        <time>2025-01-10T09:10:45.000Z</time>
      </trkpt>
      <trkpt lat="43.5904" lon="6.83162">
        <ele>209.2</ele>
        <time>2025-01-10T09:10:44.000Z</time>
      </trkpt>
      <trkpt lat="43.59039" lon="6.83162">
        <ele>209.2</ele>
        <time>2025-01-10T09:10:43.000Z</time>
      </trkpt>
      <trkpt lat="43.59039" lon="6.83162">
        <ele>209.3</ele>
        <time>2025-01-10T09:10:42.000Z</time>
      </trkpt>
      <trkpt lat="43.59039" lon="6.83162">
        <ele>209.3</ele>
        <time>2025-01-10T09:10:41.000Z</time>
      </trkpt>
      <trkpt lat="43.59039" lon="6.83162">
        <ele>209.3</ele>
        <time>2025-01-10T09:10:40.000Z</time>
      </trkpt>
      <trkpt lat="43.59039" lon="6.83162">
        <ele>209.3</ele>
        <time>2025-01-10T09:10:39.000Z</time>
      </trkpt>
      <trkpt lat="43.59038" lon="6.83162">
        <ele>209.3</ele>
        <time>2025-01-10T09:10:38.000Z</time>
      </trkpt>
      <trkpt lat="43.59038" lon="6.83162">
        <ele>209.3</ele>
        <time>2025-01-10T09:10:37.000Z</time>
      </trkpt>
      <trkpt lat="43.59038" lon="6.83163">
        <ele>209.3</ele>
        <time>2025-01-10T09:10:36.000Z</time>
      </trkpt>
      <trkpt lat="43.59038" lon="6.83163">
        <ele>209.3</ele>
        <time>2025-01-10T09:10:35.000Z</time>
      </trkpt>
      <trkpt lat="43.59038" lon="6.83163">
        <ele>209.3</ele>
        <time>2025-01-10T09:10:34.000Z</time>
      </trkpt>
      <trkpt lat="43.59038" lon="6.83163">
        <ele>209.3</ele>
        <time>2025-01-10T09:10:33.000Z</time>
      </trkpt>
      <trkpt lat="43.59038" lon="6.83163">
        <ele>209.3</ele>
        <time>2025-01-10T09:10:32.000Z</time>
      </trkpt>
      <trkpt lat="43.59038" lon="6.83163">
        <ele>209.3</ele>
        <time>2025-01-10T09:10:31.000Z</time>
      </trkpt>
      <trkpt lat="43.59038" lon="6.83163">
        <ele>209.3</ele>
        <time>2025-01-10T09:10:30.000Z</time>
      </trkpt>
      <trkpt lat="43.59038" lon="6.83164">
        <ele>209.3</ele>
        <time>2025-01-10T09:10:29.000Z</time>
      </trkpt>
      <trkpt lat="43.59038" lon="6.83164">
        <ele>209.3</ele>
        <time>2025-01-10T09:10:28.000Z</time>
      </trkpt>
      <trkpt lat="43.59038" lon="6.83164">
        <ele>209.3</ele>
        <time>2025-01-10T09:10:27.000Z</time>
      </trkpt>
      <trkpt lat="43.59038" lon="6.83164">
        <ele>209.3</ele>
        <time>2025-01-10T09:10:26.000Z</time>
      </trkpt>
      <trkpt lat="43.59038" lon="6.83164">
        <ele>209.3</ele>
        <time>2025-01-10T09:10:25.000Z</time>
      </trkpt>
      <trkpt lat="43.59038" lon="6.83164">
        <ele>209.3</ele>
        <time>2025-01-10T09:10:24.000Z</time>
      </trkpt>
      <trkpt lat="43.59038" lon="6.83164">
        <ele>209.3</ele>
        <time>2025-01-10T09:10:23.000Z</time>
      </trkpt>
      <trkpt lat="43.59038" lon="6.83164">
        <ele>209.3</ele>
        <time>2025-01-10T09:10:22.000Z</time>
      </trkpt>
      <trkpt lat="43.59038" lon="6.83164">
        <ele>209.3</ele>
        <time>2025-01-10T09:10:21.000Z</time>
      </trkpt>
      <trkpt lat="43.59038" lon="6.83164">
        <ele>209.3</ele>
        <time>2025-01-10T09:10:20.000Z</time>
      </trkpt>
      <trkpt lat="43.59038" lon="6.83164">
        <ele>209.3</ele>
        <time>2025-01-10T09:10:19.000Z</time>
      </trkpt>
      <trkpt lat="43.59038" lon="6.83164">
        <ele>209.3</ele>
        <time>2025-01-10T09:10:18.000Z</time>
      </trkpt>
      <trkpt lat="43.59038" lon="6.83164">
        <ele>209.3</ele>
        <time>2025-01-10T09:10:17.000Z</time>
      </trkpt>
      <trkpt lat="43.59038" lon="6.83164">
        <ele>209.3</ele>
        <time>2025-01-10T09:10:16.000Z</time>
      </trkpt>
      <trkpt lat="43.59038" lon="6.83164">
        <ele>209.3</ele>
        <time>2025-01-10T09:10:15.000Z</time>
      </trkpt>
      <trkpt lat="43.59038" lon="6.83164">
        <ele>209.3</ele>
        <time>2025-01-10T09:10:14.000Z</time>
      </trkpt>
      <trkpt lat="43.59038" lon="6.83164">
        <ele>209.3</ele>
        <time>2025-01-10T09:10:13.000Z</time>
      </trkpt>
      <trkpt lat="43.59038" lon="6.83164">
        <ele>209.3</ele>
        <time>2025-01-10T09:10:12.000Z</time>
      </trkpt>
      <trkpt lat="43.59038" lon="6.83164">
        <ele>209.3</ele>
        <time>2025-01-10T09:10:11.000Z</time>
      </trkpt>
      <trkpt lat="43.59038" lon="6.83164">
        <ele>209.3</ele>
        <time>2025-01-10T09:10:10.000Z</time>
      </trkpt>
      <trkpt lat="43.59038" lon="6.83164">
        <ele>209.3</ele>
        <time>2025-01-10T09:10:09.000Z</time>
      </trkpt>
      <trkpt lat="43.59038" lon="6.83164">
        <ele>209.4</ele>
        <time>2025-01-10T09:10:08.000Z</time>
      </trkpt>
      <trkpt lat="43.59038" lon="6.83163">
        <ele>209.4</ele>
        <time>2025-01-10T09:10:07.000Z</time>
      </trkpt>
      <trkpt lat="43.59038" lon="6.83163">
        <ele>209.4</ele>
        <time>2025-01-10T09:10:06.000Z</time>
      </trkpt>
      <trkpt lat="43.59037" lon="6.83163">
        <ele>209.4</ele>
        <time>2025-01-10T09:10:05.000Z</time>
      </trkpt>
      <trkpt lat="43.59038" lon="6.83162">
        <ele>209.4</ele>
        <time>2025-01-10T09:10:04.000Z</time>
      </trkpt>
      <trkpt lat="43.59039" lon="6.83164">
        <ele>209.5</ele>
        <time>2025-01-10T09:10:03.000Z</time>
      </trkpt>
      <trkpt lat="43.59041" lon="6.83164">
        <ele>209.5</ele>
        <time>2025-01-10T09:10:02.000Z</time>
      </trkpt>
      <trkpt lat="43.59041" lon="6.83164">
        <ele>209.5</ele>
        <time>2025-01-10T09:10:01.000Z</time>
      </trkpt>
      <trkpt lat="43.59041" lon="6.83164">
        <ele>209.6</ele>
        <time>2025-01-10T09:10:00.000Z</time>
      </trkpt>
      <trkpt lat="43.59041" lon="6.83163">
        <ele>209.6</ele>
        <time>2025-01-10T09:09:59.000Z</time>
      </trkpt>
      <trkpt lat="43.59041" lon="6.83165">
        <ele>209.6</ele>
        <time>2025-01-10T09:09:58.000Z</time>
      </trkpt>
      <trkpt lat="43.59041" lon="6.83165">
        <ele>209.6</ele>
        <time>2025-01-10T09:09:57.000Z</time>
      </trkpt>
      <trkpt lat="43.59041" lon="6.83165">
        <ele>209.6</ele>
        <time>2025-01-10T09:09:56.000Z</time>
      </trkpt>
      <trkpt lat="43.5904" lon="6.83164">
        <ele>209.6</ele>
        <time>2025-01-10T09:09:55.000Z</time>
      </trkpt>
      <trkpt lat="43.5904" lon="6.83164">
        <ele>209.7</ele>
        <time>2025-01-10T09:09:54.000Z</time>
      </trkpt>
      <trkpt lat="43.59038" lon="6.83164">
        <ele>209.7</ele>
        <time>2025-01-10T09:09:53.000Z</time>
      </trkpt>
      <trkpt lat="43.59036" lon="6.83164">
        <ele>209.8</ele>
        <time>2025-01-10T09:09:52.000Z</time>
      </trkpt>
      <trkpt lat="43.59034" lon="6.83163">
        <ele>209.9</ele>
        <time>2025-01-10T09:09:51.000Z</time>
      </trkpt>
      <trkpt lat="43.59029" lon="6.83161">
        <ele>210.1</ele>
        <time>2025-01-10T09:09:50.000Z</time>
      </trkpt>
      <trkpt lat="43.59026" lon="6.83159">
        <ele>210.3</ele>
        <time>2025-01-10T09:09:49.000Z</time>
      </trkpt>
      <trkpt lat="43.59021" lon="6.83156">
        <ele>210.6</ele>
        <time>2025-01-10T09:09:48.000Z</time>
      </trkpt>
      <trkpt lat="43.59017" lon="6.83153">
        <ele>210.9</ele>
        <time>2025-01-10T09:09:47.000Z</time>
      </trkpt>
      <trkpt lat="43.59011" lon="6.8315">
        <ele>211.2</ele>
        <time>2025-01-10T09:09:46.000Z</time>
      </trkpt>
      <trkpt lat="43.59007" lon="6.83149">
        <ele>211.5</ele>
        <time>2025-01-10T09:09:45.000Z</time>
      </trkpt>
      <trkpt lat="43.59003" lon="6.83149">
        <ele>211.7</ele>
        <time>2025-01-10T09:09:44.000Z</time>
      </trkpt>
      <trkpt lat="43.58998" lon="6.8315">
        <ele>211.9</ele>
        <time>2025-01-10T09:09:43.000Z</time>
      </trkpt>
      <trkpt lat="43.58994" lon="6.83151">
        <ele>212</ele>
        <time>2025-01-10T09:09:42.000Z</time>
      </trkpt>
      <trkpt lat="43.58989" lon="6.83151">
        <ele>212.2</ele>
        <time>2025-01-10T09:09:41.000Z</time>
      </trkpt>
      <trkpt lat="43.58986" lon="6.83151">
        <ele>212.3</ele>
        <time>2025-01-10T09:09:40.000Z</time>
      </trkpt>
      <trkpt lat="43.58983" lon="6.83149">
        <ele>212.4</ele>
        <time>2025-01-10T09:09:39.000Z</time>
      </trkpt>
      <trkpt lat="43.5898" lon="6.83144">
        <ele>212.6</ele>
        <time>2025-01-10T09:09:38.000Z</time>
      </trkpt>
      <trkpt lat="43.58979" lon="6.83138">
        <ele>212.7</ele>
        <time>2025-01-10T09:09:37.000Z</time>
      </trkpt>
      <trkpt lat="43.58979" lon="6.83132">
        <ele>212.9</ele>
        <time>2025-01-10T09:09:36.000Z</time>
      </trkpt>
      <trkpt lat="43.58979" lon="6.83127">
        <ele>213.1</ele>
        <time>2025-01-10T09:09:35.000Z</time>
      </trkpt>
      <trkpt lat="43.58978" lon="6.83122">
        <ele>213.2</ele>
        <time>2025-01-10T09:09:34.000Z</time>
      </trkpt>
      <trkpt lat="43.58977" lon="6.83117">
        <ele>213.3</ele>
        <time>2025-01-10T09:09:33.000Z</time>
      </trkpt>
      <trkpt lat="43.58975" lon="6.83114">
        <ele>213.4</ele>
        <time>2025-01-10T09:09:32.000Z</time>
      </trkpt>
      <trkpt lat="43.58972" lon="6.83111">
        <ele>213.6</ele>
        <time>2025-01-10T09:09:31.000Z</time>
      </trkpt>
      <trkpt lat="43.58968" lon="6.83108">
        <ele>213.7</ele>
        <time>2025-01-10T09:09:30.000Z</time>
      </trkpt>
      <trkpt lat="43.58965" lon="6.83107">
        <ele>213.7</ele>
        <time>2025-01-10T09:09:29.000Z</time>
      </trkpt>
      <trkpt lat="43.5896" lon="6.83107">
        <ele>213.8</ele>
        <time>2025-01-10T09:09:28.000Z</time>
      </trkpt>
      <trkpt lat="43.58956" lon="6.83108">
        <ele>213.9</ele>
        <time>2025-01-10T09:09:27.000Z</time>
      </trkpt>
      <trkpt lat="43.58953" lon="6.83108">
        <ele>214</ele>
        <time>2025-01-10T09:09:26.000Z</time>
      </trkpt>
      <trkpt lat="43.58948" lon="6.83109">
        <ele>214.1</ele>
        <time>2025-01-10T09:09:25.000Z</time>
      </trkpt>
      <trkpt lat="43.58942" lon="6.83108">
        <ele>214.2</ele>
        <time>2025-01-10T09:09:24.000Z</time>
      </trkpt>
      <trkpt lat="43.58936" lon="6.83109">
        <ele>214.4</ele>
        <time>2025-01-10T09:09:23.000Z</time>
      </trkpt>
      <trkpt lat="43.58931" lon="6.83109">
        <ele>214.6</ele>
        <time>2025-01-10T09:09:22.000Z</time>
      </trkpt>
      <trkpt lat="43.58926" lon="6.83114">
        <ele>214.8</ele>
        <time>2025-01-10T09:09:21.000Z</time>
      </trkpt>
      <trkpt lat="43.58922" lon="6.83115">
        <ele>214.9</ele>
        <time>2025-01-10T09:09:20.000Z</time>
      </trkpt>
      <trkpt lat="43.58918" lon="6.83118">
        <ele>215.1</ele>
        <time>2025-01-10T09:09:19.000Z</time>
      </trkpt>
      <trkpt lat="43.58914" lon="6.8312">
        <ele>215.2</ele>
        <time>2025-01-10T09:09:18.000Z</time>
      </trkpt>
      <trkpt lat="43.5891" lon="6.83122">
        <ele>215.4</ele>
        <time>2025-01-10T09:09:17.000Z</time>
      </trkpt>
      <trkpt lat="43.58906" lon="6.83124">
        <ele>215.5</ele>
        <time>2025-01-10T09:09:16.000Z</time>
      </trkpt>
      <trkpt lat="43.58904" lon="6.83124">
        <ele>215.6</ele>
        <time>2025-01-10T09:09:15.000Z</time>
      </trkpt>
      <trkpt lat="43.58901" lon="6.83122">
        <ele>215.7</ele>
        <time>2025-01-10T09:09:14.000Z</time>
      </trkpt>
      <trkpt lat="43.58899" lon="6.83117">
        <ele>215.9</ele>
        <time>2025-01-10T09:09:13.000Z</time>
      </trkpt>
      <trkpt lat="43.58896" lon="6.8311">
        <ele>216.1</ele>
        <time>2025-01-10T09:09:12.000Z</time>
      </trkpt>
      <trkpt lat="43.58895" lon="6.83103">
        <ele>216.4</ele>
        <time>2025-01-10T09:09:11.000Z</time>
      </trkpt>
      <trkpt lat="43.58894" lon="6.83096">
        <ele>216.6</ele>
        <time>2025-01-10T09:09:10.000Z</time>
      </trkpt>
      <trkpt lat="43.58893" lon="6.83088">
        <ele>216.9</ele>
        <time>2025-01-10T09:09:09.000Z</time>
      </trkpt>
      <trkpt lat="43.58891" lon="6.83081">
        <ele>217.3</ele>
        <time>2025-01-10T09:09:08.000Z</time>
      </trkpt>
      <trkpt lat="43.58889" lon="6.83073">
        <ele>217.6</ele>
        <time>2025-01-10T09:09:07.000Z</time>
      </trkpt>
      <trkpt lat="43.58887" lon="6.83066">
        <ele>217.9</ele>
        <time>2025-01-10T09:09:06.000Z</time>
      </trkpt>
      <trkpt lat="43.58885" lon="6.83059">
        <ele>218.3</ele>
        <time>2025-01-10T09:09:05.000Z</time>
      </trkpt>
      <trkpt lat="43.58884" lon="6.83052">
        <ele>218.7</ele>
        <time>2025-01-10T09:09:04.000Z</time>
      </trkpt>
      <trkpt lat="43.58884" lon="6.83044">
        <ele>219.1</ele>
        <time>2025-01-10T09:09:03.000Z</time>
      </trkpt>
      <trkpt lat="43.58884" lon="6.83037">
        <ele>219.6</ele>
        <time>2025-01-10T09:09:02.000Z</time>
      </trkpt>
      <trkpt lat="43.58885" lon="6.83029">
        <ele>220</ele>
        <time>2025-01-10T09:09:01.000Z</time>
      </trkpt>
      <trkpt lat="43.58884" lon="6.83022">
        <ele>220.5</ele>
        <time>2025-01-10T09:09:00.000Z</time>
      </trkpt>
      <trkpt lat="43.58884" lon="6.83015">
        <ele>220.9</ele>
        <time>2025-01-10T09:08:59.000Z</time>
      </trkpt>
      <trkpt lat="43.58884" lon="6.83009">
        <ele>221.2</ele>
        <time>2025-01-10T09:08:58.000Z</time>
      </trkpt>
      <trkpt lat="43.58885" lon="6.83003">
        <ele>221.5</ele>
        <time>2025-01-10T09:08:57.000Z</time>
      </trkpt>
      <trkpt lat="43.58885" lon="6.83002">
        <ele>221.5</ele>
        <time>2025-01-10T09:08:56.000Z</time>
      </trkpt>
      <trkpt lat="43.58885" lon="6.83002">
        <ele>221.6</ele>
        <time>2025-01-10T09:08:55.000Z</time>
      </trkpt>
      <trkpt lat="43.58885" lon="6.83001">
        <ele>221.6</ele>
        <time>2025-01-10T09:08:54.000Z</time>
      </trkpt>
      <trkpt lat="43.58885" lon="6.83001">
        <ele>221.6</ele>
        <time>2025-01-10T09:08:53.000Z</time>
      </trkpt>
      <trkpt lat="43.58885" lon="6.83">
        <ele>221.7</ele>
        <time>2025-01-10T09:08:52.000Z</time>
      </trkpt>
      <trkpt lat="43.58885" lon="6.82999">
        <ele>221.7</ele>
        <time>2025-01-10T09:08:51.000Z</time>
      </trkpt>
      <trkpt lat="43.58885" lon="6.82999">
        <ele>221.7</ele>
        <time>2025-01-10T09:08:50.000Z</time>
      </trkpt>
      <trkpt lat="43.58885" lon="6.82998">
        <ele>221.7</ele>
        <time>2025-01-10T09:08:49.000Z</time>
      </trkpt>
      <trkpt lat="43.58885" lon="6.82997">
        <ele>221.8</ele>
        <time>2025-01-10T09:08:48.000Z</time>
      </trkpt>
      <trkpt lat="43.58885" lon="6.82997">
        <ele>221.8</ele>
        <time>2025-01-10T09:08:47.000Z</time>
      </trkpt>
      <trkpt lat="43.58886" lon="6.82996">
        <ele>221.8</ele>
        <time>2025-01-10T09:08:46.000Z</time>
      </trkpt>
      <trkpt lat="43.58886" lon="6.82996">
        <ele>221.9</ele>
        <time>2025-01-10T09:08:45.000Z</time>
      </trkpt>
      <trkpt lat="43.58886" lon="6.82995">
        <ele>221.9</ele>
        <time>2025-01-10T09:08:44.000Z</time>
      </trkpt>
      <trkpt lat="43.58886" lon="6.82994">
        <ele>221.9</ele>
        <time>2025-01-10T09:08:43.000Z</time>
      </trkpt>
      <trkpt lat="43.58886" lon="6.82994">
        <ele>221.9</ele>
        <time>2025-01-10T09:08:42.000Z</time>
      </trkpt>
      <trkpt lat="43.58886" lon="6.82993">
        <ele>222</ele>
        <time>2025-01-10T09:08:41.000Z</time>
      </trkpt>
      <trkpt lat="43.58886" lon="6.82993">
        <ele>222</ele>
        <time>2025-01-10T09:08:40.000Z</time>
      </trkpt>
      <trkpt lat="43.58886" lon="6.82992">
        <ele>222</ele>
        <time>2025-01-10T09:08:39.000Z</time>
      </trkpt>
      <trkpt lat="43.58886" lon="6.82991">
        <ele>222</ele>
        <time>2025-01-10T09:08:38.000Z</time>
      </trkpt>
      <trkpt lat="43.58886" lon="6.82991">
        <ele>222.1</ele>
        <time>2025-01-10T09:08:37.000Z</time>
      </trkpt>
      <trkpt lat="43.58886" lon="6.8299">
        <ele>222.1</ele>
        <time>2025-01-10T09:08:36.000Z</time>
      </trkpt>
      <trkpt lat="43.58887" lon="6.82989">
        <ele>222.1</ele>
        <time>2025-01-10T09:08:35.000Z</time>
      </trkpt>
      <trkpt lat="43.58887" lon="6.82989">
        <ele>222.1</ele>
        <time>2025-01-10T09:08:34.000Z</time>
      </trkpt>
      <trkpt lat="43.58887" lon="6.82988">
        <ele>222.2</ele>
        <time>2025-01-10T09:08:33.000Z</time>
      </trkpt>
      <trkpt lat="43.58887" lon="6.82988">
        <ele>222.2</ele>
        <time>2025-01-10T09:08:32.000Z</time>
      </trkpt>
      <trkpt lat="43.58887" lon="6.82987">
        <ele>222.2</ele>
        <time>2025-01-10T09:08:31.000Z</time>
      </trkpt>
      <trkpt lat="43.58887" lon="6.82986">
        <ele>222.2</ele>
        <time>2025-01-10T09:08:30.000Z</time>
      </trkpt>
      <trkpt lat="43.58887" lon="6.82986">
        <ele>222.2</ele>
        <time>2025-01-10T09:08:29.000Z</time>
      </trkpt>
      <trkpt lat="43.58887" lon="6.82985">
        <ele>222.3</ele>
        <time>2025-01-10T09:08:28.000Z</time>
      </trkpt>
      <trkpt lat="43.58887" lon="6.82985">
        <ele>222.3</ele>
        <time>2025-01-10T09:08:27.000Z</time>
      </trkpt>
      <trkpt lat="43.58887" lon="6.82984">
        <ele>222.3</ele>
        <time>2025-01-10T09:08:26.000Z</time>
      </trkpt>
      <trkpt lat="43.58887" lon="6.82983">
        <ele>222.3</ele>
        <time>2025-01-10T09:08:25.000Z</time>
      </trkpt>
      <trkpt lat="43.58887" lon="6.82983">
        <ele>222.4</ele>
        <time>2025-01-10T09:08:24.000Z</time>
      </trkpt>
      <trkpt lat="43.58888" lon="6.82982">
        <ele>222.4</ele>
        <time>2025-01-10T09:08:23.000Z</time>
      </trkpt>
      <trkpt lat="43.58888" lon="6.82981">
        <ele>222.4</ele>
        <time>2025-01-10T09:08:22.000Z</time>
      </trkpt>
      <trkpt lat="43.58888" lon="6.82981">
        <ele>222.4</ele>
        <time>2025-01-10T09:08:21.000Z</time>
      </trkpt>
      <trkpt lat="43.58888" lon="6.8298">
        <ele>222.4</ele>
        <time>2025-01-10T09:08:20.000Z</time>
      </trkpt>
      <trkpt lat="43.58888" lon="6.8298">
        <ele>222.5</ele>
        <time>2025-01-10T09:08:19.000Z</time>
      </trkpt>
      <trkpt lat="43.58888" lon="6.82979">
        <ele>222.5</ele>
        <time>2025-01-10T09:08:18.000Z</time>
      </trkpt>
      <trkpt lat="43.58888" lon="6.82978">
        <ele>222.5</ele>
        <time>2025-01-10T09:08:17.000Z</time>
      </trkpt>
      <trkpt lat="43.58888" lon="6.82978">
        <ele>222.5</ele>
        <time>2025-01-10T09:08:16.000Z</time>
      </trkpt>
      <trkpt lat="43.58888" lon="6.82977">
        <ele>222.5</ele>
        <time>2025-01-10T09:08:15.000Z</time>
      </trkpt>
      <trkpt lat="43.58888" lon="6.82977">
        <ele>222.6</ele>
        <time>2025-01-10T09:08:14.000Z</time>
      </trkpt>
      <trkpt lat="43.58888" lon="6.82976">
        <ele>222.6</ele>
        <time>2025-01-10T09:08:13.000Z</time>
      </trkpt>
      <trkpt lat="43.58889" lon="6.82975">
        <ele>222.6</ele>
        <time>2025-01-10T09:08:12.000Z</time>
      </trkpt>
      <trkpt lat="43.58889" lon="6.82975">
        <ele>222.6</ele>
        <time>2025-01-10T09:08:11.000Z</time>
      </trkpt>
      <trkpt lat="43.58889" lon="6.82974">
        <ele>222.6</ele>
        <time>2025-01-10T09:08:10.000Z</time>
      </trkpt>
      <trkpt lat="43.58889" lon="6.82973">
        <ele>222.6</ele>
        <time>2025-01-10T09:08:09.000Z</time>
      </trkpt>
      <trkpt lat="43.58889" lon="6.82973">
        <ele>222.7</ele>
        <time>2025-01-10T09:08:08.000Z</time>
      </trkpt>
      <trkpt lat="43.58889" lon="6.82972">
        <ele>222.7</ele>
        <time>2025-01-10T09:08:07.000Z</time>
      </trkpt>
      <trkpt lat="43.58889" lon="6.82972">
        <ele>222.7</ele>
        <time>2025-01-10T09:08:06.000Z</time>
      </trkpt>
      <trkpt lat="43.58889" lon="6.82971">
        <ele>222.7</ele>
        <time>2025-01-10T09:08:05.000Z</time>
      </trkpt>
      <trkpt lat="43.58889" lon="6.8297">
        <ele>222.7</ele>
        <time>2025-01-10T09:08:04.000Z</time>
      </trkpt>
      <trkpt lat="43.58889" lon="6.8297">
        <ele>222.7</ele>
        <time>2025-01-10T09:08:03.000Z</time>
      </trkpt>
      <trkpt lat="43.58889" lon="6.82969">
        <ele>222.8</ele>
        <time>2025-01-10T09:08:02.000Z</time>
      </trkpt>
      <trkpt lat="43.5889" lon="6.82968">
        <ele>222.8</ele>
        <time>2025-01-10T09:08:01.000Z</time>
      </trkpt>
      <trkpt lat="43.5889" lon="6.82968">
        <ele>222.8</ele>
        <time>2025-01-10T09:08:00.000Z</time>
      </trkpt>
      <trkpt lat="43.5889" lon="6.82967">
        <ele>222.8</ele>
        <time>2025-01-10T09:07:59.000Z</time>
      </trkpt>
      <trkpt lat="43.5889" lon="6.82967">
        <ele>222.8</ele>
        <time>2025-01-10T09:07:58.000Z</time>
      </trkpt>
      <trkpt lat="43.5889" lon="6.82966">
        <ele>222.9</ele>
        <time>2025-01-10T09:07:57.000Z</time>
      </trkpt>
      <trkpt lat="43.5889" lon="6.82965">
        <ele>222.9</ele>
        <time>2025-01-10T09:07:56.000Z</time>
      </trkpt>
      <trkpt lat="43.5889" lon="6.82965">
        <ele>222.9</ele>
        <time>2025-01-10T09:07:55.000Z</time>
      </trkpt>
      <trkpt lat="43.5889" lon="6.82964">
        <ele>222.9</ele>
        <time>2025-01-10T09:07:54.000Z</time>
      </trkpt>
      <trkpt lat="43.58891" lon="6.82964">
        <ele>222.9</ele>
        <time>2025-01-10T09:07:53.000Z</time>
      </trkpt>
      <trkpt lat="43.58891" lon="6.82963">
        <ele>222.9</ele>
        <time>2025-01-10T09:07:52.000Z</time>
      </trkpt>
      <trkpt lat="43.5889" lon="6.82962">
        <ele>223</ele>
        <time>2025-01-10T09:07:51.000Z</time>
      </trkpt>
      <trkpt lat="43.58888" lon="6.82961">
        <ele>223.1</ele>
        <time>2025-01-10T09:07:50.000Z</time>
      </trkpt>
      <trkpt lat="43.58885" lon="6.82959">
        <ele>223.3</ele>
        <time>2025-01-10T09:07:49.000Z</time>
      </trkpt>
      <trkpt lat="43.58883" lon="6.82957">
        <ele>223.5</ele>
        <time>2025-01-10T09:07:48.000Z</time>
      </trkpt>
      <trkpt lat="43.58877" lon="6.82955">
        <ele>224</ele>
        <time>2025-01-10T09:07:47.000Z</time>
      </trkpt>
      <trkpt lat="43.58872" lon="6.82954">
        <ele>224.4</ele>
        <time>2025-01-10T09:07:46.000Z</time>
      </trkpt>
      <trkpt lat="43.58867" lon="6.82953">
        <ele>224.8</ele>
        <time>2025-01-10T09:07:45.000Z</time>
      </trkpt>
      <trkpt lat="43.5886" lon="6.82951">
        <ele>225.4</ele>
        <time>2025-01-10T09:07:44.000Z</time>
      </trkpt>
      <trkpt lat="43.58855" lon="6.82951">
        <ele>225.9</ele>
        <time>2025-01-10T09:07:43.000Z</time>
      </trkpt>
      <trkpt lat="43.58847" lon="6.82949">
        <ele>226.7</ele>
        <time>2025-01-10T09:07:42.000Z</time>
      </trkpt>
      <trkpt lat="43.58841" lon="6.82949">
        <ele>227.4</ele>
        <time>2025-01-10T09:07:41.000Z</time>
      </trkpt>
      <trkpt lat="43.58836" lon="6.82948">
        <ele>228</ele>
        <time>2025-01-10T09:07:40.000Z</time>
      </trkpt>
      <trkpt lat="43.5883" lon="6.82947">
        <ele>228.8</ele>
        <time>2025-01-10T09:07:39.000Z</time>
      </trkpt>
      <trkpt lat="43.58824" lon="6.82946">
        <ele>229.5</ele>
        <time>2025-01-10T09:07:38.000Z</time>
      </trkpt>
      <trkpt lat="43.5882" lon="6.82945">
        <ele>230.1</ele>
        <time>2025-01-10T09:07:37.000Z</time>
      </trkpt>
      <trkpt lat="43.58815" lon="6.82943">
        <ele>230.6</ele>
        <time>2025-01-10T09:07:36.000Z</time>
      </trkpt>
      <trkpt lat="43.58811" lon="6.82942">
        <ele>231.1</ele>
        <time>2025-01-10T09:07:35.000Z</time>
      </trkpt>
      <trkpt lat="43.58807" lon="6.82941">
        <ele>231.4</ele>
        <time>2025-01-10T09:07:34.000Z</time>
      </trkpt>
      <trkpt lat="43.58802" lon="6.82939">
        <ele>231.8</ele>
        <time>2025-01-10T09:07:33.000Z</time>
      </trkpt>
      <trkpt lat="43.58799" lon="6.82938">
        <ele>232.1</ele>
        <time>2025-01-10T09:07:32.000Z</time>
      </trkpt>
      <trkpt lat="43.58796" lon="6.82937">
        <ele>232.2</ele>
        <time>2025-01-10T09:07:31.000Z</time>
      </trkpt>
      <trkpt lat="43.58793" lon="6.82936">
        <ele>232.3</ele>
        <time>2025-01-10T09:07:30.000Z</time>
      </trkpt>
      <trkpt lat="43.58789" lon="6.82934">
        <ele>232.4</ele>
        <time>2025-01-10T09:07:29.000Z</time>
      </trkpt>
      <trkpt lat="43.58785" lon="6.82931">
        <ele>232.5</ele>
        <time>2025-01-10T09:07:28.000Z</time>
      </trkpt>
      <trkpt lat="43.58782" lon="6.82929">
        <ele>232.5</ele>
        <time>2025-01-10T09:07:27.000Z</time>
      </trkpt>
      <trkpt lat="43.58779" lon="6.82927">
        <ele>232.5</ele>
        <time>2025-01-10T09:07:26.000Z</time>
      </trkpt>
      <trkpt lat="43.58775" lon="6.82925">
        <ele>232.5</ele>
        <time>2025-01-10T09:07:25.000Z</time>
      </trkpt>
      <trkpt lat="43.58772" lon="6.82922">
        <ele>232.4</ele>
        <time>2025-01-10T09:07:24.000Z</time>
      </trkpt>
      <trkpt lat="43.58769" lon="6.82919">
        <ele>232.4</ele>
        <time>2025-01-10T09:07:23.000Z</time>
      </trkpt>
      <trkpt lat="43.58767" lon="6.82914">
        <ele>232.4</ele>
        <time>2025-01-10T09:07:22.000Z</time>
      </trkpt>
      <trkpt lat="43.58766" lon="6.82908">
        <ele>232.4</ele>
        <time>2025-01-10T09:07:21.000Z</time>
      </trkpt>
      <trkpt lat="43.58765" lon="6.82902">
        <ele>232.5</ele>
        <time>2025-01-10T09:07:20.000Z</time>
      </trkpt>
      <trkpt lat="43.58766" lon="6.82896">
        <ele>232.7</ele>
        <time>2025-01-10T09:07:19.000Z</time>
      </trkpt>
      <trkpt lat="43.58766" lon="6.82889">
        <ele>232.9</ele>
        <time>2025-01-10T09:07:18.000Z</time>
      </trkpt>
      <trkpt lat="43.58765" lon="6.82883">
        <ele>233.2</ele>
        <time>2025-01-10T09:07:17.000Z</time>
      </trkpt>
      <trkpt lat="43.58763" lon="6.82878">
        <ele>233.5</ele>
        <time>2025-01-10T09:07:16.000Z</time>
      </trkpt>
      <trkpt lat="43.5876" lon="6.82872">
        <ele>234</ele>
        <time>2025-01-10T09:07:15.000Z</time>
      </trkpt>
      <trkpt lat="43.58755" lon="6.82867">
        <ele>234.7</ele>
        <time>2025-01-10T09:07:14.000Z</time>
      </trkpt>
      <trkpt lat="43.58751" lon="6.82864">
        <ele>235.3</ele>
        <time>2025-01-10T09:07:13.000Z</time>
      </trkpt>
      <trkpt lat="43.58747" lon="6.82861">
        <ele>236</ele>
        <time>2025-01-10T09:07:12.000Z</time>
      </trkpt>
      <trkpt lat="43.58741" lon="6.82858">
        <ele>236.9</ele>
        <time>2025-01-10T09:07:11.000Z</time>
      </trkpt>
      <trkpt lat="43.58736" lon="6.82856">
        <ele>237.5</ele>
        <time>2025-01-10T09:07:10.000Z</time>
      </trkpt>
      <trkpt lat="43.58732" lon="6.82856">
        <ele>238.2</ele>
        <time>2025-01-10T09:07:09.000Z</time>
      </trkpt>
      <trkpt lat="43.58728" lon="6.82855">
        <ele>238.7</ele>
        <time>2025-01-10T09:07:08.000Z</time>
      </trkpt>
      <trkpt lat="43.58724" lon="6.82856">
        <ele>239.1</ele>
        <time>2025-01-10T09:07:07.000Z</time>
      </trkpt>
      <trkpt lat="43.58722" lon="6.82856">
        <ele>239.5</ele>
        <time>2025-01-10T09:07:06.000Z</time>
      </trkpt>
      <trkpt lat="43.58717" lon="6.82857">
        <ele>240.2</ele>
        <time>2025-01-10T09:07:05.000Z</time>
      </trkpt>
      <trkpt lat="43.58713" lon="6.82857">
        <ele>240.7</ele>
        <time>2025-01-10T09:07:04.000Z</time>
      </trkpt>
      <trkpt lat="43.5871" lon="6.82857">
        <ele>241.1</ele>
        <time>2025-01-10T09:07:03.000Z</time>
      </trkpt>
      <trkpt lat="43.58705" lon="6.82858">
        <ele>241.6</ele>
        <time>2025-01-10T09:07:02.000Z</time>
      </trkpt>
      <trkpt lat="43.58701" lon="6.8286">
        <ele>241.9</ele>
        <time>2025-01-10T09:07:01.000Z</time>
      </trkpt>
      <trkpt lat="43.58697" lon="6.82861">
        <ele>242.2</ele>
        <time>2025-01-10T09:07:00.000Z</time>
      </trkpt>
      <trkpt lat="43.58695" lon="6.82863">
        <ele>242.5</ele>
        <time>2025-01-10T09:06:59.000Z</time>
      </trkpt>
      <trkpt lat="43.58692" lon="6.82865">
        <ele>242.7</ele>
        <time>2025-01-10T09:06:58.000Z</time>
      </trkpt>
      <trkpt lat="43.58688" lon="6.82868">
        <ele>242.9</ele>
        <time>2025-01-10T09:06:57.000Z</time>
      </trkpt>
      <trkpt lat="43.58684" lon="6.82871">
        <ele>243.3</ele>
        <time>2025-01-10T09:06:56.000Z</time>
      </trkpt>
      <trkpt lat="43.5868" lon="6.82873">
        <ele>243.5</ele>
        <time>2025-01-10T09:06:55.000Z</time>
      </trkpt>
      <trkpt lat="43.58676" lon="6.82876">
        <ele>243.8</ele>
        <time>2025-01-10T09:06:54.000Z</time>
      </trkpt>
      <trkpt lat="43.58671" lon="6.82879">
        <ele>244.2</ele>
        <time>2025-01-10T09:06:53.000Z</time>
      </trkpt>
      <trkpt lat="43.58666" lon="6.82883">
        <ele>244.6</ele>
        <time>2025-01-10T09:06:52.000Z</time>
      </trkpt>
      <trkpt lat="43.58662" lon="6.82887">
        <ele>245.1</ele>
        <time>2025-01-10T09:06:51.000Z</time>
      </trkpt>
      <trkpt lat="43.58658" lon="6.82892">
        <ele>245.5</ele>
        <time>2025-01-10T09:06:50.000Z</time>
      </trkpt>
      <trkpt lat="43.58654" lon="6.82896">
        <ele>246</ele>
        <time>2025-01-10T09:06:49.000Z</time>
      </trkpt>
      <trkpt lat="43.5865" lon="6.829">
        <ele>246.4</ele>
        <time>2025-01-10T09:06:48.000Z</time>
      </trkpt>
      <trkpt lat="43.58646" lon="6.82904">
        <ele>246.9</ele>
        <time>2025-01-10T09:06:47.000Z</time>
      </trkpt>
      <trkpt lat="43.58642" lon="6.82908">
        <ele>247.4</ele>
        <time>2025-01-10T09:06:46.000Z</time>
      </trkpt>
      <trkpt lat="43.58639" lon="6.82912">
        <ele>247.7</ele>
        <time>2025-01-10T09:06:45.000Z</time>
      </trkpt>
      <trkpt lat="43.58636" lon="6.82915">
        <ele>248.1</ele>
        <time>2025-01-10T09:06:44.000Z</time>
      </trkpt>
      <trkpt lat="43.58634" lon="6.82918">
        <ele>248.4</ele>
        <time>2025-01-10T09:06:43.000Z</time>
      </trkpt>
      <trkpt lat="43.5863" lon="6.82921">
        <ele>248.9</ele>
        <time>2025-01-10T09:06:42.000Z</time>
      </trkpt>
      <trkpt lat="43.58627" lon="6.82923">
        <ele>249.1</ele>
        <time>2025-01-10T09:06:41.000Z</time>
      </trkpt>
      <trkpt lat="43.58624" lon="6.82925">
        <ele>249.4</ele>
        <time>2025-01-10T09:06:40.000Z</time>
      </trkpt>
      <trkpt lat="43.58621" lon="6.82927">
        <ele>249.6</ele>
        <time>2025-01-10T09:06:39.000Z</time>
      </trkpt>
      <trkpt lat="43.58618" lon="6.82929">
        <ele>249.8</ele>
        <time>2025-01-10T09:06:38.000Z</time>
      </trkpt>
      <trkpt lat="43.58615" lon="6.82931">
        <ele>250</ele>
        <time>2025-01-10T09:06:37.000Z</time>
      </trkpt>
      <trkpt lat="43.58611" lon="6.82933">
        <ele>250.1</ele>
        <time>2025-01-10T09:06:36.000Z</time>
      </trkpt>
      <trkpt lat="43.58607" lon="6.82934">
        <ele>250.1</ele>
        <time>2025-01-10T09:06:35.000Z</time>
      </trkpt>
      <trkpt lat="43.58602" lon="6.82935">
        <ele>250</ele>
        <time>2025-01-10T09:06:34.000Z</time>
      </trkpt>
      <trkpt lat="43.58598" lon="6.82936">
        <ele>249.9</ele>
        <time>2025-01-10T09:06:33.000Z</time>
      </trkpt>
      <trkpt lat="43.58593" lon="6.82936">
        <ele>249.8</ele>
        <time>2025-01-10T09:06:32.000Z</time>
      </trkpt>
      <trkpt lat="43.58589" lon="6.82937">
        <ele>249.8</ele>
        <time>2025-01-10T09:06:31.000Z</time>
      </trkpt>
      <trkpt lat="43.58584" lon="6.82938">
        <ele>249.7</ele>
        <time>2025-01-10T09:06:30.000Z</time>
      </trkpt>
      <trkpt lat="43.5858" lon="6.82939">
        <ele>249.7</ele>
        <time>2025-01-10T09:06:29.000Z</time>
      </trkpt>
      <trkpt lat="43.58575" lon="6.8294">
        <ele>249.7</ele>
        <time>2025-01-10T09:06:28.000Z</time>
      </trkpt>
      <trkpt lat="43.5857" lon="6.82941">
        <ele>249.8</ele>
        <time>2025-01-10T09:06:27.000Z</time>
      </trkpt>
      <trkpt lat="43.58566" lon="6.82942">
        <ele>249.8</ele>
        <time>2025-01-10T09:06:26.000Z</time>
      </trkpt>
      <trkpt lat="43.58562" lon="6.82943">
        <ele>249.8</ele>
        <time>2025-01-10T09:06:25.000Z</time>
      </trkpt>
      <trkpt lat="43.58557" lon="6.82944">
        <ele>249.9</ele>
        <time>2025-01-10T09:06:24.000Z</time>
      </trkpt>
      <trkpt lat="43.58552" lon="6.82945">
        <ele>249.9</ele>
        <time>2025-01-10T09:06:23.000Z</time>
      </trkpt>
      <trkpt lat="43.58548" lon="6.82946">
        <ele>249.9</ele>
        <time>2025-01-10T09:06:22.000Z</time>
      </trkpt>
      <trkpt lat="43.58543" lon="6.82946">
        <ele>249.9</ele>
        <time>2025-01-10T09:06:21.000Z</time>
      </trkpt>
      <trkpt lat="43.58538" lon="6.82947">
        <ele>249.9</ele>
        <time>2025-01-10T09:06:20.000Z</time>
      </trkpt>
      <trkpt lat="43.58533" lon="6.82949">
        <ele>250</ele>
        <time>2025-01-10T09:06:19.000Z</time>
      </trkpt>
      <trkpt lat="43.58527" lon="6.8295">
        <ele>250</ele>
        <time>2025-01-10T09:06:18.000Z</time>
      </trkpt>
      <trkpt lat="43.58523" lon="6.82952">
        <ele>250.1</ele>
        <time>2025-01-10T09:06:17.000Z</time>
      </trkpt>
      <trkpt lat="43.58517" lon="6.82955">
        <ele>250.2</ele>
        <time>2025-01-10T09:06:16.000Z</time>
      </trkpt>
      <trkpt lat="43.58512" lon="6.82958">
        <ele>250.4</ele>
        <time>2025-01-10T09:06:15.000Z</time>
      </trkpt>
      <trkpt lat="43.58508" lon="6.82962">
        <ele>250.7</ele>
        <time>2025-01-10T09:06:14.000Z</time>
      </trkpt>
      <trkpt lat="43.58504" lon="6.82966">
        <ele>250.9</ele>
        <time>2025-01-10T09:06:13.000Z</time>
      </trkpt>
      <trkpt lat="43.585" lon="6.82971">
        <ele>251.2</ele>
        <time>2025-01-10T09:06:12.000Z</time>
      </trkpt>
      <trkpt lat="43.58496" lon="6.82975">
        <ele>251.4</ele>
        <time>2025-01-10T09:06:11.000Z</time>
      </trkpt>
      <trkpt lat="43.58492" lon="6.8298">
        <ele>251.8</ele>
        <time>2025-01-10T09:06:10.000Z</time>
      </trkpt>
      <trkpt lat="43.58489" lon="6.82986">
        <ele>252.2</ele>
        <time>2025-01-10T09:06:09.000Z</time>
      </trkpt>
      <trkpt lat="43.58487" lon="6.82992">
        <ele>252.6</ele>
        <time>2025-01-10T09:06:08.000Z</time>
      </trkpt>
      <trkpt lat="43.58486" lon="6.82998">
        <ele>253.1</ele>
        <time>2025-01-10T09:06:07.000Z</time>
      </trkpt>
      <trkpt lat="43.58486" lon="6.83003">
        <ele>253.6</ele>
        <time>2025-01-10T09:06:06.000Z</time>
      </trkpt>
      <trkpt lat="43.58487" lon="6.83008">
        <ele>254.1</ele>
        <time>2025-01-10T09:06:05.000Z</time>
      </trkpt>
      <trkpt lat="43.58489" lon="6.83012">
        <ele>254.6</ele>
        <time>2025-01-10T09:06:04.000Z</time>
      </trkpt>
      <trkpt lat="43.58491" lon="6.83015">
        <ele>255.3</ele>
        <time>2025-01-10T09:06:03.000Z</time>
      </trkpt>
      <trkpt lat="43.58494" lon="6.83018">
        <ele>255.9</ele>
        <time>2025-01-10T09:06:02.000Z</time>
      </trkpt>
      <trkpt lat="43.58498" lon="6.83019">
        <ele>256.5</ele>
        <time>2025-01-10T09:06:01.000Z</time>
      </trkpt>
      <trkpt lat="43.58501" lon="6.83019">
        <ele>257.1</ele>
        <time>2025-01-10T09:06:00.000Z</time>
      </trkpt>
      <trkpt lat="43.58504" lon="6.83018">
        <ele>257.7</ele>
        <time>2025-01-10T09:05:59.000Z</time>
      </trkpt>
      <trkpt lat="43.58508" lon="6.83016">
        <ele>258.3</ele>
        <time>2025-01-10T09:05:58.000Z</time>
      </trkpt>
      <trkpt lat="43.58512" lon="6.83014">
        <ele>258.9</ele>
        <time>2025-01-10T09:05:57.000Z</time>
      </trkpt>
      <trkpt lat="43.58516" lon="6.83013">
        <ele>259.5</ele>
        <time>2025-01-10T09:05:56.000Z</time>
      </trkpt>
      <trkpt lat="43.5852" lon="6.83012">
        <ele>260</ele>
        <time>2025-01-10T09:05:55.000Z</time>
      </trkpt>
      <trkpt lat="43.58524" lon="6.83012">
        <ele>260.5</ele>
        <time>2025-01-10T09:05:54.000Z</time>
      </trkpt>
      <trkpt lat="43.58529" lon="6.83013">
        <ele>261</ele>
        <time>2025-01-10T09:05:53.000Z</time>
      </trkpt>
      <trkpt lat="43.58533" lon="6.83015">
        <ele>261.5</ele>
        <time>2025-01-10T09:05:52.000Z</time>
      </trkpt>
      <trkpt lat="43.58537" lon="6.83016">
        <ele>261.9</ele>
        <time>2025-01-10T09:05:51.000Z</time>
      </trkpt>
      <trkpt lat="43.58542" lon="6.83017">
        <ele>262.3</ele>
        <time>2025-01-10T09:05:50.000Z</time>
      </trkpt>
      <trkpt lat="43.58546" lon="6.83019">
        <ele>262.6</ele>
        <time>2025-01-10T09:05:49.000Z</time>
      </trkpt>
      <trkpt lat="43.5855" lon="6.8302">
        <ele>262.9</ele>
        <time>2025-01-10T09:05:48.000Z</time>
      </trkpt>
      <trkpt lat="43.58555" lon="6.83022">
        <ele>263.1</ele>
        <time>2025-01-10T09:05:47.000Z</time>
      </trkpt>
      <trkpt lat="43.5856" lon="6.83024">
        <ele>263.3</ele>
        <time>2025-01-10T09:05:46.000Z</time>
      </trkpt>
      <trkpt lat="43.58564" lon="6.83026">
        <ele>263.4</ele>
        <time>2025-01-10T09:05:45.000Z</time>
      </trkpt>
      <trkpt lat="43.58568" lon="6.83027">
        <ele>263.6</ele>
        <time>2025-01-10T09:05:44.000Z</time>
      </trkpt>
      <trkpt lat="43.58573" lon="6.83027">
        <ele>263.8</ele>
        <time>2025-01-10T09:05:43.000Z</time>
      </trkpt>
      <trkpt lat="43.58576" lon="6.83028">
        <ele>264</ele>
        <time>2025-01-10T09:05:42.000Z</time>
      </trkpt>
      <trkpt lat="43.5858" lon="6.83027">
        <ele>264.2</ele>
        <time>2025-01-10T09:05:41.000Z</time>
      </trkpt>
      <trkpt lat="43.58583" lon="6.83027">
        <ele>264.4</ele>
        <time>2025-01-10T09:05:40.000Z</time>
      </trkpt>
      <trkpt lat="43.58586" lon="6.83026">
        <ele>264.6</ele>
        <time>2025-01-10T09:05:39.000Z</time>
      </trkpt>
      <trkpt lat="43.58588" lon="6.83025">
        <ele>264.8</ele>
        <time>2025-01-10T09:05:38.000Z</time>
      </trkpt>
      <trkpt lat="43.58591" lon="6.83024">
        <ele>265</ele>
        <time>2025-01-10T09:05:37.000Z</time>
      </trkpt>
      <trkpt lat="43.58593" lon="6.83023">
        <ele>265.2</ele>
        <time>2025-01-10T09:05:36.000Z</time>
      </trkpt>
      <trkpt lat="43.58595" lon="6.83021">
        <ele>265.4</ele>
        <time>2025-01-10T09:05:35.000Z</time>
      </trkpt>
      <trkpt lat="43.58596" lon="6.83021">
        <ele>265.5</ele>
        <time>2025-01-10T09:05:34.000Z</time>
      </trkpt>
      <trkpt lat="43.58597" lon="6.83021">
        <ele>265.6</ele>
        <time>2025-01-10T09:05:33.000Z</time>
      </trkpt>
      <trkpt lat="43.58597" lon="6.8302">
        <ele>265.6</ele>
        <time>2025-01-10T09:05:32.000Z</time>
      </trkpt>
      <trkpt lat="43.58596" lon="6.8302">
        <ele>265.6</ele>
        <time>2025-01-10T09:05:31.000Z</time>
      </trkpt>
      <trkpt lat="43.58596" lon="6.8302">
        <ele>265.7</ele>
        <time>2025-01-10T09:05:30.000Z</time>
      </trkpt>
      <trkpt lat="43.58596" lon="6.83021">
        <ele>265.7</ele>
        <time>2025-01-10T09:05:29.000Z</time>
      </trkpt>
      <trkpt lat="43.58596" lon="6.83021">
        <ele>265.7</ele>
        <time>2025-01-10T09:05:28.000Z</time>
      </trkpt>
      <trkpt lat="43.58596" lon="6.83021">
        <ele>265.8</ele>
        <time>2025-01-10T09:05:27.000Z</time>
      </trkpt>
      <trkpt lat="43.58597" lon="6.83021">
        <ele>265.9</ele>
        <time>2025-01-10T09:05:26.000Z</time>
      </trkpt>
      <trkpt lat="43.58598" lon="6.83021">
        <ele>266</ele>
        <time>2025-01-10T09:05:25.000Z</time>
      </trkpt>
      <trkpt lat="43.586" lon="6.8302">
        <ele>266.2</ele>
        <time>2025-01-10T09:05:24.000Z</time>
      </trkpt>
      <trkpt lat="43.58602" lon="6.8302">
        <ele>266.5</ele>
        <time>2025-01-10T09:05:23.000Z</time>
      </trkpt>
      <trkpt lat="43.58605" lon="6.83019">
        <ele>266.8</ele>
        <time>2025-01-10T09:05:22.000Z</time>
      </trkpt>
      <trkpt lat="43.58607" lon="6.83019">
        <ele>267.2</ele>
        <time>2025-01-10T09:05:21.000Z</time>
      </trkpt>
      <trkpt lat="43.5861" lon="6.83019">
        <ele>267.7</ele>
        <time>2025-01-10T09:05:20.000Z</time>
      </trkpt>
      <trkpt lat="43.58614" lon="6.83019">
        <ele>268.2</ele>
        <time>2025-01-10T09:05:19.000Z</time>
      </trkpt>
      <trkpt lat="43.58617" lon="6.8302">
        <ele>268.8</ele>
        <time>2025-01-10T09:05:18.000Z</time>
      </trkpt>
      <trkpt lat="43.5862" lon="6.83022">
        <ele>269.3</ele>
        <time>2025-01-10T09:05:17.000Z</time>
      </trkpt>
      <trkpt lat="43.58622" lon="6.83024">
        <ele>269.7</ele>
        <time>2025-01-10T09:05:16.000Z</time>
      </trkpt>
      <trkpt lat="43.58625" lon="6.83025">
        <ele>270.1</ele>
        <time>2025-01-10T09:05:15.000Z</time>
      </trkpt>
      <trkpt lat="43.58626" lon="6.83026">
        <ele>270.4</ele>
        <time>2025-01-10T09:05:14.000Z</time>
      </trkpt>
      <trkpt lat="43.58628" lon="6.83026">
        <ele>270.7</ele>
        <time>2025-01-10T09:05:13.000Z</time>
      </trkpt>
      <trkpt lat="43.58631" lon="6.83024">
        <ele>271</ele>
        <time>2025-01-10T09:05:12.000Z</time>
      </trkpt>
      <trkpt lat="43.58632" lon="6.83022">
        <ele>271.3</ele>
        <time>2025-01-10T09:05:11.000Z</time>
      </trkpt>
      <trkpt lat="43.58633" lon="6.83019">
        <ele>271</ele>
        <time>2025-01-10T09:05:10.000Z</time>
      </trkpt>
      <trkpt lat="43.58634" lon="6.83016">
        <ele>270.6</ele>
        <time>2025-01-10T09:05:09.000Z</time>
      </trkpt>
      <trkpt lat="43.58635" lon="6.83013">
        <ele>270</ele>
        <time>2025-01-10T09:05:08.000Z</time>
      </trkpt>
      <trkpt lat="43.58636" lon="6.83008">
        <ele>269.5</ele>
        <time>2025-01-10T09:05:07.000Z</time>
      </trkpt>
      <trkpt lat="43.58638" lon="6.83004">
        <ele>268.9</ele>
        <time>2025-01-10T09:05:06.000Z</time>
      </trkpt>
      <trkpt lat="43.58639" lon="6.83">
        <ele>268.3</ele>
        <time>2025-01-10T09:05:05.000Z</time>
      </trkpt>
      <trkpt lat="43.58641" lon="6.82996">
        <ele>267.8</ele>
        <time>2025-01-10T09:05:04.000Z</time>
      </trkpt>
      <trkpt lat="43.58643" lon="6.82993">
        <ele>267.2</ele>
        <time>2025-01-10T09:05:03.000Z</time>
      </trkpt>
      <trkpt lat="43.58645" lon="6.82989">
        <ele>266.6</ele>
        <time>2025-01-10T09:05:02.000Z</time>
      </trkpt>
      <trkpt lat="43.58647" lon="6.82985">
        <ele>266.1</ele>
        <time>2025-01-10T09:05:01.000Z</time>
      </trkpt>
      <trkpt lat="43.58649" lon="6.82981">
        <ele>265.5</ele>
        <time>2025-01-10T09:05:00.000Z</time>
      </trkpt>
      <trkpt lat="43.58651" lon="6.82977">
        <ele>264.8</ele>
        <time>2025-01-10T09:04:59.000Z</time>
      </trkpt>
      <trkpt lat="43.58652" lon="6.82976">
        <ele>264.6</ele>
        <time>2025-01-10T09:04:58.000Z</time>
      </trkpt>
      <trkpt lat="43.58653" lon="6.82975">
        <ele>264.5</ele>
        <time>2025-01-10T09:04:57.000Z</time>
      </trkpt>
      <trkpt lat="43.58653" lon="6.82974">
        <ele>264.3</ele>
        <time>2025-01-10T09:04:56.000Z</time>
      </trkpt>
      <trkpt lat="43.58654" lon="6.82973">
        <ele>264.1</ele>
        <time>2025-01-10T09:04:55.000Z</time>
      </trkpt>
      <trkpt lat="43.58655" lon="6.82972">
        <ele>264</ele>
        <time>2025-01-10T09:04:54.000Z</time>
      </trkpt>
      <trkpt lat="43.58655" lon="6.82972">
        <ele>263.8</ele>
        <time>2025-01-10T09:04:53.000Z</time>
      </trkpt>
      <trkpt lat="43.58656" lon="6.82971">
        <ele>263.7</ele>
        <time>2025-01-10T09:04:52.000Z</time>
      </trkpt>
      <trkpt lat="43.58657" lon="6.8297">
        <ele>263.5</ele>
        <time>2025-01-10T09:04:51.000Z</time>
      </trkpt>
      <trkpt lat="43.58657" lon="6.82969">
        <ele>263.3</ele>
        <time>2025-01-10T09:04:50.000Z</time>
      </trkpt>
      <trkpt lat="43.58658" lon="6.82968">
        <ele>263.2</ele>
        <time>2025-01-10T09:04:49.000Z</time>
      </trkpt>
      <trkpt lat="43.58659" lon="6.82967">
        <ele>263</ele>
        <time>2025-01-10T09:04:48.000Z</time>
      </trkpt>
      <trkpt lat="43.5866" lon="6.82966">
        <ele>262.9</ele>
        <time>2025-01-10T09:04:47.000Z</time>
      </trkpt>
      <trkpt lat="43.5866" lon="6.82966">
        <ele>262.7</ele>
        <time>2025-01-10T09:04:46.000Z</time>
      </trkpt>
      <trkpt lat="43.58661" lon="6.82965">
        <ele>262.5</ele>
        <time>2025-01-10T09:04:45.000Z</time>
      </trkpt>
      <trkpt lat="43.58662" lon="6.82964">
        <ele>262.4</ele>
        <time>2025-01-10T09:04:44.000Z</time>
      </trkpt>
      <trkpt lat="43.58662" lon="6.82963">
        <ele>262.2</ele>
        <time>2025-01-10T09:04:43.000Z</time>
      </trkpt>
      <trkpt lat="43.58663" lon="6.82962">
        <ele>262.1</ele>
        <time>2025-01-10T09:04:42.000Z</time>
      </trkpt>
      <trkpt lat="43.58664" lon="6.82961">
        <ele>261.9</ele>
        <time>2025-01-10T09:04:41.000Z</time>
      </trkpt>
      <trkpt lat="43.58664" lon="6.8296">
        <ele>261.8</ele>
        <time>2025-01-10T09:04:40.000Z</time>
      </trkpt>
      <trkpt lat="43.58665" lon="6.8296">
        <ele>261.6</ele>
        <time>2025-01-10T09:04:39.000Z</time>
      </trkpt>
      <trkpt lat="43.58666" lon="6.82959">
        <ele>261.4</ele>
        <time>2025-01-10T09:04:38.000Z</time>
      </trkpt>
      <trkpt lat="43.58666" lon="6.82958">
        <ele>261.3</ele>
        <time>2025-01-10T09:04:37.000Z</time>
      </trkpt>
      <trkpt lat="43.58667" lon="6.82957">
        <ele>261.1</ele>
        <time>2025-01-10T09:04:36.000Z</time>
      </trkpt>
      <trkpt lat="43.58668" lon="6.82956">
        <ele>260.9</ele>
        <time>2025-01-10T09:04:35.000Z</time>
      </trkpt>
      <trkpt lat="43.58669" lon="6.82955">
        <ele>260.8</ele>
        <time>2025-01-10T09:04:34.000Z</time>
      </trkpt>
      <trkpt lat="43.58669" lon="6.82954">
        <ele>260.6</ele>
        <time>2025-01-10T09:04:33.000Z</time>
      </trkpt>
      <trkpt lat="43.5867" lon="6.82954">
        <ele>260.5</ele>
        <time>2025-01-10T09:04:32.000Z</time>
      </trkpt>
      <trkpt lat="43.58671" lon="6.82953">
        <ele>260.3</ele>
        <time>2025-01-10T09:04:31.000Z</time>
      </trkpt>
      <trkpt lat="43.58671" lon="6.82952">
        <ele>260.2</ele>
        <time>2025-01-10T09:04:30.000Z</time>
      </trkpt>
      <trkpt lat="43.58672" lon="6.82951">
        <ele>260</ele>
        <time>2025-01-10T09:04:29.000Z</time>
      </trkpt>
      <trkpt lat="43.58673" lon="6.8295">
        <ele>259.8</ele>
        <time>2025-01-10T09:04:28.000Z</time>
      </trkpt>
      <trkpt lat="43.58674" lon="6.82949">
        <ele>259.6</ele>
        <time>2025-01-10T09:04:27.000Z</time>
      </trkpt>
      <trkpt lat="43.58674" lon="6.8295">
        <ele>259.6</ele>
        <time>2025-01-10T09:04:26.000Z</time>
      </trkpt>
      <trkpt lat="43.58673" lon="6.8295">
        <ele>259.7</ele>
        <time>2025-01-10T09:04:25.000Z</time>
      </trkpt>
      <trkpt lat="43.58672" lon="6.82951">
        <ele>259.9</ele>
        <time>2025-01-10T09:04:24.000Z</time>
      </trkpt>
      <trkpt lat="43.5867" lon="6.82952">
        <ele>260.3</ele>
        <time>2025-01-10T09:04:23.000Z</time>
      </trkpt>
      <trkpt lat="43.58668" lon="6.82955">
        <ele>260.8</ele>
        <time>2025-01-10T09:04:22.000Z</time>
      </trkpt>
      <trkpt lat="43.58665" lon="6.82957">
        <ele>261.4</ele>
        <time>2025-01-10T09:04:21.000Z</time>
      </trkpt>
      <trkpt lat="43.58662" lon="6.82961">
        <ele>262</ele>
        <time>2025-01-10T09:04:20.000Z</time>
      </trkpt>
      <trkpt lat="43.58659" lon="6.82964">
        <ele>262.7</ele>
        <time>2025-01-10T09:04:19.000Z</time>
      </trkpt>
      <trkpt lat="43.58657" lon="6.82968">
        <ele>263.3</ele>
        <time>2025-01-10T09:04:18.000Z</time>
      </trkpt>
      <trkpt lat="43.58655" lon="6.82972">
        <ele>263.9</ele>
        <time>2025-01-10T09:04:17.000Z</time>
      </trkpt>
      <trkpt lat="43.58653" lon="6.82976">
        <ele>264.5</ele>
        <time>2025-01-10T09:04:16.000Z</time>
      </trkpt>
      <trkpt lat="43.58651" lon="6.8298">
        <ele>265.1</ele>
        <time>2025-01-10T09:04:15.000Z</time>
      </trkpt>
      <trkpt lat="43.58649" lon="6.82984">
        <ele>265.7</ele>
        <time>2025-01-10T09:04:14.000Z</time>
      </trkpt>
      <trkpt lat="43.58647" lon="6.82988">
        <ele>266.2</ele>
        <time>2025-01-10T09:04:13.000Z</time>
      </trkpt>
      <trkpt lat="43.58645" lon="6.82992">
        <ele>266.8</ele>
        <time>2025-01-10T09:04:12.000Z</time>
      </trkpt>
      <trkpt lat="43.58643" lon="6.82996">
        <ele>267.4</ele>
        <time>2025-01-10T09:04:11.000Z</time>
      </trkpt>
      <trkpt lat="43.58642" lon="6.83001">
        <ele>268</ele>
        <time>2025-01-10T09:04:10.000Z</time>
      </trkpt>
      <trkpt lat="43.5864" lon="6.83005">
        <ele>268.6</ele>
        <time>2025-01-10T09:04:09.000Z</time>
      </trkpt>
      <trkpt lat="43.58638" lon="6.83009">
        <ele>269.1</ele>
        <time>2025-01-10T09:04:08.000Z</time>
      </trkpt>
      <trkpt lat="43.58637" lon="6.83012">
        <ele>269.6</ele>
        <time>2025-01-10T09:04:07.000Z</time>
      </trkpt>
      <trkpt lat="43.58636" lon="6.83015">
        <ele>270</ele>
        <time>2025-01-10T09:04:06.000Z</time>
      </trkpt>
      <trkpt lat="43.58635" lon="6.83018">
        <ele>270.4</ele>
        <time>2025-01-10T09:04:05.000Z</time>
      </trkpt>
      <trkpt lat="43.58635" lon="6.83018">
        <ele>270.4</ele>
        <time>2025-01-10T09:04:04.000Z</time>
      </trkpt>
      <trkpt lat="43.58635" lon="6.83018">
        <ele>270.4</ele>
        <time>2025-01-10T09:04:03.000Z</time>
      </trkpt>
      <trkpt lat="43.58635" lon="6.83018">
        <ele>270.4</ele>
        <time>2025-01-10T09:04:02.000Z</time>
      </trkpt>
      <trkpt lat="43.58635" lon="6.83018">
        <ele>270.4</ele>
        <time>2025-01-10T09:04:01.000Z</time>
      </trkpt>
      <trkpt lat="43.58635" lon="6.83018">
        <ele>270.5</ele>
        <time>2025-01-10T09:04:00.000Z</time>
      </trkpt>
      <trkpt lat="43.58635" lon="6.83018">
        <ele>270.5</ele>
        <time>2025-01-10T09:03:59.000Z</time>
      </trkpt>
      <trkpt lat="43.58635" lon="6.83018">
        <ele>270.5</ele>
        <time>2025-01-10T09:03:58.000Z</time>
      </trkpt>
      <trkpt lat="43.58635" lon="6.83018">
        <ele>270.5</ele>
        <time>2025-01-10T09:03:57.000Z</time>
      </trkpt>
      <trkpt lat="43.58635" lon="6.83019">
        <ele>270.5</ele>
        <time>2025-01-10T09:03:56.000Z</time>
      </trkpt>
      <trkpt lat="43.58635" lon="6.83019">
        <ele>270.5</ele>
        <time>2025-01-10T09:03:55.000Z</time>
      </trkpt>
      <trkpt lat="43.58635" lon="6.83019">
        <ele>270.5</ele>
        <time>2025-01-10T09:03:54.000Z</time>
      </trkpt>
      <trkpt lat="43.58635" lon="6.83019">
        <ele>270.5</ele>
        <time>2025-01-10T09:03:53.000Z</time>
      </trkpt>
      <trkpt lat="43.58635" lon="6.83019">
        <ele>270.5</ele>
        <time>2025-01-10T09:03:52.000Z</time>
      </trkpt>
      <trkpt lat="43.58635" lon="6.83019">
        <ele>270.5</ele>
        <time>2025-01-10T09:03:51.000Z</time>
      </trkpt>
      <trkpt lat="43.58635" lon="6.83019">
        <ele>270.5</ele>
        <time>2025-01-10T09:03:50.000Z</time>
      </trkpt>
      <trkpt lat="43.58635" lon="6.83019">
        <ele>270.5</ele>
        <time>2025-01-10T09:03:49.000Z</time>
      </trkpt>
      <trkpt lat="43.58635" lon="6.83019">
        <ele>270.5</ele>
        <time>2025-01-10T09:03:48.000Z</time>
      </trkpt>
      <trkpt lat="43.58635" lon="6.83019">
        <ele>270.5</ele>
        <time>2025-01-10T09:03:47.000Z</time>
      </trkpt>
      <trkpt lat="43.58635" lon="6.83019">
        <ele>270.5</ele>
        <time>2025-01-10T09:03:46.000Z</time>
      </trkpt>
      <trkpt lat="43.58635" lon="6.83019">
        <ele>270.5</ele>
        <time>2025-01-10T09:03:45.000Z</time>
      </trkpt>
      <trkpt lat="43.58635" lon="6.83019">
        <ele>270.5</ele>
        <time>2025-01-10T09:03:44.000Z</time>
      </trkpt>
      <trkpt lat="43.58635" lon="6.83019">
        <ele>270.5</ele>
        <time>2025-01-10T09:03:43.000Z</time>
      </trkpt>
      <trkpt lat="43.58635" lon="6.83019">
        <ele>270.5</ele>
        <time>2025-01-10T09:03:42.000Z</time>
      </trkpt>
      <trkpt lat="43.58635" lon="6.83019">
        <ele>270.5</ele>
        <time>2025-01-10T09:03:41.000Z</time>
      </trkpt>
      <trkpt lat="43.58635" lon="6.83019">
        <ele>270.5</ele>
        <time>2025-01-10T09:03:40.000Z</time>
      </trkpt>
      <trkpt lat="43.58635" lon="6.83019">
        <ele>270.5</ele>
        <time>2025-01-10T09:03:39.000Z</time>
      </trkpt>
      <trkpt lat="43.58635" lon="6.83019">
        <ele>270.6</ele>
        <time>2025-01-10T09:03:38.000Z</time>
      </trkpt>
      <trkpt lat="43.58635" lon="6.83019">
        <ele>270.6</ele>
        <time>2025-01-10T09:03:37.000Z</time>
      </trkpt>
      <trkpt lat="43.58635" lon="6.83019">
        <ele>270.6</ele>
        <time>2025-01-10T09:03:36.000Z</time>
      </trkpt>
      <trkpt lat="43.58635" lon="6.8302">
        <ele>270.7</ele>
        <time>2025-01-10T09:03:35.000Z</time>
      </trkpt>
      <trkpt lat="43.58635" lon="6.8302">
        <ele>270.7</ele>
        <time>2025-01-10T09:03:34.000Z</time>
      </trkpt>
      <trkpt lat="43.58635" lon="6.8302">
        <ele>270.8</ele>
        <time>2025-01-10T09:03:33.000Z</time>
      </trkpt>
      <trkpt lat="43.58635" lon="6.8302">
        <ele>270.8</ele>
        <time>2025-01-10T09:03:32.000Z</time>
      </trkpt>
      <trkpt lat="43.58636" lon="6.8302">
        <ele>270.9</ele>
        <time>2025-01-10T09:03:31.000Z</time>
      </trkpt>
      <trkpt lat="43.58636" lon="6.8302">
        <ele>270.9</ele>
        <time>2025-01-10T09:03:30.000Z</time>
      </trkpt>
      <trkpt lat="43.58636" lon="6.8302">
        <ele>271</ele>
        <time>2025-01-10T09:03:29.000Z</time>
      </trkpt>
      <trkpt lat="43.58635" lon="6.83021">
        <ele>271</ele>
        <time>2025-01-10T09:03:28.000Z</time>
      </trkpt>
      <trkpt lat="43.58636" lon="6.83021">
        <ele>271.1</ele>
        <time>2025-01-10T09:03:27.000Z</time>
      </trkpt>
      <trkpt lat="43.58635" lon="6.83023">
        <ele>271.2</ele>
        <time>2025-01-10T09:03:26.000Z</time>
      </trkpt>
      <trkpt lat="43.58635" lon="6.83024">
        <ele>271.4</ele>
        <time>2025-01-10T09:03:25.000Z</time>
      </trkpt>
      <trkpt lat="43.58634" lon="6.83025">
        <ele>271.5</ele>
        <time>2025-01-10T09:03:24.000Z</time>
      </trkpt>
      <trkpt lat="43.58633" lon="6.83025">
        <ele>271.6</ele>
        <time>2025-01-10T09:03:23.000Z</time>
      </trkpt>
      <trkpt lat="43.58632" lon="6.83026">
        <ele>271.8</ele>
        <time>2025-01-10T09:03:22.000Z</time>
      </trkpt>
      <trkpt lat="43.58631" lon="6.83026">
        <ele>271.9</ele>
        <time>2025-01-10T09:03:21.000Z</time>
      </trkpt>
      <trkpt lat="43.58631" lon="6.83026">
        <ele>272</ele>
        <time>2025-01-10T09:03:20.000Z</time>
      </trkpt>
      <trkpt lat="43.58631" lon="6.83026">
        <ele>272</ele>
        <time>2025-01-10T09:03:19.000Z</time>
      </trkpt>
      <trkpt lat="43.5863" lon="6.83026">
        <ele>272.1</ele>
        <time>2025-01-10T09:03:18.000Z</time>
      </trkpt>
      <trkpt lat="43.5863" lon="6.83026">
        <ele>272.2</ele>
        <time>2025-01-10T09:03:17.000Z</time>
      </trkpt>
      <trkpt lat="43.5863" lon="6.83027">
        <ele>272.2</ele>
        <time>2025-01-10T09:03:16.000Z</time>
      </trkpt>
      <trkpt lat="43.5863" lon="6.83026">
        <ele>272.3</ele>
        <time>2025-01-10T09:03:15.000Z</time>
      </trkpt>
      <trkpt lat="43.5863" lon="6.83026">
        <ele>272.3</ele>
        <time>2025-01-10T09:03:14.000Z</time>
      </trkpt>
      <trkpt lat="43.5863" lon="6.83026">
        <ele>272.4</ele>
        <time>2025-01-10T09:03:13.000Z</time>
      </trkpt>
      <trkpt lat="43.5863" lon="6.83025">
        <ele>272.5</ele>
        <time>2025-01-10T09:03:12.000Z</time>
      </trkpt>
      <trkpt lat="43.5863" lon="6.83025">
        <ele>272.5</ele>
        <time>2025-01-10T09:03:11.000Z</time>
      </trkpt>
      <trkpt lat="43.5863" lon="6.83025">
        <ele>272.6</ele>
        <time>2025-01-10T09:03:10.000Z</time>
      </trkpt>
      <trkpt lat="43.5863" lon="6.83025">
        <ele>272.7</ele>
        <time>2025-01-10T09:03:09.000Z</time>
      </trkpt>
      <trkpt lat="43.58629" lon="6.83024">
        <ele>272.9</ele>
        <time>2025-01-10T09:03:08.000Z</time>
      </trkpt>
      <trkpt lat="43.58629" lon="6.83024">
        <ele>273</ele>
        <time>2025-01-10T09:03:07.000Z</time>
      </trkpt>
      <trkpt lat="43.58629" lon="6.83024">
        <ele>273</ele>
        <time>2025-01-10T09:03:06.000Z</time>
      </trkpt>
      <trkpt lat="43.58629" lon="6.83023">
        <ele>273.2</ele>
        <time>2025-01-10T09:03:05.000Z</time>
      </trkpt>
      <trkpt lat="43.58631" lon="6.83023">
        <ele>273.5</ele>
        <time>2025-01-10T09:03:04.000Z</time>
      </trkpt>
      <trkpt lat="43.58634" lon="6.83022">
        <ele>274.1</ele>
        <time>2025-01-10T09:03:03.000Z</time>
      </trkpt>
      <trkpt lat="43.58638" lon="6.83022">
        <ele>274.9</ele>
        <time>2025-01-10T09:03:02.000Z</time>
      </trkpt>
      <trkpt lat="43.58641" lon="6.83021">
        <ele>275.4</ele>
        <time>2025-01-10T09:03:01.000Z</time>
      </trkpt>
      <trkpt lat="43.58646" lon="6.83022">
        <ele>276.3</ele>
        <time>2025-01-10T09:03:00.000Z</time>
      </trkpt>
      <trkpt lat="43.5865" lon="6.83023">
        <ele>277.1</ele>
        <time>2025-01-10T09:02:59.000Z</time>
      </trkpt>
      <trkpt lat="43.58655" lon="6.83025">
        <ele>278</ele>
        <time>2025-01-10T09:02:58.000Z</time>
      </trkpt>
      <trkpt lat="43.58658" lon="6.83027">
        <ele>278.6</ele>
        <time>2025-01-10T09:02:57.000Z</time>
      </trkpt>
      <trkpt lat="43.58661" lon="6.83029">
        <ele>279.2</ele>
        <time>2025-01-10T09:02:56.000Z</time>
      </trkpt>
      <trkpt lat="43.58662" lon="6.83032">
        <ele>279.7</ele>
        <time>2025-01-10T09:02:55.000Z</time>
      </trkpt>
      <trkpt lat="43.58662" lon="6.83036">
        <ele>280.3</ele>
        <time>2025-01-10T09:02:54.000Z</time>
      </trkpt>
      <trkpt lat="43.58662" lon="6.83042">
        <ele>281</ele>
        <time>2025-01-10T09:02:53.000Z</time>
      </trkpt>
      <trkpt lat="43.58661" lon="6.83047">
        <ele>281.6</ele>
        <time>2025-01-10T09:02:52.000Z</time>
      </trkpt>
      <trkpt lat="43.58659" lon="6.83051">
        <ele>282.1</ele>
        <time>2025-01-10T09:02:51.000Z</time>
      </trkpt>
      <trkpt lat="43.58659" lon="6.83055">
        <ele>282.6</ele>
        <time>2025-01-10T09:02:50.000Z</time>
      </trkpt>
      <trkpt lat="43.58659" lon="6.83061">
        <ele>283.3</ele>
        <time>2025-01-10T09:02:49.000Z</time>
      </trkpt>
      <trkpt lat="43.58659" lon="6.83067">
        <ele>284</ele>
        <time>2025-01-10T09:02:48.000Z</time>
      </trkpt>
      <trkpt lat="43.5866" lon="6.83073">
        <ele>284.7</ele>
        <time>2025-01-10T09:02:47.000Z</time>
      </trkpt>
      <trkpt lat="43.58662" lon="6.8308">
        <ele>285.6</ele>
        <time>2025-01-10T09:02:46.000Z</time>
      </trkpt>
      <trkpt lat="43.58664" lon="6.83086">
        <ele>286.4</ele>
        <time>2025-01-10T09:02:45.000Z</time>
      </trkpt>
      <trkpt lat="43.58665" lon="6.83092">
        <ele>287.3</ele>
        <time>2025-01-10T09:02:44.000Z</time>
      </trkpt>
      <trkpt lat="43.58667" lon="6.83098">
        <ele>288.1</ele>
        <time>2025-01-10T09:02:43.000Z</time>
      </trkpt>
      <trkpt lat="43.58669" lon="6.83103">
        <ele>288.8</ele>
        <time>2025-01-10T09:02:42.000Z</time>
      </trkpt>
      <trkpt lat="43.58671" lon="6.83108">
        <ele>289.6</ele>
        <time>2025-01-10T09:02:41.000Z</time>
      </trkpt>
      <trkpt lat="43.58674" lon="6.83114">
        <ele>290.4</ele>
        <time>2025-01-10T09:02:40.000Z</time>
      </trkpt>
      <trkpt lat="43.58676" lon="6.83119">
        <ele>291.3</ele>
        <time>2025-01-10T09:02:39.000Z</time>
      </trkpt>
      <trkpt lat="43.58678" lon="6.83126">
        <ele>292.2</ele>
        <time>2025-01-10T09:02:38.000Z</time>
      </trkpt>
      <trkpt lat="43.5868" lon="6.83133">
        <ele>293</ele>
        <time>2025-01-10T09:02:37.000Z</time>
      </trkpt>
      <trkpt lat="43.58682" lon="6.8314">
        <ele>293.7</ele>
        <time>2025-01-10T09:02:36.000Z</time>
      </trkpt>
      <trkpt lat="43.58683" lon="6.83147">
        <ele>294.4</ele>
        <time>2025-01-10T09:02:35.000Z</time>
      </trkpt>
      <trkpt lat="43.58684" lon="6.83155">
        <ele>295.1</ele>
        <time>2025-01-10T09:02:34.000Z</time>
      </trkpt>
      <trkpt lat="43.58683" lon="6.83163">
        <ele>295.7</ele>
        <time>2025-01-10T09:02:33.000Z</time>
      </trkpt>
      <trkpt lat="43.58682" lon="6.8317">
        <ele>296.3</ele>
        <time>2025-01-10T09:02:32.000Z</time>
      </trkpt>
      <trkpt lat="43.58681" lon="6.83178">
        <ele>297</ele>
        <time>2025-01-10T09:02:31.000Z</time>
      </trkpt>
      <trkpt lat="43.58681" lon="6.83185">
        <ele>297.7</ele>
        <time>2025-01-10T09:02:30.000Z</time>
      </trkpt>
      <trkpt lat="43.5868" lon="6.83191">
        <ele>298.4</ele>
        <time>2025-01-10T09:02:29.000Z</time>
      </trkpt>
      <trkpt lat="43.5868" lon="6.83197">
        <ele>299.2</ele>
        <time>2025-01-10T09:02:28.000Z</time>
      </trkpt>
      <trkpt lat="43.5868" lon="6.83202">
        <ele>299.9</ele>
        <time>2025-01-10T09:02:27.000Z</time>
      </trkpt>
      <trkpt lat="43.5868" lon="6.83207">
        <ele>300.5</ele>
        <time>2025-01-10T09:02:26.000Z</time>
      </trkpt>
      <trkpt lat="43.58681" lon="6.83211">
        <ele>301.1</ele>
        <time>2025-01-10T09:02:25.000Z</time>
      </trkpt>
      <trkpt lat="43.58682" lon="6.83217">
        <ele>301.9</ele>
        <time>2025-01-10T09:02:24.000Z</time>
      </trkpt>
      <trkpt lat="43.58683" lon="6.83223">
        <ele>302.7</ele>
        <time>2025-01-10T09:02:23.000Z</time>
      </trkpt>
      <trkpt lat="43.58685" lon="6.8323">
        <ele>303.6</ele>
        <time>2025-01-10T09:02:22.000Z</time>
      </trkpt>
      <trkpt lat="43.58686" lon="6.83237">
        <ele>304.4</ele>
        <time>2025-01-10T09:02:21.000Z</time>
      </trkpt>
      <trkpt lat="43.58688" lon="6.83244">
        <ele>305.3</ele>
        <time>2025-01-10T09:02:20.000Z</time>
      </trkpt>
      <trkpt lat="43.5869" lon="6.8325">
        <ele>306.1</ele>
        <time>2025-01-10T09:02:19.000Z</time>
      </trkpt>
      <trkpt lat="43.58692" lon="6.83257">
        <ele>306.9</ele>
        <time>2025-01-10T09:02:18.000Z</time>
      </trkpt>
      <trkpt lat="43.58693" lon="6.83263">
        <ele>307.6</ele>
        <time>2025-01-10T09:02:17.000Z</time>
      </trkpt>
      <trkpt lat="43.58694" lon="6.83269">
        <ele>308.3</ele>
        <time>2025-01-10T09:02:16.000Z</time>
      </trkpt>
      <trkpt lat="43.58695" lon="6.83274">
        <ele>308.8</ele>
        <time>2025-01-10T09:02:15.000Z</time>
      </trkpt>
      <trkpt lat="43.58695" lon="6.83279">
        <ele>309.4</ele>
        <time>2025-01-10T09:02:14.000Z</time>
      </trkpt>
      <trkpt lat="43.58696" lon="6.83285">
        <ele>309.9</ele>
        <time>2025-01-10T09:02:13.000Z</time>
      </trkpt>
      <trkpt lat="43.58696" lon="6.83291">
        <ele>310.4</ele>
        <time>2025-01-10T09:02:12.000Z</time>
      </trkpt>
      <trkpt lat="43.58696" lon="6.83297">
        <ele>310.8</ele>
        <time>2025-01-10T09:02:11.000Z</time>
      </trkpt>
      <trkpt lat="43.58697" lon="6.83304">
        <ele>311.3</ele>
        <time>2025-01-10T09:02:10.000Z</time>
      </trkpt>
      <trkpt lat="43.58699" lon="6.83311">
        <ele>311.6</ele>
        <time>2025-01-10T09:02:09.000Z</time>
      </trkpt>
      <trkpt lat="43.587" lon="6.83319">
        <ele>312</ele>
        <time>2025-01-10T09:02:08.000Z</time>
      </trkpt>
      <trkpt lat="43.58702" lon="6.83327">
        <ele>312.4</ele>
        <time>2025-01-10T09:02:07.000Z</time>
      </trkpt>
      <trkpt lat="43.58705" lon="6.83334">
        <ele>312.8</ele>
        <time>2025-01-10T09:02:06.000Z</time>
      </trkpt>
      <trkpt lat="43.58707" lon="6.83341">
        <ele>313.2</ele>
        <time>2025-01-10T09:02:05.000Z</time>
      </trkpt>
      <trkpt lat="43.58709" lon="6.83348">
        <ele>313.7</ele>
        <time>2025-01-10T09:02:04.000Z</time>
      </trkpt>
      <trkpt lat="43.58712" lon="6.83355">
        <ele>314.3</ele>
        <time>2025-01-10T09:02:03.000Z</time>
      </trkpt>
      <trkpt lat="43.58713" lon="6.83362">
        <ele>314.8</ele>
        <time>2025-01-10T09:02:02.000Z</time>
      </trkpt>
      <trkpt lat="43.58715" lon="6.83369">
        <ele>315.3</ele>
        <time>2025-01-10T09:02:01.000Z</time>
      </trkpt>
      <trkpt lat="43.58715" lon="6.83376">
        <ele>315.9</ele>
        <time>2025-01-10T09:02:00.000Z</time>
      </trkpt>
      <trkpt lat="43.58715" lon="6.83382">
        <ele>316.4</ele>
        <time>2025-01-10T09:01:59.000Z</time>
      </trkpt>
      <trkpt lat="43.58716" lon="6.83388">
        <ele>316.9</ele>
        <time>2025-01-10T09:01:58.000Z</time>
      </trkpt>
      <trkpt lat="43.58716" lon="6.83395">
        <ele>317.4</ele>
        <time>2025-01-10T09:01:57.000Z</time>
      </trkpt>
      <trkpt lat="43.58717" lon="6.83401">
        <ele>317.9</ele>
        <time>2025-01-10T09:01:56.000Z</time>
      </trkpt>
      <trkpt lat="43.58717" lon="6.83407">
        <ele>318.4</ele>
        <time>2025-01-10T09:01:55.000Z</time>
      </trkpt>
      <trkpt lat="43.58718" lon="6.83412">
        <ele>318.8</ele>
        <time>2025-01-10T09:01:54.000Z</time>
      </trkpt>
      <trkpt lat="43.58719" lon="6.83418">
        <ele>319.2</ele>
        <time>2025-01-10T09:01:53.000Z</time>
      </trkpt>
      <trkpt lat="43.5872" lon="6.83423">
        <ele>319.6</ele>
        <time>2025-01-10T09:01:52.000Z</time>
      </trkpt>
      <trkpt lat="43.5872" lon="6.83429">
        <ele>319.9</ele>
        <time>2025-01-10T09:01:51.000Z</time>
      </trkpt>
      <trkpt lat="43.5872" lon="6.83434">
        <ele>320.2</ele>
        <time>2025-01-10T09:01:50.000Z</time>
      </trkpt>
      <trkpt lat="43.58721" lon="6.83439">
        <ele>320.4</ele>
        <time>2025-01-10T09:01:49.000Z</time>
      </trkpt>
      <trkpt lat="43.58722" lon="6.83444">
        <ele>320.6</ele>
        <time>2025-01-10T09:01:48.000Z</time>
      </trkpt>
      <trkpt lat="43.58722" lon="6.83449">
        <ele>320.8</ele>
        <time>2025-01-10T09:01:47.000Z</time>
      </trkpt>
      <trkpt lat="43.58723" lon="6.83455">
        <ele>321</ele>
        <time>2025-01-10T09:01:46.000Z</time>
      </trkpt>
      <trkpt lat="43.58724" lon="6.8346">
        <ele>321.1</ele>
        <time>2025-01-10T09:01:45.000Z</time>
      </trkpt>
      <trkpt lat="43.58724" lon="6.83466">
        <ele>321.2</ele>
        <time>2025-01-10T09:01:44.000Z</time>
      </trkpt>
      <trkpt lat="43.58725" lon="6.83471">
        <ele>321.2</ele>
        <time>2025-01-10T09:01:43.000Z</time>
      </trkpt>
      <trkpt lat="43.58725" lon="6.83476">
        <ele>321.1</ele>
        <time>2025-01-10T09:01:42.000Z</time>
      </trkpt>
      <trkpt lat="43.58726" lon="6.83481">
        <ele>321</ele>
        <time>2025-01-10T09:01:41.000Z</time>
      </trkpt>
      <trkpt lat="43.58728" lon="6.83486">
        <ele>320.9</ele>
        <time>2025-01-10T09:01:40.000Z</time>
      </trkpt>
      <trkpt lat="43.58729" lon="6.83491">
        <ele>320.8</ele>
        <time>2025-01-10T09:01:39.000Z</time>
      </trkpt>
      <trkpt lat="43.58731" lon="6.83496">
        <ele>320.6</ele>
        <time>2025-01-10T09:01:38.000Z</time>
      </trkpt>
      <trkpt lat="43.58733" lon="6.83501">
        <ele>320.4</ele>
        <time>2025-01-10T09:01:37.000Z</time>
      </trkpt>
      <trkpt lat="43.58736" lon="6.83506">
        <ele>320.1</ele>
        <time>2025-01-10T09:01:36.000Z</time>
      </trkpt>
      <trkpt lat="43.58739" lon="6.83511">
        <ele>319.9</ele>
        <time>2025-01-10T09:01:35.000Z</time>
      </trkpt>
      <trkpt lat="43.58742" lon="6.83516">
        <ele>319.6</ele>
        <time>2025-01-10T09:01:34.000Z</time>
      </trkpt>
      <trkpt lat="43.58745" lon="6.83521">
        <ele>319.4</ele>
        <time>2025-01-10T09:01:33.000Z</time>
      </trkpt>
      <trkpt lat="43.58748" lon="6.83526">
        <ele>319.1</ele>
        <time>2025-01-10T09:01:32.000Z</time>
      </trkpt>
      <trkpt lat="43.58751" lon="6.83531">
        <ele>319</ele>
        <time>2025-01-10T09:01:31.000Z</time>
      </trkpt>
      <trkpt lat="43.58753" lon="6.83537">
        <ele>318.9</ele>
        <time>2025-01-10T09:01:30.000Z</time>
      </trkpt>
      <trkpt lat="43.58755" lon="6.83544">
        <ele>318.8</ele>
        <time>2025-01-10T09:01:29.000Z</time>
      </trkpt>
      <trkpt lat="43.58757" lon="6.8355">
        <ele>318.8</ele>
        <time>2025-01-10T09:01:28.000Z</time>
      </trkpt>
      <trkpt lat="43.58759" lon="6.83556">
        <ele>318.7</ele>
        <time>2025-01-10T09:01:27.000Z</time>
      </trkpt>
      <trkpt lat="43.5876" lon="6.83562">
        <ele>318.7</ele>
        <time>2025-01-10T09:01:26.000Z</time>
      </trkpt>
      <trkpt lat="43.58761" lon="6.83568">
        <ele>318.7</ele>
        <time>2025-01-10T09:01:25.000Z</time>
      </trkpt>
      <trkpt lat="43.58764" lon="6.83575">
        <ele>318.8</ele>
        <time>2025-01-10T09:01:24.000Z</time>
      </trkpt>
      <trkpt lat="43.58767" lon="6.83581">
        <ele>318.9</ele>
        <time>2025-01-10T09:01:23.000Z</time>
      </trkpt>
      <trkpt lat="43.58772" lon="6.83587">
        <ele>318.9</ele>
        <time>2025-01-10T09:01:22.000Z</time>
      </trkpt>
      <trkpt lat="43.58777" lon="6.83591">
        <ele>319</ele>
        <time>2025-01-10T09:01:21.000Z</time>
      </trkpt>
      <trkpt lat="43.58783" lon="6.83595">
        <ele>319.1</ele>
        <time>2025-01-10T09:01:20.000Z</time>
      </trkpt>
      <trkpt lat="43.58788" lon="6.83599">
        <ele>319.2</ele>
        <time>2025-01-10T09:01:19.000Z</time>
      </trkpt>
      <trkpt lat="43.58794" lon="6.83604">
        <ele>319.3</ele>
        <time>2025-01-10T09:01:18.000Z</time>
      </trkpt>
      <trkpt lat="43.58799" lon="6.83611">
        <ele>319.4</ele>
        <time>2025-01-10T09:01:17.000Z</time>
      </trkpt>
      <trkpt lat="43.58803" lon="6.83618">
        <ele>319.6</ele>
        <time>2025-01-10T09:01:16.000Z</time>
      </trkpt>
      <trkpt lat="43.58806" lon="6.83627">
        <ele>319.8</ele>
        <time>2025-01-10T09:01:15.000Z</time>
      </trkpt>
      <trkpt lat="43.58809" lon="6.83636">
        <ele>320.1</ele>
        <time>2025-01-10T09:01:14.000Z</time>
      </trkpt>
      <trkpt lat="43.58812" lon="6.83644">
        <ele>320.5</ele>
        <time>2025-01-10T09:01:13.000Z</time>
      </trkpt>
      <trkpt lat="43.58814" lon="6.83652">
        <ele>320.9</ele>
        <time>2025-01-10T09:01:12.000Z</time>
      </trkpt>
      <trkpt lat="43.58816" lon="6.8366">
        <ele>321.3</ele>
        <time>2025-01-10T09:01:11.000Z</time>
      </trkpt>
      <trkpt lat="43.58818" lon="6.83668">
        <ele>321.7</ele>
        <time>2025-01-10T09:01:10.000Z</time>
      </trkpt>
      <trkpt lat="43.58819" lon="6.83676">
        <ele>322.1</ele>
        <time>2025-01-10T09:01:09.000Z</time>
      </trkpt>
      <trkpt lat="43.58819" lon="6.83684">
        <ele>322.4</ele>
        <time>2025-01-10T09:01:08.000Z</time>
      </trkpt>
      <trkpt lat="43.58819" lon="6.83693">
        <ele>322.7</ele>
        <time>2025-01-10T09:01:07.000Z</time>
      </trkpt>
      <trkpt lat="43.58819" lon="6.83701">
        <ele>323.1</ele>
        <time>2025-01-10T09:01:06.000Z</time>
      </trkpt>
      <trkpt lat="43.58818" lon="6.83709">
        <ele>323.4</ele>
        <time>2025-01-10T09:01:05.000Z</time>
      </trkpt>
      <trkpt lat="43.58816" lon="6.83717">
        <ele>323.7</ele>
        <time>2025-01-10T09:01:04.000Z</time>
      </trkpt>
      <trkpt lat="43.58815" lon="6.83726">
        <ele>324.2</ele>
        <time>2025-01-10T09:01:03.000Z</time>
      </trkpt>
      <trkpt lat="43.58815" lon="6.83727">
        <ele>324.2</ele>
        <time>2025-01-10T09:01:02.000Z</time>
      </trkpt>
      <trkpt lat="43.58814" lon="6.83728">
        <ele>324.3</ele>
        <time>2025-01-10T09:01:01.000Z</time>
      </trkpt>
      <trkpt lat="43.58814" lon="6.83729">
        <ele>324.4</ele>
        <time>2025-01-10T09:01:00.000Z</time>
      </trkpt>
      <trkpt lat="43.58814" lon="6.8373">
        <ele>324.4</ele>
        <time>2025-01-10T09:00:59.000Z</time>
      </trkpt>
      <trkpt lat="43.58814" lon="6.83731">
        <ele>324.5</ele>
        <time>2025-01-10T09:00:58.000Z</time>
      </trkpt>
      <trkpt lat="43.58813" lon="6.83732">
        <ele>324.6</ele>
        <time>2025-01-10T09:00:57.000Z</time>
      </trkpt>
      <trkpt lat="43.58813" lon="6.83733">
        <ele>324.6</ele>
        <time>2025-01-10T09:00:56.000Z</time>
      </trkpt>
      <trkpt lat="43.58813" lon="6.83734">
        <ele>324.7</ele>
        <time>2025-01-10T09:00:55.000Z</time>
      </trkpt>
      <trkpt lat="43.58813" lon="6.83735">
        <ele>324.8</ele>
        <time>2025-01-10T09:00:54.000Z</time>
      </trkpt>
      <trkpt lat="43.58812" lon="6.83736">
        <ele>324.8</ele>
        <time>2025-01-10T09:00:53.000Z</time>
      </trkpt>
      <trkpt lat="43.58812" lon="6.83737">
        <ele>324.9</ele>
        <time>2025-01-10T09:00:52.000Z</time>
      </trkpt>
      <trkpt lat="43.58812" lon="6.83738">
        <ele>325</ele>
        <time>2025-01-10T09:00:51.000Z</time>
      </trkpt>
      <trkpt lat="43.58811" lon="6.8374">
        <ele>325</ele>
        <time>2025-01-10T09:00:50.000Z</time>
      </trkpt>
      <trkpt lat="43.58811" lon="6.83741">
        <ele>325.1</ele>
        <time>2025-01-10T09:00:49.000Z</time>
      </trkpt>
      <trkpt lat="43.58811" lon="6.83742">
        <ele>325.2</ele>
        <time>2025-01-10T09:00:48.000Z</time>
      </trkpt>
      <trkpt lat="43.58811" lon="6.83743">
        <ele>325.2</ele>
        <time>2025-01-10T09:00:47.000Z</time>
      </trkpt>
      <trkpt lat="43.5881" lon="6.83744">
        <ele>325.3</ele>
        <time>2025-01-10T09:00:46.000Z</time>
      </trkpt>
      <trkpt lat="43.5881" lon="6.83745">
        <ele>325.4</ele>
        <time>2025-01-10T09:00:45.000Z</time>
      </trkpt>
      <trkpt lat="43.5881" lon="6.83746">
        <ele>325.4</ele>
        <time>2025-01-10T09:00:44.000Z</time>
      </trkpt>
      <trkpt lat="43.58809" lon="6.83747">
        <ele>325.5</ele>
        <time>2025-01-10T09:00:43.000Z</time>
      </trkpt>
      <trkpt lat="43.58809" lon="6.83748">
        <ele>325.6</ele>
        <time>2025-01-10T09:00:42.000Z</time>
      </trkpt>
      <trkpt lat="43.58809" lon="6.83749">
        <ele>325.6</ele>
        <time>2025-01-10T09:00:41.000Z</time>
      </trkpt>
      <trkpt lat="43.58809" lon="6.8375">
        <ele>325.7</ele>
        <time>2025-01-10T09:00:40.000Z</time>
      </trkpt>
      <trkpt lat="43.58808" lon="6.83751">
        <ele>325.8</ele>
        <time>2025-01-10T09:00:39.000Z</time>
      </trkpt>
      <trkpt lat="43.58808" lon="6.83752">
        <ele>325.8</ele>
        <time>2025-01-10T09:00:38.000Z</time>
      </trkpt>
      <trkpt lat="43.58808" lon="6.83753">
        <ele>325.9</ele>
        <time>2025-01-10T09:00:37.000Z</time>
      </trkpt>
      <trkpt lat="43.58807" lon="6.83755">
        <ele>325.9</ele>
        <time>2025-01-10T09:00:36.000Z</time>
      </trkpt>
      <trkpt lat="43.58807" lon="6.83756">
        <ele>326</ele>
        <time>2025-01-10T09:00:35.000Z</time>
      </trkpt>
      <trkpt lat="43.58807" lon="6.83757">
        <ele>326.1</ele>
        <time>2025-01-10T09:00:34.000Z</time>
      </trkpt>
      <trkpt lat="43.58807" lon="6.83758">
        <ele>326.1</ele>
        <time>2025-01-10T09:00:33.000Z</time>
      </trkpt>
      <trkpt lat="43.58806" lon="6.83759">
        <ele>326.2</ele>
        <time>2025-01-10T09:00:32.000Z</time>
      </trkpt>
      <trkpt lat="43.58806" lon="6.8376">
        <ele>326.2</ele>
        <time>2025-01-10T09:00:31.000Z</time>
      </trkpt>
      <trkpt lat="43.58806" lon="6.83761">
        <ele>326.2</ele>
        <time>2025-01-10T09:00:30.000Z</time>
      </trkpt>
      <trkpt lat="43.58805" lon="6.83762">
        <ele>326.2</ele>
        <time>2025-01-10T09:00:29.000Z</time>
      </trkpt>
      <trkpt lat="43.58805" lon="6.83763">
        <ele>326.2</ele>
        <time>2025-01-10T09:00:28.000Z</time>
      </trkpt>
      <trkpt lat="43.58805" lon="6.83764">
        <ele>326.2</ele>
        <time>2025-01-10T09:00:27.000Z</time>
      </trkpt>
      <trkpt lat="43.58805" lon="6.83765">
        <ele>326.2</ele>
        <time>2025-01-10T09:00:26.000Z</time>
      </trkpt>
      <trkpt lat="43.58804" lon="6.83766">
        <ele>326.2</ele>
        <time>2025-01-10T09:00:25.000Z</time>
      </trkpt>
      <trkpt lat="43.58804" lon="6.83767">
        <ele>326.3</ele>
        <time>2025-01-10T09:00:24.000Z</time>
      </trkpt>
      <trkpt lat="43.58804" lon="6.83768">
        <ele>326.3</ele>
        <time>2025-01-10T09:00:23.000Z</time>
      </trkpt>
      <trkpt lat="43.58803" lon="6.8377">
        <ele>326.3</ele>
        <time>2025-01-10T09:00:22.000Z</time>
      </trkpt>
      <trkpt lat="43.58803" lon="6.83771">
        <ele>326.3</ele>
        <time>2025-01-10T09:00:21.000Z</time>
      </trkpt>
      <trkpt lat="43.58803" lon="6.83772">
        <ele>326.3</ele>
        <time>2025-01-10T09:00:20.000Z</time>
      </trkpt>
      <trkpt lat="43.58803" lon="6.83773">
        <ele>326.3</ele>
        <time>2025-01-10T09:00:19.000Z</time>
      </trkpt>
      <trkpt lat="43.58802" lon="6.83774">
        <ele>326.3</ele>
        <time>2025-01-10T09:00:18.000Z</time>
      </trkpt>
      <trkpt lat="43.58802" lon="6.83774">
        <ele>326.3</ele>
        <time>2025-01-10T09:00:17.000Z</time>
      </trkpt>
      <trkpt lat="43.58802" lon="6.83775">
        <ele>326.3</ele>
        <time>2025-01-10T09:00:16.000Z</time>
      </trkpt>
      <trkpt lat="43.58801" lon="6.83776">
        <ele>326.3</ele>
        <time>2025-01-10T09:00:15.000Z</time>
      </trkpt>
      <trkpt lat="43.588" lon="6.83779">
        <ele>326.3</ele>
        <time>2025-01-10T09:00:14.000Z</time>
      </trkpt>
      <trkpt lat="43.58799" lon="6.83783">
        <ele>326.5</ele>
        <time>2025-01-10T09:00:13.000Z</time>
      </trkpt>
      <trkpt lat="43.58797" lon="6.83788">
        <ele>326.7</ele>
        <time>2025-01-10T09:00:12.000Z</time>
      </trkpt>
      <trkpt lat="43.58795" lon="6.83794">
        <ele>326.9</ele>
        <time>2025-01-10T09:00:11.000Z</time>
      </trkpt>
      <trkpt lat="43.58793" lon="6.838">
        <ele>327.2</ele>
        <time>2025-01-10T09:00:10.000Z</time>
      </trkpt>
      <trkpt lat="43.58792" lon="6.83807">
        <ele>327.4</ele>
        <time>2025-01-10T09:00:09.000Z</time>
      </trkpt>
      <trkpt lat="43.58791" lon="6.83813">
        <ele>327.6</ele>
        <time>2025-01-10T09:00:08.000Z</time>
      </trkpt>
      <trkpt lat="43.5879" lon="6.8382">
        <ele>327.8</ele>
        <time>2025-01-10T09:00:07.000Z</time>
      </trkpt>
      <trkpt lat="43.5879" lon="6.83826">
        <ele>328</ele>
        <time>2025-01-10T09:00:06.000Z</time>
      </trkpt>
      <trkpt lat="43.58789" lon="6.83832">
        <ele>328.2</ele>
        <time>2025-01-10T09:00:05.000Z</time>
      </trkpt>
      <trkpt lat="43.58789" lon="6.83838">
        <ele>328.4</ele>
        <time>2025-01-10T09:00:04.000Z</time>
      </trkpt>
      <trkpt lat="43.5879" lon="6.83843">
        <ele>328.5</ele>
        <time>2025-01-10T09:00:03.000Z</time>
      </trkpt>
      <trkpt lat="43.5879" lon="6.83847">
        <ele>328.6</ele>
        <time>2025-01-10T09:00:02.000Z</time>
      </trkpt>
      <trkpt lat="43.58792" lon="6.83852">
        <ele>328.7</ele>
        <time>2025-01-10T09:00:01.000Z</time>
      </trkpt>
      <trkpt lat="43.58793" lon="6.83856">
        <ele>328.8</ele>
        <time>2025-01-10T09:00:00.000Z</time>
      </trkpt>
      <trkpt lat="43.58794" lon="6.8386">
        <ele>328.8</ele>
        <time>2025-01-10T08:59:59.000Z</time>
      </trkpt>
      <trkpt lat="43.58796" lon="6.83864">
        <ele>328.8</ele>
        <time>2025-01-10T08:59:58.000Z</time>
      </trkpt>
      <trkpt lat="43.58798" lon="6.83868">
        <ele>328.8</ele>
        <time>2025-01-10T08:59:57.000Z</time>
      </trkpt>
      <trkpt lat="43.58801" lon="6.83872">
        <ele>328.8</ele>
        <time>2025-01-10T08:59:56.000Z</time>
      </trkpt>
      <trkpt lat="43.58803" lon="6.83876">
        <ele>328.7</ele>
        <time>2025-01-10T08:59:55.000Z</time>
      </trkpt>
      <trkpt lat="43.58806" lon="6.83879">
        <ele>328.5</ele>
        <time>2025-01-10T08:59:54.000Z</time>
      </trkpt>
      <trkpt lat="43.58809" lon="6.83883">
        <ele>328.4</ele>
        <time>2025-01-10T08:59:53.000Z</time>
      </trkpt>
      <trkpt lat="43.58813" lon="6.83887">
        <ele>328.2</ele>
        <time>2025-01-10T08:59:52.000Z</time>
      </trkpt>
      <trkpt lat="43.58816" lon="6.8389">
        <ele>328</ele>
        <time>2025-01-10T08:59:51.000Z</time>
      </trkpt>
      <trkpt lat="43.58819" lon="6.83894">
        <ele>327.8</ele>
        <time>2025-01-10T08:59:50.000Z</time>
      </trkpt>
      <trkpt lat="43.58822" lon="6.83898">
        <ele>327.6</ele>
        <time>2025-01-10T08:59:49.000Z</time>
      </trkpt>
      <trkpt lat="43.58825" lon="6.83901">
        <ele>327.4</ele>
        <time>2025-01-10T08:59:48.000Z</time>
      </trkpt>
      <trkpt lat="43.58829" lon="6.83905">
        <ele>327.2</ele>
        <time>2025-01-10T08:59:47.000Z</time>
      </trkpt>
      <trkpt lat="43.58832" lon="6.83909">
        <ele>327</ele>
        <time>2025-01-10T08:59:46.000Z</time>
      </trkpt>
      <trkpt lat="43.58836" lon="6.83913">
        <ele>326.9</ele>
        <time>2025-01-10T08:59:45.000Z</time>
      </trkpt>
      <trkpt lat="43.58839" lon="6.83917">
        <ele>326.7</ele>
        <time>2025-01-10T08:59:44.000Z</time>
      </trkpt>
      <trkpt lat="43.58842" lon="6.8392">
        <ele>326.6</ele>
        <time>2025-01-10T08:59:43.000Z</time>
      </trkpt>
      <trkpt lat="43.58843" lon="6.83921">
        <ele>326.6</ele>
        <time>2025-01-10T08:59:42.000Z</time>
      </trkpt>
      <trkpt lat="43.58843" lon="6.83922">
        <ele>326.5</ele>
        <time>2025-01-10T08:59:41.000Z</time>
      </trkpt>
      <trkpt lat="43.58844" lon="6.83922">
        <ele>326.5</ele>
        <time>2025-01-10T08:59:40.000Z</time>
      </trkpt>
      <trkpt lat="43.58845" lon="6.83923">
        <ele>326.5</ele>
        <time>2025-01-10T08:59:39.000Z</time>
      </trkpt>
      <trkpt lat="43.58845" lon="6.83924">
        <ele>326.4</ele>
        <time>2025-01-10T08:59:38.000Z</time>
      </trkpt>
      <trkpt lat="43.58846" lon="6.83925">
        <ele>326.4</ele>
        <time>2025-01-10T08:59:37.000Z</time>
      </trkpt>
      <trkpt lat="43.58847" lon="6.83925">
        <ele>326.4</ele>
        <time>2025-01-10T08:59:36.000Z</time>
      </trkpt>
      <trkpt lat="43.58847" lon="6.83926">
        <ele>326.3</ele>
        <time>2025-01-10T08:59:35.000Z</time>
      </trkpt>
      <trkpt lat="43.58848" lon="6.83927">
        <ele>326.3</ele>
        <time>2025-01-10T08:59:34.000Z</time>
      </trkpt>
      <trkpt lat="43.58849" lon="6.83928">
        <ele>326.3</ele>
        <time>2025-01-10T08:59:33.000Z</time>
      </trkpt>
      <trkpt lat="43.58849" lon="6.83928">
        <ele>326.2</ele>
        <time>2025-01-10T08:59:32.000Z</time>
      </trkpt>
      <trkpt lat="43.5885" lon="6.83929">
        <ele>326.2</ele>
        <time>2025-01-10T08:59:31.000Z</time>
      </trkpt>
      <trkpt lat="43.58851" lon="6.8393">
        <ele>326.2</ele>
        <time>2025-01-10T08:59:30.000Z</time>
      </trkpt>
      <trkpt lat="43.58851" lon="6.83931">
        <ele>326.1</ele>
        <time>2025-01-10T08:59:29.000Z</time>
      </trkpt>
      <trkpt lat="43.58852" lon="6.83931">
        <ele>326.1</ele>
        <time>2025-01-10T08:59:28.000Z</time>
      </trkpt>
      <trkpt lat="43.58853" lon="6.83932">
        <ele>326.1</ele>
        <time>2025-01-10T08:59:27.000Z</time>
      </trkpt>
      <trkpt lat="43.58853" lon="6.83933">
        <ele>326</ele>
        <time>2025-01-10T08:59:26.000Z</time>
      </trkpt>
      <trkpt lat="43.58854" lon="6.83934">
        <ele>326</ele>
        <time>2025-01-10T08:59:25.000Z</time>
      </trkpt>
      <trkpt lat="43.58855" lon="6.83934">
        <ele>326</ele>
        <time>2025-01-10T08:59:24.000Z</time>
      </trkpt>
      <trkpt lat="43.58855" lon="6.83935">
        <ele>325.9</ele>
        <time>2025-01-10T08:59:23.000Z</time>
      </trkpt>
      <trkpt lat="43.58856" lon="6.83936">
        <ele>325.9</ele>
        <time>2025-01-10T08:59:22.000Z</time>
      </trkpt>
      <trkpt lat="43.58856" lon="6.83937">
        <ele>325.9</ele>
        <time>2025-01-10T08:59:21.000Z</time>
      </trkpt>
      <trkpt lat="43.58857" lon="6.83937">
        <ele>325.8</ele>
        <time>2025-01-10T08:59:20.000Z</time>
      </trkpt>
      <trkpt lat="43.58858" lon="6.83938">
        <ele>325.8</ele>
        <time>2025-01-10T08:59:19.000Z</time>
      </trkpt>
      <trkpt lat="43.58858" lon="6.83939">
        <ele>325.8</ele>
        <time>2025-01-10T08:59:18.000Z</time>
      </trkpt>
      <trkpt lat="43.58859" lon="6.8394">
        <ele>325.7</ele>
        <time>2025-01-10T08:59:17.000Z</time>
      </trkpt>
      <trkpt lat="43.5886" lon="6.8394">
        <ele>325.7</ele>
        <time>2025-01-10T08:59:16.000Z</time>
      </trkpt>
      <trkpt lat="43.5886" lon="6.83941">
        <ele>325.7</ele>
        <time>2025-01-10T08:59:15.000Z</time>
      </trkpt>
      <trkpt lat="43.58861" lon="6.83942">
        <ele>325.7</ele>
        <time>2025-01-10T08:59:14.000Z</time>
      </trkpt>
      <trkpt lat="43.58862" lon="6.83943">
        <ele>325.6</ele>
        <time>2025-01-10T08:59:13.000Z</time>
      </trkpt>
      <trkpt lat="43.58862" lon="6.83943">
        <ele>325.6</ele>
        <time>2025-01-10T08:59:12.000Z</time>
      </trkpt>
      <trkpt lat="43.58863" lon="6.83944">
        <ele>325.6</ele>
        <time>2025-01-10T08:59:11.000Z</time>
      </trkpt>
      <trkpt lat="43.58864" lon="6.83945">
        <ele>325.5</ele>
        <time>2025-01-10T08:59:10.000Z</time>
      </trkpt>
      <trkpt lat="43.58865" lon="6.83946">
        <ele>325.5</ele>
        <time>2025-01-10T08:59:09.000Z</time>
      </trkpt>
      <trkpt lat="43.58865" lon="6.83946">
        <ele>325.5</ele>
        <time>2025-01-10T08:59:08.000Z</time>
      </trkpt>
      <trkpt lat="43.58866" lon="6.83948">
        <ele>325.5</ele>
        <time>2025-01-10T08:59:07.000Z</time>
      </trkpt>
      <trkpt lat="43.58866" lon="6.8395">
        <ele>325.4</ele>
        <time>2025-01-10T08:59:06.000Z</time>
      </trkpt>
      <trkpt lat="43.58867" lon="6.83954">
        <ele>325.3</ele>
        <time>2025-01-10T08:59:05.000Z</time>
      </trkpt>
      <trkpt lat="43.58867" lon="6.83958">
        <ele>325.2</ele>
        <time>2025-01-10T08:59:04.000Z</time>
      </trkpt>
      <trkpt lat="43.58867" lon="6.83963">
        <ele>325.1</ele>
        <time>2025-01-10T08:59:03.000Z</time>
      </trkpt>
      <trkpt lat="43.58867" lon="6.83969">
        <ele>324.9</ele>
        <time>2025-01-10T08:59:02.000Z</time>
      </trkpt>
      <trkpt lat="43.58866" lon="6.83976">
        <ele>324.8</ele>
        <time>2025-01-10T08:59:01.000Z</time>
      </trkpt>
      <trkpt lat="43.58866" lon="6.83984">
        <ele>325</ele>
        <time>2025-01-10T08:59:00.000Z</time>
      </trkpt>
      <trkpt lat="43.58865" lon="6.83991">
        <ele>325.2</ele>
        <time>2025-01-10T08:58:59.000Z</time>
      </trkpt>
      <trkpt lat="43.58864" lon="6.83998">
        <ele>325.4</ele>
        <time>2025-01-10T08:58:58.000Z</time>
      </trkpt>
      <trkpt lat="43.58862" lon="6.84005">
        <ele>325.6</ele>
        <time>2025-01-10T08:58:57.000Z</time>
      </trkpt>
      <trkpt lat="43.58861" lon="6.84011">
        <ele>325.8</ele>
        <time>2025-01-10T08:58:56.000Z</time>
      </trkpt>
      <trkpt lat="43.58858" lon="6.84017">
        <ele>326</ele>
        <time>2025-01-10T08:58:55.000Z</time>
      </trkpt>
      <trkpt lat="43.58856" lon="6.84022">
        <ele>326.1</ele>
        <time>2025-01-10T08:58:54.000Z</time>
      </trkpt>
      <trkpt lat="43.58854" lon="6.84027">
        <ele>326.2</ele>
        <time>2025-01-10T08:58:53.000Z</time>
      </trkpt>
      <trkpt lat="43.58853" lon="6.84033">
        <ele>326.4</ele>
        <time>2025-01-10T08:58:52.000Z</time>
      </trkpt>
      <trkpt lat="43.58852" lon="6.84039">
        <ele>326.5</ele>
        <time>2025-01-10T08:58:51.000Z</time>
      </trkpt>
      <trkpt lat="43.58851" lon="6.84045">
        <ele>326.5</ele>
        <time>2025-01-10T08:58:50.000Z</time>
      </trkpt>
      <trkpt lat="43.58851" lon="6.8405">
        <ele>326.6</ele>
        <time>2025-01-10T08:58:49.000Z</time>
      </trkpt>
      <trkpt lat="43.58851" lon="6.84056">
        <ele>326.7</ele>
        <time>2025-01-10T08:58:48.000Z</time>
      </trkpt>
      <trkpt lat="43.58851" lon="6.84062">
        <ele>326.7</ele>
        <time>2025-01-10T08:58:47.000Z</time>
      </trkpt>
      <trkpt lat="43.58851" lon="6.84068">
        <ele>326.9</ele>
        <time>2025-01-10T08:58:46.000Z</time>
      </trkpt>
      <trkpt lat="43.58851" lon="6.84074">
        <ele>327.3</ele>
        <time>2025-01-10T08:58:45.000Z</time>
      </trkpt>
      <trkpt lat="43.58851" lon="6.84082">
        <ele>327.7</ele>
        <time>2025-01-10T08:58:44.000Z</time>
      </trkpt>
      <trkpt lat="43.58852" lon="6.84087">
        <ele>328</ele>
        <time>2025-01-10T08:58:43.000Z</time>
      </trkpt>
      <trkpt lat="43.58852" lon="6.84094">
        <ele>328.4</ele>
        <time>2025-01-10T08:58:42.000Z</time>
      </trkpt>
      <trkpt lat="43.58852" lon="6.84101">
        <ele>328.7</ele>
        <time>2025-01-10T08:58:41.000Z</time>
      </trkpt>
      <trkpt lat="43.58853" lon="6.84107">
        <ele>329</ele>
        <time>2025-01-10T08:58:40.000Z</time>
      </trkpt>
      <trkpt lat="43.58855" lon="6.84113">
        <ele>329.3</ele>
        <time>2025-01-10T08:58:39.000Z</time>
      </trkpt>
      <trkpt lat="43.58857" lon="6.84118">
        <ele>329.6</ele>
        <time>2025-01-10T08:58:38.000Z</time>
      </trkpt>
      <trkpt lat="43.5886" lon="6.84123">
        <ele>329.9</ele>
        <time>2025-01-10T08:58:37.000Z</time>
      </trkpt>
      <trkpt lat="43.58864" lon="6.84127">
        <ele>330.2</ele>
        <time>2025-01-10T08:58:36.000Z</time>
      </trkpt>
      <trkpt lat="43.58868" lon="6.8413">
        <ele>330.5</ele>
        <time>2025-01-10T08:58:35.000Z</time>
      </trkpt>
      <trkpt lat="43.58872" lon="6.84132">
        <ele>330.7</ele>
        <time>2025-01-10T08:58:34.000Z</time>
      </trkpt>
      <trkpt lat="43.58876" lon="6.84134">
        <ele>331</ele>
        <time>2025-01-10T08:58:33.000Z</time>
      </trkpt>
      <trkpt lat="43.5888" lon="6.84136">
        <ele>331.1</ele>
        <time>2025-01-10T08:58:32.000Z</time>
      </trkpt>
      <trkpt lat="43.58883" lon="6.84137">
        <ele>331.2</ele>
        <time>2025-01-10T08:58:31.000Z</time>
      </trkpt>
      <trkpt lat="43.58886" lon="6.84138">
        <ele>331.3</ele>
        <time>2025-01-10T08:58:30.000Z</time>
      </trkpt>
      <trkpt lat="43.5889" lon="6.84138">
        <ele>331.3</ele>
        <time>2025-01-10T08:58:29.000Z</time>
      </trkpt>
      <trkpt lat="43.58893" lon="6.84139">
        <ele>331.3</ele>
        <time>2025-01-10T08:58:28.000Z</time>
      </trkpt>
      <trkpt lat="43.58897" lon="6.84139">
        <ele>330.9</ele>
        <time>2025-01-10T08:58:27.000Z</time>
      </trkpt>
      <trkpt lat="43.589" lon="6.8414">
        <ele>330.6</ele>
        <time>2025-01-10T08:58:26.000Z</time>
      </trkpt>
      <trkpt lat="43.58903" lon="6.84141">
        <ele>330.3</ele>
        <time>2025-01-10T08:58:25.000Z</time>
      </trkpt>
      <trkpt lat="43.58907" lon="6.84142">
        <ele>329.9</ele>
        <time>2025-01-10T08:58:24.000Z</time>
        <extensions>
          <visugpx:TrkExtension xmlns:visugpx="https://www.visugpx.com/editgpx/">
            <visugpx:node>1</visugpx:node>
            </visugpx:TrkExtension>
        </extensions>
      </trkpt>
    </trkseg>
  </trk>
</gpx>